<?xml version="1.0" encoding="UTF-8" standalone="no" ?>
<gpx xmlns="http://www.topografix.com/GPX/1/1" xmlns:xsi="http://www.w3.org/2001/XMLSchema-instance" xsi:schemaLocation="http://www.topografix.com/GPX/1/1 http://www.topografix.com/GPX/1/1/gpx.xsd" version="1.1" creator="VisuGPX - https://www.visugpx.com">
  <metadata>
    <name>2017-08-09 Bike ride-Amberieux-Rance O 37</name>
    <desc><![CDATA[2017-08-09 Bike ride-Amberieux-Rance O 37]]></desc>
  </metadata>
  <wpt lat="45.92809" lon="4.73537">
    <ele>172</ele>
    <name><![CDATA[2017-08-09 10:50 (Start)]]></name>
  </wpt>
  <wpt lat="45.9246" lon="4.73705">
    <ele>174</ele>
    <name><![CDATA[2017-08-09 10:50 (End)]]></name>
    <desc><![CDATA[Created by Google My Tracks on Android  Name: 2017-08-09 10:50 Activity type: biking Description: - Total distance: 35.77 km (22.2 mi) Total time: 1:52:48 Moving time: 1:46:25 Average speed: 19.03 km/h (11.8 mi/h) Average moving speed: 20.17 km/h (12.5 mi/h) Max speed: 48.22 km/h (30.0 mi/h) Average pace: 3:09 min/km (5:05 min/mi) Average moving pace: 2:59 min/km (4:47 min/mi) Fastest pace: 1:15 min/km (2:00 min/mi) Max elevation: 295 m (967 ft) Min elevation: 166 m (544 ft) Elevation gain: 549 m (1803 ft) Max grade: 12 % Min grade: -10 % Recorded: 09/08/2017 10:50]]></desc>
  </wpt>
  <trk>
    <name><![CDATA[2017-08-09 10:50]]></name>
    <trkseg>
      <trkpt lat="45.92809" lon="4.73537">
        <ele>172</ele>
        <time>2017-08-09T08:50:50.475Z</time>
      </trkpt>
      <trkpt lat="45.92811" lon="4.73527">
        <ele>172</ele>
        <time>2017-08-09T08:53:02Z</time>
      </trkpt>
      <trkpt lat="45.92813" lon="4.73517">
        <ele>172</ele>
        <time>2017-08-09T08:53:03Z</time>
      </trkpt>
      <trkpt lat="45.92815" lon="4.73508">
        <ele>172</ele>
        <time>2017-08-09T08:53:04Z</time>
      </trkpt>
      <trkpt lat="45.92817" lon="4.73498">
        <ele>172</ele>
        <time>2017-08-09T08:53:05Z</time>
      </trkpt>
      <trkpt lat="45.92818" lon="4.73489">
        <ele>172</ele>
        <time>2017-08-09T08:53:06Z</time>
      </trkpt>
      <trkpt lat="45.92819" lon="4.7348">
        <ele>172</ele>
        <time>2017-08-09T08:53:07Z</time>
      </trkpt>
      <trkpt lat="45.92821" lon="4.73472">
        <ele>171</ele>
        <time>2017-08-09T08:53:08Z</time>
      </trkpt>
      <trkpt lat="45.92822" lon="4.73465">
        <ele>171</ele>
        <time>2017-08-09T08:53:09Z</time>
      </trkpt>
      <trkpt lat="45.92823" lon="4.73457">
        <ele>171</ele>
        <time>2017-08-09T08:53:10Z</time>
      </trkpt>
      <trkpt lat="45.92824" lon="4.73451">
        <ele>172</ele>
        <time>2017-08-09T08:53:11Z</time>
      </trkpt>
      <trkpt lat="45.92825" lon="4.73444">
        <ele>172</ele>
        <time>2017-08-09T08:53:12Z</time>
      </trkpt>
      <trkpt lat="45.92826" lon="4.73436">
        <ele>172</ele>
        <time>2017-08-09T08:53:13Z</time>
      </trkpt>
      <trkpt lat="45.92827" lon="4.7343">
        <ele>172</ele>
        <time>2017-08-09T08:53:14Z</time>
      </trkpt>
      <trkpt lat="45.92827" lon="4.73423">
        <ele>172</ele>
        <time>2017-08-09T08:53:15Z</time>
      </trkpt>
      <trkpt lat="45.92828" lon="4.73414">
        <ele>172</ele>
        <time>2017-08-09T08:53:16Z</time>
      </trkpt>
      <trkpt lat="45.92829" lon="4.73406">
        <ele>172</ele>
        <time>2017-08-09T08:53:17Z</time>
      </trkpt>
      <trkpt lat="45.9283" lon="4.73398">
        <ele>172</ele>
        <time>2017-08-09T08:53:18Z</time>
      </trkpt>
      <trkpt lat="45.92831" lon="4.73389">
        <ele>171</ele>
        <time>2017-08-09T08:53:19Z</time>
      </trkpt>
      <trkpt lat="45.92832" lon="4.73381">
        <ele>171</ele>
        <time>2017-08-09T08:53:20Z</time>
      </trkpt>
      <trkpt lat="45.92834" lon="4.73373">
        <ele>171</ele>
        <time>2017-08-09T08:53:21Z</time>
      </trkpt>
      <trkpt lat="45.92835" lon="4.73364">
        <ele>171</ele>
        <time>2017-08-09T08:53:22Z</time>
      </trkpt>
      <trkpt lat="45.92836" lon="4.73354">
        <ele>171</ele>
        <time>2017-08-09T08:53:23Z</time>
      </trkpt>
      <trkpt lat="45.92837" lon="4.73345">
        <ele>171</ele>
        <time>2017-08-09T08:53:24Z</time>
      </trkpt>
      <trkpt lat="45.92838" lon="4.73337">
        <ele>171</ele>
        <time>2017-08-09T08:53:25Z</time>
      </trkpt>
      <trkpt lat="45.92839" lon="4.73329">
        <ele>171</ele>
        <time>2017-08-09T08:53:26Z</time>
      </trkpt>
      <trkpt lat="45.92841" lon="4.73311">
        <ele>171</ele>
        <time>2017-08-09T08:53:28Z</time>
      </trkpt>
      <trkpt lat="45.92843" lon="4.73293">
        <ele>171</ele>
        <time>2017-08-09T08:53:30Z</time>
      </trkpt>
      <trkpt lat="45.92845" lon="4.73284">
        <ele>171</ele>
        <time>2017-08-09T08:53:31Z</time>
      </trkpt>
      <trkpt lat="45.92846" lon="4.73276">
        <ele>171</ele>
        <time>2017-08-09T08:53:32Z</time>
      </trkpt>
      <trkpt lat="45.92847" lon="4.73266">
        <ele>171</ele>
        <time>2017-08-09T08:53:33Z</time>
      </trkpt>
      <trkpt lat="45.92848" lon="4.73257">
        <ele>171</ele>
        <time>2017-08-09T08:53:34Z</time>
      </trkpt>
      <trkpt lat="45.92849" lon="4.73248">
        <ele>170</ele>
        <time>2017-08-09T08:53:35Z</time>
      </trkpt>
      <trkpt lat="45.92853" lon="4.73236">
        <ele>171</ele>
        <time>2017-08-09T08:53:36Z</time>
      </trkpt>
      <trkpt lat="45.92855" lon="4.73226">
        <ele>171</ele>
        <time>2017-08-09T08:53:37Z</time>
      </trkpt>
      <trkpt lat="45.92856" lon="4.73217">
        <ele>171</ele>
        <time>2017-08-09T08:53:38Z</time>
      </trkpt>
      <trkpt lat="45.92857" lon="4.73207">
        <ele>171</ele>
        <time>2017-08-09T08:53:39Z</time>
      </trkpt>
      <trkpt lat="45.92858" lon="4.73197">
        <ele>171</ele>
        <time>2017-08-09T08:53:40Z</time>
      </trkpt>
      <trkpt lat="45.9286" lon="4.73189">
        <ele>171</ele>
        <time>2017-08-09T08:53:41Z</time>
      </trkpt>
      <trkpt lat="45.92861" lon="4.73179">
        <ele>171</ele>
        <time>2017-08-09T08:53:42Z</time>
      </trkpt>
      <trkpt lat="45.92862" lon="4.7317">
        <ele>171</ele>
        <time>2017-08-09T08:53:43Z</time>
      </trkpt>
      <trkpt lat="45.92863" lon="4.73161">
        <ele>171</ele>
        <time>2017-08-09T08:53:44Z</time>
      </trkpt>
      <trkpt lat="45.92864" lon="4.73153">
        <ele>171</ele>
        <time>2017-08-09T08:53:45Z</time>
      </trkpt>
      <trkpt lat="45.92866" lon="4.73144">
        <ele>171</ele>
        <time>2017-08-09T08:53:46Z</time>
      </trkpt>
      <trkpt lat="45.92868" lon="4.73136">
        <ele>171</ele>
        <time>2017-08-09T08:53:47Z</time>
      </trkpt>
      <trkpt lat="45.92869" lon="4.73128">
        <ele>171</ele>
        <time>2017-08-09T08:53:48Z</time>
      </trkpt>
      <trkpt lat="45.92871" lon="4.73121">
        <ele>171</ele>
        <time>2017-08-09T08:53:49Z</time>
      </trkpt>
      <trkpt lat="45.92874" lon="4.73112">
        <ele>172</ele>
        <time>2017-08-09T08:53:50Z</time>
      </trkpt>
      <trkpt lat="45.92876" lon="4.73104">
        <ele>172</ele>
        <time>2017-08-09T08:53:51Z</time>
      </trkpt>
      <trkpt lat="45.92878" lon="4.73097">
        <ele>172</ele>
        <time>2017-08-09T08:53:52Z</time>
      </trkpt>
      <trkpt lat="45.92881" lon="4.73089">
        <ele>172</ele>
        <time>2017-08-09T08:53:53Z</time>
      </trkpt>
      <trkpt lat="45.92884" lon="4.73081">
        <ele>172</ele>
        <time>2017-08-09T08:53:54Z</time>
      </trkpt>
      <trkpt lat="45.92888" lon="4.73074">
        <ele>172</ele>
        <time>2017-08-09T08:53:55Z</time>
      </trkpt>
      <trkpt lat="45.92892" lon="4.73066">
        <ele>172</ele>
        <time>2017-08-09T08:53:56Z</time>
      </trkpt>
      <trkpt lat="45.92895" lon="4.73059">
        <ele>172</ele>
        <time>2017-08-09T08:53:57Z</time>
      </trkpt>
      <trkpt lat="45.929" lon="4.73051">
        <ele>172</ele>
        <time>2017-08-09T08:53:58Z</time>
      </trkpt>
      <trkpt lat="45.92904" lon="4.73045">
        <ele>172</ele>
        <time>2017-08-09T08:53:59Z</time>
      </trkpt>
      <trkpt lat="45.92908" lon="4.73038">
        <ele>172</ele>
        <time>2017-08-09T08:54:00Z</time>
      </trkpt>
      <trkpt lat="45.92912" lon="4.73031">
        <ele>172</ele>
        <time>2017-08-09T08:54:01Z</time>
      </trkpt>
      <trkpt lat="45.92916" lon="4.73023">
        <ele>172</ele>
        <time>2017-08-09T08:54:02Z</time>
      </trkpt>
      <trkpt lat="45.9292" lon="4.73016">
        <ele>172</ele>
        <time>2017-08-09T08:54:03Z</time>
      </trkpt>
      <trkpt lat="45.92925" lon="4.73011">
        <ele>172</ele>
        <time>2017-08-09T08:54:04Z</time>
      </trkpt>
      <trkpt lat="45.92929" lon="4.73006">
        <ele>172</ele>
        <time>2017-08-09T08:54:05Z</time>
      </trkpt>
      <trkpt lat="45.92934" lon="4.73001">
        <ele>171</ele>
        <time>2017-08-09T08:54:06Z</time>
      </trkpt>
      <trkpt lat="45.92939" lon="4.72997">
        <ele>171</ele>
        <time>2017-08-09T08:54:07Z</time>
      </trkpt>
      <trkpt lat="45.92943" lon="4.72991">
        <ele>171</ele>
        <time>2017-08-09T08:54:08Z</time>
      </trkpt>
      <trkpt lat="45.92947" lon="4.72986">
        <ele>171</ele>
        <time>2017-08-09T08:54:09Z</time>
      </trkpt>
      <trkpt lat="45.92951" lon="4.72981">
        <ele>171</ele>
        <time>2017-08-09T08:54:10Z</time>
      </trkpt>
      <trkpt lat="45.92955" lon="4.72975">
        <ele>171</ele>
        <time>2017-08-09T08:54:11Z</time>
      </trkpt>
      <trkpt lat="45.92959" lon="4.72969">
        <ele>171</ele>
        <time>2017-08-09T08:54:12Z</time>
      </trkpt>
      <trkpt lat="45.92964" lon="4.72963">
        <ele>171</ele>
        <time>2017-08-09T08:54:13Z</time>
      </trkpt>
      <trkpt lat="45.92968" lon="4.72957">
        <ele>171</ele>
        <time>2017-08-09T08:54:14Z</time>
      </trkpt>
      <trkpt lat="45.92973" lon="4.72952">
        <ele>171</ele>
        <time>2017-08-09T08:54:15Z</time>
      </trkpt>
      <trkpt lat="45.92978" lon="4.72946">
        <ele>171</ele>
        <time>2017-08-09T08:54:16Z</time>
      </trkpt>
      <trkpt lat="45.92983" lon="4.72941">
        <ele>171</ele>
        <time>2017-08-09T08:54:17Z</time>
      </trkpt>
      <trkpt lat="45.92987" lon="4.72936">
        <ele>171</ele>
        <time>2017-08-09T08:54:18Z</time>
      </trkpt>
      <trkpt lat="45.92992" lon="4.72931">
        <ele>171</ele>
        <time>2017-08-09T08:54:19Z</time>
      </trkpt>
      <trkpt lat="45.92996" lon="4.72926">
        <ele>171</ele>
        <time>2017-08-09T08:54:20Z</time>
      </trkpt>
      <trkpt lat="45.93001" lon="4.7292">
        <ele>171</ele>
        <time>2017-08-09T08:54:21Z</time>
      </trkpt>
      <trkpt lat="45.93006" lon="4.72915">
        <ele>171</ele>
        <time>2017-08-09T08:54:22Z</time>
      </trkpt>
      <trkpt lat="45.9301" lon="4.7291">
        <ele>171</ele>
        <time>2017-08-09T08:54:23Z</time>
      </trkpt>
      <trkpt lat="45.93014" lon="4.72905">
        <ele>172</ele>
        <time>2017-08-09T08:54:24Z</time>
      </trkpt>
      <trkpt lat="45.93018" lon="4.729">
        <ele>172</ele>
        <time>2017-08-09T08:54:25Z</time>
      </trkpt>
      <trkpt lat="45.93022" lon="4.72894">
        <ele>172</ele>
        <time>2017-08-09T08:54:26Z</time>
      </trkpt>
      <trkpt lat="45.93026" lon="4.72889">
        <ele>172</ele>
        <time>2017-08-09T08:54:27Z</time>
      </trkpt>
      <trkpt lat="45.93031" lon="4.72883">
        <ele>172</ele>
        <time>2017-08-09T08:54:28Z</time>
      </trkpt>
      <trkpt lat="45.93035" lon="4.72878">
        <ele>172</ele>
        <time>2017-08-09T08:54:29Z</time>
      </trkpt>
      <trkpt lat="45.9304" lon="4.72873">
        <ele>172</ele>
        <time>2017-08-09T08:54:30Z</time>
      </trkpt>
      <trkpt lat="45.93045" lon="4.72867">
        <ele>172</ele>
        <time>2017-08-09T08:54:31Z</time>
      </trkpt>
      <trkpt lat="45.93049" lon="4.72862">
        <ele>172</ele>
        <time>2017-08-09T08:54:32Z</time>
      </trkpt>
      <trkpt lat="45.93054" lon="4.72855">
        <ele>172</ele>
        <time>2017-08-09T08:54:33Z</time>
      </trkpt>
      <trkpt lat="45.93058" lon="4.72849">
        <ele>172</ele>
        <time>2017-08-09T08:54:34Z</time>
      </trkpt>
      <trkpt lat="45.93063" lon="4.72844">
        <ele>172</ele>
        <time>2017-08-09T08:54:35Z</time>
      </trkpt>
      <trkpt lat="45.93067" lon="4.72839">
        <ele>173</ele>
        <time>2017-08-09T08:54:36Z</time>
      </trkpt>
      <trkpt lat="45.93072" lon="4.72834">
        <ele>173</ele>
        <time>2017-08-09T08:54:37Z</time>
      </trkpt>
      <trkpt lat="45.93076" lon="4.72828">
        <ele>173</ele>
        <time>2017-08-09T08:54:38Z</time>
      </trkpt>
      <trkpt lat="45.9308" lon="4.72823">
        <ele>173</ele>
        <time>2017-08-09T08:54:39Z</time>
      </trkpt>
      <trkpt lat="45.93085" lon="4.72817">
        <ele>172</ele>
        <time>2017-08-09T08:54:40Z</time>
      </trkpt>
      <trkpt lat="45.93093" lon="4.72813">
        <ele>172</ele>
        <time>2017-08-09T08:54:41Z</time>
      </trkpt>
      <trkpt lat="45.93099" lon="4.72805">
        <ele>171</ele>
        <time>2017-08-09T08:54:42Z</time>
      </trkpt>
      <trkpt lat="45.93104" lon="4.72799">
        <ele>171</ele>
        <time>2017-08-09T08:54:43Z</time>
      </trkpt>
      <trkpt lat="45.93108" lon="4.72792">
        <ele>171</ele>
        <time>2017-08-09T08:54:44Z</time>
      </trkpt>
      <trkpt lat="45.93113" lon="4.72786">
        <ele>171</ele>
        <time>2017-08-09T08:54:45Z</time>
      </trkpt>
      <trkpt lat="45.93118" lon="4.72781">
        <ele>171</ele>
        <time>2017-08-09T08:54:46Z</time>
      </trkpt>
      <trkpt lat="45.93122" lon="4.72776">
        <ele>171</ele>
        <time>2017-08-09T08:54:47Z</time>
      </trkpt>
      <trkpt lat="45.93127" lon="4.72771">
        <ele>171</ele>
        <time>2017-08-09T08:54:48Z</time>
      </trkpt>
      <trkpt lat="45.93132" lon="4.72765">
        <ele>171</ele>
        <time>2017-08-09T08:54:49Z</time>
      </trkpt>
      <trkpt lat="45.93137" lon="4.72759">
        <ele>171</ele>
        <time>2017-08-09T08:54:50Z</time>
      </trkpt>
      <trkpt lat="45.93142" lon="4.72753">
        <ele>171</ele>
        <time>2017-08-09T08:54:51Z</time>
      </trkpt>
      <trkpt lat="45.93148" lon="4.72746">
        <ele>170</ele>
        <time>2017-08-09T08:54:52Z</time>
      </trkpt>
      <trkpt lat="45.93153" lon="4.7274">
        <ele>170</ele>
        <time>2017-08-09T08:54:53Z</time>
      </trkpt>
      <trkpt lat="45.93158" lon="4.72734">
        <ele>170</ele>
        <time>2017-08-09T08:54:54Z</time>
      </trkpt>
      <trkpt lat="45.93163" lon="4.72729">
        <ele>170</ele>
        <time>2017-08-09T08:54:55Z</time>
      </trkpt>
      <trkpt lat="45.93168" lon="4.72723">
        <ele>170</ele>
        <time>2017-08-09T08:54:56Z</time>
      </trkpt>
      <trkpt lat="45.93173" lon="4.72717">
        <ele>170</ele>
        <time>2017-08-09T08:54:57Z</time>
      </trkpt>
      <trkpt lat="45.93178" lon="4.72711">
        <ele>169</ele>
        <time>2017-08-09T08:54:58Z</time>
      </trkpt>
      <trkpt lat="45.93183" lon="4.72705">
        <ele>169</ele>
        <time>2017-08-09T08:54:59Z</time>
      </trkpt>
      <trkpt lat="45.93188" lon="4.72699">
        <ele>169</ele>
        <time>2017-08-09T08:55:00Z</time>
      </trkpt>
      <trkpt lat="45.93193" lon="4.72693">
        <ele>169</ele>
        <time>2017-08-09T08:55:01Z</time>
      </trkpt>
      <trkpt lat="45.93198" lon="4.72687">
        <ele>169</ele>
        <time>2017-08-09T08:55:02Z</time>
      </trkpt>
      <trkpt lat="45.93204" lon="4.72682">
        <ele>169</ele>
        <time>2017-08-09T08:55:03Z</time>
      </trkpt>
      <trkpt lat="45.93208" lon="4.72675">
        <ele>169</ele>
        <time>2017-08-09T08:55:04Z</time>
      </trkpt>
      <trkpt lat="45.93214" lon="4.72668">
        <ele>169</ele>
        <time>2017-08-09T08:55:05Z</time>
      </trkpt>
      <trkpt lat="45.93219" lon="4.72662">
        <ele>170</ele>
        <time>2017-08-09T08:55:06Z</time>
      </trkpt>
      <trkpt lat="45.93225" lon="4.72656">
        <ele>170</ele>
        <time>2017-08-09T08:55:07Z</time>
      </trkpt>
      <trkpt lat="45.9323" lon="4.72651">
        <ele>170</ele>
        <time>2017-08-09T08:55:08Z</time>
      </trkpt>
      <trkpt lat="45.93235" lon="4.72645">
        <ele>170</ele>
        <time>2017-08-09T08:55:09Z</time>
      </trkpt>
      <trkpt lat="45.9324" lon="4.7264">
        <ele>170</ele>
        <time>2017-08-09T08:55:10Z</time>
      </trkpt>
      <trkpt lat="45.93245" lon="4.72634">
        <ele>170</ele>
        <time>2017-08-09T08:55:11Z</time>
      </trkpt>
      <trkpt lat="45.9325" lon="4.72628">
        <ele>170</ele>
        <time>2017-08-09T08:55:12Z</time>
      </trkpt>
      <trkpt lat="45.93254" lon="4.72622">
        <ele>170</ele>
        <time>2017-08-09T08:55:13Z</time>
      </trkpt>
      <trkpt lat="45.93258" lon="4.72616">
        <ele>170</ele>
        <time>2017-08-09T08:55:14Z</time>
      </trkpt>
      <trkpt lat="45.93263" lon="4.7261">
        <ele>170</ele>
        <time>2017-08-09T08:55:15Z</time>
      </trkpt>
      <trkpt lat="45.93268" lon="4.72605">
        <ele>170</ele>
        <time>2017-08-09T08:55:16Z</time>
      </trkpt>
      <trkpt lat="45.93274" lon="4.72598">
        <ele>170</ele>
        <time>2017-08-09T08:55:17Z</time>
      </trkpt>
      <trkpt lat="45.93279" lon="4.72592">
        <ele>170</ele>
        <time>2017-08-09T08:55:18Z</time>
      </trkpt>
      <trkpt lat="45.93284" lon="4.72586">
        <ele>170</ele>
        <time>2017-08-09T08:55:19Z</time>
      </trkpt>
      <trkpt lat="45.93289" lon="4.7258">
        <ele>171</ele>
        <time>2017-08-09T08:55:20Z</time>
      </trkpt>
      <trkpt lat="45.93294" lon="4.72575">
        <ele>171</ele>
        <time>2017-08-09T08:55:21Z</time>
      </trkpt>
      <trkpt lat="45.93299" lon="4.72569">
        <ele>171</ele>
        <time>2017-08-09T08:55:22Z</time>
      </trkpt>
      <trkpt lat="45.93304" lon="4.72563">
        <ele>172</ele>
        <time>2017-08-09T08:55:23Z</time>
      </trkpt>
      <trkpt lat="45.93309" lon="4.72557">
        <ele>172</ele>
        <time>2017-08-09T08:55:24Z</time>
      </trkpt>
      <trkpt lat="45.93314" lon="4.72551">
        <ele>172</ele>
        <time>2017-08-09T08:55:25Z</time>
      </trkpt>
      <trkpt lat="45.93319" lon="4.72545">
        <ele>172</ele>
        <time>2017-08-09T08:55:26Z</time>
      </trkpt>
      <trkpt lat="45.93324" lon="4.7254">
        <ele>172</ele>
        <time>2017-08-09T08:55:27Z</time>
      </trkpt>
      <trkpt lat="45.93329" lon="4.72535">
        <ele>172</ele>
        <time>2017-08-09T08:55:28Z</time>
      </trkpt>
      <trkpt lat="45.93334" lon="4.72529">
        <ele>172</ele>
        <time>2017-08-09T08:55:29Z</time>
      </trkpt>
      <trkpt lat="45.93339" lon="4.72523">
        <ele>172</ele>
        <time>2017-08-09T08:55:30Z</time>
      </trkpt>
      <trkpt lat="45.93344" lon="4.72518">
        <ele>172</ele>
        <time>2017-08-09T08:55:31Z</time>
      </trkpt>
      <trkpt lat="45.93348" lon="4.72513">
        <ele>172</ele>
        <time>2017-08-09T08:55:32Z</time>
      </trkpt>
      <trkpt lat="45.93352" lon="4.72507">
        <ele>172</ele>
        <time>2017-08-09T08:55:33Z</time>
      </trkpt>
      <trkpt lat="45.93356" lon="4.72501">
        <ele>172</ele>
        <time>2017-08-09T08:55:34Z</time>
      </trkpt>
      <trkpt lat="45.93361" lon="4.72496">
        <ele>173</ele>
        <time>2017-08-09T08:55:35Z</time>
      </trkpt>
      <trkpt lat="45.93366" lon="4.72491">
        <ele>173</ele>
        <time>2017-08-09T08:55:36Z</time>
      </trkpt>
      <trkpt lat="45.93372" lon="4.72485">
        <ele>173</ele>
        <time>2017-08-09T08:55:37Z</time>
      </trkpt>
      <trkpt lat="45.93376" lon="4.72478">
        <ele>173</ele>
        <time>2017-08-09T08:55:38Z</time>
      </trkpt>
      <trkpt lat="45.9338" lon="4.72472">
        <ele>173</ele>
        <time>2017-08-09T08:55:39Z</time>
      </trkpt>
      <trkpt lat="45.93384" lon="4.72465">
        <ele>173</ele>
        <time>2017-08-09T08:55:40Z</time>
      </trkpt>
      <trkpt lat="45.93388" lon="4.72459">
        <ele>173</ele>
        <time>2017-08-09T08:55:41Z</time>
      </trkpt>
      <trkpt lat="45.93391" lon="4.72451">
        <ele>173</ele>
        <time>2017-08-09T08:55:42Z</time>
      </trkpt>
      <trkpt lat="45.93393" lon="4.72443">
        <ele>173</ele>
        <time>2017-08-09T08:55:43Z</time>
      </trkpt>
      <trkpt lat="45.93395" lon="4.72435">
        <ele>173</ele>
        <time>2017-08-09T08:55:44Z</time>
      </trkpt>
      <trkpt lat="45.93398" lon="4.72429">
        <ele>173</ele>
        <time>2017-08-09T08:55:45Z</time>
      </trkpt>
      <trkpt lat="45.93401" lon="4.72424">
        <ele>173</ele>
        <time>2017-08-09T08:55:46Z</time>
      </trkpt>
      <trkpt lat="45.93406" lon="4.72419">
        <ele>174</ele>
        <time>2017-08-09T08:55:47Z</time>
      </trkpt>
      <trkpt lat="45.9341" lon="4.72415">
        <ele>174</ele>
        <time>2017-08-09T08:55:48Z</time>
      </trkpt>
      <trkpt lat="45.93416" lon="4.72412">
        <ele>174</ele>
        <time>2017-08-09T08:55:49Z</time>
      </trkpt>
      <trkpt lat="45.93422" lon="4.72409">
        <ele>174</ele>
        <time>2017-08-09T08:55:50Z</time>
      </trkpt>
      <trkpt lat="45.93427" lon="4.72406">
        <ele>174</ele>
        <time>2017-08-09T08:55:51Z</time>
      </trkpt>
      <trkpt lat="45.93433" lon="4.72402">
        <ele>174</ele>
        <time>2017-08-09T08:55:52Z</time>
      </trkpt>
      <trkpt lat="45.93438" lon="4.72398">
        <ele>173</ele>
        <time>2017-08-09T08:55:53Z</time>
      </trkpt>
      <trkpt lat="45.93444" lon="4.72394">
        <ele>173</ele>
        <time>2017-08-09T08:55:54Z</time>
      </trkpt>
      <trkpt lat="45.9345" lon="4.72388">
        <ele>173</ele>
        <time>2017-08-09T08:55:55Z</time>
      </trkpt>
      <trkpt lat="45.93454" lon="4.72382">
        <ele>173</ele>
        <time>2017-08-09T08:55:56Z</time>
      </trkpt>
      <trkpt lat="45.93459" lon="4.72377">
        <ele>173</ele>
        <time>2017-08-09T08:55:57Z</time>
      </trkpt>
      <trkpt lat="45.93463" lon="4.72371">
        <ele>173</ele>
        <time>2017-08-09T08:55:58Z</time>
      </trkpt>
      <trkpt lat="45.93467" lon="4.72367">
        <ele>173</ele>
        <time>2017-08-09T08:55:59Z</time>
      </trkpt>
      <trkpt lat="45.93471" lon="4.72362">
        <ele>173</ele>
        <time>2017-08-09T08:56:00Z</time>
      </trkpt>
      <trkpt lat="45.93474" lon="4.72357">
        <ele>173</ele>
        <time>2017-08-09T08:56:01Z</time>
      </trkpt>
      <trkpt lat="45.93478" lon="4.72353">
        <ele>173</ele>
        <time>2017-08-09T08:56:02Z</time>
      </trkpt>
      <trkpt lat="45.93482" lon="4.72348">
        <ele>173</ele>
        <time>2017-08-09T08:56:03Z</time>
      </trkpt>
      <trkpt lat="45.93486" lon="4.72343">
        <ele>173</ele>
        <time>2017-08-09T08:56:04Z</time>
      </trkpt>
      <trkpt lat="45.9349" lon="4.72337">
        <ele>173</ele>
        <time>2017-08-09T08:56:05Z</time>
      </trkpt>
      <trkpt lat="45.93495" lon="4.7233">
        <ele>173</ele>
        <time>2017-08-09T08:56:06Z</time>
      </trkpt>
      <trkpt lat="45.93499" lon="4.72324">
        <ele>173</ele>
        <time>2017-08-09T08:56:07Z</time>
      </trkpt>
      <trkpt lat="45.93503" lon="4.72317">
        <ele>173</ele>
        <time>2017-08-09T08:56:08Z</time>
      </trkpt>
      <trkpt lat="45.93507" lon="4.72311">
        <ele>173</ele>
        <time>2017-08-09T08:56:09Z</time>
      </trkpt>
      <trkpt lat="45.9351" lon="4.72305">
        <ele>173</ele>
        <time>2017-08-09T08:56:10Z</time>
      </trkpt>
      <trkpt lat="45.93513" lon="4.72299">
        <ele>172</ele>
        <time>2017-08-09T08:56:11Z</time>
      </trkpt>
      <trkpt lat="45.93516" lon="4.72292">
        <ele>172</ele>
        <time>2017-08-09T08:56:12Z</time>
      </trkpt>
      <trkpt lat="45.93518" lon="4.72285">
        <ele>172</ele>
        <time>2017-08-09T08:56:13Z</time>
      </trkpt>
      <trkpt lat="45.93521" lon="4.72278">
        <ele>172</ele>
        <time>2017-08-09T08:56:14Z</time>
      </trkpt>
      <trkpt lat="45.93523" lon="4.72271">
        <ele>172</ele>
        <time>2017-08-09T08:56:15Z</time>
      </trkpt>
      <trkpt lat="45.93526" lon="4.72265">
        <ele>172</ele>
        <time>2017-08-09T08:56:16Z</time>
      </trkpt>
      <trkpt lat="45.93528" lon="4.72258">
        <ele>172</ele>
        <time>2017-08-09T08:56:17Z</time>
      </trkpt>
      <trkpt lat="45.93531" lon="4.72252">
        <ele>172</ele>
        <time>2017-08-09T08:56:18Z</time>
      </trkpt>
      <trkpt lat="45.93534" lon="4.72246">
        <ele>172</ele>
        <time>2017-08-09T08:56:19Z</time>
      </trkpt>
      <trkpt lat="45.93536" lon="4.72239">
        <ele>172</ele>
        <time>2017-08-09T08:56:20Z</time>
      </trkpt>
      <trkpt lat="45.93539" lon="4.72233">
        <ele>172</ele>
        <time>2017-08-09T08:56:21Z</time>
      </trkpt>
      <trkpt lat="45.93543" lon="4.72227">
        <ele>172</ele>
        <time>2017-08-09T08:56:22Z</time>
      </trkpt>
      <trkpt lat="45.93548" lon="4.72223">
        <ele>172</ele>
        <time>2017-08-09T08:56:23Z</time>
      </trkpt>
      <trkpt lat="45.93554" lon="4.72223">
        <ele>173</ele>
        <time>2017-08-09T08:56:24Z</time>
      </trkpt>
      <trkpt lat="45.93559" lon="4.72225">
        <ele>173</ele>
        <time>2017-08-09T08:56:25Z</time>
      </trkpt>
      <trkpt lat="45.93564" lon="4.72229">
        <ele>173</ele>
        <time>2017-08-09T08:56:26Z</time>
      </trkpt>
      <trkpt lat="45.93568" lon="4.72233">
        <ele>173</ele>
        <time>2017-08-09T08:56:27Z</time>
      </trkpt>
      <trkpt lat="45.93572" lon="4.72238">
        <ele>173</ele>
        <time>2017-08-09T08:56:28Z</time>
      </trkpt>
      <trkpt lat="45.93576" lon="4.72242">
        <ele>173</ele>
        <time>2017-08-09T08:56:29Z</time>
      </trkpt>
      <trkpt lat="45.93583" lon="4.7225">
        <ele>173</ele>
        <time>2017-08-09T08:56:31Z</time>
      </trkpt>
      <trkpt lat="45.93588" lon="4.72254">
        <ele>173</ele>
        <time>2017-08-09T08:56:32Z</time>
      </trkpt>
      <trkpt lat="45.93592" lon="4.72258">
        <ele>173</ele>
        <time>2017-08-09T08:56:33Z</time>
      </trkpt>
      <trkpt lat="45.93596" lon="4.72263">
        <ele>173</ele>
        <time>2017-08-09T08:56:34Z</time>
      </trkpt>
      <trkpt lat="45.93601" lon="4.72267">
        <ele>173</ele>
        <time>2017-08-09T08:56:35Z</time>
      </trkpt>
      <trkpt lat="45.93606" lon="4.72272">
        <ele>172</ele>
        <time>2017-08-09T08:56:36Z</time>
      </trkpt>
      <trkpt lat="45.93611" lon="4.72278">
        <ele>172</ele>
        <time>2017-08-09T08:56:37Z</time>
      </trkpt>
      <trkpt lat="45.93616" lon="4.72283">
        <ele>172</ele>
        <time>2017-08-09T08:56:38Z</time>
      </trkpt>
      <trkpt lat="45.9362" lon="4.72289">
        <ele>172</ele>
        <time>2017-08-09T08:56:39Z</time>
      </trkpt>
      <trkpt lat="45.93625" lon="4.72296">
        <ele>172</ele>
        <time>2017-08-09T08:56:40Z</time>
      </trkpt>
      <trkpt lat="45.9363" lon="4.723">
        <ele>172</ele>
        <time>2017-08-09T08:56:41Z</time>
      </trkpt>
      <trkpt lat="45.93635" lon="4.72305">
        <ele>172</ele>
        <time>2017-08-09T08:56:42Z</time>
      </trkpt>
      <trkpt lat="45.93641" lon="4.72309">
        <ele>172</ele>
        <time>2017-08-09T08:56:43Z</time>
      </trkpt>
      <trkpt lat="45.93646" lon="4.72314">
        <ele>172</ele>
        <time>2017-08-09T08:56:44Z</time>
      </trkpt>
      <trkpt lat="45.93651" lon="4.72318">
        <ele>172</ele>
        <time>2017-08-09T08:56:45Z</time>
      </trkpt>
      <trkpt lat="45.93656" lon="4.72322">
        <ele>172</ele>
        <time>2017-08-09T08:56:46Z</time>
      </trkpt>
      <trkpt lat="45.93661" lon="4.72327">
        <ele>171</ele>
        <time>2017-08-09T08:56:47Z</time>
      </trkpt>
      <trkpt lat="45.93665" lon="4.72331">
        <ele>171</ele>
        <time>2017-08-09T08:56:48Z</time>
      </trkpt>
      <trkpt lat="45.9367" lon="4.72336">
        <ele>171</ele>
        <time>2017-08-09T08:56:49Z</time>
      </trkpt>
      <trkpt lat="45.93675" lon="4.7234">
        <ele>171</ele>
        <time>2017-08-09T08:56:50Z</time>
      </trkpt>
      <trkpt lat="45.93679" lon="4.72343">
        <ele>171</ele>
        <time>2017-08-09T08:56:51Z</time>
      </trkpt>
      <trkpt lat="45.93684" lon="4.72346">
        <ele>171</ele>
        <time>2017-08-09T08:56:52Z</time>
      </trkpt>
      <trkpt lat="45.93688" lon="4.72349">
        <ele>171</ele>
        <time>2017-08-09T08:56:53Z</time>
      </trkpt>
      <trkpt lat="45.93694" lon="4.72356">
        <ele>171</ele>
        <time>2017-08-09T08:56:54Z</time>
      </trkpt>
      <trkpt lat="45.937" lon="4.72361">
        <ele>171</ele>
        <time>2017-08-09T08:56:55Z</time>
      </trkpt>
      <trkpt lat="45.93705" lon="4.72368">
        <ele>171</ele>
        <time>2017-08-09T08:56:56Z</time>
      </trkpt>
      <trkpt lat="45.9371" lon="4.72376">
        <ele>171</ele>
        <time>2017-08-09T08:56:57Z</time>
      </trkpt>
      <trkpt lat="45.93715" lon="4.72382">
        <ele>171</ele>
        <time>2017-08-09T08:56:58Z</time>
      </trkpt>
      <trkpt lat="45.9372" lon="4.72386">
        <ele>171</ele>
        <time>2017-08-09T08:56:59Z</time>
      </trkpt>
      <trkpt lat="45.93725" lon="4.72391">
        <ele>171</ele>
        <time>2017-08-09T08:57:00Z</time>
      </trkpt>
      <trkpt lat="45.9373" lon="4.72396">
        <ele>171</ele>
        <time>2017-08-09T08:57:01Z</time>
      </trkpt>
      <trkpt lat="45.93736" lon="4.724">
        <ele>171</ele>
        <time>2017-08-09T08:57:02Z</time>
      </trkpt>
      <trkpt lat="45.93741" lon="4.72405">
        <ele>171</ele>
        <time>2017-08-09T08:57:03Z</time>
      </trkpt>
      <trkpt lat="45.93747" lon="4.7241">
        <ele>171</ele>
        <time>2017-08-09T08:57:04Z</time>
      </trkpt>
      <trkpt lat="45.93752" lon="4.72416">
        <ele>171</ele>
        <time>2017-08-09T08:57:05Z</time>
      </trkpt>
      <trkpt lat="45.93757" lon="4.72421">
        <ele>171</ele>
        <time>2017-08-09T08:57:06Z</time>
      </trkpt>
      <trkpt lat="45.93761" lon="4.72425">
        <ele>171</ele>
        <time>2017-08-09T08:57:07Z</time>
      </trkpt>
      <trkpt lat="45.93767" lon="4.72429">
        <ele>171</ele>
        <time>2017-08-09T08:57:08Z</time>
      </trkpt>
      <trkpt lat="45.93772" lon="4.72432">
        <ele>171</ele>
        <time>2017-08-09T08:57:09Z</time>
      </trkpt>
      <trkpt lat="45.93777" lon="4.72436">
        <ele>172</ele>
        <time>2017-08-09T08:57:10Z</time>
      </trkpt>
      <trkpt lat="45.93781" lon="4.7244">
        <ele>172</ele>
        <time>2017-08-09T08:57:11Z</time>
      </trkpt>
      <trkpt lat="45.93787" lon="4.72444">
        <ele>172</ele>
        <time>2017-08-09T08:57:12Z</time>
      </trkpt>
      <trkpt lat="45.93791" lon="4.72449">
        <ele>172</ele>
        <time>2017-08-09T08:57:13Z</time>
      </trkpt>
      <trkpt lat="45.93796" lon="4.72453">
        <ele>172</ele>
        <time>2017-08-09T08:57:14Z</time>
      </trkpt>
      <trkpt lat="45.93801" lon="4.72457">
        <ele>172</ele>
        <time>2017-08-09T08:57:15Z</time>
      </trkpt>
      <trkpt lat="45.93806" lon="4.72462">
        <ele>172</ele>
        <time>2017-08-09T08:57:16Z</time>
      </trkpt>
      <trkpt lat="45.9381" lon="4.72466">
        <ele>172</ele>
        <time>2017-08-09T08:57:17Z</time>
      </trkpt>
      <trkpt lat="45.93817" lon="4.72472">
        <ele>172</ele>
        <time>2017-08-09T08:57:18Z</time>
      </trkpt>
      <trkpt lat="45.93822" lon="4.72477">
        <ele>173</ele>
        <time>2017-08-09T08:57:19Z</time>
      </trkpt>
      <trkpt lat="45.93828" lon="4.72482">
        <ele>173</ele>
        <time>2017-08-09T08:57:20Z</time>
      </trkpt>
      <trkpt lat="45.93833" lon="4.72488">
        <ele>173</ele>
        <time>2017-08-09T08:57:21Z</time>
      </trkpt>
      <trkpt lat="45.93839" lon="4.72493">
        <ele>173</ele>
        <time>2017-08-09T08:57:22Z</time>
      </trkpt>
      <trkpt lat="45.93846" lon="4.72498">
        <ele>173</ele>
        <time>2017-08-09T08:57:23Z</time>
      </trkpt>
      <trkpt lat="45.93854" lon="4.72504">
        <ele>173</ele>
        <time>2017-08-09T08:57:24Z</time>
      </trkpt>
      <trkpt lat="45.93869" lon="4.72523">
        <ele>173</ele>
        <time>2017-08-09T08:57:27Z</time>
      </trkpt>
      <trkpt lat="45.93875" lon="4.72519">
        <ele>173</ele>
        <time>2017-08-09T08:57:29Z</time>
      </trkpt>
      <trkpt lat="45.9388" lon="4.72515">
        <ele>173</ele>
        <time>2017-08-09T08:57:30Z</time>
      </trkpt>
      <trkpt lat="45.93884" lon="4.72511">
        <ele>173</ele>
        <time>2017-08-09T08:57:31Z</time>
      </trkpt>
      <trkpt lat="45.93888" lon="4.72506">
        <ele>173</ele>
        <time>2017-08-09T08:57:32Z</time>
      </trkpt>
      <trkpt lat="45.93892" lon="4.72501">
        <ele>172</ele>
        <time>2017-08-09T08:57:33Z</time>
      </trkpt>
      <trkpt lat="45.93896" lon="4.72496">
        <ele>172</ele>
        <time>2017-08-09T08:57:34Z</time>
      </trkpt>
      <trkpt lat="45.939" lon="4.72491">
        <ele>172</ele>
        <time>2017-08-09T08:57:35Z</time>
      </trkpt>
      <trkpt lat="45.93904" lon="4.72486">
        <ele>172</ele>
        <time>2017-08-09T08:57:36Z</time>
      </trkpt>
      <trkpt lat="45.93909" lon="4.7248">
        <ele>172</ele>
        <time>2017-08-09T08:57:37Z</time>
      </trkpt>
      <trkpt lat="45.93913" lon="4.72474">
        <ele>172</ele>
        <time>2017-08-09T08:57:38Z</time>
      </trkpt>
      <trkpt lat="45.93918" lon="4.72466">
        <ele>171</ele>
        <time>2017-08-09T08:57:39Z</time>
      </trkpt>
      <trkpt lat="45.93922" lon="4.7246">
        <ele>171</ele>
        <time>2017-08-09T08:57:40Z</time>
      </trkpt>
      <trkpt lat="45.93927" lon="4.72455">
        <ele>171</ele>
        <time>2017-08-09T08:57:41Z</time>
      </trkpt>
      <trkpt lat="45.93932" lon="4.7245">
        <ele>171</ele>
        <time>2017-08-09T08:57:42Z</time>
      </trkpt>
      <trkpt lat="45.93936" lon="4.72445">
        <ele>171</ele>
        <time>2017-08-09T08:57:43Z</time>
      </trkpt>
      <trkpt lat="45.9394" lon="4.72439">
        <ele>171</ele>
        <time>2017-08-09T08:57:44Z</time>
      </trkpt>
      <trkpt lat="45.93945" lon="4.72433">
        <ele>171</ele>
        <time>2017-08-09T08:57:45Z</time>
      </trkpt>
      <trkpt lat="45.93949" lon="4.72428">
        <ele>171</ele>
        <time>2017-08-09T08:57:46Z</time>
      </trkpt>
      <trkpt lat="45.93954" lon="4.72422">
        <ele>171</ele>
        <time>2017-08-09T08:57:47Z</time>
      </trkpt>
      <trkpt lat="45.93958" lon="4.72417">
        <ele>171</ele>
        <time>2017-08-09T08:57:48Z</time>
      </trkpt>
      <trkpt lat="45.93963" lon="4.72412">
        <ele>171</ele>
        <time>2017-08-09T08:57:49Z</time>
      </trkpt>
      <trkpt lat="45.93967" lon="4.72407">
        <ele>171</ele>
        <time>2017-08-09T08:57:50Z</time>
      </trkpt>
      <trkpt lat="45.93972" lon="4.72402">
        <ele>171</ele>
        <time>2017-08-09T08:57:51Z</time>
      </trkpt>
      <trkpt lat="45.93976" lon="4.72397">
        <ele>171</ele>
        <time>2017-08-09T08:57:52Z</time>
      </trkpt>
      <trkpt lat="45.9398" lon="4.72391">
        <ele>171</ele>
        <time>2017-08-09T08:57:53Z</time>
      </trkpt>
      <trkpt lat="45.93985" lon="4.72386">
        <ele>171</ele>
        <time>2017-08-09T08:57:54Z</time>
      </trkpt>
      <trkpt lat="45.9399" lon="4.7238">
        <ele>171</ele>
        <time>2017-08-09T08:57:55Z</time>
      </trkpt>
      <trkpt lat="45.93994" lon="4.72373">
        <ele>171</ele>
        <time>2017-08-09T08:57:56Z</time>
      </trkpt>
      <trkpt lat="45.93999" lon="4.72367">
        <ele>171</ele>
        <time>2017-08-09T08:57:57Z</time>
      </trkpt>
      <trkpt lat="45.94005" lon="4.72361">
        <ele>171</ele>
        <time>2017-08-09T08:57:58Z</time>
      </trkpt>
      <trkpt lat="45.94009" lon="4.72354">
        <ele>171</ele>
        <time>2017-08-09T08:57:59Z</time>
      </trkpt>
      <trkpt lat="45.94013" lon="4.72348">
        <ele>171</ele>
        <time>2017-08-09T08:58:00Z</time>
      </trkpt>
      <trkpt lat="45.94018" lon="4.72342">
        <ele>171</ele>
        <time>2017-08-09T08:58:01Z</time>
      </trkpt>
      <trkpt lat="45.94022" lon="4.72337">
        <ele>171</ele>
        <time>2017-08-09T08:58:02Z</time>
      </trkpt>
      <trkpt lat="45.94027" lon="4.72331">
        <ele>171</ele>
        <time>2017-08-09T08:58:03Z</time>
      </trkpt>
      <trkpt lat="45.94031" lon="4.72325">
        <ele>171</ele>
        <time>2017-08-09T08:58:04Z</time>
      </trkpt>
      <trkpt lat="45.94035" lon="4.7232">
        <ele>171</ele>
        <time>2017-08-09T08:58:05Z</time>
      </trkpt>
      <trkpt lat="45.9404" lon="4.72314">
        <ele>171</ele>
        <time>2017-08-09T08:58:06Z</time>
      </trkpt>
      <trkpt lat="45.94045" lon="4.72308">
        <ele>171</ele>
        <time>2017-08-09T08:58:07Z</time>
      </trkpt>
      <trkpt lat="45.94049" lon="4.72302">
        <ele>171</ele>
        <time>2017-08-09T08:58:08Z</time>
      </trkpt>
      <trkpt lat="45.94053" lon="4.72296">
        <ele>171</ele>
        <time>2017-08-09T08:58:09Z</time>
      </trkpt>
      <trkpt lat="45.94057" lon="4.7229">
        <ele>171</ele>
        <time>2017-08-09T08:58:10Z</time>
      </trkpt>
      <trkpt lat="45.9406" lon="4.72286">
        <ele>171</ele>
        <time>2017-08-09T08:58:11Z</time>
      </trkpt>
      <trkpt lat="45.94063" lon="4.72281">
        <ele>171</ele>
        <time>2017-08-09T08:58:12Z</time>
      </trkpt>
      <trkpt lat="45.94071" lon="4.72275">
        <ele>171</ele>
        <time>2017-08-09T08:58:14Z</time>
      </trkpt>
      <trkpt lat="45.94075" lon="4.72273">
        <ele>171</ele>
        <time>2017-08-09T08:58:15Z</time>
      </trkpt>
      <trkpt lat="45.94079" lon="4.7227">
        <ele>171</ele>
        <time>2017-08-09T08:58:16Z</time>
      </trkpt>
      <trkpt lat="45.94084" lon="4.72268">
        <ele>171</ele>
        <time>2017-08-09T08:58:17Z</time>
      </trkpt>
      <trkpt lat="45.9409" lon="4.72266">
        <ele>171</ele>
        <time>2017-08-09T08:58:18Z</time>
      </trkpt>
      <trkpt lat="45.94094" lon="4.72266">
        <ele>171</ele>
        <time>2017-08-09T08:58:19Z</time>
      </trkpt>
      <trkpt lat="45.941" lon="4.72267">
        <ele>171</ele>
        <time>2017-08-09T08:58:20Z</time>
      </trkpt>
      <trkpt lat="45.94105" lon="4.72268">
        <ele>171</ele>
        <time>2017-08-09T08:58:21Z</time>
      </trkpt>
      <trkpt lat="45.9411" lon="4.72269">
        <ele>171</ele>
        <time>2017-08-09T08:58:22Z</time>
      </trkpt>
      <trkpt lat="45.94116" lon="4.72271">
        <ele>171</ele>
        <time>2017-08-09T08:58:23Z</time>
      </trkpt>
      <trkpt lat="45.94121" lon="4.72274">
        <ele>171</ele>
        <time>2017-08-09T08:58:24Z</time>
      </trkpt>
      <trkpt lat="45.94127" lon="4.72276">
        <ele>171</ele>
        <time>2017-08-09T08:58:25Z</time>
      </trkpt>
      <trkpt lat="45.94132" lon="4.72278">
        <ele>171</ele>
        <time>2017-08-09T08:58:26Z</time>
      </trkpt>
      <trkpt lat="45.94137" lon="4.7228">
        <ele>171</ele>
        <time>2017-08-09T08:58:27Z</time>
      </trkpt>
      <trkpt lat="45.94142" lon="4.72282">
        <ele>171</ele>
        <time>2017-08-09T08:58:28Z</time>
      </trkpt>
      <trkpt lat="45.94147" lon="4.72284">
        <ele>171</ele>
        <time>2017-08-09T08:58:29Z</time>
      </trkpt>
      <trkpt lat="45.94152" lon="4.72285">
        <ele>171</ele>
        <time>2017-08-09T08:58:30Z</time>
      </trkpt>
      <trkpt lat="45.94157" lon="4.72287">
        <ele>171</ele>
        <time>2017-08-09T08:58:31Z</time>
      </trkpt>
      <trkpt lat="45.94162" lon="4.72287">
        <ele>171</ele>
        <time>2017-08-09T08:58:32Z</time>
      </trkpt>
      <trkpt lat="45.94168" lon="4.72288">
        <ele>171</ele>
        <time>2017-08-09T08:58:33Z</time>
      </trkpt>
      <trkpt lat="45.94173" lon="4.72288">
        <ele>171</ele>
        <time>2017-08-09T08:58:34Z</time>
      </trkpt>
      <trkpt lat="45.94178" lon="4.72288">
        <ele>171</ele>
        <time>2017-08-09T08:58:35Z</time>
      </trkpt>
      <trkpt lat="45.94184" lon="4.72288">
        <ele>171</ele>
        <time>2017-08-09T08:58:36Z</time>
      </trkpt>
      <trkpt lat="45.94189" lon="4.72288">
        <ele>171</ele>
        <time>2017-08-09T08:58:37Z</time>
      </trkpt>
      <trkpt lat="45.94195" lon="4.72289">
        <ele>171</ele>
        <time>2017-08-09T08:58:38Z</time>
      </trkpt>
      <trkpt lat="45.942" lon="4.72289">
        <ele>171</ele>
        <time>2017-08-09T08:58:39Z</time>
      </trkpt>
      <trkpt lat="45.94205" lon="4.72289">
        <ele>171</ele>
        <time>2017-08-09T08:58:40Z</time>
      </trkpt>
      <trkpt lat="45.94211" lon="4.72288">
        <ele>171</ele>
        <time>2017-08-09T08:58:41Z</time>
      </trkpt>
      <trkpt lat="45.94216" lon="4.72289">
        <ele>171</ele>
        <time>2017-08-09T08:58:42Z</time>
      </trkpt>
      <trkpt lat="45.9422" lon="4.72289">
        <ele>171</ele>
        <time>2017-08-09T08:58:43Z</time>
      </trkpt>
      <trkpt lat="45.94225" lon="4.72289">
        <ele>171</ele>
        <time>2017-08-09T08:58:44Z</time>
      </trkpt>
      <trkpt lat="45.9423" lon="4.72288">
        <ele>171</ele>
        <time>2017-08-09T08:58:45Z</time>
      </trkpt>
      <trkpt lat="45.94235" lon="4.72286">
        <ele>171</ele>
        <time>2017-08-09T08:58:46Z</time>
      </trkpt>
      <trkpt lat="45.9424" lon="4.72284">
        <ele>171</ele>
        <time>2017-08-09T08:58:47Z</time>
      </trkpt>
      <trkpt lat="45.94244" lon="4.72282">
        <ele>171</ele>
        <time>2017-08-09T08:58:48Z</time>
      </trkpt>
      <trkpt lat="45.94249" lon="4.7228">
        <ele>171</ele>
        <time>2017-08-09T08:58:49Z</time>
      </trkpt>
      <trkpt lat="45.94257" lon="4.72275">
        <ele>171</ele>
        <time>2017-08-09T08:58:51Z</time>
      </trkpt>
      <trkpt lat="45.94261" lon="4.72273">
        <ele>171</ele>
        <time>2017-08-09T08:58:52Z</time>
      </trkpt>
      <trkpt lat="45.94269" lon="4.72272">
        <ele>171</ele>
        <time>2017-08-09T08:58:54Z</time>
      </trkpt>
      <trkpt lat="45.94272" lon="4.72274">
        <ele>171</ele>
        <time>2017-08-09T08:58:55Z</time>
      </trkpt>
      <trkpt lat="45.94278" lon="4.72284">
        <ele>171</ele>
        <time>2017-08-09T08:58:57Z</time>
      </trkpt>
      <trkpt lat="45.9428" lon="4.7229">
        <ele>171</ele>
        <time>2017-08-09T08:58:58Z</time>
      </trkpt>
      <trkpt lat="45.94283" lon="4.72296">
        <ele>171</ele>
        <time>2017-08-09T08:58:59Z</time>
      </trkpt>
      <trkpt lat="45.94286" lon="4.72303">
        <ele>171</ele>
        <time>2017-08-09T08:59:00Z</time>
      </trkpt>
      <trkpt lat="45.94289" lon="4.7231">
        <ele>171</ele>
        <time>2017-08-09T08:59:01Z</time>
      </trkpt>
      <trkpt lat="45.94292" lon="4.72317">
        <ele>171</ele>
        <time>2017-08-09T08:59:02Z</time>
      </trkpt>
      <trkpt lat="45.94295" lon="4.72323">
        <ele>171</ele>
        <time>2017-08-09T08:59:03Z</time>
      </trkpt>
      <trkpt lat="45.94298" lon="4.72329">
        <ele>171</ele>
        <time>2017-08-09T08:59:04Z</time>
      </trkpt>
      <trkpt lat="45.94301" lon="4.72335">
        <ele>172</ele>
        <time>2017-08-09T08:59:05Z</time>
      </trkpt>
      <trkpt lat="45.94304" lon="4.72342">
        <ele>172</ele>
        <time>2017-08-09T08:59:06Z</time>
      </trkpt>
      <trkpt lat="45.94307" lon="4.72349">
        <ele>172</ele>
        <time>2017-08-09T08:59:07Z</time>
      </trkpt>
      <trkpt lat="45.94309" lon="4.72356">
        <ele>172</ele>
        <time>2017-08-09T08:59:08Z</time>
      </trkpt>
      <trkpt lat="45.94312" lon="4.72362">
        <ele>172</ele>
        <time>2017-08-09T08:59:09Z</time>
      </trkpt>
      <trkpt lat="45.94315" lon="4.72369">
        <ele>172</ele>
        <time>2017-08-09T08:59:10Z</time>
      </trkpt>
      <trkpt lat="45.94317" lon="4.72374">
        <ele>172</ele>
        <time>2017-08-09T08:59:11Z</time>
      </trkpt>
      <trkpt lat="45.9432" lon="4.7238">
        <ele>172</ele>
        <time>2017-08-09T08:59:12Z</time>
      </trkpt>
      <trkpt lat="45.94322" lon="4.72386">
        <ele>172</ele>
        <time>2017-08-09T08:59:13Z</time>
      </trkpt>
      <trkpt lat="45.94326" lon="4.72392">
        <ele>172</ele>
        <time>2017-08-09T08:59:14Z</time>
      </trkpt>
      <trkpt lat="45.94328" lon="4.72398">
        <ele>172</ele>
        <time>2017-08-09T08:59:15Z</time>
      </trkpt>
      <trkpt lat="45.94331" lon="4.72405">
        <ele>173</ele>
        <time>2017-08-09T08:59:16Z</time>
      </trkpt>
      <trkpt lat="45.94334" lon="4.72412">
        <ele>173</ele>
        <time>2017-08-09T08:59:17Z</time>
      </trkpt>
      <trkpt lat="45.94337" lon="4.72419">
        <ele>173</ele>
        <time>2017-08-09T08:59:18Z</time>
      </trkpt>
      <trkpt lat="45.9434" lon="4.72427">
        <ele>173</ele>
        <time>2017-08-09T08:59:19Z</time>
      </trkpt>
      <trkpt lat="45.94344" lon="4.72434">
        <ele>173</ele>
        <time>2017-08-09T08:59:20Z</time>
      </trkpt>
      <trkpt lat="45.94347" lon="4.72442">
        <ele>173</ele>
        <time>2017-08-09T08:59:21Z</time>
      </trkpt>
      <trkpt lat="45.9435" lon="4.72449">
        <ele>173</ele>
        <time>2017-08-09T08:59:22Z</time>
      </trkpt>
      <trkpt lat="45.94353" lon="4.72456">
        <ele>173</ele>
        <time>2017-08-09T08:59:23Z</time>
      </trkpt>
      <trkpt lat="45.94357" lon="4.72463">
        <ele>173</ele>
        <time>2017-08-09T08:59:24Z</time>
      </trkpt>
      <trkpt lat="45.9436" lon="4.72471">
        <ele>173</ele>
        <time>2017-08-09T08:59:25Z</time>
      </trkpt>
      <trkpt lat="45.94363" lon="4.72477">
        <ele>173</ele>
        <time>2017-08-09T08:59:26Z</time>
      </trkpt>
      <trkpt lat="45.94365" lon="4.72484">
        <ele>173</ele>
        <time>2017-08-09T08:59:27Z</time>
      </trkpt>
      <trkpt lat="45.94368" lon="4.7249">
        <ele>173</ele>
        <time>2017-08-09T08:59:28Z</time>
      </trkpt>
      <trkpt lat="45.9437" lon="4.72497">
        <ele>173</ele>
        <time>2017-08-09T08:59:29Z</time>
      </trkpt>
      <trkpt lat="45.94372" lon="4.72503">
        <ele>173</ele>
        <time>2017-08-09T08:59:30Z</time>
      </trkpt>
      <trkpt lat="45.94374" lon="4.72509">
        <ele>173</ele>
        <time>2017-08-09T08:59:31Z</time>
      </trkpt>
      <trkpt lat="45.94376" lon="4.72515">
        <ele>174</ele>
        <time>2017-08-09T08:59:32Z</time>
      </trkpt>
      <trkpt lat="45.94377" lon="4.72522">
        <ele>174</ele>
        <time>2017-08-09T08:59:33Z</time>
      </trkpt>
      <trkpt lat="45.94379" lon="4.72529">
        <ele>174</ele>
        <time>2017-08-09T08:59:34Z</time>
      </trkpt>
      <trkpt lat="45.9438" lon="4.72536">
        <ele>174</ele>
        <time>2017-08-09T08:59:35Z</time>
      </trkpt>
      <trkpt lat="45.94382" lon="4.72543">
        <ele>173</ele>
        <time>2017-08-09T08:59:36Z</time>
      </trkpt>
      <trkpt lat="45.94384" lon="4.7255">
        <ele>173</ele>
        <time>2017-08-09T08:59:37Z</time>
      </trkpt>
      <trkpt lat="45.94385" lon="4.72558">
        <ele>173</ele>
        <time>2017-08-09T08:59:38Z</time>
      </trkpt>
      <trkpt lat="45.94387" lon="4.72565">
        <ele>173</ele>
        <time>2017-08-09T08:59:39Z</time>
      </trkpt>
      <trkpt lat="45.94388" lon="4.72573">
        <ele>173</ele>
        <time>2017-08-09T08:59:40Z</time>
      </trkpt>
      <trkpt lat="45.94389" lon="4.72581">
        <ele>173</ele>
        <time>2017-08-09T08:59:41Z</time>
      </trkpt>
      <trkpt lat="45.9439" lon="4.7259">
        <ele>173</ele>
        <time>2017-08-09T08:59:42Z</time>
      </trkpt>
      <trkpt lat="45.94391" lon="4.72598">
        <ele>173</ele>
        <time>2017-08-09T08:59:43Z</time>
      </trkpt>
      <trkpt lat="45.94392" lon="4.72608">
        <ele>173</ele>
        <time>2017-08-09T08:59:44Z</time>
      </trkpt>
      <trkpt lat="45.94393" lon="4.72616">
        <ele>173</ele>
        <time>2017-08-09T08:59:45Z</time>
      </trkpt>
      <trkpt lat="45.94394" lon="4.72624">
        <ele>173</ele>
        <time>2017-08-09T08:59:46Z</time>
      </trkpt>
      <trkpt lat="45.94395" lon="4.72631">
        <ele>174</ele>
        <time>2017-08-09T08:59:47Z</time>
      </trkpt>
      <trkpt lat="45.94396" lon="4.72639">
        <ele>174</ele>
        <time>2017-08-09T08:59:48Z</time>
      </trkpt>
      <trkpt lat="45.94396" lon="4.72646">
        <ele>174</ele>
        <time>2017-08-09T08:59:49Z</time>
      </trkpt>
      <trkpt lat="45.94397" lon="4.72653">
        <ele>174</ele>
        <time>2017-08-09T08:59:50Z</time>
      </trkpt>
      <trkpt lat="45.94398" lon="4.72661">
        <ele>174</ele>
        <time>2017-08-09T08:59:51Z</time>
      </trkpt>
      <trkpt lat="45.94399" lon="4.72669">
        <ele>173</ele>
        <time>2017-08-09T08:59:52Z</time>
      </trkpt>
      <trkpt lat="45.944" lon="4.72677">
        <ele>173</ele>
        <time>2017-08-09T08:59:53Z</time>
      </trkpt>
      <trkpt lat="45.94402" lon="4.72685">
        <ele>173</ele>
        <time>2017-08-09T08:59:54Z</time>
      </trkpt>
      <trkpt lat="45.94402" lon="4.72693">
        <ele>173</ele>
        <time>2017-08-09T08:59:55Z</time>
      </trkpt>
      <trkpt lat="45.94403" lon="4.72701">
        <ele>172</ele>
        <time>2017-08-09T08:59:56Z</time>
      </trkpt>
      <trkpt lat="45.94404" lon="4.72709">
        <ele>172</ele>
        <time>2017-08-09T08:59:57Z</time>
      </trkpt>
      <trkpt lat="45.94405" lon="4.72717">
        <ele>172</ele>
        <time>2017-08-09T08:59:58Z</time>
      </trkpt>
      <trkpt lat="45.94406" lon="4.72725">
        <ele>172</ele>
        <time>2017-08-09T08:59:59Z</time>
      </trkpt>
      <trkpt lat="45.94407" lon="4.72733">
        <ele>172</ele>
        <time>2017-08-09T09:00:00Z</time>
      </trkpt>
      <trkpt lat="45.94408" lon="4.72741">
        <ele>171</ele>
        <time>2017-08-09T09:00:01Z</time>
      </trkpt>
      <trkpt lat="45.9441" lon="4.72749">
        <ele>171</ele>
        <time>2017-08-09T09:00:02Z</time>
      </trkpt>
      <trkpt lat="45.94411" lon="4.72757">
        <ele>170</ele>
        <time>2017-08-09T09:00:03Z</time>
      </trkpt>
      <trkpt lat="45.94413" lon="4.72765">
        <ele>170</ele>
        <time>2017-08-09T09:00:04Z</time>
      </trkpt>
      <trkpt lat="45.94414" lon="4.72773">
        <ele>169</ele>
        <time>2017-08-09T09:00:05Z</time>
      </trkpt>
      <trkpt lat="45.94415" lon="4.72781">
        <ele>169</ele>
        <time>2017-08-09T09:00:06Z</time>
      </trkpt>
      <trkpt lat="45.94416" lon="4.72788">
        <ele>169</ele>
        <time>2017-08-09T09:00:07Z</time>
      </trkpt>
      <trkpt lat="45.94417" lon="4.72796">
        <ele>168</ele>
        <time>2017-08-09T09:00:08Z</time>
      </trkpt>
      <trkpt lat="45.94418" lon="4.72803">
        <ele>167</ele>
        <time>2017-08-09T09:00:09Z</time>
      </trkpt>
      <trkpt lat="45.9442" lon="4.72811">
        <ele>167</ele>
        <time>2017-08-09T09:00:10Z</time>
      </trkpt>
      <trkpt lat="45.94421" lon="4.72819">
        <ele>167</ele>
        <time>2017-08-09T09:00:11Z</time>
      </trkpt>
      <trkpt lat="45.94422" lon="4.72826">
        <ele>166</ele>
        <time>2017-08-09T09:00:12Z</time>
      </trkpt>
      <trkpt lat="45.94423" lon="4.72833">
        <ele>166</ele>
        <time>2017-08-09T09:00:13Z</time>
      </trkpt>
      <trkpt lat="45.94423" lon="4.72841">
        <ele>166</ele>
        <time>2017-08-09T09:00:14Z</time>
      </trkpt>
      <trkpt lat="45.94423" lon="4.72848">
        <ele>166</ele>
        <time>2017-08-09T09:00:15Z</time>
      </trkpt>
      <trkpt lat="45.94424" lon="4.72855">
        <ele>166</ele>
        <time>2017-08-09T09:00:16Z</time>
      </trkpt>
      <trkpt lat="45.94425" lon="4.72862">
        <ele>166</ele>
        <time>2017-08-09T09:00:17Z</time>
      </trkpt>
      <trkpt lat="45.94426" lon="4.72869">
        <ele>166</ele>
        <time>2017-08-09T09:00:18Z</time>
      </trkpt>
      <trkpt lat="45.94428" lon="4.72881">
        <ele>166</ele>
        <time>2017-08-09T09:00:20Z</time>
      </trkpt>
      <trkpt lat="45.94429" lon="4.72887">
        <ele>166</ele>
        <time>2017-08-09T09:00:21Z</time>
      </trkpt>
      <trkpt lat="45.9443" lon="4.72893">
        <ele>166</ele>
        <time>2017-08-09T09:00:22Z</time>
      </trkpt>
      <trkpt lat="45.9443" lon="4.72899">
        <ele>166</ele>
        <time>2017-08-09T09:00:23Z</time>
      </trkpt>
      <trkpt lat="45.94431" lon="4.72906">
        <ele>166</ele>
        <time>2017-08-09T09:00:24Z</time>
      </trkpt>
      <trkpt lat="45.94432" lon="4.72912">
        <ele>166</ele>
        <time>2017-08-09T09:00:25Z</time>
      </trkpt>
      <trkpt lat="45.94433" lon="4.72919">
        <ele>166</ele>
        <time>2017-08-09T09:00:26Z</time>
      </trkpt>
      <trkpt lat="45.94434" lon="4.72926">
        <ele>167</ele>
        <time>2017-08-09T09:00:27Z</time>
      </trkpt>
      <trkpt lat="45.94435" lon="4.72934">
        <ele>167</ele>
        <time>2017-08-09T09:00:28Z</time>
      </trkpt>
      <trkpt lat="45.94436" lon="4.72941">
        <ele>167</ele>
        <time>2017-08-09T09:00:29Z</time>
      </trkpt>
      <trkpt lat="45.94437" lon="4.72949">
        <ele>167</ele>
        <time>2017-08-09T09:00:30Z</time>
      </trkpt>
      <trkpt lat="45.94438" lon="4.72957">
        <ele>167</ele>
        <time>2017-08-09T09:00:31Z</time>
      </trkpt>
      <trkpt lat="45.94439" lon="4.72965">
        <ele>167</ele>
        <time>2017-08-09T09:00:32Z</time>
      </trkpt>
      <trkpt lat="45.9444" lon="4.72974">
        <ele>167</ele>
        <time>2017-08-09T09:00:33Z</time>
      </trkpt>
      <trkpt lat="45.94441" lon="4.72982">
        <ele>167</ele>
        <time>2017-08-09T09:00:34Z</time>
      </trkpt>
      <trkpt lat="45.94442" lon="4.72991">
        <ele>167</ele>
        <time>2017-08-09T09:00:35Z</time>
      </trkpt>
      <trkpt lat="45.94443" lon="4.73">
        <ele>168</ele>
        <time>2017-08-09T09:00:36Z</time>
      </trkpt>
      <trkpt lat="45.94444" lon="4.7301">
        <ele>169</ele>
        <time>2017-08-09T09:00:37Z</time>
      </trkpt>
      <trkpt lat="45.94445" lon="4.73019">
        <ele>169</ele>
        <time>2017-08-09T09:00:38Z</time>
      </trkpt>
      <trkpt lat="45.94447" lon="4.73028">
        <ele>169</ele>
        <time>2017-08-09T09:00:39Z</time>
      </trkpt>
      <trkpt lat="45.94448" lon="4.73038">
        <ele>169</ele>
        <time>2017-08-09T09:00:40Z</time>
      </trkpt>
      <trkpt lat="45.94449" lon="4.73047">
        <ele>169</ele>
        <time>2017-08-09T09:00:41Z</time>
      </trkpt>
      <trkpt lat="45.9445" lon="4.73058">
        <ele>169</ele>
        <time>2017-08-09T09:00:42Z</time>
      </trkpt>
      <trkpt lat="45.94452" lon="4.73069">
        <ele>170</ele>
        <time>2017-08-09T09:00:43Z</time>
      </trkpt>
      <trkpt lat="45.94453" lon="4.73079">
        <ele>170</ele>
        <time>2017-08-09T09:00:44Z</time>
      </trkpt>
      <trkpt lat="45.94454" lon="4.73089">
        <ele>171</ele>
        <time>2017-08-09T09:00:45Z</time>
      </trkpt>
      <trkpt lat="45.94454" lon="4.73098">
        <ele>171</ele>
        <time>2017-08-09T09:00:46Z</time>
      </trkpt>
      <trkpt lat="45.94455" lon="4.73108">
        <ele>171</ele>
        <time>2017-08-09T09:00:47Z</time>
      </trkpt>
      <trkpt lat="45.94456" lon="4.73117">
        <ele>172</ele>
        <time>2017-08-09T09:00:48Z</time>
      </trkpt>
      <trkpt lat="45.94457" lon="4.73125">
        <ele>172</ele>
        <time>2017-08-09T09:00:49Z</time>
      </trkpt>
      <trkpt lat="45.94459" lon="4.73133">
        <ele>172</ele>
        <time>2017-08-09T09:00:50Z</time>
      </trkpt>
      <trkpt lat="45.94461" lon="4.73142">
        <ele>172</ele>
        <time>2017-08-09T09:00:51Z</time>
      </trkpt>
      <trkpt lat="45.94462" lon="4.7315">
        <ele>172</ele>
        <time>2017-08-09T09:00:52Z</time>
      </trkpt>
      <trkpt lat="45.94464" lon="4.7316">
        <ele>172</ele>
        <time>2017-08-09T09:00:53Z</time>
      </trkpt>
      <trkpt lat="45.94465" lon="4.73168">
        <ele>174</ele>
        <time>2017-08-09T09:00:54Z</time>
      </trkpt>
      <trkpt lat="45.94466" lon="4.73177">
        <ele>174</ele>
        <time>2017-08-09T09:00:55Z</time>
      </trkpt>
      <trkpt lat="45.94467" lon="4.73186">
        <ele>174</ele>
        <time>2017-08-09T09:00:56Z</time>
      </trkpt>
      <trkpt lat="45.94468" lon="4.73195">
        <ele>174</ele>
        <time>2017-08-09T09:00:57Z</time>
      </trkpt>
      <trkpt lat="45.9447" lon="4.73203">
        <ele>174</ele>
        <time>2017-08-09T09:00:58Z</time>
      </trkpt>
      <trkpt lat="45.94471" lon="4.73211">
        <ele>175</ele>
        <time>2017-08-09T09:00:59Z</time>
      </trkpt>
      <trkpt lat="45.94472" lon="4.73219">
        <ele>175</ele>
        <time>2017-08-09T09:01:00Z</time>
      </trkpt>
      <trkpt lat="45.94473" lon="4.73227">
        <ele>175</ele>
        <time>2017-08-09T09:01:01Z</time>
      </trkpt>
      <trkpt lat="45.94474" lon="4.73234">
        <ele>175</ele>
        <time>2017-08-09T09:01:02Z</time>
      </trkpt>
      <trkpt lat="45.94475" lon="4.73241">
        <ele>175</ele>
        <time>2017-08-09T09:01:03Z</time>
      </trkpt>
      <trkpt lat="45.94476" lon="4.73248">
        <ele>175</ele>
        <time>2017-08-09T09:01:04Z</time>
      </trkpt>
      <trkpt lat="45.94478" lon="4.73256">
        <ele>177</ele>
        <time>2017-08-09T09:01:05Z</time>
      </trkpt>
      <trkpt lat="45.94479" lon="4.73263">
        <ele>177</ele>
        <time>2017-08-09T09:01:06Z</time>
      </trkpt>
      <trkpt lat="45.9448" lon="4.7327">
        <ele>177</ele>
        <time>2017-08-09T09:01:07Z</time>
      </trkpt>
      <trkpt lat="45.94482" lon="4.73277">
        <ele>177</ele>
        <time>2017-08-09T09:01:08Z</time>
      </trkpt>
      <trkpt lat="45.94482" lon="4.73284">
        <ele>177</ele>
        <time>2017-08-09T09:01:09Z</time>
      </trkpt>
      <trkpt lat="45.94483" lon="4.73296">
        <ele>177</ele>
        <time>2017-08-09T09:01:11Z</time>
      </trkpt>
      <trkpt lat="45.94484" lon="4.73303">
        <ele>177</ele>
        <time>2017-08-09T09:01:12Z</time>
      </trkpt>
      <trkpt lat="45.94485" lon="4.73316">
        <ele>177</ele>
        <time>2017-08-09T09:01:14Z</time>
      </trkpt>
      <trkpt lat="45.94486" lon="4.73322">
        <ele>177</ele>
        <time>2017-08-09T09:01:15Z</time>
      </trkpt>
      <trkpt lat="45.94486" lon="4.73329">
        <ele>177</ele>
        <time>2017-08-09T09:01:16Z</time>
      </trkpt>
      <trkpt lat="45.94487" lon="4.73335">
        <ele>178</ele>
        <time>2017-08-09T09:01:17Z</time>
      </trkpt>
      <trkpt lat="45.94488" lon="4.73342">
        <ele>178</ele>
        <time>2017-08-09T09:01:18Z</time>
      </trkpt>
      <trkpt lat="45.94489" lon="4.73349">
        <ele>178</ele>
        <time>2017-08-09T09:01:19Z</time>
      </trkpt>
      <trkpt lat="45.94489" lon="4.73356">
        <ele>178</ele>
        <time>2017-08-09T09:01:20Z</time>
      </trkpt>
      <trkpt lat="45.9449" lon="4.73362">
        <ele>179</ele>
        <time>2017-08-09T09:01:21Z</time>
      </trkpt>
      <trkpt lat="45.94491" lon="4.73369">
        <ele>179</ele>
        <time>2017-08-09T09:01:22Z</time>
      </trkpt>
      <trkpt lat="45.94492" lon="4.73375">
        <ele>179</ele>
        <time>2017-08-09T09:01:23Z</time>
      </trkpt>
      <trkpt lat="45.94492" lon="4.73382">
        <ele>179</ele>
        <time>2017-08-09T09:01:24Z</time>
      </trkpt>
      <trkpt lat="45.94492" lon="4.73388">
        <ele>179</ele>
        <time>2017-08-09T09:01:25Z</time>
      </trkpt>
      <trkpt lat="45.94493" lon="4.73394">
        <ele>179</ele>
        <time>2017-08-09T09:01:26Z</time>
      </trkpt>
      <trkpt lat="45.94493" lon="4.73401">
        <ele>180</ele>
        <time>2017-08-09T09:01:27Z</time>
      </trkpt>
      <trkpt lat="45.94494" lon="4.73414">
        <ele>180</ele>
        <time>2017-08-09T09:01:29Z</time>
      </trkpt>
      <trkpt lat="45.94494" lon="4.7342">
        <ele>180</ele>
        <time>2017-08-09T09:01:30Z</time>
      </trkpt>
      <trkpt lat="45.94494" lon="4.73432">
        <ele>181</ele>
        <time>2017-08-09T09:01:32Z</time>
      </trkpt>
      <trkpt lat="45.94494" lon="4.73439">
        <ele>181</ele>
        <time>2017-08-09T09:01:33Z</time>
      </trkpt>
      <trkpt lat="45.94495" lon="4.73451">
        <ele>182</ele>
        <time>2017-08-09T09:01:35Z</time>
      </trkpt>
      <trkpt lat="45.94495" lon="4.73458">
        <ele>182</ele>
        <time>2017-08-09T09:01:36Z</time>
      </trkpt>
      <trkpt lat="45.94496" lon="4.73465">
        <ele>182</ele>
        <time>2017-08-09T09:01:37Z</time>
      </trkpt>
      <trkpt lat="45.94497" lon="4.73471">
        <ele>182</ele>
        <time>2017-08-09T09:01:38Z</time>
      </trkpt>
      <trkpt lat="45.94498" lon="4.73484">
        <ele>182</ele>
        <time>2017-08-09T09:01:40Z</time>
      </trkpt>
      <trkpt lat="45.94498" lon="4.7349">
        <ele>183</ele>
        <time>2017-08-09T09:01:41Z</time>
      </trkpt>
      <trkpt lat="45.94498" lon="4.73497">
        <ele>183</ele>
        <time>2017-08-09T09:01:42Z</time>
      </trkpt>
      <trkpt lat="45.94498" lon="4.73503">
        <ele>183</ele>
        <time>2017-08-09T09:01:43Z</time>
      </trkpt>
      <trkpt lat="45.94497" lon="4.73516">
        <ele>184</ele>
        <time>2017-08-09T09:01:45Z</time>
      </trkpt>
      <trkpt lat="45.94497" lon="4.73522">
        <ele>184</ele>
        <time>2017-08-09T09:01:46Z</time>
      </trkpt>
      <trkpt lat="45.94496" lon="4.73534">
        <ele>184</ele>
        <time>2017-08-09T09:01:48Z</time>
      </trkpt>
      <trkpt lat="45.94496" lon="4.7354">
        <ele>184</ele>
        <time>2017-08-09T09:01:49Z</time>
      </trkpt>
      <trkpt lat="45.94495" lon="4.73552">
        <ele>185</ele>
        <time>2017-08-09T09:01:51Z</time>
      </trkpt>
      <trkpt lat="45.94495" lon="4.73559">
        <ele>185</ele>
        <time>2017-08-09T09:01:52Z</time>
      </trkpt>
      <trkpt lat="45.94494" lon="4.73566">
        <ele>185</ele>
        <time>2017-08-09T09:01:53Z</time>
      </trkpt>
      <trkpt lat="45.94494" lon="4.73572">
        <ele>185</ele>
        <time>2017-08-09T09:01:54Z</time>
      </trkpt>
      <trkpt lat="45.94494" lon="4.73579">
        <ele>185</ele>
        <time>2017-08-09T09:01:55Z</time>
      </trkpt>
      <trkpt lat="45.94493" lon="4.73585">
        <ele>185</ele>
        <time>2017-08-09T09:01:56Z</time>
      </trkpt>
      <trkpt lat="45.94492" lon="4.73593">
        <ele>185</ele>
        <time>2017-08-09T09:01:57Z</time>
      </trkpt>
      <trkpt lat="45.94492" lon="4.73599">
        <ele>185</ele>
        <time>2017-08-09T09:01:58Z</time>
      </trkpt>
      <trkpt lat="45.94492" lon="4.73606">
        <ele>186</ele>
        <time>2017-08-09T09:01:59Z</time>
      </trkpt>
      <trkpt lat="45.94491" lon="4.73613">
        <ele>186</ele>
        <time>2017-08-09T09:02:00Z</time>
      </trkpt>
      <trkpt lat="45.94491" lon="4.7362">
        <ele>186</ele>
        <time>2017-08-09T09:02:01Z</time>
      </trkpt>
      <trkpt lat="45.9449" lon="4.73627">
        <ele>186</ele>
        <time>2017-08-09T09:02:02Z</time>
      </trkpt>
      <trkpt lat="45.94488" lon="4.73634">
        <ele>186</ele>
        <time>2017-08-09T09:02:03Z</time>
      </trkpt>
      <trkpt lat="45.94487" lon="4.73641">
        <ele>186</ele>
        <time>2017-08-09T09:02:04Z</time>
      </trkpt>
      <trkpt lat="45.94486" lon="4.73648">
        <ele>186</ele>
        <time>2017-08-09T09:02:05Z</time>
      </trkpt>
      <trkpt lat="45.94485" lon="4.73656">
        <ele>186</ele>
        <time>2017-08-09T09:02:06Z</time>
      </trkpt>
      <trkpt lat="45.94485" lon="4.73664">
        <ele>185</ele>
        <time>2017-08-09T09:02:07Z</time>
      </trkpt>
      <trkpt lat="45.94484" lon="4.73672">
        <ele>186</ele>
        <time>2017-08-09T09:02:08Z</time>
      </trkpt>
      <trkpt lat="45.94483" lon="4.7368">
        <ele>186</ele>
        <time>2017-08-09T09:02:09Z</time>
      </trkpt>
      <trkpt lat="45.94482" lon="4.73687">
        <ele>186</ele>
        <time>2017-08-09T09:02:10Z</time>
      </trkpt>
      <trkpt lat="45.94481" lon="4.73694">
        <ele>186</ele>
        <time>2017-08-09T09:02:11Z</time>
      </trkpt>
      <trkpt lat="45.9448" lon="4.73701">
        <ele>186</ele>
        <time>2017-08-09T09:02:12Z</time>
      </trkpt>
      <trkpt lat="45.94479" lon="4.73708">
        <ele>186</ele>
        <time>2017-08-09T09:02:13Z</time>
      </trkpt>
      <trkpt lat="45.94478" lon="4.73715">
        <ele>186</ele>
        <time>2017-08-09T09:02:14Z</time>
      </trkpt>
      <trkpt lat="45.94477" lon="4.73722">
        <ele>186</ele>
        <time>2017-08-09T09:02:15Z</time>
      </trkpt>
      <trkpt lat="45.94476" lon="4.73729">
        <ele>186</ele>
        <time>2017-08-09T09:02:16Z</time>
      </trkpt>
      <trkpt lat="45.94476" lon="4.73736">
        <ele>186</ele>
        <time>2017-08-09T09:02:17Z</time>
      </trkpt>
      <trkpt lat="45.94474" lon="4.73742">
        <ele>186</ele>
        <time>2017-08-09T09:02:18Z</time>
      </trkpt>
      <trkpt lat="45.94473" lon="4.73749">
        <ele>186</ele>
        <time>2017-08-09T09:02:19Z</time>
      </trkpt>
      <trkpt lat="45.94472" lon="4.73755">
        <ele>186</ele>
        <time>2017-08-09T09:02:20Z</time>
      </trkpt>
      <trkpt lat="45.94472" lon="4.73761">
        <ele>186</ele>
        <time>2017-08-09T09:02:21Z</time>
      </trkpt>
      <trkpt lat="45.94473" lon="4.73768">
        <ele>186</ele>
        <time>2017-08-09T09:02:22Z</time>
      </trkpt>
      <trkpt lat="45.94479" lon="4.73776">
        <ele>186</ele>
        <time>2017-08-09T09:02:24Z</time>
      </trkpt>
      <trkpt lat="45.94483" lon="4.73779">
        <ele>186</ele>
        <time>2017-08-09T09:02:25Z</time>
      </trkpt>
      <trkpt lat="45.94487" lon="4.73782">
        <ele>186</ele>
        <time>2017-08-09T09:02:26Z</time>
      </trkpt>
      <trkpt lat="45.94491" lon="4.73786">
        <ele>186</ele>
        <time>2017-08-09T09:02:27Z</time>
      </trkpt>
      <trkpt lat="45.94495" lon="4.7379">
        <ele>186</ele>
        <time>2017-08-09T09:02:28Z</time>
      </trkpt>
      <trkpt lat="45.94499" lon="4.73793">
        <ele>185</ele>
        <time>2017-08-09T09:02:29Z</time>
      </trkpt>
      <trkpt lat="45.94503" lon="4.73797">
        <ele>186</ele>
        <time>2017-08-09T09:02:30Z</time>
      </trkpt>
      <trkpt lat="45.94507" lon="4.738">
        <ele>186</ele>
        <time>2017-08-09T09:02:31Z</time>
      </trkpt>
      <trkpt lat="45.94511" lon="4.73804">
        <ele>186</ele>
        <time>2017-08-09T09:02:32Z</time>
      </trkpt>
      <trkpt lat="45.94515" lon="4.73808">
        <ele>186</ele>
        <time>2017-08-09T09:02:33Z</time>
      </trkpt>
      <trkpt lat="45.94523" lon="4.73814">
        <ele>186</ele>
        <time>2017-08-09T09:02:35Z</time>
      </trkpt>
      <trkpt lat="45.94526" lon="4.73817">
        <ele>186</ele>
        <time>2017-08-09T09:02:36Z</time>
      </trkpt>
      <trkpt lat="45.94534" lon="4.73824">
        <ele>186</ele>
        <time>2017-08-09T09:02:38Z</time>
      </trkpt>
      <trkpt lat="45.94537" lon="4.73827">
        <ele>186</ele>
        <time>2017-08-09T09:02:39Z</time>
      </trkpt>
      <trkpt lat="45.94544" lon="4.73834">
        <ele>186</ele>
        <time>2017-08-09T09:02:41Z</time>
      </trkpt>
      <trkpt lat="45.94548" lon="4.73838">
        <ele>186</ele>
        <time>2017-08-09T09:02:42Z</time>
      </trkpt>
      <trkpt lat="45.94552" lon="4.73842">
        <ele>186</ele>
        <time>2017-08-09T09:02:43Z</time>
      </trkpt>
      <trkpt lat="45.94555" lon="4.73847">
        <ele>186</ele>
        <time>2017-08-09T09:02:44Z</time>
      </trkpt>
      <trkpt lat="45.94559" lon="4.73851">
        <ele>186</ele>
        <time>2017-08-09T09:02:45Z</time>
      </trkpt>
      <trkpt lat="45.94563" lon="4.73855">
        <ele>186</ele>
        <time>2017-08-09T09:02:46Z</time>
      </trkpt>
      <trkpt lat="45.9457" lon="4.73862">
        <ele>186</ele>
        <time>2017-08-09T09:02:48Z</time>
      </trkpt>
      <trkpt lat="45.94573" lon="4.73866">
        <ele>186</ele>
        <time>2017-08-09T09:02:49Z</time>
      </trkpt>
      <trkpt lat="45.9458" lon="4.73872">
        <ele>186</ele>
        <time>2017-08-09T09:02:51Z</time>
      </trkpt>
      <trkpt lat="45.94583" lon="4.73876">
        <ele>186</ele>
        <time>2017-08-09T09:02:52Z</time>
      </trkpt>
      <trkpt lat="45.94587" lon="4.7388">
        <ele>187</ele>
        <time>2017-08-09T09:02:53Z</time>
      </trkpt>
      <trkpt lat="45.9459" lon="4.73884">
        <ele>187</ele>
        <time>2017-08-09T09:02:54Z</time>
      </trkpt>
      <trkpt lat="45.94594" lon="4.73888">
        <ele>187</ele>
        <time>2017-08-09T09:02:55Z</time>
      </trkpt>
      <trkpt lat="45.94597" lon="4.73892">
        <ele>187</ele>
        <time>2017-08-09T09:02:56Z</time>
      </trkpt>
      <trkpt lat="45.94604" lon="4.73901">
        <ele>187</ele>
        <time>2017-08-09T09:02:58Z</time>
      </trkpt>
      <trkpt lat="45.94607" lon="4.73905">
        <ele>187</ele>
        <time>2017-08-09T09:02:59Z</time>
      </trkpt>
      <trkpt lat="45.94612" lon="4.73913">
        <ele>187</ele>
        <time>2017-08-09T09:03:01Z</time>
      </trkpt>
      <trkpt lat="45.94615" lon="4.73917">
        <ele>187</ele>
        <time>2017-08-09T09:03:02Z</time>
      </trkpt>
      <trkpt lat="45.94621" lon="4.73924">
        <ele>187</ele>
        <time>2017-08-09T09:03:04Z</time>
      </trkpt>
      <trkpt lat="45.94624" lon="4.73928">
        <ele>187</ele>
        <time>2017-08-09T09:03:05Z</time>
      </trkpt>
      <trkpt lat="45.9463" lon="4.73935">
        <ele>187</ele>
        <time>2017-08-09T09:03:07Z</time>
      </trkpt>
      <trkpt lat="45.94633" lon="4.73939">
        <ele>187</ele>
        <time>2017-08-09T09:03:08Z</time>
      </trkpt>
      <trkpt lat="45.94636" lon="4.73943">
        <ele>187</ele>
        <time>2017-08-09T09:03:09Z</time>
      </trkpt>
      <trkpt lat="45.9464" lon="4.73948">
        <ele>187</ele>
        <time>2017-08-09T09:03:10Z</time>
      </trkpt>
      <trkpt lat="45.94647" lon="4.73956">
        <ele>187</ele>
        <time>2017-08-09T09:03:12Z</time>
      </trkpt>
      <trkpt lat="45.9465" lon="4.7396">
        <ele>187</ele>
        <time>2017-08-09T09:03:13Z</time>
      </trkpt>
      <trkpt lat="45.94653" lon="4.73964">
        <ele>187</ele>
        <time>2017-08-09T09:03:14Z</time>
      </trkpt>
      <trkpt lat="45.94657" lon="4.73969">
        <ele>187</ele>
        <time>2017-08-09T09:03:15Z</time>
      </trkpt>
      <trkpt lat="45.9466" lon="4.73973">
        <ele>187</ele>
        <time>2017-08-09T09:03:16Z</time>
      </trkpt>
      <trkpt lat="45.94664" lon="4.73978">
        <ele>187</ele>
        <time>2017-08-09T09:03:17Z</time>
      </trkpt>
      <trkpt lat="45.94667" lon="4.73982">
        <ele>187</ele>
        <time>2017-08-09T09:03:18Z</time>
      </trkpt>
      <trkpt lat="45.94671" lon="4.73987">
        <ele>187</ele>
        <time>2017-08-09T09:03:19Z</time>
      </trkpt>
      <trkpt lat="45.94674" lon="4.73992">
        <ele>187</ele>
        <time>2017-08-09T09:03:20Z</time>
      </trkpt>
      <trkpt lat="45.94678" lon="4.73997">
        <ele>187</ele>
        <time>2017-08-09T09:03:21Z</time>
      </trkpt>
      <trkpt lat="45.94681" lon="4.74002">
        <ele>187</ele>
        <time>2017-08-09T09:03:22Z</time>
      </trkpt>
      <trkpt lat="45.94685" lon="4.74006">
        <ele>187</ele>
        <time>2017-08-09T09:03:23Z</time>
      </trkpt>
      <trkpt lat="45.94691" lon="4.74015">
        <ele>187</ele>
        <time>2017-08-09T09:03:25Z</time>
      </trkpt>
      <trkpt lat="45.94694" lon="4.74019">
        <ele>187</ele>
        <time>2017-08-09T09:03:26Z</time>
      </trkpt>
      <trkpt lat="45.947" lon="4.74027">
        <ele>187</ele>
        <time>2017-08-09T09:03:28Z</time>
      </trkpt>
      <trkpt lat="45.94703" lon="4.74032">
        <ele>187</ele>
        <time>2017-08-09T09:03:29Z</time>
      </trkpt>
      <trkpt lat="45.94706" lon="4.74037">
        <ele>187</ele>
        <time>2017-08-09T09:03:30Z</time>
      </trkpt>
      <trkpt lat="45.94709" lon="4.74041">
        <ele>187</ele>
        <time>2017-08-09T09:03:31Z</time>
      </trkpt>
      <trkpt lat="45.94713" lon="4.74046">
        <ele>187</ele>
        <time>2017-08-09T09:03:32Z</time>
      </trkpt>
      <trkpt lat="45.94717" lon="4.74051">
        <ele>187</ele>
        <time>2017-08-09T09:03:33Z</time>
      </trkpt>
      <trkpt lat="45.94723" lon="4.74059">
        <ele>188</ele>
        <time>2017-08-09T09:03:35Z</time>
      </trkpt>
      <trkpt lat="45.94726" lon="4.74063">
        <ele>188</ele>
        <time>2017-08-09T09:03:36Z</time>
      </trkpt>
      <trkpt lat="45.94732" lon="4.74071">
        <ele>188</ele>
        <time>2017-08-09T09:03:38Z</time>
      </trkpt>
      <trkpt lat="45.94735" lon="4.74075">
        <ele>188</ele>
        <time>2017-08-09T09:03:39Z</time>
      </trkpt>
      <trkpt lat="45.94739" lon="4.74079">
        <ele>188</ele>
        <time>2017-08-09T09:03:40Z</time>
      </trkpt>
      <trkpt lat="45.94742" lon="4.74084">
        <ele>188</ele>
        <time>2017-08-09T09:03:41Z</time>
      </trkpt>
      <trkpt lat="45.94745" lon="4.74089">
        <ele>188</ele>
        <time>2017-08-09T09:03:42Z</time>
      </trkpt>
      <trkpt lat="45.94749" lon="4.74094">
        <ele>188</ele>
        <time>2017-08-09T09:03:43Z</time>
      </trkpt>
      <trkpt lat="45.94752" lon="4.74098">
        <ele>189</ele>
        <time>2017-08-09T09:03:44Z</time>
      </trkpt>
      <trkpt lat="45.94756" lon="4.74103">
        <ele>189</ele>
        <time>2017-08-09T09:03:45Z</time>
      </trkpt>
      <trkpt lat="45.9476" lon="4.74107">
        <ele>189</ele>
        <time>2017-08-09T09:03:46Z</time>
      </trkpt>
      <trkpt lat="45.94763" lon="4.74112">
        <ele>189</ele>
        <time>2017-08-09T09:03:47Z</time>
      </trkpt>
      <trkpt lat="45.94769" lon="4.74121">
        <ele>189</ele>
        <time>2017-08-09T09:03:49Z</time>
      </trkpt>
      <trkpt lat="45.94772" lon="4.74126">
        <ele>189</ele>
        <time>2017-08-09T09:03:50Z</time>
      </trkpt>
      <trkpt lat="45.94776" lon="4.7413">
        <ele>189</ele>
        <time>2017-08-09T09:03:51Z</time>
      </trkpt>
      <trkpt lat="45.94779" lon="4.74135">
        <ele>189</ele>
        <time>2017-08-09T09:03:52Z</time>
      </trkpt>
      <trkpt lat="45.94786" lon="4.74144">
        <ele>189</ele>
        <time>2017-08-09T09:03:54Z</time>
      </trkpt>
      <trkpt lat="45.9479" lon="4.74149">
        <ele>189</ele>
        <time>2017-08-09T09:03:55Z</time>
      </trkpt>
      <trkpt lat="45.94792" lon="4.74155">
        <ele>189</ele>
        <time>2017-08-09T09:03:56Z</time>
      </trkpt>
      <trkpt lat="45.94796" lon="4.74161">
        <ele>189</ele>
        <time>2017-08-09T09:03:57Z</time>
      </trkpt>
      <trkpt lat="45.94799" lon="4.74166">
        <ele>189</ele>
        <time>2017-08-09T09:03:58Z</time>
      </trkpt>
      <trkpt lat="45.94803" lon="4.74172">
        <ele>189</ele>
        <time>2017-08-09T09:03:59Z</time>
      </trkpt>
      <trkpt lat="45.94806" lon="4.74178">
        <ele>189</ele>
        <time>2017-08-09T09:04:00Z</time>
      </trkpt>
      <trkpt lat="45.94809" lon="4.74184">
        <ele>189</ele>
        <time>2017-08-09T09:04:01Z</time>
      </trkpt>
      <trkpt lat="45.94813" lon="4.7419">
        <ele>189</ele>
        <time>2017-08-09T09:04:02Z</time>
      </trkpt>
      <trkpt lat="45.94817" lon="4.74196">
        <ele>189</ele>
        <time>2017-08-09T09:04:03Z</time>
      </trkpt>
      <trkpt lat="45.9482" lon="4.74202">
        <ele>189</ele>
        <time>2017-08-09T09:04:04Z</time>
      </trkpt>
      <trkpt lat="45.94822" lon="4.74208">
        <ele>188</ele>
        <time>2017-08-09T09:04:05Z</time>
      </trkpt>
      <trkpt lat="45.94825" lon="4.74214">
        <ele>188</ele>
        <time>2017-08-09T09:04:06Z</time>
      </trkpt>
      <trkpt lat="45.94827" lon="4.74219">
        <ele>188</ele>
        <time>2017-08-09T09:04:07Z</time>
      </trkpt>
      <trkpt lat="45.9483" lon="4.74225">
        <ele>188</ele>
        <time>2017-08-09T09:04:08Z</time>
      </trkpt>
      <trkpt lat="45.94833" lon="4.7423">
        <ele>189</ele>
        <time>2017-08-09T09:04:09Z</time>
      </trkpt>
      <trkpt lat="45.94835" lon="4.74236">
        <ele>190</ele>
        <time>2017-08-09T09:04:10Z</time>
      </trkpt>
      <trkpt lat="45.94838" lon="4.74241">
        <ele>189</ele>
        <time>2017-08-09T09:04:11Z</time>
      </trkpt>
      <trkpt lat="45.94842" lon="4.74246">
        <ele>189</ele>
        <time>2017-08-09T09:04:12Z</time>
      </trkpt>
      <trkpt lat="45.94845" lon="4.74251">
        <ele>190</ele>
        <time>2017-08-09T09:04:13Z</time>
      </trkpt>
      <trkpt lat="45.94848" lon="4.74256">
        <ele>190</ele>
        <time>2017-08-09T09:04:14Z</time>
      </trkpt>
      <trkpt lat="45.94851" lon="4.74262">
        <ele>190</ele>
        <time>2017-08-09T09:04:15Z</time>
      </trkpt>
      <trkpt lat="45.94854" lon="4.74269">
        <ele>190</ele>
        <time>2017-08-09T09:04:16Z</time>
      </trkpt>
      <trkpt lat="45.94858" lon="4.74275">
        <ele>190</ele>
        <time>2017-08-09T09:04:17Z</time>
      </trkpt>
      <trkpt lat="45.94861" lon="4.74282">
        <ele>190</ele>
        <time>2017-08-09T09:04:18Z</time>
      </trkpt>
      <trkpt lat="45.94864" lon="4.74288">
        <ele>191</ele>
        <time>2017-08-09T09:04:19Z</time>
      </trkpt>
      <trkpt lat="45.94866" lon="4.74293">
        <ele>191</ele>
        <time>2017-08-09T09:04:20Z</time>
      </trkpt>
      <trkpt lat="45.94869" lon="4.74299">
        <ele>191</ele>
        <time>2017-08-09T09:04:21Z</time>
      </trkpt>
      <trkpt lat="45.94871" lon="4.74304">
        <ele>191</ele>
        <time>2017-08-09T09:04:22Z</time>
      </trkpt>
      <trkpt lat="45.94874" lon="4.7431">
        <ele>191</ele>
        <time>2017-08-09T09:04:23Z</time>
      </trkpt>
      <trkpt lat="45.94876" lon="4.74315">
        <ele>191</ele>
        <time>2017-08-09T09:04:24Z</time>
      </trkpt>
      <trkpt lat="45.94879" lon="4.7432">
        <ele>191</ele>
        <time>2017-08-09T09:04:25Z</time>
      </trkpt>
      <trkpt lat="45.94882" lon="4.74325">
        <ele>191</ele>
        <time>2017-08-09T09:04:26Z</time>
      </trkpt>
      <trkpt lat="45.94885" lon="4.74331">
        <ele>191</ele>
        <time>2017-08-09T09:04:27Z</time>
      </trkpt>
      <trkpt lat="45.94888" lon="4.74337">
        <ele>191</ele>
        <time>2017-08-09T09:04:28Z</time>
      </trkpt>
      <trkpt lat="45.94891" lon="4.74343">
        <ele>191</ele>
        <time>2017-08-09T09:04:29Z</time>
      </trkpt>
      <trkpt lat="45.94894" lon="4.74349">
        <ele>191</ele>
        <time>2017-08-09T09:04:30Z</time>
      </trkpt>
      <trkpt lat="45.94897" lon="4.74354">
        <ele>191</ele>
        <time>2017-08-09T09:04:31Z</time>
      </trkpt>
      <trkpt lat="45.949" lon="4.7436">
        <ele>191</ele>
        <time>2017-08-09T09:04:32Z</time>
      </trkpt>
      <trkpt lat="45.94903" lon="4.74366">
        <ele>191</ele>
        <time>2017-08-09T09:04:33Z</time>
      </trkpt>
      <trkpt lat="45.94906" lon="4.74372">
        <ele>191</ele>
        <time>2017-08-09T09:04:34Z</time>
      </trkpt>
      <trkpt lat="45.94909" lon="4.74378">
        <ele>191</ele>
        <time>2017-08-09T09:04:35Z</time>
      </trkpt>
      <trkpt lat="45.94912" lon="4.74385">
        <ele>191</ele>
        <time>2017-08-09T09:04:36Z</time>
      </trkpt>
      <trkpt lat="45.94915" lon="4.74391">
        <ele>191</ele>
        <time>2017-08-09T09:04:37Z</time>
      </trkpt>
      <trkpt lat="45.94918" lon="4.74396">
        <ele>192</ele>
        <time>2017-08-09T09:04:38Z</time>
      </trkpt>
      <trkpt lat="45.94921" lon="4.74402">
        <ele>192</ele>
        <time>2017-08-09T09:04:39Z</time>
      </trkpt>
      <trkpt lat="45.94924" lon="4.74407">
        <ele>192</ele>
        <time>2017-08-09T09:04:40Z</time>
      </trkpt>
      <trkpt lat="45.94926" lon="4.74413">
        <ele>192</ele>
        <time>2017-08-09T09:04:41Z</time>
      </trkpt>
      <trkpt lat="45.94931" lon="4.74423">
        <ele>192</ele>
        <time>2017-08-09T09:04:43Z</time>
      </trkpt>
      <trkpt lat="45.94935" lon="4.74428">
        <ele>192</ele>
        <time>2017-08-09T09:04:44Z</time>
      </trkpt>
      <trkpt lat="45.94938" lon="4.74434">
        <ele>192</ele>
        <time>2017-08-09T09:04:45Z</time>
      </trkpt>
      <trkpt lat="45.9494" lon="4.74439">
        <ele>192</ele>
        <time>2017-08-09T09:04:46Z</time>
      </trkpt>
      <trkpt lat="45.94943" lon="4.74445">
        <ele>192</ele>
        <time>2017-08-09T09:04:47Z</time>
      </trkpt>
      <trkpt lat="45.94946" lon="4.74451">
        <ele>192</ele>
        <time>2017-08-09T09:04:48Z</time>
      </trkpt>
      <trkpt lat="45.94949" lon="4.74457">
        <ele>192</ele>
        <time>2017-08-09T09:04:49Z</time>
      </trkpt>
      <trkpt lat="45.94952" lon="4.74462">
        <ele>193</ele>
        <time>2017-08-09T09:04:50Z</time>
      </trkpt>
      <trkpt lat="45.94955" lon="4.74468">
        <ele>193</ele>
        <time>2017-08-09T09:04:51Z</time>
      </trkpt>
      <trkpt lat="45.94958" lon="4.74474">
        <ele>193</ele>
        <time>2017-08-09T09:04:52Z</time>
      </trkpt>
      <trkpt lat="45.9496" lon="4.74479">
        <ele>193</ele>
        <time>2017-08-09T09:04:53Z</time>
      </trkpt>
      <trkpt lat="45.94966" lon="4.74489">
        <ele>193</ele>
        <time>2017-08-09T09:04:55Z</time>
      </trkpt>
      <trkpt lat="45.94969" lon="4.74495">
        <ele>193</ele>
        <time>2017-08-09T09:04:56Z</time>
      </trkpt>
      <trkpt lat="45.94971" lon="4.745">
        <ele>193</ele>
        <time>2017-08-09T09:04:57Z</time>
      </trkpt>
      <trkpt lat="45.94975" lon="4.74505">
        <ele>193</ele>
        <time>2017-08-09T09:04:58Z</time>
      </trkpt>
      <trkpt lat="45.94978" lon="4.74511">
        <ele>193</ele>
        <time>2017-08-09T09:04:59Z</time>
      </trkpt>
      <trkpt lat="45.94981" lon="4.74517">
        <ele>193</ele>
        <time>2017-08-09T09:05:00Z</time>
      </trkpt>
      <trkpt lat="45.94984" lon="4.74523">
        <ele>193</ele>
        <time>2017-08-09T09:05:01Z</time>
      </trkpt>
      <trkpt lat="45.94987" lon="4.74529">
        <ele>193</ele>
        <time>2017-08-09T09:05:02Z</time>
      </trkpt>
      <trkpt lat="45.9499" lon="4.74535">
        <ele>193</ele>
        <time>2017-08-09T09:05:03Z</time>
      </trkpt>
      <trkpt lat="45.94992" lon="4.7454">
        <ele>193</ele>
        <time>2017-08-09T09:05:04Z</time>
      </trkpt>
      <trkpt lat="45.94995" lon="4.74546">
        <ele>193</ele>
        <time>2017-08-09T09:05:05Z</time>
      </trkpt>
      <trkpt lat="45.95" lon="4.74555">
        <ele>194</ele>
        <time>2017-08-09T09:05:07Z</time>
      </trkpt>
      <trkpt lat="45.95003" lon="4.7456">
        <ele>194</ele>
        <time>2017-08-09T09:05:08Z</time>
      </trkpt>
      <trkpt lat="45.95006" lon="4.74565">
        <ele>194</ele>
        <time>2017-08-09T09:05:09Z</time>
      </trkpt>
      <trkpt lat="45.95008" lon="4.74571">
        <ele>194</ele>
        <time>2017-08-09T09:05:10Z</time>
      </trkpt>
      <trkpt lat="45.95011" lon="4.74576">
        <ele>194</ele>
        <time>2017-08-09T09:05:11Z</time>
      </trkpt>
      <trkpt lat="45.95014" lon="4.74582">
        <ele>194</ele>
        <time>2017-08-09T09:05:12Z</time>
      </trkpt>
      <trkpt lat="45.95018" lon="4.74587">
        <ele>194</ele>
        <time>2017-08-09T09:05:13Z</time>
      </trkpt>
      <trkpt lat="45.95021" lon="4.74593">
        <ele>194</ele>
        <time>2017-08-09T09:05:14Z</time>
      </trkpt>
      <trkpt lat="45.95024" lon="4.74599">
        <ele>194</ele>
        <time>2017-08-09T09:05:15Z</time>
      </trkpt>
      <trkpt lat="45.95027" lon="4.74605">
        <ele>194</ele>
        <time>2017-08-09T09:05:16Z</time>
      </trkpt>
      <trkpt lat="45.9503" lon="4.7461">
        <ele>194</ele>
        <time>2017-08-09T09:05:17Z</time>
      </trkpt>
      <trkpt lat="45.95033" lon="4.74615">
        <ele>194</ele>
        <time>2017-08-09T09:05:18Z</time>
      </trkpt>
      <trkpt lat="45.95038" lon="4.74625">
        <ele>194</ele>
        <time>2017-08-09T09:05:20Z</time>
      </trkpt>
      <trkpt lat="45.95041" lon="4.7463">
        <ele>194</ele>
        <time>2017-08-09T09:05:21Z</time>
      </trkpt>
      <trkpt lat="45.95044" lon="4.74635">
        <ele>194</ele>
        <time>2017-08-09T09:05:22Z</time>
      </trkpt>
      <trkpt lat="45.95047" lon="4.74641">
        <ele>194</ele>
        <time>2017-08-09T09:05:23Z</time>
      </trkpt>
      <trkpt lat="45.9505" lon="4.74646">
        <ele>194</ele>
        <time>2017-08-09T09:05:24Z</time>
      </trkpt>
      <trkpt lat="45.95052" lon="4.74651">
        <ele>194</ele>
        <time>2017-08-09T09:05:25Z</time>
      </trkpt>
      <trkpt lat="45.95056" lon="4.74657">
        <ele>194</ele>
        <time>2017-08-09T09:05:26Z</time>
      </trkpt>
      <trkpt lat="45.95059" lon="4.74662">
        <ele>194</ele>
        <time>2017-08-09T09:05:27Z</time>
      </trkpt>
      <trkpt lat="45.95062" lon="4.74669">
        <ele>194</ele>
        <time>2017-08-09T09:05:28Z</time>
      </trkpt>
      <trkpt lat="45.95066" lon="4.74675">
        <ele>194</ele>
        <time>2017-08-09T09:05:29Z</time>
      </trkpt>
      <trkpt lat="45.95069" lon="4.74681">
        <ele>194</ele>
        <time>2017-08-09T09:05:30Z</time>
      </trkpt>
      <trkpt lat="45.95072" lon="4.74687">
        <ele>194</ele>
        <time>2017-08-09T09:05:31Z</time>
      </trkpt>
      <trkpt lat="45.95076" lon="4.74692">
        <ele>194</ele>
        <time>2017-08-09T09:05:32Z</time>
      </trkpt>
      <trkpt lat="45.95079" lon="4.74698">
        <ele>194</ele>
        <time>2017-08-09T09:05:33Z</time>
      </trkpt>
      <trkpt lat="45.95082" lon="4.74703">
        <ele>194</ele>
        <time>2017-08-09T09:05:34Z</time>
      </trkpt>
      <trkpt lat="45.95085" lon="4.74709">
        <ele>194</ele>
        <time>2017-08-09T09:05:35Z</time>
      </trkpt>
      <trkpt lat="45.95088" lon="4.74714">
        <ele>194</ele>
        <time>2017-08-09T09:05:36Z</time>
      </trkpt>
      <trkpt lat="45.95091" lon="4.7472">
        <ele>194</ele>
        <time>2017-08-09T09:05:37Z</time>
      </trkpt>
      <trkpt lat="45.95094" lon="4.74725">
        <ele>194</ele>
        <time>2017-08-09T09:05:38Z</time>
      </trkpt>
      <trkpt lat="45.95097" lon="4.7473">
        <ele>194</ele>
        <time>2017-08-09T09:05:39Z</time>
      </trkpt>
      <trkpt lat="45.95101" lon="4.74736">
        <ele>194</ele>
        <time>2017-08-09T09:05:40Z</time>
      </trkpt>
      <trkpt lat="45.95105" lon="4.74742">
        <ele>194</ele>
        <time>2017-08-09T09:05:41Z</time>
      </trkpt>
      <trkpt lat="45.95109" lon="4.74747">
        <ele>194</ele>
        <time>2017-08-09T09:05:42Z</time>
      </trkpt>
      <trkpt lat="45.95112" lon="4.74753">
        <ele>194</ele>
        <time>2017-08-09T09:05:43Z</time>
      </trkpt>
      <trkpt lat="45.95116" lon="4.74759">
        <ele>194</ele>
        <time>2017-08-09T09:05:44Z</time>
      </trkpt>
      <trkpt lat="45.95119" lon="4.74765">
        <ele>194</ele>
        <time>2017-08-09T09:05:45Z</time>
      </trkpt>
      <trkpt lat="45.95122" lon="4.7477">
        <ele>194</ele>
        <time>2017-08-09T09:05:46Z</time>
      </trkpt>
      <trkpt lat="45.95126" lon="4.74776">
        <ele>194</ele>
        <time>2017-08-09T09:05:47Z</time>
      </trkpt>
      <trkpt lat="45.95129" lon="4.74781">
        <ele>194</ele>
        <time>2017-08-09T09:05:48Z</time>
      </trkpt>
      <trkpt lat="45.95132" lon="4.74785">
        <ele>194</ele>
        <time>2017-08-09T09:05:49Z</time>
      </trkpt>
      <trkpt lat="45.95135" lon="4.7479">
        <ele>194</ele>
        <time>2017-08-09T09:05:50Z</time>
      </trkpt>
      <trkpt lat="45.95139" lon="4.74796">
        <ele>194</ele>
        <time>2017-08-09T09:05:51Z</time>
      </trkpt>
      <trkpt lat="45.95142" lon="4.74801">
        <ele>194</ele>
        <time>2017-08-09T09:05:52Z</time>
      </trkpt>
      <trkpt lat="45.95146" lon="4.74807">
        <ele>194</ele>
        <time>2017-08-09T09:05:53Z</time>
      </trkpt>
      <trkpt lat="45.95149" lon="4.74812">
        <ele>194</ele>
        <time>2017-08-09T09:05:54Z</time>
      </trkpt>
      <trkpt lat="45.95153" lon="4.74817">
        <ele>194</ele>
        <time>2017-08-09T09:05:55Z</time>
      </trkpt>
      <trkpt lat="45.95157" lon="4.74823">
        <ele>194</ele>
        <time>2017-08-09T09:05:56Z</time>
      </trkpt>
      <trkpt lat="45.9516" lon="4.74829">
        <ele>194</ele>
        <time>2017-08-09T09:05:57Z</time>
      </trkpt>
      <trkpt lat="45.95163" lon="4.74835">
        <ele>194</ele>
        <time>2017-08-09T09:05:58Z</time>
      </trkpt>
      <trkpt lat="45.95166" lon="4.7484">
        <ele>194</ele>
        <time>2017-08-09T09:05:59Z</time>
      </trkpt>
      <trkpt lat="45.95169" lon="4.74846">
        <ele>194</ele>
        <time>2017-08-09T09:06:00Z</time>
      </trkpt>
      <trkpt lat="45.95173" lon="4.74852">
        <ele>194</ele>
        <time>2017-08-09T09:06:01Z</time>
      </trkpt>
      <trkpt lat="45.95176" lon="4.74857">
        <ele>194</ele>
        <time>2017-08-09T09:06:02Z</time>
      </trkpt>
      <trkpt lat="45.95179" lon="4.74862">
        <ele>194</ele>
        <time>2017-08-09T09:06:03Z</time>
      </trkpt>
      <trkpt lat="45.95182" lon="4.74867">
        <ele>194</ele>
        <time>2017-08-09T09:06:04Z</time>
      </trkpt>
      <trkpt lat="45.95186" lon="4.74872">
        <ele>194</ele>
        <time>2017-08-09T09:06:05Z</time>
      </trkpt>
      <trkpt lat="45.95189" lon="4.74877">
        <ele>194</ele>
        <time>2017-08-09T09:06:06Z</time>
      </trkpt>
      <trkpt lat="45.95192" lon="4.74882">
        <ele>194</ele>
        <time>2017-08-09T09:06:07Z</time>
      </trkpt>
      <trkpt lat="45.95195" lon="4.74887">
        <ele>194</ele>
        <time>2017-08-09T09:06:08Z</time>
      </trkpt>
      <trkpt lat="45.95198" lon="4.74891">
        <ele>194</ele>
        <time>2017-08-09T09:06:09Z</time>
      </trkpt>
      <trkpt lat="45.95201" lon="4.74896">
        <ele>194</ele>
        <time>2017-08-09T09:06:10Z</time>
      </trkpt>
      <trkpt lat="45.95204" lon="4.74901">
        <ele>194</ele>
        <time>2017-08-09T09:06:11Z</time>
      </trkpt>
      <trkpt lat="45.95207" lon="4.74906">
        <ele>194</ele>
        <time>2017-08-09T09:06:12Z</time>
      </trkpt>
      <trkpt lat="45.95211" lon="4.74912">
        <ele>193</ele>
        <time>2017-08-09T09:06:13Z</time>
      </trkpt>
      <trkpt lat="45.95214" lon="4.74918">
        <ele>192</ele>
        <time>2017-08-09T09:06:14Z</time>
      </trkpt>
      <trkpt lat="45.95218" lon="4.74924">
        <ele>192</ele>
        <time>2017-08-09T09:06:15Z</time>
      </trkpt>
      <trkpt lat="45.95222" lon="4.7493">
        <ele>192</ele>
        <time>2017-08-09T09:06:16Z</time>
      </trkpt>
      <trkpt lat="45.95226" lon="4.74936">
        <ele>192</ele>
        <time>2017-08-09T09:06:17Z</time>
      </trkpt>
      <trkpt lat="45.9523" lon="4.74942">
        <ele>192</ele>
        <time>2017-08-09T09:06:18Z</time>
      </trkpt>
      <trkpt lat="45.95233" lon="4.74948">
        <ele>192</ele>
        <time>2017-08-09T09:06:19Z</time>
      </trkpt>
      <trkpt lat="45.95236" lon="4.74954">
        <ele>192</ele>
        <time>2017-08-09T09:06:20Z</time>
      </trkpt>
      <trkpt lat="45.9524" lon="4.74959">
        <ele>191</ele>
        <time>2017-08-09T09:06:21Z</time>
      </trkpt>
      <trkpt lat="45.95244" lon="4.74964">
        <ele>191</ele>
        <time>2017-08-09T09:06:22Z</time>
      </trkpt>
      <trkpt lat="45.95247" lon="4.7497">
        <ele>191</ele>
        <time>2017-08-09T09:06:23Z</time>
      </trkpt>
      <trkpt lat="45.95251" lon="4.74975">
        <ele>192</ele>
        <time>2017-08-09T09:06:24Z</time>
      </trkpt>
      <trkpt lat="45.95254" lon="4.7498">
        <ele>192</ele>
        <time>2017-08-09T09:06:25Z</time>
      </trkpt>
      <trkpt lat="45.95257" lon="4.74986">
        <ele>192</ele>
        <time>2017-08-09T09:06:26Z</time>
      </trkpt>
      <trkpt lat="45.95261" lon="4.74991">
        <ele>192</ele>
        <time>2017-08-09T09:06:27Z</time>
      </trkpt>
      <trkpt lat="45.95264" lon="4.74996">
        <ele>192</ele>
        <time>2017-08-09T09:06:28Z</time>
      </trkpt>
      <trkpt lat="45.95267" lon="4.75001">
        <ele>191</ele>
        <time>2017-08-09T09:06:29Z</time>
      </trkpt>
      <trkpt lat="45.9527" lon="4.75006">
        <ele>191</ele>
        <time>2017-08-09T09:06:30Z</time>
      </trkpt>
      <trkpt lat="45.95274" lon="4.75011">
        <ele>191</ele>
        <time>2017-08-09T09:06:31Z</time>
      </trkpt>
      <trkpt lat="45.95278" lon="4.75017">
        <ele>191</ele>
        <time>2017-08-09T09:06:32Z</time>
      </trkpt>
      <trkpt lat="45.95281" lon="4.75023">
        <ele>191</ele>
        <time>2017-08-09T09:06:33Z</time>
      </trkpt>
      <trkpt lat="45.95285" lon="4.75029">
        <ele>191</ele>
        <time>2017-08-09T09:06:34Z</time>
      </trkpt>
      <trkpt lat="45.95289" lon="4.75035">
        <ele>191</ele>
        <time>2017-08-09T09:06:35Z</time>
      </trkpt>
      <trkpt lat="45.95293" lon="4.75041">
        <ele>191</ele>
        <time>2017-08-09T09:06:36Z</time>
      </trkpt>
      <trkpt lat="45.95296" lon="4.75046">
        <ele>191</ele>
        <time>2017-08-09T09:06:37Z</time>
      </trkpt>
      <trkpt lat="45.953" lon="4.75052">
        <ele>191</ele>
        <time>2017-08-09T09:06:38Z</time>
      </trkpt>
      <trkpt lat="45.95304" lon="4.75058">
        <ele>191</ele>
        <time>2017-08-09T09:06:39Z</time>
      </trkpt>
      <trkpt lat="45.95307" lon="4.75063">
        <ele>192</ele>
        <time>2017-08-09T09:06:40Z</time>
      </trkpt>
      <trkpt lat="45.95311" lon="4.75069">
        <ele>192</ele>
        <time>2017-08-09T09:06:41Z</time>
      </trkpt>
      <trkpt lat="45.95314" lon="4.75074">
        <ele>192</ele>
        <time>2017-08-09T09:06:42Z</time>
      </trkpt>
      <trkpt lat="45.95318" lon="4.75079">
        <ele>192</ele>
        <time>2017-08-09T09:06:43Z</time>
      </trkpt>
      <trkpt lat="45.95321" lon="4.75085">
        <ele>191</ele>
        <time>2017-08-09T09:06:44Z</time>
      </trkpt>
      <trkpt lat="45.95325" lon="4.7509">
        <ele>191</ele>
        <time>2017-08-09T09:06:45Z</time>
      </trkpt>
      <trkpt lat="45.95329" lon="4.75096">
        <ele>191</ele>
        <time>2017-08-09T09:06:46Z</time>
      </trkpt>
      <trkpt lat="45.95333" lon="4.75102">
        <ele>190</ele>
        <time>2017-08-09T09:06:47Z</time>
      </trkpt>
      <trkpt lat="45.95336" lon="4.75108">
        <ele>192</ele>
        <time>2017-08-09T09:06:48Z</time>
      </trkpt>
      <trkpt lat="45.9534" lon="4.75115">
        <ele>192</ele>
        <time>2017-08-09T09:06:49Z</time>
      </trkpt>
      <trkpt lat="45.95344" lon="4.75121">
        <ele>191</ele>
        <time>2017-08-09T09:06:50Z</time>
      </trkpt>
      <trkpt lat="45.95348" lon="4.75126">
        <ele>191</ele>
        <time>2017-08-09T09:06:51Z</time>
      </trkpt>
      <trkpt lat="45.95351" lon="4.75133">
        <ele>191</ele>
        <time>2017-08-09T09:06:52Z</time>
      </trkpt>
      <trkpt lat="45.95355" lon="4.75139">
        <ele>191</ele>
        <time>2017-08-09T09:06:53Z</time>
      </trkpt>
      <trkpt lat="45.95359" lon="4.75145">
        <ele>191</ele>
        <time>2017-08-09T09:06:54Z</time>
      </trkpt>
      <trkpt lat="45.95362" lon="4.7515">
        <ele>191</ele>
        <time>2017-08-09T09:06:55Z</time>
      </trkpt>
      <trkpt lat="45.95366" lon="4.75156">
        <ele>191</ele>
        <time>2017-08-09T09:06:56Z</time>
      </trkpt>
      <trkpt lat="45.95368" lon="4.75161">
        <ele>191</ele>
        <time>2017-08-09T09:06:57Z</time>
      </trkpt>
      <trkpt lat="45.95371" lon="4.75167">
        <ele>188</ele>
        <time>2017-08-09T09:06:58Z</time>
      </trkpt>
      <trkpt lat="45.95374" lon="4.75173">
        <ele>189</ele>
        <time>2017-08-09T09:06:59Z</time>
      </trkpt>
      <trkpt lat="45.95378" lon="4.75179">
        <ele>189</ele>
        <time>2017-08-09T09:07:00Z</time>
      </trkpt>
      <trkpt lat="45.95381" lon="4.75185">
        <ele>189</ele>
        <time>2017-08-09T09:07:01Z</time>
      </trkpt>
      <trkpt lat="45.95385" lon="4.75191">
        <ele>189</ele>
        <time>2017-08-09T09:07:02Z</time>
      </trkpt>
      <trkpt lat="45.95388" lon="4.75197">
        <ele>189</ele>
        <time>2017-08-09T09:07:03Z</time>
      </trkpt>
      <trkpt lat="45.95391" lon="4.75202">
        <ele>188</ele>
        <time>2017-08-09T09:07:04Z</time>
      </trkpt>
      <trkpt lat="45.95395" lon="4.75208">
        <ele>188</ele>
        <time>2017-08-09T09:07:05Z</time>
      </trkpt>
      <trkpt lat="45.95398" lon="4.75213">
        <ele>188</ele>
        <time>2017-08-09T09:07:06Z</time>
      </trkpt>
      <trkpt lat="45.95402" lon="4.75218">
        <ele>188</ele>
        <time>2017-08-09T09:07:07Z</time>
      </trkpt>
      <trkpt lat="45.95405" lon="4.75224">
        <ele>188</ele>
        <time>2017-08-09T09:07:08Z</time>
      </trkpt>
      <trkpt lat="45.95408" lon="4.75229">
        <ele>188</ele>
        <time>2017-08-09T09:07:09Z</time>
      </trkpt>
      <trkpt lat="45.95411" lon="4.75235">
        <ele>189</ele>
        <time>2017-08-09T09:07:10Z</time>
      </trkpt>
      <trkpt lat="45.95414" lon="4.75241">
        <ele>189</ele>
        <time>2017-08-09T09:07:11Z</time>
      </trkpt>
      <trkpt lat="45.95417" lon="4.75246">
        <ele>189</ele>
        <time>2017-08-09T09:07:12Z</time>
      </trkpt>
      <trkpt lat="45.9542" lon="4.75252">
        <ele>189</ele>
        <time>2017-08-09T09:07:13Z</time>
      </trkpt>
      <trkpt lat="45.95423" lon="4.75258">
        <ele>189</ele>
        <time>2017-08-09T09:07:14Z</time>
      </trkpt>
      <trkpt lat="45.95426" lon="4.75264">
        <ele>189</ele>
        <time>2017-08-09T09:07:15Z</time>
      </trkpt>
      <trkpt lat="45.9543" lon="4.75271">
        <ele>189</ele>
        <time>2017-08-09T09:07:16Z</time>
      </trkpt>
      <trkpt lat="45.95433" lon="4.75278">
        <ele>188</ele>
        <time>2017-08-09T09:07:17Z</time>
      </trkpt>
      <trkpt lat="45.95437" lon="4.75284">
        <ele>188</ele>
        <time>2017-08-09T09:07:18Z</time>
      </trkpt>
      <trkpt lat="45.95441" lon="4.75291">
        <ele>188</ele>
        <time>2017-08-09T09:07:19Z</time>
      </trkpt>
      <trkpt lat="45.95445" lon="4.75298">
        <ele>188</ele>
        <time>2017-08-09T09:07:20Z</time>
      </trkpt>
      <trkpt lat="45.95449" lon="4.75306">
        <ele>188</ele>
        <time>2017-08-09T09:07:21Z</time>
      </trkpt>
      <trkpt lat="45.95453" lon="4.75312">
        <ele>188</ele>
        <time>2017-08-09T09:07:22Z</time>
      </trkpt>
      <trkpt lat="45.95457" lon="4.75319">
        <ele>188</ele>
        <time>2017-08-09T09:07:23Z</time>
      </trkpt>
      <trkpt lat="45.95461" lon="4.75326">
        <ele>188</ele>
        <time>2017-08-09T09:07:24Z</time>
      </trkpt>
      <trkpt lat="45.95464" lon="4.75333">
        <ele>188</ele>
        <time>2017-08-09T09:07:25Z</time>
      </trkpt>
      <trkpt lat="45.95468" lon="4.7534">
        <ele>186</ele>
        <time>2017-08-09T09:07:26Z</time>
      </trkpt>
      <trkpt lat="45.95472" lon="4.75347">
        <ele>186</ele>
        <time>2017-08-09T09:07:27Z</time>
      </trkpt>
      <trkpt lat="45.95476" lon="4.75354">
        <ele>186</ele>
        <time>2017-08-09T09:07:28Z</time>
      </trkpt>
      <trkpt lat="45.95479" lon="4.75361">
        <ele>186</ele>
        <time>2017-08-09T09:07:29Z</time>
      </trkpt>
      <trkpt lat="45.95483" lon="4.75368">
        <ele>185</ele>
        <time>2017-08-09T09:07:30Z</time>
      </trkpt>
      <trkpt lat="45.95487" lon="4.75376">
        <ele>185</ele>
        <time>2017-08-09T09:07:31Z</time>
      </trkpt>
      <trkpt lat="45.95491" lon="4.75384">
        <ele>185</ele>
        <time>2017-08-09T09:07:32Z</time>
      </trkpt>
      <trkpt lat="45.95494" lon="4.75391">
        <ele>185</ele>
        <time>2017-08-09T09:07:33Z</time>
      </trkpt>
      <trkpt lat="45.95497" lon="4.75399">
        <ele>185</ele>
        <time>2017-08-09T09:07:34Z</time>
      </trkpt>
      <trkpt lat="45.95499" lon="4.75407">
        <ele>185</ele>
        <time>2017-08-09T09:07:35Z</time>
      </trkpt>
      <trkpt lat="45.95501" lon="4.75415">
        <ele>185</ele>
        <time>2017-08-09T09:07:36Z</time>
      </trkpt>
      <trkpt lat="45.95503" lon="4.75424">
        <ele>186</ele>
        <time>2017-08-09T09:07:37Z</time>
      </trkpt>
      <trkpt lat="45.95504" lon="4.75432">
        <ele>186</ele>
        <time>2017-08-09T09:07:38Z</time>
      </trkpt>
      <trkpt lat="45.95506" lon="4.75441">
        <ele>186</ele>
        <time>2017-08-09T09:07:39Z</time>
      </trkpt>
      <trkpt lat="45.95506" lon="4.75451">
        <ele>186</ele>
        <time>2017-08-09T09:07:40Z</time>
      </trkpt>
      <trkpt lat="45.95506" lon="4.7546">
        <ele>186</ele>
        <time>2017-08-09T09:07:41Z</time>
      </trkpt>
      <trkpt lat="45.95505" lon="4.75469">
        <ele>186</ele>
        <time>2017-08-09T09:07:42Z</time>
      </trkpt>
      <trkpt lat="45.95506" lon="4.75478">
        <ele>186</ele>
        <time>2017-08-09T09:07:43Z</time>
      </trkpt>
      <trkpt lat="45.95508" lon="4.75487">
        <ele>186</ele>
        <time>2017-08-09T09:07:44Z</time>
      </trkpt>
      <trkpt lat="45.95511" lon="4.75494">
        <ele>185</ele>
        <time>2017-08-09T09:07:45Z</time>
      </trkpt>
      <trkpt lat="45.95516" lon="4.75499">
        <ele>186</ele>
        <time>2017-08-09T09:07:46Z</time>
      </trkpt>
      <trkpt lat="45.9552" lon="4.75502">
        <ele>185</ele>
        <time>2017-08-09T09:07:47Z</time>
      </trkpt>
      <trkpt lat="45.95525" lon="4.75505">
        <ele>185</ele>
        <time>2017-08-09T09:07:48Z</time>
      </trkpt>
      <trkpt lat="45.9553" lon="4.75509">
        <ele>185</ele>
        <time>2017-08-09T09:07:49Z</time>
      </trkpt>
      <trkpt lat="45.95534" lon="4.75513">
        <ele>186</ele>
        <time>2017-08-09T09:07:50Z</time>
      </trkpt>
      <trkpt lat="45.95539" lon="4.75518">
        <ele>186</ele>
        <time>2017-08-09T09:07:51Z</time>
      </trkpt>
      <trkpt lat="45.95544" lon="4.75522">
        <ele>186</ele>
        <time>2017-08-09T09:07:52Z</time>
      </trkpt>
      <trkpt lat="45.95549" lon="4.75527">
        <ele>186</ele>
        <time>2017-08-09T09:07:53Z</time>
      </trkpt>
      <trkpt lat="45.95554" lon="4.75532">
        <ele>186</ele>
        <time>2017-08-09T09:07:54Z</time>
      </trkpt>
      <trkpt lat="45.95559" lon="4.75537">
        <ele>186</ele>
        <time>2017-08-09T09:07:55Z</time>
      </trkpt>
      <trkpt lat="45.95564" lon="4.75542">
        <ele>186</ele>
        <time>2017-08-09T09:07:56Z</time>
      </trkpt>
      <trkpt lat="45.95569" lon="4.75547">
        <ele>186</ele>
        <time>2017-08-09T09:07:57Z</time>
      </trkpt>
      <trkpt lat="45.95573" lon="4.75552">
        <ele>186</ele>
        <time>2017-08-09T09:07:58Z</time>
      </trkpt>
      <trkpt lat="45.95577" lon="4.75557">
        <ele>186</ele>
        <time>2017-08-09T09:07:59Z</time>
      </trkpt>
      <trkpt lat="45.95581" lon="4.75562">
        <ele>186</ele>
        <time>2017-08-09T09:08:00Z</time>
      </trkpt>
      <trkpt lat="45.95585" lon="4.75567">
        <ele>188</ele>
        <time>2017-08-09T09:08:01Z</time>
      </trkpt>
      <trkpt lat="45.95588" lon="4.75572">
        <ele>187</ele>
        <time>2017-08-09T09:08:02Z</time>
      </trkpt>
      <trkpt lat="45.95591" lon="4.75578">
        <ele>187</ele>
        <time>2017-08-09T09:08:03Z</time>
      </trkpt>
      <trkpt lat="45.95594" lon="4.75584">
        <ele>187</ele>
        <time>2017-08-09T09:08:04Z</time>
      </trkpt>
      <trkpt lat="45.95597" lon="4.75589">
        <ele>187</ele>
        <time>2017-08-09T09:08:05Z</time>
      </trkpt>
      <trkpt lat="45.956" lon="4.75596">
        <ele>187</ele>
        <time>2017-08-09T09:08:06Z</time>
      </trkpt>
      <trkpt lat="45.95602" lon="4.75603">
        <ele>187</ele>
        <time>2017-08-09T09:08:07Z</time>
      </trkpt>
      <trkpt lat="45.95605" lon="4.7561">
        <ele>187</ele>
        <time>2017-08-09T09:08:08Z</time>
      </trkpt>
      <trkpt lat="45.95607" lon="4.75617">
        <ele>188</ele>
        <time>2017-08-09T09:08:09Z</time>
      </trkpt>
      <trkpt lat="45.95609" lon="4.75624">
        <ele>188</ele>
        <time>2017-08-09T09:08:10Z</time>
      </trkpt>
      <trkpt lat="45.95611" lon="4.75632">
        <ele>188</ele>
        <time>2017-08-09T09:08:11Z</time>
      </trkpt>
      <trkpt lat="45.95613" lon="4.75641">
        <ele>188</ele>
        <time>2017-08-09T09:08:12Z</time>
      </trkpt>
      <trkpt lat="45.95615" lon="4.75649">
        <ele>188</ele>
        <time>2017-08-09T09:08:13Z</time>
      </trkpt>
      <trkpt lat="45.95616" lon="4.75657">
        <ele>188</ele>
        <time>2017-08-09T09:08:14Z</time>
      </trkpt>
      <trkpt lat="45.95617" lon="4.75664">
        <ele>188</ele>
        <time>2017-08-09T09:08:15Z</time>
      </trkpt>
      <trkpt lat="45.95618" lon="4.75672">
        <ele>187</ele>
        <time>2017-08-09T09:08:16Z</time>
      </trkpt>
      <trkpt lat="45.95619" lon="4.75679">
        <ele>187</ele>
        <time>2017-08-09T09:08:17Z</time>
      </trkpt>
      <trkpt lat="45.9562" lon="4.75686">
        <ele>187</ele>
        <time>2017-08-09T09:08:18Z</time>
      </trkpt>
      <trkpt lat="45.95621" lon="4.75693">
        <ele>187</ele>
        <time>2017-08-09T09:08:19Z</time>
      </trkpt>
      <trkpt lat="45.95622" lon="4.757">
        <ele>187</ele>
        <time>2017-08-09T09:08:20Z</time>
      </trkpt>
      <trkpt lat="45.95624" lon="4.75707">
        <ele>187</ele>
        <time>2017-08-09T09:08:21Z</time>
      </trkpt>
      <trkpt lat="45.95625" lon="4.75714">
        <ele>187</ele>
        <time>2017-08-09T09:08:22Z</time>
      </trkpt>
      <trkpt lat="45.95626" lon="4.75721">
        <ele>187</ele>
        <time>2017-08-09T09:08:23Z</time>
      </trkpt>
      <trkpt lat="45.95627" lon="4.75729">
        <ele>187</ele>
        <time>2017-08-09T09:08:24Z</time>
      </trkpt>
      <trkpt lat="45.95628" lon="4.75736">
        <ele>187</ele>
        <time>2017-08-09T09:08:25Z</time>
      </trkpt>
      <trkpt lat="45.95629" lon="4.75744">
        <ele>187</ele>
        <time>2017-08-09T09:08:26Z</time>
      </trkpt>
      <trkpt lat="45.9563" lon="4.75751">
        <ele>186</ele>
        <time>2017-08-09T09:08:27Z</time>
      </trkpt>
      <trkpt lat="45.95631" lon="4.75758">
        <ele>186</ele>
        <time>2017-08-09T09:08:28Z</time>
      </trkpt>
      <trkpt lat="45.95632" lon="4.75766">
        <ele>186</ele>
        <time>2017-08-09T09:08:29Z</time>
      </trkpt>
      <trkpt lat="45.95632" lon="4.75773">
        <ele>185</ele>
        <time>2017-08-09T09:08:30Z</time>
      </trkpt>
      <trkpt lat="45.95633" lon="4.7578">
        <ele>185</ele>
        <time>2017-08-09T09:08:31Z</time>
      </trkpt>
      <trkpt lat="45.95634" lon="4.75787">
        <ele>185</ele>
        <time>2017-08-09T09:08:32Z</time>
      </trkpt>
      <trkpt lat="45.95635" lon="4.75794">
        <ele>185</ele>
        <time>2017-08-09T09:08:33Z</time>
      </trkpt>
      <trkpt lat="45.95636" lon="4.75801">
        <ele>185</ele>
        <time>2017-08-09T09:08:34Z</time>
      </trkpt>
      <trkpt lat="45.95637" lon="4.75807">
        <ele>185</ele>
        <time>2017-08-09T09:08:35Z</time>
      </trkpt>
      <trkpt lat="45.95638" lon="4.75814">
        <ele>185</ele>
        <time>2017-08-09T09:08:36Z</time>
      </trkpt>
      <trkpt lat="45.9564" lon="4.75821">
        <ele>185</ele>
        <time>2017-08-09T09:08:37Z</time>
      </trkpt>
      <trkpt lat="45.95642" lon="4.75829">
        <ele>185</ele>
        <time>2017-08-09T09:08:38Z</time>
      </trkpt>
      <trkpt lat="45.95644" lon="4.75837">
        <ele>184</ele>
        <time>2017-08-09T09:08:39Z</time>
      </trkpt>
      <trkpt lat="45.95646" lon="4.75845">
        <ele>184</ele>
        <time>2017-08-09T09:08:40Z</time>
      </trkpt>
      <trkpt lat="45.95648" lon="4.75853">
        <ele>184</ele>
        <time>2017-08-09T09:08:41Z</time>
      </trkpt>
      <trkpt lat="45.95651" lon="4.75861">
        <ele>184</ele>
        <time>2017-08-09T09:08:42Z</time>
      </trkpt>
      <trkpt lat="45.95653" lon="4.75869">
        <ele>184</ele>
        <time>2017-08-09T09:08:43Z</time>
      </trkpt>
      <trkpt lat="45.95655" lon="4.75876">
        <ele>184</ele>
        <time>2017-08-09T09:08:44Z</time>
      </trkpt>
      <trkpt lat="45.95658" lon="4.75884">
        <ele>184</ele>
        <time>2017-08-09T09:08:45Z</time>
      </trkpt>
      <trkpt lat="45.95661" lon="4.75891">
        <ele>184</ele>
        <time>2017-08-09T09:08:46Z</time>
      </trkpt>
      <trkpt lat="45.95663" lon="4.75899">
        <ele>184</ele>
        <time>2017-08-09T09:08:47Z</time>
      </trkpt>
      <trkpt lat="45.95666" lon="4.75906">
        <ele>184</ele>
        <time>2017-08-09T09:08:48Z</time>
      </trkpt>
      <trkpt lat="45.95669" lon="4.75914">
        <ele>184</ele>
        <time>2017-08-09T09:08:49Z</time>
      </trkpt>
      <trkpt lat="45.95672" lon="4.75921">
        <ele>184</ele>
        <time>2017-08-09T09:08:50Z</time>
      </trkpt>
      <trkpt lat="45.95675" lon="4.75928">
        <ele>185</ele>
        <time>2017-08-09T09:08:51Z</time>
      </trkpt>
      <trkpt lat="45.95678" lon="4.75935">
        <ele>185</ele>
        <time>2017-08-09T09:08:52Z</time>
      </trkpt>
      <trkpt lat="45.95681" lon="4.75942">
        <ele>185</ele>
        <time>2017-08-09T09:08:53Z</time>
      </trkpt>
      <trkpt lat="45.95684" lon="4.75948">
        <ele>185</ele>
        <time>2017-08-09T09:08:54Z</time>
      </trkpt>
      <trkpt lat="45.95687" lon="4.75955">
        <ele>185</ele>
        <time>2017-08-09T09:08:55Z</time>
      </trkpt>
      <trkpt lat="45.9569" lon="4.75961">
        <ele>185</ele>
        <time>2017-08-09T09:08:56Z</time>
      </trkpt>
      <trkpt lat="45.95693" lon="4.75967">
        <ele>185</ele>
        <time>2017-08-09T09:08:57Z</time>
      </trkpt>
      <trkpt lat="45.95696" lon="4.75973">
        <ele>185</ele>
        <time>2017-08-09T09:08:58Z</time>
      </trkpt>
      <trkpt lat="45.95699" lon="4.75979">
        <ele>185</ele>
        <time>2017-08-09T09:08:59Z</time>
      </trkpt>
      <trkpt lat="45.95702" lon="4.75985">
        <ele>185</ele>
        <time>2017-08-09T09:09:00Z</time>
      </trkpt>
      <trkpt lat="45.95704" lon="4.75991">
        <ele>185</ele>
        <time>2017-08-09T09:09:01Z</time>
      </trkpt>
      <trkpt lat="45.95707" lon="4.75997">
        <ele>185</ele>
        <time>2017-08-09T09:09:02Z</time>
      </trkpt>
      <trkpt lat="45.95709" lon="4.76003">
        <ele>184</ele>
        <time>2017-08-09T09:09:03Z</time>
      </trkpt>
      <trkpt lat="45.95712" lon="4.76009">
        <ele>184</ele>
        <time>2017-08-09T09:09:04Z</time>
      </trkpt>
      <trkpt lat="45.95715" lon="4.76014">
        <ele>184</ele>
        <time>2017-08-09T09:09:05Z</time>
      </trkpt>
      <trkpt lat="45.95718" lon="4.7602">
        <ele>184</ele>
        <time>2017-08-09T09:09:06Z</time>
      </trkpt>
      <trkpt lat="45.95721" lon="4.76026">
        <ele>184</ele>
        <time>2017-08-09T09:09:07Z</time>
      </trkpt>
      <trkpt lat="45.95724" lon="4.76033">
        <ele>184</ele>
        <time>2017-08-09T09:09:08Z</time>
      </trkpt>
      <trkpt lat="45.95727" lon="4.76039">
        <ele>184</ele>
        <time>2017-08-09T09:09:09Z</time>
      </trkpt>
      <trkpt lat="45.9573" lon="4.76046">
        <ele>184</ele>
        <time>2017-08-09T09:09:10Z</time>
      </trkpt>
      <trkpt lat="45.95733" lon="4.76052">
        <ele>184</ele>
        <time>2017-08-09T09:09:11Z</time>
      </trkpt>
      <trkpt lat="45.95736" lon="4.76058">
        <ele>184</ele>
        <time>2017-08-09T09:09:12Z</time>
      </trkpt>
      <trkpt lat="45.95739" lon="4.76065">
        <ele>184</ele>
        <time>2017-08-09T09:09:13Z</time>
      </trkpt>
      <trkpt lat="45.95741" lon="4.76071">
        <ele>185</ele>
        <time>2017-08-09T09:09:14Z</time>
      </trkpt>
      <trkpt lat="45.95743" lon="4.76077">
        <ele>185</ele>
        <time>2017-08-09T09:09:15Z</time>
      </trkpt>
      <trkpt lat="45.95745" lon="4.76083">
        <ele>185</ele>
        <time>2017-08-09T09:09:16Z</time>
      </trkpt>
      <trkpt lat="45.95747" lon="4.76089">
        <ele>185</ele>
        <time>2017-08-09T09:09:17Z</time>
      </trkpt>
      <trkpt lat="45.95751" lon="4.761">
        <ele>186</ele>
        <time>2017-08-09T09:09:19Z</time>
      </trkpt>
      <trkpt lat="45.95752" lon="4.76107">
        <ele>186</ele>
        <time>2017-08-09T09:09:20Z</time>
      </trkpt>
      <trkpt lat="45.95754" lon="4.76114">
        <ele>186</ele>
        <time>2017-08-09T09:09:21Z</time>
      </trkpt>
      <trkpt lat="45.95755" lon="4.76121">
        <ele>186</ele>
        <time>2017-08-09T09:09:22Z</time>
      </trkpt>
      <trkpt lat="45.95756" lon="4.76129">
        <ele>186</ele>
        <time>2017-08-09T09:09:23Z</time>
      </trkpt>
      <trkpt lat="45.95757" lon="4.76137">
        <ele>186</ele>
        <time>2017-08-09T09:09:24Z</time>
      </trkpt>
      <trkpt lat="45.95758" lon="4.76145">
        <ele>186</ele>
        <time>2017-08-09T09:09:25Z</time>
      </trkpt>
      <trkpt lat="45.95759" lon="4.76153">
        <ele>186</ele>
        <time>2017-08-09T09:09:26Z</time>
      </trkpt>
      <trkpt lat="45.95759" lon="4.76161">
        <ele>186</ele>
        <time>2017-08-09T09:09:27Z</time>
      </trkpt>
      <trkpt lat="45.9576" lon="4.76168">
        <ele>185</ele>
        <time>2017-08-09T09:09:28Z</time>
      </trkpt>
      <trkpt lat="45.9576" lon="4.76175">
        <ele>185</ele>
        <time>2017-08-09T09:09:29Z</time>
      </trkpt>
      <trkpt lat="45.95761" lon="4.76181">
        <ele>185</ele>
        <time>2017-08-09T09:09:30Z</time>
      </trkpt>
      <trkpt lat="45.95761" lon="4.76188">
        <ele>186</ele>
        <time>2017-08-09T09:09:31Z</time>
      </trkpt>
      <trkpt lat="45.95762" lon="4.76194">
        <ele>186</ele>
        <time>2017-08-09T09:09:32Z</time>
      </trkpt>
      <trkpt lat="45.95762" lon="4.76202">
        <ele>186</ele>
        <time>2017-08-09T09:09:33Z</time>
      </trkpt>
      <trkpt lat="45.95763" lon="4.7621">
        <ele>186</ele>
        <time>2017-08-09T09:09:34Z</time>
      </trkpt>
      <trkpt lat="45.95763" lon="4.76217">
        <ele>186</ele>
        <time>2017-08-09T09:09:35Z</time>
      </trkpt>
      <trkpt lat="45.95764" lon="4.76226">
        <ele>186</ele>
        <time>2017-08-09T09:09:36Z</time>
      </trkpt>
      <trkpt lat="45.95764" lon="4.76234">
        <ele>186</ele>
        <time>2017-08-09T09:09:37Z</time>
      </trkpt>
      <trkpt lat="45.95764" lon="4.76241">
        <ele>185</ele>
        <time>2017-08-09T09:09:38Z</time>
      </trkpt>
      <trkpt lat="45.95764" lon="4.7625">
        <ele>185</ele>
        <time>2017-08-09T09:09:39Z</time>
      </trkpt>
      <trkpt lat="45.95764" lon="4.76258">
        <ele>185</ele>
        <time>2017-08-09T09:09:40Z</time>
      </trkpt>
      <trkpt lat="45.95764" lon="4.76266">
        <ele>185</ele>
        <time>2017-08-09T09:09:41Z</time>
      </trkpt>
      <trkpt lat="45.95765" lon="4.76273">
        <ele>185</ele>
        <time>2017-08-09T09:09:42Z</time>
      </trkpt>
      <trkpt lat="45.95765" lon="4.7628">
        <ele>186</ele>
        <time>2017-08-09T09:09:43Z</time>
      </trkpt>
      <trkpt lat="45.95765" lon="4.76288">
        <ele>186</ele>
        <time>2017-08-09T09:09:44Z</time>
      </trkpt>
      <trkpt lat="45.95766" lon="4.76295">
        <ele>186</ele>
        <time>2017-08-09T09:09:45Z</time>
      </trkpt>
      <trkpt lat="45.95766" lon="4.76302">
        <ele>186</ele>
        <time>2017-08-09T09:09:46Z</time>
      </trkpt>
      <trkpt lat="45.95766" lon="4.76309">
        <ele>185</ele>
        <time>2017-08-09T09:09:47Z</time>
      </trkpt>
      <trkpt lat="45.95767" lon="4.76316">
        <ele>185</ele>
        <time>2017-08-09T09:09:48Z</time>
      </trkpt>
      <trkpt lat="45.95768" lon="4.76323">
        <ele>185</ele>
        <time>2017-08-09T09:09:49Z</time>
      </trkpt>
      <trkpt lat="45.95768" lon="4.76331">
        <ele>185</ele>
        <time>2017-08-09T09:09:50Z</time>
      </trkpt>
      <trkpt lat="45.95768" lon="4.7634">
        <ele>186</ele>
        <time>2017-08-09T09:09:51Z</time>
      </trkpt>
      <trkpt lat="45.95769" lon="4.76348">
        <ele>186</ele>
        <time>2017-08-09T09:09:52Z</time>
      </trkpt>
      <trkpt lat="45.95769" lon="4.76356">
        <ele>186</ele>
        <time>2017-08-09T09:09:53Z</time>
      </trkpt>
      <trkpt lat="45.9577" lon="4.76364">
        <ele>186</ele>
        <time>2017-08-09T09:09:54Z</time>
      </trkpt>
      <trkpt lat="45.9577" lon="4.76371">
        <ele>186</ele>
        <time>2017-08-09T09:09:55Z</time>
      </trkpt>
      <trkpt lat="45.95771" lon="4.76379">
        <ele>186</ele>
        <time>2017-08-09T09:09:56Z</time>
      </trkpt>
      <trkpt lat="45.95771" lon="4.76386">
        <ele>186</ele>
        <time>2017-08-09T09:09:57Z</time>
      </trkpt>
      <trkpt lat="45.95771" lon="4.76393">
        <ele>186</ele>
        <time>2017-08-09T09:09:58Z</time>
      </trkpt>
      <trkpt lat="45.95772" lon="4.76405">
        <ele>186</ele>
        <time>2017-08-09T09:10:00Z</time>
      </trkpt>
      <trkpt lat="45.95772" lon="4.76412">
        <ele>186</ele>
        <time>2017-08-09T09:10:01Z</time>
      </trkpt>
      <trkpt lat="45.95773" lon="4.76418">
        <ele>186</ele>
        <time>2017-08-09T09:10:02Z</time>
      </trkpt>
      <trkpt lat="45.95774" lon="4.76425">
        <ele>186</ele>
        <time>2017-08-09T09:10:03Z</time>
      </trkpt>
      <trkpt lat="45.95774" lon="4.76432">
        <ele>186</ele>
        <time>2017-08-09T09:10:04Z</time>
      </trkpt>
      <trkpt lat="45.95775" lon="4.76439">
        <ele>186</ele>
        <time>2017-08-09T09:10:05Z</time>
      </trkpt>
      <trkpt lat="45.95776" lon="4.76446">
        <ele>186</ele>
        <time>2017-08-09T09:10:06Z</time>
      </trkpt>
      <trkpt lat="45.95778" lon="4.76454">
        <ele>186</ele>
        <time>2017-08-09T09:10:07Z</time>
      </trkpt>
      <trkpt lat="45.95779" lon="4.76462">
        <ele>186</ele>
        <time>2017-08-09T09:10:08Z</time>
      </trkpt>
      <trkpt lat="45.95781" lon="4.7647">
        <ele>186</ele>
        <time>2017-08-09T09:10:09Z</time>
      </trkpt>
      <trkpt lat="45.95782" lon="4.76478">
        <ele>186</ele>
        <time>2017-08-09T09:10:10Z</time>
      </trkpt>
      <trkpt lat="45.95783" lon="4.76486">
        <ele>186</ele>
        <time>2017-08-09T09:10:11Z</time>
      </trkpt>
      <trkpt lat="45.95784" lon="4.76493">
        <ele>186</ele>
        <time>2017-08-09T09:10:12Z</time>
      </trkpt>
      <trkpt lat="45.95784" lon="4.765">
        <ele>186</ele>
        <time>2017-08-09T09:10:13Z</time>
      </trkpt>
      <trkpt lat="45.95785" lon="4.76507">
        <ele>186</ele>
        <time>2017-08-09T09:10:14Z</time>
      </trkpt>
      <trkpt lat="45.95786" lon="4.76513">
        <ele>187</ele>
        <time>2017-08-09T09:10:15Z</time>
      </trkpt>
      <trkpt lat="45.95787" lon="4.7652">
        <ele>187</ele>
        <time>2017-08-09T09:10:16Z</time>
      </trkpt>
      <trkpt lat="45.95788" lon="4.76526">
        <ele>187</ele>
        <time>2017-08-09T09:10:17Z</time>
      </trkpt>
      <trkpt lat="45.95789" lon="4.76533">
        <ele>187</ele>
        <time>2017-08-09T09:10:18Z</time>
      </trkpt>
      <trkpt lat="45.9579" lon="4.7654">
        <ele>187</ele>
        <time>2017-08-09T09:10:19Z</time>
      </trkpt>
      <trkpt lat="45.95792" lon="4.76547">
        <ele>187</ele>
        <time>2017-08-09T09:10:20Z</time>
      </trkpt>
      <trkpt lat="45.95793" lon="4.76554">
        <ele>187</ele>
        <time>2017-08-09T09:10:21Z</time>
      </trkpt>
      <trkpt lat="45.95793" lon="4.76562">
        <ele>187</ele>
        <time>2017-08-09T09:10:22Z</time>
      </trkpt>
      <trkpt lat="45.95794" lon="4.7657">
        <ele>187</ele>
        <time>2017-08-09T09:10:23Z</time>
      </trkpt>
      <trkpt lat="45.95795" lon="4.76577">
        <ele>187</ele>
        <time>2017-08-09T09:10:24Z</time>
      </trkpt>
      <trkpt lat="45.95796" lon="4.76585">
        <ele>187</ele>
        <time>2017-08-09T09:10:25Z</time>
      </trkpt>
      <trkpt lat="45.95798" lon="4.76593">
        <ele>187</ele>
        <time>2017-08-09T09:10:26Z</time>
      </trkpt>
      <trkpt lat="45.95799" lon="4.76601">
        <ele>187</ele>
        <time>2017-08-09T09:10:27Z</time>
      </trkpt>
      <trkpt lat="45.958" lon="4.76609">
        <ele>187</ele>
        <time>2017-08-09T09:10:28Z</time>
      </trkpt>
      <trkpt lat="45.95801" lon="4.76617">
        <ele>188</ele>
        <time>2017-08-09T09:10:29Z</time>
      </trkpt>
      <trkpt lat="45.95802" lon="4.76625">
        <ele>188</ele>
        <time>2017-08-09T09:10:30Z</time>
      </trkpt>
      <trkpt lat="45.95803" lon="4.76633">
        <ele>188</ele>
        <time>2017-08-09T09:10:31Z</time>
      </trkpt>
      <trkpt lat="45.95804" lon="4.7664">
        <ele>188</ele>
        <time>2017-08-09T09:10:32Z</time>
      </trkpt>
      <trkpt lat="45.95805" lon="4.76647">
        <ele>188</ele>
        <time>2017-08-09T09:10:33Z</time>
      </trkpt>
      <trkpt lat="45.95806" lon="4.76654">
        <ele>188</ele>
        <time>2017-08-09T09:10:34Z</time>
      </trkpt>
      <trkpt lat="45.95807" lon="4.7666">
        <ele>188</ele>
        <time>2017-08-09T09:10:35Z</time>
      </trkpt>
      <trkpt lat="45.95808" lon="4.76667">
        <ele>188</ele>
        <time>2017-08-09T09:10:36Z</time>
      </trkpt>
      <trkpt lat="45.95809" lon="4.76674">
        <ele>189</ele>
        <time>2017-08-09T09:10:37Z</time>
      </trkpt>
      <trkpt lat="45.9581" lon="4.76682">
        <ele>189</ele>
        <time>2017-08-09T09:10:38Z</time>
      </trkpt>
      <trkpt lat="45.95811" lon="4.7669">
        <ele>189</ele>
        <time>2017-08-09T09:10:39Z</time>
      </trkpt>
      <trkpt lat="45.95812" lon="4.76697">
        <ele>189</ele>
        <time>2017-08-09T09:10:40Z</time>
      </trkpt>
      <trkpt lat="45.95813" lon="4.76705">
        <ele>189</ele>
        <time>2017-08-09T09:10:41Z</time>
      </trkpt>
      <trkpt lat="45.95814" lon="4.76714">
        <ele>189</ele>
        <time>2017-08-09T09:10:42Z</time>
      </trkpt>
      <trkpt lat="45.95815" lon="4.76721">
        <ele>189</ele>
        <time>2017-08-09T09:10:43Z</time>
      </trkpt>
      <trkpt lat="45.95816" lon="4.76729">
        <ele>190</ele>
        <time>2017-08-09T09:10:44Z</time>
      </trkpt>
      <trkpt lat="45.95817" lon="4.76736">
        <ele>190</ele>
        <time>2017-08-09T09:10:45Z</time>
      </trkpt>
      <trkpt lat="45.95818" lon="4.76743">
        <ele>190</ele>
        <time>2017-08-09T09:10:46Z</time>
      </trkpt>
      <trkpt lat="45.95819" lon="4.76749">
        <ele>190</ele>
        <time>2017-08-09T09:10:47Z</time>
      </trkpt>
      <trkpt lat="45.95821" lon="4.76762">
        <ele>190</ele>
        <time>2017-08-09T09:10:49Z</time>
      </trkpt>
      <trkpt lat="45.95822" lon="4.76768">
        <ele>190</ele>
        <time>2017-08-09T09:10:50Z</time>
      </trkpt>
      <trkpt lat="45.95823" lon="4.76775">
        <ele>190</ele>
        <time>2017-08-09T09:10:51Z</time>
      </trkpt>
      <trkpt lat="45.95824" lon="4.76782">
        <ele>190</ele>
        <time>2017-08-09T09:10:52Z</time>
      </trkpt>
      <trkpt lat="45.95826" lon="4.76789">
        <ele>190</ele>
        <time>2017-08-09T09:10:53Z</time>
      </trkpt>
      <trkpt lat="45.95826" lon="4.76797">
        <ele>190</ele>
        <time>2017-08-09T09:10:54Z</time>
      </trkpt>
      <trkpt lat="45.95826" lon="4.76805">
        <ele>190</ele>
        <time>2017-08-09T09:10:55Z</time>
      </trkpt>
      <trkpt lat="45.95826" lon="4.76813">
        <ele>190</ele>
        <time>2017-08-09T09:10:56Z</time>
      </trkpt>
      <trkpt lat="45.95824" lon="4.76822">
        <ele>190</ele>
        <time>2017-08-09T09:10:57Z</time>
      </trkpt>
      <trkpt lat="45.95823" lon="4.76829">
        <ele>190</ele>
        <time>2017-08-09T09:10:58Z</time>
      </trkpt>
      <trkpt lat="45.95822" lon="4.76837">
        <ele>190</ele>
        <time>2017-08-09T09:10:59Z</time>
      </trkpt>
      <trkpt lat="45.9582" lon="4.76845">
        <ele>190</ele>
        <time>2017-08-09T09:11:00Z</time>
      </trkpt>
      <trkpt lat="45.95819" lon="4.76852">
        <ele>189</ele>
        <time>2017-08-09T09:11:01Z</time>
      </trkpt>
      <trkpt lat="45.95818" lon="4.76859">
        <ele>189</ele>
        <time>2017-08-09T09:11:02Z</time>
      </trkpt>
      <trkpt lat="45.95817" lon="4.76866">
        <ele>189</ele>
        <time>2017-08-09T09:11:03Z</time>
      </trkpt>
      <trkpt lat="45.95815" lon="4.76872">
        <ele>189</ele>
        <time>2017-08-09T09:11:04Z</time>
      </trkpt>
      <trkpt lat="45.95814" lon="4.76879">
        <ele>189</ele>
        <time>2017-08-09T09:11:05Z</time>
      </trkpt>
      <trkpt lat="45.95813" lon="4.76887">
        <ele>189</ele>
        <time>2017-08-09T09:11:06Z</time>
      </trkpt>
      <trkpt lat="45.95812" lon="4.76894">
        <ele>189</ele>
        <time>2017-08-09T09:11:07Z</time>
      </trkpt>
      <trkpt lat="45.95811" lon="4.76901">
        <ele>189</ele>
        <time>2017-08-09T09:11:08Z</time>
      </trkpt>
      <trkpt lat="45.9581" lon="4.76909">
        <ele>189</ele>
        <time>2017-08-09T09:11:09Z</time>
      </trkpt>
      <trkpt lat="45.95808" lon="4.76917">
        <ele>189</ele>
        <time>2017-08-09T09:11:10Z</time>
      </trkpt>
      <trkpt lat="45.95807" lon="4.76925">
        <ele>189</ele>
        <time>2017-08-09T09:11:11Z</time>
      </trkpt>
      <trkpt lat="45.95805" lon="4.76932">
        <ele>189</ele>
        <time>2017-08-09T09:11:12Z</time>
      </trkpt>
      <trkpt lat="45.95804" lon="4.76939">
        <ele>189</ele>
        <time>2017-08-09T09:11:13Z</time>
      </trkpt>
      <trkpt lat="45.95803" lon="4.76947">
        <ele>189</ele>
        <time>2017-08-09T09:11:14Z</time>
      </trkpt>
      <trkpt lat="45.95802" lon="4.76953">
        <ele>189</ele>
        <time>2017-08-09T09:11:15Z</time>
      </trkpt>
      <trkpt lat="45.95802" lon="4.7696">
        <ele>189</ele>
        <time>2017-08-09T09:11:16Z</time>
      </trkpt>
      <trkpt lat="45.95801" lon="4.76967">
        <ele>189</ele>
        <time>2017-08-09T09:11:17Z</time>
      </trkpt>
      <trkpt lat="45.958" lon="4.76973">
        <ele>189</ele>
        <time>2017-08-09T09:11:18Z</time>
      </trkpt>
      <trkpt lat="45.95799" lon="4.76986">
        <ele>189</ele>
        <time>2017-08-09T09:11:20Z</time>
      </trkpt>
      <trkpt lat="45.95799" lon="4.76992">
        <ele>189</ele>
        <time>2017-08-09T09:11:21Z</time>
      </trkpt>
      <trkpt lat="45.95799" lon="4.77005">
        <ele>190</ele>
        <time>2017-08-09T09:11:23Z</time>
      </trkpt>
      <trkpt lat="45.958" lon="4.77011">
        <ele>190</ele>
        <time>2017-08-09T09:11:24Z</time>
      </trkpt>
      <trkpt lat="45.95802" lon="4.77017">
        <ele>190</ele>
        <time>2017-08-09T09:11:25Z</time>
      </trkpt>
      <trkpt lat="45.95804" lon="4.77024">
        <ele>190</ele>
        <time>2017-08-09T09:11:26Z</time>
      </trkpt>
      <trkpt lat="45.95807" lon="4.7703">
        <ele>190</ele>
        <time>2017-08-09T09:11:27Z</time>
      </trkpt>
      <trkpt lat="45.95809" lon="4.77037">
        <ele>190</ele>
        <time>2017-08-09T09:11:28Z</time>
      </trkpt>
      <trkpt lat="45.95812" lon="4.77043">
        <ele>190</ele>
        <time>2017-08-09T09:11:29Z</time>
      </trkpt>
      <trkpt lat="45.95815" lon="4.77051">
        <ele>190</ele>
        <time>2017-08-09T09:11:30Z</time>
      </trkpt>
      <trkpt lat="45.95819" lon="4.77058">
        <ele>190</ele>
        <time>2017-08-09T09:11:31Z</time>
      </trkpt>
      <trkpt lat="45.95822" lon="4.77066">
        <ele>191</ele>
        <time>2017-08-09T09:11:32Z</time>
      </trkpt>
      <trkpt lat="45.95825" lon="4.77073">
        <ele>191</ele>
        <time>2017-08-09T09:11:33Z</time>
      </trkpt>
      <trkpt lat="45.95828" lon="4.7708">
        <ele>191</ele>
        <time>2017-08-09T09:11:34Z</time>
      </trkpt>
      <trkpt lat="45.9583" lon="4.77087">
        <ele>191</ele>
        <time>2017-08-09T09:11:35Z</time>
      </trkpt>
      <trkpt lat="45.95832" lon="4.77093">
        <ele>191</ele>
        <time>2017-08-09T09:11:36Z</time>
      </trkpt>
      <trkpt lat="45.95834" lon="4.771">
        <ele>193</ele>
        <time>2017-08-09T09:11:37Z</time>
      </trkpt>
      <trkpt lat="45.95836" lon="4.77106">
        <ele>193</ele>
        <time>2017-08-09T09:11:38Z</time>
      </trkpt>
      <trkpt lat="45.95839" lon="4.77116">
        <ele>193</ele>
        <time>2017-08-09T09:11:40Z</time>
      </trkpt>
      <trkpt lat="45.9584" lon="4.77121">
        <ele>193</ele>
        <time>2017-08-09T09:11:41Z</time>
      </trkpt>
      <trkpt lat="45.95843" lon="4.77132">
        <ele>193</ele>
        <time>2017-08-09T09:11:43Z</time>
      </trkpt>
      <trkpt lat="45.95844" lon="4.77137">
        <ele>193</ele>
        <time>2017-08-09T09:11:44Z</time>
      </trkpt>
      <trkpt lat="45.95846" lon="4.77143">
        <ele>192</ele>
        <time>2017-08-09T09:11:45Z</time>
      </trkpt>
      <trkpt lat="45.95848" lon="4.77149">
        <ele>192</ele>
        <time>2017-08-09T09:11:46Z</time>
      </trkpt>
      <trkpt lat="45.9585" lon="4.77156">
        <ele>192</ele>
        <time>2017-08-09T09:11:47Z</time>
      </trkpt>
      <trkpt lat="45.95852" lon="4.77162">
        <ele>192</ele>
        <time>2017-08-09T09:11:48Z</time>
      </trkpt>
      <trkpt lat="45.95854" lon="4.77169">
        <ele>192</ele>
        <time>2017-08-09T09:11:49Z</time>
      </trkpt>
      <trkpt lat="45.95856" lon="4.77176">
        <ele>192</ele>
        <time>2017-08-09T09:11:50Z</time>
      </trkpt>
      <trkpt lat="45.95858" lon="4.77183">
        <ele>192</ele>
        <time>2017-08-09T09:11:51Z</time>
      </trkpt>
      <trkpt lat="45.95859" lon="4.77189">
        <ele>192</ele>
        <time>2017-08-09T09:11:52Z</time>
      </trkpt>
      <trkpt lat="45.9586" lon="4.77196">
        <ele>192</ele>
        <time>2017-08-09T09:11:53Z</time>
      </trkpt>
      <trkpt lat="45.95862" lon="4.77202">
        <ele>192</ele>
        <time>2017-08-09T09:11:54Z</time>
      </trkpt>
      <trkpt lat="45.95863" lon="4.77208">
        <ele>192</ele>
        <time>2017-08-09T09:11:55Z</time>
      </trkpt>
      <trkpt lat="45.95864" lon="4.77215">
        <ele>193</ele>
        <time>2017-08-09T09:11:56Z</time>
      </trkpt>
      <trkpt lat="45.95866" lon="4.77221">
        <ele>193</ele>
        <time>2017-08-09T09:11:57Z</time>
      </trkpt>
      <trkpt lat="45.95867" lon="4.77227">
        <ele>193</ele>
        <time>2017-08-09T09:11:58Z</time>
      </trkpt>
      <trkpt lat="45.95868" lon="4.77234">
        <ele>193</ele>
        <time>2017-08-09T09:11:59Z</time>
      </trkpt>
      <trkpt lat="45.95869" lon="4.77241">
        <ele>193</ele>
        <time>2017-08-09T09:12:00Z</time>
      </trkpt>
      <trkpt lat="45.9587" lon="4.77249">
        <ele>193</ele>
        <time>2017-08-09T09:12:01Z</time>
      </trkpt>
      <trkpt lat="45.95872" lon="4.77256">
        <ele>192</ele>
        <time>2017-08-09T09:12:02Z</time>
      </trkpt>
      <trkpt lat="45.95874" lon="4.77263">
        <ele>193</ele>
        <time>2017-08-09T09:12:03Z</time>
      </trkpt>
      <trkpt lat="45.95876" lon="4.7727">
        <ele>193</ele>
        <time>2017-08-09T09:12:04Z</time>
      </trkpt>
      <trkpt lat="45.95878" lon="4.77277">
        <ele>193</ele>
        <time>2017-08-09T09:12:05Z</time>
      </trkpt>
      <trkpt lat="45.95879" lon="4.77283">
        <ele>193</ele>
        <time>2017-08-09T09:12:06Z</time>
      </trkpt>
      <trkpt lat="45.95881" lon="4.77289">
        <ele>193</ele>
        <time>2017-08-09T09:12:07Z</time>
      </trkpt>
      <trkpt lat="45.95883" lon="4.77295">
        <ele>193</ele>
        <time>2017-08-09T09:12:08Z</time>
      </trkpt>
      <trkpt lat="45.95884" lon="4.77301">
        <ele>193</ele>
        <time>2017-08-09T09:12:09Z</time>
      </trkpt>
      <trkpt lat="45.95886" lon="4.77308">
        <ele>193</ele>
        <time>2017-08-09T09:12:10Z</time>
      </trkpt>
      <trkpt lat="45.95888" lon="4.77314">
        <ele>193</ele>
        <time>2017-08-09T09:12:11Z</time>
      </trkpt>
      <trkpt lat="45.9589" lon="4.7732">
        <ele>193</ele>
        <time>2017-08-09T09:12:12Z</time>
      </trkpt>
      <trkpt lat="45.95892" lon="4.77326">
        <ele>193</ele>
        <time>2017-08-09T09:12:13Z</time>
      </trkpt>
      <trkpt lat="45.95895" lon="4.77333">
        <ele>193</ele>
        <time>2017-08-09T09:12:14Z</time>
      </trkpt>
      <trkpt lat="45.95897" lon="4.77339">
        <ele>193</ele>
        <time>2017-08-09T09:12:15Z</time>
      </trkpt>
      <trkpt lat="45.95899" lon="4.77345">
        <ele>193</ele>
        <time>2017-08-09T09:12:16Z</time>
      </trkpt>
      <trkpt lat="45.95901" lon="4.77352">
        <ele>193</ele>
        <time>2017-08-09T09:12:17Z</time>
      </trkpt>
      <trkpt lat="45.95903" lon="4.77359">
        <ele>193</ele>
        <time>2017-08-09T09:12:18Z</time>
      </trkpt>
      <trkpt lat="45.95906" lon="4.77366">
        <ele>193</ele>
        <time>2017-08-09T09:12:19Z</time>
      </trkpt>
      <trkpt lat="45.95908" lon="4.77373">
        <ele>193</ele>
        <time>2017-08-09T09:12:20Z</time>
      </trkpt>
      <trkpt lat="45.9591" lon="4.7738">
        <ele>193</ele>
        <time>2017-08-09T09:12:21Z</time>
      </trkpt>
      <trkpt lat="45.95912" lon="4.77387">
        <ele>193</ele>
        <time>2017-08-09T09:12:22Z</time>
      </trkpt>
      <trkpt lat="45.95916" lon="4.77398">
        <ele>193</ele>
        <time>2017-08-09T09:12:24Z</time>
      </trkpt>
      <trkpt lat="45.95918" lon="4.77403">
        <ele>195</ele>
        <time>2017-08-09T09:12:25Z</time>
      </trkpt>
      <trkpt lat="45.9592" lon="4.77409">
        <ele>195</ele>
        <time>2017-08-09T09:12:26Z</time>
      </trkpt>
      <trkpt lat="45.95923" lon="4.77416">
        <ele>195</ele>
        <time>2017-08-09T09:12:27Z</time>
      </trkpt>
      <trkpt lat="45.95925" lon="4.77422">
        <ele>195</ele>
        <time>2017-08-09T09:12:28Z</time>
      </trkpt>
      <trkpt lat="45.95927" lon="4.77428">
        <ele>195</ele>
        <time>2017-08-09T09:12:29Z</time>
      </trkpt>
      <trkpt lat="45.95929" lon="4.77435">
        <ele>195</ele>
        <time>2017-08-09T09:12:30Z</time>
      </trkpt>
      <trkpt lat="45.95931" lon="4.77441">
        <ele>195</ele>
        <time>2017-08-09T09:12:31Z</time>
      </trkpt>
      <trkpt lat="45.95933" lon="4.77448">
        <ele>195</ele>
        <time>2017-08-09T09:12:32Z</time>
      </trkpt>
      <trkpt lat="45.95935" lon="4.77455">
        <ele>195</ele>
        <time>2017-08-09T09:12:33Z</time>
      </trkpt>
      <trkpt lat="45.95938" lon="4.77462">
        <ele>195</ele>
        <time>2017-08-09T09:12:34Z</time>
      </trkpt>
      <trkpt lat="45.95941" lon="4.77468">
        <ele>195</ele>
        <time>2017-08-09T09:12:35Z</time>
      </trkpt>
      <trkpt lat="45.95944" lon="4.77474">
        <ele>195</ele>
        <time>2017-08-09T09:12:36Z</time>
      </trkpt>
      <trkpt lat="45.95946" lon="4.7748">
        <ele>195</ele>
        <time>2017-08-09T09:12:37Z</time>
      </trkpt>
      <trkpt lat="45.9595" lon="4.7749">
        <ele>195</ele>
        <time>2017-08-09T09:12:39Z</time>
      </trkpt>
      <trkpt lat="45.95952" lon="4.77496">
        <ele>195</ele>
        <time>2017-08-09T09:12:40Z</time>
      </trkpt>
      <trkpt lat="45.95954" lon="4.77503">
        <ele>195</ele>
        <time>2017-08-09T09:12:41Z</time>
      </trkpt>
      <trkpt lat="45.95956" lon="4.77509">
        <ele>195</ele>
        <time>2017-08-09T09:12:42Z</time>
      </trkpt>
      <trkpt lat="45.95958" lon="4.77515">
        <ele>195</ele>
        <time>2017-08-09T09:12:43Z</time>
      </trkpt>
      <trkpt lat="45.95961" lon="4.77521">
        <ele>195</ele>
        <time>2017-08-09T09:12:44Z</time>
      </trkpt>
      <trkpt lat="45.95964" lon="4.77527">
        <ele>195</ele>
        <time>2017-08-09T09:12:45Z</time>
      </trkpt>
      <trkpt lat="45.95967" lon="4.77532">
        <ele>195</ele>
        <time>2017-08-09T09:12:46Z</time>
      </trkpt>
      <trkpt lat="45.95971" lon="4.7754">
        <ele>195</ele>
        <time>2017-08-09T09:12:48Z</time>
      </trkpt>
      <trkpt lat="45.95973" lon="4.77544">
        <ele>195</ele>
        <time>2017-08-09T09:12:49Z</time>
      </trkpt>
      <trkpt lat="45.95977" lon="4.77552">
        <ele>195</ele>
        <time>2017-08-09T09:12:51Z</time>
      </trkpt>
      <trkpt lat="45.95979" lon="4.77557">
        <ele>195</ele>
        <time>2017-08-09T09:12:52Z</time>
      </trkpt>
      <trkpt lat="45.95983" lon="4.77567">
        <ele>196</ele>
        <time>2017-08-09T09:12:54Z</time>
      </trkpt>
      <trkpt lat="45.95985" lon="4.77573">
        <ele>196</ele>
        <time>2017-08-09T09:12:55Z</time>
      </trkpt>
      <trkpt lat="45.95988" lon="4.77579">
        <ele>196</ele>
        <time>2017-08-09T09:12:56Z</time>
      </trkpt>
      <trkpt lat="45.95991" lon="4.77585">
        <ele>196</ele>
        <time>2017-08-09T09:12:57Z</time>
      </trkpt>
      <trkpt lat="45.95994" lon="4.7759">
        <ele>196</ele>
        <time>2017-08-09T09:12:58Z</time>
      </trkpt>
      <trkpt lat="45.95997" lon="4.77595">
        <ele>196</ele>
        <time>2017-08-09T09:12:59Z</time>
      </trkpt>
      <trkpt lat="45.96003" lon="4.77603">
        <ele>198</ele>
        <time>2017-08-09T09:13:01Z</time>
      </trkpt>
      <trkpt lat="45.96007" lon="4.77606">
        <ele>198</ele>
        <time>2017-08-09T09:13:02Z</time>
      </trkpt>
      <trkpt lat="45.96011" lon="4.7761">
        <ele>199</ele>
        <time>2017-08-09T09:13:03Z</time>
      </trkpt>
      <trkpt lat="45.96014" lon="4.77615">
        <ele>199</ele>
        <time>2017-08-09T09:13:04Z</time>
      </trkpt>
      <trkpt lat="45.96018" lon="4.7762">
        <ele>199</ele>
        <time>2017-08-09T09:13:05Z</time>
      </trkpt>
      <trkpt lat="45.96022" lon="4.77624">
        <ele>199</ele>
        <time>2017-08-09T09:13:06Z</time>
      </trkpt>
      <trkpt lat="45.96029" lon="4.77632">
        <ele>199</ele>
        <time>2017-08-09T09:13:08Z</time>
      </trkpt>
      <trkpt lat="45.96032" lon="4.77636">
        <ele>199</ele>
        <time>2017-08-09T09:13:09Z</time>
      </trkpt>
      <trkpt lat="45.96038" lon="4.77643">
        <ele>199</ele>
        <time>2017-08-09T09:13:11Z</time>
      </trkpt>
      <trkpt lat="45.96041" lon="4.77647">
        <ele>199</ele>
        <time>2017-08-09T09:13:12Z</time>
      </trkpt>
      <trkpt lat="45.96047" lon="4.77655">
        <ele>199</ele>
        <time>2017-08-09T09:13:14Z</time>
      </trkpt>
      <trkpt lat="45.9605" lon="4.7766">
        <ele>200</ele>
        <time>2017-08-09T09:13:15Z</time>
      </trkpt>
      <trkpt lat="45.96053" lon="4.77665">
        <ele>200</ele>
        <time>2017-08-09T09:13:16Z</time>
      </trkpt>
      <trkpt lat="45.96056" lon="4.77669">
        <ele>197</ele>
        <time>2017-08-09T09:13:17Z</time>
      </trkpt>
      <trkpt lat="45.9606" lon="4.77674">
        <ele>198</ele>
        <time>2017-08-09T09:13:18Z</time>
      </trkpt>
      <trkpt lat="45.96064" lon="4.77679">
        <ele>198</ele>
        <time>2017-08-09T09:13:19Z</time>
      </trkpt>
      <trkpt lat="45.96067" lon="4.77683">
        <ele>198</ele>
        <time>2017-08-09T09:13:20Z</time>
      </trkpt>
      <trkpt lat="45.96071" lon="4.77688">
        <ele>198</ele>
        <time>2017-08-09T09:13:21Z</time>
      </trkpt>
      <trkpt lat="45.96077" lon="4.77698">
        <ele>197</ele>
        <time>2017-08-09T09:13:23Z</time>
      </trkpt>
      <trkpt lat="45.96079" lon="4.77703">
        <ele>197</ele>
        <time>2017-08-09T09:13:24Z</time>
      </trkpt>
      <trkpt lat="45.96085" lon="4.77713">
        <ele>199</ele>
        <time>2017-08-09T09:13:26Z</time>
      </trkpt>
      <trkpt lat="45.96088" lon="4.77718">
        <ele>199</ele>
        <time>2017-08-09T09:13:27Z</time>
      </trkpt>
      <trkpt lat="45.96091" lon="4.77723">
        <ele>199</ele>
        <time>2017-08-09T09:13:28Z</time>
      </trkpt>
      <trkpt lat="45.96094" lon="4.77728">
        <ele>199</ele>
        <time>2017-08-09T09:13:29Z</time>
      </trkpt>
      <trkpt lat="45.96097" lon="4.77733">
        <ele>198</ele>
        <time>2017-08-09T09:13:30Z</time>
      </trkpt>
      <trkpt lat="45.961" lon="4.77739">
        <ele>198</ele>
        <time>2017-08-09T09:13:31Z</time>
      </trkpt>
      <trkpt lat="45.96104" lon="4.77744">
        <ele>198</ele>
        <time>2017-08-09T09:13:32Z</time>
      </trkpt>
      <trkpt lat="45.96107" lon="4.7775">
        <ele>199</ele>
        <time>2017-08-09T09:13:33Z</time>
      </trkpt>
      <trkpt lat="45.96112" lon="4.77758">
        <ele>197</ele>
        <time>2017-08-09T09:13:35Z</time>
      </trkpt>
      <trkpt lat="45.96115" lon="4.77762">
        <ele>197</ele>
        <time>2017-08-09T09:13:36Z</time>
      </trkpt>
      <trkpt lat="45.9612" lon="4.77772">
        <ele>197</ele>
        <time>2017-08-09T09:13:38Z</time>
      </trkpt>
      <trkpt lat="45.96123" lon="4.77776">
        <ele>197</ele>
        <time>2017-08-09T09:13:39Z</time>
      </trkpt>
      <trkpt lat="45.96126" lon="4.77781">
        <ele>197</ele>
        <time>2017-08-09T09:13:40Z</time>
      </trkpt>
      <trkpt lat="45.96129" lon="4.77787">
        <ele>197</ele>
        <time>2017-08-09T09:13:41Z</time>
      </trkpt>
      <trkpt lat="45.96135" lon="4.77796">
        <ele>198</ele>
        <time>2017-08-09T09:13:43Z</time>
      </trkpt>
      <trkpt lat="45.96137" lon="4.77801">
        <ele>198</ele>
        <time>2017-08-09T09:13:44Z</time>
      </trkpt>
      <trkpt lat="45.96141" lon="4.77807">
        <ele>198</ele>
        <time>2017-08-09T09:13:45Z</time>
      </trkpt>
      <trkpt lat="45.96145" lon="4.77812">
        <ele>198</ele>
        <time>2017-08-09T09:13:46Z</time>
      </trkpt>
      <trkpt lat="45.96148" lon="4.77818">
        <ele>198</ele>
        <time>2017-08-09T09:13:47Z</time>
      </trkpt>
      <trkpt lat="45.96151" lon="4.77823">
        <ele>198</ele>
        <time>2017-08-09T09:13:48Z</time>
      </trkpt>
      <trkpt lat="45.96154" lon="4.77829">
        <ele>198</ele>
        <time>2017-08-09T09:13:49Z</time>
      </trkpt>
      <trkpt lat="45.96157" lon="4.77835">
        <ele>197</ele>
        <time>2017-08-09T09:13:50Z</time>
      </trkpt>
      <trkpt lat="45.9616" lon="4.77841">
        <ele>197</ele>
        <time>2017-08-09T09:13:51Z</time>
      </trkpt>
      <trkpt lat="45.96164" lon="4.77846">
        <ele>197</ele>
        <time>2017-08-09T09:13:52Z</time>
      </trkpt>
      <trkpt lat="45.96168" lon="4.77852">
        <ele>201</ele>
        <time>2017-08-09T09:13:53Z</time>
      </trkpt>
      <trkpt lat="45.96171" lon="4.77857">
        <ele>201</ele>
        <time>2017-08-09T09:13:54Z</time>
      </trkpt>
      <trkpt lat="45.96174" lon="4.77863">
        <ele>201</ele>
        <time>2017-08-09T09:13:55Z</time>
      </trkpt>
      <trkpt lat="45.96177" lon="4.77868">
        <ele>201</ele>
        <time>2017-08-09T09:13:56Z</time>
      </trkpt>
      <trkpt lat="45.9618" lon="4.77873">
        <ele>201</ele>
        <time>2017-08-09T09:13:57Z</time>
      </trkpt>
      <trkpt lat="45.96183" lon="4.77879">
        <ele>201</ele>
        <time>2017-08-09T09:13:58Z</time>
      </trkpt>
      <trkpt lat="45.96186" lon="4.77884">
        <ele>201</ele>
        <time>2017-08-09T09:13:59Z</time>
      </trkpt>
      <trkpt lat="45.9619" lon="4.7789">
        <ele>201</ele>
        <time>2017-08-09T09:14:00Z</time>
      </trkpt>
      <trkpt lat="45.96193" lon="4.77895">
        <ele>201</ele>
        <time>2017-08-09T09:14:01Z</time>
      </trkpt>
      <trkpt lat="45.96196" lon="4.77901">
        <ele>201</ele>
        <time>2017-08-09T09:14:02Z</time>
      </trkpt>
      <trkpt lat="45.96199" lon="4.77906">
        <ele>201</ele>
        <time>2017-08-09T09:14:03Z</time>
      </trkpt>
      <trkpt lat="45.96203" lon="4.77912">
        <ele>202</ele>
        <time>2017-08-09T09:14:04Z</time>
      </trkpt>
      <trkpt lat="45.96206" lon="4.77917">
        <ele>199</ele>
        <time>2017-08-09T09:14:05Z</time>
      </trkpt>
      <trkpt lat="45.96209" lon="4.77922">
        <ele>199</ele>
        <time>2017-08-09T09:14:06Z</time>
      </trkpt>
      <trkpt lat="45.96212" lon="4.77927">
        <ele>199</ele>
        <time>2017-08-09T09:14:07Z</time>
      </trkpt>
      <trkpt lat="45.96215" lon="4.77932">
        <ele>199</ele>
        <time>2017-08-09T09:14:08Z</time>
      </trkpt>
      <trkpt lat="45.96218" lon="4.77937">
        <ele>199</ele>
        <time>2017-08-09T09:14:09Z</time>
      </trkpt>
      <trkpt lat="45.96222" lon="4.77941">
        <ele>200</ele>
        <time>2017-08-09T09:14:10Z</time>
      </trkpt>
      <trkpt lat="45.96226" lon="4.77946">
        <ele>200</ele>
        <time>2017-08-09T09:14:11Z</time>
      </trkpt>
      <trkpt lat="45.96231" lon="4.7795">
        <ele>199</ele>
        <time>2017-08-09T09:14:12Z</time>
      </trkpt>
      <trkpt lat="45.96235" lon="4.77955">
        <ele>199</ele>
        <time>2017-08-09T09:14:13Z</time>
      </trkpt>
      <trkpt lat="45.96239" lon="4.7796">
        <ele>199</ele>
        <time>2017-08-09T09:14:14Z</time>
      </trkpt>
      <trkpt lat="45.96244" lon="4.77965">
        <ele>199</ele>
        <time>2017-08-09T09:14:15Z</time>
      </trkpt>
      <trkpt lat="45.96248" lon="4.77969">
        <ele>198</ele>
        <time>2017-08-09T09:14:16Z</time>
      </trkpt>
      <trkpt lat="45.96252" lon="4.77974">
        <ele>203</ele>
        <time>2017-08-09T09:14:17Z</time>
      </trkpt>
      <trkpt lat="45.96255" lon="4.77978">
        <ele>202</ele>
        <time>2017-08-09T09:14:18Z</time>
      </trkpt>
      <trkpt lat="45.96263" lon="4.77985">
        <ele>202</ele>
        <time>2017-08-09T09:14:20Z</time>
      </trkpt>
      <trkpt lat="45.96266" lon="4.77989">
        <ele>202</ele>
        <time>2017-08-09T09:14:21Z</time>
      </trkpt>
      <trkpt lat="45.96269" lon="4.77992">
        <ele>202</ele>
        <time>2017-08-09T09:14:22Z</time>
      </trkpt>
      <trkpt lat="45.96273" lon="4.77996">
        <ele>202</ele>
        <time>2017-08-09T09:14:23Z</time>
      </trkpt>
      <trkpt lat="45.96279" lon="4.78">
        <ele>203</ele>
        <time>2017-08-09T09:14:24Z</time>
      </trkpt>
      <trkpt lat="45.96283" lon="4.78004">
        <ele>198</ele>
        <time>2017-08-09T09:14:25Z</time>
      </trkpt>
      <trkpt lat="45.96287" lon="4.78008">
        <ele>199</ele>
        <time>2017-08-09T09:14:26Z</time>
      </trkpt>
      <trkpt lat="45.96291" lon="4.78012">
        <ele>199</ele>
        <time>2017-08-09T09:14:27Z</time>
      </trkpt>
      <trkpt lat="45.96298" lon="4.7802">
        <ele>199</ele>
        <time>2017-08-09T09:14:29Z</time>
      </trkpt>
      <trkpt lat="45.96303" lon="4.78023">
        <ele>199</ele>
        <time>2017-08-09T09:14:30Z</time>
      </trkpt>
      <trkpt lat="45.96306" lon="4.78027">
        <ele>199</ele>
        <time>2017-08-09T09:14:31Z</time>
      </trkpt>
      <trkpt lat="45.9631" lon="4.78031">
        <ele>199</ele>
        <time>2017-08-09T09:14:32Z</time>
      </trkpt>
      <trkpt lat="45.96314" lon="4.78036">
        <ele>199</ele>
        <time>2017-08-09T09:14:33Z</time>
      </trkpt>
      <trkpt lat="45.96319" lon="4.78042">
        <ele>199</ele>
        <time>2017-08-09T09:14:34Z</time>
      </trkpt>
      <trkpt lat="45.96323" lon="4.78047">
        <ele>199</ele>
        <time>2017-08-09T09:14:35Z</time>
      </trkpt>
      <trkpt lat="45.96328" lon="4.78052">
        <ele>199</ele>
        <time>2017-08-09T09:14:36Z</time>
      </trkpt>
      <trkpt lat="45.96333" lon="4.78058">
        <ele>199</ele>
        <time>2017-08-09T09:14:37Z</time>
      </trkpt>
      <trkpt lat="45.96338" lon="4.78063">
        <ele>201</ele>
        <time>2017-08-09T09:14:38Z</time>
      </trkpt>
      <trkpt lat="45.96342" lon="4.78069">
        <ele>201</ele>
        <time>2017-08-09T09:14:39Z</time>
      </trkpt>
      <trkpt lat="45.96346" lon="4.78074">
        <ele>201</ele>
        <time>2017-08-09T09:14:40Z</time>
      </trkpt>
      <trkpt lat="45.9635" lon="4.78078">
        <ele>201</ele>
        <time>2017-08-09T09:14:41Z</time>
      </trkpt>
      <trkpt lat="45.96354" lon="4.78083">
        <ele>201</ele>
        <time>2017-08-09T09:14:42Z</time>
      </trkpt>
      <trkpt lat="45.96359" lon="4.78087">
        <ele>199</ele>
        <time>2017-08-09T09:14:43Z</time>
      </trkpt>
      <trkpt lat="45.96363" lon="4.78091">
        <ele>199</ele>
        <time>2017-08-09T09:14:44Z</time>
      </trkpt>
      <trkpt lat="45.96367" lon="4.78095">
        <ele>199</ele>
        <time>2017-08-09T09:14:45Z</time>
      </trkpt>
      <trkpt lat="45.96371" lon="4.78099">
        <ele>199</ele>
        <time>2017-08-09T09:14:46Z</time>
      </trkpt>
      <trkpt lat="45.96376" lon="4.78102">
        <ele>200</ele>
        <time>2017-08-09T09:14:47Z</time>
      </trkpt>
      <trkpt lat="45.9638" lon="4.78105">
        <ele>200</ele>
        <time>2017-08-09T09:14:48Z</time>
      </trkpt>
      <trkpt lat="45.96386" lon="4.78111">
        <ele>200</ele>
        <time>2017-08-09T09:14:49Z</time>
      </trkpt>
      <trkpt lat="45.9639" lon="4.78116">
        <ele>200</ele>
        <time>2017-08-09T09:14:50Z</time>
      </trkpt>
      <trkpt lat="45.96395" lon="4.78121">
        <ele>200</ele>
        <time>2017-08-09T09:14:51Z</time>
      </trkpt>
      <trkpt lat="45.964" lon="4.78124">
        <ele>200</ele>
        <time>2017-08-09T09:14:52Z</time>
      </trkpt>
      <trkpt lat="45.96404" lon="4.78128">
        <ele>199</ele>
        <time>2017-08-09T09:14:53Z</time>
      </trkpt>
      <trkpt lat="45.96409" lon="4.78132">
        <ele>199</ele>
        <time>2017-08-09T09:14:54Z</time>
      </trkpt>
      <trkpt lat="45.96413" lon="4.78136">
        <ele>199</ele>
        <time>2017-08-09T09:14:55Z</time>
      </trkpt>
      <trkpt lat="45.96418" lon="4.7814">
        <ele>203</ele>
        <time>2017-08-09T09:14:56Z</time>
      </trkpt>
      <trkpt lat="45.96422" lon="4.78145">
        <ele>202</ele>
        <time>2017-08-09T09:14:57Z</time>
      </trkpt>
      <trkpt lat="45.96426" lon="4.78149">
        <ele>202</ele>
        <time>2017-08-09T09:14:58Z</time>
      </trkpt>
      <trkpt lat="45.9643" lon="4.78154">
        <ele>202</ele>
        <time>2017-08-09T09:14:59Z</time>
      </trkpt>
      <trkpt lat="45.96434" lon="4.78158">
        <ele>202</ele>
        <time>2017-08-09T09:15:00Z</time>
      </trkpt>
      <trkpt lat="45.96438" lon="4.78162">
        <ele>202</ele>
        <time>2017-08-09T09:15:01Z</time>
      </trkpt>
      <trkpt lat="45.96442" lon="4.78165">
        <ele>203</ele>
        <time>2017-08-09T09:15:02Z</time>
      </trkpt>
      <trkpt lat="45.96446" lon="4.78169">
        <ele>199</ele>
        <time>2017-08-09T09:15:03Z</time>
      </trkpt>
      <trkpt lat="45.9645" lon="4.78173">
        <ele>199</ele>
        <time>2017-08-09T09:15:04Z</time>
      </trkpt>
      <trkpt lat="45.96454" lon="4.78177">
        <ele>200</ele>
        <time>2017-08-09T09:15:05Z</time>
      </trkpt>
      <trkpt lat="45.96458" lon="4.78181">
        <ele>200</ele>
        <time>2017-08-09T09:15:06Z</time>
      </trkpt>
      <trkpt lat="45.96463" lon="4.78184">
        <ele>200</ele>
        <time>2017-08-09T09:15:07Z</time>
      </trkpt>
      <trkpt lat="45.96468" lon="4.78187">
        <ele>200</ele>
        <time>2017-08-09T09:15:08Z</time>
      </trkpt>
      <trkpt lat="45.96473" lon="4.78189">
        <ele>200</ele>
        <time>2017-08-09T09:15:09Z</time>
      </trkpt>
      <trkpt lat="45.96478" lon="4.78192">
        <ele>200</ele>
        <time>2017-08-09T09:15:10Z</time>
      </trkpt>
      <trkpt lat="45.96484" lon="4.78195">
        <ele>200</ele>
        <time>2017-08-09T09:15:11Z</time>
      </trkpt>
      <trkpt lat="45.96489" lon="4.78198">
        <ele>200</ele>
        <time>2017-08-09T09:15:12Z</time>
      </trkpt>
      <trkpt lat="45.96493" lon="4.78201">
        <ele>200</ele>
        <time>2017-08-09T09:15:13Z</time>
      </trkpt>
      <trkpt lat="45.96497" lon="4.78205">
        <ele>200</ele>
        <time>2017-08-09T09:15:14Z</time>
      </trkpt>
      <trkpt lat="45.96504" lon="4.78213">
        <ele>205</ele>
        <time>2017-08-09T09:15:16Z</time>
      </trkpt>
      <trkpt lat="45.96507" lon="4.78217">
        <ele>204</ele>
        <time>2017-08-09T09:15:17Z</time>
      </trkpt>
      <trkpt lat="45.96513" lon="4.78226">
        <ele>204</ele>
        <time>2017-08-09T09:15:19Z</time>
      </trkpt>
      <trkpt lat="45.96516" lon="4.78231">
        <ele>203</ele>
        <time>2017-08-09T09:15:20Z</time>
      </trkpt>
      <trkpt lat="45.96519" lon="4.78237">
        <ele>203</ele>
        <time>2017-08-09T09:15:21Z</time>
      </trkpt>
      <trkpt lat="45.96523" lon="4.78243">
        <ele>203</ele>
        <time>2017-08-09T09:15:22Z</time>
      </trkpt>
      <trkpt lat="45.96526" lon="4.78248">
        <ele>203</ele>
        <time>2017-08-09T09:15:23Z</time>
      </trkpt>
      <trkpt lat="45.96529" lon="4.78254">
        <ele>200</ele>
        <time>2017-08-09T09:15:24Z</time>
      </trkpt>
      <trkpt lat="45.96533" lon="4.78259">
        <ele>200</ele>
        <time>2017-08-09T09:15:25Z</time>
      </trkpt>
      <trkpt lat="45.96536" lon="4.78264">
        <ele>200</ele>
        <time>2017-08-09T09:15:26Z</time>
      </trkpt>
      <trkpt lat="45.9654" lon="4.78269">
        <ele>200</ele>
        <time>2017-08-09T09:15:27Z</time>
      </trkpt>
      <trkpt lat="45.96544" lon="4.78275">
        <ele>200</ele>
        <time>2017-08-09T09:15:28Z</time>
      </trkpt>
      <trkpt lat="45.96547" lon="4.78279">
        <ele>200</ele>
        <time>2017-08-09T09:15:29Z</time>
      </trkpt>
      <trkpt lat="45.9655" lon="4.78284">
        <ele>200</ele>
        <time>2017-08-09T09:15:30Z</time>
      </trkpt>
      <trkpt lat="45.96554" lon="4.78288">
        <ele>200</ele>
        <time>2017-08-09T09:15:31Z</time>
      </trkpt>
      <trkpt lat="45.96557" lon="4.78293">
        <ele>200</ele>
        <time>2017-08-09T09:15:32Z</time>
      </trkpt>
      <trkpt lat="45.96561" lon="4.78297">
        <ele>200</ele>
        <time>2017-08-09T09:15:33Z</time>
      </trkpt>
      <trkpt lat="45.96565" lon="4.78302">
        <ele>200</ele>
        <time>2017-08-09T09:15:34Z</time>
      </trkpt>
      <trkpt lat="45.9657" lon="4.78307">
        <ele>200</ele>
        <time>2017-08-09T09:15:35Z</time>
      </trkpt>
      <trkpt lat="45.96574" lon="4.78312">
        <ele>199</ele>
        <time>2017-08-09T09:15:36Z</time>
      </trkpt>
      <trkpt lat="45.96579" lon="4.78317">
        <ele>199</ele>
        <time>2017-08-09T09:15:37Z</time>
      </trkpt>
      <trkpt lat="45.96583" lon="4.78322">
        <ele>199</ele>
        <time>2017-08-09T09:15:38Z</time>
      </trkpt>
      <trkpt lat="45.96587" lon="4.78326">
        <ele>201</ele>
        <time>2017-08-09T09:15:39Z</time>
      </trkpt>
      <trkpt lat="45.9659" lon="4.7833">
        <ele>200</ele>
        <time>2017-08-09T09:15:40Z</time>
      </trkpt>
      <trkpt lat="45.96594" lon="4.78333">
        <ele>201</ele>
        <time>2017-08-09T09:15:41Z</time>
      </trkpt>
      <trkpt lat="45.96598" lon="4.78337">
        <ele>199</ele>
        <time>2017-08-09T09:15:42Z</time>
      </trkpt>
      <trkpt lat="45.96602" lon="4.7834">
        <ele>200</ele>
        <time>2017-08-09T09:15:43Z</time>
      </trkpt>
      <trkpt lat="45.96606" lon="4.78344">
        <ele>200</ele>
        <time>2017-08-09T09:15:44Z</time>
      </trkpt>
      <trkpt lat="45.96614" lon="4.78351">
        <ele>200</ele>
        <time>2017-08-09T09:15:46Z</time>
      </trkpt>
      <trkpt lat="45.96617" lon="4.78354">
        <ele>201</ele>
        <time>2017-08-09T09:15:47Z</time>
      </trkpt>
      <trkpt lat="45.96621" lon="4.78359">
        <ele>201</ele>
        <time>2017-08-09T09:15:48Z</time>
      </trkpt>
      <trkpt lat="45.96625" lon="4.78363">
        <ele>201</ele>
        <time>2017-08-09T09:15:49Z</time>
      </trkpt>
      <trkpt lat="45.9663" lon="4.78367">
        <ele>201</ele>
        <time>2017-08-09T09:15:50Z</time>
      </trkpt>
      <trkpt lat="45.96635" lon="4.78371">
        <ele>201</ele>
        <time>2017-08-09T09:15:51Z</time>
      </trkpt>
      <trkpt lat="45.9664" lon="4.78376">
        <ele>201</ele>
        <time>2017-08-09T09:15:52Z</time>
      </trkpt>
      <trkpt lat="45.96645" lon="4.7838">
        <ele>201</ele>
        <time>2017-08-09T09:15:53Z</time>
      </trkpt>
      <trkpt lat="45.96649" lon="4.78383">
        <ele>201</ele>
        <time>2017-08-09T09:15:54Z</time>
      </trkpt>
      <trkpt lat="45.96653" lon="4.78386">
        <ele>201</ele>
        <time>2017-08-09T09:15:55Z</time>
      </trkpt>
      <trkpt lat="45.9666" lon="4.78394">
        <ele>201</ele>
        <time>2017-08-09T09:15:57Z</time>
      </trkpt>
      <trkpt lat="45.96664" lon="4.78398">
        <ele>201</ele>
        <time>2017-08-09T09:15:58Z</time>
      </trkpt>
      <trkpt lat="45.96669" lon="4.78402">
        <ele>203</ele>
        <time>2017-08-09T09:15:59Z</time>
      </trkpt>
      <trkpt lat="45.96673" lon="4.78406">
        <ele>203</ele>
        <time>2017-08-09T09:16:00Z</time>
      </trkpt>
      <trkpt lat="45.96677" lon="4.7841">
        <ele>203</ele>
        <time>2017-08-09T09:16:01Z</time>
      </trkpt>
      <trkpt lat="45.96681" lon="4.78413">
        <ele>203</ele>
        <time>2017-08-09T09:16:02Z</time>
      </trkpt>
      <trkpt lat="45.96688" lon="4.7842">
        <ele>202</ele>
        <time>2017-08-09T09:16:04Z</time>
      </trkpt>
      <trkpt lat="45.96691" lon="4.78423">
        <ele>202</ele>
        <time>2017-08-09T09:16:05Z</time>
      </trkpt>
      <trkpt lat="45.96696" lon="4.78429">
        <ele>203</ele>
        <time>2017-08-09T09:16:07Z</time>
      </trkpt>
      <trkpt lat="45.96699" lon="4.78432">
        <ele>203</ele>
        <time>2017-08-09T09:16:08Z</time>
      </trkpt>
      <trkpt lat="45.96705" lon="4.7844">
        <ele>203</ele>
        <time>2017-08-09T09:16:10Z</time>
      </trkpt>
      <trkpt lat="45.96708" lon="4.78443">
        <ele>203</ele>
        <time>2017-08-09T09:16:11Z</time>
      </trkpt>
      <trkpt lat="45.96711" lon="4.78447">
        <ele>203</ele>
        <time>2017-08-09T09:16:12Z</time>
      </trkpt>
      <trkpt lat="45.96715" lon="4.78451">
        <ele>203</ele>
        <time>2017-08-09T09:16:13Z</time>
      </trkpt>
      <trkpt lat="45.96718" lon="4.78456">
        <ele>203</ele>
        <time>2017-08-09T09:16:14Z</time>
      </trkpt>
      <trkpt lat="45.96723" lon="4.78459">
        <ele>203</ele>
        <time>2017-08-09T09:16:15Z</time>
      </trkpt>
      <trkpt lat="45.96728" lon="4.78463">
        <ele>203</ele>
        <time>2017-08-09T09:16:16Z</time>
      </trkpt>
      <trkpt lat="45.96732" lon="4.78466">
        <ele>203</ele>
        <time>2017-08-09T09:16:17Z</time>
      </trkpt>
      <trkpt lat="45.96735" lon="4.7847">
        <ele>203</ele>
        <time>2017-08-09T09:16:18Z</time>
      </trkpt>
      <trkpt lat="45.96739" lon="4.78474">
        <ele>203</ele>
        <time>2017-08-09T09:16:19Z</time>
      </trkpt>
      <trkpt lat="45.96743" lon="4.78478">
        <ele>203</ele>
        <time>2017-08-09T09:16:20Z</time>
      </trkpt>
      <trkpt lat="45.96748" lon="4.78482">
        <ele>203</ele>
        <time>2017-08-09T09:16:21Z</time>
      </trkpt>
      <trkpt lat="45.96752" lon="4.78486">
        <ele>204</ele>
        <time>2017-08-09T09:16:22Z</time>
      </trkpt>
      <trkpt lat="45.96756" lon="4.7849">
        <ele>204</ele>
        <time>2017-08-09T09:16:23Z</time>
      </trkpt>
      <trkpt lat="45.9676" lon="4.78495">
        <ele>204</ele>
        <time>2017-08-09T09:16:24Z</time>
      </trkpt>
      <trkpt lat="45.96763" lon="4.785">
        <ele>204</ele>
        <time>2017-08-09T09:16:25Z</time>
      </trkpt>
      <trkpt lat="45.96767" lon="4.78505">
        <ele>203</ele>
        <time>2017-08-09T09:16:26Z</time>
      </trkpt>
      <trkpt lat="45.9677" lon="4.7851">
        <ele>203</ele>
        <time>2017-08-09T09:16:27Z</time>
      </trkpt>
      <trkpt lat="45.96774" lon="4.78515">
        <ele>203</ele>
        <time>2017-08-09T09:16:28Z</time>
      </trkpt>
      <trkpt lat="45.96778" lon="4.7852">
        <ele>203</ele>
        <time>2017-08-09T09:16:29Z</time>
      </trkpt>
      <trkpt lat="45.96782" lon="4.78526">
        <ele>203</ele>
        <time>2017-08-09T09:16:30Z</time>
      </trkpt>
      <trkpt lat="45.96785" lon="4.7853">
        <ele>203</ele>
        <time>2017-08-09T09:16:31Z</time>
      </trkpt>
      <trkpt lat="45.96791" lon="4.78539">
        <ele>203</ele>
        <time>2017-08-09T09:16:33Z</time>
      </trkpt>
      <trkpt lat="45.96794" lon="4.78544">
        <ele>203</ele>
        <time>2017-08-09T09:16:34Z</time>
      </trkpt>
      <trkpt lat="45.96797" lon="4.78549">
        <ele>203</ele>
        <time>2017-08-09T09:16:35Z</time>
      </trkpt>
      <trkpt lat="45.96801" lon="4.78555">
        <ele>203</ele>
        <time>2017-08-09T09:16:36Z</time>
      </trkpt>
      <trkpt lat="45.96804" lon="4.7856">
        <ele>203</ele>
        <time>2017-08-09T09:16:37Z</time>
      </trkpt>
      <trkpt lat="45.96808" lon="4.78566">
        <ele>203</ele>
        <time>2017-08-09T09:16:38Z</time>
      </trkpt>
      <trkpt lat="45.96811" lon="4.78571">
        <ele>203</ele>
        <time>2017-08-09T09:16:39Z</time>
      </trkpt>
      <trkpt lat="45.96814" lon="4.78576">
        <ele>203</ele>
        <time>2017-08-09T09:16:40Z</time>
      </trkpt>
      <trkpt lat="45.9682" lon="4.78585">
        <ele>202</ele>
        <time>2017-08-09T09:16:42Z</time>
      </trkpt>
      <trkpt lat="45.96822" lon="4.78591">
        <ele>202</ele>
        <time>2017-08-09T09:16:43Z</time>
      </trkpt>
      <trkpt lat="45.96823" lon="4.78597">
        <ele>202</ele>
        <time>2017-08-09T09:16:44Z</time>
      </trkpt>
      <trkpt lat="45.96825" lon="4.78604">
        <ele>202</ele>
        <time>2017-08-09T09:16:45Z</time>
      </trkpt>
      <trkpt lat="45.96828" lon="4.7861">
        <ele>202</ele>
        <time>2017-08-09T09:16:46Z</time>
      </trkpt>
      <trkpt lat="45.9683" lon="4.78616">
        <ele>202</ele>
        <time>2017-08-09T09:16:47Z</time>
      </trkpt>
      <trkpt lat="45.96832" lon="4.78623">
        <ele>201</ele>
        <time>2017-08-09T09:16:48Z</time>
      </trkpt>
      <trkpt lat="45.96834" lon="4.78628">
        <ele>203</ele>
        <time>2017-08-09T09:16:49Z</time>
      </trkpt>
      <trkpt lat="45.96837" lon="4.78634">
        <ele>203</ele>
        <time>2017-08-09T09:16:50Z</time>
      </trkpt>
      <trkpt lat="45.96839" lon="4.7864">
        <ele>203</ele>
        <time>2017-08-09T09:16:51Z</time>
      </trkpt>
      <trkpt lat="45.96843" lon="4.7865">
        <ele>203</ele>
        <time>2017-08-09T09:16:53Z</time>
      </trkpt>
      <trkpt lat="45.96845" lon="4.78654">
        <ele>202</ele>
        <time>2017-08-09T09:16:54Z</time>
      </trkpt>
      <trkpt lat="45.96851" lon="4.78665">
        <ele>202</ele>
        <time>2017-08-09T09:16:56Z</time>
      </trkpt>
      <trkpt lat="45.96853" lon="4.7867">
        <ele>202</ele>
        <time>2017-08-09T09:16:57Z</time>
      </trkpt>
      <trkpt lat="45.96856" lon="4.78676">
        <ele>202</ele>
        <time>2017-08-09T09:16:58Z</time>
      </trkpt>
      <trkpt lat="45.96859" lon="4.78682">
        <ele>202</ele>
        <time>2017-08-09T09:16:59Z</time>
      </trkpt>
      <trkpt lat="45.96862" lon="4.78688">
        <ele>202</ele>
        <time>2017-08-09T09:17:00Z</time>
      </trkpt>
      <trkpt lat="45.96865" lon="4.78694">
        <ele>202</ele>
        <time>2017-08-09T09:17:01Z</time>
      </trkpt>
      <trkpt lat="45.96867" lon="4.787">
        <ele>202</ele>
        <time>2017-08-09T09:17:02Z</time>
      </trkpt>
      <trkpt lat="45.9687" lon="4.78706">
        <ele>202</ele>
        <time>2017-08-09T09:17:03Z</time>
      </trkpt>
      <trkpt lat="45.96873" lon="4.78711">
        <ele>202</ele>
        <time>2017-08-09T09:17:04Z</time>
      </trkpt>
      <trkpt lat="45.96876" lon="4.78717">
        <ele>202</ele>
        <time>2017-08-09T09:17:05Z</time>
      </trkpt>
      <trkpt lat="45.96879" lon="4.78723">
        <ele>202</ele>
        <time>2017-08-09T09:17:06Z</time>
      </trkpt>
      <trkpt lat="45.96883" lon="4.7873">
        <ele>202</ele>
        <time>2017-08-09T09:17:07Z</time>
      </trkpt>
      <trkpt lat="45.96887" lon="4.78738">
        <ele>202</ele>
        <time>2017-08-09T09:17:08Z</time>
      </trkpt>
      <trkpt lat="45.9689" lon="4.78745">
        <ele>202</ele>
        <time>2017-08-09T09:17:09Z</time>
      </trkpt>
      <trkpt lat="45.96893" lon="4.78752">
        <ele>201</ele>
        <time>2017-08-09T09:17:10Z</time>
      </trkpt>
      <trkpt lat="45.96896" lon="4.78759">
        <ele>201</ele>
        <time>2017-08-09T09:17:11Z</time>
      </trkpt>
      <trkpt lat="45.96899" lon="4.78765">
        <ele>201</ele>
        <time>2017-08-09T09:17:12Z</time>
      </trkpt>
      <trkpt lat="45.96901" lon="4.7877">
        <ele>201</ele>
        <time>2017-08-09T09:17:13Z</time>
      </trkpt>
      <trkpt lat="45.96904" lon="4.78776">
        <ele>201</ele>
        <time>2017-08-09T09:17:14Z</time>
      </trkpt>
      <trkpt lat="45.96907" lon="4.78781">
        <ele>201</ele>
        <time>2017-08-09T09:17:15Z</time>
      </trkpt>
      <trkpt lat="45.9691" lon="4.78787">
        <ele>201</ele>
        <time>2017-08-09T09:17:16Z</time>
      </trkpt>
      <trkpt lat="45.96912" lon="4.78793">
        <ele>201</ele>
        <time>2017-08-09T09:17:17Z</time>
      </trkpt>
      <trkpt lat="45.96915" lon="4.78799">
        <ele>201</ele>
        <time>2017-08-09T09:17:18Z</time>
      </trkpt>
      <trkpt lat="45.96919" lon="4.78805">
        <ele>203</ele>
        <time>2017-08-09T09:17:19Z</time>
      </trkpt>
      <trkpt lat="45.96921" lon="4.78811">
        <ele>202</ele>
        <time>2017-08-09T09:17:20Z</time>
      </trkpt>
      <trkpt lat="45.96924" lon="4.78816">
        <ele>202</ele>
        <time>2017-08-09T09:17:21Z</time>
      </trkpt>
      <trkpt lat="45.96928" lon="4.78821">
        <ele>202</ele>
        <time>2017-08-09T09:17:22Z</time>
      </trkpt>
      <trkpt lat="45.96931" lon="4.78826">
        <ele>202</ele>
        <time>2017-08-09T09:17:23Z</time>
      </trkpt>
      <trkpt lat="45.96935" lon="4.7883">
        <ele>202</ele>
        <time>2017-08-09T09:17:24Z</time>
      </trkpt>
      <trkpt lat="45.96938" lon="4.78834">
        <ele>202</ele>
        <time>2017-08-09T09:17:25Z</time>
      </trkpt>
      <trkpt lat="45.96942" lon="4.78839">
        <ele>202</ele>
        <time>2017-08-09T09:17:26Z</time>
      </trkpt>
      <trkpt lat="45.96946" lon="4.78843">
        <ele>202</ele>
        <time>2017-08-09T09:17:27Z</time>
      </trkpt>
      <trkpt lat="45.96951" lon="4.78848">
        <ele>202</ele>
        <time>2017-08-09T09:17:28Z</time>
      </trkpt>
      <trkpt lat="45.96955" lon="4.78853">
        <ele>203</ele>
        <time>2017-08-09T09:17:29Z</time>
      </trkpt>
      <trkpt lat="45.96959" lon="4.78858">
        <ele>203</ele>
        <time>2017-08-09T09:17:30Z</time>
      </trkpt>
      <trkpt lat="45.96963" lon="4.78863">
        <ele>203</ele>
        <time>2017-08-09T09:17:31Z</time>
      </trkpt>
      <trkpt lat="45.96968" lon="4.78869">
        <ele>203</ele>
        <time>2017-08-09T09:17:32Z</time>
      </trkpt>
      <trkpt lat="45.96972" lon="4.78874">
        <ele>203</ele>
        <time>2017-08-09T09:17:33Z</time>
      </trkpt>
      <trkpt lat="45.96976" lon="4.7888">
        <ele>203</ele>
        <time>2017-08-09T09:17:34Z</time>
      </trkpt>
      <trkpt lat="45.9698" lon="4.78885">
        <ele>203</ele>
        <time>2017-08-09T09:17:35Z</time>
      </trkpt>
      <trkpt lat="45.96984" lon="4.7889">
        <ele>203</ele>
        <time>2017-08-09T09:17:36Z</time>
      </trkpt>
      <trkpt lat="45.96988" lon="4.78894">
        <ele>203</ele>
        <time>2017-08-09T09:17:37Z</time>
      </trkpt>
      <trkpt lat="45.96994" lon="4.78902">
        <ele>204</ele>
        <time>2017-08-09T09:17:39Z</time>
      </trkpt>
      <trkpt lat="45.96997" lon="4.78906">
        <ele>204</ele>
        <time>2017-08-09T09:17:40Z</time>
      </trkpt>
      <trkpt lat="45.97001" lon="4.7891">
        <ele>205</ele>
        <time>2017-08-09T09:17:41Z</time>
      </trkpt>
      <trkpt lat="45.97004" lon="4.78915">
        <ele>205</ele>
        <time>2017-08-09T09:17:42Z</time>
      </trkpt>
      <trkpt lat="45.97008" lon="4.7892">
        <ele>204</ele>
        <time>2017-08-09T09:17:43Z</time>
      </trkpt>
      <trkpt lat="45.97012" lon="4.78924">
        <ele>204</ele>
        <time>2017-08-09T09:17:44Z</time>
      </trkpt>
      <trkpt lat="45.97016" lon="4.7893">
        <ele>205</ele>
        <time>2017-08-09T09:17:45Z</time>
      </trkpt>
      <trkpt lat="45.97019" lon="4.78935">
        <ele>205</ele>
        <time>2017-08-09T09:17:46Z</time>
      </trkpt>
      <trkpt lat="45.97023" lon="4.7894">
        <ele>205</ele>
        <time>2017-08-09T09:17:47Z</time>
      </trkpt>
      <trkpt lat="45.97026" lon="4.78945">
        <ele>205</ele>
        <time>2017-08-09T09:17:48Z</time>
      </trkpt>
      <trkpt lat="45.97029" lon="4.78951">
        <ele>205</ele>
        <time>2017-08-09T09:17:49Z</time>
      </trkpt>
      <trkpt lat="45.97033" lon="4.78957">
        <ele>205</ele>
        <time>2017-08-09T09:17:50Z</time>
      </trkpt>
      <trkpt lat="45.97038" lon="4.78967">
        <ele>205</ele>
        <time>2017-08-09T09:17:52Z</time>
      </trkpt>
      <trkpt lat="45.9704" lon="4.78972">
        <ele>205</ele>
        <time>2017-08-09T09:17:53Z</time>
      </trkpt>
      <trkpt lat="45.97044" lon="4.78983">
        <ele>205</ele>
        <time>2017-08-09T09:17:55Z</time>
      </trkpt>
      <trkpt lat="45.97047" lon="4.78989">
        <ele>205</ele>
        <time>2017-08-09T09:17:56Z</time>
      </trkpt>
      <trkpt lat="45.9705" lon="4.78999">
        <ele>205</ele>
        <time>2017-08-09T09:17:58Z</time>
      </trkpt>
      <trkpt lat="45.97051" lon="4.79003">
        <ele>203</ele>
        <time>2017-08-09T09:17:59Z</time>
      </trkpt>
      <trkpt lat="45.97054" lon="4.79013">
        <ele>203</ele>
        <time>2017-08-09T09:18:01Z</time>
      </trkpt>
      <trkpt lat="45.97056" lon="4.79017">
        <ele>203</ele>
        <time>2017-08-09T09:18:02Z</time>
      </trkpt>
      <trkpt lat="45.97059" lon="4.79028">
        <ele>203</ele>
        <time>2017-08-09T09:18:04Z</time>
      </trkpt>
      <trkpt lat="45.9706" lon="4.79033">
        <ele>203</ele>
        <time>2017-08-09T09:18:05Z</time>
      </trkpt>
      <trkpt lat="45.97063" lon="4.79045">
        <ele>203</ele>
        <time>2017-08-09T09:18:07Z</time>
      </trkpt>
      <trkpt lat="45.97064" lon="4.7905">
        <ele>203</ele>
        <time>2017-08-09T09:18:08Z</time>
      </trkpt>
      <trkpt lat="45.97067" lon="4.79062">
        <ele>203</ele>
        <time>2017-08-09T09:18:10Z</time>
      </trkpt>
      <trkpt lat="45.97068" lon="4.79068">
        <ele>203</ele>
        <time>2017-08-09T09:18:11Z</time>
      </trkpt>
      <trkpt lat="45.97071" lon="4.79079">
        <ele>204</ele>
        <time>2017-08-09T09:18:13Z</time>
      </trkpt>
      <trkpt lat="45.97072" lon="4.79085">
        <ele>204</ele>
        <time>2017-08-09T09:18:14Z</time>
      </trkpt>
      <trkpt lat="45.97074" lon="4.79092">
        <ele>204</ele>
        <time>2017-08-09T09:18:15Z</time>
      </trkpt>
      <trkpt lat="45.97075" lon="4.79098">
        <ele>204</ele>
        <time>2017-08-09T09:18:16Z</time>
      </trkpt>
      <trkpt lat="45.97078" lon="4.79104">
        <ele>204</ele>
        <time>2017-08-09T09:18:17Z</time>
      </trkpt>
      <trkpt lat="45.9708" lon="4.7911">
        <ele>204</ele>
        <time>2017-08-09T09:18:18Z</time>
      </trkpt>
      <trkpt lat="45.97086" lon="4.7912">
        <ele>206</ele>
        <time>2017-08-09T09:18:20Z</time>
      </trkpt>
      <trkpt lat="45.9709" lon="4.79126">
        <ele>206</ele>
        <time>2017-08-09T09:18:21Z</time>
      </trkpt>
      <trkpt lat="45.97093" lon="4.79132">
        <ele>206</ele>
        <time>2017-08-09T09:18:22Z</time>
      </trkpt>
      <trkpt lat="45.97097" lon="4.79139">
        <ele>206</ele>
        <time>2017-08-09T09:18:23Z</time>
      </trkpt>
      <trkpt lat="45.97101" lon="4.79145">
        <ele>206</ele>
        <time>2017-08-09T09:18:24Z</time>
      </trkpt>
      <trkpt lat="45.97104" lon="4.7915">
        <ele>206</ele>
        <time>2017-08-09T09:18:25Z</time>
      </trkpt>
      <trkpt lat="45.97106" lon="4.79156">
        <ele>206</ele>
        <time>2017-08-09T09:18:26Z</time>
      </trkpt>
      <trkpt lat="45.97109" lon="4.79162">
        <ele>206</ele>
        <time>2017-08-09T09:18:27Z</time>
      </trkpt>
      <trkpt lat="45.97112" lon="4.79169">
        <ele>205</ele>
        <time>2017-08-09T09:18:28Z</time>
      </trkpt>
      <trkpt lat="45.97114" lon="4.79175">
        <ele>206</ele>
        <time>2017-08-09T09:18:29Z</time>
      </trkpt>
      <trkpt lat="45.97116" lon="4.79181">
        <ele>206</ele>
        <time>2017-08-09T09:18:30Z</time>
      </trkpt>
      <trkpt lat="45.97118" lon="4.79186">
        <ele>206</ele>
        <time>2017-08-09T09:18:31Z</time>
      </trkpt>
      <trkpt lat="45.97121" lon="4.79193">
        <ele>206</ele>
        <time>2017-08-09T09:18:32Z</time>
      </trkpt>
      <trkpt lat="45.97123" lon="4.79199">
        <ele>206</ele>
        <time>2017-08-09T09:18:33Z</time>
      </trkpt>
      <trkpt lat="45.97126" lon="4.79206">
        <ele>206</ele>
        <time>2017-08-09T09:18:34Z</time>
      </trkpt>
      <trkpt lat="45.9713" lon="4.79213">
        <ele>206</ele>
        <time>2017-08-09T09:18:35Z</time>
      </trkpt>
      <trkpt lat="45.97133" lon="4.7922">
        <ele>205</ele>
        <time>2017-08-09T09:18:36Z</time>
      </trkpt>
      <trkpt lat="45.97136" lon="4.79227">
        <ele>205</ele>
        <time>2017-08-09T09:18:37Z</time>
      </trkpt>
      <trkpt lat="45.97139" lon="4.79234">
        <ele>205</ele>
        <time>2017-08-09T09:18:38Z</time>
      </trkpt>
      <trkpt lat="45.97142" lon="4.7924">
        <ele>205</ele>
        <time>2017-08-09T09:18:39Z</time>
      </trkpt>
      <trkpt lat="45.97144" lon="4.79246">
        <ele>205</ele>
        <time>2017-08-09T09:18:40Z</time>
      </trkpt>
      <trkpt lat="45.97146" lon="4.79251">
        <ele>204</ele>
        <time>2017-08-09T09:18:41Z</time>
      </trkpt>
      <trkpt lat="45.9715" lon="4.79262">
        <ele>204</ele>
        <time>2017-08-09T09:18:43Z</time>
      </trkpt>
      <trkpt lat="45.97152" lon="4.79267">
        <ele>204</ele>
        <time>2017-08-09T09:18:44Z</time>
      </trkpt>
      <trkpt lat="45.97154" lon="4.79273">
        <ele>204</ele>
        <time>2017-08-09T09:18:45Z</time>
      </trkpt>
      <trkpt lat="45.97156" lon="4.79279">
        <ele>204</ele>
        <time>2017-08-09T09:18:46Z</time>
      </trkpt>
      <trkpt lat="45.97159" lon="4.79286">
        <ele>204</ele>
        <time>2017-08-09T09:18:47Z</time>
      </trkpt>
      <trkpt lat="45.97161" lon="4.79293">
        <ele>204</ele>
        <time>2017-08-09T09:18:48Z</time>
      </trkpt>
      <trkpt lat="45.97163" lon="4.79299">
        <ele>204</ele>
        <time>2017-08-09T09:18:49Z</time>
      </trkpt>
      <trkpt lat="45.97166" lon="4.79306">
        <ele>204</ele>
        <time>2017-08-09T09:18:50Z</time>
      </trkpt>
      <trkpt lat="45.97169" lon="4.79312">
        <ele>207</ele>
        <time>2017-08-09T09:18:51Z</time>
      </trkpt>
      <trkpt lat="45.97172" lon="4.79318">
        <ele>207</ele>
        <time>2017-08-09T09:18:52Z</time>
      </trkpt>
      <trkpt lat="45.97177" lon="4.79328">
        <ele>206</ele>
        <time>2017-08-09T09:18:54Z</time>
      </trkpt>
      <trkpt lat="45.97179" lon="4.79333">
        <ele>206</ele>
        <time>2017-08-09T09:18:55Z</time>
      </trkpt>
      <trkpt lat="45.97182" lon="4.79339">
        <ele>206</ele>
        <time>2017-08-09T09:18:56Z</time>
      </trkpt>
      <trkpt lat="45.97185" lon="4.79344">
        <ele>207</ele>
        <time>2017-08-09T09:18:57Z</time>
      </trkpt>
      <trkpt lat="45.97188" lon="4.7935">
        <ele>207</ele>
        <time>2017-08-09T09:18:58Z</time>
      </trkpt>
      <trkpt lat="45.9719" lon="4.79356">
        <ele>207</ele>
        <time>2017-08-09T09:18:59Z</time>
      </trkpt>
      <trkpt lat="45.97192" lon="4.79362">
        <ele>207</ele>
        <time>2017-08-09T09:19:00Z</time>
      </trkpt>
      <trkpt lat="45.97194" lon="4.79369">
        <ele>207</ele>
        <time>2017-08-09T09:19:01Z</time>
      </trkpt>
      <trkpt lat="45.97197" lon="4.79375">
        <ele>207</ele>
        <time>2017-08-09T09:19:02Z</time>
      </trkpt>
      <trkpt lat="45.97199" lon="4.79382">
        <ele>207</ele>
        <time>2017-08-09T09:19:03Z</time>
      </trkpt>
      <trkpt lat="45.97202" lon="4.79387">
        <ele>207</ele>
        <time>2017-08-09T09:19:04Z</time>
      </trkpt>
      <trkpt lat="45.97203" lon="4.79393">
        <ele>208</ele>
        <time>2017-08-09T09:19:05Z</time>
      </trkpt>
      <trkpt lat="45.97207" lon="4.79405">
        <ele>208</ele>
        <time>2017-08-09T09:19:07Z</time>
      </trkpt>
      <trkpt lat="45.97209" lon="4.7941">
        <ele>208</ele>
        <time>2017-08-09T09:19:08Z</time>
      </trkpt>
      <trkpt lat="45.97213" lon="4.79418">
        <ele>208</ele>
        <time>2017-08-09T09:19:10Z</time>
      </trkpt>
      <trkpt lat="45.97214" lon="4.79424">
        <ele>208</ele>
        <time>2017-08-09T09:19:11Z</time>
      </trkpt>
      <trkpt lat="45.97216" lon="4.79429">
        <ele>208</ele>
        <time>2017-08-09T09:19:12Z</time>
      </trkpt>
      <trkpt lat="45.97219" lon="4.79435">
        <ele>208</ele>
        <time>2017-08-09T09:19:13Z</time>
      </trkpt>
      <trkpt lat="45.97222" lon="4.79441">
        <ele>209</ele>
        <time>2017-08-09T09:19:14Z</time>
      </trkpt>
      <trkpt lat="45.97224" lon="4.79447">
        <ele>209</ele>
        <time>2017-08-09T09:19:15Z</time>
      </trkpt>
      <trkpt lat="45.97226" lon="4.79453">
        <ele>209</ele>
        <time>2017-08-09T09:19:16Z</time>
      </trkpt>
      <trkpt lat="45.97229" lon="4.79459">
        <ele>209</ele>
        <time>2017-08-09T09:19:17Z</time>
      </trkpt>
      <trkpt lat="45.97232" lon="4.79471">
        <ele>209</ele>
        <time>2017-08-09T09:19:19Z</time>
      </trkpt>
      <trkpt lat="45.97233" lon="4.79477">
        <ele>209</ele>
        <time>2017-08-09T09:19:20Z</time>
      </trkpt>
      <trkpt lat="45.97235" lon="4.79488">
        <ele>210</ele>
        <time>2017-08-09T09:19:22Z</time>
      </trkpt>
      <trkpt lat="45.97236" lon="4.79493">
        <ele>210</ele>
        <time>2017-08-09T09:19:23Z</time>
      </trkpt>
      <trkpt lat="45.97239" lon="4.79505">
        <ele>210</ele>
        <time>2017-08-09T09:19:25Z</time>
      </trkpt>
      <trkpt lat="45.9724" lon="4.79511">
        <ele>210</ele>
        <time>2017-08-09T09:19:26Z</time>
      </trkpt>
      <trkpt lat="45.97242" lon="4.79518">
        <ele>210</ele>
        <time>2017-08-09T09:19:27Z</time>
      </trkpt>
      <trkpt lat="45.97243" lon="4.79525">
        <ele>210</ele>
        <time>2017-08-09T09:19:28Z</time>
      </trkpt>
      <trkpt lat="45.97244" lon="4.79531">
        <ele>210</ele>
        <time>2017-08-09T09:19:29Z</time>
      </trkpt>
      <trkpt lat="45.97244" lon="4.79538">
        <ele>210</ele>
        <time>2017-08-09T09:19:30Z</time>
      </trkpt>
      <trkpt lat="45.97247" lon="4.7955">
        <ele>210</ele>
        <time>2017-08-09T09:19:32Z</time>
      </trkpt>
      <trkpt lat="45.97248" lon="4.79556">
        <ele>210</ele>
        <time>2017-08-09T09:19:33Z</time>
      </trkpt>
      <trkpt lat="45.9725" lon="4.79568">
        <ele>210</ele>
        <time>2017-08-09T09:19:35Z</time>
      </trkpt>
      <trkpt lat="45.97251" lon="4.79573">
        <ele>212</ele>
        <time>2017-08-09T09:19:36Z</time>
      </trkpt>
      <trkpt lat="45.97252" lon="4.7958">
        <ele>211</ele>
        <time>2017-08-09T09:19:37Z</time>
      </trkpt>
      <trkpt lat="45.97251" lon="4.79588">
        <ele>211</ele>
        <time>2017-08-09T09:19:38Z</time>
      </trkpt>
      <trkpt lat="45.9725" lon="4.796">
        <ele>212</ele>
        <time>2017-08-09T09:19:40Z</time>
      </trkpt>
      <trkpt lat="45.9725" lon="4.79607">
        <ele>209</ele>
        <time>2017-08-09T09:19:41Z</time>
      </trkpt>
      <trkpt lat="45.9725" lon="4.79614">
        <ele>209</ele>
        <time>2017-08-09T09:19:42Z</time>
      </trkpt>
      <trkpt lat="45.9725" lon="4.79621">
        <ele>209</ele>
        <time>2017-08-09T09:19:43Z</time>
      </trkpt>
      <trkpt lat="45.9725" lon="4.79627">
        <ele>209</ele>
        <time>2017-08-09T09:19:44Z</time>
      </trkpt>
      <trkpt lat="45.97251" lon="4.79634">
        <ele>212</ele>
        <time>2017-08-09T09:19:45Z</time>
      </trkpt>
      <trkpt lat="45.9725" lon="4.79646">
        <ele>208</ele>
        <time>2017-08-09T09:19:47Z</time>
      </trkpt>
      <trkpt lat="45.97249" lon="4.79651">
        <ele>208</ele>
        <time>2017-08-09T09:19:48Z</time>
      </trkpt>
      <trkpt lat="45.97248" lon="4.79657">
        <ele>208</ele>
        <time>2017-08-09T09:19:49Z</time>
      </trkpt>
      <trkpt lat="45.97247" lon="4.79665">
        <ele>208</ele>
        <time>2017-08-09T09:19:50Z</time>
      </trkpt>
      <trkpt lat="45.97246" lon="4.79672">
        <ele>208</ele>
        <time>2017-08-09T09:19:51Z</time>
      </trkpt>
      <trkpt lat="45.97244" lon="4.79681">
        <ele>208</ele>
        <time>2017-08-09T09:19:52Z</time>
      </trkpt>
      <trkpt lat="45.97243" lon="4.79688">
        <ele>208</ele>
        <time>2017-08-09T09:19:53Z</time>
      </trkpt>
      <trkpt lat="45.97242" lon="4.79696">
        <ele>208</ele>
        <time>2017-08-09T09:19:54Z</time>
      </trkpt>
      <trkpt lat="45.97241" lon="4.79703">
        <ele>208</ele>
        <time>2017-08-09T09:19:55Z</time>
      </trkpt>
      <trkpt lat="45.9724" lon="4.7971">
        <ele>209</ele>
        <time>2017-08-09T09:19:56Z</time>
      </trkpt>
      <trkpt lat="45.9724" lon="4.79717">
        <ele>209</ele>
        <time>2017-08-09T09:19:57Z</time>
      </trkpt>
      <trkpt lat="45.97239" lon="4.79723">
        <ele>209</ele>
        <time>2017-08-09T09:19:58Z</time>
      </trkpt>
      <trkpt lat="45.97238" lon="4.79736">
        <ele>209</ele>
        <time>2017-08-09T09:20:00Z</time>
      </trkpt>
      <trkpt lat="45.97238" lon="4.79742">
        <ele>209</ele>
        <time>2017-08-09T09:20:01Z</time>
      </trkpt>
      <trkpt lat="45.97235" lon="4.79754">
        <ele>209</ele>
        <time>2017-08-09T09:20:03Z</time>
      </trkpt>
      <trkpt lat="45.97235" lon="4.7976">
        <ele>209</ele>
        <time>2017-08-09T09:20:04Z</time>
      </trkpt>
      <trkpt lat="45.97234" lon="4.79772">
        <ele>210</ele>
        <time>2017-08-09T09:20:06Z</time>
      </trkpt>
      <trkpt lat="45.97233" lon="4.79778">
        <ele>210</ele>
        <time>2017-08-09T09:20:07Z</time>
      </trkpt>
      <trkpt lat="45.97233" lon="4.7979">
        <ele>210</ele>
        <time>2017-08-09T09:20:09Z</time>
      </trkpt>
      <trkpt lat="45.97233" lon="4.79796">
        <ele>210</ele>
        <time>2017-08-09T09:20:10Z</time>
      </trkpt>
      <trkpt lat="45.97232" lon="4.79807">
        <ele>210</ele>
        <time>2017-08-09T09:20:12Z</time>
      </trkpt>
      <trkpt lat="45.97232" lon="4.79813">
        <ele>210</ele>
        <time>2017-08-09T09:20:13Z</time>
      </trkpt>
      <trkpt lat="45.97231" lon="4.79824">
        <ele>211</ele>
        <time>2017-08-09T09:20:15Z</time>
      </trkpt>
      <trkpt lat="45.97231" lon="4.79829">
        <ele>211</ele>
        <time>2017-08-09T09:20:16Z</time>
      </trkpt>
      <trkpt lat="45.97231" lon="4.7984">
        <ele>211</ele>
        <time>2017-08-09T09:20:18Z</time>
      </trkpt>
      <trkpt lat="45.97232" lon="4.79845">
        <ele>211</ele>
        <time>2017-08-09T09:20:19Z</time>
      </trkpt>
      <trkpt lat="45.97235" lon="4.79857">
        <ele>211</ele>
        <time>2017-08-09T09:20:21Z</time>
      </trkpt>
      <trkpt lat="45.97236" lon="4.79862">
        <ele>211</ele>
        <time>2017-08-09T09:20:22Z</time>
      </trkpt>
      <trkpt lat="45.97239" lon="4.79868">
        <ele>211</ele>
        <time>2017-08-09T09:20:23Z</time>
      </trkpt>
      <trkpt lat="45.97241" lon="4.79875">
        <ele>211</ele>
        <time>2017-08-09T09:20:24Z</time>
      </trkpt>
      <trkpt lat="45.97242" lon="4.79886">
        <ele>211</ele>
        <time>2017-08-09T09:20:26Z</time>
      </trkpt>
      <trkpt lat="45.97243" lon="4.79891">
        <ele>211</ele>
        <time>2017-08-09T09:20:27Z</time>
      </trkpt>
      <trkpt lat="45.97245" lon="4.79902">
        <ele>211</ele>
        <time>2017-08-09T09:20:30Z</time>
      </trkpt>
      <trkpt lat="45.97246" lon="4.79904">
        <ele>212</ele>
        <time>2017-08-09T09:20:31Z</time>
      </trkpt>
      <trkpt lat="45.97251" lon="4.79912">
        <ele>212</ele>
        <time>2017-08-09T09:20:33Z</time>
      </trkpt>
      <trkpt lat="45.97256" lon="4.79914">
        <ele>212</ele>
        <time>2017-08-09T09:20:34Z</time>
      </trkpt>
      <trkpt lat="45.97264" lon="4.79915">
        <ele>213</ele>
        <time>2017-08-09T09:20:36Z</time>
      </trkpt>
      <trkpt lat="45.97268" lon="4.79914">
        <ele>213</ele>
        <time>2017-08-09T09:20:37Z</time>
      </trkpt>
      <trkpt lat="45.97273" lon="4.79914">
        <ele>213</ele>
        <time>2017-08-09T09:20:38Z</time>
      </trkpt>
      <trkpt lat="45.97277" lon="4.79913">
        <ele>213</ele>
        <time>2017-08-09T09:20:39Z</time>
      </trkpt>
      <trkpt lat="45.97282" lon="4.79913">
        <ele>213</ele>
        <time>2017-08-09T09:20:40Z</time>
      </trkpt>
      <trkpt lat="45.97286" lon="4.79912">
        <ele>213</ele>
        <time>2017-08-09T09:20:41Z</time>
      </trkpt>
      <trkpt lat="45.97295" lon="4.79912">
        <ele>213</ele>
        <time>2017-08-09T09:20:43Z</time>
      </trkpt>
      <trkpt lat="45.97298" lon="4.79912">
        <ele>213</ele>
        <time>2017-08-09T09:20:44Z</time>
      </trkpt>
      <trkpt lat="45.97306" lon="4.79911">
        <ele>213</ele>
        <time>2017-08-09T09:20:46Z</time>
      </trkpt>
      <trkpt lat="45.9731" lon="4.79911">
        <ele>213</ele>
        <time>2017-08-09T09:20:47Z</time>
      </trkpt>
      <trkpt lat="45.97317" lon="4.7991">
        <ele>213</ele>
        <time>2017-08-09T09:20:49Z</time>
      </trkpt>
      <trkpt lat="45.97322" lon="4.7991">
        <ele>213</ele>
        <time>2017-08-09T09:20:50Z</time>
      </trkpt>
      <trkpt lat="45.9733" lon="4.79908">
        <ele>213</ele>
        <time>2017-08-09T09:20:52Z</time>
      </trkpt>
      <trkpt lat="45.97334" lon="4.79907">
        <ele>214</ele>
        <time>2017-08-09T09:20:53Z</time>
      </trkpt>
      <trkpt lat="45.97343" lon="4.79907">
        <ele>215</ele>
        <time>2017-08-09T09:20:55Z</time>
      </trkpt>
      <trkpt lat="45.97347" lon="4.79907">
        <ele>215</ele>
        <time>2017-08-09T09:20:56Z</time>
      </trkpt>
      <trkpt lat="45.97356" lon="4.79905">
        <ele>216</ele>
        <time>2017-08-09T09:20:58Z</time>
      </trkpt>
      <trkpt lat="45.9736" lon="4.79904">
        <ele>216</ele>
        <time>2017-08-09T09:20:59Z</time>
      </trkpt>
      <trkpt lat="45.97367" lon="4.79902">
        <ele>217</ele>
        <time>2017-08-09T09:21:01Z</time>
      </trkpt>
      <trkpt lat="45.9737" lon="4.79902">
        <ele>217</ele>
        <time>2017-08-09T09:21:02Z</time>
      </trkpt>
      <trkpt lat="45.97377" lon="4.799">
        <ele>217</ele>
        <time>2017-08-09T09:21:04Z</time>
      </trkpt>
      <trkpt lat="45.9738" lon="4.79899">
        <ele>217</ele>
        <time>2017-08-09T09:21:05Z</time>
      </trkpt>
      <trkpt lat="45.97388" lon="4.79899">
        <ele>217</ele>
        <time>2017-08-09T09:21:07Z</time>
      </trkpt>
      <trkpt lat="45.97392" lon="4.79899">
        <ele>217</ele>
        <time>2017-08-09T09:21:08Z</time>
      </trkpt>
      <trkpt lat="45.97399" lon="4.79898">
        <ele>217</ele>
        <time>2017-08-09T09:21:10Z</time>
      </trkpt>
      <trkpt lat="45.97404" lon="4.79897">
        <ele>217</ele>
        <time>2017-08-09T09:21:11Z</time>
      </trkpt>
      <trkpt lat="45.97411" lon="4.79896">
        <ele>217</ele>
        <time>2017-08-09T09:21:13Z</time>
      </trkpt>
      <trkpt lat="45.97415" lon="4.79896">
        <ele>217</ele>
        <time>2017-08-09T09:21:14Z</time>
      </trkpt>
      <trkpt lat="45.97423" lon="4.79897">
        <ele>219</ele>
        <time>2017-08-09T09:21:16Z</time>
      </trkpt>
      <trkpt lat="45.97427" lon="4.79897">
        <ele>219</ele>
        <time>2017-08-09T09:21:17Z</time>
      </trkpt>
      <trkpt lat="45.97435" lon="4.79897">
        <ele>220</ele>
        <time>2017-08-09T09:21:19Z</time>
      </trkpt>
      <trkpt lat="45.9744" lon="4.79896">
        <ele>220</ele>
        <time>2017-08-09T09:21:20Z</time>
      </trkpt>
      <trkpt lat="45.97445" lon="4.79896">
        <ele>220</ele>
        <time>2017-08-09T09:21:21Z</time>
      </trkpt>
      <trkpt lat="45.97449" lon="4.79895">
        <ele>220</ele>
        <time>2017-08-09T09:21:22Z</time>
      </trkpt>
      <trkpt lat="45.97458" lon="4.79894">
        <ele>220</ele>
        <time>2017-08-09T09:21:24Z</time>
      </trkpt>
      <trkpt lat="45.97464" lon="4.79895">
        <ele>221</ele>
        <time>2017-08-09T09:21:25Z</time>
      </trkpt>
      <trkpt lat="45.97468" lon="4.79894">
        <ele>221</ele>
        <time>2017-08-09T09:21:26Z</time>
      </trkpt>
      <trkpt lat="45.97474" lon="4.79895">
        <ele>221</ele>
        <time>2017-08-09T09:21:27Z</time>
      </trkpt>
      <trkpt lat="45.97479" lon="4.79894">
        <ele>221</ele>
        <time>2017-08-09T09:21:28Z</time>
      </trkpt>
      <trkpt lat="45.97484" lon="4.79894">
        <ele>221</ele>
        <time>2017-08-09T09:21:29Z</time>
      </trkpt>
      <trkpt lat="45.97492" lon="4.79893">
        <ele>221</ele>
        <time>2017-08-09T09:21:31Z</time>
      </trkpt>
      <trkpt lat="45.97496" lon="4.79892">
        <ele>221</ele>
        <time>2017-08-09T09:21:32Z</time>
      </trkpt>
      <trkpt lat="45.97503" lon="4.79891">
        <ele>221</ele>
        <time>2017-08-09T09:21:34Z</time>
      </trkpt>
      <trkpt lat="45.97507" lon="4.79891">
        <ele>221</ele>
        <time>2017-08-09T09:21:35Z</time>
      </trkpt>
      <trkpt lat="45.97516" lon="4.79889">
        <ele>221</ele>
        <time>2017-08-09T09:21:37Z</time>
      </trkpt>
      <trkpt lat="45.9752" lon="4.79889">
        <ele>221</ele>
        <time>2017-08-09T09:21:38Z</time>
      </trkpt>
      <trkpt lat="45.97528" lon="4.79888">
        <ele>221</ele>
        <time>2017-08-09T09:21:40Z</time>
      </trkpt>
      <trkpt lat="45.97532" lon="4.79888">
        <ele>221</ele>
        <time>2017-08-09T09:21:41Z</time>
      </trkpt>
      <trkpt lat="45.97541" lon="4.79886">
        <ele>221</ele>
        <time>2017-08-09T09:21:43Z</time>
      </trkpt>
      <trkpt lat="45.97544" lon="4.79885">
        <ele>221</ele>
        <time>2017-08-09T09:21:44Z</time>
      </trkpt>
      <trkpt lat="45.97553" lon="4.79883">
        <ele>221</ele>
        <time>2017-08-09T09:21:46Z</time>
      </trkpt>
      <trkpt lat="45.97557" lon="4.79882">
        <ele>221</ele>
        <time>2017-08-09T09:21:47Z</time>
      </trkpt>
      <trkpt lat="45.97565" lon="4.7988">
        <ele>221</ele>
        <time>2017-08-09T09:21:49Z</time>
      </trkpt>
      <trkpt lat="45.9757" lon="4.79879">
        <ele>221</ele>
        <time>2017-08-09T09:21:50Z</time>
      </trkpt>
      <trkpt lat="45.97574" lon="4.79877">
        <ele>221</ele>
        <time>2017-08-09T09:21:51Z</time>
      </trkpt>
      <trkpt lat="45.97579" lon="4.79875">
        <ele>221</ele>
        <time>2017-08-09T09:21:52Z</time>
      </trkpt>
      <trkpt lat="45.97586" lon="4.79871">
        <ele>221</ele>
        <time>2017-08-09T09:21:54Z</time>
      </trkpt>
      <trkpt lat="45.97589" lon="4.79871">
        <ele>221</ele>
        <time>2017-08-09T09:21:55Z</time>
      </trkpt>
      <trkpt lat="45.97596" lon="4.79869">
        <ele>221</ele>
        <time>2017-08-09T09:21:57Z</time>
      </trkpt>
      <trkpt lat="45.97599" lon="4.79868">
        <ele>221</ele>
        <time>2017-08-09T09:21:58Z</time>
      </trkpt>
      <trkpt lat="45.97607" lon="4.79865">
        <ele>221</ele>
        <time>2017-08-09T09:22:00Z</time>
      </trkpt>
      <trkpt lat="45.97611" lon="4.79862">
        <ele>221</ele>
        <time>2017-08-09T09:22:01Z</time>
      </trkpt>
      <trkpt lat="45.97618" lon="4.79859">
        <ele>221</ele>
        <time>2017-08-09T09:22:03Z</time>
      </trkpt>
      <trkpt lat="45.97622" lon="4.79858">
        <ele>221</ele>
        <time>2017-08-09T09:22:04Z</time>
      </trkpt>
      <trkpt lat="45.97629" lon="4.79855">
        <ele>221</ele>
        <time>2017-08-09T09:22:06Z</time>
      </trkpt>
      <trkpt lat="45.97632" lon="4.79854">
        <ele>221</ele>
        <time>2017-08-09T09:22:07Z</time>
      </trkpt>
      <trkpt lat="45.9764" lon="4.79852">
        <ele>221</ele>
        <time>2017-08-09T09:22:09Z</time>
      </trkpt>
      <trkpt lat="45.97644" lon="4.79851">
        <ele>221</ele>
        <time>2017-08-09T09:22:10Z</time>
      </trkpt>
      <trkpt lat="45.97652" lon="4.79847">
        <ele>221</ele>
        <time>2017-08-09T09:22:12Z</time>
      </trkpt>
      <trkpt lat="45.97656" lon="4.79845">
        <ele>221</ele>
        <time>2017-08-09T09:22:13Z</time>
      </trkpt>
      <trkpt lat="45.97664" lon="4.79842">
        <ele>221</ele>
        <time>2017-08-09T09:22:15Z</time>
      </trkpt>
      <trkpt lat="45.97667" lon="4.79841">
        <ele>221</ele>
        <time>2017-08-09T09:22:16Z</time>
      </trkpt>
      <trkpt lat="45.97675" lon="4.79839">
        <ele>221</ele>
        <time>2017-08-09T09:22:18Z</time>
      </trkpt>
      <trkpt lat="45.97679" lon="4.79838">
        <ele>221</ele>
        <time>2017-08-09T09:22:19Z</time>
      </trkpt>
      <trkpt lat="45.97686" lon="4.79837">
        <ele>221</ele>
        <time>2017-08-09T09:22:21Z</time>
      </trkpt>
      <trkpt lat="45.9769" lon="4.79835">
        <ele>221</ele>
        <time>2017-08-09T09:22:22Z</time>
      </trkpt>
      <trkpt lat="45.97698" lon="4.79833">
        <ele>223</ele>
        <time>2017-08-09T09:22:24Z</time>
      </trkpt>
      <trkpt lat="45.97702" lon="4.79832">
        <ele>223</ele>
        <time>2017-08-09T09:22:25Z</time>
      </trkpt>
      <trkpt lat="45.97709" lon="4.7983">
        <ele>223</ele>
        <time>2017-08-09T09:22:27Z</time>
      </trkpt>
      <trkpt lat="45.97713" lon="4.79831">
        <ele>223</ele>
        <time>2017-08-09T09:22:28Z</time>
      </trkpt>
      <trkpt lat="45.97722" lon="4.79829">
        <ele>223</ele>
        <time>2017-08-09T09:22:30Z</time>
      </trkpt>
      <trkpt lat="45.97725" lon="4.79828">
        <ele>223</ele>
        <time>2017-08-09T09:22:31Z</time>
      </trkpt>
      <trkpt lat="45.97733" lon="4.79826">
        <ele>223</ele>
        <time>2017-08-09T09:22:33Z</time>
      </trkpt>
      <trkpt lat="45.97736" lon="4.79826">
        <ele>223</ele>
        <time>2017-08-09T09:22:34Z</time>
      </trkpt>
      <trkpt lat="45.97744" lon="4.79824">
        <ele>223</ele>
        <time>2017-08-09T09:22:36Z</time>
      </trkpt>
      <trkpt lat="45.97747" lon="4.79823">
        <ele>223</ele>
        <time>2017-08-09T09:22:37Z</time>
      </trkpt>
      <trkpt lat="45.97754" lon="4.79822">
        <ele>222</ele>
        <time>2017-08-09T09:22:39Z</time>
      </trkpt>
      <trkpt lat="45.97757" lon="4.79822">
        <ele>223</ele>
        <time>2017-08-09T09:22:40Z</time>
      </trkpt>
      <trkpt lat="45.97766" lon="4.79822">
        <ele>223</ele>
        <time>2017-08-09T09:22:42Z</time>
      </trkpt>
      <trkpt lat="45.97771" lon="4.79821">
        <ele>223</ele>
        <time>2017-08-09T09:22:43Z</time>
      </trkpt>
      <trkpt lat="45.97776" lon="4.7982">
        <ele>223</ele>
        <time>2017-08-09T09:22:44Z</time>
      </trkpt>
      <trkpt lat="45.97781" lon="4.79819">
        <ele>223</ele>
        <time>2017-08-09T09:22:45Z</time>
      </trkpt>
      <trkpt lat="45.97785" lon="4.79818">
        <ele>223</ele>
        <time>2017-08-09T09:22:46Z</time>
      </trkpt>
      <trkpt lat="45.9779" lon="4.79817">
        <ele>223</ele>
        <time>2017-08-09T09:22:47Z</time>
      </trkpt>
      <trkpt lat="45.97798" lon="4.79815">
        <ele>223</ele>
        <time>2017-08-09T09:22:49Z</time>
      </trkpt>
      <trkpt lat="45.97802" lon="4.79815">
        <ele>223</ele>
        <time>2017-08-09T09:22:50Z</time>
      </trkpt>
      <trkpt lat="45.97811" lon="4.79813">
        <ele>223</ele>
        <time>2017-08-09T09:22:52Z</time>
      </trkpt>
      <trkpt lat="45.97815" lon="4.79812">
        <ele>223</ele>
        <time>2017-08-09T09:22:53Z</time>
      </trkpt>
      <trkpt lat="45.97824" lon="4.79811">
        <ele>223</ele>
        <time>2017-08-09T09:22:55Z</time>
      </trkpt>
      <trkpt lat="45.97828" lon="4.7981">
        <ele>223</ele>
        <time>2017-08-09T09:22:56Z</time>
      </trkpt>
      <trkpt lat="45.97833" lon="4.79809">
        <ele>223</ele>
        <time>2017-08-09T09:22:57Z</time>
      </trkpt>
      <trkpt lat="45.97838" lon="4.79809">
        <ele>224</ele>
        <time>2017-08-09T09:22:58Z</time>
      </trkpt>
      <trkpt lat="45.97845" lon="4.79808">
        <ele>224</ele>
        <time>2017-08-09T09:23:00Z</time>
      </trkpt>
      <trkpt lat="45.9785" lon="4.79807">
        <ele>224</ele>
        <time>2017-08-09T09:23:01Z</time>
      </trkpt>
      <trkpt lat="45.97857" lon="4.79806">
        <ele>224</ele>
        <time>2017-08-09T09:23:03Z</time>
      </trkpt>
      <trkpt lat="45.97862" lon="4.79805">
        <ele>224</ele>
        <time>2017-08-09T09:23:04Z</time>
      </trkpt>
      <trkpt lat="45.9787" lon="4.79803">
        <ele>224</ele>
        <time>2017-08-09T09:23:06Z</time>
      </trkpt>
      <trkpt lat="45.97874" lon="4.79802">
        <ele>224</ele>
        <time>2017-08-09T09:23:07Z</time>
      </trkpt>
      <trkpt lat="45.9788" lon="4.79801">
        <ele>224</ele>
        <time>2017-08-09T09:23:08Z</time>
      </trkpt>
      <trkpt lat="45.97885" lon="4.798">
        <ele>224</ele>
        <time>2017-08-09T09:23:09Z</time>
      </trkpt>
      <trkpt lat="45.9789" lon="4.79799">
        <ele>224</ele>
        <time>2017-08-09T09:23:10Z</time>
      </trkpt>
      <trkpt lat="45.97895" lon="4.79798">
        <ele>224</ele>
        <time>2017-08-09T09:23:11Z</time>
      </trkpt>
      <trkpt lat="45.979" lon="4.79797">
        <ele>224</ele>
        <time>2017-08-09T09:23:12Z</time>
      </trkpt>
      <trkpt lat="45.97906" lon="4.79796">
        <ele>224</ele>
        <time>2017-08-09T09:23:13Z</time>
      </trkpt>
      <trkpt lat="45.97911" lon="4.79794">
        <ele>224</ele>
        <time>2017-08-09T09:23:14Z</time>
      </trkpt>
      <trkpt lat="45.97916" lon="4.79793">
        <ele>224</ele>
        <time>2017-08-09T09:23:15Z</time>
      </trkpt>
      <trkpt lat="45.97921" lon="4.79792">
        <ele>224</ele>
        <time>2017-08-09T09:23:16Z</time>
      </trkpt>
      <trkpt lat="45.97926" lon="4.79792">
        <ele>224</ele>
        <time>2017-08-09T09:23:17Z</time>
      </trkpt>
      <trkpt lat="45.97934" lon="4.7979">
        <ele>224</ele>
        <time>2017-08-09T09:23:19Z</time>
      </trkpt>
      <trkpt lat="45.97938" lon="4.7979">
        <ele>224</ele>
        <time>2017-08-09T09:23:20Z</time>
      </trkpt>
      <trkpt lat="45.97942" lon="4.79789">
        <ele>224</ele>
        <time>2017-08-09T09:23:21Z</time>
      </trkpt>
      <trkpt lat="45.97947" lon="4.79788">
        <ele>224</ele>
        <time>2017-08-09T09:23:22Z</time>
      </trkpt>
      <trkpt lat="45.97952" lon="4.79786">
        <ele>224</ele>
        <time>2017-08-09T09:23:23Z</time>
      </trkpt>
      <trkpt lat="45.97957" lon="4.79786">
        <ele>224</ele>
        <time>2017-08-09T09:23:24Z</time>
      </trkpt>
      <trkpt lat="45.97962" lon="4.79785">
        <ele>224</ele>
        <time>2017-08-09T09:23:25Z</time>
      </trkpt>
      <trkpt lat="45.97967" lon="4.79783">
        <ele>224</ele>
        <time>2017-08-09T09:23:26Z</time>
      </trkpt>
      <trkpt lat="45.97972" lon="4.79782">
        <ele>224</ele>
        <time>2017-08-09T09:23:27Z</time>
      </trkpt>
      <trkpt lat="45.97977" lon="4.79782">
        <ele>224</ele>
        <time>2017-08-09T09:23:28Z</time>
      </trkpt>
      <trkpt lat="45.97982" lon="4.79781">
        <ele>224</ele>
        <time>2017-08-09T09:23:29Z</time>
      </trkpt>
      <trkpt lat="45.97986" lon="4.79781">
        <ele>224</ele>
        <time>2017-08-09T09:23:30Z</time>
      </trkpt>
      <trkpt lat="45.97991" lon="4.79781">
        <ele>224</ele>
        <time>2017-08-09T09:23:31Z</time>
      </trkpt>
      <trkpt lat="45.97995" lon="4.79781">
        <ele>224</ele>
        <time>2017-08-09T09:23:32Z</time>
      </trkpt>
      <trkpt lat="45.98004" lon="4.79779">
        <ele>223</ele>
        <time>2017-08-09T09:23:34Z</time>
      </trkpt>
      <trkpt lat="45.98009" lon="4.79778">
        <ele>223</ele>
        <time>2017-08-09T09:23:35Z</time>
      </trkpt>
      <trkpt lat="45.98013" lon="4.79778">
        <ele>223</ele>
        <time>2017-08-09T09:23:36Z</time>
      </trkpt>
      <trkpt lat="45.98018" lon="4.79777">
        <ele>223</ele>
        <time>2017-08-09T09:23:37Z</time>
      </trkpt>
      <trkpt lat="45.98023" lon="4.79775">
        <ele>223</ele>
        <time>2017-08-09T09:23:38Z</time>
      </trkpt>
      <trkpt lat="45.98028" lon="4.79775">
        <ele>223</ele>
        <time>2017-08-09T09:23:39Z</time>
      </trkpt>
      <trkpt lat="45.98037" lon="4.79775">
        <ele>223</ele>
        <time>2017-08-09T09:23:41Z</time>
      </trkpt>
      <trkpt lat="45.98041" lon="4.79774">
        <ele>223</ele>
        <time>2017-08-09T09:23:42Z</time>
      </trkpt>
      <trkpt lat="45.98045" lon="4.79774">
        <ele>223</ele>
        <time>2017-08-09T09:23:43Z</time>
      </trkpt>
      <trkpt lat="45.9805" lon="4.79773">
        <ele>223</ele>
        <time>2017-08-09T09:23:44Z</time>
      </trkpt>
      <trkpt lat="45.98055" lon="4.79772">
        <ele>223</ele>
        <time>2017-08-09T09:23:45Z</time>
      </trkpt>
      <trkpt lat="45.9806" lon="4.79772">
        <ele>223</ele>
        <time>2017-08-09T09:23:46Z</time>
      </trkpt>
      <trkpt lat="45.98065" lon="4.79771">
        <ele>223</ele>
        <time>2017-08-09T09:23:47Z</time>
      </trkpt>
      <trkpt lat="45.9807" lon="4.7977">
        <ele>223</ele>
        <time>2017-08-09T09:23:48Z</time>
      </trkpt>
      <trkpt lat="45.98075" lon="4.79769">
        <ele>223</ele>
        <time>2017-08-09T09:23:49Z</time>
      </trkpt>
      <trkpt lat="45.9808" lon="4.79769">
        <ele>223</ele>
        <time>2017-08-09T09:23:50Z</time>
      </trkpt>
      <trkpt lat="45.98088" lon="4.79767">
        <ele>223</ele>
        <time>2017-08-09T09:23:52Z</time>
      </trkpt>
      <trkpt lat="45.98092" lon="4.79767">
        <ele>223</ele>
        <time>2017-08-09T09:23:53Z</time>
      </trkpt>
      <trkpt lat="45.981" lon="4.79766">
        <ele>223</ele>
        <time>2017-08-09T09:23:55Z</time>
      </trkpt>
      <trkpt lat="45.98104" lon="4.79765">
        <ele>224</ele>
        <time>2017-08-09T09:23:56Z</time>
      </trkpt>
      <trkpt lat="45.98109" lon="4.79764">
        <ele>224</ele>
        <time>2017-08-09T09:23:57Z</time>
      </trkpt>
      <trkpt lat="45.98113" lon="4.79763">
        <ele>224</ele>
        <time>2017-08-09T09:23:58Z</time>
      </trkpt>
      <trkpt lat="45.98118" lon="4.79763">
        <ele>224</ele>
        <time>2017-08-09T09:23:59Z</time>
      </trkpt>
      <trkpt lat="45.98123" lon="4.79762">
        <ele>224</ele>
        <time>2017-08-09T09:24:00Z</time>
      </trkpt>
      <trkpt lat="45.98127" lon="4.79761">
        <ele>224</ele>
        <time>2017-08-09T09:24:01Z</time>
      </trkpt>
      <trkpt lat="45.98132" lon="4.79761">
        <ele>224</ele>
        <time>2017-08-09T09:24:02Z</time>
      </trkpt>
      <trkpt lat="45.98137" lon="4.79761">
        <ele>224</ele>
        <time>2017-08-09T09:24:03Z</time>
      </trkpt>
      <trkpt lat="45.98142" lon="4.7976">
        <ele>224</ele>
        <time>2017-08-09T09:24:04Z</time>
      </trkpt>
      <trkpt lat="45.9815" lon="4.7976">
        <ele>225</ele>
        <time>2017-08-09T09:24:06Z</time>
      </trkpt>
      <trkpt lat="45.98154" lon="4.7976">
        <ele>225</ele>
        <time>2017-08-09T09:24:07Z</time>
      </trkpt>
      <trkpt lat="45.98161" lon="4.79763">
        <ele>225</ele>
        <time>2017-08-09T09:24:09Z</time>
      </trkpt>
      <trkpt lat="45.98165" lon="4.79766">
        <ele>225</ele>
        <time>2017-08-09T09:24:10Z</time>
      </trkpt>
      <trkpt lat="45.98171" lon="4.79771">
        <ele>226</ele>
        <time>2017-08-09T09:24:12Z</time>
      </trkpt>
      <trkpt lat="45.98173" lon="4.79774">
        <ele>226</ele>
        <time>2017-08-09T09:24:13Z</time>
      </trkpt>
      <trkpt lat="45.98177" lon="4.79781">
        <ele>226</ele>
        <time>2017-08-09T09:24:15Z</time>
      </trkpt>
      <trkpt lat="45.98178" lon="4.79786">
        <ele>226</ele>
        <time>2017-08-09T09:24:16Z</time>
      </trkpt>
      <trkpt lat="45.9818" lon="4.79795">
        <ele>226</ele>
        <time>2017-08-09T09:24:18Z</time>
      </trkpt>
      <trkpt lat="45.98182" lon="4.79799">
        <ele>226</ele>
        <time>2017-08-09T09:24:19Z</time>
      </trkpt>
      <trkpt lat="45.98184" lon="4.79809">
        <ele>225</ele>
        <time>2017-08-09T09:24:21Z</time>
      </trkpt>
      <trkpt lat="45.98186" lon="4.79814">
        <ele>225</ele>
        <time>2017-08-09T09:24:22Z</time>
      </trkpt>
      <trkpt lat="45.98188" lon="4.7982">
        <ele>225</ele>
        <time>2017-08-09T09:24:23Z</time>
      </trkpt>
      <trkpt lat="45.9819" lon="4.79826">
        <ele>225</ele>
        <time>2017-08-09T09:24:24Z</time>
      </trkpt>
      <trkpt lat="45.98193" lon="4.79833">
        <ele>225</ele>
        <time>2017-08-09T09:24:25Z</time>
      </trkpt>
      <trkpt lat="45.98195" lon="4.7984">
        <ele>225</ele>
        <time>2017-08-09T09:24:26Z</time>
      </trkpt>
      <trkpt lat="45.98197" lon="4.79847">
        <ele>225</ele>
        <time>2017-08-09T09:24:27Z</time>
      </trkpt>
      <trkpt lat="45.98199" lon="4.79854">
        <ele>225</ele>
        <time>2017-08-09T09:24:28Z</time>
      </trkpt>
      <trkpt lat="45.98202" lon="4.79861">
        <ele>225</ele>
        <time>2017-08-09T09:24:29Z</time>
      </trkpt>
      <trkpt lat="45.98205" lon="4.79867">
        <ele>225</ele>
        <time>2017-08-09T09:24:30Z</time>
      </trkpt>
      <trkpt lat="45.98207" lon="4.79875">
        <ele>225</ele>
        <time>2017-08-09T09:24:31Z</time>
      </trkpt>
      <trkpt lat="45.98209" lon="4.79882">
        <ele>225</ele>
        <time>2017-08-09T09:24:32Z</time>
      </trkpt>
      <trkpt lat="45.98211" lon="4.7989">
        <ele>225</ele>
        <time>2017-08-09T09:24:33Z</time>
      </trkpt>
      <trkpt lat="45.98213" lon="4.79897">
        <ele>225</ele>
        <time>2017-08-09T09:24:34Z</time>
      </trkpt>
      <trkpt lat="45.98216" lon="4.79903">
        <ele>225</ele>
        <time>2017-08-09T09:24:35Z</time>
      </trkpt>
      <trkpt lat="45.98218" lon="4.79909">
        <ele>225</ele>
        <time>2017-08-09T09:24:36Z</time>
      </trkpt>
      <trkpt lat="45.9822" lon="4.79916">
        <ele>225</ele>
        <time>2017-08-09T09:24:37Z</time>
      </trkpt>
      <trkpt lat="45.98222" lon="4.79922">
        <ele>225</ele>
        <time>2017-08-09T09:24:38Z</time>
      </trkpt>
      <trkpt lat="45.98224" lon="4.79928">
        <ele>225</ele>
        <time>2017-08-09T09:24:39Z</time>
      </trkpt>
      <trkpt lat="45.98226" lon="4.79934">
        <ele>225</ele>
        <time>2017-08-09T09:24:40Z</time>
      </trkpt>
      <trkpt lat="45.98229" lon="4.79946">
        <ele>225</ele>
        <time>2017-08-09T09:24:42Z</time>
      </trkpt>
      <trkpt lat="45.98232" lon="4.79951">
        <ele>225</ele>
        <time>2017-08-09T09:24:43Z</time>
      </trkpt>
      <trkpt lat="45.98235" lon="4.79957">
        <ele>225</ele>
        <time>2017-08-09T09:24:44Z</time>
      </trkpt>
      <trkpt lat="45.98237" lon="4.79963">
        <ele>225</ele>
        <time>2017-08-09T09:24:45Z</time>
      </trkpt>
      <trkpt lat="45.98239" lon="4.7997">
        <ele>225</ele>
        <time>2017-08-09T09:24:46Z</time>
      </trkpt>
      <trkpt lat="45.98242" lon="4.79977">
        <ele>225</ele>
        <time>2017-08-09T09:24:47Z</time>
      </trkpt>
      <trkpt lat="45.98243" lon="4.79983">
        <ele>225</ele>
        <time>2017-08-09T09:24:48Z</time>
      </trkpt>
      <trkpt lat="45.98245" lon="4.7999">
        <ele>226</ele>
        <time>2017-08-09T09:24:49Z</time>
      </trkpt>
      <trkpt lat="45.98248" lon="4.79996">
        <ele>226</ele>
        <time>2017-08-09T09:24:50Z</time>
      </trkpt>
      <trkpt lat="45.9825" lon="4.80001">
        <ele>226</ele>
        <time>2017-08-09T09:24:51Z</time>
      </trkpt>
      <trkpt lat="45.98253" lon="4.80013">
        <ele>227</ele>
        <time>2017-08-09T09:24:53Z</time>
      </trkpt>
      <trkpt lat="45.98256" lon="4.80018">
        <ele>228</ele>
        <time>2017-08-09T09:24:54Z</time>
      </trkpt>
      <trkpt lat="45.98259" lon="4.80028">
        <ele>228</ele>
        <time>2017-08-09T09:24:56Z</time>
      </trkpt>
      <trkpt lat="45.98261" lon="4.80033">
        <ele>228</ele>
        <time>2017-08-09T09:24:57Z</time>
      </trkpt>
      <trkpt lat="45.98264" lon="4.80043">
        <ele>228</ele>
        <time>2017-08-09T09:24:59Z</time>
      </trkpt>
      <trkpt lat="45.98267" lon="4.80049">
        <ele>228</ele>
        <time>2017-08-09T09:25:00Z</time>
      </trkpt>
      <trkpt lat="45.98269" lon="4.80055">
        <ele>228</ele>
        <time>2017-08-09T09:25:01Z</time>
      </trkpt>
      <trkpt lat="45.98271" lon="4.80062">
        <ele>228</ele>
        <time>2017-08-09T09:25:02Z</time>
      </trkpt>
      <trkpt lat="45.98274" lon="4.80069">
        <ele>228</ele>
        <time>2017-08-09T09:25:03Z</time>
      </trkpt>
      <trkpt lat="45.98276" lon="4.80076">
        <ele>228</ele>
        <time>2017-08-09T09:25:04Z</time>
      </trkpt>
      <trkpt lat="45.98279" lon="4.80081">
        <ele>229</ele>
        <time>2017-08-09T09:25:05Z</time>
      </trkpt>
      <trkpt lat="45.9828" lon="4.80087">
        <ele>228</ele>
        <time>2017-08-09T09:25:06Z</time>
      </trkpt>
      <trkpt lat="45.98282" lon="4.80093">
        <ele>228</ele>
        <time>2017-08-09T09:25:07Z</time>
      </trkpt>
      <trkpt lat="45.98285" lon="4.80099">
        <ele>228</ele>
        <time>2017-08-09T09:25:08Z</time>
      </trkpt>
      <trkpt lat="45.98287" lon="4.80105">
        <ele>228</ele>
        <time>2017-08-09T09:25:09Z</time>
      </trkpt>
      <trkpt lat="45.98289" lon="4.80111">
        <ele>228</ele>
        <time>2017-08-09T09:25:10Z</time>
      </trkpt>
      <trkpt lat="45.98291" lon="4.80117">
        <ele>228</ele>
        <time>2017-08-09T09:25:11Z</time>
      </trkpt>
      <trkpt lat="45.98293" lon="4.80123">
        <ele>228</ele>
        <time>2017-08-09T09:25:12Z</time>
      </trkpt>
      <trkpt lat="45.98296" lon="4.8013">
        <ele>228</ele>
        <time>2017-08-09T09:25:13Z</time>
      </trkpt>
      <trkpt lat="45.98299" lon="4.80137">
        <ele>228</ele>
        <time>2017-08-09T09:25:14Z</time>
      </trkpt>
      <trkpt lat="45.98301" lon="4.80144">
        <ele>228</ele>
        <time>2017-08-09T09:25:15Z</time>
      </trkpt>
      <trkpt lat="45.98303" lon="4.8015">
        <ele>228</ele>
        <time>2017-08-09T09:25:16Z</time>
      </trkpt>
      <trkpt lat="45.98305" lon="4.80157">
        <ele>228</ele>
        <time>2017-08-09T09:25:17Z</time>
      </trkpt>
      <trkpt lat="45.98307" lon="4.80164">
        <ele>228</ele>
        <time>2017-08-09T09:25:18Z</time>
      </trkpt>
      <trkpt lat="45.98309" lon="4.8017">
        <ele>227</ele>
        <time>2017-08-09T09:25:19Z</time>
      </trkpt>
      <trkpt lat="45.98311" lon="4.80176">
        <ele>227</ele>
        <time>2017-08-09T09:25:20Z</time>
      </trkpt>
      <trkpt lat="45.98313" lon="4.80182">
        <ele>227</ele>
        <time>2017-08-09T09:25:21Z</time>
      </trkpt>
      <trkpt lat="45.98315" lon="4.80188">
        <ele>227</ele>
        <time>2017-08-09T09:25:22Z</time>
      </trkpt>
      <trkpt lat="45.98317" lon="4.80194">
        <ele>227</ele>
        <time>2017-08-09T09:25:23Z</time>
      </trkpt>
      <trkpt lat="45.9832" lon="4.802">
        <ele>227</ele>
        <time>2017-08-09T09:25:24Z</time>
      </trkpt>
      <trkpt lat="45.98322" lon="4.80211">
        <ele>227</ele>
        <time>2017-08-09T09:25:26Z</time>
      </trkpt>
      <trkpt lat="45.98323" lon="4.80217">
        <ele>227</ele>
        <time>2017-08-09T09:25:27Z</time>
      </trkpt>
      <trkpt lat="45.98322" lon="4.80223">
        <ele>227</ele>
        <time>2017-08-09T09:25:28Z</time>
      </trkpt>
      <trkpt lat="45.98321" lon="4.8023">
        <ele>227</ele>
        <time>2017-08-09T09:25:29Z</time>
      </trkpt>
      <trkpt lat="45.9832" lon="4.80236">
        <ele>228</ele>
        <time>2017-08-09T09:25:30Z</time>
      </trkpt>
      <trkpt lat="45.98318" lon="4.80243">
        <ele>228</ele>
        <time>2017-08-09T09:25:31Z</time>
      </trkpt>
      <trkpt lat="45.98317" lon="4.8025">
        <ele>228</ele>
        <time>2017-08-09T09:25:32Z</time>
      </trkpt>
      <trkpt lat="45.98316" lon="4.80257">
        <ele>227</ele>
        <time>2017-08-09T09:25:33Z</time>
      </trkpt>
      <trkpt lat="45.98314" lon="4.80264">
        <ele>227</ele>
        <time>2017-08-09T09:25:34Z</time>
      </trkpt>
      <trkpt lat="45.98312" lon="4.80272">
        <ele>226</ele>
        <time>2017-08-09T09:25:35Z</time>
      </trkpt>
      <trkpt lat="45.9831" lon="4.8028">
        <ele>226</ele>
        <time>2017-08-09T09:25:36Z</time>
      </trkpt>
      <trkpt lat="45.98309" lon="4.80288">
        <ele>226</ele>
        <time>2017-08-09T09:25:37Z</time>
      </trkpt>
      <trkpt lat="45.98307" lon="4.80295">
        <ele>226</ele>
        <time>2017-08-09T09:25:38Z</time>
      </trkpt>
      <trkpt lat="45.98305" lon="4.80303">
        <ele>226</ele>
        <time>2017-08-09T09:25:39Z</time>
      </trkpt>
      <trkpt lat="45.98303" lon="4.8031">
        <ele>226</ele>
        <time>2017-08-09T09:25:40Z</time>
      </trkpt>
      <trkpt lat="45.98301" lon="4.80319">
        <ele>226</ele>
        <time>2017-08-09T09:25:41Z</time>
      </trkpt>
      <trkpt lat="45.98299" lon="4.80328">
        <ele>226</ele>
        <time>2017-08-09T09:25:42Z</time>
      </trkpt>
      <trkpt lat="45.98298" lon="4.80337">
        <ele>225</ele>
        <time>2017-08-09T09:25:43Z</time>
      </trkpt>
      <trkpt lat="45.98295" lon="4.80345">
        <ele>225</ele>
        <time>2017-08-09T09:25:44Z</time>
      </trkpt>
      <trkpt lat="45.98293" lon="4.80354">
        <ele>224</ele>
        <time>2017-08-09T09:25:45Z</time>
      </trkpt>
      <trkpt lat="45.98291" lon="4.80362">
        <ele>224</ele>
        <time>2017-08-09T09:25:46Z</time>
      </trkpt>
      <trkpt lat="45.9829" lon="4.80372">
        <ele>224</ele>
        <time>2017-08-09T09:25:47Z</time>
      </trkpt>
      <trkpt lat="45.98288" lon="4.80382">
        <ele>224</ele>
        <time>2017-08-09T09:25:48Z</time>
      </trkpt>
      <trkpt lat="45.98286" lon="4.80391">
        <ele>224</ele>
        <time>2017-08-09T09:25:49Z</time>
      </trkpt>
      <trkpt lat="45.98285" lon="4.80401">
        <ele>224</ele>
        <time>2017-08-09T09:25:50Z</time>
      </trkpt>
      <trkpt lat="45.98283" lon="4.80411">
        <ele>224</ele>
        <time>2017-08-09T09:25:51Z</time>
      </trkpt>
      <trkpt lat="45.98281" lon="4.8042">
        <ele>223</ele>
        <time>2017-08-09T09:25:52Z</time>
      </trkpt>
      <trkpt lat="45.98279" lon="4.8043">
        <ele>223</ele>
        <time>2017-08-09T09:25:53Z</time>
      </trkpt>
      <trkpt lat="45.98277" lon="4.8044">
        <ele>223</ele>
        <time>2017-08-09T09:25:54Z</time>
      </trkpt>
      <trkpt lat="45.98275" lon="4.80449">
        <ele>223</ele>
        <time>2017-08-09T09:25:55Z</time>
      </trkpt>
      <trkpt lat="45.98273" lon="4.80458">
        <ele>223</ele>
        <time>2017-08-09T09:25:56Z</time>
      </trkpt>
      <trkpt lat="45.9827" lon="4.80467">
        <ele>223</ele>
        <time>2017-08-09T09:25:57Z</time>
      </trkpt>
      <trkpt lat="45.98268" lon="4.80476">
        <ele>223</ele>
        <time>2017-08-09T09:25:58Z</time>
      </trkpt>
      <trkpt lat="45.98266" lon="4.80485">
        <ele>223</ele>
        <time>2017-08-09T09:25:59Z</time>
      </trkpt>
      <trkpt lat="45.98264" lon="4.80494">
        <ele>223</ele>
        <time>2017-08-09T09:26:00Z</time>
      </trkpt>
      <trkpt lat="45.98263" lon="4.80503">
        <ele>223</ele>
        <time>2017-08-09T09:26:01Z</time>
      </trkpt>
      <trkpt lat="45.98262" lon="4.80511">
        <ele>223</ele>
        <time>2017-08-09T09:26:02Z</time>
      </trkpt>
      <trkpt lat="45.9826" lon="4.80518">
        <ele>223</ele>
        <time>2017-08-09T09:26:03Z</time>
      </trkpt>
      <trkpt lat="45.98257" lon="4.80524">
        <ele>223</ele>
        <time>2017-08-09T09:26:04Z</time>
      </trkpt>
      <trkpt lat="45.98254" lon="4.80531">
        <ele>224</ele>
        <time>2017-08-09T09:26:05Z</time>
      </trkpt>
      <trkpt lat="45.98253" lon="4.80539">
        <ele>224</ele>
        <time>2017-08-09T09:26:06Z</time>
      </trkpt>
      <trkpt lat="45.9825" lon="4.80545">
        <ele>224</ele>
        <time>2017-08-09T09:26:07Z</time>
      </trkpt>
      <trkpt lat="45.98249" lon="4.80554">
        <ele>223</ele>
        <time>2017-08-09T09:26:08Z</time>
      </trkpt>
      <trkpt lat="45.98247" lon="4.80561">
        <ele>223</ele>
        <time>2017-08-09T09:26:09Z</time>
      </trkpt>
      <trkpt lat="45.98245" lon="4.80568">
        <ele>224</ele>
        <time>2017-08-09T09:26:10Z</time>
      </trkpt>
      <trkpt lat="45.98244" lon="4.80574">
        <ele>224</ele>
        <time>2017-08-09T09:26:11Z</time>
      </trkpt>
      <trkpt lat="45.98241" lon="4.80581">
        <ele>224</ele>
        <time>2017-08-09T09:26:12Z</time>
      </trkpt>
      <trkpt lat="45.98239" lon="4.80588">
        <ele>224</ele>
        <time>2017-08-09T09:26:13Z</time>
      </trkpt>
      <trkpt lat="45.98238" lon="4.80594">
        <ele>224</ele>
        <time>2017-08-09T09:26:14Z</time>
      </trkpt>
      <trkpt lat="45.98236" lon="4.80601">
        <ele>224</ele>
        <time>2017-08-09T09:26:15Z</time>
      </trkpt>
      <trkpt lat="45.98234" lon="4.80609">
        <ele>224</ele>
        <time>2017-08-09T09:26:16Z</time>
      </trkpt>
      <trkpt lat="45.98231" lon="4.80616">
        <ele>224</ele>
        <time>2017-08-09T09:26:17Z</time>
      </trkpt>
      <trkpt lat="45.98229" lon="4.80624">
        <ele>224</ele>
        <time>2017-08-09T09:26:18Z</time>
      </trkpt>
      <trkpt lat="45.98227" lon="4.8063">
        <ele>224</ele>
        <time>2017-08-09T09:26:19Z</time>
      </trkpt>
      <trkpt lat="45.98225" lon="4.80637">
        <ele>224</ele>
        <time>2017-08-09T09:26:20Z</time>
      </trkpt>
      <trkpt lat="45.98223" lon="4.80644">
        <ele>224</ele>
        <time>2017-08-09T09:26:21Z</time>
      </trkpt>
      <trkpt lat="45.9822" lon="4.8065">
        <ele>224</ele>
        <time>2017-08-09T09:26:22Z</time>
      </trkpt>
      <trkpt lat="45.98218" lon="4.80656">
        <ele>224</ele>
        <time>2017-08-09T09:26:23Z</time>
      </trkpt>
      <trkpt lat="45.98213" lon="4.80663">
        <ele>224</ele>
        <time>2017-08-09T09:26:25Z</time>
      </trkpt>
      <trkpt lat="45.98209" lon="4.80666">
        <ele>224</ele>
        <time>2017-08-09T09:26:26Z</time>
      </trkpt>
      <trkpt lat="45.98201" lon="4.80671">
        <ele>225</ele>
        <time>2017-08-09T09:26:28Z</time>
      </trkpt>
      <trkpt lat="45.98197" lon="4.80673">
        <ele>225</ele>
        <time>2017-08-09T09:26:29Z</time>
      </trkpt>
      <trkpt lat="45.98189" lon="4.80676">
        <ele>225</ele>
        <time>2017-08-09T09:26:31Z</time>
      </trkpt>
      <trkpt lat="45.98185" lon="4.80677">
        <ele>225</ele>
        <time>2017-08-09T09:26:32Z</time>
      </trkpt>
      <trkpt lat="45.98177" lon="4.80679">
        <ele>225</ele>
        <time>2017-08-09T09:26:34Z</time>
      </trkpt>
      <trkpt lat="45.98172" lon="4.80681">
        <ele>225</ele>
        <time>2017-08-09T09:26:35Z</time>
      </trkpt>
      <trkpt lat="45.98167" lon="4.80683">
        <ele>225</ele>
        <time>2017-08-09T09:26:36Z</time>
      </trkpt>
      <trkpt lat="45.98163" lon="4.80684">
        <ele>227</ele>
        <time>2017-08-09T09:26:37Z</time>
      </trkpt>
      <trkpt lat="45.98158" lon="4.80685">
        <ele>227</ele>
        <time>2017-08-09T09:26:38Z</time>
      </trkpt>
      <trkpt lat="45.98154" lon="4.80686">
        <ele>227</ele>
        <time>2017-08-09T09:26:39Z</time>
      </trkpt>
      <trkpt lat="45.98149" lon="4.80686">
        <ele>227</ele>
        <time>2017-08-09T09:26:40Z</time>
      </trkpt>
      <trkpt lat="45.98145" lon="4.80687">
        <ele>228</ele>
        <time>2017-08-09T09:26:41Z</time>
      </trkpt>
      <trkpt lat="45.98136" lon="4.80687">
        <ele>228</ele>
        <time>2017-08-09T09:26:43Z</time>
      </trkpt>
      <trkpt lat="45.98131" lon="4.80687">
        <ele>228</ele>
        <time>2017-08-09T09:26:44Z</time>
      </trkpt>
      <trkpt lat="45.98127" lon="4.80688">
        <ele>228</ele>
        <time>2017-08-09T09:26:45Z</time>
      </trkpt>
      <trkpt lat="45.98122" lon="4.80688">
        <ele>228</ele>
        <time>2017-08-09T09:26:46Z</time>
      </trkpt>
      <trkpt lat="45.98114" lon="4.80687">
        <ele>228</ele>
        <time>2017-08-09T09:26:48Z</time>
      </trkpt>
      <trkpt lat="45.9811" lon="4.80687">
        <ele>228</ele>
        <time>2017-08-09T09:26:49Z</time>
      </trkpt>
      <trkpt lat="45.98102" lon="4.80687">
        <ele>228</ele>
        <time>2017-08-09T09:26:51Z</time>
      </trkpt>
      <trkpt lat="45.98098" lon="4.80687">
        <ele>228</ele>
        <time>2017-08-09T09:26:52Z</time>
      </trkpt>
      <trkpt lat="45.98089" lon="4.80687">
        <ele>228</ele>
        <time>2017-08-09T09:26:54Z</time>
      </trkpt>
      <trkpt lat="45.98085" lon="4.80688">
        <ele>228</ele>
        <time>2017-08-09T09:26:55Z</time>
      </trkpt>
      <trkpt lat="45.98077" lon="4.80688">
        <ele>229</ele>
        <time>2017-08-09T09:26:57Z</time>
      </trkpt>
      <trkpt lat="45.98073" lon="4.80688">
        <ele>230</ele>
        <time>2017-08-09T09:26:58Z</time>
      </trkpt>
      <trkpt lat="45.98066" lon="4.80689">
        <ele>230</ele>
        <time>2017-08-09T09:27:00Z</time>
      </trkpt>
      <trkpt lat="45.98063" lon="4.80689">
        <ele>230</ele>
        <time>2017-08-09T09:27:01Z</time>
      </trkpt>
      <trkpt lat="45.98056" lon="4.8069">
        <ele>230</ele>
        <time>2017-08-09T09:27:03Z</time>
      </trkpt>
      <trkpt lat="45.98053" lon="4.8069">
        <ele>230</ele>
        <time>2017-08-09T09:27:04Z</time>
      </trkpt>
      <trkpt lat="45.98046" lon="4.80693">
        <ele>230</ele>
        <time>2017-08-09T09:27:07Z</time>
      </trkpt>
      <trkpt lat="45.98043" lon="4.80694">
        <ele>230</ele>
        <time>2017-08-09T09:27:08Z</time>
      </trkpt>
      <trkpt lat="45.98034" lon="4.80697">
        <ele>230</ele>
        <time>2017-08-09T09:27:11Z</time>
      </trkpt>
      <trkpt lat="45.98032" lon="4.80699">
        <ele>230</ele>
        <time>2017-08-09T09:27:12Z</time>
      </trkpt>
      <trkpt lat="45.98028" lon="4.8071">
        <ele>231</ele>
        <time>2017-08-09T09:27:15Z</time>
      </trkpt>
      <trkpt lat="45.98029" lon="4.80714">
        <ele>231</ele>
        <time>2017-08-09T09:27:16Z</time>
      </trkpt>
      <trkpt lat="45.9803" lon="4.80726">
        <ele>231</ele>
        <time>2017-08-09T09:27:20Z</time>
      </trkpt>
      <trkpt lat="45.98032" lon="4.80729">
        <ele>231</ele>
        <time>2017-08-09T09:27:21Z</time>
      </trkpt>
      <trkpt lat="45.98035" lon="4.8074">
        <ele>231</ele>
        <time>2017-08-09T09:27:25Z</time>
      </trkpt>
      <trkpt lat="45.98036" lon="4.80743">
        <ele>231</ele>
        <time>2017-08-09T09:27:26Z</time>
      </trkpt>
      <trkpt lat="45.98038" lon="4.80753">
        <ele>233</ele>
        <time>2017-08-09T09:27:29Z</time>
      </trkpt>
      <trkpt lat="45.98038" lon="4.80756">
        <ele>233</ele>
        <time>2017-08-09T09:27:30Z</time>
      </trkpt>
      <trkpt lat="45.9804" lon="4.80766">
        <ele>233</ele>
        <time>2017-08-09T09:27:33Z</time>
      </trkpt>
      <trkpt lat="45.98041" lon="4.8077">
        <ele>233</ele>
        <time>2017-08-09T09:27:34Z</time>
      </trkpt>
      <trkpt lat="45.98042" lon="4.8078">
        <ele>233</ele>
        <time>2017-08-09T09:27:37Z</time>
      </trkpt>
      <trkpt lat="45.98042" lon="4.80784">
        <ele>233</ele>
        <time>2017-08-09T09:27:38Z</time>
      </trkpt>
      <trkpt lat="45.98045" lon="4.80795">
        <ele>234</ele>
        <time>2017-08-09T09:27:41Z</time>
      </trkpt>
      <trkpt lat="45.98046" lon="4.80799">
        <ele>234</ele>
        <time>2017-08-09T09:27:42Z</time>
      </trkpt>
      <trkpt lat="45.98051" lon="4.8081">
        <ele>234</ele>
        <time>2017-08-09T09:27:45Z</time>
      </trkpt>
      <trkpt lat="45.98051" lon="4.80813">
        <ele>234</ele>
        <time>2017-08-09T09:27:46Z</time>
      </trkpt>
      <trkpt lat="45.98053" lon="4.80824">
        <ele>234</ele>
        <time>2017-08-09T09:27:49Z</time>
      </trkpt>
      <trkpt lat="45.98053" lon="4.80827">
        <ele>234</ele>
        <time>2017-08-09T09:27:50Z</time>
      </trkpt>
      <trkpt lat="45.98053" lon="4.80838">
        <ele>236</ele>
        <time>2017-08-09T09:27:53Z</time>
      </trkpt>
      <trkpt lat="45.98054" lon="4.80841">
        <ele>236</ele>
        <time>2017-08-09T09:27:54Z</time>
      </trkpt>
      <trkpt lat="45.98056" lon="4.80852">
        <ele>236</ele>
        <time>2017-08-09T09:27:57Z</time>
      </trkpt>
      <trkpt lat="45.98058" lon="4.80856">
        <ele>236</ele>
        <time>2017-08-09T09:27:58Z</time>
      </trkpt>
      <trkpt lat="45.98061" lon="4.80864">
        <ele>237</ele>
        <time>2017-08-09T09:28:00Z</time>
      </trkpt>
      <trkpt lat="45.98062" lon="4.80868">
        <ele>237</ele>
        <time>2017-08-09T09:28:01Z</time>
      </trkpt>
      <trkpt lat="45.98064" lon="4.80879">
        <ele>237</ele>
        <time>2017-08-09T09:28:04Z</time>
      </trkpt>
      <trkpt lat="45.98064" lon="4.80883">
        <ele>237</ele>
        <time>2017-08-09T09:28:05Z</time>
      </trkpt>
      <trkpt lat="45.98067" lon="4.80895">
        <ele>238</ele>
        <time>2017-08-09T09:28:08Z</time>
      </trkpt>
      <trkpt lat="45.98068" lon="4.809">
        <ele>238</ele>
        <time>2017-08-09T09:28:09Z</time>
      </trkpt>
      <trkpt lat="45.9807" lon="4.8091">
        <ele>238</ele>
        <time>2017-08-09T09:28:11Z</time>
      </trkpt>
      <trkpt lat="45.98071" lon="4.80915">
        <ele>238</ele>
        <time>2017-08-09T09:28:12Z</time>
      </trkpt>
      <trkpt lat="45.98073" lon="4.80923">
        <ele>240</ele>
        <time>2017-08-09T09:28:14Z</time>
      </trkpt>
      <trkpt lat="45.98074" lon="4.80927">
        <ele>240</ele>
        <time>2017-08-09T09:28:15Z</time>
      </trkpt>
      <trkpt lat="45.98077" lon="4.80938">
        <ele>240</ele>
        <time>2017-08-09T09:28:18Z</time>
      </trkpt>
      <trkpt lat="45.98077" lon="4.80942">
        <ele>240</ele>
        <time>2017-08-09T09:28:19Z</time>
      </trkpt>
      <trkpt lat="45.9808" lon="4.80951">
        <ele>241</ele>
        <time>2017-08-09T09:28:21Z</time>
      </trkpt>
      <trkpt lat="45.98081" lon="4.80955">
        <ele>241</ele>
        <time>2017-08-09T09:28:22Z</time>
      </trkpt>
      <trkpt lat="45.98084" lon="4.80963">
        <ele>239</ele>
        <time>2017-08-09T09:28:24Z</time>
      </trkpt>
      <trkpt lat="45.98085" lon="4.80968">
        <ele>239</ele>
        <time>2017-08-09T09:28:25Z</time>
      </trkpt>
      <trkpt lat="45.98088" lon="4.80976">
        <ele>239</ele>
        <time>2017-08-09T09:28:27Z</time>
      </trkpt>
      <trkpt lat="45.98089" lon="4.8098">
        <ele>240</ele>
        <time>2017-08-09T09:28:28Z</time>
      </trkpt>
      <trkpt lat="45.98093" lon="4.80991">
        <ele>240</ele>
        <time>2017-08-09T09:28:31Z</time>
      </trkpt>
      <trkpt lat="45.98094" lon="4.80995">
        <ele>240</ele>
        <time>2017-08-09T09:28:32Z</time>
      </trkpt>
      <trkpt lat="45.98098" lon="4.81004">
        <ele>242</ele>
        <time>2017-08-09T09:28:34Z</time>
      </trkpt>
      <trkpt lat="45.98099" lon="4.81008">
        <ele>242</ele>
        <time>2017-08-09T09:28:35Z</time>
      </trkpt>
      <trkpt lat="45.98103" lon="4.81018">
        <ele>242</ele>
        <time>2017-08-09T09:28:37Z</time>
      </trkpt>
      <trkpt lat="45.98104" lon="4.81022">
        <ele>242</ele>
        <time>2017-08-09T09:28:38Z</time>
      </trkpt>
      <trkpt lat="45.98108" lon="4.81032">
        <ele>242</ele>
        <time>2017-08-09T09:28:40Z</time>
      </trkpt>
      <trkpt lat="45.98109" lon="4.81037">
        <ele>242</ele>
        <time>2017-08-09T09:28:41Z</time>
      </trkpt>
      <trkpt lat="45.98113" lon="4.81048">
        <ele>243</ele>
        <time>2017-08-09T09:28:43Z</time>
      </trkpt>
      <trkpt lat="45.98114" lon="4.81053">
        <ele>243</ele>
        <time>2017-08-09T09:28:44Z</time>
      </trkpt>
      <trkpt lat="45.98118" lon="4.81063">
        <ele>243</ele>
        <time>2017-08-09T09:28:46Z</time>
      </trkpt>
      <trkpt lat="45.9812" lon="4.81068">
        <ele>243</ele>
        <time>2017-08-09T09:28:47Z</time>
      </trkpt>
      <trkpt lat="45.98123" lon="4.81076">
        <ele>243</ele>
        <time>2017-08-09T09:28:49Z</time>
      </trkpt>
      <trkpt lat="45.98125" lon="4.8108">
        <ele>243</ele>
        <time>2017-08-09T09:28:50Z</time>
      </trkpt>
      <trkpt lat="45.98128" lon="4.81089">
        <ele>245</ele>
        <time>2017-08-09T09:28:52Z</time>
      </trkpt>
      <trkpt lat="45.9813" lon="4.81093">
        <ele>245</ele>
        <time>2017-08-09T09:28:53Z</time>
      </trkpt>
      <trkpt lat="45.98134" lon="4.81101">
        <ele>245</ele>
        <time>2017-08-09T09:28:55Z</time>
      </trkpt>
      <trkpt lat="45.98136" lon="4.81106">
        <ele>245</ele>
        <time>2017-08-09T09:28:56Z</time>
      </trkpt>
      <trkpt lat="45.9814" lon="4.81117">
        <ele>245</ele>
        <time>2017-08-09T09:28:58Z</time>
      </trkpt>
      <trkpt lat="45.98142" lon="4.81122">
        <ele>245</ele>
        <time>2017-08-09T09:28:59Z</time>
      </trkpt>
      <trkpt lat="45.98145" lon="4.81131">
        <ele>245</ele>
        <time>2017-08-09T09:29:01Z</time>
      </trkpt>
      <trkpt lat="45.98147" lon="4.81135">
        <ele>245</ele>
        <time>2017-08-09T09:29:02Z</time>
      </trkpt>
      <trkpt lat="45.98151" lon="4.81143">
        <ele>245</ele>
        <time>2017-08-09T09:29:04Z</time>
      </trkpt>
      <trkpt lat="45.98152" lon="4.81147">
        <ele>245</ele>
        <time>2017-08-09T09:29:05Z</time>
      </trkpt>
      <trkpt lat="45.98157" lon="4.81157">
        <ele>245</ele>
        <time>2017-08-09T09:29:07Z</time>
      </trkpt>
      <trkpt lat="45.98159" lon="4.81162">
        <ele>245</ele>
        <time>2017-08-09T09:29:08Z</time>
      </trkpt>
      <trkpt lat="45.98162" lon="4.81172">
        <ele>245</ele>
        <time>2017-08-09T09:29:10Z</time>
      </trkpt>
      <trkpt lat="45.98163" lon="4.81178">
        <ele>246</ele>
        <time>2017-08-09T09:29:11Z</time>
      </trkpt>
      <trkpt lat="45.98166" lon="4.8119">
        <ele>246</ele>
        <time>2017-08-09T09:29:14Z</time>
      </trkpt>
      <trkpt lat="45.98166" lon="4.81194">
        <ele>246</ele>
        <time>2017-08-09T09:29:15Z</time>
      </trkpt>
      <trkpt lat="45.98167" lon="4.81207">
        <ele>246</ele>
        <time>2017-08-09T09:29:18Z</time>
      </trkpt>
      <trkpt lat="45.98168" lon="4.81212">
        <ele>246</ele>
        <time>2017-08-09T09:29:19Z</time>
      </trkpt>
      <trkpt lat="45.98169" lon="4.81223">
        <ele>246</ele>
        <time>2017-08-09T09:29:21Z</time>
      </trkpt>
      <trkpt lat="45.9817" lon="4.81228">
        <ele>246</ele>
        <time>2017-08-09T09:29:22Z</time>
      </trkpt>
      <trkpt lat="45.98172" lon="4.81238">
        <ele>247</ele>
        <time>2017-08-09T09:29:24Z</time>
      </trkpt>
      <trkpt lat="45.98174" lon="4.81243">
        <ele>247</ele>
        <time>2017-08-09T09:29:25Z</time>
      </trkpt>
      <trkpt lat="45.98176" lon="4.81255">
        <ele>247</ele>
        <time>2017-08-09T09:29:28Z</time>
      </trkpt>
      <trkpt lat="45.98177" lon="4.8126">
        <ele>247</ele>
        <time>2017-08-09T09:29:29Z</time>
      </trkpt>
      <trkpt lat="45.98177" lon="4.81268">
        <ele>247</ele>
        <time>2017-08-09T09:29:31Z</time>
      </trkpt>
      <trkpt lat="45.98178" lon="4.81274">
        <ele>247</ele>
        <time>2017-08-09T09:29:32Z</time>
      </trkpt>
      <trkpt lat="45.98178" lon="4.81284">
        <ele>247</ele>
        <time>2017-08-09T09:29:34Z</time>
      </trkpt>
      <trkpt lat="45.98179" lon="4.81289">
        <ele>247</ele>
        <time>2017-08-09T09:29:35Z</time>
      </trkpt>
      <trkpt lat="45.98181" lon="4.81299">
        <ele>247</ele>
        <time>2017-08-09T09:29:37Z</time>
      </trkpt>
      <trkpt lat="45.98182" lon="4.81304">
        <ele>247</ele>
        <time>2017-08-09T09:29:38Z</time>
      </trkpt>
      <trkpt lat="45.98184" lon="4.81314">
        <ele>247</ele>
        <time>2017-08-09T09:29:40Z</time>
      </trkpt>
      <trkpt lat="45.98185" lon="4.81321">
        <ele>247</ele>
        <time>2017-08-09T09:29:41Z</time>
      </trkpt>
      <trkpt lat="45.98188" lon="4.81332">
        <ele>247</ele>
        <time>2017-08-09T09:29:43Z</time>
      </trkpt>
      <trkpt lat="45.98188" lon="4.81337">
        <ele>248</ele>
        <time>2017-08-09T09:29:44Z</time>
      </trkpt>
      <trkpt lat="45.9819" lon="4.81346">
        <ele>248</ele>
        <time>2017-08-09T09:29:46Z</time>
      </trkpt>
      <trkpt lat="45.98191" lon="4.81351">
        <ele>248</ele>
        <time>2017-08-09T09:29:47Z</time>
      </trkpt>
      <trkpt lat="45.98192" lon="4.8136">
        <ele>248</ele>
        <time>2017-08-09T09:29:49Z</time>
      </trkpt>
      <trkpt lat="45.98193" lon="4.81365">
        <ele>248</ele>
        <time>2017-08-09T09:29:50Z</time>
      </trkpt>
      <trkpt lat="45.98196" lon="4.81375">
        <ele>248</ele>
        <time>2017-08-09T09:29:52Z</time>
      </trkpt>
      <trkpt lat="45.98197" lon="4.81381">
        <ele>248</ele>
        <time>2017-08-09T09:29:53Z</time>
      </trkpt>
      <trkpt lat="45.982" lon="4.81391">
        <ele>248</ele>
        <time>2017-08-09T09:29:55Z</time>
      </trkpt>
      <trkpt lat="45.98201" lon="4.81395">
        <ele>248</ele>
        <time>2017-08-09T09:29:56Z</time>
      </trkpt>
      <trkpt lat="45.98203" lon="4.81403">
        <ele>248</ele>
        <time>2017-08-09T09:29:58Z</time>
      </trkpt>
      <trkpt lat="45.98205" lon="4.81407">
        <ele>248</ele>
        <time>2017-08-09T09:29:59Z</time>
      </trkpt>
      <trkpt lat="45.98208" lon="4.81417">
        <ele>249</ele>
        <time>2017-08-09T09:30:01Z</time>
      </trkpt>
      <trkpt lat="45.9821" lon="4.81421">
        <ele>249</ele>
        <time>2017-08-09T09:30:02Z</time>
      </trkpt>
      <trkpt lat="45.98213" lon="4.81429">
        <ele>249</ele>
        <time>2017-08-09T09:30:04Z</time>
      </trkpt>
      <trkpt lat="45.98215" lon="4.81433">
        <ele>249</ele>
        <time>2017-08-09T09:30:05Z</time>
      </trkpt>
      <trkpt lat="45.98218" lon="4.8144">
        <ele>249</ele>
        <time>2017-08-09T09:30:07Z</time>
      </trkpt>
      <trkpt lat="45.98219" lon="4.81444">
        <ele>249</ele>
        <time>2017-08-09T09:30:08Z</time>
      </trkpt>
      <trkpt lat="45.98222" lon="4.81454">
        <ele>249</ele>
        <time>2017-08-09T09:30:10Z</time>
      </trkpt>
      <trkpt lat="45.98224" lon="4.81459">
        <ele>249</ele>
        <time>2017-08-09T09:30:11Z</time>
      </trkpt>
      <trkpt lat="45.98227" lon="4.81469">
        <ele>249</ele>
        <time>2017-08-09T09:30:13Z</time>
      </trkpt>
      <trkpt lat="45.98229" lon="4.81474">
        <ele>249</ele>
        <time>2017-08-09T09:30:14Z</time>
      </trkpt>
      <trkpt lat="45.98232" lon="4.81483">
        <ele>249</ele>
        <time>2017-08-09T09:30:16Z</time>
      </trkpt>
      <trkpt lat="45.98233" lon="4.81488">
        <ele>249</ele>
        <time>2017-08-09T09:30:17Z</time>
      </trkpt>
      <trkpt lat="45.98237" lon="4.81498">
        <ele>249</ele>
        <time>2017-08-09T09:30:19Z</time>
      </trkpt>
      <trkpt lat="45.98239" lon="4.81503">
        <ele>249</ele>
        <time>2017-08-09T09:30:20Z</time>
      </trkpt>
      <trkpt lat="45.98242" lon="4.81514">
        <ele>249</ele>
        <time>2017-08-09T09:30:22Z</time>
      </trkpt>
      <trkpt lat="45.98244" lon="4.81519">
        <ele>249</ele>
        <time>2017-08-09T09:30:23Z</time>
      </trkpt>
      <trkpt lat="45.98247" lon="4.8153">
        <ele>249</ele>
        <time>2017-08-09T09:30:25Z</time>
      </trkpt>
      <trkpt lat="45.98249" lon="4.81535">
        <ele>249</ele>
        <time>2017-08-09T09:30:26Z</time>
      </trkpt>
      <trkpt lat="45.98252" lon="4.81545">
        <ele>247</ele>
        <time>2017-08-09T09:30:28Z</time>
      </trkpt>
      <trkpt lat="45.98254" lon="4.81551">
        <ele>247</ele>
        <time>2017-08-09T09:30:29Z</time>
      </trkpt>
      <trkpt lat="45.98256" lon="4.81557">
        <ele>247</ele>
        <time>2017-08-09T09:30:30Z</time>
      </trkpt>
      <trkpt lat="45.98258" lon="4.81563">
        <ele>247</ele>
        <time>2017-08-09T09:30:31Z</time>
      </trkpt>
      <trkpt lat="45.98262" lon="4.81573">
        <ele>247</ele>
        <time>2017-08-09T09:30:33Z</time>
      </trkpt>
      <trkpt lat="45.98263" lon="4.81579">
        <ele>247</ele>
        <time>2017-08-09T09:30:34Z</time>
      </trkpt>
      <trkpt lat="45.98267" lon="4.81589">
        <ele>247</ele>
        <time>2017-08-09T09:30:36Z</time>
      </trkpt>
      <trkpt lat="45.98269" lon="4.81594">
        <ele>247</ele>
        <time>2017-08-09T09:30:37Z</time>
      </trkpt>
      <trkpt lat="45.98273" lon="4.81604">
        <ele>247</ele>
        <time>2017-08-09T09:30:39Z</time>
      </trkpt>
      <trkpt lat="45.98275" lon="4.81608">
        <ele>247</ele>
        <time>2017-08-09T09:30:40Z</time>
      </trkpt>
      <trkpt lat="45.98278" lon="4.81613">
        <ele>247</ele>
        <time>2017-08-09T09:30:41Z</time>
      </trkpt>
      <trkpt lat="45.98281" lon="4.81619">
        <ele>247</ele>
        <time>2017-08-09T09:30:42Z</time>
      </trkpt>
      <trkpt lat="45.98285" lon="4.81624">
        <ele>247</ele>
        <time>2017-08-09T09:30:43Z</time>
      </trkpt>
      <trkpt lat="45.98289" lon="4.81629">
        <ele>247</ele>
        <time>2017-08-09T09:30:44Z</time>
      </trkpt>
      <trkpt lat="45.98292" lon="4.81634">
        <ele>247</ele>
        <time>2017-08-09T09:30:45Z</time>
      </trkpt>
      <trkpt lat="45.98296" lon="4.81638">
        <ele>247</ele>
        <time>2017-08-09T09:30:46Z</time>
      </trkpt>
      <trkpt lat="45.983" lon="4.81642">
        <ele>247</ele>
        <time>2017-08-09T09:30:47Z</time>
      </trkpt>
      <trkpt lat="45.98303" lon="4.81646">
        <ele>246</ele>
        <time>2017-08-09T09:30:48Z</time>
      </trkpt>
      <trkpt lat="45.98311" lon="4.81653">
        <ele>246</ele>
        <time>2017-08-09T09:30:50Z</time>
      </trkpt>
      <trkpt lat="45.98315" lon="4.81655">
        <ele>246</ele>
        <time>2017-08-09T09:30:51Z</time>
      </trkpt>
      <trkpt lat="45.98323" lon="4.81661">
        <ele>246</ele>
        <time>2017-08-09T09:30:53Z</time>
      </trkpt>
      <trkpt lat="45.98326" lon="4.81664">
        <ele>246</ele>
        <time>2017-08-09T09:30:54Z</time>
      </trkpt>
      <trkpt lat="45.98334" lon="4.81668">
        <ele>246</ele>
        <time>2017-08-09T09:30:56Z</time>
      </trkpt>
      <trkpt lat="45.98338" lon="4.8167">
        <ele>246</ele>
        <time>2017-08-09T09:30:57Z</time>
      </trkpt>
      <trkpt lat="45.98342" lon="4.81672">
        <ele>245</ele>
        <time>2017-08-09T09:30:58Z</time>
      </trkpt>
      <trkpt lat="45.98347" lon="4.81674">
        <ele>245</ele>
        <time>2017-08-09T09:30:59Z</time>
      </trkpt>
      <trkpt lat="45.98352" lon="4.81675">
        <ele>245</ele>
        <time>2017-08-09T09:31:00Z</time>
      </trkpt>
      <trkpt lat="45.98358" lon="4.81674">
        <ele>245</ele>
        <time>2017-08-09T09:31:01Z</time>
      </trkpt>
      <trkpt lat="45.98363" lon="4.81674">
        <ele>244</ele>
        <time>2017-08-09T09:31:02Z</time>
      </trkpt>
      <trkpt lat="45.98368" lon="4.81673">
        <ele>244</ele>
        <time>2017-08-09T09:31:03Z</time>
      </trkpt>
      <trkpt lat="45.98373" lon="4.81672">
        <ele>244</ele>
        <time>2017-08-09T09:31:04Z</time>
      </trkpt>
      <trkpt lat="45.98379" lon="4.81671">
        <ele>244</ele>
        <time>2017-08-09T09:31:05Z</time>
      </trkpt>
      <trkpt lat="45.98384" lon="4.8167">
        <ele>243</ele>
        <time>2017-08-09T09:31:06Z</time>
      </trkpt>
      <trkpt lat="45.98391" lon="4.81669">
        <ele>243</ele>
        <time>2017-08-09T09:31:07Z</time>
      </trkpt>
      <trkpt lat="45.98396" lon="4.81667">
        <ele>243</ele>
        <time>2017-08-09T09:31:08Z</time>
      </trkpt>
      <trkpt lat="45.98402" lon="4.81666">
        <ele>242</ele>
        <time>2017-08-09T09:31:09Z</time>
      </trkpt>
      <trkpt lat="45.98408" lon="4.81665">
        <ele>241</ele>
        <time>2017-08-09T09:31:10Z</time>
      </trkpt>
      <trkpt lat="45.98413" lon="4.81664">
        <ele>241</ele>
        <time>2017-08-09T09:31:11Z</time>
      </trkpt>
      <trkpt lat="45.98418" lon="4.81664">
        <ele>241</ele>
        <time>2017-08-09T09:31:12Z</time>
      </trkpt>
      <trkpt lat="45.98423" lon="4.81666">
        <ele>240</ele>
        <time>2017-08-09T09:31:13Z</time>
      </trkpt>
      <trkpt lat="45.98432" lon="4.81669">
        <ele>240</ele>
        <time>2017-08-09T09:31:15Z</time>
      </trkpt>
      <trkpt lat="45.98436" lon="4.81672">
        <ele>240</ele>
        <time>2017-08-09T09:31:16Z</time>
      </trkpt>
      <trkpt lat="45.98442" lon="4.8168">
        <ele>239</ele>
        <time>2017-08-09T09:31:18Z</time>
      </trkpt>
      <trkpt lat="45.98445" lon="4.81684">
        <ele>239</ele>
        <time>2017-08-09T09:31:19Z</time>
      </trkpt>
      <trkpt lat="45.98448" lon="4.81689">
        <ele>239</ele>
        <time>2017-08-09T09:31:20Z</time>
      </trkpt>
      <trkpt lat="45.98451" lon="4.81694">
        <ele>239</ele>
        <time>2017-08-09T09:31:21Z</time>
      </trkpt>
      <trkpt lat="45.98454" lon="4.81699">
        <ele>239</ele>
        <time>2017-08-09T09:31:22Z</time>
      </trkpt>
      <trkpt lat="45.98458" lon="4.81705">
        <ele>239</ele>
        <time>2017-08-09T09:31:23Z</time>
      </trkpt>
      <trkpt lat="45.98461" lon="4.81711">
        <ele>239</ele>
        <time>2017-08-09T09:31:24Z</time>
      </trkpt>
      <trkpt lat="45.98465" lon="4.81717">
        <ele>239</ele>
        <time>2017-08-09T09:31:25Z</time>
      </trkpt>
      <trkpt lat="45.98469" lon="4.81723">
        <ele>239</ele>
        <time>2017-08-09T09:31:26Z</time>
      </trkpt>
      <trkpt lat="45.98475" lon="4.81728">
        <ele>239</ele>
        <time>2017-08-09T09:31:27Z</time>
      </trkpt>
      <trkpt lat="45.9848" lon="4.81734">
        <ele>238</ele>
        <time>2017-08-09T09:31:28Z</time>
      </trkpt>
      <trkpt lat="45.98486" lon="4.81739">
        <ele>238</ele>
        <time>2017-08-09T09:31:29Z</time>
      </trkpt>
      <trkpt lat="45.98492" lon="4.81746">
        <ele>238</ele>
        <time>2017-08-09T09:31:30Z</time>
      </trkpt>
      <trkpt lat="45.98498" lon="4.81753">
        <ele>237</ele>
        <time>2017-08-09T09:31:31Z</time>
      </trkpt>
      <trkpt lat="45.98503" lon="4.8176">
        <ele>237</ele>
        <time>2017-08-09T09:31:32Z</time>
      </trkpt>
      <trkpt lat="45.98509" lon="4.81767">
        <ele>237</ele>
        <time>2017-08-09T09:31:33Z</time>
      </trkpt>
      <trkpt lat="45.98515" lon="4.81775">
        <ele>238</ele>
        <time>2017-08-09T09:31:34Z</time>
      </trkpt>
      <trkpt lat="45.9852" lon="4.81783">
        <ele>238</ele>
        <time>2017-08-09T09:31:35Z</time>
      </trkpt>
      <trkpt lat="45.98526" lon="4.8179">
        <ele>238</ele>
        <time>2017-08-09T09:31:36Z</time>
      </trkpt>
      <trkpt lat="45.98531" lon="4.81797">
        <ele>238</ele>
        <time>2017-08-09T09:31:37Z</time>
      </trkpt>
      <trkpt lat="45.98537" lon="4.81803">
        <ele>238</ele>
        <time>2017-08-09T09:31:38Z</time>
      </trkpt>
      <trkpt lat="45.98543" lon="4.81807">
        <ele>238</ele>
        <time>2017-08-09T09:31:39Z</time>
      </trkpt>
      <trkpt lat="45.98549" lon="4.81808">
        <ele>238</ele>
        <time>2017-08-09T09:31:40Z</time>
      </trkpt>
      <trkpt lat="45.98555" lon="4.81807">
        <ele>238</ele>
        <time>2017-08-09T09:31:41Z</time>
      </trkpt>
      <trkpt lat="45.98561" lon="4.81804">
        <ele>238</ele>
        <time>2017-08-09T09:31:42Z</time>
      </trkpt>
      <trkpt lat="45.98566" lon="4.81799">
        <ele>238</ele>
        <time>2017-08-09T09:31:43Z</time>
      </trkpt>
      <trkpt lat="45.98569" lon="4.81794">
        <ele>238</ele>
        <time>2017-08-09T09:31:44Z</time>
      </trkpt>
      <trkpt lat="45.98573" lon="4.81789">
        <ele>238</ele>
        <time>2017-08-09T09:31:45Z</time>
      </trkpt>
      <trkpt lat="45.98577" lon="4.81785">
        <ele>238</ele>
        <time>2017-08-09T09:31:46Z</time>
      </trkpt>
      <trkpt lat="45.98582" lon="4.81781">
        <ele>238</ele>
        <time>2017-08-09T09:31:47Z</time>
      </trkpt>
      <trkpt lat="45.98586" lon="4.81777">
        <ele>238</ele>
        <time>2017-08-09T09:31:48Z</time>
      </trkpt>
      <trkpt lat="45.98589" lon="4.81774">
        <ele>238</ele>
        <time>2017-08-09T09:31:49Z</time>
      </trkpt>
      <trkpt lat="45.98593" lon="4.81771">
        <ele>238</ele>
        <time>2017-08-09T09:31:50Z</time>
      </trkpt>
      <trkpt lat="45.98598" lon="4.81768">
        <ele>238</ele>
        <time>2017-08-09T09:31:51Z</time>
      </trkpt>
      <trkpt lat="45.98602" lon="4.81766">
        <ele>238</ele>
        <time>2017-08-09T09:31:52Z</time>
      </trkpt>
      <trkpt lat="45.98606" lon="4.81763">
        <ele>238</ele>
        <time>2017-08-09T09:31:53Z</time>
      </trkpt>
      <trkpt lat="45.98611" lon="4.81761">
        <ele>238</ele>
        <time>2017-08-09T09:31:54Z</time>
      </trkpt>
      <trkpt lat="45.98615" lon="4.81759">
        <ele>238</ele>
        <time>2017-08-09T09:31:55Z</time>
      </trkpt>
      <trkpt lat="45.9862" lon="4.81757">
        <ele>238</ele>
        <time>2017-08-09T09:31:56Z</time>
      </trkpt>
      <trkpt lat="45.98625" lon="4.81755">
        <ele>238</ele>
        <time>2017-08-09T09:31:57Z</time>
      </trkpt>
      <trkpt lat="45.98633" lon="4.81753">
        <ele>238</ele>
        <time>2017-08-09T09:31:59Z</time>
      </trkpt>
      <trkpt lat="45.98637" lon="4.81752">
        <ele>238</ele>
        <time>2017-08-09T09:32:00Z</time>
      </trkpt>
      <trkpt lat="45.98645" lon="4.8175">
        <ele>237</ele>
        <time>2017-08-09T09:32:02Z</time>
      </trkpt>
      <trkpt lat="45.98648" lon="4.81748">
        <ele>237</ele>
        <time>2017-08-09T09:32:03Z</time>
      </trkpt>
      <trkpt lat="45.98653" lon="4.81746">
        <ele>237</ele>
        <time>2017-08-09T09:32:04Z</time>
      </trkpt>
      <trkpt lat="45.98657" lon="4.81744">
        <ele>237</ele>
        <time>2017-08-09T09:32:05Z</time>
      </trkpt>
      <trkpt lat="45.98662" lon="4.81743">
        <ele>238</ele>
        <time>2017-08-09T09:32:06Z</time>
      </trkpt>
      <trkpt lat="45.98667" lon="4.81742">
        <ele>238</ele>
        <time>2017-08-09T09:32:07Z</time>
      </trkpt>
      <trkpt lat="45.98671" lon="4.81741">
        <ele>238</ele>
        <time>2017-08-09T09:32:08Z</time>
      </trkpt>
      <trkpt lat="45.98676" lon="4.81739">
        <ele>238</ele>
        <time>2017-08-09T09:32:09Z</time>
      </trkpt>
      <trkpt lat="45.9868" lon="4.81737">
        <ele>238</ele>
        <time>2017-08-09T09:32:10Z</time>
      </trkpt>
      <trkpt lat="45.98685" lon="4.81737">
        <ele>238</ele>
        <time>2017-08-09T09:32:11Z</time>
      </trkpt>
      <trkpt lat="45.98693" lon="4.81735">
        <ele>238</ele>
        <time>2017-08-09T09:32:13Z</time>
      </trkpt>
      <trkpt lat="45.98697" lon="4.81734">
        <ele>239</ele>
        <time>2017-08-09T09:32:14Z</time>
      </trkpt>
      <trkpt lat="45.98705" lon="4.81731">
        <ele>239</ele>
        <time>2017-08-09T09:32:16Z</time>
      </trkpt>
      <trkpt lat="45.9871" lon="4.81729">
        <ele>239</ele>
        <time>2017-08-09T09:32:17Z</time>
      </trkpt>
      <trkpt lat="45.98715" lon="4.81728">
        <ele>239</ele>
        <time>2017-08-09T09:32:18Z</time>
      </trkpt>
      <trkpt lat="45.9872" lon="4.81729">
        <ele>239</ele>
        <time>2017-08-09T09:32:19Z</time>
      </trkpt>
      <trkpt lat="45.98724" lon="4.81731">
        <ele>239</ele>
        <time>2017-08-09T09:32:20Z</time>
      </trkpt>
      <trkpt lat="45.98728" lon="4.81734">
        <ele>239</ele>
        <time>2017-08-09T09:32:21Z</time>
      </trkpt>
      <trkpt lat="45.98735" lon="4.81743">
        <ele>240</ele>
        <time>2017-08-09T09:32:23Z</time>
      </trkpt>
      <trkpt lat="45.98737" lon="4.81748">
        <ele>240</ele>
        <time>2017-08-09T09:32:24Z</time>
      </trkpt>
      <trkpt lat="45.9874" lon="4.81754">
        <ele>240</ele>
        <time>2017-08-09T09:32:25Z</time>
      </trkpt>
      <trkpt lat="45.98743" lon="4.81759">
        <ele>240</ele>
        <time>2017-08-09T09:32:26Z</time>
      </trkpt>
      <trkpt lat="45.98748" lon="4.81768">
        <ele>240</ele>
        <time>2017-08-09T09:32:28Z</time>
      </trkpt>
      <trkpt lat="45.9875" lon="4.81773">
        <ele>241</ele>
        <time>2017-08-09T09:32:29Z</time>
      </trkpt>
      <trkpt lat="45.98755" lon="4.81783">
        <ele>241</ele>
        <time>2017-08-09T09:32:31Z</time>
      </trkpt>
      <trkpt lat="45.98757" lon="4.81788">
        <ele>241</ele>
        <time>2017-08-09T09:32:32Z</time>
      </trkpt>
      <trkpt lat="45.98759" lon="4.81794">
        <ele>240</ele>
        <time>2017-08-09T09:32:33Z</time>
      </trkpt>
      <trkpt lat="45.98762" lon="4.81799">
        <ele>240</ele>
        <time>2017-08-09T09:32:34Z</time>
      </trkpt>
      <trkpt lat="45.98765" lon="4.81805">
        <ele>240</ele>
        <time>2017-08-09T09:32:35Z</time>
      </trkpt>
      <trkpt lat="45.98768" lon="4.81811">
        <ele>240</ele>
        <time>2017-08-09T09:32:36Z</time>
      </trkpt>
      <trkpt lat="45.9877" lon="4.81817">
        <ele>240</ele>
        <time>2017-08-09T09:32:37Z</time>
      </trkpt>
      <trkpt lat="45.98773" lon="4.81823">
        <ele>240</ele>
        <time>2017-08-09T09:32:38Z</time>
      </trkpt>
      <trkpt lat="45.98775" lon="4.8183">
        <ele>240</ele>
        <time>2017-08-09T09:32:39Z</time>
      </trkpt>
      <trkpt lat="45.98779" lon="4.81835">
        <ele>239</ele>
        <time>2017-08-09T09:32:40Z</time>
      </trkpt>
      <trkpt lat="45.98782" lon="4.81842">
        <ele>239</ele>
        <time>2017-08-09T09:32:41Z</time>
      </trkpt>
      <trkpt lat="45.98785" lon="4.81849">
        <ele>239</ele>
        <time>2017-08-09T09:32:42Z</time>
      </trkpt>
      <trkpt lat="45.98789" lon="4.81855">
        <ele>239</ele>
        <time>2017-08-09T09:32:43Z</time>
      </trkpt>
      <trkpt lat="45.98791" lon="4.81862">
        <ele>239</ele>
        <time>2017-08-09T09:32:44Z</time>
      </trkpt>
      <trkpt lat="45.98794" lon="4.81869">
        <ele>239</ele>
        <time>2017-08-09T09:32:45Z</time>
      </trkpt>
      <trkpt lat="45.98796" lon="4.81876">
        <ele>239</ele>
        <time>2017-08-09T09:32:46Z</time>
      </trkpt>
      <trkpt lat="45.98798" lon="4.81883">
        <ele>239</ele>
        <time>2017-08-09T09:32:47Z</time>
      </trkpt>
      <trkpt lat="45.98799" lon="4.81891">
        <ele>239</ele>
        <time>2017-08-09T09:32:48Z</time>
      </trkpt>
      <trkpt lat="45.98801" lon="4.819">
        <ele>239</ele>
        <time>2017-08-09T09:32:49Z</time>
      </trkpt>
      <trkpt lat="45.98802" lon="4.81908">
        <ele>239</ele>
        <time>2017-08-09T09:32:50Z</time>
      </trkpt>
      <trkpt lat="45.98803" lon="4.81917">
        <ele>239</ele>
        <time>2017-08-09T09:32:51Z</time>
      </trkpt>
      <trkpt lat="45.98804" lon="4.81925">
        <ele>239</ele>
        <time>2017-08-09T09:32:52Z</time>
      </trkpt>
      <trkpt lat="45.98805" lon="4.81933">
        <ele>239</ele>
        <time>2017-08-09T09:32:53Z</time>
      </trkpt>
      <trkpt lat="45.98806" lon="4.81941">
        <ele>239</ele>
        <time>2017-08-09T09:32:54Z</time>
      </trkpt>
      <trkpt lat="45.98807" lon="4.81949">
        <ele>239</ele>
        <time>2017-08-09T09:32:55Z</time>
      </trkpt>
      <trkpt lat="45.98808" lon="4.81957">
        <ele>239</ele>
        <time>2017-08-09T09:32:56Z</time>
      </trkpt>
      <trkpt lat="45.9881" lon="4.81965">
        <ele>239</ele>
        <time>2017-08-09T09:32:57Z</time>
      </trkpt>
      <trkpt lat="45.98811" lon="4.81972">
        <ele>239</ele>
        <time>2017-08-09T09:32:58Z</time>
      </trkpt>
      <trkpt lat="45.98812" lon="4.81979">
        <ele>239</ele>
        <time>2017-08-09T09:32:59Z</time>
      </trkpt>
      <trkpt lat="45.98813" lon="4.81986">
        <ele>238</ele>
        <time>2017-08-09T09:33:00Z</time>
      </trkpt>
      <trkpt lat="45.98814" lon="4.81993">
        <ele>238</ele>
        <time>2017-08-09T09:33:01Z</time>
      </trkpt>
      <trkpt lat="45.98815" lon="4.82">
        <ele>238</ele>
        <time>2017-08-09T09:33:02Z</time>
      </trkpt>
      <trkpt lat="45.98817" lon="4.82008">
        <ele>238</ele>
        <time>2017-08-09T09:33:03Z</time>
      </trkpt>
      <trkpt lat="45.98818" lon="4.82016">
        <ele>238</ele>
        <time>2017-08-09T09:33:04Z</time>
      </trkpt>
      <trkpt lat="45.9882" lon="4.82024">
        <ele>238</ele>
        <time>2017-08-09T09:33:05Z</time>
      </trkpt>
      <trkpt lat="45.98821" lon="4.82032">
        <ele>238</ele>
        <time>2017-08-09T09:33:06Z</time>
      </trkpt>
      <trkpt lat="45.98822" lon="4.8204">
        <ele>238</ele>
        <time>2017-08-09T09:33:07Z</time>
      </trkpt>
      <trkpt lat="45.98823" lon="4.82048">
        <ele>238</ele>
        <time>2017-08-09T09:33:08Z</time>
      </trkpt>
      <trkpt lat="45.98824" lon="4.82055">
        <ele>237</ele>
        <time>2017-08-09T09:33:09Z</time>
      </trkpt>
      <trkpt lat="45.98825" lon="4.82063">
        <ele>237</ele>
        <time>2017-08-09T09:33:10Z</time>
      </trkpt>
      <trkpt lat="45.98826" lon="4.8207">
        <ele>237</ele>
        <time>2017-08-09T09:33:11Z</time>
      </trkpt>
      <trkpt lat="45.98827" lon="4.82076">
        <ele>237</ele>
        <time>2017-08-09T09:33:12Z</time>
      </trkpt>
      <trkpt lat="45.98828" lon="4.82083">
        <ele>236</ele>
        <time>2017-08-09T09:33:13Z</time>
      </trkpt>
      <trkpt lat="45.98829" lon="4.8209">
        <ele>236</ele>
        <time>2017-08-09T09:33:14Z</time>
      </trkpt>
      <trkpt lat="45.98831" lon="4.82096">
        <ele>237</ele>
        <time>2017-08-09T09:33:15Z</time>
      </trkpt>
      <trkpt lat="45.98832" lon="4.82103">
        <ele>237</ele>
        <time>2017-08-09T09:33:16Z</time>
      </trkpt>
      <trkpt lat="45.98833" lon="4.8211">
        <ele>237</ele>
        <time>2017-08-09T09:33:17Z</time>
      </trkpt>
      <trkpt lat="45.98834" lon="4.82117">
        <ele>236</ele>
        <time>2017-08-09T09:33:18Z</time>
      </trkpt>
      <trkpt lat="45.98836" lon="4.82125">
        <ele>236</ele>
        <time>2017-08-09T09:33:19Z</time>
      </trkpt>
      <trkpt lat="45.98837" lon="4.82133">
        <ele>236</ele>
        <time>2017-08-09T09:33:20Z</time>
      </trkpt>
      <trkpt lat="45.98839" lon="4.82141">
        <ele>236</ele>
        <time>2017-08-09T09:33:21Z</time>
      </trkpt>
      <trkpt lat="45.98841" lon="4.82149">
        <ele>236</ele>
        <time>2017-08-09T09:33:22Z</time>
      </trkpt>
      <trkpt lat="45.98843" lon="4.82157">
        <ele>236</ele>
        <time>2017-08-09T09:33:23Z</time>
      </trkpt>
      <trkpt lat="45.98845" lon="4.82165">
        <ele>236</ele>
        <time>2017-08-09T09:33:24Z</time>
      </trkpt>
      <trkpt lat="45.98847" lon="4.82172">
        <ele>236</ele>
        <time>2017-08-09T09:33:25Z</time>
      </trkpt>
      <trkpt lat="45.9885" lon="4.82179">
        <ele>236</ele>
        <time>2017-08-09T09:33:26Z</time>
      </trkpt>
      <trkpt lat="45.98852" lon="4.82185">
        <ele>236</ele>
        <time>2017-08-09T09:33:27Z</time>
      </trkpt>
      <trkpt lat="45.98854" lon="4.82192">
        <ele>236</ele>
        <time>2017-08-09T09:33:28Z</time>
      </trkpt>
      <trkpt lat="45.98857" lon="4.82198">
        <ele>236</ele>
        <time>2017-08-09T09:33:29Z</time>
      </trkpt>
      <trkpt lat="45.98859" lon="4.82204">
        <ele>236</ele>
        <time>2017-08-09T09:33:30Z</time>
      </trkpt>
      <trkpt lat="45.98864" lon="4.82215">
        <ele>236</ele>
        <time>2017-08-09T09:33:32Z</time>
      </trkpt>
      <trkpt lat="45.98866" lon="4.82221">
        <ele>236</ele>
        <time>2017-08-09T09:33:33Z</time>
      </trkpt>
      <trkpt lat="45.98869" lon="4.82227">
        <ele>236</ele>
        <time>2017-08-09T09:33:34Z</time>
      </trkpt>
      <trkpt lat="45.98872" lon="4.82233">
        <ele>236</ele>
        <time>2017-08-09T09:33:35Z</time>
      </trkpt>
      <trkpt lat="45.98875" lon="4.8224">
        <ele>236</ele>
        <time>2017-08-09T09:33:36Z</time>
      </trkpt>
      <trkpt lat="45.98879" lon="4.82247">
        <ele>236</ele>
        <time>2017-08-09T09:33:37Z</time>
      </trkpt>
      <trkpt lat="45.98882" lon="4.82254">
        <ele>237</ele>
        <time>2017-08-09T09:33:38Z</time>
      </trkpt>
      <trkpt lat="45.98885" lon="4.8226">
        <ele>236</ele>
        <time>2017-08-09T09:33:39Z</time>
      </trkpt>
      <trkpt lat="45.98889" lon="4.82266">
        <ele>236</ele>
        <time>2017-08-09T09:33:40Z</time>
      </trkpt>
      <trkpt lat="45.98892" lon="4.82271">
        <ele>236</ele>
        <time>2017-08-09T09:33:41Z</time>
      </trkpt>
      <trkpt lat="45.98896" lon="4.82277">
        <ele>236</ele>
        <time>2017-08-09T09:33:42Z</time>
      </trkpt>
      <trkpt lat="45.98899" lon="4.82281">
        <ele>236</ele>
        <time>2017-08-09T09:33:43Z</time>
      </trkpt>
      <trkpt lat="45.98903" lon="4.82286">
        <ele>236</ele>
        <time>2017-08-09T09:33:44Z</time>
      </trkpt>
      <trkpt lat="45.98907" lon="4.82291">
        <ele>236</ele>
        <time>2017-08-09T09:33:45Z</time>
      </trkpt>
      <trkpt lat="45.98911" lon="4.82295">
        <ele>237</ele>
        <time>2017-08-09T09:33:46Z</time>
      </trkpt>
      <trkpt lat="45.98915" lon="4.823">
        <ele>237</ele>
        <time>2017-08-09T09:33:47Z</time>
      </trkpt>
      <trkpt lat="45.9892" lon="4.82305">
        <ele>234</ele>
        <time>2017-08-09T09:33:48Z</time>
      </trkpt>
      <trkpt lat="45.98925" lon="4.8231">
        <ele>235</ele>
        <time>2017-08-09T09:33:49Z</time>
      </trkpt>
      <trkpt lat="45.9893" lon="4.82315">
        <ele>235</ele>
        <time>2017-08-09T09:33:50Z</time>
      </trkpt>
      <trkpt lat="45.98934" lon="4.8232">
        <ele>235</ele>
        <time>2017-08-09T09:33:51Z</time>
      </trkpt>
      <trkpt lat="45.98937" lon="4.82325">
        <ele>235</ele>
        <time>2017-08-09T09:33:52Z</time>
      </trkpt>
      <trkpt lat="45.98941" lon="4.82329">
        <ele>234</ele>
        <time>2017-08-09T09:33:53Z</time>
      </trkpt>
      <trkpt lat="45.98944" lon="4.82334">
        <ele>235</ele>
        <time>2017-08-09T09:33:54Z</time>
      </trkpt>
      <trkpt lat="45.98946" lon="4.8234">
        <ele>235</ele>
        <time>2017-08-09T09:33:55Z</time>
      </trkpt>
      <trkpt lat="45.98952" lon="4.8235">
        <ele>235</ele>
        <time>2017-08-09T09:33:57Z</time>
      </trkpt>
      <trkpt lat="45.98954" lon="4.82355">
        <ele>235</ele>
        <time>2017-08-09T09:33:58Z</time>
      </trkpt>
      <trkpt lat="45.98957" lon="4.82361">
        <ele>235</ele>
        <time>2017-08-09T09:33:59Z</time>
      </trkpt>
      <trkpt lat="45.98959" lon="4.82368">
        <ele>235</ele>
        <time>2017-08-09T09:34:00Z</time>
      </trkpt>
      <trkpt lat="45.98961" lon="4.82375">
        <ele>235</ele>
        <time>2017-08-09T09:34:01Z</time>
      </trkpt>
      <trkpt lat="45.98963" lon="4.82382">
        <ele>235</ele>
        <time>2017-08-09T09:34:02Z</time>
      </trkpt>
      <trkpt lat="45.98964" lon="4.82389">
        <ele>235</ele>
        <time>2017-08-09T09:34:03Z</time>
      </trkpt>
      <trkpt lat="45.98965" lon="4.82396">
        <ele>235</ele>
        <time>2017-08-09T09:34:04Z</time>
      </trkpt>
      <trkpt lat="45.98967" lon="4.82403">
        <ele>235</ele>
        <time>2017-08-09T09:34:05Z</time>
      </trkpt>
      <trkpt lat="45.98968" lon="4.8241">
        <ele>235</ele>
        <time>2017-08-09T09:34:06Z</time>
      </trkpt>
      <trkpt lat="45.9897" lon="4.82416">
        <ele>235</ele>
        <time>2017-08-09T09:34:07Z</time>
      </trkpt>
      <trkpt lat="45.98972" lon="4.82423">
        <ele>236</ele>
        <time>2017-08-09T09:34:08Z</time>
      </trkpt>
      <trkpt lat="45.98975" lon="4.82435">
        <ele>236</ele>
        <time>2017-08-09T09:34:10Z</time>
      </trkpt>
      <trkpt lat="45.98976" lon="4.8244">
        <ele>236</ele>
        <time>2017-08-09T09:34:11Z</time>
      </trkpt>
      <trkpt lat="45.98979" lon="4.82451">
        <ele>236</ele>
        <time>2017-08-09T09:34:13Z</time>
      </trkpt>
      <trkpt lat="45.98979" lon="4.82456">
        <ele>236</ele>
        <time>2017-08-09T09:34:14Z</time>
      </trkpt>
      <trkpt lat="45.98982" lon="4.82465">
        <ele>236</ele>
        <time>2017-08-09T09:34:16Z</time>
      </trkpt>
      <trkpt lat="45.98983" lon="4.82471">
        <ele>236</ele>
        <time>2017-08-09T09:34:17Z</time>
      </trkpt>
      <trkpt lat="45.98985" lon="4.82477">
        <ele>236</ele>
        <time>2017-08-09T09:34:18Z</time>
      </trkpt>
      <trkpt lat="45.98987" lon="4.82483">
        <ele>236</ele>
        <time>2017-08-09T09:34:19Z</time>
      </trkpt>
      <trkpt lat="45.9899" lon="4.82488">
        <ele>236</ele>
        <time>2017-08-09T09:34:20Z</time>
      </trkpt>
      <trkpt lat="45.98992" lon="4.82493">
        <ele>236</ele>
        <time>2017-08-09T09:34:21Z</time>
      </trkpt>
      <trkpt lat="45.98994" lon="4.82499">
        <ele>235</ele>
        <time>2017-08-09T09:34:22Z</time>
      </trkpt>
      <trkpt lat="45.98996" lon="4.82505">
        <ele>236</ele>
        <time>2017-08-09T09:34:23Z</time>
      </trkpt>
      <trkpt lat="45.98999" lon="4.82511">
        <ele>236</ele>
        <time>2017-08-09T09:34:24Z</time>
      </trkpt>
      <trkpt lat="45.99002" lon="4.82517">
        <ele>235</ele>
        <time>2017-08-09T09:34:25Z</time>
      </trkpt>
      <trkpt lat="45.99006" lon="4.82524">
        <ele>235</ele>
        <time>2017-08-09T09:34:26Z</time>
      </trkpt>
      <trkpt lat="45.99011" lon="4.82531">
        <ele>235</ele>
        <time>2017-08-09T09:34:27Z</time>
      </trkpt>
      <trkpt lat="45.99015" lon="4.82537">
        <ele>235</ele>
        <time>2017-08-09T09:34:28Z</time>
      </trkpt>
      <trkpt lat="45.9902" lon="4.82543">
        <ele>235</ele>
        <time>2017-08-09T09:34:29Z</time>
      </trkpt>
      <trkpt lat="45.99026" lon="4.82549">
        <ele>235</ele>
        <time>2017-08-09T09:34:30Z</time>
      </trkpt>
      <trkpt lat="45.99031" lon="4.82553">
        <ele>235</ele>
        <time>2017-08-09T09:34:31Z</time>
      </trkpt>
      <trkpt lat="45.99036" lon="4.82558">
        <ele>235</ele>
        <time>2017-08-09T09:34:32Z</time>
      </trkpt>
      <trkpt lat="45.99042" lon="4.82561">
        <ele>235</ele>
        <time>2017-08-09T09:34:33Z</time>
      </trkpt>
      <trkpt lat="45.99047" lon="4.82565">
        <ele>235</ele>
        <time>2017-08-09T09:34:34Z</time>
      </trkpt>
      <trkpt lat="45.99052" lon="4.82566">
        <ele>235</ele>
        <time>2017-08-09T09:34:35Z</time>
      </trkpt>
      <trkpt lat="45.99057" lon="4.82569">
        <ele>235</ele>
        <time>2017-08-09T09:34:36Z</time>
      </trkpt>
      <trkpt lat="45.99062" lon="4.8257">
        <ele>235</ele>
        <time>2017-08-09T09:34:37Z</time>
      </trkpt>
      <trkpt lat="45.99071" lon="4.82574">
        <ele>235</ele>
        <time>2017-08-09T09:34:39Z</time>
      </trkpt>
      <trkpt lat="45.99073" lon="4.82577">
        <ele>235</ele>
        <time>2017-08-09T09:34:40Z</time>
      </trkpt>
      <trkpt lat="45.99074" lon="4.82588">
        <ele>235</ele>
        <time>2017-08-09T09:34:43Z</time>
      </trkpt>
      <trkpt lat="45.99072" lon="4.82592">
        <ele>235</ele>
        <time>2017-08-09T09:34:44Z</time>
      </trkpt>
      <trkpt lat="45.99069" lon="4.826">
        <ele>235</ele>
        <time>2017-08-09T09:34:46Z</time>
      </trkpt>
      <trkpt lat="45.99066" lon="4.82604">
        <ele>236</ele>
        <time>2017-08-09T09:34:47Z</time>
      </trkpt>
      <trkpt lat="45.99062" lon="4.82613">
        <ele>236</ele>
        <time>2017-08-09T09:34:49Z</time>
      </trkpt>
      <trkpt lat="45.99059" lon="4.82617">
        <ele>236</ele>
        <time>2017-08-09T09:34:50Z</time>
      </trkpt>
      <trkpt lat="45.99057" lon="4.82623">
        <ele>236</ele>
        <time>2017-08-09T09:34:51Z</time>
      </trkpt>
      <trkpt lat="45.99055" lon="4.82628">
        <ele>236</ele>
        <time>2017-08-09T09:34:52Z</time>
      </trkpt>
      <trkpt lat="45.9905" lon="4.82637">
        <ele>236</ele>
        <time>2017-08-09T09:34:54Z</time>
      </trkpt>
      <trkpt lat="45.99048" lon="4.82642">
        <ele>236</ele>
        <time>2017-08-09T09:34:55Z</time>
      </trkpt>
      <trkpt lat="45.99043" lon="4.82652">
        <ele>236</ele>
        <time>2017-08-09T09:34:57Z</time>
      </trkpt>
      <trkpt lat="45.99041" lon="4.82656">
        <ele>236</ele>
        <time>2017-08-09T09:34:58Z</time>
      </trkpt>
      <trkpt lat="45.99037" lon="4.82665">
        <ele>237</ele>
        <time>2017-08-09T09:35:00Z</time>
      </trkpt>
      <trkpt lat="45.99035" lon="4.8267">
        <ele>238</ele>
        <time>2017-08-09T09:35:01Z</time>
      </trkpt>
      <trkpt lat="45.99031" lon="4.82679">
        <ele>238</ele>
        <time>2017-08-09T09:35:03Z</time>
      </trkpt>
      <trkpt lat="45.99029" lon="4.82684">
        <ele>238</ele>
        <time>2017-08-09T09:35:04Z</time>
      </trkpt>
      <trkpt lat="45.99025" lon="4.82694">
        <ele>238</ele>
        <time>2017-08-09T09:35:06Z</time>
      </trkpt>
      <trkpt lat="45.99023" lon="4.82698">
        <ele>238</ele>
        <time>2017-08-09T09:35:07Z</time>
      </trkpt>
      <trkpt lat="45.99019" lon="4.82706">
        <ele>238</ele>
        <time>2017-08-09T09:35:09Z</time>
      </trkpt>
      <trkpt lat="45.99017" lon="4.8271">
        <ele>239</ele>
        <time>2017-08-09T09:35:10Z</time>
      </trkpt>
      <trkpt lat="45.99013" lon="4.82721">
        <ele>239</ele>
        <time>2017-08-09T09:35:13Z</time>
      </trkpt>
      <trkpt lat="45.99011" lon="4.82724">
        <ele>239</ele>
        <time>2017-08-09T09:35:14Z</time>
      </trkpt>
      <trkpt lat="45.99006" lon="4.82733">
        <ele>239</ele>
        <time>2017-08-09T09:35:17Z</time>
      </trkpt>
      <trkpt lat="45.99004" lon="4.82735">
        <ele>240</ele>
        <time>2017-08-09T09:35:18Z</time>
      </trkpt>
      <trkpt lat="45.98999" lon="4.82745">
        <ele>242</ele>
        <time>2017-08-09T09:35:21Z</time>
      </trkpt>
      <trkpt lat="45.98999" lon="4.82749">
        <ele>241</ele>
        <time>2017-08-09T09:35:22Z</time>
      </trkpt>
      <trkpt lat="45.98995" lon="4.82761">
        <ele>244</ele>
        <time>2017-08-09T09:35:25Z</time>
      </trkpt>
      <trkpt lat="45.98993" lon="4.82764">
        <ele>245</ele>
        <time>2017-08-09T09:35:26Z</time>
      </trkpt>
      <trkpt lat="45.98988" lon="4.82773">
        <ele>246</ele>
        <time>2017-08-09T09:35:29Z</time>
      </trkpt>
      <trkpt lat="45.98987" lon="4.82777">
        <ele>246</ele>
        <time>2017-08-09T09:35:30Z</time>
      </trkpt>
      <trkpt lat="45.98985" lon="4.82785">
        <ele>247</ele>
        <time>2017-08-09T09:35:32Z</time>
      </trkpt>
      <trkpt lat="45.98983" lon="4.82789">
        <ele>247</ele>
        <time>2017-08-09T09:35:33Z</time>
      </trkpt>
      <trkpt lat="45.98979" lon="4.82799">
        <ele>248</ele>
        <time>2017-08-09T09:35:36Z</time>
      </trkpt>
      <trkpt lat="45.98977" lon="4.82803">
        <ele>248</ele>
        <time>2017-08-09T09:35:37Z</time>
      </trkpt>
      <trkpt lat="45.98973" lon="4.82811">
        <ele>248</ele>
        <time>2017-08-09T09:35:39Z</time>
      </trkpt>
      <trkpt lat="45.98972" lon="4.82815">
        <ele>249</ele>
        <time>2017-08-09T09:35:40Z</time>
      </trkpt>
      <trkpt lat="45.98969" lon="4.82822">
        <ele>249</ele>
        <time>2017-08-09T09:35:42Z</time>
      </trkpt>
      <trkpt lat="45.98967" lon="4.82826">
        <ele>249</ele>
        <time>2017-08-09T09:35:43Z</time>
      </trkpt>
      <trkpt lat="45.98963" lon="4.82836">
        <ele>252</ele>
        <time>2017-08-09T09:35:46Z</time>
      </trkpt>
      <trkpt lat="45.98961" lon="4.82839">
        <ele>252</ele>
        <time>2017-08-09T09:35:47Z</time>
      </trkpt>
      <trkpt lat="45.98956" lon="4.82849">
        <ele>252</ele>
        <time>2017-08-09T09:35:50Z</time>
      </trkpt>
      <trkpt lat="45.98955" lon="4.82853">
        <ele>252</ele>
        <time>2017-08-09T09:35:51Z</time>
      </trkpt>
      <trkpt lat="45.98952" lon="4.82862">
        <ele>252</ele>
        <time>2017-08-09T09:35:53Z</time>
      </trkpt>
      <trkpt lat="45.9895" lon="4.82865">
        <ele>253</ele>
        <time>2017-08-09T09:35:54Z</time>
      </trkpt>
      <trkpt lat="45.98946" lon="4.82873">
        <ele>253</ele>
        <time>2017-08-09T09:35:56Z</time>
      </trkpt>
      <trkpt lat="45.98944" lon="4.82877">
        <ele>253</ele>
        <time>2017-08-09T09:35:57Z</time>
      </trkpt>
      <trkpt lat="45.98939" lon="4.82888">
        <ele>253</ele>
        <time>2017-08-09T09:36:00Z</time>
      </trkpt>
      <trkpt lat="45.98938" lon="4.82892">
        <ele>253</ele>
        <time>2017-08-09T09:36:01Z</time>
      </trkpt>
      <trkpt lat="45.98934" lon="4.82901">
        <ele>254</ele>
        <time>2017-08-09T09:36:04Z</time>
      </trkpt>
      <trkpt lat="45.98932" lon="4.82904">
        <ele>254</ele>
        <time>2017-08-09T09:36:05Z</time>
      </trkpt>
      <trkpt lat="45.98927" lon="4.82914">
        <ele>254</ele>
        <time>2017-08-09T09:36:08Z</time>
      </trkpt>
      <trkpt lat="45.98925" lon="4.82917">
        <ele>255</ele>
        <time>2017-08-09T09:36:09Z</time>
      </trkpt>
      <trkpt lat="45.98922" lon="4.82928">
        <ele>255</ele>
        <time>2017-08-09T09:36:12Z</time>
      </trkpt>
      <trkpt lat="45.9892" lon="4.82931">
        <ele>255</ele>
        <time>2017-08-09T09:36:13Z</time>
      </trkpt>
      <trkpt lat="45.98916" lon="4.82939">
        <ele>258</ele>
        <time>2017-08-09T09:36:16Z</time>
      </trkpt>
      <trkpt lat="45.98915" lon="4.82941">
        <ele>258</ele>
        <time>2017-08-09T09:36:17Z</time>
      </trkpt>
      <trkpt lat="45.98911" lon="4.8295">
        <ele>258</ele>
        <time>2017-08-09T09:36:20Z</time>
      </trkpt>
      <trkpt lat="45.98909" lon="4.82952">
        <ele>258</ele>
        <time>2017-08-09T09:36:21Z</time>
      </trkpt>
      <trkpt lat="45.98904" lon="4.82962">
        <ele>259</ele>
        <time>2017-08-09T09:36:24Z</time>
      </trkpt>
      <trkpt lat="45.98903" lon="4.82966">
        <ele>259</ele>
        <time>2017-08-09T09:36:25Z</time>
      </trkpt>
      <trkpt lat="45.98896" lon="4.82972">
        <ele>259</ele>
        <time>2017-08-09T09:36:29Z</time>
      </trkpt>
      <trkpt lat="45.98893" lon="4.82975">
        <ele>259</ele>
        <time>2017-08-09T09:36:30Z</time>
      </trkpt>
      <trkpt lat="45.98887" lon="4.82981">
        <ele>259</ele>
        <time>2017-08-09T09:36:33Z</time>
      </trkpt>
      <trkpt lat="45.98885" lon="4.82983">
        <ele>259</ele>
        <time>2017-08-09T09:36:34Z</time>
      </trkpt>
      <trkpt lat="45.98878" lon="4.82992">
        <ele>260</ele>
        <time>2017-08-09T09:36:37Z</time>
      </trkpt>
      <trkpt lat="45.98876" lon="4.82994">
        <ele>260</ele>
        <time>2017-08-09T09:36:38Z</time>
      </trkpt>
      <trkpt lat="45.98868" lon="4.82997">
        <ele>260</ele>
        <time>2017-08-09T09:36:41Z</time>
      </trkpt>
      <trkpt lat="45.98866" lon="4.82998">
        <ele>260</ele>
        <time>2017-08-09T09:36:42Z</time>
      </trkpt>
      <trkpt lat="45.98861" lon="4.83004">
        <ele>260</ele>
        <time>2017-08-09T09:36:45Z</time>
      </trkpt>
      <trkpt lat="45.98858" lon="4.83006">
        <ele>261</ele>
        <time>2017-08-09T09:36:46Z</time>
      </trkpt>
      <trkpt lat="45.98851" lon="4.8301">
        <ele>261</ele>
        <time>2017-08-09T09:36:49Z</time>
      </trkpt>
      <trkpt lat="45.98849" lon="4.83013">
        <ele>261</ele>
        <time>2017-08-09T09:36:50Z</time>
      </trkpt>
      <trkpt lat="45.98842" lon="4.83016">
        <ele>261</ele>
        <time>2017-08-09T09:36:53Z</time>
      </trkpt>
      <trkpt lat="45.9884" lon="4.83018">
        <ele>261</ele>
        <time>2017-08-09T09:36:54Z</time>
      </trkpt>
      <trkpt lat="45.98835" lon="4.83023">
        <ele>261</ele>
        <time>2017-08-09T09:36:56Z</time>
      </trkpt>
      <trkpt lat="45.98832" lon="4.83024">
        <ele>264</ele>
        <time>2017-08-09T09:36:57Z</time>
      </trkpt>
      <trkpt lat="45.98825" lon="4.83027">
        <ele>264</ele>
        <time>2017-08-09T09:37:00Z</time>
      </trkpt>
      <trkpt lat="45.98823" lon="4.83029">
        <ele>264</ele>
        <time>2017-08-09T09:37:01Z</time>
      </trkpt>
      <trkpt lat="45.98817" lon="4.83034">
        <ele>264</ele>
        <time>2017-08-09T09:37:04Z</time>
      </trkpt>
      <trkpt lat="45.98816" lon="4.83037">
        <ele>264</ele>
        <time>2017-08-09T09:37:05Z</time>
      </trkpt>
      <trkpt lat="45.98809" lon="4.83042">
        <ele>264</ele>
        <time>2017-08-09T09:37:08Z</time>
      </trkpt>
      <trkpt lat="45.98807" lon="4.83044">
        <ele>264</ele>
        <time>2017-08-09T09:37:09Z</time>
      </trkpt>
      <trkpt lat="45.98799" lon="4.83046">
        <ele>264</ele>
        <time>2017-08-09T09:37:12Z</time>
      </trkpt>
      <trkpt lat="45.98797" lon="4.83048">
        <ele>265</ele>
        <time>2017-08-09T09:37:13Z</time>
      </trkpt>
      <trkpt lat="45.98789" lon="4.83054">
        <ele>265</ele>
        <time>2017-08-09T09:37:16Z</time>
      </trkpt>
      <trkpt lat="45.98787" lon="4.83057">
        <ele>265</ele>
        <time>2017-08-09T09:37:17Z</time>
      </trkpt>
      <trkpt lat="45.98781" lon="4.83061">
        <ele>265</ele>
        <time>2017-08-09T09:37:19Z</time>
      </trkpt>
      <trkpt lat="45.98778" lon="4.83063">
        <ele>265</ele>
        <time>2017-08-09T09:37:20Z</time>
      </trkpt>
      <trkpt lat="45.98771" lon="4.8307">
        <ele>265</ele>
        <time>2017-08-09T09:37:23Z</time>
      </trkpt>
      <trkpt lat="45.98769" lon="4.83072">
        <ele>266</ele>
        <time>2017-08-09T09:37:24Z</time>
      </trkpt>
      <trkpt lat="45.98763" lon="4.83078">
        <ele>266</ele>
        <time>2017-08-09T09:37:27Z</time>
      </trkpt>
      <trkpt lat="45.98761" lon="4.83081">
        <ele>266</ele>
        <time>2017-08-09T09:37:28Z</time>
      </trkpt>
      <trkpt lat="45.98754" lon="4.83087">
        <ele>266</ele>
        <time>2017-08-09T09:37:31Z</time>
      </trkpt>
      <trkpt lat="45.98751" lon="4.8309">
        <ele>266</ele>
        <time>2017-08-09T09:37:32Z</time>
      </trkpt>
      <trkpt lat="45.98746" lon="4.83094">
        <ele>267</ele>
        <time>2017-08-09T09:37:34Z</time>
      </trkpt>
      <trkpt lat="45.98743" lon="4.83096">
        <ele>267</ele>
        <time>2017-08-09T09:37:35Z</time>
      </trkpt>
      <trkpt lat="45.98736" lon="4.83102">
        <ele>267</ele>
        <time>2017-08-09T09:37:38Z</time>
      </trkpt>
      <trkpt lat="45.98733" lon="4.83105">
        <ele>267</ele>
        <time>2017-08-09T09:37:39Z</time>
      </trkpt>
      <trkpt lat="45.98728" lon="4.8311">
        <ele>267</ele>
        <time>2017-08-09T09:37:41Z</time>
      </trkpt>
      <trkpt lat="45.98725" lon="4.83112">
        <ele>267</ele>
        <time>2017-08-09T09:37:42Z</time>
      </trkpt>
      <trkpt lat="45.98718" lon="4.83116">
        <ele>267</ele>
        <time>2017-08-09T09:37:45Z</time>
      </trkpt>
      <trkpt lat="45.98716" lon="4.83118">
        <ele>267</ele>
        <time>2017-08-09T09:37:46Z</time>
      </trkpt>
      <trkpt lat="45.9871" lon="4.83124">
        <ele>266</ele>
        <time>2017-08-09T09:37:49Z</time>
      </trkpt>
      <trkpt lat="45.98707" lon="4.83127">
        <ele>266</ele>
        <time>2017-08-09T09:37:50Z</time>
      </trkpt>
      <trkpt lat="45.98702" lon="4.83131">
        <ele>266</ele>
        <time>2017-08-09T09:37:52Z</time>
      </trkpt>
      <trkpt lat="45.98699" lon="4.83134">
        <ele>266</ele>
        <time>2017-08-09T09:37:53Z</time>
      </trkpt>
      <trkpt lat="45.98691" lon="4.83139">
        <ele>266</ele>
        <time>2017-08-09T09:37:56Z</time>
      </trkpt>
      <trkpt lat="45.98689" lon="4.83142">
        <ele>266</ele>
        <time>2017-08-09T09:37:57Z</time>
      </trkpt>
      <trkpt lat="45.98681" lon="4.83147">
        <ele>266</ele>
        <time>2017-08-09T09:38:00Z</time>
      </trkpt>
      <trkpt lat="45.98678" lon="4.83149">
        <ele>266</ele>
        <time>2017-08-09T09:38:01Z</time>
      </trkpt>
      <trkpt lat="45.98671" lon="4.83153">
        <ele>266</ele>
        <time>2017-08-09T09:38:03Z</time>
      </trkpt>
      <trkpt lat="45.98668" lon="4.83155">
        <ele>266</ele>
        <time>2017-08-09T09:38:04Z</time>
      </trkpt>
      <trkpt lat="45.98661" lon="4.8316">
        <ele>267</ele>
        <time>2017-08-09T09:38:06Z</time>
      </trkpt>
      <trkpt lat="45.98658" lon="4.83162">
        <ele>267</ele>
        <time>2017-08-09T09:38:07Z</time>
      </trkpt>
      <trkpt lat="45.98651" lon="4.83168">
        <ele>267</ele>
        <time>2017-08-09T09:38:09Z</time>
      </trkpt>
      <trkpt lat="45.98648" lon="4.8317">
        <ele>267</ele>
        <time>2017-08-09T09:38:10Z</time>
      </trkpt>
      <trkpt lat="45.98641" lon="4.83177">
        <ele>267</ele>
        <time>2017-08-09T09:38:12Z</time>
      </trkpt>
      <trkpt lat="45.98637" lon="4.8318">
        <ele>267</ele>
        <time>2017-08-09T09:38:13Z</time>
      </trkpt>
      <trkpt lat="45.98631" lon="4.83187">
        <ele>267</ele>
        <time>2017-08-09T09:38:15Z</time>
      </trkpt>
      <trkpt lat="45.98628" lon="4.8319">
        <ele>267</ele>
        <time>2017-08-09T09:38:16Z</time>
      </trkpt>
      <trkpt lat="45.98622" lon="4.83198">
        <ele>267</ele>
        <time>2017-08-09T09:38:18Z</time>
      </trkpt>
      <trkpt lat="45.98619" lon="4.83202">
        <ele>267</ele>
        <time>2017-08-09T09:38:19Z</time>
      </trkpt>
      <trkpt lat="45.98614" lon="4.8321">
        <ele>267</ele>
        <time>2017-08-09T09:38:21Z</time>
      </trkpt>
      <trkpt lat="45.98611" lon="4.83213">
        <ele>267</ele>
        <time>2017-08-09T09:38:22Z</time>
      </trkpt>
      <trkpt lat="45.98607" lon="4.83219">
        <ele>267</ele>
        <time>2017-08-09T09:38:24Z</time>
      </trkpt>
      <trkpt lat="45.98604" lon="4.83223">
        <ele>267</ele>
        <time>2017-08-09T09:38:25Z</time>
      </trkpt>
      <trkpt lat="45.986" lon="4.8323">
        <ele>268</ele>
        <time>2017-08-09T09:38:27Z</time>
      </trkpt>
      <trkpt lat="45.98597" lon="4.83234">
        <ele>268</ele>
        <time>2017-08-09T09:38:28Z</time>
      </trkpt>
      <trkpt lat="45.98591" lon="4.83241">
        <ele>268</ele>
        <time>2017-08-09T09:38:30Z</time>
      </trkpt>
      <trkpt lat="45.98588" lon="4.83244">
        <ele>268</ele>
        <time>2017-08-09T09:38:31Z</time>
      </trkpt>
      <trkpt lat="45.98582" lon="4.83251">
        <ele>268</ele>
        <time>2017-08-09T09:38:33Z</time>
      </trkpt>
      <trkpt lat="45.98579" lon="4.83255">
        <ele>268</ele>
        <time>2017-08-09T09:38:34Z</time>
      </trkpt>
      <trkpt lat="45.98573" lon="4.83263">
        <ele>269</ele>
        <time>2017-08-09T09:38:36Z</time>
      </trkpt>
      <trkpt lat="45.98571" lon="4.83267">
        <ele>269</ele>
        <time>2017-08-09T09:38:37Z</time>
      </trkpt>
      <trkpt lat="45.98566" lon="4.83273">
        <ele>269</ele>
        <time>2017-08-09T09:38:39Z</time>
      </trkpt>
      <trkpt lat="45.98563" lon="4.83277">
        <ele>269</ele>
        <time>2017-08-09T09:38:40Z</time>
      </trkpt>
      <trkpt lat="45.98557" lon="4.83284">
        <ele>269</ele>
        <time>2017-08-09T09:38:42Z</time>
      </trkpt>
      <trkpt lat="45.98555" lon="4.83288">
        <ele>269</ele>
        <time>2017-08-09T09:38:43Z</time>
      </trkpt>
      <trkpt lat="45.9855" lon="4.83295">
        <ele>269</ele>
        <time>2017-08-09T09:38:45Z</time>
      </trkpt>
      <trkpt lat="45.98547" lon="4.83298">
        <ele>269</ele>
        <time>2017-08-09T09:38:46Z</time>
      </trkpt>
      <trkpt lat="45.98542" lon="4.83304">
        <ele>269</ele>
        <time>2017-08-09T09:38:48Z</time>
      </trkpt>
      <trkpt lat="45.9854" lon="4.83307">
        <ele>269</ele>
        <time>2017-08-09T09:38:49Z</time>
      </trkpt>
      <trkpt lat="45.98535" lon="4.83314">
        <ele>269</ele>
        <time>2017-08-09T09:38:51Z</time>
      </trkpt>
      <trkpt lat="45.98532" lon="4.83318">
        <ele>269</ele>
        <time>2017-08-09T09:38:52Z</time>
      </trkpt>
      <trkpt lat="45.98528" lon="4.83326">
        <ele>269</ele>
        <time>2017-08-09T09:38:54Z</time>
      </trkpt>
      <trkpt lat="45.98525" lon="4.83329">
        <ele>270</ele>
        <time>2017-08-09T09:38:55Z</time>
      </trkpt>
      <trkpt lat="45.9852" lon="4.83335">
        <ele>270</ele>
        <time>2017-08-09T09:38:57Z</time>
      </trkpt>
      <trkpt lat="45.98517" lon="4.83338">
        <ele>270</ele>
        <time>2017-08-09T09:38:58Z</time>
      </trkpt>
      <trkpt lat="45.98512" lon="4.83344">
        <ele>270</ele>
        <time>2017-08-09T09:39:00Z</time>
      </trkpt>
      <trkpt lat="45.9851" lon="4.83347">
        <ele>270</ele>
        <time>2017-08-09T09:39:01Z</time>
      </trkpt>
      <trkpt lat="45.98503" lon="4.83355">
        <ele>270</ele>
        <time>2017-08-09T09:39:03Z</time>
      </trkpt>
      <trkpt lat="45.985" lon="4.8336">
        <ele>270</ele>
        <time>2017-08-09T09:39:04Z</time>
      </trkpt>
      <trkpt lat="45.98497" lon="4.83365">
        <ele>270</ele>
        <time>2017-08-09T09:39:05Z</time>
      </trkpt>
      <trkpt lat="45.98493" lon="4.8337">
        <ele>270</ele>
        <time>2017-08-09T09:39:06Z</time>
      </trkpt>
      <trkpt lat="45.9849" lon="4.83375">
        <ele>270</ele>
        <time>2017-08-09T09:39:07Z</time>
      </trkpt>
      <trkpt lat="45.98486" lon="4.8338">
        <ele>269</ele>
        <time>2017-08-09T09:39:08Z</time>
      </trkpt>
      <trkpt lat="45.98482" lon="4.83385">
        <ele>269</ele>
        <time>2017-08-09T09:39:09Z</time>
      </trkpt>
      <trkpt lat="45.98479" lon="4.8339">
        <ele>269</ele>
        <time>2017-08-09T09:39:10Z</time>
      </trkpt>
      <trkpt lat="45.98476" lon="4.83394">
        <ele>269</ele>
        <time>2017-08-09T09:39:11Z</time>
      </trkpt>
      <trkpt lat="45.98473" lon="4.83399">
        <ele>269</ele>
        <time>2017-08-09T09:39:12Z</time>
      </trkpt>
      <trkpt lat="45.9847" lon="4.83404">
        <ele>269</ele>
        <time>2017-08-09T09:39:13Z</time>
      </trkpt>
      <trkpt lat="45.98466" lon="4.83409">
        <ele>269</ele>
        <time>2017-08-09T09:39:14Z</time>
      </trkpt>
      <trkpt lat="45.9846" lon="4.83417">
        <ele>269</ele>
        <time>2017-08-09T09:39:16Z</time>
      </trkpt>
      <trkpt lat="45.98457" lon="4.83422">
        <ele>269</ele>
        <time>2017-08-09T09:39:17Z</time>
      </trkpt>
      <trkpt lat="45.98453" lon="4.83425">
        <ele>269</ele>
        <time>2017-08-09T09:39:18Z</time>
      </trkpt>
      <trkpt lat="45.9845" lon="4.8343">
        <ele>268</ele>
        <time>2017-08-09T09:39:19Z</time>
      </trkpt>
      <trkpt lat="45.98446" lon="4.83435">
        <ele>268</ele>
        <time>2017-08-09T09:39:20Z</time>
      </trkpt>
      <trkpt lat="45.98442" lon="4.83441">
        <ele>268</ele>
        <time>2017-08-09T09:39:21Z</time>
      </trkpt>
      <trkpt lat="45.98438" lon="4.83446">
        <ele>268</ele>
        <time>2017-08-09T09:39:22Z</time>
      </trkpt>
      <trkpt lat="45.98434" lon="4.83452">
        <ele>268</ele>
        <time>2017-08-09T09:39:23Z</time>
      </trkpt>
      <trkpt lat="45.9843" lon="4.83457">
        <ele>268</ele>
        <time>2017-08-09T09:39:24Z</time>
      </trkpt>
      <trkpt lat="45.98426" lon="4.83462">
        <ele>268</ele>
        <time>2017-08-09T09:39:25Z</time>
      </trkpt>
      <trkpt lat="45.98422" lon="4.83467">
        <ele>268</ele>
        <time>2017-08-09T09:39:26Z</time>
      </trkpt>
      <trkpt lat="45.98419" lon="4.83472">
        <ele>268</ele>
        <time>2017-08-09T09:39:27Z</time>
      </trkpt>
      <trkpt lat="45.98415" lon="4.83477">
        <ele>269</ele>
        <time>2017-08-09T09:39:28Z</time>
      </trkpt>
      <trkpt lat="45.98412" lon="4.83481">
        <ele>269</ele>
        <time>2017-08-09T09:39:29Z</time>
      </trkpt>
      <trkpt lat="45.98406" lon="4.8349">
        <ele>269</ele>
        <time>2017-08-09T09:39:31Z</time>
      </trkpt>
      <trkpt lat="45.98402" lon="4.83494">
        <ele>269</ele>
        <time>2017-08-09T09:39:32Z</time>
      </trkpt>
      <trkpt lat="45.98399" lon="4.83499">
        <ele>269</ele>
        <time>2017-08-09T09:39:33Z</time>
      </trkpt>
      <trkpt lat="45.98395" lon="4.83504">
        <ele>269</ele>
        <time>2017-08-09T09:39:34Z</time>
      </trkpt>
      <trkpt lat="45.98391" lon="4.83509">
        <ele>269</ele>
        <time>2017-08-09T09:39:35Z</time>
      </trkpt>
      <trkpt lat="45.98388" lon="4.83514">
        <ele>269</ele>
        <time>2017-08-09T09:39:36Z</time>
      </trkpt>
      <trkpt lat="45.98384" lon="4.8352">
        <ele>269</ele>
        <time>2017-08-09T09:39:37Z</time>
      </trkpt>
      <trkpt lat="45.9838" lon="4.83525">
        <ele>269</ele>
        <time>2017-08-09T09:39:38Z</time>
      </trkpt>
      <trkpt lat="45.98376" lon="4.83531">
        <ele>269</ele>
        <time>2017-08-09T09:39:39Z</time>
      </trkpt>
      <trkpt lat="45.98372" lon="4.83536">
        <ele>269</ele>
        <time>2017-08-09T09:39:40Z</time>
      </trkpt>
      <trkpt lat="45.98368" lon="4.83541">
        <ele>269</ele>
        <time>2017-08-09T09:39:41Z</time>
      </trkpt>
      <trkpt lat="45.98364" lon="4.83546">
        <ele>269</ele>
        <time>2017-08-09T09:39:42Z</time>
      </trkpt>
      <trkpt lat="45.98361" lon="4.83551">
        <ele>269</ele>
        <time>2017-08-09T09:39:43Z</time>
      </trkpt>
      <trkpt lat="45.98358" lon="4.83555">
        <ele>269</ele>
        <time>2017-08-09T09:39:44Z</time>
      </trkpt>
      <trkpt lat="45.98352" lon="4.83564">
        <ele>269</ele>
        <time>2017-08-09T09:39:46Z</time>
      </trkpt>
      <trkpt lat="45.98349" lon="4.83568">
        <ele>269</ele>
        <time>2017-08-09T09:39:47Z</time>
      </trkpt>
      <trkpt lat="45.98345" lon="4.83572">
        <ele>270</ele>
        <time>2017-08-09T09:39:48Z</time>
      </trkpt>
      <trkpt lat="45.98341" lon="4.83577">
        <ele>270</ele>
        <time>2017-08-09T09:39:49Z</time>
      </trkpt>
      <trkpt lat="45.98337" lon="4.83583">
        <ele>270</ele>
        <time>2017-08-09T09:39:50Z</time>
      </trkpt>
      <trkpt lat="45.98334" lon="4.83588">
        <ele>270</ele>
        <time>2017-08-09T09:39:51Z</time>
      </trkpt>
      <trkpt lat="45.9833" lon="4.83593">
        <ele>270</ele>
        <time>2017-08-09T09:39:52Z</time>
      </trkpt>
      <trkpt lat="45.98327" lon="4.83598">
        <ele>271</ele>
        <time>2017-08-09T09:39:53Z</time>
      </trkpt>
      <trkpt lat="45.98321" lon="4.83605">
        <ele>271</ele>
        <time>2017-08-09T09:39:55Z</time>
      </trkpt>
      <trkpt lat="45.98318" lon="4.83609">
        <ele>271</ele>
        <time>2017-08-09T09:39:56Z</time>
      </trkpt>
      <trkpt lat="45.98315" lon="4.83613">
        <ele>271</ele>
        <time>2017-08-09T09:39:57Z</time>
      </trkpt>
      <trkpt lat="45.98312" lon="4.83618">
        <ele>271</ele>
        <time>2017-08-09T09:39:58Z</time>
      </trkpt>
      <trkpt lat="45.98309" lon="4.83624">
        <ele>271</ele>
        <time>2017-08-09T09:39:59Z</time>
      </trkpt>
      <trkpt lat="45.98306" lon="4.8363">
        <ele>271</ele>
        <time>2017-08-09T09:40:00Z</time>
      </trkpt>
      <trkpt lat="45.98303" lon="4.83635">
        <ele>271</ele>
        <time>2017-08-09T09:40:01Z</time>
      </trkpt>
      <trkpt lat="45.98301" lon="4.83641">
        <ele>271</ele>
        <time>2017-08-09T09:40:02Z</time>
      </trkpt>
      <trkpt lat="45.98299" lon="4.83647">
        <ele>271</ele>
        <time>2017-08-09T09:40:03Z</time>
      </trkpt>
      <trkpt lat="45.98297" lon="4.83653">
        <ele>271</ele>
        <time>2017-08-09T09:40:04Z</time>
      </trkpt>
      <trkpt lat="45.98292" lon="4.83664">
        <ele>272</ele>
        <time>2017-08-09T09:40:06Z</time>
      </trkpt>
      <trkpt lat="45.9829" lon="4.8367">
        <ele>272</ele>
        <time>2017-08-09T09:40:07Z</time>
      </trkpt>
      <trkpt lat="45.98286" lon="4.8368">
        <ele>272</ele>
        <time>2017-08-09T09:40:09Z</time>
      </trkpt>
      <trkpt lat="45.98284" lon="4.83685">
        <ele>272</ele>
        <time>2017-08-09T09:40:10Z</time>
      </trkpt>
      <trkpt lat="45.98282" lon="4.8369">
        <ele>272</ele>
        <time>2017-08-09T09:40:11Z</time>
      </trkpt>
      <trkpt lat="45.9828" lon="4.83697">
        <ele>272</ele>
        <time>2017-08-09T09:40:12Z</time>
      </trkpt>
      <trkpt lat="45.98277" lon="4.83703">
        <ele>272</ele>
        <time>2017-08-09T09:40:13Z</time>
      </trkpt>
      <trkpt lat="45.98275" lon="4.8371">
        <ele>272</ele>
        <time>2017-08-09T09:40:14Z</time>
      </trkpt>
      <trkpt lat="45.98272" lon="4.83717">
        <ele>272</ele>
        <time>2017-08-09T09:40:15Z</time>
      </trkpt>
      <trkpt lat="45.9827" lon="4.83723">
        <ele>272</ele>
        <time>2017-08-09T09:40:16Z</time>
      </trkpt>
      <trkpt lat="45.98268" lon="4.83729">
        <ele>272</ele>
        <time>2017-08-09T09:40:17Z</time>
      </trkpt>
      <trkpt lat="45.98266" lon="4.83735">
        <ele>272</ele>
        <time>2017-08-09T09:40:18Z</time>
      </trkpt>
      <trkpt lat="45.98261" lon="4.83745">
        <ele>272</ele>
        <time>2017-08-09T09:40:20Z</time>
      </trkpt>
      <trkpt lat="45.9826" lon="4.8375">
        <ele>272</ele>
        <time>2017-08-09T09:40:21Z</time>
      </trkpt>
      <trkpt lat="45.98256" lon="4.8376">
        <ele>272</ele>
        <time>2017-08-09T09:40:23Z</time>
      </trkpt>
      <trkpt lat="45.98255" lon="4.83764">
        <ele>272</ele>
        <time>2017-08-09T09:40:24Z</time>
      </trkpt>
      <trkpt lat="45.98252" lon="4.83773">
        <ele>272</ele>
        <time>2017-08-09T09:40:26Z</time>
      </trkpt>
      <trkpt lat="45.98251" lon="4.83776">
        <ele>272</ele>
        <time>2017-08-09T09:40:27Z</time>
      </trkpt>
      <trkpt lat="45.98248" lon="4.83785">
        <ele>272</ele>
        <time>2017-08-09T09:40:29Z</time>
      </trkpt>
      <trkpt lat="45.98246" lon="4.8379">
        <ele>272</ele>
        <time>2017-08-09T09:40:30Z</time>
      </trkpt>
      <trkpt lat="45.98243" lon="4.83801">
        <ele>272</ele>
        <time>2017-08-09T09:40:32Z</time>
      </trkpt>
      <trkpt lat="45.98241" lon="4.83808">
        <ele>272</ele>
        <time>2017-08-09T09:40:33Z</time>
      </trkpt>
      <trkpt lat="45.98239" lon="4.83815">
        <ele>272</ele>
        <time>2017-08-09T09:40:34Z</time>
      </trkpt>
      <trkpt lat="45.98236" lon="4.83821">
        <ele>272</ele>
        <time>2017-08-09T09:40:35Z</time>
      </trkpt>
      <trkpt lat="45.98234" lon="4.83828">
        <ele>272</ele>
        <time>2017-08-09T09:40:36Z</time>
      </trkpt>
      <trkpt lat="45.98232" lon="4.83834">
        <ele>272</ele>
        <time>2017-08-09T09:40:37Z</time>
      </trkpt>
      <trkpt lat="45.98229" lon="4.8384">
        <ele>272</ele>
        <time>2017-08-09T09:40:38Z</time>
      </trkpt>
      <trkpt lat="45.98227" lon="4.83846">
        <ele>272</ele>
        <time>2017-08-09T09:40:39Z</time>
      </trkpt>
      <trkpt lat="45.98225" lon="4.83852">
        <ele>272</ele>
        <time>2017-08-09T09:40:40Z</time>
      </trkpt>
      <trkpt lat="45.98223" lon="4.83858">
        <ele>272</ele>
        <time>2017-08-09T09:40:41Z</time>
      </trkpt>
      <trkpt lat="45.9822" lon="4.83868">
        <ele>272</ele>
        <time>2017-08-09T09:40:43Z</time>
      </trkpt>
      <trkpt lat="45.98218" lon="4.83873">
        <ele>272</ele>
        <time>2017-08-09T09:40:44Z</time>
      </trkpt>
      <trkpt lat="45.98214" lon="4.83884">
        <ele>273</ele>
        <time>2017-08-09T09:40:46Z</time>
      </trkpt>
      <trkpt lat="45.98212" lon="4.8389">
        <ele>273</ele>
        <time>2017-08-09T09:40:47Z</time>
      </trkpt>
      <trkpt lat="45.9821" lon="4.83896">
        <ele>273</ele>
        <time>2017-08-09T09:40:48Z</time>
      </trkpt>
      <trkpt lat="45.98208" lon="4.83902">
        <ele>273</ele>
        <time>2017-08-09T09:40:49Z</time>
      </trkpt>
      <trkpt lat="45.98204" lon="4.83913">
        <ele>273</ele>
        <time>2017-08-09T09:40:51Z</time>
      </trkpt>
      <trkpt lat="45.98202" lon="4.83918">
        <ele>273</ele>
        <time>2017-08-09T09:40:52Z</time>
      </trkpt>
      <trkpt lat="45.98198" lon="4.83928">
        <ele>273</ele>
        <time>2017-08-09T09:40:54Z</time>
      </trkpt>
      <trkpt lat="45.98196" lon="4.83933">
        <ele>273</ele>
        <time>2017-08-09T09:40:55Z</time>
      </trkpt>
      <trkpt lat="45.98192" lon="4.83944">
        <ele>273</ele>
        <time>2017-08-09T09:40:57Z</time>
      </trkpt>
      <trkpt lat="45.9819" lon="4.8395">
        <ele>273</ele>
        <time>2017-08-09T09:40:58Z</time>
      </trkpt>
      <trkpt lat="45.98187" lon="4.83956">
        <ele>273</ele>
        <time>2017-08-09T09:40:59Z</time>
      </trkpt>
      <trkpt lat="45.98185" lon="4.83962">
        <ele>273</ele>
        <time>2017-08-09T09:41:00Z</time>
      </trkpt>
      <trkpt lat="45.98183" lon="4.83968">
        <ele>273</ele>
        <time>2017-08-09T09:41:01Z</time>
      </trkpt>
      <trkpt lat="45.9818" lon="4.83975">
        <ele>273</ele>
        <time>2017-08-09T09:41:02Z</time>
      </trkpt>
      <trkpt lat="45.98178" lon="4.8398">
        <ele>273</ele>
        <time>2017-08-09T09:41:03Z</time>
      </trkpt>
      <trkpt lat="45.98176" lon="4.83986">
        <ele>273</ele>
        <time>2017-08-09T09:41:04Z</time>
      </trkpt>
      <trkpt lat="45.98173" lon="4.83992">
        <ele>273</ele>
        <time>2017-08-09T09:41:05Z</time>
      </trkpt>
      <trkpt lat="45.98171" lon="4.83997">
        <ele>273</ele>
        <time>2017-08-09T09:41:06Z</time>
      </trkpt>
      <trkpt lat="45.98167" lon="4.84008">
        <ele>273</ele>
        <time>2017-08-09T09:41:08Z</time>
      </trkpt>
      <trkpt lat="45.98165" lon="4.84013">
        <ele>273</ele>
        <time>2017-08-09T09:41:09Z</time>
      </trkpt>
      <trkpt lat="45.98162" lon="4.84019">
        <ele>273</ele>
        <time>2017-08-09T09:41:10Z</time>
      </trkpt>
      <trkpt lat="45.98159" lon="4.84024">
        <ele>273</ele>
        <time>2017-08-09T09:41:11Z</time>
      </trkpt>
      <trkpt lat="45.98156" lon="4.8403">
        <ele>273</ele>
        <time>2017-08-09T09:41:12Z</time>
      </trkpt>
      <trkpt lat="45.98153" lon="4.84036">
        <ele>273</ele>
        <time>2017-08-09T09:41:13Z</time>
      </trkpt>
      <trkpt lat="45.98149" lon="4.84041">
        <ele>273</ele>
        <time>2017-08-09T09:41:14Z</time>
      </trkpt>
      <trkpt lat="45.98146" lon="4.84047">
        <ele>273</ele>
        <time>2017-08-09T09:41:15Z</time>
      </trkpt>
      <trkpt lat="45.98142" lon="4.84052">
        <ele>273</ele>
        <time>2017-08-09T09:41:16Z</time>
      </trkpt>
      <trkpt lat="45.98139" lon="4.84056">
        <ele>273</ele>
        <time>2017-08-09T09:41:17Z</time>
      </trkpt>
      <trkpt lat="45.98132" lon="4.84064">
        <ele>273</ele>
        <time>2017-08-09T09:41:19Z</time>
      </trkpt>
      <trkpt lat="45.98129" lon="4.84068">
        <ele>273</ele>
        <time>2017-08-09T09:41:20Z</time>
      </trkpt>
      <trkpt lat="45.98123" lon="4.84076">
        <ele>273</ele>
        <time>2017-08-09T09:41:22Z</time>
      </trkpt>
      <trkpt lat="45.9812" lon="4.84079">
        <ele>273</ele>
        <time>2017-08-09T09:41:23Z</time>
      </trkpt>
      <trkpt lat="45.98117" lon="4.84083">
        <ele>273</ele>
        <time>2017-08-09T09:41:24Z</time>
      </trkpt>
      <trkpt lat="45.98113" lon="4.84087">
        <ele>273</ele>
        <time>2017-08-09T09:41:25Z</time>
      </trkpt>
      <trkpt lat="45.98109" lon="4.84091">
        <ele>273</ele>
        <time>2017-08-09T09:41:26Z</time>
      </trkpt>
      <trkpt lat="45.98105" lon="4.84095">
        <ele>273</ele>
        <time>2017-08-09T09:41:27Z</time>
      </trkpt>
      <trkpt lat="45.98102" lon="4.84099">
        <ele>273</ele>
        <time>2017-08-09T09:41:28Z</time>
      </trkpt>
      <trkpt lat="45.98098" lon="4.84103">
        <ele>273</ele>
        <time>2017-08-09T09:41:29Z</time>
      </trkpt>
      <trkpt lat="45.98091" lon="4.8411">
        <ele>273</ele>
        <time>2017-08-09T09:41:31Z</time>
      </trkpt>
      <trkpt lat="45.98087" lon="4.84114">
        <ele>273</ele>
        <time>2017-08-09T09:41:32Z</time>
      </trkpt>
      <trkpt lat="45.9808" lon="4.8412">
        <ele>273</ele>
        <time>2017-08-09T09:41:34Z</time>
      </trkpt>
      <trkpt lat="45.98076" lon="4.84123">
        <ele>273</ele>
        <time>2017-08-09T09:41:35Z</time>
      </trkpt>
      <trkpt lat="45.98072" lon="4.84127">
        <ele>273</ele>
        <time>2017-08-09T09:41:36Z</time>
      </trkpt>
      <trkpt lat="45.98068" lon="4.84131">
        <ele>273</ele>
        <time>2017-08-09T09:41:37Z</time>
      </trkpt>
      <trkpt lat="45.98064" lon="4.84135">
        <ele>273</ele>
        <time>2017-08-09T09:41:38Z</time>
      </trkpt>
      <trkpt lat="45.9806" lon="4.84139">
        <ele>273</ele>
        <time>2017-08-09T09:41:39Z</time>
      </trkpt>
      <trkpt lat="45.98056" lon="4.84143">
        <ele>273</ele>
        <time>2017-08-09T09:41:40Z</time>
      </trkpt>
      <trkpt lat="45.98051" lon="4.84147">
        <ele>273</ele>
        <time>2017-08-09T09:41:41Z</time>
      </trkpt>
      <trkpt lat="45.98047" lon="4.84151">
        <ele>273</ele>
        <time>2017-08-09T09:41:42Z</time>
      </trkpt>
      <trkpt lat="45.98043" lon="4.84156">
        <ele>273</ele>
        <time>2017-08-09T09:41:43Z</time>
      </trkpt>
      <trkpt lat="45.98036" lon="4.84163">
        <ele>273</ele>
        <time>2017-08-09T09:41:45Z</time>
      </trkpt>
      <trkpt lat="45.98032" lon="4.84166">
        <ele>273</ele>
        <time>2017-08-09T09:41:46Z</time>
      </trkpt>
      <trkpt lat="45.98025" lon="4.84173">
        <ele>274</ele>
        <time>2017-08-09T09:41:48Z</time>
      </trkpt>
      <trkpt lat="45.98022" lon="4.84176">
        <ele>274</ele>
        <time>2017-08-09T09:41:49Z</time>
      </trkpt>
      <trkpt lat="45.98014" lon="4.84182">
        <ele>274</ele>
        <time>2017-08-09T09:41:51Z</time>
      </trkpt>
      <trkpt lat="45.9801" lon="4.84186">
        <ele>274</ele>
        <time>2017-08-09T09:41:52Z</time>
      </trkpt>
      <trkpt lat="45.98006" lon="4.8419">
        <ele>274</ele>
        <time>2017-08-09T09:41:53Z</time>
      </trkpt>
      <trkpt lat="45.98002" lon="4.84194">
        <ele>274</ele>
        <time>2017-08-09T09:41:54Z</time>
      </trkpt>
      <trkpt lat="45.97998" lon="4.84198">
        <ele>274</ele>
        <time>2017-08-09T09:41:55Z</time>
      </trkpt>
      <trkpt lat="45.97994" lon="4.84201">
        <ele>274</ele>
        <time>2017-08-09T09:41:56Z</time>
      </trkpt>
      <trkpt lat="45.97987" lon="4.84208">
        <ele>274</ele>
        <time>2017-08-09T09:41:58Z</time>
      </trkpt>
      <trkpt lat="45.97984" lon="4.84211">
        <ele>274</ele>
        <time>2017-08-09T09:41:59Z</time>
      </trkpt>
      <trkpt lat="45.97976" lon="4.84217">
        <ele>274</ele>
        <time>2017-08-09T09:42:01Z</time>
      </trkpt>
      <trkpt lat="45.97973" lon="4.84221">
        <ele>274</ele>
        <time>2017-08-09T09:42:02Z</time>
      </trkpt>
      <trkpt lat="45.97969" lon="4.84225">
        <ele>274</ele>
        <time>2017-08-09T09:42:03Z</time>
      </trkpt>
      <trkpt lat="45.97965" lon="4.84229">
        <ele>274</ele>
        <time>2017-08-09T09:42:04Z</time>
      </trkpt>
      <trkpt lat="45.9796" lon="4.84233">
        <ele>274</ele>
        <time>2017-08-09T09:42:05Z</time>
      </trkpt>
      <trkpt lat="45.97956" lon="4.84237">
        <ele>275</ele>
        <time>2017-08-09T09:42:06Z</time>
      </trkpt>
      <trkpt lat="45.97952" lon="4.8424">
        <ele>275</ele>
        <time>2017-08-09T09:42:07Z</time>
      </trkpt>
      <trkpt lat="45.97948" lon="4.84244">
        <ele>275</ele>
        <time>2017-08-09T09:42:08Z</time>
      </trkpt>
      <trkpt lat="45.97941" lon="4.84251">
        <ele>275</ele>
        <time>2017-08-09T09:42:10Z</time>
      </trkpt>
      <trkpt lat="45.97937" lon="4.84255">
        <ele>275</ele>
        <time>2017-08-09T09:42:11Z</time>
      </trkpt>
      <trkpt lat="45.97931" lon="4.84261">
        <ele>275</ele>
        <time>2017-08-09T09:42:13Z</time>
      </trkpt>
      <trkpt lat="45.97927" lon="4.84265">
        <ele>275</ele>
        <time>2017-08-09T09:42:14Z</time>
      </trkpt>
      <trkpt lat="45.97923" lon="4.84268">
        <ele>275</ele>
        <time>2017-08-09T09:42:15Z</time>
      </trkpt>
      <trkpt lat="45.9792" lon="4.84272">
        <ele>275</ele>
        <time>2017-08-09T09:42:16Z</time>
      </trkpt>
      <trkpt lat="45.97916" lon="4.84276">
        <ele>275</ele>
        <time>2017-08-09T09:42:17Z</time>
      </trkpt>
      <trkpt lat="45.97913" lon="4.84281">
        <ele>275</ele>
        <time>2017-08-09T09:42:18Z</time>
      </trkpt>
      <trkpt lat="45.97908" lon="4.8429">
        <ele>275</ele>
        <time>2017-08-09T09:42:20Z</time>
      </trkpt>
      <trkpt lat="45.97904" lon="4.84294">
        <ele>275</ele>
        <time>2017-08-09T09:42:21Z</time>
      </trkpt>
      <trkpt lat="45.97899" lon="4.84301">
        <ele>275</ele>
        <time>2017-08-09T09:42:23Z</time>
      </trkpt>
      <trkpt lat="45.97896" lon="4.84305">
        <ele>275</ele>
        <time>2017-08-09T09:42:24Z</time>
      </trkpt>
      <trkpt lat="45.97891" lon="4.84315">
        <ele>275</ele>
        <time>2017-08-09T09:42:27Z</time>
      </trkpt>
      <trkpt lat="45.97888" lon="4.84317">
        <ele>275</ele>
        <time>2017-08-09T09:42:28Z</time>
      </trkpt>
      <trkpt lat="45.97884" lon="4.84324">
        <ele>275</ele>
        <time>2017-08-09T09:42:30Z</time>
      </trkpt>
      <trkpt lat="45.97882" lon="4.84328">
        <ele>275</ele>
        <time>2017-08-09T09:42:31Z</time>
      </trkpt>
      <trkpt lat="45.97876" lon="4.84336">
        <ele>275</ele>
        <time>2017-08-09T09:42:33Z</time>
      </trkpt>
      <trkpt lat="45.97873" lon="4.8434">
        <ele>276</ele>
        <time>2017-08-09T09:42:34Z</time>
      </trkpt>
      <trkpt lat="45.97868" lon="4.8435">
        <ele>276</ele>
        <time>2017-08-09T09:42:36Z</time>
      </trkpt>
      <trkpt lat="45.97866" lon="4.84355">
        <ele>276</ele>
        <time>2017-08-09T09:42:37Z</time>
      </trkpt>
      <trkpt lat="45.9786" lon="4.84363">
        <ele>276</ele>
        <time>2017-08-09T09:42:39Z</time>
      </trkpt>
      <trkpt lat="45.97858" lon="4.84367">
        <ele>276</ele>
        <time>2017-08-09T09:42:40Z</time>
      </trkpt>
      <trkpt lat="45.97853" lon="4.84374">
        <ele>276</ele>
        <time>2017-08-09T09:42:42Z</time>
      </trkpt>
      <trkpt lat="45.9785" lon="4.84378">
        <ele>276</ele>
        <time>2017-08-09T09:42:43Z</time>
      </trkpt>
      <trkpt lat="45.97844" lon="4.84386">
        <ele>276</ele>
        <time>2017-08-09T09:42:45Z</time>
      </trkpt>
      <trkpt lat="45.9784" lon="4.84389">
        <ele>276</ele>
        <time>2017-08-09T09:42:46Z</time>
      </trkpt>
      <trkpt lat="45.97837" lon="4.84393">
        <ele>276</ele>
        <time>2017-08-09T09:42:47Z</time>
      </trkpt>
      <trkpt lat="45.97833" lon="4.84396">
        <ele>276</ele>
        <time>2017-08-09T09:42:48Z</time>
      </trkpt>
      <trkpt lat="45.97825" lon="4.84403">
        <ele>276</ele>
        <time>2017-08-09T09:42:50Z</time>
      </trkpt>
      <trkpt lat="45.97822" lon="4.84406">
        <ele>276</ele>
        <time>2017-08-09T09:42:51Z</time>
      </trkpt>
      <trkpt lat="45.97815" lon="4.8441">
        <ele>276</ele>
        <time>2017-08-09T09:42:53Z</time>
      </trkpt>
      <trkpt lat="45.97811" lon="4.84413">
        <ele>277</ele>
        <time>2017-08-09T09:42:54Z</time>
      </trkpt>
      <trkpt lat="45.97804" lon="4.84417">
        <ele>277</ele>
        <time>2017-08-09T09:42:56Z</time>
      </trkpt>
      <trkpt lat="45.978" lon="4.84419">
        <ele>277</ele>
        <time>2017-08-09T09:42:57Z</time>
      </trkpt>
      <trkpt lat="45.97792" lon="4.84424">
        <ele>277</ele>
        <time>2017-08-09T09:42:59Z</time>
      </trkpt>
      <trkpt lat="45.97788" lon="4.84426">
        <ele>277</ele>
        <time>2017-08-09T09:43:00Z</time>
      </trkpt>
      <trkpt lat="45.97779" lon="4.84429">
        <ele>277</ele>
        <time>2017-08-09T09:43:02Z</time>
      </trkpt>
      <trkpt lat="45.97775" lon="4.84431">
        <ele>277</ele>
        <time>2017-08-09T09:43:03Z</time>
      </trkpt>
      <trkpt lat="45.9777" lon="4.84433">
        <ele>277</ele>
        <time>2017-08-09T09:43:04Z</time>
      </trkpt>
      <trkpt lat="45.97765" lon="4.84435">
        <ele>277</ele>
        <time>2017-08-09T09:43:05Z</time>
      </trkpt>
      <trkpt lat="45.9776" lon="4.84436">
        <ele>277</ele>
        <time>2017-08-09T09:43:06Z</time>
      </trkpt>
      <trkpt lat="45.97755" lon="4.84437">
        <ele>277</ele>
        <time>2017-08-09T09:43:07Z</time>
      </trkpt>
      <trkpt lat="45.97751" lon="4.84439">
        <ele>277</ele>
        <time>2017-08-09T09:43:08Z</time>
      </trkpt>
      <trkpt lat="45.97746" lon="4.84441">
        <ele>277</ele>
        <time>2017-08-09T09:43:09Z</time>
      </trkpt>
      <trkpt lat="45.97741" lon="4.84442">
        <ele>277</ele>
        <time>2017-08-09T09:43:10Z</time>
      </trkpt>
      <trkpt lat="45.97737" lon="4.84444">
        <ele>277</ele>
        <time>2017-08-09T09:43:11Z</time>
      </trkpt>
      <trkpt lat="45.97732" lon="4.84445">
        <ele>277</ele>
        <time>2017-08-09T09:43:12Z</time>
      </trkpt>
      <trkpt lat="45.97728" lon="4.84447">
        <ele>277</ele>
        <time>2017-08-09T09:43:13Z</time>
      </trkpt>
      <trkpt lat="45.97719" lon="4.8445">
        <ele>277</ele>
        <time>2017-08-09T09:43:15Z</time>
      </trkpt>
      <trkpt lat="45.97715" lon="4.84452">
        <ele>277</ele>
        <time>2017-08-09T09:43:16Z</time>
      </trkpt>
      <trkpt lat="45.97708" lon="4.84456">
        <ele>277</ele>
        <time>2017-08-09T09:43:18Z</time>
      </trkpt>
      <trkpt lat="45.97704" lon="4.84457">
        <ele>277</ele>
        <time>2017-08-09T09:43:19Z</time>
      </trkpt>
      <trkpt lat="45.97699" lon="4.84459">
        <ele>277</ele>
        <time>2017-08-09T09:43:20Z</time>
      </trkpt>
      <trkpt lat="45.97695" lon="4.84461">
        <ele>277</ele>
        <time>2017-08-09T09:43:21Z</time>
      </trkpt>
      <trkpt lat="45.9769" lon="4.84463">
        <ele>277</ele>
        <time>2017-08-09T09:43:22Z</time>
      </trkpt>
      <trkpt lat="45.97686" lon="4.84465">
        <ele>277</ele>
        <time>2017-08-09T09:43:23Z</time>
      </trkpt>
      <trkpt lat="45.97681" lon="4.84468">
        <ele>277</ele>
        <time>2017-08-09T09:43:24Z</time>
      </trkpt>
      <trkpt lat="45.97677" lon="4.84471">
        <ele>277</ele>
        <time>2017-08-09T09:43:25Z</time>
      </trkpt>
      <trkpt lat="45.97672" lon="4.84474">
        <ele>276</ele>
        <time>2017-08-09T09:43:26Z</time>
      </trkpt>
      <trkpt lat="45.97668" lon="4.84477">
        <ele>276</ele>
        <time>2017-08-09T09:43:27Z</time>
      </trkpt>
      <trkpt lat="45.97664" lon="4.8448">
        <ele>276</ele>
        <time>2017-08-09T09:43:28Z</time>
      </trkpt>
      <trkpt lat="45.9766" lon="4.84483">
        <ele>275</ele>
        <time>2017-08-09T09:43:29Z</time>
      </trkpt>
      <trkpt lat="45.97652" lon="4.84489">
        <ele>275</ele>
        <time>2017-08-09T09:43:31Z</time>
      </trkpt>
      <trkpt lat="45.97649" lon="4.84493">
        <ele>275</ele>
        <time>2017-08-09T09:43:32Z</time>
      </trkpt>
      <trkpt lat="45.97642" lon="4.84501">
        <ele>275</ele>
        <time>2017-08-09T09:43:34Z</time>
      </trkpt>
      <trkpt lat="45.97639" lon="4.84505">
        <ele>275</ele>
        <time>2017-08-09T09:43:35Z</time>
      </trkpt>
      <trkpt lat="45.97635" lon="4.84509">
        <ele>275</ele>
        <time>2017-08-09T09:43:36Z</time>
      </trkpt>
      <trkpt lat="45.97632" lon="4.84513">
        <ele>275</ele>
        <time>2017-08-09T09:43:37Z</time>
      </trkpt>
      <trkpt lat="45.97628" lon="4.84517">
        <ele>275</ele>
        <time>2017-08-09T09:43:38Z</time>
      </trkpt>
      <trkpt lat="45.97624" lon="4.84522">
        <ele>275</ele>
        <time>2017-08-09T09:43:39Z</time>
      </trkpt>
      <trkpt lat="45.9762" lon="4.84527">
        <ele>275</ele>
        <time>2017-08-09T09:43:40Z</time>
      </trkpt>
      <trkpt lat="45.97616" lon="4.84532">
        <ele>275</ele>
        <time>2017-08-09T09:43:41Z</time>
      </trkpt>
      <trkpt lat="45.97612" lon="4.84537">
        <ele>275</ele>
        <time>2017-08-09T09:43:42Z</time>
      </trkpt>
      <trkpt lat="45.97608" lon="4.84541">
        <ele>275</ele>
        <time>2017-08-09T09:43:43Z</time>
      </trkpt>
      <trkpt lat="45.97604" lon="4.84546">
        <ele>275</ele>
        <time>2017-08-09T09:43:44Z</time>
      </trkpt>
      <trkpt lat="45.97601" lon="4.8455">
        <ele>275</ele>
        <time>2017-08-09T09:43:45Z</time>
      </trkpt>
      <trkpt lat="45.97597" lon="4.84555">
        <ele>275</ele>
        <time>2017-08-09T09:43:46Z</time>
      </trkpt>
      <trkpt lat="45.97594" lon="4.84559">
        <ele>275</ele>
        <time>2017-08-09T09:43:47Z</time>
      </trkpt>
      <trkpt lat="45.97588" lon="4.84567">
        <ele>274</ele>
        <time>2017-08-09T09:43:49Z</time>
      </trkpt>
      <trkpt lat="45.97585" lon="4.8457">
        <ele>274</ele>
        <time>2017-08-09T09:43:50Z</time>
      </trkpt>
      <trkpt lat="45.97579" lon="4.84577">
        <ele>274</ele>
        <time>2017-08-09T09:43:52Z</time>
      </trkpt>
      <trkpt lat="45.97576" lon="4.84581">
        <ele>274</ele>
        <time>2017-08-09T09:43:53Z</time>
      </trkpt>
      <trkpt lat="45.97569" lon="4.84588">
        <ele>274</ele>
        <time>2017-08-09T09:43:55Z</time>
      </trkpt>
      <trkpt lat="45.97565" lon="4.84593">
        <ele>274</ele>
        <time>2017-08-09T09:43:56Z</time>
      </trkpt>
      <trkpt lat="45.97561" lon="4.84597">
        <ele>274</ele>
        <time>2017-08-09T09:43:57Z</time>
      </trkpt>
      <trkpt lat="45.97557" lon="4.84602">
        <ele>274</ele>
        <time>2017-08-09T09:43:58Z</time>
      </trkpt>
      <trkpt lat="45.97552" lon="4.84606">
        <ele>274</ele>
        <time>2017-08-09T09:43:59Z</time>
      </trkpt>
      <trkpt lat="45.97548" lon="4.8461">
        <ele>274</ele>
        <time>2017-08-09T09:44:00Z</time>
      </trkpt>
      <trkpt lat="45.97544" lon="4.84614">
        <ele>274</ele>
        <time>2017-08-09T09:44:01Z</time>
      </trkpt>
      <trkpt lat="45.9754" lon="4.84618">
        <ele>275</ele>
        <time>2017-08-09T09:44:02Z</time>
      </trkpt>
      <trkpt lat="45.97533" lon="4.84625">
        <ele>275</ele>
        <time>2017-08-09T09:44:04Z</time>
      </trkpt>
      <trkpt lat="45.97529" lon="4.84628">
        <ele>275</ele>
        <time>2017-08-09T09:44:05Z</time>
      </trkpt>
      <trkpt lat="45.97522" lon="4.84634">
        <ele>275</ele>
        <time>2017-08-09T09:44:07Z</time>
      </trkpt>
      <trkpt lat="45.97519" lon="4.84637">
        <ele>275</ele>
        <time>2017-08-09T09:44:08Z</time>
      </trkpt>
      <trkpt lat="45.97511" lon="4.84643">
        <ele>275</ele>
        <time>2017-08-09T09:44:10Z</time>
      </trkpt>
      <trkpt lat="45.97507" lon="4.84647">
        <ele>275</ele>
        <time>2017-08-09T09:44:11Z</time>
      </trkpt>
      <trkpt lat="45.97503" lon="4.8465">
        <ele>275</ele>
        <time>2017-08-09T09:44:12Z</time>
      </trkpt>
      <trkpt lat="45.97499" lon="4.84653">
        <ele>275</ele>
        <time>2017-08-09T09:44:13Z</time>
      </trkpt>
      <trkpt lat="45.97494" lon="4.84656">
        <ele>275</ele>
        <time>2017-08-09T09:44:14Z</time>
      </trkpt>
      <trkpt lat="45.9749" lon="4.84659">
        <ele>275</ele>
        <time>2017-08-09T09:44:15Z</time>
      </trkpt>
      <trkpt lat="45.97482" lon="4.84663">
        <ele>276</ele>
        <time>2017-08-09T09:44:17Z</time>
      </trkpt>
      <trkpt lat="45.97478" lon="4.84666">
        <ele>276</ele>
        <time>2017-08-09T09:44:18Z</time>
      </trkpt>
      <trkpt lat="45.9747" lon="4.84672">
        <ele>276</ele>
        <time>2017-08-09T09:44:20Z</time>
      </trkpt>
      <trkpt lat="45.97466" lon="4.84675">
        <ele>276</ele>
        <time>2017-08-09T09:44:21Z</time>
      </trkpt>
      <trkpt lat="45.97462" lon="4.84678">
        <ele>276</ele>
        <time>2017-08-09T09:44:22Z</time>
      </trkpt>
      <trkpt lat="45.97457" lon="4.84681">
        <ele>276</ele>
        <time>2017-08-09T09:44:23Z</time>
      </trkpt>
      <trkpt lat="45.97453" lon="4.84684">
        <ele>276</ele>
        <time>2017-08-09T09:44:24Z</time>
      </trkpt>
      <trkpt lat="45.97448" lon="4.84687">
        <ele>276</ele>
        <time>2017-08-09T09:44:25Z</time>
      </trkpt>
      <trkpt lat="45.97443" lon="4.8469">
        <ele>276</ele>
        <time>2017-08-09T09:44:26Z</time>
      </trkpt>
      <trkpt lat="45.97439" lon="4.84693">
        <ele>276</ele>
        <time>2017-08-09T09:44:27Z</time>
      </trkpt>
      <trkpt lat="45.97435" lon="4.84696">
        <ele>276</ele>
        <time>2017-08-09T09:44:28Z</time>
      </trkpt>
      <trkpt lat="45.97431" lon="4.84699">
        <ele>276</ele>
        <time>2017-08-09T09:44:29Z</time>
      </trkpt>
      <trkpt lat="45.97423" lon="4.84704">
        <ele>276</ele>
        <time>2017-08-09T09:44:31Z</time>
      </trkpt>
      <trkpt lat="45.97419" lon="4.84707">
        <ele>276</ele>
        <time>2017-08-09T09:44:32Z</time>
      </trkpt>
      <trkpt lat="45.97413" lon="4.84712">
        <ele>278</ele>
        <time>2017-08-09T09:44:34Z</time>
      </trkpt>
      <trkpt lat="45.97409" lon="4.84714">
        <ele>278</ele>
        <time>2017-08-09T09:44:35Z</time>
      </trkpt>
      <trkpt lat="45.97401" lon="4.84719">
        <ele>278</ele>
        <time>2017-08-09T09:44:37Z</time>
      </trkpt>
      <trkpt lat="45.97397" lon="4.84721">
        <ele>278</ele>
        <time>2017-08-09T09:44:38Z</time>
      </trkpt>
      <trkpt lat="45.9739" lon="4.84728">
        <ele>278</ele>
        <time>2017-08-09T09:44:40Z</time>
      </trkpt>
      <trkpt lat="45.97387" lon="4.84732">
        <ele>278</ele>
        <time>2017-08-09T09:44:41Z</time>
      </trkpt>
      <trkpt lat="45.97384" lon="4.84737">
        <ele>278</ele>
        <time>2017-08-09T09:44:42Z</time>
      </trkpt>
      <trkpt lat="45.97382" lon="4.84743">
        <ele>278</ele>
        <time>2017-08-09T09:44:43Z</time>
      </trkpt>
      <trkpt lat="45.97379" lon="4.84749">
        <ele>278</ele>
        <time>2017-08-09T09:44:44Z</time>
      </trkpt>
      <trkpt lat="45.97376" lon="4.84755">
        <ele>278</ele>
        <time>2017-08-09T09:44:45Z</time>
      </trkpt>
      <trkpt lat="45.97373" lon="4.84761">
        <ele>278</ele>
        <time>2017-08-09T09:44:46Z</time>
      </trkpt>
      <trkpt lat="45.9737" lon="4.84766">
        <ele>278</ele>
        <time>2017-08-09T09:44:47Z</time>
      </trkpt>
      <trkpt lat="45.97368" lon="4.84772">
        <ele>278</ele>
        <time>2017-08-09T09:44:48Z</time>
      </trkpt>
      <trkpt lat="45.97365" lon="4.84778">
        <ele>278</ele>
        <time>2017-08-09T09:44:49Z</time>
      </trkpt>
      <trkpt lat="45.97363" lon="4.84783">
        <ele>278</ele>
        <time>2017-08-09T09:44:50Z</time>
      </trkpt>
      <trkpt lat="45.97361" lon="4.84789">
        <ele>278</ele>
        <time>2017-08-09T09:44:51Z</time>
      </trkpt>
      <trkpt lat="45.97357" lon="4.848">
        <ele>278</ele>
        <time>2017-08-09T09:44:53Z</time>
      </trkpt>
      <trkpt lat="45.97355" lon="4.84806">
        <ele>278</ele>
        <time>2017-08-09T09:44:54Z</time>
      </trkpt>
      <trkpt lat="45.97351" lon="4.84816">
        <ele>278</ele>
        <time>2017-08-09T09:44:56Z</time>
      </trkpt>
      <trkpt lat="45.97348" lon="4.84821">
        <ele>278</ele>
        <time>2017-08-09T09:44:57Z</time>
      </trkpt>
      <trkpt lat="45.97345" lon="4.84826">
        <ele>278</ele>
        <time>2017-08-09T09:44:58Z</time>
      </trkpt>
      <trkpt lat="45.97342" lon="4.84831">
        <ele>278</ele>
        <time>2017-08-09T09:44:59Z</time>
      </trkpt>
      <trkpt lat="45.9734" lon="4.84838">
        <ele>278</ele>
        <time>2017-08-09T09:45:00Z</time>
      </trkpt>
      <trkpt lat="45.97337" lon="4.84844">
        <ele>277</ele>
        <time>2017-08-09T09:45:01Z</time>
      </trkpt>
      <trkpt lat="45.97334" lon="4.84851">
        <ele>277</ele>
        <time>2017-08-09T09:45:02Z</time>
      </trkpt>
      <trkpt lat="45.97331" lon="4.84858">
        <ele>278</ele>
        <time>2017-08-09T09:45:03Z</time>
      </trkpt>
      <trkpt lat="45.97327" lon="4.84864">
        <ele>278</ele>
        <time>2017-08-09T09:45:04Z</time>
      </trkpt>
      <trkpt lat="45.97324" lon="4.8487">
        <ele>278</ele>
        <time>2017-08-09T09:45:05Z</time>
      </trkpt>
      <trkpt lat="45.97321" lon="4.84876">
        <ele>278</ele>
        <time>2017-08-09T09:45:06Z</time>
      </trkpt>
      <trkpt lat="45.97318" lon="4.84881">
        <ele>278</ele>
        <time>2017-08-09T09:45:07Z</time>
      </trkpt>
      <trkpt lat="45.97315" lon="4.84886">
        <ele>278</ele>
        <time>2017-08-09T09:45:08Z</time>
      </trkpt>
      <trkpt lat="45.97312" lon="4.84892">
        <ele>278</ele>
        <time>2017-08-09T09:45:09Z</time>
      </trkpt>
      <trkpt lat="45.97309" lon="4.84896">
        <ele>278</ele>
        <time>2017-08-09T09:45:10Z</time>
      </trkpt>
      <trkpt lat="45.97305" lon="4.84902">
        <ele>278</ele>
        <time>2017-08-09T09:45:11Z</time>
      </trkpt>
      <trkpt lat="45.97303" lon="4.84908">
        <ele>278</ele>
        <time>2017-08-09T09:45:12Z</time>
      </trkpt>
      <trkpt lat="45.973" lon="4.84913">
        <ele>278</ele>
        <time>2017-08-09T09:45:13Z</time>
      </trkpt>
      <trkpt lat="45.97297" lon="4.84919">
        <ele>278</ele>
        <time>2017-08-09T09:45:14Z</time>
      </trkpt>
      <trkpt lat="45.97294" lon="4.84924">
        <ele>278</ele>
        <time>2017-08-09T09:45:15Z</time>
      </trkpt>
      <trkpt lat="45.97291" lon="4.84929">
        <ele>278</ele>
        <time>2017-08-09T09:45:16Z</time>
      </trkpt>
      <trkpt lat="45.97287" lon="4.84935">
        <ele>278</ele>
        <time>2017-08-09T09:45:17Z</time>
      </trkpt>
      <trkpt lat="45.97283" lon="4.84941">
        <ele>278</ele>
        <time>2017-08-09T09:45:18Z</time>
      </trkpt>
      <trkpt lat="45.9728" lon="4.84947">
        <ele>278</ele>
        <time>2017-08-09T09:45:19Z</time>
      </trkpt>
      <trkpt lat="45.97277" lon="4.84953">
        <ele>278</ele>
        <time>2017-08-09T09:45:20Z</time>
      </trkpt>
      <trkpt lat="45.97273" lon="4.84959">
        <ele>279</ele>
        <time>2017-08-09T09:45:21Z</time>
      </trkpt>
      <trkpt lat="45.9727" lon="4.84965">
        <ele>279</ele>
        <time>2017-08-09T09:45:22Z</time>
      </trkpt>
      <trkpt lat="45.97268" lon="4.8497">
        <ele>279</ele>
        <time>2017-08-09T09:45:23Z</time>
      </trkpt>
      <trkpt lat="45.97263" lon="4.8498">
        <ele>279</ele>
        <time>2017-08-09T09:45:25Z</time>
      </trkpt>
      <trkpt lat="45.9726" lon="4.84985">
        <ele>279</ele>
        <time>2017-08-09T09:45:26Z</time>
      </trkpt>
      <trkpt lat="45.97255" lon="4.84994">
        <ele>279</ele>
        <time>2017-08-09T09:45:28Z</time>
      </trkpt>
      <trkpt lat="45.97252" lon="4.85">
        <ele>279</ele>
        <time>2017-08-09T09:45:29Z</time>
      </trkpt>
      <trkpt lat="45.97249" lon="4.85006">
        <ele>279</ele>
        <time>2017-08-09T09:45:30Z</time>
      </trkpt>
      <trkpt lat="45.97247" lon="4.85012">
        <ele>279</ele>
        <time>2017-08-09T09:45:31Z</time>
      </trkpt>
      <trkpt lat="45.97244" lon="4.85019">
        <ele>279</ele>
        <time>2017-08-09T09:45:32Z</time>
      </trkpt>
      <trkpt lat="45.97241" lon="4.85025">
        <ele>279</ele>
        <time>2017-08-09T09:45:33Z</time>
      </trkpt>
      <trkpt lat="45.97239" lon="4.8503">
        <ele>279</ele>
        <time>2017-08-09T09:45:34Z</time>
      </trkpt>
      <trkpt lat="45.97236" lon="4.85036">
        <ele>279</ele>
        <time>2017-08-09T09:45:35Z</time>
      </trkpt>
      <trkpt lat="45.97234" lon="4.85042">
        <ele>279</ele>
        <time>2017-08-09T09:45:36Z</time>
      </trkpt>
      <trkpt lat="45.97231" lon="4.85047">
        <ele>279</ele>
        <time>2017-08-09T09:45:37Z</time>
      </trkpt>
      <trkpt lat="45.97226" lon="4.85057">
        <ele>279</ele>
        <time>2017-08-09T09:45:39Z</time>
      </trkpt>
      <trkpt lat="45.97223" lon="4.85063">
        <ele>279</ele>
        <time>2017-08-09T09:45:40Z</time>
      </trkpt>
      <trkpt lat="45.97221" lon="4.85068">
        <ele>278</ele>
        <time>2017-08-09T09:45:41Z</time>
      </trkpt>
      <trkpt lat="45.97218" lon="4.85075">
        <ele>278</ele>
        <time>2017-08-09T09:45:42Z</time>
      </trkpt>
      <trkpt lat="45.97216" lon="4.85081">
        <ele>278</ele>
        <time>2017-08-09T09:45:43Z</time>
      </trkpt>
      <trkpt lat="45.97212" lon="4.85087">
        <ele>278</ele>
        <time>2017-08-09T09:45:44Z</time>
      </trkpt>
      <trkpt lat="45.97209" lon="4.85093">
        <ele>278</ele>
        <time>2017-08-09T09:45:45Z</time>
      </trkpt>
      <trkpt lat="45.97206" lon="4.85099">
        <ele>278</ele>
        <time>2017-08-09T09:45:46Z</time>
      </trkpt>
      <trkpt lat="45.97203" lon="4.85106">
        <ele>278</ele>
        <time>2017-08-09T09:45:47Z</time>
      </trkpt>
      <trkpt lat="45.972" lon="4.85112">
        <ele>278</ele>
        <time>2017-08-09T09:45:48Z</time>
      </trkpt>
      <trkpt lat="45.97197" lon="4.85119">
        <ele>278</ele>
        <time>2017-08-09T09:45:49Z</time>
      </trkpt>
      <trkpt lat="45.97194" lon="4.85125">
        <ele>278</ele>
        <time>2017-08-09T09:45:50Z</time>
      </trkpt>
      <trkpt lat="45.97191" lon="4.85131">
        <ele>278</ele>
        <time>2017-08-09T09:45:51Z</time>
      </trkpt>
      <trkpt lat="45.97189" lon="4.85137">
        <ele>278</ele>
        <time>2017-08-09T09:45:52Z</time>
      </trkpt>
      <trkpt lat="45.97186" lon="4.85142">
        <ele>278</ele>
        <time>2017-08-09T09:45:53Z</time>
      </trkpt>
      <trkpt lat="45.97183" lon="4.85148">
        <ele>278</ele>
        <time>2017-08-09T09:45:54Z</time>
      </trkpt>
      <trkpt lat="45.97179" lon="4.85158">
        <ele>278</ele>
        <time>2017-08-09T09:45:56Z</time>
      </trkpt>
      <trkpt lat="45.97177" lon="4.85163">
        <ele>278</ele>
        <time>2017-08-09T09:45:57Z</time>
      </trkpt>
      <trkpt lat="45.97172" lon="4.85174">
        <ele>278</ele>
        <time>2017-08-09T09:45:59Z</time>
      </trkpt>
      <trkpt lat="45.97169" lon="4.85179">
        <ele>278</ele>
        <time>2017-08-09T09:46:00Z</time>
      </trkpt>
      <trkpt lat="45.97166" lon="4.85185">
        <ele>279</ele>
        <time>2017-08-09T09:46:01Z</time>
      </trkpt>
      <trkpt lat="45.97163" lon="4.85191">
        <ele>279</ele>
        <time>2017-08-09T09:46:02Z</time>
      </trkpt>
      <trkpt lat="45.9716" lon="4.85197">
        <ele>279</ele>
        <time>2017-08-09T09:46:03Z</time>
      </trkpt>
      <trkpt lat="45.97157" lon="4.85203">
        <ele>279</ele>
        <time>2017-08-09T09:46:04Z</time>
      </trkpt>
      <trkpt lat="45.97155" lon="4.85209">
        <ele>279</ele>
        <time>2017-08-09T09:46:05Z</time>
      </trkpt>
      <trkpt lat="45.97152" lon="4.85215">
        <ele>279</ele>
        <time>2017-08-09T09:46:06Z</time>
      </trkpt>
      <trkpt lat="45.9715" lon="4.8522">
        <ele>279</ele>
        <time>2017-08-09T09:46:07Z</time>
      </trkpt>
      <trkpt lat="45.97147" lon="4.85225">
        <ele>279</ele>
        <time>2017-08-09T09:46:08Z</time>
      </trkpt>
      <trkpt lat="45.97142" lon="4.85236">
        <ele>279</ele>
        <time>2017-08-09T09:46:10Z</time>
      </trkpt>
      <trkpt lat="45.9714" lon="4.85241">
        <ele>279</ele>
        <time>2017-08-09T09:46:11Z</time>
      </trkpt>
      <trkpt lat="45.97135" lon="4.85251">
        <ele>279</ele>
        <time>2017-08-09T09:46:13Z</time>
      </trkpt>
      <trkpt lat="45.97132" lon="4.85257">
        <ele>279</ele>
        <time>2017-08-09T09:46:14Z</time>
      </trkpt>
      <trkpt lat="45.97129" lon="4.85262">
        <ele>279</ele>
        <time>2017-08-09T09:46:15Z</time>
      </trkpt>
      <trkpt lat="45.97126" lon="4.85268">
        <ele>279</ele>
        <time>2017-08-09T09:46:16Z</time>
      </trkpt>
      <trkpt lat="45.97123" lon="4.85274">
        <ele>280</ele>
        <time>2017-08-09T09:46:17Z</time>
      </trkpt>
      <trkpt lat="45.9712" lon="4.8528">
        <ele>280</ele>
        <time>2017-08-09T09:46:18Z</time>
      </trkpt>
      <trkpt lat="45.97117" lon="4.85286">
        <ele>280</ele>
        <time>2017-08-09T09:46:19Z</time>
      </trkpt>
      <trkpt lat="45.97114" lon="4.85292">
        <ele>280</ele>
        <time>2017-08-09T09:46:20Z</time>
      </trkpt>
      <trkpt lat="45.97111" lon="4.85298">
        <ele>280</ele>
        <time>2017-08-09T09:46:21Z</time>
      </trkpt>
      <trkpt lat="45.97109" lon="4.85304">
        <ele>280</ele>
        <time>2017-08-09T09:46:22Z</time>
      </trkpt>
      <trkpt lat="45.97106" lon="4.8531">
        <ele>280</ele>
        <time>2017-08-09T09:46:23Z</time>
      </trkpt>
      <trkpt lat="45.97104" lon="4.85315">
        <ele>280</ele>
        <time>2017-08-09T09:46:24Z</time>
      </trkpt>
      <trkpt lat="45.971" lon="4.85327">
        <ele>280</ele>
        <time>2017-08-09T09:46:26Z</time>
      </trkpt>
      <trkpt lat="45.97098" lon="4.85332">
        <ele>280</ele>
        <time>2017-08-09T09:46:27Z</time>
      </trkpt>
      <trkpt lat="45.97096" lon="4.85339">
        <ele>280</ele>
        <time>2017-08-09T09:46:28Z</time>
      </trkpt>
      <trkpt lat="45.97094" lon="4.85345">
        <ele>280</ele>
        <time>2017-08-09T09:46:29Z</time>
      </trkpt>
      <trkpt lat="45.97091" lon="4.85351">
        <ele>280</ele>
        <time>2017-08-09T09:46:30Z</time>
      </trkpt>
      <trkpt lat="45.97089" lon="4.85357">
        <ele>280</ele>
        <time>2017-08-09T09:46:31Z</time>
      </trkpt>
      <trkpt lat="45.97087" lon="4.85364">
        <ele>280</ele>
        <time>2017-08-09T09:46:32Z</time>
      </trkpt>
      <trkpt lat="45.97085" lon="4.8537">
        <ele>280</ele>
        <time>2017-08-09T09:46:33Z</time>
      </trkpt>
      <trkpt lat="45.97083" lon="4.85376">
        <ele>281</ele>
        <time>2017-08-09T09:46:34Z</time>
      </trkpt>
      <trkpt lat="45.97081" lon="4.85382">
        <ele>281</ele>
        <time>2017-08-09T09:46:35Z</time>
      </trkpt>
      <trkpt lat="45.97078" lon="4.85392">
        <ele>281</ele>
        <time>2017-08-09T09:46:37Z</time>
      </trkpt>
      <trkpt lat="45.97076" lon="4.85398">
        <ele>281</ele>
        <time>2017-08-09T09:46:38Z</time>
      </trkpt>
      <trkpt lat="45.97075" lon="4.85404">
        <ele>281</ele>
        <time>2017-08-09T09:46:39Z</time>
      </trkpt>
      <trkpt lat="45.97073" lon="4.8541">
        <ele>281</ele>
        <time>2017-08-09T09:46:40Z</time>
      </trkpt>
      <trkpt lat="45.97071" lon="4.85416">
        <ele>281</ele>
        <time>2017-08-09T09:46:41Z</time>
      </trkpt>
      <trkpt lat="45.97069" lon="4.85423">
        <ele>281</ele>
        <time>2017-08-09T09:46:42Z</time>
      </trkpt>
      <trkpt lat="45.97066" lon="4.8543">
        <ele>281</ele>
        <time>2017-08-09T09:46:43Z</time>
      </trkpt>
      <trkpt lat="45.97064" lon="4.85437">
        <ele>281</ele>
        <time>2017-08-09T09:46:44Z</time>
      </trkpt>
      <trkpt lat="45.97062" lon="4.85444">
        <ele>281</ele>
        <time>2017-08-09T09:46:45Z</time>
      </trkpt>
      <trkpt lat="45.9706" lon="4.8545">
        <ele>281</ele>
        <time>2017-08-09T09:46:46Z</time>
      </trkpt>
      <trkpt lat="45.97057" lon="4.85457">
        <ele>281</ele>
        <time>2017-08-09T09:46:47Z</time>
      </trkpt>
      <trkpt lat="45.97055" lon="4.85463">
        <ele>281</ele>
        <time>2017-08-09T09:46:48Z</time>
      </trkpt>
      <trkpt lat="45.97051" lon="4.85473">
        <ele>281</ele>
        <time>2017-08-09T09:46:50Z</time>
      </trkpt>
      <trkpt lat="45.9705" lon="4.85479">
        <ele>281</ele>
        <time>2017-08-09T09:46:51Z</time>
      </trkpt>
      <trkpt lat="45.97046" lon="4.8549">
        <ele>281</ele>
        <time>2017-08-09T09:46:53Z</time>
      </trkpt>
      <trkpt lat="45.97044" lon="4.85497">
        <ele>281</ele>
        <time>2017-08-09T09:46:54Z</time>
      </trkpt>
      <trkpt lat="45.97043" lon="4.85503">
        <ele>282</ele>
        <time>2017-08-09T09:46:55Z</time>
      </trkpt>
      <trkpt lat="45.9704" lon="4.85509">
        <ele>282</ele>
        <time>2017-08-09T09:46:56Z</time>
      </trkpt>
      <trkpt lat="45.97038" lon="4.85516">
        <ele>282</ele>
        <time>2017-08-09T09:46:57Z</time>
      </trkpt>
      <trkpt lat="45.97036" lon="4.85522">
        <ele>282</ele>
        <time>2017-08-09T09:46:58Z</time>
      </trkpt>
      <trkpt lat="45.97032" lon="4.85532">
        <ele>282</ele>
        <time>2017-08-09T09:47:00Z</time>
      </trkpt>
      <trkpt lat="45.97031" lon="4.85538">
        <ele>283</ele>
        <time>2017-08-09T09:47:01Z</time>
      </trkpt>
      <trkpt lat="45.97028" lon="4.85548">
        <ele>283</ele>
        <time>2017-08-09T09:47:03Z</time>
      </trkpt>
      <trkpt lat="45.97026" lon="4.85554">
        <ele>283</ele>
        <time>2017-08-09T09:47:04Z</time>
      </trkpt>
      <trkpt lat="45.97024" lon="4.8556">
        <ele>283</ele>
        <time>2017-08-09T09:47:05Z</time>
      </trkpt>
      <trkpt lat="45.97022" lon="4.85567">
        <ele>283</ele>
        <time>2017-08-09T09:47:06Z</time>
      </trkpt>
      <trkpt lat="45.9702" lon="4.85573">
        <ele>283</ele>
        <time>2017-08-09T09:47:07Z</time>
      </trkpt>
      <trkpt lat="45.97018" lon="4.85579">
        <ele>284</ele>
        <time>2017-08-09T09:47:08Z</time>
      </trkpt>
      <trkpt lat="45.97015" lon="4.8559">
        <ele>284</ele>
        <time>2017-08-09T09:47:10Z</time>
      </trkpt>
      <trkpt lat="45.97013" lon="4.85596">
        <ele>284</ele>
        <time>2017-08-09T09:47:11Z</time>
      </trkpt>
      <trkpt lat="45.9701" lon="4.85607">
        <ele>284</ele>
        <time>2017-08-09T09:47:13Z</time>
      </trkpt>
      <trkpt lat="45.97009" lon="4.85612">
        <ele>284</ele>
        <time>2017-08-09T09:47:14Z</time>
      </trkpt>
      <trkpt lat="45.97007" lon="4.85623">
        <ele>284</ele>
        <time>2017-08-09T09:47:16Z</time>
      </trkpt>
      <trkpt lat="45.97005" lon="4.85629">
        <ele>284</ele>
        <time>2017-08-09T09:47:17Z</time>
      </trkpt>
      <trkpt lat="45.97002" lon="4.8564">
        <ele>284</ele>
        <time>2017-08-09T09:47:19Z</time>
      </trkpt>
      <trkpt lat="45.97" lon="4.85645">
        <ele>285</ele>
        <time>2017-08-09T09:47:20Z</time>
      </trkpt>
      <trkpt lat="45.96998" lon="4.85657">
        <ele>286</ele>
        <time>2017-08-09T09:47:22Z</time>
      </trkpt>
      <trkpt lat="45.96997" lon="4.85662">
        <ele>286</ele>
        <time>2017-08-09T09:47:23Z</time>
      </trkpt>
      <trkpt lat="45.96994" lon="4.85674">
        <ele>286</ele>
        <time>2017-08-09T09:47:25Z</time>
      </trkpt>
      <trkpt lat="45.96992" lon="4.85679">
        <ele>286</ele>
        <time>2017-08-09T09:47:26Z</time>
      </trkpt>
      <trkpt lat="45.96989" lon="4.85689">
        <ele>285</ele>
        <time>2017-08-09T09:47:28Z</time>
      </trkpt>
      <trkpt lat="45.96987" lon="4.85695">
        <ele>285</ele>
        <time>2017-08-09T09:47:29Z</time>
      </trkpt>
      <trkpt lat="45.96985" lon="4.85701">
        <ele>285</ele>
        <time>2017-08-09T09:47:30Z</time>
      </trkpt>
      <trkpt lat="45.96984" lon="4.85707">
        <ele>285</ele>
        <time>2017-08-09T09:47:31Z</time>
      </trkpt>
      <trkpt lat="45.96981" lon="4.85719">
        <ele>285</ele>
        <time>2017-08-09T09:47:33Z</time>
      </trkpt>
      <trkpt lat="45.96979" lon="4.85725">
        <ele>285</ele>
        <time>2017-08-09T09:47:34Z</time>
      </trkpt>
      <trkpt lat="45.96976" lon="4.85736">
        <ele>285</ele>
        <time>2017-08-09T09:47:36Z</time>
      </trkpt>
      <trkpt lat="45.96975" lon="4.85742">
        <ele>285</ele>
        <time>2017-08-09T09:47:37Z</time>
      </trkpt>
      <trkpt lat="45.96972" lon="4.85753">
        <ele>285</ele>
        <time>2017-08-09T09:47:39Z</time>
      </trkpt>
      <trkpt lat="45.9697" lon="4.85759">
        <ele>285</ele>
        <time>2017-08-09T09:47:40Z</time>
      </trkpt>
      <trkpt lat="45.96968" lon="4.85771">
        <ele>285</ele>
        <time>2017-08-09T09:47:42Z</time>
      </trkpt>
      <trkpt lat="45.96966" lon="4.85776">
        <ele>285</ele>
        <time>2017-08-09T09:47:43Z</time>
      </trkpt>
      <trkpt lat="45.96963" lon="4.85788">
        <ele>285</ele>
        <time>2017-08-09T09:47:45Z</time>
      </trkpt>
      <trkpt lat="45.96962" lon="4.85796">
        <ele>285</ele>
        <time>2017-08-09T09:47:46Z</time>
      </trkpt>
      <trkpt lat="45.9696" lon="4.85803">
        <ele>285</ele>
        <time>2017-08-09T09:47:47Z</time>
      </trkpt>
      <trkpt lat="45.96959" lon="4.85809">
        <ele>285</ele>
        <time>2017-08-09T09:47:48Z</time>
      </trkpt>
      <trkpt lat="45.96956" lon="4.85821">
        <ele>285</ele>
        <time>2017-08-09T09:47:50Z</time>
      </trkpt>
      <trkpt lat="45.96954" lon="4.85827">
        <ele>285</ele>
        <time>2017-08-09T09:47:51Z</time>
      </trkpt>
      <trkpt lat="45.96951" lon="4.85838">
        <ele>285</ele>
        <time>2017-08-09T09:47:53Z</time>
      </trkpt>
      <trkpt lat="45.9695" lon="4.85843">
        <ele>285</ele>
        <time>2017-08-09T09:47:54Z</time>
      </trkpt>
      <trkpt lat="45.96948" lon="4.85849">
        <ele>285</ele>
        <time>2017-08-09T09:47:55Z</time>
      </trkpt>
      <trkpt lat="45.96946" lon="4.85855">
        <ele>285</ele>
        <time>2017-08-09T09:47:56Z</time>
      </trkpt>
      <trkpt lat="45.96944" lon="4.85862">
        <ele>285</ele>
        <time>2017-08-09T09:47:57Z</time>
      </trkpt>
      <trkpt lat="45.96943" lon="4.85869">
        <ele>285</ele>
        <time>2017-08-09T09:47:58Z</time>
      </trkpt>
      <trkpt lat="45.96941" lon="4.85875">
        <ele>285</ele>
        <time>2017-08-09T09:47:59Z</time>
      </trkpt>
      <trkpt lat="45.96939" lon="4.85881">
        <ele>285</ele>
        <time>2017-08-09T09:48:00Z</time>
      </trkpt>
      <trkpt lat="45.96936" lon="4.85892">
        <ele>285</ele>
        <time>2017-08-09T09:48:02Z</time>
      </trkpt>
      <trkpt lat="45.96935" lon="4.85897">
        <ele>285</ele>
        <time>2017-08-09T09:48:03Z</time>
      </trkpt>
      <trkpt lat="45.96932" lon="4.85907">
        <ele>286</ele>
        <time>2017-08-09T09:48:05Z</time>
      </trkpt>
      <trkpt lat="45.9693" lon="4.85912">
        <ele>286</ele>
        <time>2017-08-09T09:48:06Z</time>
      </trkpt>
      <trkpt lat="45.96928" lon="4.85923">
        <ele>286</ele>
        <time>2017-08-09T09:48:08Z</time>
      </trkpt>
      <trkpt lat="45.96926" lon="4.85928">
        <ele>286</ele>
        <time>2017-08-09T09:48:09Z</time>
      </trkpt>
      <trkpt lat="45.96922" lon="4.8594">
        <ele>286</ele>
        <time>2017-08-09T09:48:11Z</time>
      </trkpt>
      <trkpt lat="45.9692" lon="4.85946">
        <ele>286</ele>
        <time>2017-08-09T09:48:12Z</time>
      </trkpt>
      <trkpt lat="45.96918" lon="4.85953">
        <ele>287</ele>
        <time>2017-08-09T09:48:13Z</time>
      </trkpt>
      <trkpt lat="45.96916" lon="4.8596">
        <ele>288</ele>
        <time>2017-08-09T09:48:14Z</time>
      </trkpt>
      <trkpt lat="45.96914" lon="4.85966">
        <ele>288</ele>
        <time>2017-08-09T09:48:15Z</time>
      </trkpt>
      <trkpt lat="45.96913" lon="4.85972">
        <ele>288</ele>
        <time>2017-08-09T09:48:16Z</time>
      </trkpt>
      <trkpt lat="45.96911" lon="4.85984">
        <ele>288</ele>
        <time>2017-08-09T09:48:18Z</time>
      </trkpt>
      <trkpt lat="45.96911" lon="4.85989">
        <ele>288</ele>
        <time>2017-08-09T09:48:19Z</time>
      </trkpt>
      <trkpt lat="45.96908" lon="4.86001">
        <ele>288</ele>
        <time>2017-08-09T09:48:21Z</time>
      </trkpt>
      <trkpt lat="45.96908" lon="4.86007">
        <ele>288</ele>
        <time>2017-08-09T09:48:22Z</time>
      </trkpt>
      <trkpt lat="45.96905" lon="4.86019">
        <ele>289</ele>
        <time>2017-08-09T09:48:24Z</time>
      </trkpt>
      <trkpt lat="45.96904" lon="4.86025">
        <ele>289</ele>
        <time>2017-08-09T09:48:25Z</time>
      </trkpt>
      <trkpt lat="45.96903" lon="4.86032">
        <ele>289</ele>
        <time>2017-08-09T09:48:26Z</time>
      </trkpt>
      <trkpt lat="45.96902" lon="4.86039">
        <ele>289</ele>
        <time>2017-08-09T09:48:27Z</time>
      </trkpt>
      <trkpt lat="45.96902" lon="4.86046">
        <ele>289</ele>
        <time>2017-08-09T09:48:28Z</time>
      </trkpt>
      <trkpt lat="45.96901" lon="4.86053">
        <ele>289</ele>
        <time>2017-08-09T09:48:29Z</time>
      </trkpt>
      <trkpt lat="45.96899" lon="4.86065">
        <ele>288</ele>
        <time>2017-08-09T09:48:31Z</time>
      </trkpt>
      <trkpt lat="45.96898" lon="4.86071">
        <ele>288</ele>
        <time>2017-08-09T09:48:32Z</time>
      </trkpt>
      <trkpt lat="45.96897" lon="4.86082">
        <ele>288</ele>
        <time>2017-08-09T09:48:34Z</time>
      </trkpt>
      <trkpt lat="45.96897" lon="4.86088">
        <ele>288</ele>
        <time>2017-08-09T09:48:35Z</time>
      </trkpt>
      <trkpt lat="45.96895" lon="4.86095">
        <ele>289</ele>
        <time>2017-08-09T09:48:36Z</time>
      </trkpt>
      <trkpt lat="45.96895" lon="4.86102">
        <ele>289</ele>
        <time>2017-08-09T09:48:37Z</time>
      </trkpt>
      <trkpt lat="45.96894" lon="4.8611">
        <ele>289</ele>
        <time>2017-08-09T09:48:38Z</time>
      </trkpt>
      <trkpt lat="45.96894" lon="4.86118">
        <ele>289</ele>
        <time>2017-08-09T09:48:39Z</time>
      </trkpt>
      <trkpt lat="45.96893" lon="4.86125">
        <ele>289</ele>
        <time>2017-08-09T09:48:40Z</time>
      </trkpt>
      <trkpt lat="45.96892" lon="4.86132">
        <ele>289</ele>
        <time>2017-08-09T09:48:41Z</time>
      </trkpt>
      <trkpt lat="45.96891" lon="4.86145">
        <ele>289</ele>
        <time>2017-08-09T09:48:43Z</time>
      </trkpt>
      <trkpt lat="45.96889" lon="4.86151">
        <ele>289</ele>
        <time>2017-08-09T09:48:44Z</time>
      </trkpt>
      <trkpt lat="45.96886" lon="4.86163">
        <ele>289</ele>
        <time>2017-08-09T09:48:46Z</time>
      </trkpt>
      <trkpt lat="45.96885" lon="4.86169">
        <ele>289</ele>
        <time>2017-08-09T09:48:47Z</time>
      </trkpt>
      <trkpt lat="45.96884" lon="4.86181">
        <ele>289</ele>
        <time>2017-08-09T09:48:49Z</time>
      </trkpt>
      <trkpt lat="45.96883" lon="4.86188">
        <ele>289</ele>
        <time>2017-08-09T09:48:50Z</time>
      </trkpt>
      <trkpt lat="45.96882" lon="4.862">
        <ele>289</ele>
        <time>2017-08-09T09:48:52Z</time>
      </trkpt>
      <trkpt lat="45.96881" lon="4.86206">
        <ele>289</ele>
        <time>2017-08-09T09:48:53Z</time>
      </trkpt>
      <trkpt lat="45.9688" lon="4.86218">
        <ele>289</ele>
        <time>2017-08-09T09:48:55Z</time>
      </trkpt>
      <trkpt lat="45.9688" lon="4.86224">
        <ele>289</ele>
        <time>2017-08-09T09:48:56Z</time>
      </trkpt>
      <trkpt lat="45.96878" lon="4.86237">
        <ele>289</ele>
        <time>2017-08-09T09:48:58Z</time>
      </trkpt>
      <trkpt lat="45.96878" lon="4.86243">
        <ele>289</ele>
        <time>2017-08-09T09:48:59Z</time>
      </trkpt>
      <trkpt lat="45.96876" lon="4.86254">
        <ele>288</ele>
        <time>2017-08-09T09:49:01Z</time>
      </trkpt>
      <trkpt lat="45.96876" lon="4.86259">
        <ele>288</ele>
        <time>2017-08-09T09:49:02Z</time>
      </trkpt>
      <trkpt lat="45.96874" lon="4.86269">
        <ele>289</ele>
        <time>2017-08-09T09:49:04Z</time>
      </trkpt>
      <trkpt lat="45.96873" lon="4.86274">
        <ele>289</ele>
        <time>2017-08-09T09:49:05Z</time>
      </trkpt>
      <trkpt lat="45.96872" lon="4.86283">
        <ele>289</ele>
        <time>2017-08-09T09:49:07Z</time>
      </trkpt>
      <trkpt lat="45.96871" lon="4.86288">
        <ele>289</ele>
        <time>2017-08-09T09:49:08Z</time>
      </trkpt>
      <trkpt lat="45.9687" lon="4.86295">
        <ele>289</ele>
        <time>2017-08-09T09:49:09Z</time>
      </trkpt>
      <trkpt lat="45.96869" lon="4.86301">
        <ele>289</ele>
        <time>2017-08-09T09:49:10Z</time>
      </trkpt>
      <trkpt lat="45.96868" lon="4.86307">
        <ele>289</ele>
        <time>2017-08-09T09:49:11Z</time>
      </trkpt>
      <trkpt lat="45.96867" lon="4.86314">
        <ele>289</ele>
        <time>2017-08-09T09:49:12Z</time>
      </trkpt>
      <trkpt lat="45.96866" lon="4.8632">
        <ele>289</ele>
        <time>2017-08-09T09:49:13Z</time>
      </trkpt>
      <trkpt lat="45.96865" lon="4.86327">
        <ele>289</ele>
        <time>2017-08-09T09:49:14Z</time>
      </trkpt>
      <trkpt lat="45.96864" lon="4.86333">
        <ele>289</ele>
        <time>2017-08-09T09:49:15Z</time>
      </trkpt>
      <trkpt lat="45.96864" lon="4.8634">
        <ele>290</ele>
        <time>2017-08-09T09:49:16Z</time>
      </trkpt>
      <trkpt lat="45.96863" lon="4.86347">
        <ele>290</ele>
        <time>2017-08-09T09:49:17Z</time>
      </trkpt>
      <trkpt lat="45.96861" lon="4.86353">
        <ele>290</ele>
        <time>2017-08-09T09:49:18Z</time>
      </trkpt>
      <trkpt lat="45.9686" lon="4.8636">
        <ele>290</ele>
        <time>2017-08-09T09:49:19Z</time>
      </trkpt>
      <trkpt lat="45.9686" lon="4.86366">
        <ele>290</ele>
        <time>2017-08-09T09:49:20Z</time>
      </trkpt>
      <trkpt lat="45.96858" lon="4.86373">
        <ele>290</ele>
        <time>2017-08-09T09:49:21Z</time>
      </trkpt>
      <trkpt lat="45.96857" lon="4.86379">
        <ele>290</ele>
        <time>2017-08-09T09:49:22Z</time>
      </trkpt>
      <trkpt lat="45.96856" lon="4.86391">
        <ele>290</ele>
        <time>2017-08-09T09:49:24Z</time>
      </trkpt>
      <trkpt lat="45.96855" lon="4.86398">
        <ele>290</ele>
        <time>2017-08-09T09:49:25Z</time>
      </trkpt>
      <trkpt lat="45.96854" lon="4.86404">
        <ele>291</ele>
        <time>2017-08-09T09:49:26Z</time>
      </trkpt>
      <trkpt lat="45.96853" lon="4.86412">
        <ele>291</ele>
        <time>2017-08-09T09:49:27Z</time>
      </trkpt>
      <trkpt lat="45.96852" lon="4.86419">
        <ele>290</ele>
        <time>2017-08-09T09:49:28Z</time>
      </trkpt>
      <trkpt lat="45.9685" lon="4.86427">
        <ele>290</ele>
        <time>2017-08-09T09:49:29Z</time>
      </trkpt>
      <trkpt lat="45.96849" lon="4.86436">
        <ele>290</ele>
        <time>2017-08-09T09:49:30Z</time>
      </trkpt>
      <trkpt lat="45.96848" lon="4.86444">
        <ele>290</ele>
        <time>2017-08-09T09:49:31Z</time>
      </trkpt>
      <trkpt lat="45.96846" lon="4.86452">
        <ele>289</ele>
        <time>2017-08-09T09:49:32Z</time>
      </trkpt>
      <trkpt lat="45.96844" lon="4.86459">
        <ele>289</ele>
        <time>2017-08-09T09:49:33Z</time>
      </trkpt>
      <trkpt lat="45.96841" lon="4.86466">
        <ele>289</ele>
        <time>2017-08-09T09:49:34Z</time>
      </trkpt>
      <trkpt lat="45.96839" lon="4.86473">
        <ele>289</ele>
        <time>2017-08-09T09:49:35Z</time>
      </trkpt>
      <trkpt lat="45.96837" lon="4.8648">
        <ele>289</ele>
        <time>2017-08-09T09:49:36Z</time>
      </trkpt>
      <trkpt lat="45.96835" lon="4.86487">
        <ele>289</ele>
        <time>2017-08-09T09:49:37Z</time>
      </trkpt>
      <trkpt lat="45.96832" lon="4.86493">
        <ele>290</ele>
        <time>2017-08-09T09:49:38Z</time>
      </trkpt>
      <trkpt lat="45.9683" lon="4.86499">
        <ele>289</ele>
        <time>2017-08-09T09:49:39Z</time>
      </trkpt>
      <trkpt lat="45.96827" lon="4.86506">
        <ele>289</ele>
        <time>2017-08-09T09:49:40Z</time>
      </trkpt>
      <trkpt lat="45.96825" lon="4.86512">
        <ele>289</ele>
        <time>2017-08-09T09:49:41Z</time>
      </trkpt>
      <trkpt lat="45.96822" lon="4.86518">
        <ele>289</ele>
        <time>2017-08-09T09:49:42Z</time>
      </trkpt>
      <trkpt lat="45.96819" lon="4.86524">
        <ele>289</ele>
        <time>2017-08-09T09:49:43Z</time>
      </trkpt>
      <trkpt lat="45.96816" lon="4.8653">
        <ele>290</ele>
        <time>2017-08-09T09:49:44Z</time>
      </trkpt>
      <trkpt lat="45.96813" lon="4.86536">
        <ele>290</ele>
        <time>2017-08-09T09:49:45Z</time>
      </trkpt>
      <trkpt lat="45.9681" lon="4.86542">
        <ele>290</ele>
        <time>2017-08-09T09:49:46Z</time>
      </trkpt>
      <trkpt lat="45.96806" lon="4.86547">
        <ele>290</ele>
        <time>2017-08-09T09:49:47Z</time>
      </trkpt>
      <trkpt lat="45.96803" lon="4.86553">
        <ele>290</ele>
        <time>2017-08-09T09:49:48Z</time>
      </trkpt>
      <trkpt lat="45.968" lon="4.86558">
        <ele>290</ele>
        <time>2017-08-09T09:49:49Z</time>
      </trkpt>
      <trkpt lat="45.96798" lon="4.86564">
        <ele>290</ele>
        <time>2017-08-09T09:49:50Z</time>
      </trkpt>
      <trkpt lat="45.96794" lon="4.86569">
        <ele>290</ele>
        <time>2017-08-09T09:49:51Z</time>
      </trkpt>
      <trkpt lat="45.96789" lon="4.86578">
        <ele>290</ele>
        <time>2017-08-09T09:49:53Z</time>
      </trkpt>
      <trkpt lat="45.96786" lon="4.86582">
        <ele>290</ele>
        <time>2017-08-09T09:49:54Z</time>
      </trkpt>
      <trkpt lat="45.96783" lon="4.86586">
        <ele>289</ele>
        <time>2017-08-09T09:49:55Z</time>
      </trkpt>
      <trkpt lat="45.96779" lon="4.86591">
        <ele>289</ele>
        <time>2017-08-09T09:49:56Z</time>
      </trkpt>
      <trkpt lat="45.96776" lon="4.86596">
        <ele>289</ele>
        <time>2017-08-09T09:49:57Z</time>
      </trkpt>
      <trkpt lat="45.96773" lon="4.86603">
        <ele>289</ele>
        <time>2017-08-09T09:49:58Z</time>
      </trkpt>
      <trkpt lat="45.9677" lon="4.86609">
        <ele>289</ele>
        <time>2017-08-09T09:49:59Z</time>
      </trkpt>
      <trkpt lat="45.96767" lon="4.86614">
        <ele>289</ele>
        <time>2017-08-09T09:50:00Z</time>
      </trkpt>
      <trkpt lat="45.96764" lon="4.86619">
        <ele>289</ele>
        <time>2017-08-09T09:50:01Z</time>
      </trkpt>
      <trkpt lat="45.9676" lon="4.86624">
        <ele>289</ele>
        <time>2017-08-09T09:50:02Z</time>
      </trkpt>
      <trkpt lat="45.96757" lon="4.86629">
        <ele>290</ele>
        <time>2017-08-09T09:50:03Z</time>
      </trkpt>
      <trkpt lat="45.96754" lon="4.86635">
        <ele>290</ele>
        <time>2017-08-09T09:50:04Z</time>
      </trkpt>
      <trkpt lat="45.9675" lon="4.8664">
        <ele>290</ele>
        <time>2017-08-09T09:50:05Z</time>
      </trkpt>
      <trkpt lat="45.96747" lon="4.86646">
        <ele>290</ele>
        <time>2017-08-09T09:50:06Z</time>
      </trkpt>
      <trkpt lat="45.96743" lon="4.86652">
        <ele>290</ele>
        <time>2017-08-09T09:50:07Z</time>
      </trkpt>
      <trkpt lat="45.96739" lon="4.86659">
        <ele>290</ele>
        <time>2017-08-09T09:50:08Z</time>
      </trkpt>
      <trkpt lat="45.96736" lon="4.86664">
        <ele>290</ele>
        <time>2017-08-09T09:50:09Z</time>
      </trkpt>
      <trkpt lat="45.96731" lon="4.86671">
        <ele>290</ele>
        <time>2017-08-09T09:50:10Z</time>
      </trkpt>
      <trkpt lat="45.96728" lon="4.86677">
        <ele>289</ele>
        <time>2017-08-09T09:50:11Z</time>
      </trkpt>
      <trkpt lat="45.96724" lon="4.86683">
        <ele>289</ele>
        <time>2017-08-09T09:50:12Z</time>
      </trkpt>
      <trkpt lat="45.96721" lon="4.8669">
        <ele>289</ele>
        <time>2017-08-09T09:50:13Z</time>
      </trkpt>
      <trkpt lat="45.96717" lon="4.86696">
        <ele>289</ele>
        <time>2017-08-09T09:50:14Z</time>
      </trkpt>
      <trkpt lat="45.96713" lon="4.86702">
        <ele>289</ele>
        <time>2017-08-09T09:50:15Z</time>
      </trkpt>
      <trkpt lat="45.96709" lon="4.86708">
        <ele>289</ele>
        <time>2017-08-09T09:50:16Z</time>
      </trkpt>
      <trkpt lat="45.96706" lon="4.86715">
        <ele>289</ele>
        <time>2017-08-09T09:50:17Z</time>
      </trkpt>
      <trkpt lat="45.96702" lon="4.86722">
        <ele>289</ele>
        <time>2017-08-09T09:50:18Z</time>
      </trkpt>
      <trkpt lat="45.96699" lon="4.86728">
        <ele>289</ele>
        <time>2017-08-09T09:50:19Z</time>
      </trkpt>
      <trkpt lat="45.96695" lon="4.86734">
        <ele>289</ele>
        <time>2017-08-09T09:50:20Z</time>
      </trkpt>
      <trkpt lat="45.96691" lon="4.86741">
        <ele>289</ele>
        <time>2017-08-09T09:50:21Z</time>
      </trkpt>
      <trkpt lat="45.96687" lon="4.86748">
        <ele>289</ele>
        <time>2017-08-09T09:50:22Z</time>
      </trkpt>
      <trkpt lat="45.96684" lon="4.86755">
        <ele>289</ele>
        <time>2017-08-09T09:50:23Z</time>
      </trkpt>
      <trkpt lat="45.9668" lon="4.86761">
        <ele>289</ele>
        <time>2017-08-09T09:50:24Z</time>
      </trkpt>
      <trkpt lat="45.96676" lon="4.86767">
        <ele>289</ele>
        <time>2017-08-09T09:50:25Z</time>
      </trkpt>
      <trkpt lat="45.96672" lon="4.86773">
        <ele>289</ele>
        <time>2017-08-09T09:50:26Z</time>
      </trkpt>
      <trkpt lat="45.96669" lon="4.86779">
        <ele>289</ele>
        <time>2017-08-09T09:50:27Z</time>
      </trkpt>
      <trkpt lat="45.96665" lon="4.86785">
        <ele>288</ele>
        <time>2017-08-09T09:50:28Z</time>
      </trkpt>
      <trkpt lat="45.96662" lon="4.86791">
        <ele>288</ele>
        <time>2017-08-09T09:50:29Z</time>
      </trkpt>
      <trkpt lat="45.96658" lon="4.86796">
        <ele>288</ele>
        <time>2017-08-09T09:50:30Z</time>
      </trkpt>
      <trkpt lat="45.96655" lon="4.86802">
        <ele>288</ele>
        <time>2017-08-09T09:50:31Z</time>
      </trkpt>
      <trkpt lat="45.96651" lon="4.86807">
        <ele>288</ele>
        <time>2017-08-09T09:50:32Z</time>
      </trkpt>
      <trkpt lat="45.96647" lon="4.86813">
        <ele>288</ele>
        <time>2017-08-09T09:50:33Z</time>
      </trkpt>
      <trkpt lat="45.96644" lon="4.86819">
        <ele>288</ele>
        <time>2017-08-09T09:50:34Z</time>
      </trkpt>
      <trkpt lat="45.96641" lon="4.86824">
        <ele>288</ele>
        <time>2017-08-09T09:50:35Z</time>
      </trkpt>
      <trkpt lat="45.96637" lon="4.8683">
        <ele>288</ele>
        <time>2017-08-09T09:50:36Z</time>
      </trkpt>
      <trkpt lat="45.96634" lon="4.86836">
        <ele>287</ele>
        <time>2017-08-09T09:50:37Z</time>
      </trkpt>
      <trkpt lat="45.9663" lon="4.86841">
        <ele>287</ele>
        <time>2017-08-09T09:50:38Z</time>
      </trkpt>
      <trkpt lat="45.96627" lon="4.86847">
        <ele>287</ele>
        <time>2017-08-09T09:50:39Z</time>
      </trkpt>
      <trkpt lat="45.96623" lon="4.86853">
        <ele>287</ele>
        <time>2017-08-09T09:50:40Z</time>
      </trkpt>
      <trkpt lat="45.9662" lon="4.86859">
        <ele>287</ele>
        <time>2017-08-09T09:50:41Z</time>
      </trkpt>
      <trkpt lat="45.96616" lon="4.86865">
        <ele>287</ele>
        <time>2017-08-09T09:50:42Z</time>
      </trkpt>
      <trkpt lat="45.96613" lon="4.8687">
        <ele>287</ele>
        <time>2017-08-09T09:50:43Z</time>
      </trkpt>
      <trkpt lat="45.96609" lon="4.86876">
        <ele>287</ele>
        <time>2017-08-09T09:50:44Z</time>
      </trkpt>
      <trkpt lat="45.96605" lon="4.86882">
        <ele>287</ele>
        <time>2017-08-09T09:50:45Z</time>
      </trkpt>
      <trkpt lat="45.96602" lon="4.86888">
        <ele>287</ele>
        <time>2017-08-09T09:50:46Z</time>
      </trkpt>
      <trkpt lat="45.96598" lon="4.86893">
        <ele>286</ele>
        <time>2017-08-09T09:50:47Z</time>
      </trkpt>
      <trkpt lat="45.96594" lon="4.86899">
        <ele>286</ele>
        <time>2017-08-09T09:50:48Z</time>
      </trkpt>
      <trkpt lat="45.9659" lon="4.86905">
        <ele>286</ele>
        <time>2017-08-09T09:50:49Z</time>
      </trkpt>
      <trkpt lat="45.96586" lon="4.86911">
        <ele>285</ele>
        <time>2017-08-09T09:50:50Z</time>
      </trkpt>
      <trkpt lat="45.96582" lon="4.86916">
        <ele>285</ele>
        <time>2017-08-09T09:50:51Z</time>
      </trkpt>
      <trkpt lat="45.96577" lon="4.86922">
        <ele>284</ele>
        <time>2017-08-09T09:50:52Z</time>
      </trkpt>
      <trkpt lat="45.96574" lon="4.86928">
        <ele>284</ele>
        <time>2017-08-09T09:50:53Z</time>
      </trkpt>
      <trkpt lat="45.9657" lon="4.86934">
        <ele>284</ele>
        <time>2017-08-09T09:50:54Z</time>
      </trkpt>
      <trkpt lat="45.96567" lon="4.8694">
        <ele>284</ele>
        <time>2017-08-09T09:50:55Z</time>
      </trkpt>
      <trkpt lat="45.96563" lon="4.86947">
        <ele>284</ele>
        <time>2017-08-09T09:50:56Z</time>
      </trkpt>
      <trkpt lat="45.96559" lon="4.86954">
        <ele>283</ele>
        <time>2017-08-09T09:50:57Z</time>
      </trkpt>
      <trkpt lat="45.96555" lon="4.86962">
        <ele>283</ele>
        <time>2017-08-09T09:50:58Z</time>
      </trkpt>
      <trkpt lat="45.96551" lon="4.86968">
        <ele>283</ele>
        <time>2017-08-09T09:50:59Z</time>
      </trkpt>
      <trkpt lat="45.96548" lon="4.86974">
        <ele>283</ele>
        <time>2017-08-09T09:51:00Z</time>
      </trkpt>
      <trkpt lat="45.96542" lon="4.86982">
        <ele>283</ele>
        <time>2017-08-09T09:51:02Z</time>
      </trkpt>
      <trkpt lat="45.9654" lon="4.86987">
        <ele>283</ele>
        <time>2017-08-09T09:51:03Z</time>
      </trkpt>
      <trkpt lat="45.96537" lon="4.86995">
        <ele>283</ele>
        <time>2017-08-09T09:51:05Z</time>
      </trkpt>
      <trkpt lat="45.96537" lon="4.87">
        <ele>283</ele>
        <time>2017-08-09T09:51:06Z</time>
      </trkpt>
      <trkpt lat="45.96537" lon="4.87011">
        <ele>283</ele>
        <time>2017-08-09T09:51:10Z</time>
      </trkpt>
      <trkpt lat="45.96538" lon="4.87013">
        <ele>283</ele>
        <time>2017-08-09T09:51:11Z</time>
      </trkpt>
      <trkpt lat="45.96543" lon="4.87021">
        <ele>283</ele>
        <time>2017-08-09T09:51:16Z</time>
      </trkpt>
      <trkpt lat="45.96544" lon="4.87021">
        <ele>283</ele>
        <time>2017-08-09T09:51:17Z</time>
      </trkpt>
      <trkpt lat="45.96545" lon="4.87024">
        <ele>283</ele>
        <time>2017-08-09T09:56:40Z</time>
      </trkpt>
      <trkpt lat="45.96543" lon="4.87031">
        <ele>283</ele>
        <time>2017-08-09T09:56:41Z</time>
      </trkpt>
      <trkpt lat="45.96552" lon="4.87032">
        <ele>283</ele>
        <time>2017-08-09T09:57:00Z</time>
      </trkpt>
      <trkpt lat="45.96552" lon="4.87034">
        <ele>283</ele>
        <time>2017-08-09T09:57:01Z</time>
      </trkpt>
      <trkpt lat="45.96553" lon="4.87044">
        <ele>283</ele>
        <time>2017-08-09T09:57:04Z</time>
      </trkpt>
      <trkpt lat="45.96553" lon="4.87048">
        <ele>283</ele>
        <time>2017-08-09T09:57:05Z</time>
      </trkpt>
      <trkpt lat="45.96557" lon="4.8706">
        <ele>283</ele>
        <time>2017-08-09T09:57:08Z</time>
      </trkpt>
      <trkpt lat="45.96557" lon="4.87063">
        <ele>283</ele>
        <time>2017-08-09T09:57:09Z</time>
      </trkpt>
      <trkpt lat="45.9655" lon="4.87069">
        <ele>283</ele>
        <time>2017-08-09T09:57:14Z</time>
      </trkpt>
      <trkpt lat="45.96548" lon="4.8707">
        <ele>283</ele>
        <time>2017-08-09T09:57:15Z</time>
      </trkpt>
      <trkpt lat="45.9654" lon="4.87066">
        <ele>283</ele>
        <time>2017-08-09T09:57:19Z</time>
      </trkpt>
      <trkpt lat="45.96539" lon="4.87062">
        <ele>283</ele>
        <time>2017-08-09T09:57:20Z</time>
      </trkpt>
      <trkpt lat="45.96532" lon="4.87054">
        <ele>283</ele>
        <time>2017-08-09T09:57:23Z</time>
      </trkpt>
      <trkpt lat="45.9653" lon="4.87052">
        <ele>283</ele>
        <time>2017-08-09T09:57:24Z</time>
      </trkpt>
      <trkpt lat="45.96526" lon="4.87046">
        <ele>283</ele>
        <time>2017-08-09T09:57:26Z</time>
      </trkpt>
      <trkpt lat="45.96524" lon="4.87042">
        <ele>283</ele>
        <time>2017-08-09T09:57:27Z</time>
      </trkpt>
      <trkpt lat="45.96517" lon="4.87035">
        <ele>283</ele>
        <time>2017-08-09T09:57:32Z</time>
      </trkpt>
      <trkpt lat="45.96513" lon="4.87036">
        <ele>282</ele>
        <time>2017-08-09T09:57:33Z</time>
      </trkpt>
      <trkpt lat="45.96507" lon="4.8704">
        <ele>282</ele>
        <time>2017-08-09T09:57:35Z</time>
      </trkpt>
      <trkpt lat="45.96503" lon="4.87045">
        <ele>282</ele>
        <time>2017-08-09T09:57:36Z</time>
      </trkpt>
      <trkpt lat="45.96499" lon="4.87049">
        <ele>281</ele>
        <time>2017-08-09T09:57:37Z</time>
      </trkpt>
      <trkpt lat="45.96495" lon="4.87054">
        <ele>281</ele>
        <time>2017-08-09T09:57:38Z</time>
      </trkpt>
      <trkpt lat="45.96491" lon="4.87059">
        <ele>281</ele>
        <time>2017-08-09T09:57:39Z</time>
      </trkpt>
      <trkpt lat="45.96487" lon="4.87064">
        <ele>282</ele>
        <time>2017-08-09T09:57:40Z</time>
      </trkpt>
      <trkpt lat="45.96484" lon="4.87069">
        <ele>282</ele>
        <time>2017-08-09T09:57:41Z</time>
      </trkpt>
      <trkpt lat="45.9648" lon="4.87075">
        <ele>282</ele>
        <time>2017-08-09T09:57:42Z</time>
      </trkpt>
      <trkpt lat="45.96476" lon="4.87079">
        <ele>282</ele>
        <time>2017-08-09T09:57:43Z</time>
      </trkpt>
      <trkpt lat="45.96472" lon="4.87084">
        <ele>282</ele>
        <time>2017-08-09T09:57:44Z</time>
      </trkpt>
      <trkpt lat="45.96469" lon="4.87089">
        <ele>282</ele>
        <time>2017-08-09T09:57:45Z</time>
      </trkpt>
      <trkpt lat="45.96465" lon="4.87093">
        <ele>282</ele>
        <time>2017-08-09T09:57:46Z</time>
      </trkpt>
      <trkpt lat="45.96461" lon="4.87098">
        <ele>282</ele>
        <time>2017-08-09T09:57:47Z</time>
      </trkpt>
      <trkpt lat="45.96458" lon="4.87102">
        <ele>281</ele>
        <time>2017-08-09T09:57:48Z</time>
      </trkpt>
      <trkpt lat="45.96454" lon="4.87106">
        <ele>281</ele>
        <time>2017-08-09T09:57:49Z</time>
      </trkpt>
      <trkpt lat="45.9645" lon="4.8711">
        <ele>281</ele>
        <time>2017-08-09T09:57:50Z</time>
      </trkpt>
      <trkpt lat="45.96444" lon="4.87118">
        <ele>281</ele>
        <time>2017-08-09T09:57:52Z</time>
      </trkpt>
      <trkpt lat="45.96441" lon="4.87121">
        <ele>281</ele>
        <time>2017-08-09T09:57:53Z</time>
      </trkpt>
      <trkpt lat="45.96435" lon="4.8713">
        <ele>281</ele>
        <time>2017-08-09T09:57:55Z</time>
      </trkpt>
      <trkpt lat="45.96431" lon="4.87135">
        <ele>281</ele>
        <time>2017-08-09T09:57:56Z</time>
      </trkpt>
      <trkpt lat="45.96427" lon="4.8714">
        <ele>281</ele>
        <time>2017-08-09T09:57:57Z</time>
      </trkpt>
      <trkpt lat="45.96422" lon="4.87146">
        <ele>281</ele>
        <time>2017-08-09T09:57:58Z</time>
      </trkpt>
      <trkpt lat="45.96418" lon="4.87152">
        <ele>281</ele>
        <time>2017-08-09T09:57:59Z</time>
      </trkpt>
      <trkpt lat="45.96414" lon="4.87158">
        <ele>281</ele>
        <time>2017-08-09T09:58:00Z</time>
      </trkpt>
      <trkpt lat="45.96409" lon="4.87163">
        <ele>281</ele>
        <time>2017-08-09T09:58:01Z</time>
      </trkpt>
      <trkpt lat="45.96405" lon="4.87168">
        <ele>281</ele>
        <time>2017-08-09T09:58:02Z</time>
      </trkpt>
      <trkpt lat="45.96401" lon="4.87172">
        <ele>281</ele>
        <time>2017-08-09T09:58:03Z</time>
      </trkpt>
      <trkpt lat="45.96398" lon="4.87177">
        <ele>282</ele>
        <time>2017-08-09T09:58:04Z</time>
      </trkpt>
      <trkpt lat="45.96394" lon="4.87182">
        <ele>282</ele>
        <time>2017-08-09T09:58:05Z</time>
      </trkpt>
      <trkpt lat="45.96391" lon="4.87186">
        <ele>282</ele>
        <time>2017-08-09T09:58:06Z</time>
      </trkpt>
      <trkpt lat="45.96387" lon="4.87191">
        <ele>282</ele>
        <time>2017-08-09T09:58:07Z</time>
      </trkpt>
      <trkpt lat="45.96384" lon="4.87196">
        <ele>282</ele>
        <time>2017-08-09T09:58:08Z</time>
      </trkpt>
      <trkpt lat="45.9638" lon="4.87201">
        <ele>282</ele>
        <time>2017-08-09T09:58:09Z</time>
      </trkpt>
      <trkpt lat="45.96376" lon="4.87206">
        <ele>282</ele>
        <time>2017-08-09T09:58:10Z</time>
      </trkpt>
      <trkpt lat="45.96373" lon="4.87212">
        <ele>282</ele>
        <time>2017-08-09T09:58:11Z</time>
      </trkpt>
      <trkpt lat="45.96369" lon="4.87217">
        <ele>282</ele>
        <time>2017-08-09T09:58:12Z</time>
      </trkpt>
      <trkpt lat="45.96365" lon="4.87222">
        <ele>282</ele>
        <time>2017-08-09T09:58:13Z</time>
      </trkpt>
      <trkpt lat="45.96361" lon="4.87227">
        <ele>282</ele>
        <time>2017-08-09T09:58:14Z</time>
      </trkpt>
      <trkpt lat="45.96357" lon="4.87233">
        <ele>282</ele>
        <time>2017-08-09T09:58:15Z</time>
      </trkpt>
      <trkpt lat="45.96353" lon="4.87238">
        <ele>282</ele>
        <time>2017-08-09T09:58:16Z</time>
      </trkpt>
      <trkpt lat="45.96349" lon="4.87243">
        <ele>283</ele>
        <time>2017-08-09T09:58:17Z</time>
      </trkpt>
      <trkpt lat="45.96346" lon="4.87248">
        <ele>283</ele>
        <time>2017-08-09T09:58:18Z</time>
      </trkpt>
      <trkpt lat="45.96342" lon="4.87252">
        <ele>283</ele>
        <time>2017-08-09T09:58:19Z</time>
      </trkpt>
      <trkpt lat="45.96339" lon="4.87257">
        <ele>283</ele>
        <time>2017-08-09T09:58:20Z</time>
      </trkpt>
      <trkpt lat="45.96335" lon="4.87261">
        <ele>283</ele>
        <time>2017-08-09T09:58:21Z</time>
      </trkpt>
      <trkpt lat="45.96332" lon="4.87266">
        <ele>283</ele>
        <time>2017-08-09T09:58:22Z</time>
      </trkpt>
      <trkpt lat="45.96328" lon="4.8727">
        <ele>283</ele>
        <time>2017-08-09T09:58:23Z</time>
      </trkpt>
      <trkpt lat="45.96325" lon="4.87275">
        <ele>283</ele>
        <time>2017-08-09T09:58:24Z</time>
      </trkpt>
      <trkpt lat="45.96321" lon="4.8728">
        <ele>283</ele>
        <time>2017-08-09T09:58:25Z</time>
      </trkpt>
      <trkpt lat="45.96318" lon="4.87285">
        <ele>283</ele>
        <time>2017-08-09T09:58:26Z</time>
      </trkpt>
      <trkpt lat="45.96314" lon="4.8729">
        <ele>283</ele>
        <time>2017-08-09T09:58:27Z</time>
      </trkpt>
      <trkpt lat="45.9631" lon="4.87295">
        <ele>283</ele>
        <time>2017-08-09T09:58:28Z</time>
      </trkpt>
      <trkpt lat="45.96306" lon="4.873">
        <ele>283</ele>
        <time>2017-08-09T09:58:29Z</time>
      </trkpt>
      <trkpt lat="45.96302" lon="4.87305">
        <ele>283</ele>
        <time>2017-08-09T09:58:30Z</time>
      </trkpt>
      <trkpt lat="45.96297" lon="4.87311">
        <ele>283</ele>
        <time>2017-08-09T09:58:31Z</time>
      </trkpt>
      <trkpt lat="45.96294" lon="4.87316">
        <ele>283</ele>
        <time>2017-08-09T09:58:32Z</time>
      </trkpt>
      <trkpt lat="45.9629" lon="4.87321">
        <ele>283</ele>
        <time>2017-08-09T09:58:33Z</time>
      </trkpt>
      <trkpt lat="45.96286" lon="4.87325">
        <ele>283</ele>
        <time>2017-08-09T09:58:34Z</time>
      </trkpt>
      <trkpt lat="45.9628" lon="4.87333">
        <ele>283</ele>
        <time>2017-08-09T09:58:36Z</time>
      </trkpt>
      <trkpt lat="45.96276" lon="4.87337">
        <ele>283</ele>
        <time>2017-08-09T09:58:37Z</time>
      </trkpt>
      <trkpt lat="45.96273" lon="4.87341">
        <ele>283</ele>
        <time>2017-08-09T09:58:38Z</time>
      </trkpt>
      <trkpt lat="45.96269" lon="4.87346">
        <ele>283</ele>
        <time>2017-08-09T09:58:39Z</time>
      </trkpt>
      <trkpt lat="45.96266" lon="4.87351">
        <ele>283</ele>
        <time>2017-08-09T09:58:40Z</time>
      </trkpt>
      <trkpt lat="45.96263" lon="4.87356">
        <ele>283</ele>
        <time>2017-08-09T09:58:41Z</time>
      </trkpt>
      <trkpt lat="45.96259" lon="4.87361">
        <ele>283</ele>
        <time>2017-08-09T09:58:42Z</time>
      </trkpt>
      <trkpt lat="45.96255" lon="4.87365">
        <ele>283</ele>
        <time>2017-08-09T09:58:43Z</time>
      </trkpt>
      <trkpt lat="45.96251" lon="4.8737">
        <ele>283</ele>
        <time>2017-08-09T09:58:44Z</time>
      </trkpt>
      <trkpt lat="45.96247" lon="4.87375">
        <ele>283</ele>
        <time>2017-08-09T09:58:45Z</time>
      </trkpt>
      <trkpt lat="45.96243" lon="4.8738">
        <ele>283</ele>
        <time>2017-08-09T09:58:46Z</time>
      </trkpt>
      <trkpt lat="45.96239" lon="4.87385">
        <ele>283</ele>
        <time>2017-08-09T09:58:47Z</time>
      </trkpt>
      <trkpt lat="45.96236" lon="4.87389">
        <ele>283</ele>
        <time>2017-08-09T09:58:48Z</time>
      </trkpt>
      <trkpt lat="45.96232" lon="4.87393">
        <ele>283</ele>
        <time>2017-08-09T09:58:49Z</time>
      </trkpt>
      <trkpt lat="45.96228" lon="4.87397">
        <ele>283</ele>
        <time>2017-08-09T09:58:50Z</time>
      </trkpt>
      <trkpt lat="45.96225" lon="4.87401">
        <ele>283</ele>
        <time>2017-08-09T09:58:51Z</time>
      </trkpt>
      <trkpt lat="45.96221" lon="4.87406">
        <ele>283</ele>
        <time>2017-08-09T09:58:52Z</time>
      </trkpt>
      <trkpt lat="45.96217" lon="4.8741">
        <ele>283</ele>
        <time>2017-08-09T09:58:53Z</time>
      </trkpt>
      <trkpt lat="45.96214" lon="4.87414">
        <ele>283</ele>
        <time>2017-08-09T09:58:54Z</time>
      </trkpt>
      <trkpt lat="45.9621" lon="4.87419">
        <ele>284</ele>
        <time>2017-08-09T09:58:55Z</time>
      </trkpt>
      <trkpt lat="45.96206" lon="4.87423">
        <ele>284</ele>
        <time>2017-08-09T09:58:56Z</time>
      </trkpt>
      <trkpt lat="45.96202" lon="4.87428">
        <ele>284</ele>
        <time>2017-08-09T09:58:57Z</time>
      </trkpt>
      <trkpt lat="45.96198" lon="4.87433">
        <ele>284</ele>
        <time>2017-08-09T09:58:58Z</time>
      </trkpt>
      <trkpt lat="45.96193" lon="4.87438">
        <ele>284</ele>
        <time>2017-08-09T09:58:59Z</time>
      </trkpt>
      <trkpt lat="45.96189" lon="4.87443">
        <ele>284</ele>
        <time>2017-08-09T09:59:00Z</time>
      </trkpt>
      <trkpt lat="45.96185" lon="4.87447">
        <ele>284</ele>
        <time>2017-08-09T09:59:01Z</time>
      </trkpt>
      <trkpt lat="45.96178" lon="4.87455">
        <ele>284</ele>
        <time>2017-08-09T09:59:03Z</time>
      </trkpt>
      <trkpt lat="45.96174" lon="4.87459">
        <ele>284</ele>
        <time>2017-08-09T09:59:04Z</time>
      </trkpt>
      <trkpt lat="45.96171" lon="4.87463">
        <ele>284</ele>
        <time>2017-08-09T09:59:05Z</time>
      </trkpt>
      <trkpt lat="45.96167" lon="4.87468">
        <ele>284</ele>
        <time>2017-08-09T09:59:06Z</time>
      </trkpt>
      <trkpt lat="45.96163" lon="4.87472">
        <ele>285</ele>
        <time>2017-08-09T09:59:07Z</time>
      </trkpt>
      <trkpt lat="45.9616" lon="4.87476">
        <ele>285</ele>
        <time>2017-08-09T09:59:08Z</time>
      </trkpt>
      <trkpt lat="45.96153" lon="4.87484">
        <ele>285</ele>
        <time>2017-08-09T09:59:10Z</time>
      </trkpt>
      <trkpt lat="45.96149" lon="4.87488">
        <ele>285</ele>
        <time>2017-08-09T09:59:11Z</time>
      </trkpt>
      <trkpt lat="45.96146" lon="4.87492">
        <ele>285</ele>
        <time>2017-08-09T09:59:12Z</time>
      </trkpt>
      <trkpt lat="45.96142" lon="4.87496">
        <ele>285</ele>
        <time>2017-08-09T09:59:13Z</time>
      </trkpt>
      <trkpt lat="45.96139" lon="4.875">
        <ele>286</ele>
        <time>2017-08-09T09:59:14Z</time>
      </trkpt>
      <trkpt lat="45.96135" lon="4.87504">
        <ele>286</ele>
        <time>2017-08-09T09:59:15Z</time>
      </trkpt>
      <trkpt lat="45.96131" lon="4.87508">
        <ele>286</ele>
        <time>2017-08-09T09:59:16Z</time>
      </trkpt>
      <trkpt lat="45.96127" lon="4.87512">
        <ele>286</ele>
        <time>2017-08-09T09:59:17Z</time>
      </trkpt>
      <trkpt lat="45.96124" lon="4.87517">
        <ele>286</ele>
        <time>2017-08-09T09:59:18Z</time>
      </trkpt>
      <trkpt lat="45.9612" lon="4.87521">
        <ele>286</ele>
        <time>2017-08-09T09:59:19Z</time>
      </trkpt>
      <trkpt lat="45.96116" lon="4.87525">
        <ele>287</ele>
        <time>2017-08-09T09:59:20Z</time>
      </trkpt>
      <trkpt lat="45.96112" lon="4.87529">
        <ele>287</ele>
        <time>2017-08-09T09:59:21Z</time>
      </trkpt>
      <trkpt lat="45.96109" lon="4.87534">
        <ele>287</ele>
        <time>2017-08-09T09:59:22Z</time>
      </trkpt>
      <trkpt lat="45.96105" lon="4.87538">
        <ele>287</ele>
        <time>2017-08-09T09:59:23Z</time>
      </trkpt>
      <trkpt lat="45.96101" lon="4.87542">
        <ele>287</ele>
        <time>2017-08-09T09:59:24Z</time>
      </trkpt>
      <trkpt lat="45.96097" lon="4.87546">
        <ele>287</ele>
        <time>2017-08-09T09:59:25Z</time>
      </trkpt>
      <trkpt lat="45.96093" lon="4.8755">
        <ele>287</ele>
        <time>2017-08-09T09:59:26Z</time>
      </trkpt>
      <trkpt lat="45.96089" lon="4.87554">
        <ele>287</ele>
        <time>2017-08-09T09:59:27Z</time>
      </trkpt>
      <trkpt lat="45.96085" lon="4.87559">
        <ele>287</ele>
        <time>2017-08-09T09:59:28Z</time>
      </trkpt>
      <trkpt lat="45.96082" lon="4.87563">
        <ele>288</ele>
        <time>2017-08-09T09:59:29Z</time>
      </trkpt>
      <trkpt lat="45.96074" lon="4.87571">
        <ele>288</ele>
        <time>2017-08-09T09:59:31Z</time>
      </trkpt>
      <trkpt lat="45.96071" lon="4.87574">
        <ele>288</ele>
        <time>2017-08-09T09:59:32Z</time>
      </trkpt>
      <trkpt lat="45.96065" lon="4.87582">
        <ele>288</ele>
        <time>2017-08-09T09:59:34Z</time>
      </trkpt>
      <trkpt lat="45.96061" lon="4.87586">
        <ele>288</ele>
        <time>2017-08-09T09:59:35Z</time>
      </trkpt>
      <trkpt lat="45.96057" lon="4.87591">
        <ele>288</ele>
        <time>2017-08-09T09:59:36Z</time>
      </trkpt>
      <trkpt lat="45.96054" lon="4.87596">
        <ele>288</ele>
        <time>2017-08-09T09:59:37Z</time>
      </trkpt>
      <trkpt lat="45.9605" lon="4.876">
        <ele>289</ele>
        <time>2017-08-09T09:59:38Z</time>
      </trkpt>
      <trkpt lat="45.96045" lon="4.87605">
        <ele>289</ele>
        <time>2017-08-09T09:59:39Z</time>
      </trkpt>
      <trkpt lat="45.96041" lon="4.87609">
        <ele>289</ele>
        <time>2017-08-09T09:59:40Z</time>
      </trkpt>
      <trkpt lat="45.96038" lon="4.87614">
        <ele>289</ele>
        <time>2017-08-09T09:59:41Z</time>
      </trkpt>
      <trkpt lat="45.96034" lon="4.87618">
        <ele>289</ele>
        <time>2017-08-09T09:59:42Z</time>
      </trkpt>
      <trkpt lat="45.9603" lon="4.87623">
        <ele>289</ele>
        <time>2017-08-09T09:59:43Z</time>
      </trkpt>
      <trkpt lat="45.96026" lon="4.87627">
        <ele>289</ele>
        <time>2017-08-09T09:59:44Z</time>
      </trkpt>
      <trkpt lat="45.96022" lon="4.87631">
        <ele>289</ele>
        <time>2017-08-09T09:59:45Z</time>
      </trkpt>
      <trkpt lat="45.96018" lon="4.87635">
        <ele>289</ele>
        <time>2017-08-09T09:59:46Z</time>
      </trkpt>
      <trkpt lat="45.96015" lon="4.87639">
        <ele>289</ele>
        <time>2017-08-09T09:59:47Z</time>
      </trkpt>
      <trkpt lat="45.96011" lon="4.87643">
        <ele>289</ele>
        <time>2017-08-09T09:59:48Z</time>
      </trkpt>
      <trkpt lat="45.96007" lon="4.87647">
        <ele>289</ele>
        <time>2017-08-09T09:59:49Z</time>
      </trkpt>
      <trkpt lat="45.96003" lon="4.87652">
        <ele>289</ele>
        <time>2017-08-09T09:59:50Z</time>
      </trkpt>
      <trkpt lat="45.96" lon="4.87656">
        <ele>289</ele>
        <time>2017-08-09T09:59:51Z</time>
      </trkpt>
      <trkpt lat="45.95996" lon="4.87661">
        <ele>290</ele>
        <time>2017-08-09T09:59:52Z</time>
      </trkpt>
      <trkpt lat="45.95992" lon="4.87666">
        <ele>289</ele>
        <time>2017-08-09T09:59:53Z</time>
      </trkpt>
      <trkpt lat="45.95988" lon="4.87671">
        <ele>289</ele>
        <time>2017-08-09T09:59:54Z</time>
      </trkpt>
      <trkpt lat="45.95984" lon="4.87675">
        <ele>289</ele>
        <time>2017-08-09T09:59:55Z</time>
      </trkpt>
      <trkpt lat="45.9598" lon="4.87679">
        <ele>289</ele>
        <time>2017-08-09T09:59:56Z</time>
      </trkpt>
      <trkpt lat="45.95977" lon="4.87683">
        <ele>289</ele>
        <time>2017-08-09T09:59:57Z</time>
      </trkpt>
      <trkpt lat="45.9597" lon="4.87691">
        <ele>289</ele>
        <time>2017-08-09T09:59:59Z</time>
      </trkpt>
      <trkpt lat="45.95967" lon="4.87695">
        <ele>289</ele>
        <time>2017-08-09T10:00:00Z</time>
      </trkpt>
      <trkpt lat="45.9596" lon="4.87703">
        <ele>289</ele>
        <time>2017-08-09T10:00:02Z</time>
      </trkpt>
      <trkpt lat="45.95957" lon="4.87707">
        <ele>289</ele>
        <time>2017-08-09T10:00:03Z</time>
      </trkpt>
      <trkpt lat="45.95954" lon="4.87711">
        <ele>289</ele>
        <time>2017-08-09T10:00:04Z</time>
      </trkpt>
      <trkpt lat="45.9595" lon="4.87716">
        <ele>289</ele>
        <time>2017-08-09T10:00:05Z</time>
      </trkpt>
      <trkpt lat="45.95947" lon="4.87721">
        <ele>289</ele>
        <time>2017-08-09T10:00:06Z</time>
      </trkpt>
      <trkpt lat="45.95944" lon="4.87726">
        <ele>289</ele>
        <time>2017-08-09T10:00:07Z</time>
      </trkpt>
      <trkpt lat="45.9594" lon="4.87732">
        <ele>289</ele>
        <time>2017-08-09T10:00:08Z</time>
      </trkpt>
      <trkpt lat="45.95936" lon="4.87737">
        <ele>288</ele>
        <time>2017-08-09T10:00:09Z</time>
      </trkpt>
      <trkpt lat="45.95933" lon="4.87742">
        <ele>288</ele>
        <time>2017-08-09T10:00:10Z</time>
      </trkpt>
      <trkpt lat="45.95929" lon="4.87747">
        <ele>288</ele>
        <time>2017-08-09T10:00:11Z</time>
      </trkpt>
      <trkpt lat="45.95925" lon="4.87753">
        <ele>288</ele>
        <time>2017-08-09T10:00:12Z</time>
      </trkpt>
      <trkpt lat="45.95921" lon="4.87758">
        <ele>288</ele>
        <time>2017-08-09T10:00:13Z</time>
      </trkpt>
      <trkpt lat="45.95918" lon="4.87764">
        <ele>288</ele>
        <time>2017-08-09T10:00:14Z</time>
      </trkpt>
      <trkpt lat="45.95914" lon="4.8777">
        <ele>288</ele>
        <time>2017-08-09T10:00:15Z</time>
      </trkpt>
      <trkpt lat="45.9591" lon="4.87776">
        <ele>288</ele>
        <time>2017-08-09T10:00:16Z</time>
      </trkpt>
      <trkpt lat="45.95907" lon="4.87782">
        <ele>288</ele>
        <time>2017-08-09T10:00:17Z</time>
      </trkpt>
      <trkpt lat="45.95903" lon="4.87788">
        <ele>288</ele>
        <time>2017-08-09T10:00:18Z</time>
      </trkpt>
      <trkpt lat="45.95899" lon="4.87794">
        <ele>288</ele>
        <time>2017-08-09T10:00:19Z</time>
      </trkpt>
      <trkpt lat="45.95896" lon="4.878">
        <ele>288</ele>
        <time>2017-08-09T10:00:20Z</time>
      </trkpt>
      <trkpt lat="45.95891" lon="4.87806">
        <ele>288</ele>
        <time>2017-08-09T10:00:21Z</time>
      </trkpt>
      <trkpt lat="45.95887" lon="4.87812">
        <ele>288</ele>
        <time>2017-08-09T10:00:22Z</time>
      </trkpt>
      <trkpt lat="45.95883" lon="4.87817">
        <ele>288</ele>
        <time>2017-08-09T10:00:23Z</time>
      </trkpt>
      <trkpt lat="45.95878" lon="4.87822">
        <ele>288</ele>
        <time>2017-08-09T10:00:24Z</time>
      </trkpt>
      <trkpt lat="45.95873" lon="4.87826">
        <ele>288</ele>
        <time>2017-08-09T10:00:25Z</time>
      </trkpt>
      <trkpt lat="45.95869" lon="4.8783">
        <ele>288</ele>
        <time>2017-08-09T10:00:26Z</time>
      </trkpt>
      <trkpt lat="45.95864" lon="4.87833">
        <ele>288</ele>
        <time>2017-08-09T10:00:27Z</time>
      </trkpt>
      <trkpt lat="45.9586" lon="4.87835">
        <ele>289</ele>
        <time>2017-08-09T10:00:28Z</time>
      </trkpt>
      <trkpt lat="45.95855" lon="4.87837">
        <ele>289</ele>
        <time>2017-08-09T10:00:29Z</time>
      </trkpt>
      <trkpt lat="45.9585" lon="4.87838">
        <ele>288</ele>
        <time>2017-08-09T10:00:30Z</time>
      </trkpt>
      <trkpt lat="45.95845" lon="4.87839">
        <ele>288</ele>
        <time>2017-08-09T10:00:31Z</time>
      </trkpt>
      <trkpt lat="45.95839" lon="4.87841">
        <ele>288</ele>
        <time>2017-08-09T10:00:33Z</time>
      </trkpt>
      <trkpt lat="45.95837" lon="4.87843">
        <ele>288</ele>
        <time>2017-08-09T10:00:34Z</time>
      </trkpt>
      <trkpt lat="45.95831" lon="4.87846">
        <ele>287</ele>
        <time>2017-08-09T10:00:36Z</time>
      </trkpt>
      <trkpt lat="45.95827" lon="4.87849">
        <ele>287</ele>
        <time>2017-08-09T10:00:37Z</time>
      </trkpt>
      <trkpt lat="45.95823" lon="4.87853">
        <ele>287</ele>
        <time>2017-08-09T10:00:38Z</time>
      </trkpt>
      <trkpt lat="45.95819" lon="4.87857">
        <ele>287</ele>
        <time>2017-08-09T10:00:39Z</time>
      </trkpt>
      <trkpt lat="45.95815" lon="4.87862">
        <ele>287</ele>
        <time>2017-08-09T10:00:40Z</time>
      </trkpt>
      <trkpt lat="45.95812" lon="4.87867">
        <ele>287</ele>
        <time>2017-08-09T10:00:41Z</time>
      </trkpt>
      <trkpt lat="45.95805" lon="4.87874">
        <ele>287</ele>
        <time>2017-08-09T10:00:43Z</time>
      </trkpt>
      <trkpt lat="45.95801" lon="4.87878">
        <ele>287</ele>
        <time>2017-08-09T10:00:44Z</time>
      </trkpt>
      <trkpt lat="45.95797" lon="4.87882">
        <ele>286</ele>
        <time>2017-08-09T10:00:45Z</time>
      </trkpt>
      <trkpt lat="45.95793" lon="4.87886">
        <ele>286</ele>
        <time>2017-08-09T10:00:46Z</time>
      </trkpt>
      <trkpt lat="45.95789" lon="4.87889">
        <ele>286</ele>
        <time>2017-08-09T10:00:47Z</time>
      </trkpt>
      <trkpt lat="45.95784" lon="4.87892">
        <ele>286</ele>
        <time>2017-08-09T10:00:48Z</time>
      </trkpt>
      <trkpt lat="45.95779" lon="4.87895">
        <ele>286</ele>
        <time>2017-08-09T10:00:49Z</time>
      </trkpt>
      <trkpt lat="45.95775" lon="4.87898">
        <ele>286</ele>
        <time>2017-08-09T10:00:50Z</time>
      </trkpt>
      <trkpt lat="45.95769" lon="4.87901">
        <ele>286</ele>
        <time>2017-08-09T10:00:51Z</time>
      </trkpt>
      <trkpt lat="45.95764" lon="4.87905">
        <ele>286</ele>
        <time>2017-08-09T10:00:52Z</time>
      </trkpt>
      <trkpt lat="45.95758" lon="4.87909">
        <ele>285</ele>
        <time>2017-08-09T10:00:53Z</time>
      </trkpt>
      <trkpt lat="45.95753" lon="4.87912">
        <ele>285</ele>
        <time>2017-08-09T10:00:54Z</time>
      </trkpt>
      <trkpt lat="45.95747" lon="4.87917">
        <ele>285</ele>
        <time>2017-08-09T10:00:55Z</time>
      </trkpt>
      <trkpt lat="45.95742" lon="4.87922">
        <ele>284</ele>
        <time>2017-08-09T10:00:56Z</time>
      </trkpt>
      <trkpt lat="45.95736" lon="4.87927">
        <ele>284</ele>
        <time>2017-08-09T10:00:57Z</time>
      </trkpt>
      <trkpt lat="45.9573" lon="4.87933">
        <ele>283</ele>
        <time>2017-08-09T10:00:58Z</time>
      </trkpt>
      <trkpt lat="45.95724" lon="4.87938">
        <ele>283</ele>
        <time>2017-08-09T10:00:59Z</time>
      </trkpt>
      <trkpt lat="45.95717" lon="4.87943">
        <ele>283</ele>
        <time>2017-08-09T10:01:00Z</time>
      </trkpt>
      <trkpt lat="45.95711" lon="4.87949">
        <ele>283</ele>
        <time>2017-08-09T10:01:01Z</time>
      </trkpt>
      <trkpt lat="45.95705" lon="4.87955">
        <ele>283</ele>
        <time>2017-08-09T10:01:02Z</time>
      </trkpt>
      <trkpt lat="45.95698" lon="4.87962">
        <ele>282</ele>
        <time>2017-08-09T10:01:03Z</time>
      </trkpt>
      <trkpt lat="45.95691" lon="4.87968">
        <ele>282</ele>
        <time>2017-08-09T10:01:04Z</time>
      </trkpt>
      <trkpt lat="45.95684" lon="4.87975">
        <ele>282</ele>
        <time>2017-08-09T10:01:05Z</time>
      </trkpt>
      <trkpt lat="45.95677" lon="4.87981">
        <ele>282</ele>
        <time>2017-08-09T10:01:06Z</time>
      </trkpt>
      <trkpt lat="45.9567" lon="4.87988">
        <ele>282</ele>
        <time>2017-08-09T10:01:07Z</time>
      </trkpt>
      <trkpt lat="45.95662" lon="4.87996">
        <ele>280</ele>
        <time>2017-08-09T10:01:08Z</time>
      </trkpt>
      <trkpt lat="45.95655" lon="4.88003">
        <ele>280</ele>
        <time>2017-08-09T10:01:09Z</time>
      </trkpt>
      <trkpt lat="45.95647" lon="4.88009">
        <ele>279</ele>
        <time>2017-08-09T10:01:10Z</time>
      </trkpt>
      <trkpt lat="45.9564" lon="4.88016">
        <ele>279</ele>
        <time>2017-08-09T10:01:11Z</time>
      </trkpt>
      <trkpt lat="45.95632" lon="4.88023">
        <ele>279</ele>
        <time>2017-08-09T10:01:12Z</time>
      </trkpt>
      <trkpt lat="45.95625" lon="4.88029">
        <ele>278</ele>
        <time>2017-08-09T10:01:13Z</time>
      </trkpt>
      <trkpt lat="45.95617" lon="4.88036">
        <ele>278</ele>
        <time>2017-08-09T10:01:14Z</time>
      </trkpt>
      <trkpt lat="45.9561" lon="4.88043">
        <ele>278</ele>
        <time>2017-08-09T10:01:15Z</time>
      </trkpt>
      <trkpt lat="45.95603" lon="4.8805">
        <ele>278</ele>
        <time>2017-08-09T10:01:16Z</time>
      </trkpt>
      <trkpt lat="45.95596" lon="4.88056">
        <ele>278</ele>
        <time>2017-08-09T10:01:17Z</time>
      </trkpt>
      <trkpt lat="45.95589" lon="4.88063">
        <ele>278</ele>
        <time>2017-08-09T10:01:18Z</time>
      </trkpt>
      <trkpt lat="45.95582" lon="4.88069">
        <ele>276</ele>
        <time>2017-08-09T10:01:19Z</time>
      </trkpt>
      <trkpt lat="45.95575" lon="4.88074">
        <ele>277</ele>
        <time>2017-08-09T10:01:20Z</time>
      </trkpt>
      <trkpt lat="45.95567" lon="4.88079">
        <ele>276</ele>
        <time>2017-08-09T10:01:21Z</time>
      </trkpt>
      <trkpt lat="45.9556" lon="4.88084">
        <ele>277</ele>
        <time>2017-08-09T10:01:22Z</time>
      </trkpt>
      <trkpt lat="45.95552" lon="4.88087">
        <ele>277</ele>
        <time>2017-08-09T10:01:23Z</time>
      </trkpt>
      <trkpt lat="45.95545" lon="4.8809">
        <ele>277</ele>
        <time>2017-08-09T10:01:24Z</time>
      </trkpt>
      <trkpt lat="45.95537" lon="4.88094">
        <ele>277</ele>
        <time>2017-08-09T10:01:25Z</time>
      </trkpt>
      <trkpt lat="45.9553" lon="4.88097">
        <ele>277</ele>
        <time>2017-08-09T10:01:26Z</time>
      </trkpt>
      <trkpt lat="45.95523" lon="4.881">
        <ele>276</ele>
        <time>2017-08-09T10:01:27Z</time>
      </trkpt>
      <trkpt lat="45.95515" lon="4.88103">
        <ele>276</ele>
        <time>2017-08-09T10:01:28Z</time>
      </trkpt>
      <trkpt lat="45.95508" lon="4.88106">
        <ele>276</ele>
        <time>2017-08-09T10:01:29Z</time>
      </trkpt>
      <trkpt lat="45.95501" lon="4.88109">
        <ele>276</ele>
        <time>2017-08-09T10:01:30Z</time>
      </trkpt>
      <trkpt lat="45.95494" lon="4.88112">
        <ele>276</ele>
        <time>2017-08-09T10:01:31Z</time>
      </trkpt>
      <trkpt lat="45.95488" lon="4.88115">
        <ele>276</ele>
        <time>2017-08-09T10:01:32Z</time>
      </trkpt>
      <trkpt lat="45.95481" lon="4.88119">
        <ele>276</ele>
        <time>2017-08-09T10:01:33Z</time>
      </trkpt>
      <trkpt lat="45.95475" lon="4.88123">
        <ele>276</ele>
        <time>2017-08-09T10:01:34Z</time>
      </trkpt>
      <trkpt lat="45.95469" lon="4.88126">
        <ele>276</ele>
        <time>2017-08-09T10:01:35Z</time>
      </trkpt>
      <trkpt lat="45.95463" lon="4.88128">
        <ele>276</ele>
        <time>2017-08-09T10:01:36Z</time>
      </trkpt>
      <trkpt lat="45.95457" lon="4.88131">
        <ele>276</ele>
        <time>2017-08-09T10:01:37Z</time>
      </trkpt>
      <trkpt lat="45.9545" lon="4.88134">
        <ele>276</ele>
        <time>2017-08-09T10:01:38Z</time>
      </trkpt>
      <trkpt lat="45.95444" lon="4.88136">
        <ele>276</ele>
        <time>2017-08-09T10:01:39Z</time>
      </trkpt>
      <trkpt lat="45.95438" lon="4.88138">
        <ele>276</ele>
        <time>2017-08-09T10:01:40Z</time>
      </trkpt>
      <trkpt lat="45.95433" lon="4.88141">
        <ele>276</ele>
        <time>2017-08-09T10:01:41Z</time>
      </trkpt>
      <trkpt lat="45.95427" lon="4.88143">
        <ele>276</ele>
        <time>2017-08-09T10:01:42Z</time>
      </trkpt>
      <trkpt lat="45.95422" lon="4.88147">
        <ele>276</ele>
        <time>2017-08-09T10:01:43Z</time>
      </trkpt>
      <trkpt lat="45.95417" lon="4.88149">
        <ele>276</ele>
        <time>2017-08-09T10:01:44Z</time>
      </trkpt>
      <trkpt lat="45.95412" lon="4.88152">
        <ele>276</ele>
        <time>2017-08-09T10:01:45Z</time>
      </trkpt>
      <trkpt lat="45.95407" lon="4.88154">
        <ele>276</ele>
        <time>2017-08-09T10:01:46Z</time>
      </trkpt>
      <trkpt lat="45.95402" lon="4.88156">
        <ele>276</ele>
        <time>2017-08-09T10:01:47Z</time>
      </trkpt>
      <trkpt lat="45.95396" lon="4.88157">
        <ele>276</ele>
        <time>2017-08-09T10:01:48Z</time>
      </trkpt>
      <trkpt lat="45.95391" lon="4.88159">
        <ele>276</ele>
        <time>2017-08-09T10:01:49Z</time>
      </trkpt>
      <trkpt lat="45.95386" lon="4.8816">
        <ele>276</ele>
        <time>2017-08-09T10:01:50Z</time>
      </trkpt>
      <trkpt lat="45.95381" lon="4.88162">
        <ele>276</ele>
        <time>2017-08-09T10:01:51Z</time>
      </trkpt>
      <trkpt lat="45.95376" lon="4.88164">
        <ele>276</ele>
        <time>2017-08-09T10:01:52Z</time>
      </trkpt>
      <trkpt lat="45.95368" lon="4.88166">
        <ele>276</ele>
        <time>2017-08-09T10:01:54Z</time>
      </trkpt>
      <trkpt lat="45.95363" lon="4.88167">
        <ele>278</ele>
        <time>2017-08-09T10:01:55Z</time>
      </trkpt>
      <trkpt lat="45.95358" lon="4.88168">
        <ele>278</ele>
        <time>2017-08-09T10:01:56Z</time>
      </trkpt>
      <trkpt lat="45.95354" lon="4.88169">
        <ele>278</ele>
        <time>2017-08-09T10:01:57Z</time>
      </trkpt>
      <trkpt lat="45.95345" lon="4.88169">
        <ele>278</ele>
        <time>2017-08-09T10:01:59Z</time>
      </trkpt>
      <trkpt lat="45.95341" lon="4.88169">
        <ele>278</ele>
        <time>2017-08-09T10:02:00Z</time>
      </trkpt>
      <trkpt lat="45.95334" lon="4.8817">
        <ele>278</ele>
        <time>2017-08-09T10:02:02Z</time>
      </trkpt>
      <trkpt lat="45.95331" lon="4.8817">
        <ele>279</ele>
        <time>2017-08-09T10:02:03Z</time>
      </trkpt>
      <trkpt lat="45.95323" lon="4.88169">
        <ele>279</ele>
        <time>2017-08-09T10:02:06Z</time>
      </trkpt>
      <trkpt lat="45.9532" lon="4.88169">
        <ele>279</ele>
        <time>2017-08-09T10:02:07Z</time>
      </trkpt>
      <trkpt lat="45.95314" lon="4.88169">
        <ele>280</ele>
        <time>2017-08-09T10:02:09Z</time>
      </trkpt>
      <trkpt lat="45.9531" lon="4.88168">
        <ele>280</ele>
        <time>2017-08-09T10:02:10Z</time>
      </trkpt>
      <trkpt lat="45.95302" lon="4.88168">
        <ele>281</ele>
        <time>2017-08-09T10:02:12Z</time>
      </trkpt>
      <trkpt lat="45.95297" lon="4.88167">
        <ele>281</ele>
        <time>2017-08-09T10:02:13Z</time>
      </trkpt>
      <trkpt lat="45.95289" lon="4.88165">
        <ele>279</ele>
        <time>2017-08-09T10:02:15Z</time>
      </trkpt>
      <trkpt lat="45.95285" lon="4.88165">
        <ele>279</ele>
        <time>2017-08-09T10:02:16Z</time>
      </trkpt>
      <trkpt lat="45.95276" lon="4.88164">
        <ele>279</ele>
        <time>2017-08-09T10:02:18Z</time>
      </trkpt>
      <trkpt lat="45.95272" lon="4.88164">
        <ele>279</ele>
        <time>2017-08-09T10:02:19Z</time>
      </trkpt>
      <trkpt lat="45.95263" lon="4.88164">
        <ele>280</ele>
        <time>2017-08-09T10:02:21Z</time>
      </trkpt>
      <trkpt lat="45.95259" lon="4.88164">
        <ele>280</ele>
        <time>2017-08-09T10:02:22Z</time>
      </trkpt>
      <trkpt lat="45.95251" lon="4.88164">
        <ele>281</ele>
        <time>2017-08-09T10:02:24Z</time>
      </trkpt>
      <trkpt lat="45.95246" lon="4.88165">
        <ele>281</ele>
        <time>2017-08-09T10:02:25Z</time>
      </trkpt>
      <trkpt lat="45.95238" lon="4.88165">
        <ele>281</ele>
        <time>2017-08-09T10:02:27Z</time>
      </trkpt>
      <trkpt lat="45.95234" lon="4.88165">
        <ele>281</ele>
        <time>2017-08-09T10:02:28Z</time>
      </trkpt>
      <trkpt lat="45.95226" lon="4.88165">
        <ele>282</ele>
        <time>2017-08-09T10:02:30Z</time>
      </trkpt>
      <trkpt lat="45.95222" lon="4.88166">
        <ele>282</ele>
        <time>2017-08-09T10:02:31Z</time>
      </trkpt>
      <trkpt lat="45.95215" lon="4.88166">
        <ele>282</ele>
        <time>2017-08-09T10:02:33Z</time>
      </trkpt>
      <trkpt lat="45.95211" lon="4.88166">
        <ele>282</ele>
        <time>2017-08-09T10:02:34Z</time>
      </trkpt>
      <trkpt lat="45.95202" lon="4.88166">
        <ele>282</ele>
        <time>2017-08-09T10:02:36Z</time>
      </trkpt>
      <trkpt lat="45.95198" lon="4.88167">
        <ele>283</ele>
        <time>2017-08-09T10:02:37Z</time>
      </trkpt>
      <trkpt lat="45.9519" lon="4.88167">
        <ele>285</ele>
        <time>2017-08-09T10:02:39Z</time>
      </trkpt>
      <trkpt lat="45.95186" lon="4.88167">
        <ele>285</ele>
        <time>2017-08-09T10:02:40Z</time>
      </trkpt>
      <trkpt lat="45.95178" lon="4.88169">
        <ele>285</ele>
        <time>2017-08-09T10:02:42Z</time>
      </trkpt>
      <trkpt lat="45.95174" lon="4.8817">
        <ele>285</ele>
        <time>2017-08-09T10:02:43Z</time>
      </trkpt>
      <trkpt lat="45.95165" lon="4.88172">
        <ele>285</ele>
        <time>2017-08-09T10:02:45Z</time>
      </trkpt>
      <trkpt lat="45.95161" lon="4.88173">
        <ele>286</ele>
        <time>2017-08-09T10:02:46Z</time>
      </trkpt>
      <trkpt lat="45.95154" lon="4.88176">
        <ele>286</ele>
        <time>2017-08-09T10:02:48Z</time>
      </trkpt>
      <trkpt lat="45.9515" lon="4.88177">
        <ele>286</ele>
        <time>2017-08-09T10:02:49Z</time>
      </trkpt>
      <trkpt lat="45.95143" lon="4.8818">
        <ele>286</ele>
        <time>2017-08-09T10:02:51Z</time>
      </trkpt>
      <trkpt lat="45.9514" lon="4.88182">
        <ele>286</ele>
        <time>2017-08-09T10:02:52Z</time>
      </trkpt>
      <trkpt lat="45.95134" lon="4.88188">
        <ele>286</ele>
        <time>2017-08-09T10:02:54Z</time>
      </trkpt>
      <trkpt lat="45.95132" lon="4.8819">
        <ele>286</ele>
        <time>2017-08-09T10:02:55Z</time>
      </trkpt>
      <trkpt lat="45.95125" lon="4.88196">
        <ele>287</ele>
        <time>2017-08-09T10:02:57Z</time>
      </trkpt>
      <trkpt lat="45.95121" lon="4.88199">
        <ele>287</ele>
        <time>2017-08-09T10:02:58Z</time>
      </trkpt>
      <trkpt lat="45.95115" lon="4.88208">
        <ele>287</ele>
        <time>2017-08-09T10:03:00Z</time>
      </trkpt>
      <trkpt lat="45.95112" lon="4.88212">
        <ele>287</ele>
        <time>2017-08-09T10:03:01Z</time>
      </trkpt>
      <trkpt lat="45.95109" lon="4.8822">
        <ele>287</ele>
        <time>2017-08-09T10:03:03Z</time>
      </trkpt>
      <trkpt lat="45.95107" lon="4.88225">
        <ele>287</ele>
        <time>2017-08-09T10:03:04Z</time>
      </trkpt>
      <trkpt lat="45.95103" lon="4.88233">
        <ele>287</ele>
        <time>2017-08-09T10:03:06Z</time>
      </trkpt>
      <trkpt lat="45.95101" lon="4.88236">
        <ele>287</ele>
        <time>2017-08-09T10:03:07Z</time>
      </trkpt>
      <trkpt lat="45.95093" lon="4.88239">
        <ele>287</ele>
        <time>2017-08-09T10:03:09Z</time>
      </trkpt>
      <trkpt lat="45.95089" lon="4.8824">
        <ele>287</ele>
        <time>2017-08-09T10:03:10Z</time>
      </trkpt>
      <trkpt lat="45.95081" lon="4.88242">
        <ele>286</ele>
        <time>2017-08-09T10:03:12Z</time>
      </trkpt>
      <trkpt lat="45.95077" lon="4.88243">
        <ele>286</ele>
        <time>2017-08-09T10:03:13Z</time>
      </trkpt>
      <trkpt lat="45.95069" lon="4.88245">
        <ele>286</ele>
        <time>2017-08-09T10:03:15Z</time>
      </trkpt>
      <trkpt lat="45.95065" lon="4.88247">
        <ele>286</ele>
        <time>2017-08-09T10:03:16Z</time>
      </trkpt>
      <trkpt lat="45.95061" lon="4.88248">
        <ele>286</ele>
        <time>2017-08-09T10:03:17Z</time>
      </trkpt>
      <trkpt lat="45.95056" lon="4.8825">
        <ele>285</ele>
        <time>2017-08-09T10:03:18Z</time>
      </trkpt>
      <trkpt lat="45.95048" lon="4.88253">
        <ele>286</ele>
        <time>2017-08-09T10:03:20Z</time>
      </trkpt>
      <trkpt lat="45.95043" lon="4.88255">
        <ele>286</ele>
        <time>2017-08-09T10:03:21Z</time>
      </trkpt>
      <trkpt lat="45.95039" lon="4.88257">
        <ele>285</ele>
        <time>2017-08-09T10:03:22Z</time>
      </trkpt>
      <trkpt lat="45.95034" lon="4.88259">
        <ele>285</ele>
        <time>2017-08-09T10:03:23Z</time>
      </trkpt>
      <trkpt lat="45.9503" lon="4.8826">
        <ele>285</ele>
        <time>2017-08-09T10:03:24Z</time>
      </trkpt>
      <trkpt lat="45.95025" lon="4.88262">
        <ele>285</ele>
        <time>2017-08-09T10:03:25Z</time>
      </trkpt>
      <trkpt lat="45.95021" lon="4.88264">
        <ele>285</ele>
        <time>2017-08-09T10:03:26Z</time>
      </trkpt>
      <trkpt lat="45.95016" lon="4.88266">
        <ele>285</ele>
        <time>2017-08-09T10:03:27Z</time>
      </trkpt>
      <trkpt lat="45.9501" lon="4.88268">
        <ele>285</ele>
        <time>2017-08-09T10:03:28Z</time>
      </trkpt>
      <trkpt lat="45.95005" lon="4.8827">
        <ele>284</ele>
        <time>2017-08-09T10:03:29Z</time>
      </trkpt>
      <trkpt lat="45.95" lon="4.88271">
        <ele>283</ele>
        <time>2017-08-09T10:03:30Z</time>
      </trkpt>
      <trkpt lat="45.94995" lon="4.88273">
        <ele>283</ele>
        <time>2017-08-09T10:03:31Z</time>
      </trkpt>
      <trkpt lat="45.9499" lon="4.88276">
        <ele>283</ele>
        <time>2017-08-09T10:03:32Z</time>
      </trkpt>
      <trkpt lat="45.94985" lon="4.88277">
        <ele>283</ele>
        <time>2017-08-09T10:03:33Z</time>
      </trkpt>
      <trkpt lat="45.94979" lon="4.88279">
        <ele>283</ele>
        <time>2017-08-09T10:03:34Z</time>
      </trkpt>
      <trkpt lat="45.94974" lon="4.88282">
        <ele>283</ele>
        <time>2017-08-09T10:03:35Z</time>
      </trkpt>
      <trkpt lat="45.94969" lon="4.88284">
        <ele>283</ele>
        <time>2017-08-09T10:03:36Z</time>
      </trkpt>
      <trkpt lat="45.94964" lon="4.88286">
        <ele>283</ele>
        <time>2017-08-09T10:03:37Z</time>
      </trkpt>
      <trkpt lat="45.94958" lon="4.88288">
        <ele>283</ele>
        <time>2017-08-09T10:03:38Z</time>
      </trkpt>
      <trkpt lat="45.94953" lon="4.8829">
        <ele>283</ele>
        <time>2017-08-09T10:03:39Z</time>
      </trkpt>
      <trkpt lat="45.94948" lon="4.88293">
        <ele>283</ele>
        <time>2017-08-09T10:03:40Z</time>
      </trkpt>
      <trkpt lat="45.94942" lon="4.88295">
        <ele>283</ele>
        <time>2017-08-09T10:03:41Z</time>
      </trkpt>
      <trkpt lat="45.94937" lon="4.88297">
        <ele>283</ele>
        <time>2017-08-09T10:03:42Z</time>
      </trkpt>
      <trkpt lat="45.94931" lon="4.883">
        <ele>283</ele>
        <time>2017-08-09T10:03:43Z</time>
      </trkpt>
      <trkpt lat="45.94926" lon="4.88302">
        <ele>283</ele>
        <time>2017-08-09T10:03:44Z</time>
      </trkpt>
      <trkpt lat="45.9492" lon="4.88304">
        <ele>283</ele>
        <time>2017-08-09T10:03:45Z</time>
      </trkpt>
      <trkpt lat="45.94915" lon="4.88307">
        <ele>281</ele>
        <time>2017-08-09T10:03:46Z</time>
      </trkpt>
      <trkpt lat="45.94909" lon="4.88309">
        <ele>281</ele>
        <time>2017-08-09T10:03:47Z</time>
      </trkpt>
      <trkpt lat="45.94903" lon="4.88311">
        <ele>281</ele>
        <time>2017-08-09T10:03:48Z</time>
      </trkpt>
      <trkpt lat="45.94898" lon="4.88312">
        <ele>281</ele>
        <time>2017-08-09T10:03:49Z</time>
      </trkpt>
      <trkpt lat="45.94892" lon="4.88314">
        <ele>281</ele>
        <time>2017-08-09T10:03:50Z</time>
      </trkpt>
      <trkpt lat="45.94886" lon="4.88316">
        <ele>281</ele>
        <time>2017-08-09T10:03:51Z</time>
      </trkpt>
      <trkpt lat="45.9488" lon="4.88319">
        <ele>280</ele>
        <time>2017-08-09T10:03:52Z</time>
      </trkpt>
      <trkpt lat="45.94874" lon="4.88322">
        <ele>280</ele>
        <time>2017-08-09T10:03:53Z</time>
      </trkpt>
      <trkpt lat="45.94867" lon="4.88324">
        <ele>280</ele>
        <time>2017-08-09T10:03:54Z</time>
      </trkpt>
      <trkpt lat="45.9486" lon="4.88325">
        <ele>280</ele>
        <time>2017-08-09T10:03:55Z</time>
      </trkpt>
      <trkpt lat="45.94853" lon="4.88327">
        <ele>280</ele>
        <time>2017-08-09T10:03:56Z</time>
      </trkpt>
      <trkpt lat="45.94846" lon="4.88329">
        <ele>280</ele>
        <time>2017-08-09T10:03:57Z</time>
      </trkpt>
      <trkpt lat="45.94838" lon="4.88331">
        <ele>279</ele>
        <time>2017-08-09T10:03:58Z</time>
      </trkpt>
      <trkpt lat="45.9483" lon="4.88332">
        <ele>279</ele>
        <time>2017-08-09T10:03:59Z</time>
      </trkpt>
      <trkpt lat="45.94822" lon="4.88333">
        <ele>278</ele>
        <time>2017-08-09T10:04:00Z</time>
      </trkpt>
      <trkpt lat="45.94814" lon="4.88334">
        <ele>278</ele>
        <time>2017-08-09T10:04:01Z</time>
      </trkpt>
      <trkpt lat="45.94806" lon="4.88334">
        <ele>278</ele>
        <time>2017-08-09T10:04:02Z</time>
      </trkpt>
      <trkpt lat="45.94798" lon="4.88334">
        <ele>278</ele>
        <time>2017-08-09T10:04:03Z</time>
      </trkpt>
      <trkpt lat="45.9479" lon="4.88333">
        <ele>278</ele>
        <time>2017-08-09T10:04:04Z</time>
      </trkpt>
      <trkpt lat="45.94782" lon="4.88332">
        <ele>278</ele>
        <time>2017-08-09T10:04:05Z</time>
      </trkpt>
      <trkpt lat="45.94774" lon="4.8833">
        <ele>277</ele>
        <time>2017-08-09T10:04:06Z</time>
      </trkpt>
      <trkpt lat="45.94766" lon="4.88329">
        <ele>277</ele>
        <time>2017-08-09T10:04:07Z</time>
      </trkpt>
      <trkpt lat="45.94759" lon="4.88328">
        <ele>277</ele>
        <time>2017-08-09T10:04:08Z</time>
      </trkpt>
      <trkpt lat="45.94751" lon="4.88326">
        <ele>277</ele>
        <time>2017-08-09T10:04:09Z</time>
      </trkpt>
      <trkpt lat="45.94744" lon="4.88325">
        <ele>277</ele>
        <time>2017-08-09T10:04:10Z</time>
      </trkpt>
      <trkpt lat="45.94736" lon="4.88324">
        <ele>277</ele>
        <time>2017-08-09T10:04:11Z</time>
      </trkpt>
      <trkpt lat="45.94729" lon="4.88323">
        <ele>277</ele>
        <time>2017-08-09T10:04:12Z</time>
      </trkpt>
      <trkpt lat="45.94722" lon="4.88323">
        <ele>276</ele>
        <time>2017-08-09T10:04:13Z</time>
      </trkpt>
      <trkpt lat="45.94715" lon="4.88322">
        <ele>276</ele>
        <time>2017-08-09T10:04:14Z</time>
      </trkpt>
      <trkpt lat="45.94708" lon="4.88321">
        <ele>276</ele>
        <time>2017-08-09T10:04:15Z</time>
      </trkpt>
      <trkpt lat="45.94702" lon="4.8832">
        <ele>276</ele>
        <time>2017-08-09T10:04:16Z</time>
      </trkpt>
      <trkpt lat="45.94695" lon="4.88319">
        <ele>276</ele>
        <time>2017-08-09T10:04:17Z</time>
      </trkpt>
      <trkpt lat="45.94689" lon="4.88318">
        <ele>276</ele>
        <time>2017-08-09T10:04:18Z</time>
      </trkpt>
      <trkpt lat="45.94682" lon="4.88317">
        <ele>276</ele>
        <time>2017-08-09T10:04:19Z</time>
      </trkpt>
      <trkpt lat="45.94675" lon="4.88316">
        <ele>276</ele>
        <time>2017-08-09T10:04:20Z</time>
      </trkpt>
      <trkpt lat="45.94669" lon="4.88315">
        <ele>276</ele>
        <time>2017-08-09T10:04:21Z</time>
      </trkpt>
      <trkpt lat="45.94662" lon="4.88314">
        <ele>276</ele>
        <time>2017-08-09T10:04:22Z</time>
      </trkpt>
      <trkpt lat="45.94655" lon="4.88313">
        <ele>276</ele>
        <time>2017-08-09T10:04:23Z</time>
      </trkpt>
      <trkpt lat="45.94648" lon="4.88312">
        <ele>276</ele>
        <time>2017-08-09T10:04:24Z</time>
      </trkpt>
      <trkpt lat="45.94641" lon="4.88311">
        <ele>276</ele>
        <time>2017-08-09T10:04:25Z</time>
      </trkpt>
      <trkpt lat="45.94635" lon="4.8831">
        <ele>276</ele>
        <time>2017-08-09T10:04:26Z</time>
      </trkpt>
      <trkpt lat="45.94629" lon="4.88309">
        <ele>276</ele>
        <time>2017-08-09T10:04:27Z</time>
      </trkpt>
      <trkpt lat="45.94623" lon="4.88308">
        <ele>275</ele>
        <time>2017-08-09T10:04:28Z</time>
      </trkpt>
      <trkpt lat="45.94617" lon="4.88307">
        <ele>275</ele>
        <time>2017-08-09T10:04:29Z</time>
      </trkpt>
      <trkpt lat="45.9461" lon="4.88306">
        <ele>275</ele>
        <time>2017-08-09T10:04:30Z</time>
      </trkpt>
      <trkpt lat="45.94604" lon="4.88305">
        <ele>275</ele>
        <time>2017-08-09T10:04:31Z</time>
      </trkpt>
      <trkpt lat="45.94599" lon="4.88304">
        <ele>275</ele>
        <time>2017-08-09T10:04:32Z</time>
      </trkpt>
      <trkpt lat="45.94593" lon="4.88303">
        <ele>275</ele>
        <time>2017-08-09T10:04:33Z</time>
      </trkpt>
      <trkpt lat="45.94586" lon="4.88302">
        <ele>275</ele>
        <time>2017-08-09T10:04:34Z</time>
      </trkpt>
      <trkpt lat="45.94579" lon="4.88301">
        <ele>275</ele>
        <time>2017-08-09T10:04:35Z</time>
      </trkpt>
      <trkpt lat="45.94573" lon="4.883">
        <ele>275</ele>
        <time>2017-08-09T10:04:36Z</time>
      </trkpt>
      <trkpt lat="45.94566" lon="4.883">
        <ele>275</ele>
        <time>2017-08-09T10:04:37Z</time>
      </trkpt>
      <trkpt lat="45.9456" lon="4.88299">
        <ele>275</ele>
        <time>2017-08-09T10:04:38Z</time>
      </trkpt>
      <trkpt lat="45.94553" lon="4.88298">
        <ele>275</ele>
        <time>2017-08-09T10:04:39Z</time>
      </trkpt>
      <trkpt lat="45.94547" lon="4.88297">
        <ele>275</ele>
        <time>2017-08-09T10:04:40Z</time>
      </trkpt>
      <trkpt lat="45.94541" lon="4.88296">
        <ele>275</ele>
        <time>2017-08-09T10:04:41Z</time>
      </trkpt>
      <trkpt lat="45.94535" lon="4.88295">
        <ele>275</ele>
        <time>2017-08-09T10:04:42Z</time>
      </trkpt>
      <trkpt lat="45.94529" lon="4.88294">
        <ele>275</ele>
        <time>2017-08-09T10:04:43Z</time>
      </trkpt>
      <trkpt lat="45.94523" lon="4.88294">
        <ele>275</ele>
        <time>2017-08-09T10:04:44Z</time>
      </trkpt>
      <trkpt lat="45.94518" lon="4.88293">
        <ele>275</ele>
        <time>2017-08-09T10:04:45Z</time>
      </trkpt>
      <trkpt lat="45.94512" lon="4.88292">
        <ele>275</ele>
        <time>2017-08-09T10:04:46Z</time>
      </trkpt>
      <trkpt lat="45.94506" lon="4.88291">
        <ele>275</ele>
        <time>2017-08-09T10:04:47Z</time>
      </trkpt>
      <trkpt lat="45.94499" lon="4.8829">
        <ele>276</ele>
        <time>2017-08-09T10:04:48Z</time>
      </trkpt>
      <trkpt lat="45.94493" lon="4.8829">
        <ele>276</ele>
        <time>2017-08-09T10:04:49Z</time>
      </trkpt>
      <trkpt lat="45.94487" lon="4.88289">
        <ele>276</ele>
        <time>2017-08-09T10:04:50Z</time>
      </trkpt>
      <trkpt lat="45.9448" lon="4.88288">
        <ele>276</ele>
        <time>2017-08-09T10:04:51Z</time>
      </trkpt>
      <trkpt lat="45.94473" lon="4.88286">
        <ele>276</ele>
        <time>2017-08-09T10:04:52Z</time>
      </trkpt>
      <trkpt lat="45.94466" lon="4.88285">
        <ele>276</ele>
        <time>2017-08-09T10:04:53Z</time>
      </trkpt>
      <trkpt lat="45.9446" lon="4.88284">
        <ele>276</ele>
        <time>2017-08-09T10:04:54Z</time>
      </trkpt>
      <trkpt lat="45.94453" lon="4.88284">
        <ele>276</ele>
        <time>2017-08-09T10:04:55Z</time>
      </trkpt>
      <trkpt lat="45.94447" lon="4.88283">
        <ele>276</ele>
        <time>2017-08-09T10:04:56Z</time>
      </trkpt>
      <trkpt lat="45.94441" lon="4.88282">
        <ele>276</ele>
        <time>2017-08-09T10:04:57Z</time>
      </trkpt>
      <trkpt lat="45.94435" lon="4.88281">
        <ele>276</ele>
        <time>2017-08-09T10:04:58Z</time>
      </trkpt>
      <trkpt lat="45.94429" lon="4.8828">
        <ele>276</ele>
        <time>2017-08-09T10:04:59Z</time>
      </trkpt>
      <trkpt lat="45.94423" lon="4.88279">
        <ele>276</ele>
        <time>2017-08-09T10:05:00Z</time>
      </trkpt>
      <trkpt lat="45.94418" lon="4.88278">
        <ele>276</ele>
        <time>2017-08-09T10:05:01Z</time>
      </trkpt>
      <trkpt lat="45.94412" lon="4.88277">
        <ele>276</ele>
        <time>2017-08-09T10:05:02Z</time>
      </trkpt>
      <trkpt lat="45.94407" lon="4.88276">
        <ele>276</ele>
        <time>2017-08-09T10:05:03Z</time>
      </trkpt>
      <trkpt lat="45.94401" lon="4.88275">
        <ele>276</ele>
        <time>2017-08-09T10:05:04Z</time>
      </trkpt>
      <trkpt lat="45.94395" lon="4.88275">
        <ele>276</ele>
        <time>2017-08-09T10:05:05Z</time>
      </trkpt>
      <trkpt lat="45.94389" lon="4.88274">
        <ele>276</ele>
        <time>2017-08-09T10:05:06Z</time>
      </trkpt>
      <trkpt lat="45.94382" lon="4.88273">
        <ele>276</ele>
        <time>2017-08-09T10:05:07Z</time>
      </trkpt>
      <trkpt lat="45.94376" lon="4.88272">
        <ele>276</ele>
        <time>2017-08-09T10:05:08Z</time>
      </trkpt>
      <trkpt lat="45.94369" lon="4.88271">
        <ele>276</ele>
        <time>2017-08-09T10:05:09Z</time>
      </trkpt>
      <trkpt lat="45.94363" lon="4.8827">
        <ele>276</ele>
        <time>2017-08-09T10:05:10Z</time>
      </trkpt>
      <trkpt lat="45.94356" lon="4.88269">
        <ele>276</ele>
        <time>2017-08-09T10:05:11Z</time>
      </trkpt>
      <trkpt lat="45.9435" lon="4.88268">
        <ele>276</ele>
        <time>2017-08-09T10:05:12Z</time>
      </trkpt>
      <trkpt lat="45.94343" lon="4.88267">
        <ele>276</ele>
        <time>2017-08-09T10:05:13Z</time>
      </trkpt>
      <trkpt lat="45.94337" lon="4.88267">
        <ele>276</ele>
        <time>2017-08-09T10:05:14Z</time>
      </trkpt>
      <trkpt lat="45.94332" lon="4.88266">
        <ele>277</ele>
        <time>2017-08-09T10:05:15Z</time>
      </trkpt>
      <trkpt lat="45.94326" lon="4.88265">
        <ele>277</ele>
        <time>2017-08-09T10:05:16Z</time>
      </trkpt>
      <trkpt lat="45.9432" lon="4.88264">
        <ele>277</ele>
        <time>2017-08-09T10:05:17Z</time>
      </trkpt>
      <trkpt lat="45.94314" lon="4.88263">
        <ele>277</ele>
        <time>2017-08-09T10:05:18Z</time>
      </trkpt>
      <trkpt lat="45.94308" lon="4.88263">
        <ele>277</ele>
        <time>2017-08-09T10:05:19Z</time>
      </trkpt>
      <trkpt lat="45.94302" lon="4.88262">
        <ele>277</ele>
        <time>2017-08-09T10:05:20Z</time>
      </trkpt>
      <trkpt lat="45.94296" lon="4.88261">
        <ele>277</ele>
        <time>2017-08-09T10:05:21Z</time>
      </trkpt>
      <trkpt lat="45.9429" lon="4.88259">
        <ele>277</ele>
        <time>2017-08-09T10:05:22Z</time>
      </trkpt>
      <trkpt lat="45.94283" lon="4.88259">
        <ele>277</ele>
        <time>2017-08-09T10:05:23Z</time>
      </trkpt>
      <trkpt lat="45.94276" lon="4.88258">
        <ele>278</ele>
        <time>2017-08-09T10:05:24Z</time>
      </trkpt>
      <trkpt lat="45.9427" lon="4.88257">
        <ele>278</ele>
        <time>2017-08-09T10:05:25Z</time>
      </trkpt>
      <trkpt lat="45.94263" lon="4.88256">
        <ele>278</ele>
        <time>2017-08-09T10:05:26Z</time>
      </trkpt>
      <trkpt lat="45.94256" lon="4.88255">
        <ele>278</ele>
        <time>2017-08-09T10:05:27Z</time>
      </trkpt>
      <trkpt lat="45.94249" lon="4.88254">
        <ele>278</ele>
        <time>2017-08-09T10:05:28Z</time>
      </trkpt>
      <trkpt lat="45.94243" lon="4.88253">
        <ele>278</ele>
        <time>2017-08-09T10:05:29Z</time>
      </trkpt>
      <trkpt lat="45.94237" lon="4.88252">
        <ele>278</ele>
        <time>2017-08-09T10:05:30Z</time>
      </trkpt>
      <trkpt lat="45.94231" lon="4.88251">
        <ele>279</ele>
        <time>2017-08-09T10:05:31Z</time>
      </trkpt>
      <trkpt lat="45.94226" lon="4.8825">
        <ele>278</ele>
        <time>2017-08-09T10:05:32Z</time>
      </trkpt>
      <trkpt lat="45.9422" lon="4.88248">
        <ele>278</ele>
        <time>2017-08-09T10:05:33Z</time>
      </trkpt>
      <trkpt lat="45.94215" lon="4.88248">
        <ele>278</ele>
        <time>2017-08-09T10:05:34Z</time>
      </trkpt>
      <trkpt lat="45.94209" lon="4.88247">
        <ele>278</ele>
        <time>2017-08-09T10:05:35Z</time>
      </trkpt>
      <trkpt lat="45.94203" lon="4.88247">
        <ele>278</ele>
        <time>2017-08-09T10:05:36Z</time>
      </trkpt>
      <trkpt lat="45.94198" lon="4.88247">
        <ele>278</ele>
        <time>2017-08-09T10:05:37Z</time>
      </trkpt>
      <trkpt lat="45.94192" lon="4.88246">
        <ele>278</ele>
        <time>2017-08-09T10:05:38Z</time>
      </trkpt>
      <trkpt lat="45.94185" lon="4.88245">
        <ele>278</ele>
        <time>2017-08-09T10:05:39Z</time>
      </trkpt>
      <trkpt lat="45.94179" lon="4.88244">
        <ele>279</ele>
        <time>2017-08-09T10:05:40Z</time>
      </trkpt>
      <trkpt lat="45.94172" lon="4.88243">
        <ele>279</ele>
        <time>2017-08-09T10:05:41Z</time>
      </trkpt>
      <trkpt lat="45.94166" lon="4.88241">
        <ele>279</ele>
        <time>2017-08-09T10:05:42Z</time>
      </trkpt>
      <trkpt lat="45.9416" lon="4.8824">
        <ele>279</ele>
        <time>2017-08-09T10:05:43Z</time>
      </trkpt>
      <trkpt lat="45.94154" lon="4.88239">
        <ele>279</ele>
        <time>2017-08-09T10:05:44Z</time>
      </trkpt>
      <trkpt lat="45.94148" lon="4.88239">
        <ele>280</ele>
        <time>2017-08-09T10:05:45Z</time>
      </trkpt>
      <trkpt lat="45.94142" lon="4.88238">
        <ele>280</ele>
        <time>2017-08-09T10:05:46Z</time>
      </trkpt>
      <trkpt lat="45.94137" lon="4.88237">
        <ele>280</ele>
        <time>2017-08-09T10:05:47Z</time>
      </trkpt>
      <trkpt lat="45.94132" lon="4.88236">
        <ele>280</ele>
        <time>2017-08-09T10:05:48Z</time>
      </trkpt>
      <trkpt lat="45.94126" lon="4.88236">
        <ele>280</ele>
        <time>2017-08-09T10:05:49Z</time>
      </trkpt>
      <trkpt lat="45.94121" lon="4.88235">
        <ele>280</ele>
        <time>2017-08-09T10:05:50Z</time>
      </trkpt>
      <trkpt lat="45.94115" lon="4.88234">
        <ele>280</ele>
        <time>2017-08-09T10:05:51Z</time>
      </trkpt>
      <trkpt lat="45.9411" lon="4.88233">
        <ele>280</ele>
        <time>2017-08-09T10:05:52Z</time>
      </trkpt>
      <trkpt lat="45.94104" lon="4.88233">
        <ele>280</ele>
        <time>2017-08-09T10:05:53Z</time>
      </trkpt>
      <trkpt lat="45.94098" lon="4.88232">
        <ele>281</ele>
        <time>2017-08-09T10:05:54Z</time>
      </trkpt>
      <trkpt lat="45.94093" lon="4.88231">
        <ele>281</ele>
        <time>2017-08-09T10:05:55Z</time>
      </trkpt>
      <trkpt lat="45.94087" lon="4.8823">
        <ele>281</ele>
        <time>2017-08-09T10:05:56Z</time>
      </trkpt>
      <trkpt lat="45.94082" lon="4.88229">
        <ele>282</ele>
        <time>2017-08-09T10:05:57Z</time>
      </trkpt>
      <trkpt lat="45.94077" lon="4.88229">
        <ele>282</ele>
        <time>2017-08-09T10:05:58Z</time>
      </trkpt>
      <trkpt lat="45.94071" lon="4.88228">
        <ele>282</ele>
        <time>2017-08-09T10:05:59Z</time>
      </trkpt>
      <trkpt lat="45.94066" lon="4.88227">
        <ele>282</ele>
        <time>2017-08-09T10:06:00Z</time>
      </trkpt>
      <trkpt lat="45.94061" lon="4.88226">
        <ele>282</ele>
        <time>2017-08-09T10:06:01Z</time>
      </trkpt>
      <trkpt lat="45.94055" lon="4.88225">
        <ele>283</ele>
        <time>2017-08-09T10:06:02Z</time>
      </trkpt>
      <trkpt lat="45.9405" lon="4.88224">
        <ele>283</ele>
        <time>2017-08-09T10:06:03Z</time>
      </trkpt>
      <trkpt lat="45.94045" lon="4.88223">
        <ele>283</ele>
        <time>2017-08-09T10:06:04Z</time>
      </trkpt>
      <trkpt lat="45.9404" lon="4.88223">
        <ele>283</ele>
        <time>2017-08-09T10:06:05Z</time>
      </trkpt>
      <trkpt lat="45.94035" lon="4.88222">
        <ele>283</ele>
        <time>2017-08-09T10:06:06Z</time>
      </trkpt>
      <trkpt lat="45.9403" lon="4.88222">
        <ele>283</ele>
        <time>2017-08-09T10:06:07Z</time>
      </trkpt>
      <trkpt lat="45.94025" lon="4.88221">
        <ele>283</ele>
        <time>2017-08-09T10:06:08Z</time>
      </trkpt>
      <trkpt lat="45.94019" lon="4.8822">
        <ele>283</ele>
        <time>2017-08-09T10:06:09Z</time>
      </trkpt>
      <trkpt lat="45.94014" lon="4.88219">
        <ele>283</ele>
        <time>2017-08-09T10:06:10Z</time>
      </trkpt>
      <trkpt lat="45.94009" lon="4.88219">
        <ele>284</ele>
        <time>2017-08-09T10:06:11Z</time>
      </trkpt>
      <trkpt lat="45.94003" lon="4.88218">
        <ele>284</ele>
        <time>2017-08-09T10:06:12Z</time>
      </trkpt>
      <trkpt lat="45.93998" lon="4.88217">
        <ele>286</ele>
        <time>2017-08-09T10:06:13Z</time>
      </trkpt>
      <trkpt lat="45.93992" lon="4.88217">
        <ele>286</ele>
        <time>2017-08-09T10:06:14Z</time>
      </trkpt>
      <trkpt lat="45.93986" lon="4.88216">
        <ele>286</ele>
        <time>2017-08-09T10:06:15Z</time>
      </trkpt>
      <trkpt lat="45.93981" lon="4.88216">
        <ele>286</ele>
        <time>2017-08-09T10:06:16Z</time>
      </trkpt>
      <trkpt lat="45.93976" lon="4.88216">
        <ele>286</ele>
        <time>2017-08-09T10:06:17Z</time>
      </trkpt>
      <trkpt lat="45.9397" lon="4.88216">
        <ele>286</ele>
        <time>2017-08-09T10:06:18Z</time>
      </trkpt>
      <trkpt lat="45.93965" lon="4.88216">
        <ele>286</ele>
        <time>2017-08-09T10:06:19Z</time>
      </trkpt>
      <trkpt lat="45.93959" lon="4.88215">
        <ele>286</ele>
        <time>2017-08-09T10:06:20Z</time>
      </trkpt>
      <trkpt lat="45.93953" lon="4.88216">
        <ele>286</ele>
        <time>2017-08-09T10:06:21Z</time>
      </trkpt>
      <trkpt lat="45.93948" lon="4.88216">
        <ele>287</ele>
        <time>2017-08-09T10:06:22Z</time>
      </trkpt>
      <trkpt lat="45.93942" lon="4.88216">
        <ele>287</ele>
        <time>2017-08-09T10:06:23Z</time>
      </trkpt>
      <trkpt lat="45.93937" lon="4.88216">
        <ele>287</ele>
        <time>2017-08-09T10:06:24Z</time>
      </trkpt>
      <trkpt lat="45.93931" lon="4.88215">
        <ele>287</ele>
        <time>2017-08-09T10:06:25Z</time>
      </trkpt>
      <trkpt lat="45.93925" lon="4.88215">
        <ele>287</ele>
        <time>2017-08-09T10:06:26Z</time>
      </trkpt>
      <trkpt lat="45.9392" lon="4.88215">
        <ele>287</ele>
        <time>2017-08-09T10:06:27Z</time>
      </trkpt>
      <trkpt lat="45.93914" lon="4.88215">
        <ele>289</ele>
        <time>2017-08-09T10:06:28Z</time>
      </trkpt>
      <trkpt lat="45.93908" lon="4.88215">
        <ele>289</ele>
        <time>2017-08-09T10:06:29Z</time>
      </trkpt>
      <trkpt lat="45.93903" lon="4.88215">
        <ele>289</ele>
        <time>2017-08-09T10:06:30Z</time>
      </trkpt>
      <trkpt lat="45.93898" lon="4.88215">
        <ele>289</ele>
        <time>2017-08-09T10:06:31Z</time>
      </trkpt>
      <trkpt lat="45.93893" lon="4.88215">
        <ele>289</ele>
        <time>2017-08-09T10:06:32Z</time>
      </trkpt>
      <trkpt lat="45.93888" lon="4.88215">
        <ele>289</ele>
        <time>2017-08-09T10:06:33Z</time>
      </trkpt>
      <trkpt lat="45.93883" lon="4.88215">
        <ele>289</ele>
        <time>2017-08-09T10:06:34Z</time>
      </trkpt>
      <trkpt lat="45.93878" lon="4.88215">
        <ele>289</ele>
        <time>2017-08-09T10:06:35Z</time>
      </trkpt>
      <trkpt lat="45.93869" lon="4.88214">
        <ele>289</ele>
        <time>2017-08-09T10:06:37Z</time>
      </trkpt>
      <trkpt lat="45.93865" lon="4.88214">
        <ele>289</ele>
        <time>2017-08-09T10:06:38Z</time>
      </trkpt>
      <trkpt lat="45.9386" lon="4.88214">
        <ele>289</ele>
        <time>2017-08-09T10:06:39Z</time>
      </trkpt>
      <trkpt lat="45.93855" lon="4.88214">
        <ele>289</ele>
        <time>2017-08-09T10:06:40Z</time>
      </trkpt>
      <trkpt lat="45.93851" lon="4.88215">
        <ele>289</ele>
        <time>2017-08-09T10:06:41Z</time>
      </trkpt>
      <trkpt lat="45.93846" lon="4.88215">
        <ele>289</ele>
        <time>2017-08-09T10:06:42Z</time>
      </trkpt>
      <trkpt lat="45.93841" lon="4.88215">
        <ele>289</ele>
        <time>2017-08-09T10:06:43Z</time>
      </trkpt>
      <trkpt lat="45.93837" lon="4.88215">
        <ele>289</ele>
        <time>2017-08-09T10:06:44Z</time>
      </trkpt>
      <trkpt lat="45.93831" lon="4.88215">
        <ele>288</ele>
        <time>2017-08-09T10:06:45Z</time>
      </trkpt>
      <trkpt lat="45.93827" lon="4.88214">
        <ele>288</ele>
        <time>2017-08-09T10:06:46Z</time>
      </trkpt>
      <trkpt lat="45.93822" lon="4.88215">
        <ele>288</ele>
        <time>2017-08-09T10:06:47Z</time>
      </trkpt>
      <trkpt lat="45.93817" lon="4.88214">
        <ele>288</ele>
        <time>2017-08-09T10:06:48Z</time>
      </trkpt>
      <trkpt lat="45.93812" lon="4.88214">
        <ele>288</ele>
        <time>2017-08-09T10:06:49Z</time>
      </trkpt>
      <trkpt lat="45.93808" lon="4.88214">
        <ele>288</ele>
        <time>2017-08-09T10:06:50Z</time>
      </trkpt>
      <trkpt lat="45.93799" lon="4.88214">
        <ele>288</ele>
        <time>2017-08-09T10:06:52Z</time>
      </trkpt>
      <trkpt lat="45.93795" lon="4.88214">
        <ele>287</ele>
        <time>2017-08-09T10:06:53Z</time>
      </trkpt>
      <trkpt lat="45.93786" lon="4.88213">
        <ele>287</ele>
        <time>2017-08-09T10:06:55Z</time>
      </trkpt>
      <trkpt lat="45.93782" lon="4.88213">
        <ele>287</ele>
        <time>2017-08-09T10:06:56Z</time>
      </trkpt>
      <trkpt lat="45.93777" lon="4.88212">
        <ele>287</ele>
        <time>2017-08-09T10:06:57Z</time>
      </trkpt>
      <trkpt lat="45.93773" lon="4.88212">
        <ele>287</ele>
        <time>2017-08-09T10:06:58Z</time>
      </trkpt>
      <trkpt lat="45.93768" lon="4.88212">
        <ele>287</ele>
        <time>2017-08-09T10:06:59Z</time>
      </trkpt>
      <trkpt lat="45.93763" lon="4.88212">
        <ele>287</ele>
        <time>2017-08-09T10:07:00Z</time>
      </trkpt>
      <trkpt lat="45.93758" lon="4.88212">
        <ele>287</ele>
        <time>2017-08-09T10:07:01Z</time>
      </trkpt>
      <trkpt lat="45.93753" lon="4.88212">
        <ele>287</ele>
        <time>2017-08-09T10:07:02Z</time>
      </trkpt>
      <trkpt lat="45.93748" lon="4.88212">
        <ele>286</ele>
        <time>2017-08-09T10:07:03Z</time>
      </trkpt>
      <trkpt lat="45.93743" lon="4.88212">
        <ele>286</ele>
        <time>2017-08-09T10:07:04Z</time>
      </trkpt>
      <trkpt lat="45.93735" lon="4.88212">
        <ele>286</ele>
        <time>2017-08-09T10:07:06Z</time>
      </trkpt>
      <trkpt lat="45.93731" lon="4.88212">
        <ele>286</ele>
        <time>2017-08-09T10:07:07Z</time>
      </trkpt>
      <trkpt lat="45.93723" lon="4.88212">
        <ele>285</ele>
        <time>2017-08-09T10:07:09Z</time>
      </trkpt>
      <trkpt lat="45.93718" lon="4.88212">
        <ele>285</ele>
        <time>2017-08-09T10:07:10Z</time>
      </trkpt>
      <trkpt lat="45.9371" lon="4.88212">
        <ele>285</ele>
        <time>2017-08-09T10:07:12Z</time>
      </trkpt>
      <trkpt lat="45.93705" lon="4.88213">
        <ele>285</ele>
        <time>2017-08-09T10:07:13Z</time>
      </trkpt>
      <trkpt lat="45.93697" lon="4.88213">
        <ele>285</ele>
        <time>2017-08-09T10:07:15Z</time>
      </trkpt>
      <trkpt lat="45.93692" lon="4.88213">
        <ele>285</ele>
        <time>2017-08-09T10:07:16Z</time>
      </trkpt>
      <trkpt lat="45.93687" lon="4.88213">
        <ele>285</ele>
        <time>2017-08-09T10:07:17Z</time>
      </trkpt>
      <trkpt lat="45.93682" lon="4.88213">
        <ele>285</ele>
        <time>2017-08-09T10:07:18Z</time>
      </trkpt>
      <trkpt lat="45.93677" lon="4.88212">
        <ele>285</ele>
        <time>2017-08-09T10:07:19Z</time>
      </trkpt>
      <trkpt lat="45.93672" lon="4.88212">
        <ele>285</ele>
        <time>2017-08-09T10:07:20Z</time>
      </trkpt>
      <trkpt lat="45.93667" lon="4.88212">
        <ele>285</ele>
        <time>2017-08-09T10:07:21Z</time>
      </trkpt>
      <trkpt lat="45.93662" lon="4.88212">
        <ele>285</ele>
        <time>2017-08-09T10:07:22Z</time>
      </trkpt>
      <trkpt lat="45.93657" lon="4.88212">
        <ele>285</ele>
        <time>2017-08-09T10:07:23Z</time>
      </trkpt>
      <trkpt lat="45.93652" lon="4.88212">
        <ele>285</ele>
        <time>2017-08-09T10:07:24Z</time>
      </trkpt>
      <trkpt lat="45.93643" lon="4.88212">
        <ele>285</ele>
        <time>2017-08-09T10:07:26Z</time>
      </trkpt>
      <trkpt lat="45.93639" lon="4.88212">
        <ele>285</ele>
        <time>2017-08-09T10:07:27Z</time>
      </trkpt>
      <trkpt lat="45.93634" lon="4.88212">
        <ele>285</ele>
        <time>2017-08-09T10:07:28Z</time>
      </trkpt>
      <trkpt lat="45.93629" lon="4.88212">
        <ele>285</ele>
        <time>2017-08-09T10:07:29Z</time>
      </trkpt>
      <trkpt lat="45.93624" lon="4.88212">
        <ele>285</ele>
        <time>2017-08-09T10:07:30Z</time>
      </trkpt>
      <trkpt lat="45.93619" lon="4.88212">
        <ele>285</ele>
        <time>2017-08-09T10:07:31Z</time>
      </trkpt>
      <trkpt lat="45.93614" lon="4.88212">
        <ele>285</ele>
        <time>2017-08-09T10:07:32Z</time>
      </trkpt>
      <trkpt lat="45.93609" lon="4.88212">
        <ele>285</ele>
        <time>2017-08-09T10:07:33Z</time>
      </trkpt>
      <trkpt lat="45.93604" lon="4.88212">
        <ele>285</ele>
        <time>2017-08-09T10:07:34Z</time>
      </trkpt>
      <trkpt lat="45.93598" lon="4.88212">
        <ele>285</ele>
        <time>2017-08-09T10:07:35Z</time>
      </trkpt>
      <trkpt lat="45.93594" lon="4.88212">
        <ele>285</ele>
        <time>2017-08-09T10:07:36Z</time>
      </trkpt>
      <trkpt lat="45.93589" lon="4.88212">
        <ele>286</ele>
        <time>2017-08-09T10:07:37Z</time>
      </trkpt>
      <trkpt lat="45.93584" lon="4.88211">
        <ele>286</ele>
        <time>2017-08-09T10:07:38Z</time>
      </trkpt>
      <trkpt lat="45.93579" lon="4.88211">
        <ele>287</ele>
        <time>2017-08-09T10:07:39Z</time>
      </trkpt>
      <trkpt lat="45.93573" lon="4.88211">
        <ele>287</ele>
        <time>2017-08-09T10:07:40Z</time>
      </trkpt>
      <trkpt lat="45.93568" lon="4.88211">
        <ele>287</ele>
        <time>2017-08-09T10:07:41Z</time>
      </trkpt>
      <trkpt lat="45.93563" lon="4.88211">
        <ele>287</ele>
        <time>2017-08-09T10:07:42Z</time>
      </trkpt>
      <trkpt lat="45.93558" lon="4.88211">
        <ele>287</ele>
        <time>2017-08-09T10:07:43Z</time>
      </trkpt>
      <trkpt lat="45.93552" lon="4.88212">
        <ele>287</ele>
        <time>2017-08-09T10:07:44Z</time>
      </trkpt>
      <trkpt lat="45.93547" lon="4.88212">
        <ele>287</ele>
        <time>2017-08-09T10:07:45Z</time>
      </trkpt>
      <trkpt lat="45.93542" lon="4.88212">
        <ele>287</ele>
        <time>2017-08-09T10:07:46Z</time>
      </trkpt>
      <trkpt lat="45.93538" lon="4.88211">
        <ele>287</ele>
        <time>2017-08-09T10:07:47Z</time>
      </trkpt>
      <trkpt lat="45.93533" lon="4.88212">
        <ele>287</ele>
        <time>2017-08-09T10:07:48Z</time>
      </trkpt>
      <trkpt lat="45.93529" lon="4.88212">
        <ele>287</ele>
        <time>2017-08-09T10:07:49Z</time>
      </trkpt>
      <trkpt lat="45.93524" lon="4.88212">
        <ele>288</ele>
        <time>2017-08-09T10:07:50Z</time>
      </trkpt>
      <trkpt lat="45.93519" lon="4.88212">
        <ele>288</ele>
        <time>2017-08-09T10:07:51Z</time>
      </trkpt>
      <trkpt lat="45.93514" lon="4.88212">
        <ele>288</ele>
        <time>2017-08-09T10:07:52Z</time>
      </trkpt>
      <trkpt lat="45.93509" lon="4.88211">
        <ele>288</ele>
        <time>2017-08-09T10:07:53Z</time>
      </trkpt>
      <trkpt lat="45.93504" lon="4.88208">
        <ele>288</ele>
        <time>2017-08-09T10:07:54Z</time>
      </trkpt>
      <trkpt lat="45.935" lon="4.88203">
        <ele>289</ele>
        <time>2017-08-09T10:07:55Z</time>
      </trkpt>
      <trkpt lat="45.93496" lon="4.88196">
        <ele>289</ele>
        <time>2017-08-09T10:07:56Z</time>
      </trkpt>
      <trkpt lat="45.93494" lon="4.88189">
        <ele>288</ele>
        <time>2017-08-09T10:07:57Z</time>
      </trkpt>
      <trkpt lat="45.93492" lon="4.88181">
        <ele>288</ele>
        <time>2017-08-09T10:07:58Z</time>
      </trkpt>
      <trkpt lat="45.93492" lon="4.88173">
        <ele>288</ele>
        <time>2017-08-09T10:07:59Z</time>
      </trkpt>
      <trkpt lat="45.93493" lon="4.88166">
        <ele>288</ele>
        <time>2017-08-09T10:08:00Z</time>
      </trkpt>
      <trkpt lat="45.93493" lon="4.88159">
        <ele>288</ele>
        <time>2017-08-09T10:08:01Z</time>
      </trkpt>
      <trkpt lat="45.93493" lon="4.88151">
        <ele>288</ele>
        <time>2017-08-09T10:08:02Z</time>
      </trkpt>
      <trkpt lat="45.93494" lon="4.88143">
        <ele>288</ele>
        <time>2017-08-09T10:08:03Z</time>
      </trkpt>
      <trkpt lat="45.93496" lon="4.88135">
        <ele>288</ele>
        <time>2017-08-09T10:08:04Z</time>
      </trkpt>
      <trkpt lat="45.93497" lon="4.88128">
        <ele>288</ele>
        <time>2017-08-09T10:08:05Z</time>
      </trkpt>
      <trkpt lat="45.93498" lon="4.8812">
        <ele>288</ele>
        <time>2017-08-09T10:08:06Z</time>
      </trkpt>
      <trkpt lat="45.93499" lon="4.88112">
        <ele>288</ele>
        <time>2017-08-09T10:08:07Z</time>
      </trkpt>
      <trkpt lat="45.93498" lon="4.88103">
        <ele>288</ele>
        <time>2017-08-09T10:08:08Z</time>
      </trkpt>
      <trkpt lat="45.935" lon="4.88095">
        <ele>287</ele>
        <time>2017-08-09T10:08:09Z</time>
      </trkpt>
      <trkpt lat="45.93501" lon="4.88087">
        <ele>287</ele>
        <time>2017-08-09T10:08:10Z</time>
      </trkpt>
      <trkpt lat="45.93503" lon="4.88079">
        <ele>287</ele>
        <time>2017-08-09T10:08:11Z</time>
      </trkpt>
      <trkpt lat="45.93504" lon="4.88071">
        <ele>286</ele>
        <time>2017-08-09T10:08:12Z</time>
      </trkpt>
      <trkpt lat="45.93505" lon="4.88063">
        <ele>286</ele>
        <time>2017-08-09T10:08:13Z</time>
      </trkpt>
      <trkpt lat="45.93507" lon="4.88055">
        <ele>286</ele>
        <time>2017-08-09T10:08:14Z</time>
      </trkpt>
      <trkpt lat="45.93508" lon="4.88047">
        <ele>286</ele>
        <time>2017-08-09T10:08:15Z</time>
      </trkpt>
      <trkpt lat="45.93509" lon="4.88039">
        <ele>286</ele>
        <time>2017-08-09T10:08:16Z</time>
      </trkpt>
      <trkpt lat="45.9351" lon="4.88031">
        <ele>286</ele>
        <time>2017-08-09T10:08:17Z</time>
      </trkpt>
      <trkpt lat="45.93511" lon="4.88024">
        <ele>286</ele>
        <time>2017-08-09T10:08:18Z</time>
      </trkpt>
      <trkpt lat="45.93511" lon="4.88017">
        <ele>286</ele>
        <time>2017-08-09T10:08:19Z</time>
      </trkpt>
      <trkpt lat="45.93512" lon="4.88009">
        <ele>286</ele>
        <time>2017-08-09T10:08:20Z</time>
      </trkpt>
      <trkpt lat="45.93512" lon="4.88001">
        <ele>286</ele>
        <time>2017-08-09T10:08:21Z</time>
      </trkpt>
      <trkpt lat="45.93513" lon="4.87993">
        <ele>285</ele>
        <time>2017-08-09T10:08:22Z</time>
      </trkpt>
      <trkpt lat="45.93514" lon="4.87984">
        <ele>285</ele>
        <time>2017-08-09T10:08:23Z</time>
      </trkpt>
      <trkpt lat="45.93515" lon="4.87976">
        <ele>284</ele>
        <time>2017-08-09T10:08:24Z</time>
      </trkpt>
      <trkpt lat="45.93516" lon="4.87968">
        <ele>284</ele>
        <time>2017-08-09T10:08:25Z</time>
      </trkpt>
      <trkpt lat="45.93517" lon="4.87961">
        <ele>284</ele>
        <time>2017-08-09T10:08:26Z</time>
      </trkpt>
      <trkpt lat="45.93518" lon="4.87954">
        <ele>284</ele>
        <time>2017-08-09T10:08:27Z</time>
      </trkpt>
      <trkpt lat="45.93519" lon="4.87946">
        <ele>284</ele>
        <time>2017-08-09T10:08:28Z</time>
      </trkpt>
      <trkpt lat="45.9352" lon="4.87939">
        <ele>284</ele>
        <time>2017-08-09T10:08:29Z</time>
      </trkpt>
      <trkpt lat="45.93521" lon="4.87932">
        <ele>284</ele>
        <time>2017-08-09T10:08:30Z</time>
      </trkpt>
      <trkpt lat="45.93521" lon="4.87925">
        <ele>284</ele>
        <time>2017-08-09T10:08:31Z</time>
      </trkpt>
      <trkpt lat="45.93522" lon="4.87918">
        <ele>284</ele>
        <time>2017-08-09T10:08:32Z</time>
      </trkpt>
      <trkpt lat="45.93522" lon="4.87911">
        <ele>283</ele>
        <time>2017-08-09T10:08:33Z</time>
      </trkpt>
      <trkpt lat="45.93523" lon="4.87904">
        <ele>283</ele>
        <time>2017-08-09T10:08:34Z</time>
      </trkpt>
      <trkpt lat="45.93524" lon="4.87896">
        <ele>283</ele>
        <time>2017-08-09T10:08:35Z</time>
      </trkpt>
      <trkpt lat="45.93525" lon="4.87888">
        <ele>283</ele>
        <time>2017-08-09T10:08:36Z</time>
      </trkpt>
      <trkpt lat="45.93526" lon="4.87879">
        <ele>283</ele>
        <time>2017-08-09T10:08:37Z</time>
      </trkpt>
      <trkpt lat="45.93527" lon="4.8787">
        <ele>283</ele>
        <time>2017-08-09T10:08:38Z</time>
      </trkpt>
      <trkpt lat="45.93528" lon="4.87861">
        <ele>283</ele>
        <time>2017-08-09T10:08:39Z</time>
      </trkpt>
      <trkpt lat="45.93529" lon="4.87852">
        <ele>283</ele>
        <time>2017-08-09T10:08:40Z</time>
      </trkpt>
      <trkpt lat="45.9353" lon="4.87844">
        <ele>283</ele>
        <time>2017-08-09T10:08:41Z</time>
      </trkpt>
      <trkpt lat="45.93531" lon="4.87836">
        <ele>283</ele>
        <time>2017-08-09T10:08:42Z</time>
      </trkpt>
      <trkpt lat="45.93532" lon="4.87828">
        <ele>284</ele>
        <time>2017-08-09T10:08:43Z</time>
      </trkpt>
      <trkpt lat="45.93533" lon="4.8782">
        <ele>284</ele>
        <time>2017-08-09T10:08:44Z</time>
      </trkpt>
      <trkpt lat="45.93534" lon="4.87813">
        <ele>284</ele>
        <time>2017-08-09T10:08:45Z</time>
      </trkpt>
      <trkpt lat="45.93535" lon="4.87806">
        <ele>284</ele>
        <time>2017-08-09T10:08:46Z</time>
      </trkpt>
      <trkpt lat="45.93536" lon="4.87799">
        <ele>284</ele>
        <time>2017-08-09T10:08:47Z</time>
      </trkpt>
      <trkpt lat="45.93537" lon="4.87792">
        <ele>284</ele>
        <time>2017-08-09T10:08:48Z</time>
      </trkpt>
      <trkpt lat="45.93539" lon="4.87785">
        <ele>284</ele>
        <time>2017-08-09T10:08:49Z</time>
      </trkpt>
      <trkpt lat="45.93541" lon="4.87778">
        <ele>284</ele>
        <time>2017-08-09T10:08:50Z</time>
      </trkpt>
      <trkpt lat="45.93542" lon="4.8777">
        <ele>284</ele>
        <time>2017-08-09T10:08:51Z</time>
      </trkpt>
      <trkpt lat="45.93544" lon="4.87762">
        <ele>284</ele>
        <time>2017-08-09T10:08:52Z</time>
      </trkpt>
      <trkpt lat="45.93546" lon="4.87754">
        <ele>284</ele>
        <time>2017-08-09T10:08:53Z</time>
      </trkpt>
      <trkpt lat="45.93547" lon="4.87746">
        <ele>284</ele>
        <time>2017-08-09T10:08:54Z</time>
      </trkpt>
      <trkpt lat="45.9355" lon="4.87738">
        <ele>284</ele>
        <time>2017-08-09T10:08:55Z</time>
      </trkpt>
      <trkpt lat="45.93552" lon="4.87731">
        <ele>284</ele>
        <time>2017-08-09T10:08:56Z</time>
      </trkpt>
      <trkpt lat="45.93554" lon="4.87724">
        <ele>284</ele>
        <time>2017-08-09T10:08:57Z</time>
      </trkpt>
      <trkpt lat="45.93556" lon="4.87717">
        <ele>284</ele>
        <time>2017-08-09T10:08:58Z</time>
      </trkpt>
      <trkpt lat="45.93558" lon="4.87709">
        <ele>284</ele>
        <time>2017-08-09T10:08:59Z</time>
      </trkpt>
      <trkpt lat="45.9356" lon="4.87702">
        <ele>284</ele>
        <time>2017-08-09T10:09:00Z</time>
      </trkpt>
      <trkpt lat="45.93561" lon="4.87696">
        <ele>284</ele>
        <time>2017-08-09T10:09:01Z</time>
      </trkpt>
      <trkpt lat="45.93563" lon="4.87689">
        <ele>284</ele>
        <time>2017-08-09T10:09:02Z</time>
      </trkpt>
      <trkpt lat="45.93564" lon="4.87682">
        <ele>284</ele>
        <time>2017-08-09T10:09:03Z</time>
      </trkpt>
      <trkpt lat="45.93566" lon="4.87675">
        <ele>284</ele>
        <time>2017-08-09T10:09:04Z</time>
      </trkpt>
      <trkpt lat="45.93568" lon="4.87667">
        <ele>284</ele>
        <time>2017-08-09T10:09:05Z</time>
      </trkpt>
      <trkpt lat="45.9357" lon="4.8766">
        <ele>285</ele>
        <time>2017-08-09T10:09:06Z</time>
      </trkpt>
      <trkpt lat="45.93572" lon="4.87651">
        <ele>285</ele>
        <time>2017-08-09T10:09:07Z</time>
      </trkpt>
      <trkpt lat="45.93575" lon="4.87644">
        <ele>285</ele>
        <time>2017-08-09T10:09:08Z</time>
      </trkpt>
      <trkpt lat="45.93578" lon="4.87636">
        <ele>285</ele>
        <time>2017-08-09T10:09:09Z</time>
      </trkpt>
      <trkpt lat="45.93581" lon="4.87629">
        <ele>285</ele>
        <time>2017-08-09T10:09:10Z</time>
      </trkpt>
      <trkpt lat="45.93584" lon="4.87622">
        <ele>285</ele>
        <time>2017-08-09T10:09:11Z</time>
      </trkpt>
      <trkpt lat="45.93586" lon="4.87615">
        <ele>285</ele>
        <time>2017-08-09T10:09:12Z</time>
      </trkpt>
      <trkpt lat="45.93589" lon="4.87608">
        <ele>285</ele>
        <time>2017-08-09T10:09:13Z</time>
      </trkpt>
      <trkpt lat="45.93592" lon="4.87602">
        <ele>285</ele>
        <time>2017-08-09T10:09:14Z</time>
      </trkpt>
      <trkpt lat="45.93595" lon="4.87596">
        <ele>285</ele>
        <time>2017-08-09T10:09:15Z</time>
      </trkpt>
      <trkpt lat="45.93598" lon="4.87591">
        <ele>285</ele>
        <time>2017-08-09T10:09:16Z</time>
      </trkpt>
      <trkpt lat="45.936" lon="4.87585">
        <ele>285</ele>
        <time>2017-08-09T10:09:17Z</time>
      </trkpt>
      <trkpt lat="45.93603" lon="4.8758">
        <ele>286</ele>
        <time>2017-08-09T10:09:18Z</time>
      </trkpt>
      <trkpt lat="45.93606" lon="4.87574">
        <ele>286</ele>
        <time>2017-08-09T10:09:19Z</time>
      </trkpt>
      <trkpt lat="45.93609" lon="4.87568">
        <ele>286</ele>
        <time>2017-08-09T10:09:20Z</time>
      </trkpt>
      <trkpt lat="45.93612" lon="4.87562">
        <ele>286</ele>
        <time>2017-08-09T10:09:21Z</time>
      </trkpt>
      <trkpt lat="45.93615" lon="4.87557">
        <ele>286</ele>
        <time>2017-08-09T10:09:22Z</time>
      </trkpt>
      <trkpt lat="45.93619" lon="4.87551">
        <ele>286</ele>
        <time>2017-08-09T10:09:23Z</time>
      </trkpt>
      <trkpt lat="45.93623" lon="4.87544">
        <ele>286</ele>
        <time>2017-08-09T10:09:24Z</time>
      </trkpt>
      <trkpt lat="45.93627" lon="4.87538">
        <ele>285</ele>
        <time>2017-08-09T10:09:25Z</time>
      </trkpt>
      <trkpt lat="45.9363" lon="4.87531">
        <ele>285</ele>
        <time>2017-08-09T10:09:26Z</time>
      </trkpt>
      <trkpt lat="45.93634" lon="4.87525">
        <ele>285</ele>
        <time>2017-08-09T10:09:27Z</time>
      </trkpt>
      <trkpt lat="45.93637" lon="4.87519">
        <ele>285</ele>
        <time>2017-08-09T10:09:28Z</time>
      </trkpt>
      <trkpt lat="45.93641" lon="4.87513">
        <ele>285</ele>
        <time>2017-08-09T10:09:29Z</time>
      </trkpt>
      <trkpt lat="45.93644" lon="4.87508">
        <ele>285</ele>
        <time>2017-08-09T10:09:30Z</time>
      </trkpt>
      <trkpt lat="45.93647" lon="4.87502">
        <ele>285</ele>
        <time>2017-08-09T10:09:31Z</time>
      </trkpt>
      <trkpt lat="45.9365" lon="4.87496">
        <ele>285</ele>
        <time>2017-08-09T10:09:32Z</time>
      </trkpt>
      <trkpt lat="45.93654" lon="4.87489">
        <ele>285</ele>
        <time>2017-08-09T10:09:33Z</time>
      </trkpt>
      <trkpt lat="45.93658" lon="4.87483">
        <ele>285</ele>
        <time>2017-08-09T10:09:34Z</time>
      </trkpt>
      <trkpt lat="45.93662" lon="4.87476">
        <ele>285</ele>
        <time>2017-08-09T10:09:35Z</time>
      </trkpt>
      <trkpt lat="45.93666" lon="4.87469">
        <ele>285</ele>
        <time>2017-08-09T10:09:36Z</time>
      </trkpt>
      <trkpt lat="45.9367" lon="4.87461">
        <ele>284</ele>
        <time>2017-08-09T10:09:37Z</time>
      </trkpt>
      <trkpt lat="45.93673" lon="4.87454">
        <ele>284</ele>
        <time>2017-08-09T10:09:38Z</time>
      </trkpt>
      <trkpt lat="45.93677" lon="4.87447">
        <ele>284</ele>
        <time>2017-08-09T10:09:39Z</time>
      </trkpt>
      <trkpt lat="45.93681" lon="4.87441">
        <ele>284</ele>
        <time>2017-08-09T10:09:40Z</time>
      </trkpt>
      <trkpt lat="45.93684" lon="4.87435">
        <ele>284</ele>
        <time>2017-08-09T10:09:41Z</time>
      </trkpt>
      <trkpt lat="45.93687" lon="4.87429">
        <ele>284</ele>
        <time>2017-08-09T10:09:42Z</time>
      </trkpt>
      <trkpt lat="45.9369" lon="4.87423">
        <ele>284</ele>
        <time>2017-08-09T10:09:43Z</time>
      </trkpt>
      <trkpt lat="45.93692" lon="4.87416">
        <ele>284</ele>
        <time>2017-08-09T10:09:44Z</time>
      </trkpt>
      <trkpt lat="45.93695" lon="4.8741">
        <ele>284</ele>
        <time>2017-08-09T10:09:45Z</time>
      </trkpt>
      <trkpt lat="45.93697" lon="4.87404">
        <ele>284</ele>
        <time>2017-08-09T10:09:46Z</time>
      </trkpt>
      <trkpt lat="45.93699" lon="4.87398">
        <ele>284</ele>
        <time>2017-08-09T10:09:47Z</time>
      </trkpt>
      <trkpt lat="45.93702" lon="4.87392">
        <ele>284</ele>
        <time>2017-08-09T10:09:48Z</time>
      </trkpt>
      <trkpt lat="45.93704" lon="4.87385">
        <ele>284</ele>
        <time>2017-08-09T10:09:49Z</time>
      </trkpt>
      <trkpt lat="45.93706" lon="4.87379">
        <ele>284</ele>
        <time>2017-08-09T10:09:50Z</time>
      </trkpt>
      <trkpt lat="45.93708" lon="4.87371">
        <ele>284</ele>
        <time>2017-08-09T10:09:51Z</time>
      </trkpt>
      <trkpt lat="45.9371" lon="4.87364">
        <ele>284</ele>
        <time>2017-08-09T10:09:52Z</time>
      </trkpt>
      <trkpt lat="45.93712" lon="4.87356">
        <ele>284</ele>
        <time>2017-08-09T10:09:53Z</time>
      </trkpt>
      <trkpt lat="45.93714" lon="4.87348">
        <ele>284</ele>
        <time>2017-08-09T10:09:54Z</time>
      </trkpt>
      <trkpt lat="45.93716" lon="4.87339">
        <ele>284</ele>
        <time>2017-08-09T10:09:55Z</time>
      </trkpt>
      <trkpt lat="45.93718" lon="4.87331">
        <ele>285</ele>
        <time>2017-08-09T10:09:56Z</time>
      </trkpt>
      <trkpt lat="45.9372" lon="4.87323">
        <ele>285</ele>
        <time>2017-08-09T10:09:57Z</time>
      </trkpt>
      <trkpt lat="45.93722" lon="4.87316">
        <ele>285</ele>
        <time>2017-08-09T10:09:58Z</time>
      </trkpt>
      <trkpt lat="45.93724" lon="4.87308">
        <ele>285</ele>
        <time>2017-08-09T10:09:59Z</time>
      </trkpt>
      <trkpt lat="45.93726" lon="4.87301">
        <ele>285</ele>
        <time>2017-08-09T10:10:00Z</time>
      </trkpt>
      <trkpt lat="45.93728" lon="4.87293">
        <ele>285</ele>
        <time>2017-08-09T10:10:01Z</time>
      </trkpt>
      <trkpt lat="45.93729" lon="4.87286">
        <ele>285</ele>
        <time>2017-08-09T10:10:02Z</time>
      </trkpt>
      <trkpt lat="45.93731" lon="4.87278">
        <ele>285</ele>
        <time>2017-08-09T10:10:03Z</time>
      </trkpt>
      <trkpt lat="45.93732" lon="4.87271">
        <ele>285</ele>
        <time>2017-08-09T10:10:04Z</time>
      </trkpt>
      <trkpt lat="45.93733" lon="4.87264">
        <ele>285</ele>
        <time>2017-08-09T10:10:05Z</time>
      </trkpt>
      <trkpt lat="45.93734" lon="4.87257">
        <ele>285</ele>
        <time>2017-08-09T10:10:06Z</time>
      </trkpt>
      <trkpt lat="45.93735" lon="4.8725">
        <ele>285</ele>
        <time>2017-08-09T10:10:07Z</time>
      </trkpt>
      <trkpt lat="45.93736" lon="4.87243">
        <ele>285</ele>
        <time>2017-08-09T10:10:08Z</time>
      </trkpt>
      <trkpt lat="45.93737" lon="4.87235">
        <ele>285</ele>
        <time>2017-08-09T10:10:09Z</time>
      </trkpt>
      <trkpt lat="45.93739" lon="4.87228">
        <ele>285</ele>
        <time>2017-08-09T10:10:10Z</time>
      </trkpt>
      <trkpt lat="45.9374" lon="4.87221">
        <ele>285</ele>
        <time>2017-08-09T10:10:11Z</time>
      </trkpt>
      <trkpt lat="45.93741" lon="4.87213">
        <ele>285</ele>
        <time>2017-08-09T10:10:12Z</time>
      </trkpt>
      <trkpt lat="45.93741" lon="4.87205">
        <ele>285</ele>
        <time>2017-08-09T10:10:13Z</time>
      </trkpt>
      <trkpt lat="45.93743" lon="4.87197">
        <ele>285</ele>
        <time>2017-08-09T10:10:14Z</time>
      </trkpt>
      <trkpt lat="45.93744" lon="4.87188">
        <ele>285</ele>
        <time>2017-08-09T10:10:15Z</time>
      </trkpt>
      <trkpt lat="45.93745" lon="4.87179">
        <ele>285</ele>
        <time>2017-08-09T10:10:16Z</time>
      </trkpt>
      <trkpt lat="45.93747" lon="4.87171">
        <ele>285</ele>
        <time>2017-08-09T10:10:17Z</time>
      </trkpt>
      <trkpt lat="45.93748" lon="4.87163">
        <ele>285</ele>
        <time>2017-08-09T10:10:18Z</time>
      </trkpt>
      <trkpt lat="45.93749" lon="4.87155">
        <ele>285</ele>
        <time>2017-08-09T10:10:19Z</time>
      </trkpt>
      <trkpt lat="45.9375" lon="4.87148">
        <ele>285</ele>
        <time>2017-08-09T10:10:20Z</time>
      </trkpt>
      <trkpt lat="45.93751" lon="4.87141">
        <ele>284</ele>
        <time>2017-08-09T10:10:21Z</time>
      </trkpt>
      <trkpt lat="45.93752" lon="4.87134">
        <ele>284</ele>
        <time>2017-08-09T10:10:22Z</time>
      </trkpt>
      <trkpt lat="45.93753" lon="4.87128">
        <ele>284</ele>
        <time>2017-08-09T10:10:23Z</time>
      </trkpt>
      <trkpt lat="45.93754" lon="4.87121">
        <ele>284</ele>
        <time>2017-08-09T10:10:24Z</time>
      </trkpt>
      <trkpt lat="45.93755" lon="4.87114">
        <ele>284</ele>
        <time>2017-08-09T10:10:25Z</time>
      </trkpt>
      <trkpt lat="45.93756" lon="4.87106">
        <ele>284</ele>
        <time>2017-08-09T10:10:26Z</time>
      </trkpt>
      <trkpt lat="45.93757" lon="4.87099">
        <ele>284</ele>
        <time>2017-08-09T10:10:27Z</time>
      </trkpt>
      <trkpt lat="45.93758" lon="4.87091">
        <ele>284</ele>
        <time>2017-08-09T10:10:28Z</time>
      </trkpt>
      <trkpt lat="45.93759" lon="4.87082">
        <ele>284</ele>
        <time>2017-08-09T10:10:29Z</time>
      </trkpt>
      <trkpt lat="45.9376" lon="4.87074">
        <ele>284</ele>
        <time>2017-08-09T10:10:30Z</time>
      </trkpt>
      <trkpt lat="45.93761" lon="4.87066">
        <ele>284</ele>
        <time>2017-08-09T10:10:31Z</time>
      </trkpt>
      <trkpt lat="45.93762" lon="4.87058">
        <ele>284</ele>
        <time>2017-08-09T10:10:32Z</time>
      </trkpt>
      <trkpt lat="45.93763" lon="4.87049">
        <ele>284</ele>
        <time>2017-08-09T10:10:33Z</time>
      </trkpt>
      <trkpt lat="45.93765" lon="4.8704">
        <ele>284</ele>
        <time>2017-08-09T10:10:34Z</time>
      </trkpt>
      <trkpt lat="45.93766" lon="4.87032">
        <ele>284</ele>
        <time>2017-08-09T10:10:35Z</time>
      </trkpt>
      <trkpt lat="45.93767" lon="4.87023">
        <ele>284</ele>
        <time>2017-08-09T10:10:36Z</time>
      </trkpt>
      <trkpt lat="45.93768" lon="4.87014">
        <ele>284</ele>
        <time>2017-08-09T10:10:37Z</time>
      </trkpt>
      <trkpt lat="45.9377" lon="4.87006">
        <ele>284</ele>
        <time>2017-08-09T10:10:38Z</time>
      </trkpt>
      <trkpt lat="45.93771" lon="4.86997">
        <ele>285</ele>
        <time>2017-08-09T10:10:39Z</time>
      </trkpt>
      <trkpt lat="45.93772" lon="4.8699">
        <ele>285</ele>
        <time>2017-08-09T10:10:40Z</time>
      </trkpt>
      <trkpt lat="45.93773" lon="4.86982">
        <ele>285</ele>
        <time>2017-08-09T10:10:41Z</time>
      </trkpt>
      <trkpt lat="45.93774" lon="4.86974">
        <ele>285</ele>
        <time>2017-08-09T10:10:42Z</time>
      </trkpt>
      <trkpt lat="45.93775" lon="4.86967">
        <ele>285</ele>
        <time>2017-08-09T10:10:43Z</time>
      </trkpt>
      <trkpt lat="45.93776" lon="4.86959">
        <ele>285</ele>
        <time>2017-08-09T10:10:44Z</time>
      </trkpt>
      <trkpt lat="45.93778" lon="4.86951">
        <ele>285</ele>
        <time>2017-08-09T10:10:45Z</time>
      </trkpt>
      <trkpt lat="45.93779" lon="4.86943">
        <ele>285</ele>
        <time>2017-08-09T10:10:46Z</time>
      </trkpt>
      <trkpt lat="45.9378" lon="4.86936">
        <ele>285</ele>
        <time>2017-08-09T10:10:47Z</time>
      </trkpt>
      <trkpt lat="45.93781" lon="4.86928">
        <ele>285</ele>
        <time>2017-08-09T10:10:48Z</time>
      </trkpt>
      <trkpt lat="45.93782" lon="4.86921">
        <ele>285</ele>
        <time>2017-08-09T10:10:49Z</time>
      </trkpt>
      <trkpt lat="45.93784" lon="4.86912">
        <ele>285</ele>
        <time>2017-08-09T10:10:50Z</time>
      </trkpt>
      <trkpt lat="45.93785" lon="4.86904">
        <ele>286</ele>
        <time>2017-08-09T10:10:51Z</time>
      </trkpt>
      <trkpt lat="45.93786" lon="4.86896">
        <ele>286</ele>
        <time>2017-08-09T10:10:52Z</time>
      </trkpt>
      <trkpt lat="45.93787" lon="4.86889">
        <ele>286</ele>
        <time>2017-08-09T10:10:53Z</time>
      </trkpt>
      <trkpt lat="45.93788" lon="4.86881">
        <ele>286</ele>
        <time>2017-08-09T10:10:54Z</time>
      </trkpt>
      <trkpt lat="45.93789" lon="4.86874">
        <ele>286</ele>
        <time>2017-08-09T10:10:55Z</time>
      </trkpt>
      <trkpt lat="45.9379" lon="4.86867">
        <ele>286</ele>
        <time>2017-08-09T10:10:56Z</time>
      </trkpt>
      <trkpt lat="45.93791" lon="4.86861">
        <ele>286</ele>
        <time>2017-08-09T10:10:57Z</time>
      </trkpt>
      <trkpt lat="45.93792" lon="4.86854">
        <ele>286</ele>
        <time>2017-08-09T10:10:58Z</time>
      </trkpt>
      <trkpt lat="45.93793" lon="4.86848">
        <ele>286</ele>
        <time>2017-08-09T10:10:59Z</time>
      </trkpt>
      <trkpt lat="45.93794" lon="4.86841">
        <ele>286</ele>
        <time>2017-08-09T10:11:00Z</time>
      </trkpt>
      <trkpt lat="45.93795" lon="4.86834">
        <ele>286</ele>
        <time>2017-08-09T10:11:01Z</time>
      </trkpt>
      <trkpt lat="45.93796" lon="4.86828">
        <ele>286</ele>
        <time>2017-08-09T10:11:02Z</time>
      </trkpt>
      <trkpt lat="45.93797" lon="4.86822">
        <ele>286</ele>
        <time>2017-08-09T10:11:03Z</time>
      </trkpt>
      <trkpt lat="45.93798" lon="4.8681">
        <ele>286</ele>
        <time>2017-08-09T10:11:05Z</time>
      </trkpt>
      <trkpt lat="45.93799" lon="4.86804">
        <ele>286</ele>
        <time>2017-08-09T10:11:06Z</time>
      </trkpt>
      <trkpt lat="45.938" lon="4.86793">
        <ele>286</ele>
        <time>2017-08-09T10:11:08Z</time>
      </trkpt>
      <trkpt lat="45.93801" lon="4.86788">
        <ele>286</ele>
        <time>2017-08-09T10:11:09Z</time>
      </trkpt>
      <trkpt lat="45.93803" lon="4.86777">
        <ele>286</ele>
        <time>2017-08-09T10:11:11Z</time>
      </trkpt>
      <trkpt lat="45.93803" lon="4.86772">
        <ele>286</ele>
        <time>2017-08-09T10:11:12Z</time>
      </trkpt>
      <trkpt lat="45.93806" lon="4.86762">
        <ele>286</ele>
        <time>2017-08-09T10:11:14Z</time>
      </trkpt>
      <trkpt lat="45.93806" lon="4.86756">
        <ele>286</ele>
        <time>2017-08-09T10:11:15Z</time>
      </trkpt>
      <trkpt lat="45.93807" lon="4.86749">
        <ele>286</ele>
        <time>2017-08-09T10:11:16Z</time>
      </trkpt>
      <trkpt lat="45.93808" lon="4.86743">
        <ele>286</ele>
        <time>2017-08-09T10:11:17Z</time>
      </trkpt>
      <trkpt lat="45.93809" lon="4.86736">
        <ele>286</ele>
        <time>2017-08-09T10:11:18Z</time>
      </trkpt>
      <trkpt lat="45.9381" lon="4.86729">
        <ele>287</ele>
        <time>2017-08-09T10:11:19Z</time>
      </trkpt>
      <trkpt lat="45.93811" lon="4.86717">
        <ele>287</ele>
        <time>2017-08-09T10:11:21Z</time>
      </trkpt>
      <trkpt lat="45.93812" lon="4.8671">
        <ele>287</ele>
        <time>2017-08-09T10:11:22Z</time>
      </trkpt>
      <trkpt lat="45.93813" lon="4.86704">
        <ele>287</ele>
        <time>2017-08-09T10:11:23Z</time>
      </trkpt>
      <trkpt lat="45.93815" lon="4.86697">
        <ele>287</ele>
        <time>2017-08-09T10:11:24Z</time>
      </trkpt>
      <trkpt lat="45.93816" lon="4.86685">
        <ele>287</ele>
        <time>2017-08-09T10:11:26Z</time>
      </trkpt>
      <trkpt lat="45.93817" lon="4.86678">
        <ele>287</ele>
        <time>2017-08-09T10:11:27Z</time>
      </trkpt>
      <trkpt lat="45.93818" lon="4.86672">
        <ele>287</ele>
        <time>2017-08-09T10:11:28Z</time>
      </trkpt>
      <trkpt lat="45.93819" lon="4.86665">
        <ele>288</ele>
        <time>2017-08-09T10:11:29Z</time>
      </trkpt>
      <trkpt lat="45.9382" lon="4.86658">
        <ele>288</ele>
        <time>2017-08-09T10:11:30Z</time>
      </trkpt>
      <trkpt lat="45.93821" lon="4.86651">
        <ele>288</ele>
        <time>2017-08-09T10:11:31Z</time>
      </trkpt>
      <trkpt lat="45.93821" lon="4.86644">
        <ele>288</ele>
        <time>2017-08-09T10:11:32Z</time>
      </trkpt>
      <trkpt lat="45.93823" lon="4.86637">
        <ele>288</ele>
        <time>2017-08-09T10:11:33Z</time>
      </trkpt>
      <trkpt lat="45.93824" lon="4.8663">
        <ele>288</ele>
        <time>2017-08-09T10:11:34Z</time>
      </trkpt>
      <trkpt lat="45.93825" lon="4.86622">
        <ele>288</ele>
        <time>2017-08-09T10:11:35Z</time>
      </trkpt>
      <trkpt lat="45.93827" lon="4.86615">
        <ele>288</ele>
        <time>2017-08-09T10:11:36Z</time>
      </trkpt>
      <trkpt lat="45.93828" lon="4.86607">
        <ele>288</ele>
        <time>2017-08-09T10:11:37Z</time>
      </trkpt>
      <trkpt lat="45.93829" lon="4.86598">
        <ele>288</ele>
        <time>2017-08-09T10:11:38Z</time>
      </trkpt>
      <trkpt lat="45.93831" lon="4.8659">
        <ele>288</ele>
        <time>2017-08-09T10:11:39Z</time>
      </trkpt>
      <trkpt lat="45.93832" lon="4.86581">
        <ele>288</ele>
        <time>2017-08-09T10:11:40Z</time>
      </trkpt>
      <trkpt lat="45.93833" lon="4.86572">
        <ele>289</ele>
        <time>2017-08-09T10:11:41Z</time>
      </trkpt>
      <trkpt lat="45.93834" lon="4.86563">
        <ele>288</ele>
        <time>2017-08-09T10:11:42Z</time>
      </trkpt>
      <trkpt lat="45.93836" lon="4.86553">
        <ele>288</ele>
        <time>2017-08-09T10:11:43Z</time>
      </trkpt>
      <trkpt lat="45.93838" lon="4.86544">
        <ele>288</ele>
        <time>2017-08-09T10:11:44Z</time>
      </trkpt>
      <trkpt lat="45.93839" lon="4.86535">
        <ele>288</ele>
        <time>2017-08-09T10:11:45Z</time>
      </trkpt>
      <trkpt lat="45.9384" lon="4.86526">
        <ele>288</ele>
        <time>2017-08-09T10:11:46Z</time>
      </trkpt>
      <trkpt lat="45.93841" lon="4.86517">
        <ele>288</ele>
        <time>2017-08-09T10:11:47Z</time>
      </trkpt>
      <trkpt lat="45.93842" lon="4.86508">
        <ele>288</ele>
        <time>2017-08-09T10:11:48Z</time>
      </trkpt>
      <trkpt lat="45.93844" lon="4.86499">
        <ele>288</ele>
        <time>2017-08-09T10:11:49Z</time>
      </trkpt>
      <trkpt lat="45.93845" lon="4.8649">
        <ele>288</ele>
        <time>2017-08-09T10:11:50Z</time>
      </trkpt>
      <trkpt lat="45.93846" lon="4.86481">
        <ele>288</ele>
        <time>2017-08-09T10:11:51Z</time>
      </trkpt>
      <trkpt lat="45.93847" lon="4.86473">
        <ele>288</ele>
        <time>2017-08-09T10:11:52Z</time>
      </trkpt>
      <trkpt lat="45.93848" lon="4.86465">
        <ele>288</ele>
        <time>2017-08-09T10:11:53Z</time>
      </trkpt>
      <trkpt lat="45.93849" lon="4.86457">
        <ele>288</ele>
        <time>2017-08-09T10:11:54Z</time>
      </trkpt>
      <trkpt lat="45.9385" lon="4.8645">
        <ele>288</ele>
        <time>2017-08-09T10:11:55Z</time>
      </trkpt>
      <trkpt lat="45.93851" lon="4.86442">
        <ele>288</ele>
        <time>2017-08-09T10:11:56Z</time>
      </trkpt>
      <trkpt lat="45.93852" lon="4.86435">
        <ele>288</ele>
        <time>2017-08-09T10:11:57Z</time>
      </trkpt>
      <trkpt lat="45.93853" lon="4.86427">
        <ele>288</ele>
        <time>2017-08-09T10:11:58Z</time>
      </trkpt>
      <trkpt lat="45.93854" lon="4.86418">
        <ele>288</ele>
        <time>2017-08-09T10:11:59Z</time>
      </trkpt>
      <trkpt lat="45.93855" lon="4.8641">
        <ele>288</ele>
        <time>2017-08-09T10:12:00Z</time>
      </trkpt>
      <trkpt lat="45.93857" lon="4.86401">
        <ele>288</ele>
        <time>2017-08-09T10:12:01Z</time>
      </trkpt>
      <trkpt lat="45.93858" lon="4.86392">
        <ele>288</ele>
        <time>2017-08-09T10:12:02Z</time>
      </trkpt>
      <trkpt lat="45.93859" lon="4.86384">
        <ele>288</ele>
        <time>2017-08-09T10:12:03Z</time>
      </trkpt>
      <trkpt lat="45.9386" lon="4.86376">
        <ele>288</ele>
        <time>2017-08-09T10:12:04Z</time>
      </trkpt>
      <trkpt lat="45.93861" lon="4.86368">
        <ele>288</ele>
        <time>2017-08-09T10:12:05Z</time>
      </trkpt>
      <trkpt lat="45.93863" lon="4.86361">
        <ele>288</ele>
        <time>2017-08-09T10:12:06Z</time>
      </trkpt>
      <trkpt lat="45.93864" lon="4.86353">
        <ele>288</ele>
        <time>2017-08-09T10:12:07Z</time>
      </trkpt>
      <trkpt lat="45.93865" lon="4.86344">
        <ele>288</ele>
        <time>2017-08-09T10:12:08Z</time>
      </trkpt>
      <trkpt lat="45.93866" lon="4.86336">
        <ele>288</ele>
        <time>2017-08-09T10:12:09Z</time>
      </trkpt>
      <trkpt lat="45.93866" lon="4.86327">
        <ele>288</ele>
        <time>2017-08-09T10:12:10Z</time>
      </trkpt>
      <trkpt lat="45.93867" lon="4.86318">
        <ele>288</ele>
        <time>2017-08-09T10:12:11Z</time>
      </trkpt>
      <trkpt lat="45.93869" lon="4.86309">
        <ele>288</ele>
        <time>2017-08-09T10:12:12Z</time>
      </trkpt>
      <trkpt lat="45.9387" lon="4.86301">
        <ele>288</ele>
        <time>2017-08-09T10:12:13Z</time>
      </trkpt>
      <trkpt lat="45.93871" lon="4.86293">
        <ele>288</ele>
        <time>2017-08-09T10:12:14Z</time>
      </trkpt>
      <trkpt lat="45.93873" lon="4.86285">
        <ele>288</ele>
        <time>2017-08-09T10:12:15Z</time>
      </trkpt>
      <trkpt lat="45.93874" lon="4.86277">
        <ele>288</ele>
        <time>2017-08-09T10:12:16Z</time>
      </trkpt>
      <trkpt lat="45.93875" lon="4.86268">
        <ele>288</ele>
        <time>2017-08-09T10:12:17Z</time>
      </trkpt>
      <trkpt lat="45.93875" lon="4.8626">
        <ele>288</ele>
        <time>2017-08-09T10:12:18Z</time>
      </trkpt>
      <trkpt lat="45.93876" lon="4.86251">
        <ele>288</ele>
        <time>2017-08-09T10:12:19Z</time>
      </trkpt>
      <trkpt lat="45.93876" lon="4.86243">
        <ele>288</ele>
        <time>2017-08-09T10:12:20Z</time>
      </trkpt>
      <trkpt lat="45.93876" lon="4.86235">
        <ele>288</ele>
        <time>2017-08-09T10:12:21Z</time>
      </trkpt>
      <trkpt lat="45.93877" lon="4.86227">
        <ele>288</ele>
        <time>2017-08-09T10:12:22Z</time>
      </trkpt>
      <trkpt lat="45.93877" lon="4.86219">
        <ele>288</ele>
        <time>2017-08-09T10:12:23Z</time>
      </trkpt>
      <trkpt lat="45.93877" lon="4.86211">
        <ele>287</ele>
        <time>2017-08-09T10:12:24Z</time>
      </trkpt>
      <trkpt lat="45.93877" lon="4.86203">
        <ele>287</ele>
        <time>2017-08-09T10:12:25Z</time>
      </trkpt>
      <trkpt lat="45.93877" lon="4.86194">
        <ele>287</ele>
        <time>2017-08-09T10:12:26Z</time>
      </trkpt>
      <trkpt lat="45.93876" lon="4.86186">
        <ele>287</ele>
        <time>2017-08-09T10:12:27Z</time>
      </trkpt>
      <trkpt lat="45.93876" lon="4.86177">
        <ele>287</ele>
        <time>2017-08-09T10:12:28Z</time>
      </trkpt>
      <trkpt lat="45.93875" lon="4.86169">
        <ele>287</ele>
        <time>2017-08-09T10:12:29Z</time>
      </trkpt>
      <trkpt lat="45.93875" lon="4.86161">
        <ele>286</ele>
        <time>2017-08-09T10:12:30Z</time>
      </trkpt>
      <trkpt lat="45.93874" lon="4.86152">
        <ele>286</ele>
        <time>2017-08-09T10:12:31Z</time>
      </trkpt>
      <trkpt lat="45.93873" lon="4.86144">
        <ele>286</ele>
        <time>2017-08-09T10:12:32Z</time>
      </trkpt>
      <trkpt lat="45.93873" lon="4.86135">
        <ele>286</ele>
        <time>2017-08-09T10:12:33Z</time>
      </trkpt>
      <trkpt lat="45.93872" lon="4.86127">
        <ele>286</ele>
        <time>2017-08-09T10:12:34Z</time>
      </trkpt>
      <trkpt lat="45.93872" lon="4.86119">
        <ele>286</ele>
        <time>2017-08-09T10:12:35Z</time>
      </trkpt>
      <trkpt lat="45.93872" lon="4.86112">
        <ele>286</ele>
        <time>2017-08-09T10:12:36Z</time>
      </trkpt>
      <trkpt lat="45.93871" lon="4.86104">
        <ele>286</ele>
        <time>2017-08-09T10:12:37Z</time>
      </trkpt>
      <trkpt lat="45.9387" lon="4.86097">
        <ele>285</ele>
        <time>2017-08-09T10:12:38Z</time>
      </trkpt>
      <trkpt lat="45.93869" lon="4.86089">
        <ele>285</ele>
        <time>2017-08-09T10:12:39Z</time>
      </trkpt>
      <trkpt lat="45.93869" lon="4.86081">
        <ele>285</ele>
        <time>2017-08-09T10:12:40Z</time>
      </trkpt>
      <trkpt lat="45.93868" lon="4.86072">
        <ele>285</ele>
        <time>2017-08-09T10:12:41Z</time>
      </trkpt>
      <trkpt lat="45.93868" lon="4.86063">
        <ele>284</ele>
        <time>2017-08-09T10:12:42Z</time>
      </trkpt>
      <trkpt lat="45.93867" lon="4.86055">
        <ele>284</ele>
        <time>2017-08-09T10:12:43Z</time>
      </trkpt>
      <trkpt lat="45.93867" lon="4.86046">
        <ele>284</ele>
        <time>2017-08-09T10:12:44Z</time>
      </trkpt>
      <trkpt lat="45.93867" lon="4.86038">
        <ele>284</ele>
        <time>2017-08-09T10:12:45Z</time>
      </trkpt>
      <trkpt lat="45.93867" lon="4.8603">
        <ele>284</ele>
        <time>2017-08-09T10:12:46Z</time>
      </trkpt>
      <trkpt lat="45.93866" lon="4.86022">
        <ele>284</ele>
        <time>2017-08-09T10:12:47Z</time>
      </trkpt>
      <trkpt lat="45.93866" lon="4.86015">
        <ele>284</ele>
        <time>2017-08-09T10:12:48Z</time>
      </trkpt>
      <trkpt lat="45.93865" lon="4.86008">
        <ele>284</ele>
        <time>2017-08-09T10:12:49Z</time>
      </trkpt>
      <trkpt lat="45.93865" lon="4.86001">
        <ele>284</ele>
        <time>2017-08-09T10:12:50Z</time>
      </trkpt>
      <trkpt lat="45.93864" lon="4.85994">
        <ele>284</ele>
        <time>2017-08-09T10:12:51Z</time>
      </trkpt>
      <trkpt lat="45.93863" lon="4.85987">
        <ele>284</ele>
        <time>2017-08-09T10:12:52Z</time>
      </trkpt>
      <trkpt lat="45.93862" lon="4.85979">
        <ele>284</ele>
        <time>2017-08-09T10:12:53Z</time>
      </trkpt>
      <trkpt lat="45.93862" lon="4.85972">
        <ele>284</ele>
        <time>2017-08-09T10:12:54Z</time>
      </trkpt>
      <trkpt lat="45.93861" lon="4.85964">
        <ele>284</ele>
        <time>2017-08-09T10:12:55Z</time>
      </trkpt>
      <trkpt lat="45.9386" lon="4.85956">
        <ele>284</ele>
        <time>2017-08-09T10:12:56Z</time>
      </trkpt>
      <trkpt lat="45.9386" lon="4.85948">
        <ele>284</ele>
        <time>2017-08-09T10:12:57Z</time>
      </trkpt>
      <trkpt lat="45.93859" lon="4.85939">
        <ele>284</ele>
        <time>2017-08-09T10:12:58Z</time>
      </trkpt>
      <trkpt lat="45.93858" lon="4.85931">
        <ele>284</ele>
        <time>2017-08-09T10:12:59Z</time>
      </trkpt>
      <trkpt lat="45.93857" lon="4.85922">
        <ele>285</ele>
        <time>2017-08-09T10:13:00Z</time>
      </trkpt>
      <trkpt lat="45.93856" lon="4.85914">
        <ele>285</ele>
        <time>2017-08-09T10:13:01Z</time>
      </trkpt>
      <trkpt lat="45.93855" lon="4.85906">
        <ele>284</ele>
        <time>2017-08-09T10:13:02Z</time>
      </trkpt>
      <trkpt lat="45.93854" lon="4.85898">
        <ele>284</ele>
        <time>2017-08-09T10:13:03Z</time>
      </trkpt>
      <trkpt lat="45.93853" lon="4.8589">
        <ele>284</ele>
        <time>2017-08-09T10:13:04Z</time>
      </trkpt>
      <trkpt lat="45.93852" lon="4.85883">
        <ele>284</ele>
        <time>2017-08-09T10:13:05Z</time>
      </trkpt>
      <trkpt lat="45.93852" lon="4.85876">
        <ele>284</ele>
        <time>2017-08-09T10:13:06Z</time>
      </trkpt>
      <trkpt lat="45.93851" lon="4.85868">
        <ele>284</ele>
        <time>2017-08-09T10:13:07Z</time>
      </trkpt>
      <trkpt lat="45.9385" lon="4.85861">
        <ele>284</ele>
        <time>2017-08-09T10:13:08Z</time>
      </trkpt>
      <trkpt lat="45.93849" lon="4.85854">
        <ele>284</ele>
        <time>2017-08-09T10:13:09Z</time>
      </trkpt>
      <trkpt lat="45.93848" lon="4.85846">
        <ele>284</ele>
        <time>2017-08-09T10:13:10Z</time>
      </trkpt>
      <trkpt lat="45.93846" lon="4.85839">
        <ele>284</ele>
        <time>2017-08-09T10:13:11Z</time>
      </trkpt>
      <trkpt lat="45.93845" lon="4.85832">
        <ele>283</ele>
        <time>2017-08-09T10:13:12Z</time>
      </trkpt>
      <trkpt lat="45.93844" lon="4.85824">
        <ele>284</ele>
        <time>2017-08-09T10:13:13Z</time>
      </trkpt>
      <trkpt lat="45.93843" lon="4.85816">
        <ele>284</ele>
        <time>2017-08-09T10:13:14Z</time>
      </trkpt>
      <trkpt lat="45.93842" lon="4.85807">
        <ele>284</ele>
        <time>2017-08-09T10:13:15Z</time>
      </trkpt>
      <trkpt lat="45.93841" lon="4.85799">
        <ele>284</ele>
        <time>2017-08-09T10:13:16Z</time>
      </trkpt>
      <trkpt lat="45.9384" lon="4.8579">
        <ele>284</ele>
        <time>2017-08-09T10:13:17Z</time>
      </trkpt>
      <trkpt lat="45.93839" lon="4.85782">
        <ele>284</ele>
        <time>2017-08-09T10:13:18Z</time>
      </trkpt>
      <trkpt lat="45.93838" lon="4.85774">
        <ele>284</ele>
        <time>2017-08-09T10:13:19Z</time>
      </trkpt>
      <trkpt lat="45.93837" lon="4.85766">
        <ele>284</ele>
        <time>2017-08-09T10:13:20Z</time>
      </trkpt>
      <trkpt lat="45.93836" lon="4.85759">
        <ele>283</ele>
        <time>2017-08-09T10:13:21Z</time>
      </trkpt>
      <trkpt lat="45.93835" lon="4.85751">
        <ele>283</ele>
        <time>2017-08-09T10:13:22Z</time>
      </trkpt>
      <trkpt lat="45.93834" lon="4.85744">
        <ele>283</ele>
        <time>2017-08-09T10:13:23Z</time>
      </trkpt>
      <trkpt lat="45.93833" lon="4.85736">
        <ele>283</ele>
        <time>2017-08-09T10:13:24Z</time>
      </trkpt>
      <trkpt lat="45.93831" lon="4.85729">
        <ele>283</ele>
        <time>2017-08-09T10:13:25Z</time>
      </trkpt>
      <trkpt lat="45.9383" lon="4.85721">
        <ele>283</ele>
        <time>2017-08-09T10:13:26Z</time>
      </trkpt>
      <trkpt lat="45.93828" lon="4.85713">
        <ele>283</ele>
        <time>2017-08-09T10:13:27Z</time>
      </trkpt>
      <trkpt lat="45.93827" lon="4.85705">
        <ele>283</ele>
        <time>2017-08-09T10:13:28Z</time>
      </trkpt>
      <trkpt lat="45.93825" lon="4.85696">
        <ele>283</ele>
        <time>2017-08-09T10:13:29Z</time>
      </trkpt>
      <trkpt lat="45.93824" lon="4.85687">
        <ele>283</ele>
        <time>2017-08-09T10:13:30Z</time>
      </trkpt>
      <trkpt lat="45.93823" lon="4.85677">
        <ele>283</ele>
        <time>2017-08-09T10:13:31Z</time>
      </trkpt>
      <trkpt lat="45.93822" lon="4.85668">
        <ele>283</ele>
        <time>2017-08-09T10:13:32Z</time>
      </trkpt>
      <trkpt lat="45.93821" lon="4.85659">
        <ele>283</ele>
        <time>2017-08-09T10:13:33Z</time>
      </trkpt>
      <trkpt lat="45.9382" lon="4.85649">
        <ele>283</ele>
        <time>2017-08-09T10:13:34Z</time>
      </trkpt>
      <trkpt lat="45.9382" lon="4.85639">
        <ele>283</ele>
        <time>2017-08-09T10:13:35Z</time>
      </trkpt>
      <trkpt lat="45.9382" lon="4.8563">
        <ele>283</ele>
        <time>2017-08-09T10:13:36Z</time>
      </trkpt>
      <trkpt lat="45.9382" lon="4.8562">
        <ele>283</ele>
        <time>2017-08-09T10:13:37Z</time>
      </trkpt>
      <trkpt lat="45.9382" lon="4.85611">
        <ele>283</ele>
        <time>2017-08-09T10:13:38Z</time>
      </trkpt>
      <trkpt lat="45.93821" lon="4.85601">
        <ele>283</ele>
        <time>2017-08-09T10:13:39Z</time>
      </trkpt>
      <trkpt lat="45.93821" lon="4.85592">
        <ele>283</ele>
        <time>2017-08-09T10:13:40Z</time>
      </trkpt>
      <trkpt lat="45.93822" lon="4.85583">
        <ele>283</ele>
        <time>2017-08-09T10:13:41Z</time>
      </trkpt>
      <trkpt lat="45.93823" lon="4.85574">
        <ele>283</ele>
        <time>2017-08-09T10:13:42Z</time>
      </trkpt>
      <trkpt lat="45.93824" lon="4.85565">
        <ele>283</ele>
        <time>2017-08-09T10:13:43Z</time>
      </trkpt>
      <trkpt lat="45.93825" lon="4.85557">
        <ele>283</ele>
        <time>2017-08-09T10:13:44Z</time>
      </trkpt>
      <trkpt lat="45.93826" lon="4.85549">
        <ele>282</ele>
        <time>2017-08-09T10:13:45Z</time>
      </trkpt>
      <trkpt lat="45.93827" lon="4.85542">
        <ele>282</ele>
        <time>2017-08-09T10:13:46Z</time>
      </trkpt>
      <trkpt lat="45.93828" lon="4.85534">
        <ele>282</ele>
        <time>2017-08-09T10:13:47Z</time>
      </trkpt>
      <trkpt lat="45.93829" lon="4.85527">
        <ele>282</ele>
        <time>2017-08-09T10:13:48Z</time>
      </trkpt>
      <trkpt lat="45.9383" lon="4.8552">
        <ele>282</ele>
        <time>2017-08-09T10:13:49Z</time>
      </trkpt>
      <trkpt lat="45.9383" lon="4.85514">
        <ele>283</ele>
        <time>2017-08-09T10:13:50Z</time>
      </trkpt>
      <trkpt lat="45.93831" lon="4.85506">
        <ele>283</ele>
        <time>2017-08-09T10:13:51Z</time>
      </trkpt>
      <trkpt lat="45.93832" lon="4.85499">
        <ele>283</ele>
        <time>2017-08-09T10:13:52Z</time>
      </trkpt>
      <trkpt lat="45.93833" lon="4.85491">
        <ele>283</ele>
        <time>2017-08-09T10:13:53Z</time>
      </trkpt>
      <trkpt lat="45.93834" lon="4.85483">
        <ele>283</ele>
        <time>2017-08-09T10:13:54Z</time>
      </trkpt>
      <trkpt lat="45.93835" lon="4.85474">
        <ele>283</ele>
        <time>2017-08-09T10:13:55Z</time>
      </trkpt>
      <trkpt lat="45.93836" lon="4.85465">
        <ele>283</ele>
        <time>2017-08-09T10:13:56Z</time>
      </trkpt>
      <trkpt lat="45.93838" lon="4.85456">
        <ele>283</ele>
        <time>2017-08-09T10:13:57Z</time>
      </trkpt>
      <trkpt lat="45.93839" lon="4.85448">
        <ele>283</ele>
        <time>2017-08-09T10:13:58Z</time>
      </trkpt>
      <trkpt lat="45.93841" lon="4.85441">
        <ele>283</ele>
        <time>2017-08-09T10:13:59Z</time>
      </trkpt>
      <trkpt lat="45.93843" lon="4.85433">
        <ele>283</ele>
        <time>2017-08-09T10:14:00Z</time>
      </trkpt>
      <trkpt lat="45.93844" lon="4.85426">
        <ele>282</ele>
        <time>2017-08-09T10:14:01Z</time>
      </trkpt>
      <trkpt lat="45.93846" lon="4.85418">
        <ele>282</ele>
        <time>2017-08-09T10:14:02Z</time>
      </trkpt>
      <trkpt lat="45.93848" lon="4.8541">
        <ele>281</ele>
        <time>2017-08-09T10:14:03Z</time>
      </trkpt>
      <trkpt lat="45.9385" lon="4.85402">
        <ele>281</ele>
        <time>2017-08-09T10:14:04Z</time>
      </trkpt>
      <trkpt lat="45.93852" lon="4.85394">
        <ele>281</ele>
        <time>2017-08-09T10:14:05Z</time>
      </trkpt>
      <trkpt lat="45.93854" lon="4.85385">
        <ele>281</ele>
        <time>2017-08-09T10:14:06Z</time>
      </trkpt>
      <trkpt lat="45.93856" lon="4.85376">
        <ele>281</ele>
        <time>2017-08-09T10:14:07Z</time>
      </trkpt>
      <trkpt lat="45.93858" lon="4.85367">
        <ele>281</ele>
        <time>2017-08-09T10:14:08Z</time>
      </trkpt>
      <trkpt lat="45.93861" lon="4.85358">
        <ele>281</ele>
        <time>2017-08-09T10:14:09Z</time>
      </trkpt>
      <trkpt lat="45.93863" lon="4.85349">
        <ele>281</ele>
        <time>2017-08-09T10:14:10Z</time>
      </trkpt>
      <trkpt lat="45.93865" lon="4.85339">
        <ele>281</ele>
        <time>2017-08-09T10:14:11Z</time>
      </trkpt>
      <trkpt lat="45.93868" lon="4.85329">
        <ele>279</ele>
        <time>2017-08-09T10:14:12Z</time>
      </trkpt>
      <trkpt lat="45.9387" lon="4.85319">
        <ele>279</ele>
        <time>2017-08-09T10:14:13Z</time>
      </trkpt>
      <trkpt lat="45.93872" lon="4.85308">
        <ele>279</ele>
        <time>2017-08-09T10:14:14Z</time>
      </trkpt>
      <trkpt lat="45.93874" lon="4.85297">
        <ele>278</ele>
        <time>2017-08-09T10:14:15Z</time>
      </trkpt>
      <trkpt lat="45.93876" lon="4.85286">
        <ele>278</ele>
        <time>2017-08-09T10:14:16Z</time>
      </trkpt>
      <trkpt lat="45.93877" lon="4.85274">
        <ele>278</ele>
        <time>2017-08-09T10:14:17Z</time>
      </trkpt>
      <trkpt lat="45.93878" lon="4.85262">
        <ele>278</ele>
        <time>2017-08-09T10:14:18Z</time>
      </trkpt>
      <trkpt lat="45.93877" lon="4.8525">
        <ele>276</ele>
        <time>2017-08-09T10:14:19Z</time>
      </trkpt>
      <trkpt lat="45.93877" lon="4.85238">
        <ele>276</ele>
        <time>2017-08-09T10:14:20Z</time>
      </trkpt>
      <trkpt lat="45.93877" lon="4.85226">
        <ele>276</ele>
        <time>2017-08-09T10:14:21Z</time>
      </trkpt>
      <trkpt lat="45.93876" lon="4.85215">
        <ele>276</ele>
        <time>2017-08-09T10:14:22Z</time>
      </trkpt>
      <trkpt lat="45.93876" lon="4.85203">
        <ele>276</ele>
        <time>2017-08-09T10:14:23Z</time>
      </trkpt>
      <trkpt lat="45.93875" lon="4.85191">
        <ele>276</ele>
        <time>2017-08-09T10:14:24Z</time>
      </trkpt>
      <trkpt lat="45.93875" lon="4.85179">
        <ele>276</ele>
        <time>2017-08-09T10:14:25Z</time>
      </trkpt>
      <trkpt lat="45.93874" lon="4.85167">
        <ele>275</ele>
        <time>2017-08-09T10:14:26Z</time>
      </trkpt>
      <trkpt lat="45.93873" lon="4.85155">
        <ele>275</ele>
        <time>2017-08-09T10:14:27Z</time>
      </trkpt>
      <trkpt lat="45.93873" lon="4.85144">
        <ele>274</ele>
        <time>2017-08-09T10:14:28Z</time>
      </trkpt>
      <trkpt lat="45.93873" lon="4.85132">
        <ele>274</ele>
        <time>2017-08-09T10:14:29Z</time>
      </trkpt>
      <trkpt lat="45.93872" lon="4.85121">
        <ele>274</ele>
        <time>2017-08-09T10:14:30Z</time>
      </trkpt>
      <trkpt lat="45.93871" lon="4.8511">
        <ele>274</ele>
        <time>2017-08-09T10:14:31Z</time>
      </trkpt>
      <trkpt lat="45.9387" lon="4.851">
        <ele>274</ele>
        <time>2017-08-09T10:14:32Z</time>
      </trkpt>
      <trkpt lat="45.9387" lon="4.85089">
        <ele>274</ele>
        <time>2017-08-09T10:14:33Z</time>
      </trkpt>
      <trkpt lat="45.93869" lon="4.85079">
        <ele>273</ele>
        <time>2017-08-09T10:14:34Z</time>
      </trkpt>
      <trkpt lat="45.93869" lon="4.85069">
        <ele>273</ele>
        <time>2017-08-09T10:14:35Z</time>
      </trkpt>
      <trkpt lat="45.93868" lon="4.85059">
        <ele>273</ele>
        <time>2017-08-09T10:14:36Z</time>
      </trkpt>
      <trkpt lat="45.93868" lon="4.85049">
        <ele>273</ele>
        <time>2017-08-09T10:14:37Z</time>
      </trkpt>
      <trkpt lat="45.93867" lon="4.85039">
        <ele>273</ele>
        <time>2017-08-09T10:14:38Z</time>
      </trkpt>
      <trkpt lat="45.93866" lon="4.8503">
        <ele>273</ele>
        <time>2017-08-09T10:14:39Z</time>
      </trkpt>
      <trkpt lat="45.93866" lon="4.8502">
        <ele>273</ele>
        <time>2017-08-09T10:14:40Z</time>
      </trkpt>
      <trkpt lat="45.93866" lon="4.85011">
        <ele>273</ele>
        <time>2017-08-09T10:14:41Z</time>
      </trkpt>
      <trkpt lat="45.93866" lon="4.85002">
        <ele>273</ele>
        <time>2017-08-09T10:14:42Z</time>
      </trkpt>
      <trkpt lat="45.93865" lon="4.84994">
        <ele>272</ele>
        <time>2017-08-09T10:14:43Z</time>
      </trkpt>
      <trkpt lat="45.93865" lon="4.84985">
        <ele>272</ele>
        <time>2017-08-09T10:14:44Z</time>
      </trkpt>
      <trkpt lat="45.93864" lon="4.84976">
        <ele>272</ele>
        <time>2017-08-09T10:14:45Z</time>
      </trkpt>
      <trkpt lat="45.93863" lon="4.84966">
        <ele>272</ele>
        <time>2017-08-09T10:14:46Z</time>
      </trkpt>
      <trkpt lat="45.93863" lon="4.84956">
        <ele>272</ele>
        <time>2017-08-09T10:14:47Z</time>
      </trkpt>
      <trkpt lat="45.93862" lon="4.84947">
        <ele>271</ele>
        <time>2017-08-09T10:14:48Z</time>
      </trkpt>
      <trkpt lat="45.9386" lon="4.84937">
        <ele>271</ele>
        <time>2017-08-09T10:14:49Z</time>
      </trkpt>
      <trkpt lat="45.9386" lon="4.84928">
        <ele>271</ele>
        <time>2017-08-09T10:14:50Z</time>
      </trkpt>
      <trkpt lat="45.93859" lon="4.84919">
        <ele>271</ele>
        <time>2017-08-09T10:14:51Z</time>
      </trkpt>
      <trkpt lat="45.93859" lon="4.84909">
        <ele>271</ele>
        <time>2017-08-09T10:14:52Z</time>
      </trkpt>
      <trkpt lat="45.93859" lon="4.849">
        <ele>270</ele>
        <time>2017-08-09T10:14:53Z</time>
      </trkpt>
      <trkpt lat="45.93858" lon="4.84891">
        <ele>270</ele>
        <time>2017-08-09T10:14:54Z</time>
      </trkpt>
      <trkpt lat="45.93858" lon="4.84882">
        <ele>270</ele>
        <time>2017-08-09T10:14:55Z</time>
      </trkpt>
      <trkpt lat="45.93858" lon="4.84874">
        <ele>270</ele>
        <time>2017-08-09T10:14:56Z</time>
      </trkpt>
      <trkpt lat="45.93857" lon="4.84866">
        <ele>270</ele>
        <time>2017-08-09T10:14:57Z</time>
      </trkpt>
      <trkpt lat="45.93856" lon="4.84857">
        <ele>270</ele>
        <time>2017-08-09T10:14:58Z</time>
      </trkpt>
      <trkpt lat="45.93855" lon="4.84848">
        <ele>270</ele>
        <time>2017-08-09T10:14:59Z</time>
      </trkpt>
      <trkpt lat="45.93854" lon="4.84838">
        <ele>271</ele>
        <time>2017-08-09T10:15:00Z</time>
      </trkpt>
      <trkpt lat="45.93853" lon="4.84829">
        <ele>270</ele>
        <time>2017-08-09T10:15:01Z</time>
      </trkpt>
      <trkpt lat="45.93852" lon="4.84819">
        <ele>270</ele>
        <time>2017-08-09T10:15:02Z</time>
      </trkpt>
      <trkpt lat="45.9385" lon="4.84809">
        <ele>270</ele>
        <time>2017-08-09T10:15:03Z</time>
      </trkpt>
      <trkpt lat="45.93848" lon="4.84799">
        <ele>270</ele>
        <time>2017-08-09T10:15:04Z</time>
      </trkpt>
      <trkpt lat="45.93847" lon="4.84789">
        <ele>270</ele>
        <time>2017-08-09T10:15:05Z</time>
      </trkpt>
      <trkpt lat="45.93845" lon="4.8478">
        <ele>270</ele>
        <time>2017-08-09T10:15:06Z</time>
      </trkpt>
      <trkpt lat="45.93843" lon="4.8477">
        <ele>270</ele>
        <time>2017-08-09T10:15:07Z</time>
      </trkpt>
      <trkpt lat="45.93842" lon="4.84761">
        <ele>271</ele>
        <time>2017-08-09T10:15:08Z</time>
      </trkpt>
      <trkpt lat="45.9384" lon="4.84752">
        <ele>271</ele>
        <time>2017-08-09T10:15:09Z</time>
      </trkpt>
      <trkpt lat="45.93838" lon="4.84742">
        <ele>271</ele>
        <time>2017-08-09T10:15:10Z</time>
      </trkpt>
      <trkpt lat="45.93837" lon="4.84733">
        <ele>271</ele>
        <time>2017-08-09T10:15:11Z</time>
      </trkpt>
      <trkpt lat="45.93835" lon="4.84724">
        <ele>270</ele>
        <time>2017-08-09T10:15:12Z</time>
      </trkpt>
      <trkpt lat="45.93834" lon="4.84715">
        <ele>270</ele>
        <time>2017-08-09T10:15:13Z</time>
      </trkpt>
      <trkpt lat="45.93832" lon="4.84706">
        <ele>271</ele>
        <time>2017-08-09T10:15:14Z</time>
      </trkpt>
      <trkpt lat="45.9383" lon="4.84697">
        <ele>271</ele>
        <time>2017-08-09T10:15:15Z</time>
      </trkpt>
      <trkpt lat="45.93829" lon="4.84688">
        <ele>271</ele>
        <time>2017-08-09T10:15:16Z</time>
      </trkpt>
      <trkpt lat="45.93828" lon="4.8468">
        <ele>271</ele>
        <time>2017-08-09T10:15:17Z</time>
      </trkpt>
      <trkpt lat="45.93826" lon="4.84671">
        <ele>271</ele>
        <time>2017-08-09T10:15:18Z</time>
      </trkpt>
      <trkpt lat="45.93824" lon="4.84663">
        <ele>271</ele>
        <time>2017-08-09T10:15:19Z</time>
      </trkpt>
      <trkpt lat="45.93823" lon="4.84656">
        <ele>271</ele>
        <time>2017-08-09T10:15:20Z</time>
      </trkpt>
      <trkpt lat="45.93821" lon="4.84648">
        <ele>271</ele>
        <time>2017-08-09T10:15:21Z</time>
      </trkpt>
      <trkpt lat="45.9382" lon="4.8464">
        <ele>271</ele>
        <time>2017-08-09T10:15:22Z</time>
      </trkpt>
      <trkpt lat="45.93819" lon="4.84632">
        <ele>271</ele>
        <time>2017-08-09T10:15:23Z</time>
      </trkpt>
      <trkpt lat="45.93818" lon="4.84624">
        <ele>271</ele>
        <time>2017-08-09T10:15:24Z</time>
      </trkpt>
      <trkpt lat="45.93817" lon="4.84615">
        <ele>271</ele>
        <time>2017-08-09T10:15:25Z</time>
      </trkpt>
      <trkpt lat="45.93815" lon="4.84607">
        <ele>271</ele>
        <time>2017-08-09T10:15:26Z</time>
      </trkpt>
      <trkpt lat="45.93814" lon="4.84598">
        <ele>271</ele>
        <time>2017-08-09T10:15:27Z</time>
      </trkpt>
      <trkpt lat="45.93812" lon="4.84588">
        <ele>271</ele>
        <time>2017-08-09T10:15:28Z</time>
      </trkpt>
      <trkpt lat="45.9381" lon="4.84579">
        <ele>270</ele>
        <time>2017-08-09T10:15:29Z</time>
      </trkpt>
      <trkpt lat="45.93809" lon="4.84569">
        <ele>270</ele>
        <time>2017-08-09T10:15:30Z</time>
      </trkpt>
      <trkpt lat="45.93808" lon="4.8456">
        <ele>270</ele>
        <time>2017-08-09T10:15:31Z</time>
      </trkpt>
      <trkpt lat="45.93806" lon="4.84551">
        <ele>270</ele>
        <time>2017-08-09T10:15:32Z</time>
      </trkpt>
      <trkpt lat="45.93805" lon="4.84543">
        <ele>270</ele>
        <time>2017-08-09T10:15:33Z</time>
      </trkpt>
      <trkpt lat="45.93804" lon="4.84534">
        <ele>270</ele>
        <time>2017-08-09T10:15:34Z</time>
      </trkpt>
      <trkpt lat="45.93803" lon="4.84526">
        <ele>270</ele>
        <time>2017-08-09T10:15:35Z</time>
      </trkpt>
      <trkpt lat="45.93801" lon="4.84518">
        <ele>270</ele>
        <time>2017-08-09T10:15:36Z</time>
      </trkpt>
      <trkpt lat="45.938" lon="4.8451">
        <ele>270</ele>
        <time>2017-08-09T10:15:37Z</time>
      </trkpt>
      <trkpt lat="45.93798" lon="4.84502">
        <ele>270</ele>
        <time>2017-08-09T10:15:38Z</time>
      </trkpt>
      <trkpt lat="45.93797" lon="4.84494">
        <ele>269</ele>
        <time>2017-08-09T10:15:39Z</time>
      </trkpt>
      <trkpt lat="45.93796" lon="4.84485">
        <ele>269</ele>
        <time>2017-08-09T10:15:40Z</time>
      </trkpt>
      <trkpt lat="45.93794" lon="4.84477">
        <ele>269</ele>
        <time>2017-08-09T10:15:41Z</time>
      </trkpt>
      <trkpt lat="45.93793" lon="4.84468">
        <ele>269</ele>
        <time>2017-08-09T10:15:42Z</time>
      </trkpt>
      <trkpt lat="45.93791" lon="4.84459">
        <ele>269</ele>
        <time>2017-08-09T10:15:43Z</time>
      </trkpt>
      <trkpt lat="45.93789" lon="4.8445">
        <ele>269</ele>
        <time>2017-08-09T10:15:44Z</time>
      </trkpt>
      <trkpt lat="45.93787" lon="4.84441">
        <ele>269</ele>
        <time>2017-08-09T10:15:45Z</time>
      </trkpt>
      <trkpt lat="45.93786" lon="4.84431">
        <ele>269</ele>
        <time>2017-08-09T10:15:46Z</time>
      </trkpt>
      <trkpt lat="45.93784" lon="4.84422">
        <ele>269</ele>
        <time>2017-08-09T10:15:47Z</time>
      </trkpt>
      <trkpt lat="45.93783" lon="4.84413">
        <ele>268</ele>
        <time>2017-08-09T10:15:48Z</time>
      </trkpt>
      <trkpt lat="45.93781" lon="4.84404">
        <ele>268</ele>
        <time>2017-08-09T10:15:49Z</time>
      </trkpt>
      <trkpt lat="45.9378" lon="4.84396">
        <ele>268</ele>
        <time>2017-08-09T10:15:50Z</time>
      </trkpt>
      <trkpt lat="45.93779" lon="4.84388">
        <ele>268</ele>
        <time>2017-08-09T10:15:51Z</time>
      </trkpt>
      <trkpt lat="45.93777" lon="4.8438">
        <ele>268</ele>
        <time>2017-08-09T10:15:52Z</time>
      </trkpt>
      <trkpt lat="45.93776" lon="4.84372">
        <ele>268</ele>
        <time>2017-08-09T10:15:53Z</time>
      </trkpt>
      <trkpt lat="45.93775" lon="4.84364">
        <ele>268</ele>
        <time>2017-08-09T10:15:54Z</time>
      </trkpt>
      <trkpt lat="45.93774" lon="4.84356">
        <ele>268</ele>
        <time>2017-08-09T10:15:55Z</time>
      </trkpt>
      <trkpt lat="45.93773" lon="4.84349">
        <ele>268</ele>
        <time>2017-08-09T10:15:56Z</time>
      </trkpt>
      <trkpt lat="45.93772" lon="4.84341">
        <ele>268</ele>
        <time>2017-08-09T10:15:57Z</time>
      </trkpt>
      <trkpt lat="45.93771" lon="4.84333">
        <ele>268</ele>
        <time>2017-08-09T10:15:58Z</time>
      </trkpt>
      <trkpt lat="45.93769" lon="4.84325">
        <ele>268</ele>
        <time>2017-08-09T10:15:59Z</time>
      </trkpt>
      <trkpt lat="45.93768" lon="4.84316">
        <ele>268</ele>
        <time>2017-08-09T10:16:00Z</time>
      </trkpt>
      <trkpt lat="45.93766" lon="4.84308">
        <ele>268</ele>
        <time>2017-08-09T10:16:01Z</time>
      </trkpt>
      <trkpt lat="45.93765" lon="4.84299">
        <ele>268</ele>
        <time>2017-08-09T10:16:02Z</time>
      </trkpt>
      <trkpt lat="45.93763" lon="4.8429">
        <ele>268</ele>
        <time>2017-08-09T10:16:03Z</time>
      </trkpt>
      <trkpt lat="45.93762" lon="4.84281">
        <ele>268</ele>
        <time>2017-08-09T10:16:04Z</time>
      </trkpt>
      <trkpt lat="45.93761" lon="4.84273">
        <ele>268</ele>
        <time>2017-08-09T10:16:05Z</time>
      </trkpt>
      <trkpt lat="45.9376" lon="4.84264">
        <ele>269</ele>
        <time>2017-08-09T10:16:06Z</time>
      </trkpt>
      <trkpt lat="45.93758" lon="4.84256">
        <ele>269</ele>
        <time>2017-08-09T10:16:07Z</time>
      </trkpt>
      <trkpt lat="45.93757" lon="4.84249">
        <ele>269</ele>
        <time>2017-08-09T10:16:08Z</time>
      </trkpt>
      <trkpt lat="45.93756" lon="4.8424">
        <ele>269</ele>
        <time>2017-08-09T10:16:09Z</time>
      </trkpt>
      <trkpt lat="45.93755" lon="4.84232">
        <ele>269</ele>
        <time>2017-08-09T10:16:10Z</time>
      </trkpt>
      <trkpt lat="45.93755" lon="4.84223">
        <ele>269</ele>
        <time>2017-08-09T10:16:11Z</time>
      </trkpt>
      <trkpt lat="45.93754" lon="4.84214">
        <ele>269</ele>
        <time>2017-08-09T10:16:12Z</time>
      </trkpt>
      <trkpt lat="45.93753" lon="4.84205">
        <ele>269</ele>
        <time>2017-08-09T10:16:13Z</time>
      </trkpt>
      <trkpt lat="45.93752" lon="4.84196">
        <ele>269</ele>
        <time>2017-08-09T10:16:14Z</time>
      </trkpt>
      <trkpt lat="45.93752" lon="4.84186">
        <ele>269</ele>
        <time>2017-08-09T10:16:15Z</time>
      </trkpt>
      <trkpt lat="45.93751" lon="4.84177">
        <ele>270</ele>
        <time>2017-08-09T10:16:16Z</time>
      </trkpt>
      <trkpt lat="45.93751" lon="4.84167">
        <ele>270</ele>
        <time>2017-08-09T10:16:17Z</time>
      </trkpt>
      <trkpt lat="45.93751" lon="4.84157">
        <ele>270</ele>
        <time>2017-08-09T10:16:18Z</time>
      </trkpt>
      <trkpt lat="45.93751" lon="4.84148">
        <ele>270</ele>
        <time>2017-08-09T10:16:19Z</time>
      </trkpt>
      <trkpt lat="45.93751" lon="4.84139">
        <ele>270</ele>
        <time>2017-08-09T10:16:20Z</time>
      </trkpt>
      <trkpt lat="45.93751" lon="4.84131">
        <ele>270</ele>
        <time>2017-08-09T10:16:21Z</time>
      </trkpt>
      <trkpt lat="45.93752" lon="4.84122">
        <ele>270</ele>
        <time>2017-08-09T10:16:22Z</time>
      </trkpt>
      <trkpt lat="45.93752" lon="4.84114">
        <ele>270</ele>
        <time>2017-08-09T10:16:23Z</time>
      </trkpt>
      <trkpt lat="45.93752" lon="4.84106">
        <ele>270</ele>
        <time>2017-08-09T10:16:24Z</time>
      </trkpt>
      <trkpt lat="45.93752" lon="4.84099">
        <ele>270</ele>
        <time>2017-08-09T10:16:25Z</time>
      </trkpt>
      <trkpt lat="45.93752" lon="4.84092">
        <ele>270</ele>
        <time>2017-08-09T10:16:26Z</time>
      </trkpt>
      <trkpt lat="45.93753" lon="4.84085">
        <ele>270</ele>
        <time>2017-08-09T10:16:27Z</time>
      </trkpt>
      <trkpt lat="45.93753" lon="4.84078">
        <ele>270</ele>
        <time>2017-08-09T10:16:28Z</time>
      </trkpt>
      <trkpt lat="45.93754" lon="4.84071">
        <ele>270</ele>
        <time>2017-08-09T10:16:29Z</time>
      </trkpt>
      <trkpt lat="45.93755" lon="4.84058">
        <ele>270</ele>
        <time>2017-08-09T10:16:31Z</time>
      </trkpt>
      <trkpt lat="45.93755" lon="4.84052">
        <ele>270</ele>
        <time>2017-08-09T10:16:32Z</time>
      </trkpt>
      <trkpt lat="45.93756" lon="4.84045">
        <ele>270</ele>
        <time>2017-08-09T10:16:33Z</time>
      </trkpt>
      <trkpt lat="45.93757" lon="4.84038">
        <ele>269</ele>
        <time>2017-08-09T10:16:34Z</time>
      </trkpt>
      <trkpt lat="45.93758" lon="4.8403">
        <ele>269</ele>
        <time>2017-08-09T10:16:35Z</time>
      </trkpt>
      <trkpt lat="45.9376" lon="4.84022">
        <ele>269</ele>
        <time>2017-08-09T10:16:36Z</time>
      </trkpt>
      <trkpt lat="45.93761" lon="4.84013">
        <ele>269</ele>
        <time>2017-08-09T10:16:37Z</time>
      </trkpt>
      <trkpt lat="45.93762" lon="4.84004">
        <ele>269</ele>
        <time>2017-08-09T10:16:38Z</time>
      </trkpt>
      <trkpt lat="45.93764" lon="4.83995">
        <ele>268</ele>
        <time>2017-08-09T10:16:39Z</time>
      </trkpt>
      <trkpt lat="45.93765" lon="4.83985">
        <ele>268</ele>
        <time>2017-08-09T10:16:40Z</time>
      </trkpt>
      <trkpt lat="45.93767" lon="4.83976">
        <ele>268</ele>
        <time>2017-08-09T10:16:41Z</time>
      </trkpt>
      <trkpt lat="45.93768" lon="4.83967">
        <ele>268</ele>
        <time>2017-08-09T10:16:42Z</time>
      </trkpt>
      <trkpt lat="45.9377" lon="4.83958">
        <ele>268</ele>
        <time>2017-08-09T10:16:43Z</time>
      </trkpt>
      <trkpt lat="45.93771" lon="4.83949">
        <ele>268</ele>
        <time>2017-08-09T10:16:44Z</time>
      </trkpt>
      <trkpt lat="45.93773" lon="4.83941">
        <ele>267</ele>
        <time>2017-08-09T10:16:45Z</time>
      </trkpt>
      <trkpt lat="45.93774" lon="4.83932">
        <ele>267</ele>
        <time>2017-08-09T10:16:46Z</time>
      </trkpt>
      <trkpt lat="45.93776" lon="4.83923">
        <ele>267</ele>
        <time>2017-08-09T10:16:47Z</time>
      </trkpt>
      <trkpt lat="45.93777" lon="4.83915">
        <ele>266</ele>
        <time>2017-08-09T10:16:48Z</time>
      </trkpt>
      <trkpt lat="45.93779" lon="4.83906">
        <ele>266</ele>
        <time>2017-08-09T10:16:49Z</time>
      </trkpt>
      <trkpt lat="45.9378" lon="4.83898">
        <ele>266</ele>
        <time>2017-08-09T10:16:50Z</time>
      </trkpt>
      <trkpt lat="45.93782" lon="4.8389">
        <ele>266</ele>
        <time>2017-08-09T10:16:51Z</time>
      </trkpt>
      <trkpt lat="45.93784" lon="4.83882">
        <ele>266</ele>
        <time>2017-08-09T10:16:52Z</time>
      </trkpt>
      <trkpt lat="45.93785" lon="4.83874">
        <ele>266</ele>
        <time>2017-08-09T10:16:53Z</time>
      </trkpt>
      <trkpt lat="45.93787" lon="4.83867">
        <ele>266</ele>
        <time>2017-08-09T10:16:54Z</time>
      </trkpt>
      <trkpt lat="45.93789" lon="4.8386">
        <ele>266</ele>
        <time>2017-08-09T10:16:55Z</time>
      </trkpt>
      <trkpt lat="45.93791" lon="4.83851">
        <ele>266</ele>
        <time>2017-08-09T10:16:56Z</time>
      </trkpt>
      <trkpt lat="45.93793" lon="4.83843">
        <ele>266</ele>
        <time>2017-08-09T10:16:57Z</time>
      </trkpt>
      <trkpt lat="45.93795" lon="4.83835">
        <ele>266</ele>
        <time>2017-08-09T10:16:58Z</time>
      </trkpt>
      <trkpt lat="45.93797" lon="4.83826">
        <ele>266</ele>
        <time>2017-08-09T10:16:59Z</time>
      </trkpt>
      <trkpt lat="45.938" lon="4.83817">
        <ele>266</ele>
        <time>2017-08-09T10:17:00Z</time>
      </trkpt>
      <trkpt lat="45.93802" lon="4.83808">
        <ele>266</ele>
        <time>2017-08-09T10:17:01Z</time>
      </trkpt>
      <trkpt lat="45.93804" lon="4.83799">
        <ele>266</ele>
        <time>2017-08-09T10:17:02Z</time>
      </trkpt>
      <trkpt lat="45.93807" lon="4.8379">
        <ele>266</ele>
        <time>2017-08-09T10:17:03Z</time>
      </trkpt>
      <trkpt lat="45.93809" lon="4.83782">
        <ele>266</ele>
        <time>2017-08-09T10:17:04Z</time>
      </trkpt>
      <trkpt lat="45.93811" lon="4.83773">
        <ele>266</ele>
        <time>2017-08-09T10:17:05Z</time>
      </trkpt>
      <trkpt lat="45.93813" lon="4.83765">
        <ele>266</ele>
        <time>2017-08-09T10:17:06Z</time>
      </trkpt>
      <trkpt lat="45.93816" lon="4.83757">
        <ele>266</ele>
        <time>2017-08-09T10:17:07Z</time>
      </trkpt>
      <trkpt lat="45.93818" lon="4.83749">
        <ele>266</ele>
        <time>2017-08-09T10:17:08Z</time>
      </trkpt>
      <trkpt lat="45.9382" lon="4.83742">
        <ele>266</ele>
        <time>2017-08-09T10:17:09Z</time>
      </trkpt>
      <trkpt lat="45.93821" lon="4.83735">
        <ele>266</ele>
        <time>2017-08-09T10:17:10Z</time>
      </trkpt>
      <trkpt lat="45.93823" lon="4.83728">
        <ele>266</ele>
        <time>2017-08-09T10:17:11Z</time>
      </trkpt>
      <trkpt lat="45.93825" lon="4.83721">
        <ele>266</ele>
        <time>2017-08-09T10:17:12Z</time>
      </trkpt>
      <trkpt lat="45.93827" lon="4.83714">
        <ele>266</ele>
        <time>2017-08-09T10:17:13Z</time>
      </trkpt>
      <trkpt lat="45.93829" lon="4.83708">
        <ele>266</ele>
        <time>2017-08-09T10:17:14Z</time>
      </trkpt>
      <trkpt lat="45.93831" lon="4.83701">
        <ele>266</ele>
        <time>2017-08-09T10:17:15Z</time>
      </trkpt>
      <trkpt lat="45.93832" lon="4.83694">
        <ele>266</ele>
        <time>2017-08-09T10:17:16Z</time>
      </trkpt>
      <trkpt lat="45.93835" lon="4.83686">
        <ele>265</ele>
        <time>2017-08-09T10:17:17Z</time>
      </trkpt>
      <trkpt lat="45.93837" lon="4.83679">
        <ele>265</ele>
        <time>2017-08-09T10:17:18Z</time>
      </trkpt>
      <trkpt lat="45.93839" lon="4.8367">
        <ele>265</ele>
        <time>2017-08-09T10:17:19Z</time>
      </trkpt>
      <trkpt lat="45.93842" lon="4.83662">
        <ele>265</ele>
        <time>2017-08-09T10:17:20Z</time>
      </trkpt>
      <trkpt lat="45.93844" lon="4.83653">
        <ele>265</ele>
        <time>2017-08-09T10:17:21Z</time>
      </trkpt>
      <trkpt lat="45.93847" lon="4.83644">
        <ele>265</ele>
        <time>2017-08-09T10:17:22Z</time>
      </trkpt>
      <trkpt lat="45.93851" lon="4.83635">
        <ele>265</ele>
        <time>2017-08-09T10:17:23Z</time>
      </trkpt>
      <trkpt lat="45.93853" lon="4.83626">
        <ele>265</ele>
        <time>2017-08-09T10:17:24Z</time>
      </trkpt>
      <trkpt lat="45.93856" lon="4.83618">
        <ele>265</ele>
        <time>2017-08-09T10:17:25Z</time>
      </trkpt>
      <trkpt lat="45.93859" lon="4.8361">
        <ele>265</ele>
        <time>2017-08-09T10:17:26Z</time>
      </trkpt>
      <trkpt lat="45.93863" lon="4.83603">
        <ele>265</ele>
        <time>2017-08-09T10:17:27Z</time>
      </trkpt>
      <trkpt lat="45.93866" lon="4.83595">
        <ele>265</ele>
        <time>2017-08-09T10:17:28Z</time>
      </trkpt>
      <trkpt lat="45.9387" lon="4.83587">
        <ele>265</ele>
        <time>2017-08-09T10:17:29Z</time>
      </trkpt>
      <trkpt lat="45.93874" lon="4.8358">
        <ele>265</ele>
        <time>2017-08-09T10:17:30Z</time>
      </trkpt>
      <trkpt lat="45.93878" lon="4.83573">
        <ele>265</ele>
        <time>2017-08-09T10:17:31Z</time>
      </trkpt>
      <trkpt lat="45.93882" lon="4.83565">
        <ele>265</ele>
        <time>2017-08-09T10:17:32Z</time>
      </trkpt>
      <trkpt lat="45.93886" lon="4.83558">
        <ele>265</ele>
        <time>2017-08-09T10:17:33Z</time>
      </trkpt>
      <trkpt lat="45.9389" lon="4.83552">
        <ele>265</ele>
        <time>2017-08-09T10:17:34Z</time>
      </trkpt>
      <trkpt lat="45.93894" lon="4.83545">
        <ele>265</ele>
        <time>2017-08-09T10:17:35Z</time>
      </trkpt>
      <trkpt lat="45.93898" lon="4.83539">
        <ele>265</ele>
        <time>2017-08-09T10:17:36Z</time>
      </trkpt>
      <trkpt lat="45.93901" lon="4.83533">
        <ele>265</ele>
        <time>2017-08-09T10:17:37Z</time>
      </trkpt>
      <trkpt lat="45.93905" lon="4.83527">
        <ele>265</ele>
        <time>2017-08-09T10:17:38Z</time>
      </trkpt>
      <trkpt lat="45.93908" lon="4.83522">
        <ele>265</ele>
        <time>2017-08-09T10:17:39Z</time>
      </trkpt>
      <trkpt lat="45.93912" lon="4.83517">
        <ele>265</ele>
        <time>2017-08-09T10:17:40Z</time>
      </trkpt>
      <trkpt lat="45.93915" lon="4.83512">
        <ele>265</ele>
        <time>2017-08-09T10:17:41Z</time>
      </trkpt>
      <trkpt lat="45.93918" lon="4.83507">
        <ele>265</ele>
        <time>2017-08-09T10:17:42Z</time>
      </trkpt>
      <trkpt lat="45.93922" lon="4.83502">
        <ele>265</ele>
        <time>2017-08-09T10:17:43Z</time>
      </trkpt>
      <trkpt lat="45.93925" lon="4.83496">
        <ele>265</ele>
        <time>2017-08-09T10:17:44Z</time>
      </trkpt>
      <trkpt lat="45.93929" lon="4.83489">
        <ele>265</ele>
        <time>2017-08-09T10:17:45Z</time>
      </trkpt>
      <trkpt lat="45.93933" lon="4.83483">
        <ele>265</ele>
        <time>2017-08-09T10:17:46Z</time>
      </trkpt>
      <trkpt lat="45.93938" lon="4.83476">
        <ele>265</ele>
        <time>2017-08-09T10:17:47Z</time>
      </trkpt>
      <trkpt lat="45.93942" lon="4.8347">
        <ele>265</ele>
        <time>2017-08-09T10:17:48Z</time>
      </trkpt>
      <trkpt lat="45.93946" lon="4.83464">
        <ele>265</ele>
        <time>2017-08-09T10:17:49Z</time>
      </trkpt>
      <trkpt lat="45.9395" lon="4.83458">
        <ele>265</ele>
        <time>2017-08-09T10:17:50Z</time>
      </trkpt>
      <trkpt lat="45.93954" lon="4.83452">
        <ele>265</ele>
        <time>2017-08-09T10:17:51Z</time>
      </trkpt>
      <trkpt lat="45.93958" lon="4.83447">
        <ele>265</ele>
        <time>2017-08-09T10:17:52Z</time>
      </trkpt>
      <trkpt lat="45.93961" lon="4.83442">
        <ele>265</ele>
        <time>2017-08-09T10:17:53Z</time>
      </trkpt>
      <trkpt lat="45.93965" lon="4.83437">
        <ele>265</ele>
        <time>2017-08-09T10:17:54Z</time>
      </trkpt>
      <trkpt lat="45.93968" lon="4.83432">
        <ele>265</ele>
        <time>2017-08-09T10:17:55Z</time>
      </trkpt>
      <trkpt lat="45.93972" lon="4.83426">
        <ele>265</ele>
        <time>2017-08-09T10:17:56Z</time>
      </trkpt>
      <trkpt lat="45.93975" lon="4.83421">
        <ele>265</ele>
        <time>2017-08-09T10:17:57Z</time>
      </trkpt>
      <trkpt lat="45.93979" lon="4.83415">
        <ele>266</ele>
        <time>2017-08-09T10:17:58Z</time>
      </trkpt>
      <trkpt lat="45.93983" lon="4.83409">
        <ele>266</ele>
        <time>2017-08-09T10:17:59Z</time>
      </trkpt>
      <trkpt lat="45.93987" lon="4.83403">
        <ele>266</ele>
        <time>2017-08-09T10:18:00Z</time>
      </trkpt>
      <trkpt lat="45.93992" lon="4.83396">
        <ele>266</ele>
        <time>2017-08-09T10:18:01Z</time>
      </trkpt>
      <trkpt lat="45.93996" lon="4.8339">
        <ele>266</ele>
        <time>2017-08-09T10:18:02Z</time>
      </trkpt>
      <trkpt lat="45.94" lon="4.83383">
        <ele>266</ele>
        <time>2017-08-09T10:18:03Z</time>
      </trkpt>
      <trkpt lat="45.94005" lon="4.83377">
        <ele>266</ele>
        <time>2017-08-09T10:18:04Z</time>
      </trkpt>
      <trkpt lat="45.94009" lon="4.8337">
        <ele>266</ele>
        <time>2017-08-09T10:18:05Z</time>
      </trkpt>
      <trkpt lat="45.94013" lon="4.83364">
        <ele>266</ele>
        <time>2017-08-09T10:18:06Z</time>
      </trkpt>
      <trkpt lat="45.94017" lon="4.83358">
        <ele>266</ele>
        <time>2017-08-09T10:18:07Z</time>
      </trkpt>
      <trkpt lat="45.94022" lon="4.83352">
        <ele>266</ele>
        <time>2017-08-09T10:18:08Z</time>
      </trkpt>
      <trkpt lat="45.94026" lon="4.83346">
        <ele>266</ele>
        <time>2017-08-09T10:18:09Z</time>
      </trkpt>
      <trkpt lat="45.9403" lon="4.8334">
        <ele>266</ele>
        <time>2017-08-09T10:18:10Z</time>
      </trkpt>
      <trkpt lat="45.94034" lon="4.83334">
        <ele>266</ele>
        <time>2017-08-09T10:18:11Z</time>
      </trkpt>
      <trkpt lat="45.94038" lon="4.83329">
        <ele>266</ele>
        <time>2017-08-09T10:18:12Z</time>
      </trkpt>
      <trkpt lat="45.94041" lon="4.83324">
        <ele>266</ele>
        <time>2017-08-09T10:18:13Z</time>
      </trkpt>
      <trkpt lat="45.94045" lon="4.83318">
        <ele>266</ele>
        <time>2017-08-09T10:18:14Z</time>
      </trkpt>
      <trkpt lat="45.94048" lon="4.83313">
        <ele>266</ele>
        <time>2017-08-09T10:18:15Z</time>
      </trkpt>
      <trkpt lat="45.94052" lon="4.83308">
        <ele>266</ele>
        <time>2017-08-09T10:18:16Z</time>
      </trkpt>
      <trkpt lat="45.94055" lon="4.83302">
        <ele>266</ele>
        <time>2017-08-09T10:18:17Z</time>
      </trkpt>
      <trkpt lat="45.94059" lon="4.83297">
        <ele>266</ele>
        <time>2017-08-09T10:18:18Z</time>
      </trkpt>
      <trkpt lat="45.94063" lon="4.8329">
        <ele>266</ele>
        <time>2017-08-09T10:18:19Z</time>
      </trkpt>
      <trkpt lat="45.94068" lon="4.83284">
        <ele>266</ele>
        <time>2017-08-09T10:18:20Z</time>
      </trkpt>
      <trkpt lat="45.94073" lon="4.83276">
        <ele>266</ele>
        <time>2017-08-09T10:18:21Z</time>
      </trkpt>
      <trkpt lat="45.94078" lon="4.83269">
        <ele>266</ele>
        <time>2017-08-09T10:18:22Z</time>
      </trkpt>
      <trkpt lat="45.94082" lon="4.83262">
        <ele>266</ele>
        <time>2017-08-09T10:18:23Z</time>
      </trkpt>
      <trkpt lat="45.94087" lon="4.83254">
        <ele>266</ele>
        <time>2017-08-09T10:18:24Z</time>
      </trkpt>
      <trkpt lat="45.94092" lon="4.83247">
        <ele>266</ele>
        <time>2017-08-09T10:18:25Z</time>
      </trkpt>
      <trkpt lat="45.94097" lon="4.8324">
        <ele>266</ele>
        <time>2017-08-09T10:18:26Z</time>
      </trkpt>
      <trkpt lat="45.94102" lon="4.83233">
        <ele>266</ele>
        <time>2017-08-09T10:18:27Z</time>
      </trkpt>
      <trkpt lat="45.94106" lon="4.83226">
        <ele>266</ele>
        <time>2017-08-09T10:18:28Z</time>
      </trkpt>
      <trkpt lat="45.94111" lon="4.8322">
        <ele>266</ele>
        <time>2017-08-09T10:18:29Z</time>
      </trkpt>
      <trkpt lat="45.94115" lon="4.83214">
        <ele>266</ele>
        <time>2017-08-09T10:18:30Z</time>
      </trkpt>
      <trkpt lat="45.9412" lon="4.83208">
        <ele>266</ele>
        <time>2017-08-09T10:18:31Z</time>
      </trkpt>
      <trkpt lat="45.94124" lon="4.83201">
        <ele>266</ele>
        <time>2017-08-09T10:18:32Z</time>
      </trkpt>
      <trkpt lat="45.94128" lon="4.83195">
        <ele>266</ele>
        <time>2017-08-09T10:18:33Z</time>
      </trkpt>
      <trkpt lat="45.94132" lon="4.83189">
        <ele>266</ele>
        <time>2017-08-09T10:18:34Z</time>
      </trkpt>
      <trkpt lat="45.94136" lon="4.83184">
        <ele>266</ele>
        <time>2017-08-09T10:18:35Z</time>
      </trkpt>
      <trkpt lat="45.94139" lon="4.83178">
        <ele>266</ele>
        <time>2017-08-09T10:18:36Z</time>
      </trkpt>
      <trkpt lat="45.94143" lon="4.83173">
        <ele>265</ele>
        <time>2017-08-09T10:18:37Z</time>
      </trkpt>
      <trkpt lat="45.94146" lon="4.83168">
        <ele>265</ele>
        <time>2017-08-09T10:18:38Z</time>
      </trkpt>
      <trkpt lat="45.9415" lon="4.83162">
        <ele>265</ele>
        <time>2017-08-09T10:18:39Z</time>
      </trkpt>
      <trkpt lat="45.94154" lon="4.83156">
        <ele>265</ele>
        <time>2017-08-09T10:18:40Z</time>
      </trkpt>
      <trkpt lat="45.94157" lon="4.83149">
        <ele>265</ele>
        <time>2017-08-09T10:18:41Z</time>
      </trkpt>
      <trkpt lat="45.94161" lon="4.83143">
        <ele>265</ele>
        <time>2017-08-09T10:18:42Z</time>
      </trkpt>
      <trkpt lat="45.94166" lon="4.83136">
        <ele>265</ele>
        <time>2017-08-09T10:18:43Z</time>
      </trkpt>
      <trkpt lat="45.9417" lon="4.83129">
        <ele>265</ele>
        <time>2017-08-09T10:18:44Z</time>
      </trkpt>
      <trkpt lat="45.94175" lon="4.83122">
        <ele>265</ele>
        <time>2017-08-09T10:18:45Z</time>
      </trkpt>
      <trkpt lat="45.94179" lon="4.83116">
        <ele>265</ele>
        <time>2017-08-09T10:18:46Z</time>
      </trkpt>
      <trkpt lat="45.94184" lon="4.8311">
        <ele>265</ele>
        <time>2017-08-09T10:18:47Z</time>
      </trkpt>
      <trkpt lat="45.94188" lon="4.83104">
        <ele>265</ele>
        <time>2017-08-09T10:18:48Z</time>
      </trkpt>
      <trkpt lat="45.94192" lon="4.83097">
        <ele>265</ele>
        <time>2017-08-09T10:18:49Z</time>
      </trkpt>
      <trkpt lat="45.94197" lon="4.83091">
        <ele>265</ele>
        <time>2017-08-09T10:18:50Z</time>
      </trkpt>
      <trkpt lat="45.942" lon="4.83085">
        <ele>265</ele>
        <time>2017-08-09T10:18:51Z</time>
      </trkpt>
      <trkpt lat="45.94204" lon="4.83079">
        <ele>265</ele>
        <time>2017-08-09T10:18:52Z</time>
      </trkpt>
      <trkpt lat="45.94208" lon="4.83074">
        <ele>265</ele>
        <time>2017-08-09T10:18:53Z</time>
      </trkpt>
      <trkpt lat="45.94212" lon="4.83068">
        <ele>266</ele>
        <time>2017-08-09T10:18:54Z</time>
      </trkpt>
      <trkpt lat="45.94216" lon="4.83063">
        <ele>266</ele>
        <time>2017-08-09T10:18:55Z</time>
      </trkpt>
      <trkpt lat="45.9422" lon="4.83057">
        <ele>266</ele>
        <time>2017-08-09T10:18:56Z</time>
      </trkpt>
      <trkpt lat="45.94224" lon="4.83051">
        <ele>266</ele>
        <time>2017-08-09T10:18:57Z</time>
      </trkpt>
      <trkpt lat="45.94229" lon="4.83045">
        <ele>266</ele>
        <time>2017-08-09T10:18:58Z</time>
      </trkpt>
      <trkpt lat="45.94233" lon="4.83038">
        <ele>266</ele>
        <time>2017-08-09T10:18:59Z</time>
      </trkpt>
      <trkpt lat="45.94238" lon="4.8303">
        <ele>266</ele>
        <time>2017-08-09T10:19:00Z</time>
      </trkpt>
      <trkpt lat="45.94243" lon="4.83023">
        <ele>266</ele>
        <time>2017-08-09T10:19:01Z</time>
      </trkpt>
      <trkpt lat="45.94247" lon="4.83016">
        <ele>266</ele>
        <time>2017-08-09T10:19:02Z</time>
      </trkpt>
      <trkpt lat="45.94252" lon="4.83009">
        <ele>266</ele>
        <time>2017-08-09T10:19:03Z</time>
      </trkpt>
      <trkpt lat="45.94256" lon="4.83003">
        <ele>266</ele>
        <time>2017-08-09T10:19:04Z</time>
      </trkpt>
      <trkpt lat="45.9426" lon="4.82996">
        <ele>266</ele>
        <time>2017-08-09T10:19:05Z</time>
      </trkpt>
      <trkpt lat="45.94264" lon="4.82989">
        <ele>266</ele>
        <time>2017-08-09T10:19:06Z</time>
      </trkpt>
      <trkpt lat="45.94268" lon="4.82982">
        <ele>265</ele>
        <time>2017-08-09T10:19:07Z</time>
      </trkpt>
      <trkpt lat="45.94271" lon="4.82975">
        <ele>265</ele>
        <time>2017-08-09T10:19:08Z</time>
      </trkpt>
      <trkpt lat="45.94274" lon="4.82968">
        <ele>265</ele>
        <time>2017-08-09T10:19:09Z</time>
      </trkpt>
      <trkpt lat="45.94277" lon="4.82961">
        <ele>265</ele>
        <time>2017-08-09T10:19:10Z</time>
      </trkpt>
      <trkpt lat="45.9428" lon="4.82953">
        <ele>265</ele>
        <time>2017-08-09T10:19:11Z</time>
      </trkpt>
      <trkpt lat="45.94282" lon="4.82946">
        <ele>265</ele>
        <time>2017-08-09T10:19:12Z</time>
      </trkpt>
      <trkpt lat="45.94284" lon="4.82938">
        <ele>265</ele>
        <time>2017-08-09T10:19:13Z</time>
      </trkpt>
      <trkpt lat="45.94285" lon="4.82931">
        <ele>265</ele>
        <time>2017-08-09T10:19:14Z</time>
      </trkpt>
      <trkpt lat="45.94287" lon="4.82924">
        <ele>265</ele>
        <time>2017-08-09T10:19:15Z</time>
      </trkpt>
      <trkpt lat="45.94288" lon="4.82916">
        <ele>265</ele>
        <time>2017-08-09T10:19:16Z</time>
      </trkpt>
      <trkpt lat="45.94289" lon="4.82908">
        <ele>265</ele>
        <time>2017-08-09T10:19:17Z</time>
      </trkpt>
      <trkpt lat="45.9429" lon="4.829">
        <ele>265</ele>
        <time>2017-08-09T10:19:18Z</time>
      </trkpt>
      <trkpt lat="45.94291" lon="4.82891">
        <ele>265</ele>
        <time>2017-08-09T10:19:19Z</time>
      </trkpt>
      <trkpt lat="45.94291" lon="4.82882">
        <ele>265</ele>
        <time>2017-08-09T10:19:20Z</time>
      </trkpt>
      <trkpt lat="45.94292" lon="4.82872">
        <ele>265</ele>
        <time>2017-08-09T10:19:21Z</time>
      </trkpt>
      <trkpt lat="45.94292" lon="4.82862">
        <ele>265</ele>
        <time>2017-08-09T10:19:22Z</time>
      </trkpt>
      <trkpt lat="45.94292" lon="4.82852">
        <ele>265</ele>
        <time>2017-08-09T10:19:23Z</time>
      </trkpt>
      <trkpt lat="45.94293" lon="4.82843">
        <ele>265</ele>
        <time>2017-08-09T10:19:24Z</time>
      </trkpt>
      <trkpt lat="45.94293" lon="4.82833">
        <ele>265</ele>
        <time>2017-08-09T10:19:25Z</time>
      </trkpt>
      <trkpt lat="45.94293" lon="4.82824">
        <ele>265</ele>
        <time>2017-08-09T10:19:26Z</time>
      </trkpt>
      <trkpt lat="45.94294" lon="4.82815">
        <ele>265</ele>
        <time>2017-08-09T10:19:27Z</time>
      </trkpt>
      <trkpt lat="45.94294" lon="4.82807">
        <ele>265</ele>
        <time>2017-08-09T10:19:28Z</time>
      </trkpt>
      <trkpt lat="45.94294" lon="4.82799">
        <ele>265</ele>
        <time>2017-08-09T10:19:29Z</time>
      </trkpt>
      <trkpt lat="45.94294" lon="4.8279">
        <ele>265</ele>
        <time>2017-08-09T10:19:30Z</time>
      </trkpt>
      <trkpt lat="45.94294" lon="4.82782">
        <ele>265</ele>
        <time>2017-08-09T10:19:31Z</time>
      </trkpt>
      <trkpt lat="45.94295" lon="4.82774">
        <ele>265</ele>
        <time>2017-08-09T10:19:32Z</time>
      </trkpt>
      <trkpt lat="45.94294" lon="4.82766">
        <ele>265</ele>
        <time>2017-08-09T10:19:33Z</time>
      </trkpt>
      <trkpt lat="45.94294" lon="4.82758">
        <ele>265</ele>
        <time>2017-08-09T10:19:34Z</time>
      </trkpt>
      <trkpt lat="45.94294" lon="4.82749">
        <ele>265</ele>
        <time>2017-08-09T10:19:35Z</time>
      </trkpt>
      <trkpt lat="45.94294" lon="4.82741">
        <ele>265</ele>
        <time>2017-08-09T10:19:36Z</time>
      </trkpt>
      <trkpt lat="45.94294" lon="4.82732">
        <ele>265</ele>
        <time>2017-08-09T10:19:37Z</time>
      </trkpt>
      <trkpt lat="45.94294" lon="4.82723">
        <ele>265</ele>
        <time>2017-08-09T10:19:38Z</time>
      </trkpt>
      <trkpt lat="45.94295" lon="4.82713">
        <ele>265</ele>
        <time>2017-08-09T10:19:39Z</time>
      </trkpt>
      <trkpt lat="45.94295" lon="4.82704">
        <ele>265</ele>
        <time>2017-08-09T10:19:40Z</time>
      </trkpt>
      <trkpt lat="45.94295" lon="4.82694">
        <ele>265</ele>
        <time>2017-08-09T10:19:41Z</time>
      </trkpt>
      <trkpt lat="45.94295" lon="4.82684">
        <ele>265</ele>
        <time>2017-08-09T10:19:42Z</time>
      </trkpt>
      <trkpt lat="45.94295" lon="4.82675">
        <ele>265</ele>
        <time>2017-08-09T10:19:43Z</time>
      </trkpt>
      <trkpt lat="45.94295" lon="4.82666">
        <ele>265</ele>
        <time>2017-08-09T10:19:44Z</time>
      </trkpt>
      <trkpt lat="45.94296" lon="4.82657">
        <ele>265</ele>
        <time>2017-08-09T10:19:45Z</time>
      </trkpt>
      <trkpt lat="45.94296" lon="4.82649">
        <ele>265</ele>
        <time>2017-08-09T10:19:46Z</time>
      </trkpt>
      <trkpt lat="45.94296" lon="4.82641">
        <ele>265</ele>
        <time>2017-08-09T10:19:47Z</time>
      </trkpt>
      <trkpt lat="45.94296" lon="4.82633">
        <ele>265</ele>
        <time>2017-08-09T10:19:48Z</time>
      </trkpt>
      <trkpt lat="45.94296" lon="4.82625">
        <ele>265</ele>
        <time>2017-08-09T10:19:49Z</time>
      </trkpt>
      <trkpt lat="45.94296" lon="4.82617">
        <ele>265</ele>
        <time>2017-08-09T10:19:50Z</time>
      </trkpt>
      <trkpt lat="45.94296" lon="4.8261">
        <ele>265</ele>
        <time>2017-08-09T10:19:51Z</time>
      </trkpt>
      <trkpt lat="45.94296" lon="4.82602">
        <ele>265</ele>
        <time>2017-08-09T10:19:52Z</time>
      </trkpt>
      <trkpt lat="45.94296" lon="4.82593">
        <ele>265</ele>
        <time>2017-08-09T10:19:53Z</time>
      </trkpt>
      <trkpt lat="45.94297" lon="4.82584">
        <ele>265</ele>
        <time>2017-08-09T10:19:54Z</time>
      </trkpt>
      <trkpt lat="45.94297" lon="4.82575">
        <ele>264</ele>
        <time>2017-08-09T10:19:55Z</time>
      </trkpt>
      <trkpt lat="45.94297" lon="4.82566">
        <ele>264</ele>
        <time>2017-08-09T10:19:56Z</time>
      </trkpt>
      <trkpt lat="45.94297" lon="4.82556">
        <ele>264</ele>
        <time>2017-08-09T10:19:57Z</time>
      </trkpt>
      <trkpt lat="45.94298" lon="4.82547">
        <ele>264</ele>
        <time>2017-08-09T10:19:58Z</time>
      </trkpt>
      <trkpt lat="45.94298" lon="4.82538">
        <ele>264</ele>
        <time>2017-08-09T10:19:59Z</time>
      </trkpt>
      <trkpt lat="45.94298" lon="4.8253">
        <ele>264</ele>
        <time>2017-08-09T10:20:00Z</time>
      </trkpt>
      <trkpt lat="45.94298" lon="4.82521">
        <ele>264</ele>
        <time>2017-08-09T10:20:01Z</time>
      </trkpt>
      <trkpt lat="45.94298" lon="4.82513">
        <ele>264</ele>
        <time>2017-08-09T10:20:02Z</time>
      </trkpt>
      <trkpt lat="45.94298" lon="4.82504">
        <ele>264</ele>
        <time>2017-08-09T10:20:03Z</time>
      </trkpt>
      <trkpt lat="45.94298" lon="4.82496">
        <ele>264</ele>
        <time>2017-08-09T10:20:04Z</time>
      </trkpt>
      <trkpt lat="45.94297" lon="4.82488">
        <ele>264</ele>
        <time>2017-08-09T10:20:05Z</time>
      </trkpt>
      <trkpt lat="45.94297" lon="4.82481">
        <ele>264</ele>
        <time>2017-08-09T10:20:06Z</time>
      </trkpt>
      <trkpt lat="45.94297" lon="4.82473">
        <ele>264</ele>
        <time>2017-08-09T10:20:07Z</time>
      </trkpt>
      <trkpt lat="45.94297" lon="4.82464">
        <ele>264</ele>
        <time>2017-08-09T10:20:08Z</time>
      </trkpt>
      <trkpt lat="45.94296" lon="4.82456">
        <ele>264</ele>
        <time>2017-08-09T10:20:09Z</time>
      </trkpt>
      <trkpt lat="45.94296" lon="4.82448">
        <ele>264</ele>
        <time>2017-08-09T10:20:10Z</time>
      </trkpt>
      <trkpt lat="45.94296" lon="4.82439">
        <ele>264</ele>
        <time>2017-08-09T10:20:11Z</time>
      </trkpt>
      <trkpt lat="45.94295" lon="4.82431">
        <ele>264</ele>
        <time>2017-08-09T10:20:12Z</time>
      </trkpt>
      <trkpt lat="45.94295" lon="4.82423">
        <ele>264</ele>
        <time>2017-08-09T10:20:13Z</time>
      </trkpt>
      <trkpt lat="45.94294" lon="4.82415">
        <ele>264</ele>
        <time>2017-08-09T10:20:14Z</time>
      </trkpt>
      <trkpt lat="45.94294" lon="4.82407">
        <ele>264</ele>
        <time>2017-08-09T10:20:15Z</time>
      </trkpt>
      <trkpt lat="45.94294" lon="4.82399">
        <ele>264</ele>
        <time>2017-08-09T10:20:16Z</time>
      </trkpt>
      <trkpt lat="45.94293" lon="4.8239">
        <ele>264</ele>
        <time>2017-08-09T10:20:17Z</time>
      </trkpt>
      <trkpt lat="45.94293" lon="4.82381">
        <ele>264</ele>
        <time>2017-08-09T10:20:18Z</time>
      </trkpt>
      <trkpt lat="45.94292" lon="4.82372">
        <ele>264</ele>
        <time>2017-08-09T10:20:19Z</time>
      </trkpt>
      <trkpt lat="45.94292" lon="4.82363">
        <ele>264</ele>
        <time>2017-08-09T10:20:20Z</time>
      </trkpt>
      <trkpt lat="45.94291" lon="4.82353">
        <ele>264</ele>
        <time>2017-08-09T10:20:21Z</time>
      </trkpt>
      <trkpt lat="45.94291" lon="4.82343">
        <ele>264</ele>
        <time>2017-08-09T10:20:22Z</time>
      </trkpt>
      <trkpt lat="45.9429" lon="4.82334">
        <ele>264</ele>
        <time>2017-08-09T10:20:23Z</time>
      </trkpt>
      <trkpt lat="45.9429" lon="4.82325">
        <ele>265</ele>
        <time>2017-08-09T10:20:24Z</time>
      </trkpt>
      <trkpt lat="45.94289" lon="4.82316">
        <ele>265</ele>
        <time>2017-08-09T10:20:25Z</time>
      </trkpt>
      <trkpt lat="45.94289" lon="4.82307">
        <ele>265</ele>
        <time>2017-08-09T10:20:26Z</time>
      </trkpt>
      <trkpt lat="45.94288" lon="4.82298">
        <ele>265</ele>
        <time>2017-08-09T10:20:27Z</time>
      </trkpt>
      <trkpt lat="45.94288" lon="4.82289">
        <ele>265</ele>
        <time>2017-08-09T10:20:28Z</time>
      </trkpt>
      <trkpt lat="45.94287" lon="4.8228">
        <ele>265</ele>
        <time>2017-08-09T10:20:29Z</time>
      </trkpt>
      <trkpt lat="45.94287" lon="4.82271">
        <ele>265</ele>
        <time>2017-08-09T10:20:30Z</time>
      </trkpt>
      <trkpt lat="45.94287" lon="4.82263">
        <ele>265</ele>
        <time>2017-08-09T10:20:31Z</time>
      </trkpt>
      <trkpt lat="45.94286" lon="4.82254">
        <ele>265</ele>
        <time>2017-08-09T10:20:32Z</time>
      </trkpt>
      <trkpt lat="45.94285" lon="4.82245">
        <ele>264</ele>
        <time>2017-08-09T10:20:33Z</time>
      </trkpt>
      <trkpt lat="45.94285" lon="4.82235">
        <ele>264</ele>
        <time>2017-08-09T10:20:34Z</time>
      </trkpt>
      <trkpt lat="45.94284" lon="4.82225">
        <ele>264</ele>
        <time>2017-08-09T10:20:35Z</time>
      </trkpt>
      <trkpt lat="45.94283" lon="4.82215">
        <ele>264</ele>
        <time>2017-08-09T10:20:36Z</time>
      </trkpt>
      <trkpt lat="45.94282" lon="4.82205">
        <ele>264</ele>
        <time>2017-08-09T10:20:37Z</time>
      </trkpt>
      <trkpt lat="45.94281" lon="4.82196">
        <ele>264</ele>
        <time>2017-08-09T10:20:38Z</time>
      </trkpt>
      <trkpt lat="45.9428" lon="4.82187">
        <ele>264</ele>
        <time>2017-08-09T10:20:39Z</time>
      </trkpt>
      <trkpt lat="45.94278" lon="4.82178">
        <ele>264</ele>
        <time>2017-08-09T10:20:40Z</time>
      </trkpt>
      <trkpt lat="45.94277" lon="4.82169">
        <ele>264</ele>
        <time>2017-08-09T10:20:41Z</time>
      </trkpt>
      <trkpt lat="45.94275" lon="4.8216">
        <ele>263</ele>
        <time>2017-08-09T10:20:42Z</time>
      </trkpt>
      <trkpt lat="45.94274" lon="4.82151">
        <ele>263</ele>
        <time>2017-08-09T10:20:43Z</time>
      </trkpt>
      <trkpt lat="45.94272" lon="4.82143">
        <ele>263</ele>
        <time>2017-08-09T10:20:44Z</time>
      </trkpt>
      <trkpt lat="45.9427" lon="4.82134">
        <ele>263</ele>
        <time>2017-08-09T10:20:45Z</time>
      </trkpt>
      <trkpt lat="45.94268" lon="4.82124">
        <ele>263</ele>
        <time>2017-08-09T10:20:46Z</time>
      </trkpt>
      <trkpt lat="45.94267" lon="4.82115">
        <ele>263</ele>
        <time>2017-08-09T10:20:47Z</time>
      </trkpt>
      <trkpt lat="45.94265" lon="4.82105">
        <ele>263</ele>
        <time>2017-08-09T10:20:48Z</time>
      </trkpt>
      <trkpt lat="45.94263" lon="4.82096">
        <ele>262</ele>
        <time>2017-08-09T10:20:49Z</time>
      </trkpt>
      <trkpt lat="45.94261" lon="4.82086">
        <ele>262</ele>
        <time>2017-08-09T10:20:50Z</time>
      </trkpt>
      <trkpt lat="45.94259" lon="4.82077">
        <ele>262</ele>
        <time>2017-08-09T10:20:51Z</time>
      </trkpt>
      <trkpt lat="45.94257" lon="4.82068">
        <ele>262</ele>
        <time>2017-08-09T10:20:52Z</time>
      </trkpt>
      <trkpt lat="45.94255" lon="4.82059">
        <ele>262</ele>
        <time>2017-08-09T10:20:53Z</time>
      </trkpt>
      <trkpt lat="45.94253" lon="4.8205">
        <ele>262</ele>
        <time>2017-08-09T10:20:54Z</time>
      </trkpt>
      <trkpt lat="45.94251" lon="4.82042">
        <ele>262</ele>
        <time>2017-08-09T10:20:55Z</time>
      </trkpt>
      <trkpt lat="45.9425" lon="4.82034">
        <ele>263</ele>
        <time>2017-08-09T10:20:56Z</time>
      </trkpt>
      <trkpt lat="45.94248" lon="4.82027">
        <ele>263</ele>
        <time>2017-08-09T10:20:57Z</time>
      </trkpt>
      <trkpt lat="45.94246" lon="4.82018">
        <ele>263</ele>
        <time>2017-08-09T10:20:58Z</time>
      </trkpt>
      <trkpt lat="45.94244" lon="4.8201">
        <ele>263</ele>
        <time>2017-08-09T10:20:59Z</time>
      </trkpt>
      <trkpt lat="45.94243" lon="4.82001">
        <ele>263</ele>
        <time>2017-08-09T10:21:00Z</time>
      </trkpt>
      <trkpt lat="45.94241" lon="4.81992">
        <ele>263</ele>
        <time>2017-08-09T10:21:01Z</time>
      </trkpt>
      <trkpt lat="45.94239" lon="4.81983">
        <ele>263</ele>
        <time>2017-08-09T10:21:02Z</time>
      </trkpt>
      <trkpt lat="45.94236" lon="4.81974">
        <ele>263</ele>
        <time>2017-08-09T10:21:03Z</time>
      </trkpt>
      <trkpt lat="45.94234" lon="4.81964">
        <ele>264</ele>
        <time>2017-08-09T10:21:04Z</time>
      </trkpt>
      <trkpt lat="45.94232" lon="4.81955">
        <ele>264</ele>
        <time>2017-08-09T10:21:05Z</time>
      </trkpt>
      <trkpt lat="45.9423" lon="4.81945">
        <ele>264</ele>
        <time>2017-08-09T10:21:06Z</time>
      </trkpt>
      <trkpt lat="45.94228" lon="4.81935">
        <ele>264</ele>
        <time>2017-08-09T10:21:07Z</time>
      </trkpt>
      <trkpt lat="45.94227" lon="4.81926">
        <ele>264</ele>
        <time>2017-08-09T10:21:08Z</time>
      </trkpt>
      <trkpt lat="45.94226" lon="4.81917">
        <ele>264</ele>
        <time>2017-08-09T10:21:09Z</time>
      </trkpt>
      <trkpt lat="45.94224" lon="4.81909">
        <ele>264</ele>
        <time>2017-08-09T10:21:10Z</time>
      </trkpt>
      <trkpt lat="45.94223" lon="4.81901">
        <ele>264</ele>
        <time>2017-08-09T10:21:11Z</time>
      </trkpt>
      <trkpt lat="45.94221" lon="4.81894">
        <ele>265</ele>
        <time>2017-08-09T10:21:12Z</time>
      </trkpt>
      <trkpt lat="45.9422" lon="4.81886">
        <ele>265</ele>
        <time>2017-08-09T10:21:13Z</time>
      </trkpt>
      <trkpt lat="45.94218" lon="4.81879">
        <ele>265</ele>
        <time>2017-08-09T10:21:14Z</time>
      </trkpt>
      <trkpt lat="45.94217" lon="4.81872">
        <ele>265</ele>
        <time>2017-08-09T10:21:15Z</time>
      </trkpt>
      <trkpt lat="45.94216" lon="4.81865">
        <ele>265</ele>
        <time>2017-08-09T10:21:16Z</time>
      </trkpt>
      <trkpt lat="45.94214" lon="4.81858">
        <ele>265</ele>
        <time>2017-08-09T10:21:17Z</time>
      </trkpt>
      <trkpt lat="45.94213" lon="4.81851">
        <ele>265</ele>
        <time>2017-08-09T10:21:18Z</time>
      </trkpt>
      <trkpt lat="45.94211" lon="4.81845">
        <ele>265</ele>
        <time>2017-08-09T10:21:19Z</time>
      </trkpt>
      <trkpt lat="45.9421" lon="4.81839">
        <ele>265</ele>
        <time>2017-08-09T10:21:20Z</time>
      </trkpt>
      <trkpt lat="45.94209" lon="4.81833">
        <ele>266</ele>
        <time>2017-08-09T10:21:21Z</time>
      </trkpt>
      <trkpt lat="45.94208" lon="4.81826">
        <ele>266</ele>
        <time>2017-08-09T10:21:22Z</time>
      </trkpt>
      <trkpt lat="45.94207" lon="4.8182">
        <ele>266</ele>
        <time>2017-08-09T10:21:23Z</time>
      </trkpt>
      <trkpt lat="45.94207" lon="4.81813">
        <ele>266</ele>
        <time>2017-08-09T10:21:24Z</time>
      </trkpt>
      <trkpt lat="45.94207" lon="4.81806">
        <ele>266</ele>
        <time>2017-08-09T10:21:25Z</time>
      </trkpt>
      <trkpt lat="45.94208" lon="4.818">
        <ele>266</ele>
        <time>2017-08-09T10:21:26Z</time>
      </trkpt>
      <trkpt lat="45.94208" lon="4.81793">
        <ele>266</ele>
        <time>2017-08-09T10:21:27Z</time>
      </trkpt>
      <trkpt lat="45.94209" lon="4.81786">
        <ele>265</ele>
        <time>2017-08-09T10:21:28Z</time>
      </trkpt>
      <trkpt lat="45.9421" lon="4.8178">
        <ele>265</ele>
        <time>2017-08-09T10:21:29Z</time>
      </trkpt>
      <trkpt lat="45.94211" lon="4.81773">
        <ele>265</ele>
        <time>2017-08-09T10:21:30Z</time>
      </trkpt>
      <trkpt lat="45.94213" lon="4.81767">
        <ele>265</ele>
        <time>2017-08-09T10:21:31Z</time>
      </trkpt>
      <trkpt lat="45.94215" lon="4.81761">
        <ele>265</ele>
        <time>2017-08-09T10:21:32Z</time>
      </trkpt>
      <trkpt lat="45.94217" lon="4.81754">
        <ele>265</ele>
        <time>2017-08-09T10:21:33Z</time>
      </trkpt>
      <trkpt lat="45.9422" lon="4.81748">
        <ele>265</ele>
        <time>2017-08-09T10:21:34Z</time>
      </trkpt>
      <trkpt lat="45.94222" lon="4.8174">
        <ele>265</ele>
        <time>2017-08-09T10:21:35Z</time>
      </trkpt>
      <trkpt lat="45.94222" lon="4.81732">
        <ele>265</ele>
        <time>2017-08-09T10:21:36Z</time>
      </trkpt>
      <trkpt lat="45.94222" lon="4.81724">
        <ele>266</ele>
        <time>2017-08-09T10:21:37Z</time>
      </trkpt>
      <trkpt lat="45.94219" lon="4.81718">
        <ele>266</ele>
        <time>2017-08-09T10:21:38Z</time>
      </trkpt>
      <trkpt lat="45.94215" lon="4.81713">
        <ele>266</ele>
        <time>2017-08-09T10:21:39Z</time>
      </trkpt>
      <trkpt lat="45.9421" lon="4.81709">
        <ele>266</ele>
        <time>2017-08-09T10:21:40Z</time>
      </trkpt>
      <trkpt lat="45.94206" lon="4.81706">
        <ele>266</ele>
        <time>2017-08-09T10:21:41Z</time>
      </trkpt>
      <trkpt lat="45.942" lon="4.81704">
        <ele>267</ele>
        <time>2017-08-09T10:21:42Z</time>
      </trkpt>
      <trkpt lat="45.94196" lon="4.817">
        <ele>267</ele>
        <time>2017-08-09T10:21:43Z</time>
      </trkpt>
      <trkpt lat="45.94191" lon="4.81695">
        <ele>267</ele>
        <time>2017-08-09T10:21:44Z</time>
      </trkpt>
      <trkpt lat="45.94187" lon="4.81688">
        <ele>267</ele>
        <time>2017-08-09T10:21:45Z</time>
      </trkpt>
      <trkpt lat="45.94183" lon="4.81681">
        <ele>267</ele>
        <time>2017-08-09T10:21:46Z</time>
      </trkpt>
      <trkpt lat="45.9418" lon="4.81673">
        <ele>268</ele>
        <time>2017-08-09T10:21:47Z</time>
      </trkpt>
      <trkpt lat="45.94178" lon="4.81664">
        <ele>268</ele>
        <time>2017-08-09T10:21:48Z</time>
      </trkpt>
      <trkpt lat="45.94176" lon="4.81653">
        <ele>268</ele>
        <time>2017-08-09T10:21:49Z</time>
      </trkpt>
      <trkpt lat="45.94174" lon="4.81642">
        <ele>268</ele>
        <time>2017-08-09T10:21:50Z</time>
      </trkpt>
      <trkpt lat="45.94172" lon="4.81631">
        <ele>267</ele>
        <time>2017-08-09T10:21:51Z</time>
      </trkpt>
      <trkpt lat="45.9417" lon="4.81619">
        <ele>267</ele>
        <time>2017-08-09T10:21:52Z</time>
      </trkpt>
      <trkpt lat="45.94167" lon="4.81608">
        <ele>267</ele>
        <time>2017-08-09T10:21:53Z</time>
      </trkpt>
      <trkpt lat="45.94165" lon="4.81597">
        <ele>267</ele>
        <time>2017-08-09T10:21:54Z</time>
      </trkpt>
      <trkpt lat="45.94163" lon="4.81585">
        <ele>267</ele>
        <time>2017-08-09T10:21:55Z</time>
      </trkpt>
      <trkpt lat="45.94162" lon="4.81574">
        <ele>266</ele>
        <time>2017-08-09T10:21:56Z</time>
      </trkpt>
      <trkpt lat="45.94161" lon="4.81562">
        <ele>265</ele>
        <time>2017-08-09T10:21:57Z</time>
      </trkpt>
      <trkpt lat="45.94161" lon="4.81549">
        <ele>264</ele>
        <time>2017-08-09T10:21:58Z</time>
      </trkpt>
      <trkpt lat="45.94161" lon="4.81537">
        <ele>264</ele>
        <time>2017-08-09T10:21:59Z</time>
      </trkpt>
      <trkpt lat="45.9416" lon="4.81526">
        <ele>263</ele>
        <time>2017-08-09T10:22:00Z</time>
      </trkpt>
      <trkpt lat="45.9416" lon="4.81513">
        <ele>263</ele>
        <time>2017-08-09T10:22:01Z</time>
      </trkpt>
      <trkpt lat="45.9416" lon="4.81501">
        <ele>263</ele>
        <time>2017-08-09T10:22:02Z</time>
      </trkpt>
      <trkpt lat="45.9416" lon="4.81489">
        <ele>260</ele>
        <time>2017-08-09T10:22:03Z</time>
      </trkpt>
      <trkpt lat="45.94163" lon="4.81476">
        <ele>259</ele>
        <time>2017-08-09T10:22:04Z</time>
      </trkpt>
      <trkpt lat="45.94165" lon="4.81461">
        <ele>258</ele>
        <time>2017-08-09T10:22:05Z</time>
      </trkpt>
      <trkpt lat="45.94166" lon="4.81447">
        <ele>257</ele>
        <time>2017-08-09T10:22:06Z</time>
      </trkpt>
      <trkpt lat="45.94166" lon="4.81433">
        <ele>256</ele>
        <time>2017-08-09T10:22:07Z</time>
      </trkpt>
      <trkpt lat="45.94167" lon="4.81419">
        <ele>257</ele>
        <time>2017-08-09T10:22:08Z</time>
      </trkpt>
      <trkpt lat="45.94169" lon="4.81405">
        <ele>257</ele>
        <time>2017-08-09T10:22:09Z</time>
      </trkpt>
      <trkpt lat="45.94171" lon="4.81391">
        <ele>258</ele>
        <time>2017-08-09T10:22:10Z</time>
      </trkpt>
      <trkpt lat="45.94172" lon="4.81377">
        <ele>258</ele>
        <time>2017-08-09T10:22:11Z</time>
      </trkpt>
      <trkpt lat="45.94173" lon="4.81363">
        <ele>257</ele>
        <time>2017-08-09T10:22:12Z</time>
      </trkpt>
      <trkpt lat="45.94174" lon="4.81349">
        <ele>256</ele>
        <time>2017-08-09T10:22:13Z</time>
      </trkpt>
      <trkpt lat="45.94174" lon="4.81336">
        <ele>254</ele>
        <time>2017-08-09T10:22:14Z</time>
      </trkpt>
      <trkpt lat="45.94174" lon="4.81321">
        <ele>255</ele>
        <time>2017-08-09T10:22:15Z</time>
      </trkpt>
      <trkpt lat="45.94173" lon="4.81306">
        <ele>255</ele>
        <time>2017-08-09T10:22:16Z</time>
      </trkpt>
      <trkpt lat="45.94171" lon="4.81292">
        <ele>255</ele>
        <time>2017-08-09T10:22:17Z</time>
      </trkpt>
      <trkpt lat="45.9417" lon="4.81278">
        <ele>255</ele>
        <time>2017-08-09T10:22:18Z</time>
      </trkpt>
      <trkpt lat="45.94168" lon="4.81265">
        <ele>253</ele>
        <time>2017-08-09T10:22:19Z</time>
      </trkpt>
      <trkpt lat="45.94166" lon="4.81251">
        <ele>250</ele>
        <time>2017-08-09T10:22:20Z</time>
      </trkpt>
      <trkpt lat="45.94164" lon="4.81236">
        <ele>247</ele>
        <time>2017-08-09T10:22:21Z</time>
      </trkpt>
      <trkpt lat="45.9416" lon="4.81223">
        <ele>245</ele>
        <time>2017-08-09T10:22:22Z</time>
      </trkpt>
      <trkpt lat="45.94157" lon="4.81209">
        <ele>245</ele>
        <time>2017-08-09T10:22:23Z</time>
      </trkpt>
      <trkpt lat="45.94154" lon="4.81196">
        <ele>244</ele>
        <time>2017-08-09T10:22:24Z</time>
      </trkpt>
      <trkpt lat="45.9415" lon="4.81183">
        <ele>245</ele>
        <time>2017-08-09T10:22:25Z</time>
      </trkpt>
      <trkpt lat="45.94145" lon="4.81169">
        <ele>244</ele>
        <time>2017-08-09T10:22:26Z</time>
      </trkpt>
      <trkpt lat="45.94139" lon="4.81154">
        <ele>244</ele>
        <time>2017-08-09T10:22:27Z</time>
      </trkpt>
      <trkpt lat="45.94133" lon="4.81141">
        <ele>244</ele>
        <time>2017-08-09T10:22:28Z</time>
      </trkpt>
      <trkpt lat="45.94126" lon="4.81128">
        <ele>243</ele>
        <time>2017-08-09T10:22:29Z</time>
      </trkpt>
      <trkpt lat="45.94119" lon="4.81116">
        <ele>243</ele>
        <time>2017-08-09T10:22:30Z</time>
      </trkpt>
      <trkpt lat="45.94112" lon="4.81103">
        <ele>242</ele>
        <time>2017-08-09T10:22:31Z</time>
      </trkpt>
      <trkpt lat="45.94105" lon="4.81091">
        <ele>241</ele>
        <time>2017-08-09T10:22:32Z</time>
      </trkpt>
      <trkpt lat="45.94098" lon="4.81078">
        <ele>242</ele>
        <time>2017-08-09T10:22:33Z</time>
      </trkpt>
      <trkpt lat="45.94091" lon="4.81064">
        <ele>242</ele>
        <time>2017-08-09T10:22:34Z</time>
      </trkpt>
      <trkpt lat="45.94086" lon="4.81048">
        <ele>243</ele>
        <time>2017-08-09T10:22:35Z</time>
      </trkpt>
      <trkpt lat="45.94081" lon="4.81032">
        <ele>234</ele>
        <time>2017-08-09T10:22:36Z</time>
      </trkpt>
      <trkpt lat="45.94077" lon="4.81015">
        <ele>236</ele>
        <time>2017-08-09T10:22:37Z</time>
      </trkpt>
      <trkpt lat="45.94074" lon="4.80997">
        <ele>237</ele>
        <time>2017-08-09T10:22:38Z</time>
      </trkpt>
      <trkpt lat="45.9407" lon="4.8098">
        <ele>234</ele>
        <time>2017-08-09T10:22:39Z</time>
      </trkpt>
      <trkpt lat="45.94067" lon="4.80963">
        <ele>232</ele>
        <time>2017-08-09T10:22:40Z</time>
      </trkpt>
      <trkpt lat="45.94064" lon="4.80945">
        <ele>232</ele>
        <time>2017-08-09T10:22:41Z</time>
      </trkpt>
      <trkpt lat="45.94061" lon="4.80927">
        <ele>233</ele>
        <time>2017-08-09T10:22:42Z</time>
      </trkpt>
      <trkpt lat="45.94058" lon="4.8091">
        <ele>232</ele>
        <time>2017-08-09T10:22:43Z</time>
      </trkpt>
      <trkpt lat="45.94055" lon="4.80892">
        <ele>231</ele>
        <time>2017-08-09T10:22:44Z</time>
      </trkpt>
      <trkpt lat="45.94054" lon="4.80874">
        <ele>230</ele>
        <time>2017-08-09T10:22:45Z</time>
      </trkpt>
      <trkpt lat="45.94051" lon="4.80856">
        <ele>230</ele>
        <time>2017-08-09T10:22:46Z</time>
      </trkpt>
      <trkpt lat="45.94049" lon="4.80839">
        <ele>230</ele>
        <time>2017-08-09T10:22:47Z</time>
      </trkpt>
      <trkpt lat="45.94047" lon="4.80821">
        <ele>229</ele>
        <time>2017-08-09T10:22:48Z</time>
      </trkpt>
      <trkpt lat="45.94045" lon="4.80804">
        <ele>228</ele>
        <time>2017-08-09T10:22:49Z</time>
      </trkpt>
      <trkpt lat="45.94042" lon="4.80787">
        <ele>228</ele>
        <time>2017-08-09T10:22:50Z</time>
      </trkpt>
      <trkpt lat="45.9404" lon="4.80769">
        <ele>228</ele>
        <time>2017-08-09T10:22:51Z</time>
      </trkpt>
      <trkpt lat="45.94038" lon="4.80752">
        <ele>227</ele>
        <time>2017-08-09T10:22:52Z</time>
      </trkpt>
      <trkpt lat="45.94037" lon="4.80734">
        <ele>226</ele>
        <time>2017-08-09T10:22:53Z</time>
      </trkpt>
      <trkpt lat="45.94035" lon="4.80717">
        <ele>226</ele>
        <time>2017-08-09T10:22:54Z</time>
      </trkpt>
      <trkpt lat="45.94033" lon="4.80699">
        <ele>226</ele>
        <time>2017-08-09T10:22:55Z</time>
      </trkpt>
      <trkpt lat="45.94031" lon="4.80682">
        <ele>225</ele>
        <time>2017-08-09T10:22:56Z</time>
      </trkpt>
      <trkpt lat="45.9403" lon="4.80665">
        <ele>224</ele>
        <time>2017-08-09T10:22:57Z</time>
      </trkpt>
      <trkpt lat="45.94029" lon="4.80648">
        <ele>225</ele>
        <time>2017-08-09T10:22:58Z</time>
      </trkpt>
      <trkpt lat="45.94027" lon="4.80631">
        <ele>225</ele>
        <time>2017-08-09T10:22:59Z</time>
      </trkpt>
      <trkpt lat="45.94026" lon="4.80614">
        <ele>225</ele>
        <time>2017-08-09T10:23:00Z</time>
      </trkpt>
      <trkpt lat="45.94024" lon="4.80597">
        <ele>224</ele>
        <time>2017-08-09T10:23:01Z</time>
      </trkpt>
      <trkpt lat="45.94023" lon="4.80581">
        <ele>224</ele>
        <time>2017-08-09T10:23:02Z</time>
      </trkpt>
      <trkpt lat="45.94022" lon="4.80565">
        <ele>224</ele>
        <time>2017-08-09T10:23:03Z</time>
      </trkpt>
      <trkpt lat="45.94022" lon="4.80549">
        <ele>225</ele>
        <time>2017-08-09T10:23:04Z</time>
      </trkpt>
      <trkpt lat="45.94021" lon="4.80534">
        <ele>225</ele>
        <time>2017-08-09T10:23:05Z</time>
      </trkpt>
      <trkpt lat="45.94021" lon="4.80519">
        <ele>224</ele>
        <time>2017-08-09T10:23:06Z</time>
      </trkpt>
      <trkpt lat="45.94021" lon="4.80504">
        <ele>223</ele>
        <time>2017-08-09T10:23:07Z</time>
      </trkpt>
      <trkpt lat="45.94021" lon="4.80489">
        <ele>223</ele>
        <time>2017-08-09T10:23:08Z</time>
      </trkpt>
      <trkpt lat="45.94021" lon="4.80474">
        <ele>223</ele>
        <time>2017-08-09T10:23:09Z</time>
      </trkpt>
      <trkpt lat="45.9402" lon="4.80459">
        <ele>223</ele>
        <time>2017-08-09T10:23:10Z</time>
      </trkpt>
      <trkpt lat="45.94017" lon="4.80443">
        <ele>222</ele>
        <time>2017-08-09T10:23:11Z</time>
      </trkpt>
      <trkpt lat="45.94013" lon="4.80426">
        <ele>220</ele>
        <time>2017-08-09T10:23:12Z</time>
      </trkpt>
      <trkpt lat="45.94009" lon="4.8041">
        <ele>217</ele>
        <time>2017-08-09T10:23:13Z</time>
      </trkpt>
      <trkpt lat="45.94004" lon="4.80394">
        <ele>217</ele>
        <time>2017-08-09T10:23:14Z</time>
      </trkpt>
      <trkpt lat="45.94" lon="4.80379">
        <ele>216</ele>
        <time>2017-08-09T10:23:15Z</time>
      </trkpt>
      <trkpt lat="45.93997" lon="4.80362">
        <ele>207</ele>
        <time>2017-08-09T10:23:16Z</time>
      </trkpt>
      <trkpt lat="45.93993" lon="4.80345">
        <ele>206</ele>
        <time>2017-08-09T10:23:17Z</time>
      </trkpt>
      <trkpt lat="45.93989" lon="4.80329">
        <ele>204</ele>
        <time>2017-08-09T10:23:18Z</time>
      </trkpt>
      <trkpt lat="45.93985" lon="4.80312">
        <ele>203</ele>
        <time>2017-08-09T10:23:19Z</time>
      </trkpt>
      <trkpt lat="45.93981" lon="4.80297">
        <ele>203</ele>
        <time>2017-08-09T10:23:20Z</time>
      </trkpt>
      <trkpt lat="45.93977" lon="4.80281">
        <ele>203</ele>
        <time>2017-08-09T10:23:21Z</time>
      </trkpt>
      <trkpt lat="45.93973" lon="4.80266">
        <ele>203</ele>
        <time>2017-08-09T10:23:22Z</time>
      </trkpt>
      <trkpt lat="45.93969" lon="4.80251">
        <ele>202</ele>
        <time>2017-08-09T10:23:23Z</time>
      </trkpt>
      <trkpt lat="45.93965" lon="4.80237">
        <ele>204</ele>
        <time>2017-08-09T10:23:24Z</time>
      </trkpt>
      <trkpt lat="45.93961" lon="4.80222">
        <ele>205</ele>
        <time>2017-08-09T10:23:25Z</time>
      </trkpt>
      <trkpt lat="45.93958" lon="4.80209">
        <ele>205</ele>
        <time>2017-08-09T10:23:26Z</time>
      </trkpt>
      <trkpt lat="45.93955" lon="4.80195">
        <ele>206</ele>
        <time>2017-08-09T10:23:27Z</time>
      </trkpt>
      <trkpt lat="45.93952" lon="4.80182">
        <ele>206</ele>
        <time>2017-08-09T10:23:28Z</time>
      </trkpt>
      <trkpt lat="45.9395" lon="4.80169">
        <ele>206</ele>
        <time>2017-08-09T10:23:29Z</time>
      </trkpt>
      <trkpt lat="45.93947" lon="4.80157">
        <ele>208</ele>
        <time>2017-08-09T10:23:30Z</time>
      </trkpt>
      <trkpt lat="45.93945" lon="4.80146">
        <ele>208</ele>
        <time>2017-08-09T10:23:31Z</time>
      </trkpt>
      <trkpt lat="45.93944" lon="4.80134">
        <ele>209</ele>
        <time>2017-08-09T10:23:32Z</time>
      </trkpt>
      <trkpt lat="45.93942" lon="4.80122">
        <ele>209</ele>
        <time>2017-08-09T10:23:33Z</time>
      </trkpt>
      <trkpt lat="45.9394" lon="4.80112">
        <ele>208</ele>
        <time>2017-08-09T10:23:34Z</time>
      </trkpt>
      <trkpt lat="45.93939" lon="4.80102">
        <ele>208</ele>
        <time>2017-08-09T10:23:35Z</time>
      </trkpt>
      <trkpt lat="45.93939" lon="4.80091">
        <ele>208</ele>
        <time>2017-08-09T10:23:36Z</time>
      </trkpt>
      <trkpt lat="45.93939" lon="4.80081">
        <ele>207</ele>
        <time>2017-08-09T10:23:37Z</time>
      </trkpt>
      <trkpt lat="45.93939" lon="4.80072">
        <ele>207</ele>
        <time>2017-08-09T10:23:38Z</time>
      </trkpt>
      <trkpt lat="45.93939" lon="4.80062">
        <ele>207</ele>
        <time>2017-08-09T10:23:39Z</time>
      </trkpt>
      <trkpt lat="45.93939" lon="4.80053">
        <ele>207</ele>
        <time>2017-08-09T10:23:40Z</time>
      </trkpt>
      <trkpt lat="45.9394" lon="4.80044">
        <ele>207</ele>
        <time>2017-08-09T10:23:41Z</time>
      </trkpt>
      <trkpt lat="45.93941" lon="4.80034">
        <ele>207</ele>
        <time>2017-08-09T10:23:42Z</time>
      </trkpt>
      <trkpt lat="45.93942" lon="4.80025">
        <ele>207</ele>
        <time>2017-08-09T10:23:43Z</time>
      </trkpt>
      <trkpt lat="45.93943" lon="4.80015">
        <ele>206</ele>
        <time>2017-08-09T10:23:44Z</time>
      </trkpt>
      <trkpt lat="45.93945" lon="4.80006">
        <ele>206</ele>
        <time>2017-08-09T10:23:45Z</time>
      </trkpt>
      <trkpt lat="45.93947" lon="4.79996">
        <ele>205</ele>
        <time>2017-08-09T10:23:46Z</time>
      </trkpt>
      <trkpt lat="45.93948" lon="4.79986">
        <ele>205</ele>
        <time>2017-08-09T10:23:47Z</time>
      </trkpt>
      <trkpt lat="45.9395" lon="4.79976">
        <ele>205</ele>
        <time>2017-08-09T10:23:48Z</time>
      </trkpt>
      <trkpt lat="45.93951" lon="4.79965">
        <ele>205</ele>
        <time>2017-08-09T10:23:49Z</time>
      </trkpt>
      <trkpt lat="45.93953" lon="4.79954">
        <ele>205</ele>
        <time>2017-08-09T10:23:50Z</time>
      </trkpt>
      <trkpt lat="45.93954" lon="4.79942">
        <ele>205</ele>
        <time>2017-08-09T10:23:51Z</time>
      </trkpt>
      <trkpt lat="45.93955" lon="4.7993">
        <ele>205</ele>
        <time>2017-08-09T10:23:52Z</time>
      </trkpt>
      <trkpt lat="45.93957" lon="4.79918">
        <ele>205</ele>
        <time>2017-08-09T10:23:53Z</time>
      </trkpt>
      <trkpt lat="45.93959" lon="4.79906">
        <ele>206</ele>
        <time>2017-08-09T10:23:54Z</time>
      </trkpt>
      <trkpt lat="45.9396" lon="4.79894">
        <ele>206</ele>
        <time>2017-08-09T10:23:55Z</time>
      </trkpt>
      <trkpt lat="45.93962" lon="4.79882">
        <ele>206</ele>
        <time>2017-08-09T10:23:56Z</time>
      </trkpt>
      <trkpt lat="45.93963" lon="4.7987">
        <ele>206</ele>
        <time>2017-08-09T10:23:57Z</time>
      </trkpt>
      <trkpt lat="45.93965" lon="4.79858">
        <ele>206</ele>
        <time>2017-08-09T10:23:58Z</time>
      </trkpt>
      <trkpt lat="45.93966" lon="4.79847">
        <ele>206</ele>
        <time>2017-08-09T10:23:59Z</time>
      </trkpt>
      <trkpt lat="45.93968" lon="4.79836">
        <ele>206</ele>
        <time>2017-08-09T10:24:00Z</time>
      </trkpt>
      <trkpt lat="45.93969" lon="4.79825">
        <ele>207</ele>
        <time>2017-08-09T10:24:01Z</time>
      </trkpt>
      <trkpt lat="45.9397" lon="4.79814">
        <ele>207</ele>
        <time>2017-08-09T10:24:02Z</time>
      </trkpt>
      <trkpt lat="45.93972" lon="4.79804">
        <ele>207</ele>
        <time>2017-08-09T10:24:03Z</time>
      </trkpt>
      <trkpt lat="45.93974" lon="4.79794">
        <ele>206</ele>
        <time>2017-08-09T10:24:04Z</time>
      </trkpt>
      <trkpt lat="45.93975" lon="4.79784">
        <ele>206</ele>
        <time>2017-08-09T10:24:05Z</time>
      </trkpt>
      <trkpt lat="45.93975" lon="4.79775">
        <ele>206</ele>
        <time>2017-08-09T10:24:06Z</time>
      </trkpt>
      <trkpt lat="45.93974" lon="4.79765">
        <ele>206</ele>
        <time>2017-08-09T10:24:07Z</time>
      </trkpt>
      <trkpt lat="45.93974" lon="4.79755">
        <ele>206</ele>
        <time>2017-08-09T10:24:08Z</time>
      </trkpt>
      <trkpt lat="45.93973" lon="4.79745">
        <ele>207</ele>
        <time>2017-08-09T10:24:09Z</time>
      </trkpt>
      <trkpt lat="45.93971" lon="4.79735">
        <ele>207</ele>
        <time>2017-08-09T10:24:10Z</time>
      </trkpt>
      <trkpt lat="45.9397" lon="4.79725">
        <ele>207</ele>
        <time>2017-08-09T10:24:11Z</time>
      </trkpt>
      <trkpt lat="45.93969" lon="4.79715">
        <ele>207</ele>
        <time>2017-08-09T10:24:12Z</time>
      </trkpt>
      <trkpt lat="45.93969" lon="4.79705">
        <ele>207</ele>
        <time>2017-08-09T10:24:13Z</time>
      </trkpt>
      <trkpt lat="45.93968" lon="4.79695">
        <ele>207</ele>
        <time>2017-08-09T10:24:14Z</time>
      </trkpt>
      <trkpt lat="45.93968" lon="4.79685">
        <ele>207</ele>
        <time>2017-08-09T10:24:15Z</time>
      </trkpt>
      <trkpt lat="45.93967" lon="4.79675">
        <ele>207</ele>
        <time>2017-08-09T10:24:16Z</time>
      </trkpt>
      <trkpt lat="45.93966" lon="4.79665">
        <ele>208</ele>
        <time>2017-08-09T10:24:17Z</time>
      </trkpt>
      <trkpt lat="45.93966" lon="4.79656">
        <ele>207</ele>
        <time>2017-08-09T10:24:18Z</time>
      </trkpt>
      <trkpt lat="45.93965" lon="4.79646">
        <ele>207</ele>
        <time>2017-08-09T10:24:19Z</time>
      </trkpt>
      <trkpt lat="45.93965" lon="4.79636">
        <ele>207</ele>
        <time>2017-08-09T10:24:20Z</time>
      </trkpt>
      <trkpt lat="45.93965" lon="4.79626">
        <ele>207</ele>
        <time>2017-08-09T10:24:21Z</time>
      </trkpt>
      <trkpt lat="45.93966" lon="4.79617">
        <ele>207</ele>
        <time>2017-08-09T10:24:22Z</time>
      </trkpt>
      <trkpt lat="45.93966" lon="4.79607">
        <ele>207</ele>
        <time>2017-08-09T10:24:23Z</time>
      </trkpt>
      <trkpt lat="45.93966" lon="4.79597">
        <ele>207</ele>
        <time>2017-08-09T10:24:24Z</time>
      </trkpt>
      <trkpt lat="45.93965" lon="4.79587">
        <ele>207</ele>
        <time>2017-08-09T10:24:25Z</time>
      </trkpt>
      <trkpt lat="45.93963" lon="4.79578">
        <ele>206</ele>
        <time>2017-08-09T10:24:26Z</time>
      </trkpt>
      <trkpt lat="45.93962" lon="4.79568">
        <ele>206</ele>
        <time>2017-08-09T10:24:27Z</time>
      </trkpt>
      <trkpt lat="45.93961" lon="4.79558">
        <ele>205</ele>
        <time>2017-08-09T10:24:28Z</time>
      </trkpt>
      <trkpt lat="45.93961" lon="4.79549">
        <ele>205</ele>
        <time>2017-08-09T10:24:29Z</time>
      </trkpt>
      <trkpt lat="45.9396" lon="4.79539">
        <ele>205</ele>
        <time>2017-08-09T10:24:30Z</time>
      </trkpt>
      <trkpt lat="45.9396" lon="4.79529">
        <ele>205</ele>
        <time>2017-08-09T10:24:31Z</time>
      </trkpt>
      <trkpt lat="45.9396" lon="4.79519">
        <ele>205</ele>
        <time>2017-08-09T10:24:32Z</time>
      </trkpt>
      <trkpt lat="45.9396" lon="4.79508">
        <ele>205</ele>
        <time>2017-08-09T10:24:33Z</time>
      </trkpt>
      <trkpt lat="45.9396" lon="4.79498">
        <ele>203</ele>
        <time>2017-08-09T10:24:34Z</time>
      </trkpt>
      <trkpt lat="45.93961" lon="4.79488">
        <ele>203</ele>
        <time>2017-08-09T10:24:35Z</time>
      </trkpt>
      <trkpt lat="45.93961" lon="4.79477">
        <ele>203</ele>
        <time>2017-08-09T10:24:36Z</time>
      </trkpt>
      <trkpt lat="45.93961" lon="4.79467">
        <ele>203</ele>
        <time>2017-08-09T10:24:37Z</time>
      </trkpt>
      <trkpt lat="45.93962" lon="4.79457">
        <ele>203</ele>
        <time>2017-08-09T10:24:38Z</time>
      </trkpt>
      <trkpt lat="45.93962" lon="4.79446">
        <ele>203</ele>
        <time>2017-08-09T10:24:39Z</time>
      </trkpt>
      <trkpt lat="45.93962" lon="4.79436">
        <ele>203</ele>
        <time>2017-08-09T10:24:40Z</time>
      </trkpt>
      <trkpt lat="45.93961" lon="4.79426">
        <ele>203</ele>
        <time>2017-08-09T10:24:41Z</time>
      </trkpt>
      <trkpt lat="45.93961" lon="4.79416">
        <ele>202</ele>
        <time>2017-08-09T10:24:42Z</time>
      </trkpt>
      <trkpt lat="45.9396" lon="4.79406">
        <ele>202</ele>
        <time>2017-08-09T10:24:43Z</time>
      </trkpt>
      <trkpt lat="45.9396" lon="4.79395">
        <ele>202</ele>
        <time>2017-08-09T10:24:44Z</time>
      </trkpt>
      <trkpt lat="45.9396" lon="4.79385">
        <ele>201</ele>
        <time>2017-08-09T10:24:45Z</time>
      </trkpt>
      <trkpt lat="45.93959" lon="4.79374">
        <ele>201</ele>
        <time>2017-08-09T10:24:46Z</time>
      </trkpt>
      <trkpt lat="45.93958" lon="4.79363">
        <ele>201</ele>
        <time>2017-08-09T10:24:47Z</time>
      </trkpt>
      <trkpt lat="45.93957" lon="4.79351">
        <ele>201</ele>
        <time>2017-08-09T10:24:48Z</time>
      </trkpt>
      <trkpt lat="45.93957" lon="4.7934">
        <ele>201</ele>
        <time>2017-08-09T10:24:49Z</time>
      </trkpt>
      <trkpt lat="45.93956" lon="4.79329">
        <ele>199</ele>
        <time>2017-08-09T10:24:50Z</time>
      </trkpt>
      <trkpt lat="45.93956" lon="4.79319">
        <ele>199</ele>
        <time>2017-08-09T10:24:51Z</time>
      </trkpt>
      <trkpt lat="45.93956" lon="4.79308">
        <ele>199</ele>
        <time>2017-08-09T10:24:52Z</time>
      </trkpt>
      <trkpt lat="45.93956" lon="4.79298">
        <ele>199</ele>
        <time>2017-08-09T10:24:53Z</time>
      </trkpt>
      <trkpt lat="45.93956" lon="4.79288">
        <ele>198</ele>
        <time>2017-08-09T10:24:54Z</time>
      </trkpt>
      <trkpt lat="45.93955" lon="4.79277">
        <ele>198</ele>
        <time>2017-08-09T10:24:55Z</time>
      </trkpt>
      <trkpt lat="45.93955" lon="4.79267">
        <ele>198</ele>
        <time>2017-08-09T10:24:56Z</time>
      </trkpt>
      <trkpt lat="45.93955" lon="4.79256">
        <ele>198</ele>
        <time>2017-08-09T10:24:57Z</time>
      </trkpt>
      <trkpt lat="45.93955" lon="4.79246">
        <ele>197</ele>
        <time>2017-08-09T10:24:58Z</time>
      </trkpt>
      <trkpt lat="45.93955" lon="4.79235">
        <ele>197</ele>
        <time>2017-08-09T10:24:59Z</time>
      </trkpt>
      <trkpt lat="45.93954" lon="4.79224">
        <ele>197</ele>
        <time>2017-08-09T10:25:00Z</time>
      </trkpt>
      <trkpt lat="45.93954" lon="4.79213">
        <ele>197</ele>
        <time>2017-08-09T10:25:01Z</time>
      </trkpt>
      <trkpt lat="45.93954" lon="4.79203">
        <ele>197</ele>
        <time>2017-08-09T10:25:02Z</time>
      </trkpt>
      <trkpt lat="45.93954" lon="4.79193">
        <ele>197</ele>
        <time>2017-08-09T10:25:03Z</time>
      </trkpt>
      <trkpt lat="45.93954" lon="4.79183">
        <ele>197</ele>
        <time>2017-08-09T10:25:04Z</time>
      </trkpt>
      <trkpt lat="45.93954" lon="4.79174">
        <ele>197</ele>
        <time>2017-08-09T10:25:05Z</time>
      </trkpt>
      <trkpt lat="45.93952" lon="4.79164">
        <ele>197</ele>
        <time>2017-08-09T10:25:06Z</time>
      </trkpt>
      <trkpt lat="45.93952" lon="4.79154">
        <ele>197</ele>
        <time>2017-08-09T10:25:07Z</time>
      </trkpt>
      <trkpt lat="45.93952" lon="4.79144">
        <ele>197</ele>
        <time>2017-08-09T10:25:08Z</time>
      </trkpt>
      <trkpt lat="45.93951" lon="4.79134">
        <ele>197</ele>
        <time>2017-08-09T10:25:09Z</time>
      </trkpt>
      <trkpt lat="45.93951" lon="4.79124">
        <ele>197</ele>
        <time>2017-08-09T10:25:10Z</time>
      </trkpt>
      <trkpt lat="45.93951" lon="4.79115">
        <ele>197</ele>
        <time>2017-08-09T10:25:11Z</time>
      </trkpt>
      <trkpt lat="45.9395" lon="4.79106">
        <ele>197</ele>
        <time>2017-08-09T10:25:12Z</time>
      </trkpt>
      <trkpt lat="45.9395" lon="4.79096">
        <ele>196</ele>
        <time>2017-08-09T10:25:13Z</time>
      </trkpt>
      <trkpt lat="45.9395" lon="4.79087">
        <ele>196</ele>
        <time>2017-08-09T10:25:14Z</time>
      </trkpt>
      <trkpt lat="45.93949" lon="4.79077">
        <ele>196</ele>
        <time>2017-08-09T10:25:15Z</time>
      </trkpt>
      <trkpt lat="45.93949" lon="4.79068">
        <ele>196</ele>
        <time>2017-08-09T10:25:16Z</time>
      </trkpt>
      <trkpt lat="45.93949" lon="4.79059">
        <ele>196</ele>
        <time>2017-08-09T10:25:17Z</time>
      </trkpt>
      <trkpt lat="45.93949" lon="4.7905">
        <ele>196</ele>
        <time>2017-08-09T10:25:18Z</time>
      </trkpt>
      <trkpt lat="45.93949" lon="4.79041">
        <ele>196</ele>
        <time>2017-08-09T10:25:19Z</time>
      </trkpt>
      <trkpt lat="45.93949" lon="4.79033">
        <ele>196</ele>
        <time>2017-08-09T10:25:20Z</time>
      </trkpt>
      <trkpt lat="45.93948" lon="4.79024">
        <ele>195</ele>
        <time>2017-08-09T10:25:21Z</time>
      </trkpt>
      <trkpt lat="45.93947" lon="4.79015">
        <ele>195</ele>
        <time>2017-08-09T10:25:22Z</time>
      </trkpt>
      <trkpt lat="45.93947" lon="4.79007">
        <ele>195</ele>
        <time>2017-08-09T10:25:23Z</time>
      </trkpt>
      <trkpt lat="45.93947" lon="4.78997">
        <ele>194</ele>
        <time>2017-08-09T10:25:24Z</time>
      </trkpt>
      <trkpt lat="45.93946" lon="4.78988">
        <ele>194</ele>
        <time>2017-08-09T10:25:25Z</time>
      </trkpt>
      <trkpt lat="45.93946" lon="4.78977">
        <ele>194</ele>
        <time>2017-08-09T10:25:26Z</time>
      </trkpt>
      <trkpt lat="45.93946" lon="4.78968">
        <ele>194</ele>
        <time>2017-08-09T10:25:27Z</time>
      </trkpt>
      <trkpt lat="45.93946" lon="4.78958">
        <ele>194</ele>
        <time>2017-08-09T10:25:28Z</time>
      </trkpt>
      <trkpt lat="45.93946" lon="4.78949">
        <ele>194</ele>
        <time>2017-08-09T10:25:29Z</time>
      </trkpt>
      <trkpt lat="45.93946" lon="4.7894">
        <ele>194</ele>
        <time>2017-08-09T10:25:30Z</time>
      </trkpt>
      <trkpt lat="45.93945" lon="4.78931">
        <ele>194</ele>
        <time>2017-08-09T10:25:31Z</time>
      </trkpt>
      <trkpt lat="45.93945" lon="4.78922">
        <ele>193</ele>
        <time>2017-08-09T10:25:32Z</time>
      </trkpt>
      <trkpt lat="45.93945" lon="4.78913">
        <ele>193</ele>
        <time>2017-08-09T10:25:33Z</time>
      </trkpt>
      <trkpt lat="45.93946" lon="4.78904">
        <ele>193</ele>
        <time>2017-08-09T10:25:34Z</time>
      </trkpt>
      <trkpt lat="45.93945" lon="4.78895">
        <ele>194</ele>
        <time>2017-08-09T10:25:35Z</time>
      </trkpt>
      <trkpt lat="45.93945" lon="4.78886">
        <ele>194</ele>
        <time>2017-08-09T10:25:36Z</time>
      </trkpt>
      <trkpt lat="45.93946" lon="4.78876">
        <ele>194</ele>
        <time>2017-08-09T10:25:37Z</time>
      </trkpt>
      <trkpt lat="45.93945" lon="4.78867">
        <ele>194</ele>
        <time>2017-08-09T10:25:38Z</time>
      </trkpt>
      <trkpt lat="45.93944" lon="4.78858">
        <ele>194</ele>
        <time>2017-08-09T10:25:39Z</time>
      </trkpt>
      <trkpt lat="45.93944" lon="4.78849">
        <ele>194</ele>
        <time>2017-08-09T10:25:40Z</time>
      </trkpt>
      <trkpt lat="45.93943" lon="4.78841">
        <ele>194</ele>
        <time>2017-08-09T10:25:41Z</time>
      </trkpt>
      <trkpt lat="45.93942" lon="4.78833">
        <ele>194</ele>
        <time>2017-08-09T10:25:42Z</time>
      </trkpt>
      <trkpt lat="45.93942" lon="4.78824">
        <ele>194</ele>
        <time>2017-08-09T10:25:43Z</time>
      </trkpt>
      <trkpt lat="45.93942" lon="4.78815">
        <ele>194</ele>
        <time>2017-08-09T10:25:44Z</time>
      </trkpt>
      <trkpt lat="45.93941" lon="4.78806">
        <ele>194</ele>
        <time>2017-08-09T10:25:45Z</time>
      </trkpt>
      <trkpt lat="45.93941" lon="4.78796">
        <ele>194</ele>
        <time>2017-08-09T10:25:46Z</time>
      </trkpt>
      <trkpt lat="45.93941" lon="4.78786">
        <ele>194</ele>
        <time>2017-08-09T10:25:47Z</time>
      </trkpt>
      <trkpt lat="45.9394" lon="4.78776">
        <ele>194</ele>
        <time>2017-08-09T10:25:48Z</time>
      </trkpt>
      <trkpt lat="45.93941" lon="4.78766">
        <ele>194</ele>
        <time>2017-08-09T10:25:49Z</time>
      </trkpt>
      <trkpt lat="45.93941" lon="4.78757">
        <ele>193</ele>
        <time>2017-08-09T10:25:50Z</time>
      </trkpt>
      <trkpt lat="45.93941" lon="4.78747">
        <ele>193</ele>
        <time>2017-08-09T10:25:51Z</time>
      </trkpt>
      <trkpt lat="45.93941" lon="4.78738">
        <ele>194</ele>
        <time>2017-08-09T10:25:52Z</time>
      </trkpt>
      <trkpt lat="45.93941" lon="4.78729">
        <ele>194</ele>
        <time>2017-08-09T10:25:53Z</time>
      </trkpt>
      <trkpt lat="45.9394" lon="4.7872">
        <ele>194</ele>
        <time>2017-08-09T10:25:54Z</time>
      </trkpt>
      <trkpt lat="45.9394" lon="4.78711">
        <ele>194</ele>
        <time>2017-08-09T10:25:55Z</time>
      </trkpt>
      <trkpt lat="45.9394" lon="4.78703">
        <ele>194</ele>
        <time>2017-08-09T10:25:56Z</time>
      </trkpt>
      <trkpt lat="45.93941" lon="4.78696">
        <ele>194</ele>
        <time>2017-08-09T10:25:57Z</time>
      </trkpt>
      <trkpt lat="45.93941" lon="4.78687">
        <ele>194</ele>
        <time>2017-08-09T10:25:58Z</time>
      </trkpt>
      <trkpt lat="45.93941" lon="4.7868">
        <ele>194</ele>
        <time>2017-08-09T10:25:59Z</time>
      </trkpt>
      <trkpt lat="45.93941" lon="4.78672">
        <ele>194</ele>
        <time>2017-08-09T10:26:00Z</time>
      </trkpt>
      <trkpt lat="45.93941" lon="4.78665">
        <ele>194</ele>
        <time>2017-08-09T10:26:01Z</time>
      </trkpt>
      <trkpt lat="45.93941" lon="4.78657">
        <ele>195</ele>
        <time>2017-08-09T10:26:02Z</time>
      </trkpt>
      <trkpt lat="45.93941" lon="4.78649">
        <ele>195</ele>
        <time>2017-08-09T10:26:03Z</time>
      </trkpt>
      <trkpt lat="45.93942" lon="4.78642">
        <ele>195</ele>
        <time>2017-08-09T10:26:04Z</time>
      </trkpt>
      <trkpt lat="45.93942" lon="4.78635">
        <ele>196</ele>
        <time>2017-08-09T10:26:05Z</time>
      </trkpt>
      <trkpt lat="45.93942" lon="4.78628">
        <ele>196</ele>
        <time>2017-08-09T10:26:06Z</time>
      </trkpt>
      <trkpt lat="45.93943" lon="4.78621">
        <ele>196</ele>
        <time>2017-08-09T10:26:07Z</time>
      </trkpt>
      <trkpt lat="45.93942" lon="4.78615">
        <ele>196</ele>
        <time>2017-08-09T10:26:08Z</time>
      </trkpt>
      <trkpt lat="45.93942" lon="4.78608">
        <ele>196</ele>
        <time>2017-08-09T10:26:09Z</time>
      </trkpt>
      <trkpt lat="45.93942" lon="4.78596">
        <ele>196</ele>
        <time>2017-08-09T10:26:11Z</time>
      </trkpt>
      <trkpt lat="45.93941" lon="4.7859">
        <ele>196</ele>
        <time>2017-08-09T10:26:12Z</time>
      </trkpt>
      <trkpt lat="45.93938" lon="4.78578">
        <ele>196</ele>
        <time>2017-08-09T10:26:14Z</time>
      </trkpt>
      <trkpt lat="45.93937" lon="4.78572">
        <ele>196</ele>
        <time>2017-08-09T10:26:15Z</time>
      </trkpt>
      <trkpt lat="45.93937" lon="4.7856">
        <ele>197</ele>
        <time>2017-08-09T10:26:17Z</time>
      </trkpt>
      <trkpt lat="45.93937" lon="4.78553">
        <ele>197</ele>
        <time>2017-08-09T10:26:18Z</time>
      </trkpt>
      <trkpt lat="45.93938" lon="4.78546">
        <ele>197</ele>
        <time>2017-08-09T10:26:19Z</time>
      </trkpt>
      <trkpt lat="45.93938" lon="4.78539">
        <ele>197</ele>
        <time>2017-08-09T10:26:20Z</time>
      </trkpt>
      <trkpt lat="45.93939" lon="4.78532">
        <ele>197</ele>
        <time>2017-08-09T10:26:21Z</time>
      </trkpt>
      <trkpt lat="45.93941" lon="4.78524">
        <ele>197</ele>
        <time>2017-08-09T10:26:22Z</time>
      </trkpt>
      <trkpt lat="45.93941" lon="4.78516">
        <ele>197</ele>
        <time>2017-08-09T10:26:23Z</time>
      </trkpt>
      <trkpt lat="45.93942" lon="4.78508">
        <ele>197</ele>
        <time>2017-08-09T10:26:24Z</time>
      </trkpt>
      <trkpt lat="45.93942" lon="4.785">
        <ele>197</ele>
        <time>2017-08-09T10:26:25Z</time>
      </trkpt>
      <trkpt lat="45.93943" lon="4.78492">
        <ele>197</ele>
        <time>2017-08-09T10:26:26Z</time>
      </trkpt>
      <trkpt lat="45.93945" lon="4.78484">
        <ele>197</ele>
        <time>2017-08-09T10:26:27Z</time>
      </trkpt>
      <trkpt lat="45.93946" lon="4.78475">
        <ele>197</ele>
        <time>2017-08-09T10:26:28Z</time>
      </trkpt>
      <trkpt lat="45.93948" lon="4.78468">
        <ele>197</ele>
        <time>2017-08-09T10:26:29Z</time>
      </trkpt>
      <trkpt lat="45.93949" lon="4.7846">
        <ele>197</ele>
        <time>2017-08-09T10:26:30Z</time>
      </trkpt>
      <trkpt lat="45.9395" lon="4.78453">
        <ele>197</ele>
        <time>2017-08-09T10:26:31Z</time>
      </trkpt>
      <trkpt lat="45.93952" lon="4.78447">
        <ele>197</ele>
        <time>2017-08-09T10:26:32Z</time>
      </trkpt>
      <trkpt lat="45.93954" lon="4.78434">
        <ele>197</ele>
        <time>2017-08-09T10:26:34Z</time>
      </trkpt>
      <trkpt lat="45.93954" lon="4.78428">
        <ele>197</ele>
        <time>2017-08-09T10:26:35Z</time>
      </trkpt>
      <trkpt lat="45.93954" lon="4.78415">
        <ele>196</ele>
        <time>2017-08-09T10:26:37Z</time>
      </trkpt>
      <trkpt lat="45.93954" lon="4.78409">
        <ele>196</ele>
        <time>2017-08-09T10:26:38Z</time>
      </trkpt>
      <trkpt lat="45.93956" lon="4.78397">
        <ele>197</ele>
        <time>2017-08-09T10:26:40Z</time>
      </trkpt>
      <trkpt lat="45.93958" lon="4.78391">
        <ele>197</ele>
        <time>2017-08-09T10:26:41Z</time>
      </trkpt>
      <trkpt lat="45.93959" lon="4.78384">
        <ele>197</ele>
        <time>2017-08-09T10:26:42Z</time>
      </trkpt>
      <trkpt lat="45.9396" lon="4.78377">
        <ele>197</ele>
        <time>2017-08-09T10:26:43Z</time>
      </trkpt>
      <trkpt lat="45.93961" lon="4.7837">
        <ele>197</ele>
        <time>2017-08-09T10:26:44Z</time>
      </trkpt>
      <trkpt lat="45.93961" lon="4.78363">
        <ele>197</ele>
        <time>2017-08-09T10:26:45Z</time>
      </trkpt>
      <trkpt lat="45.93962" lon="4.78356">
        <ele>197</ele>
        <time>2017-08-09T10:26:46Z</time>
      </trkpt>
      <trkpt lat="45.93963" lon="4.78349">
        <ele>197</ele>
        <time>2017-08-09T10:26:47Z</time>
      </trkpt>
      <trkpt lat="45.93963" lon="4.78338">
        <ele>197</ele>
        <time>2017-08-09T10:26:49Z</time>
      </trkpt>
      <trkpt lat="45.93963" lon="4.78332">
        <ele>196</ele>
        <time>2017-08-09T10:26:50Z</time>
      </trkpt>
      <trkpt lat="45.93964" lon="4.78325">
        <ele>196</ele>
        <time>2017-08-09T10:26:51Z</time>
      </trkpt>
      <trkpt lat="45.93964" lon="4.78319">
        <ele>196</ele>
        <time>2017-08-09T10:26:52Z</time>
      </trkpt>
      <trkpt lat="45.93965" lon="4.78312">
        <ele>196</ele>
        <time>2017-08-09T10:26:53Z</time>
      </trkpt>
      <trkpt lat="45.93966" lon="4.78305">
        <ele>196</ele>
        <time>2017-08-09T10:26:54Z</time>
      </trkpt>
      <trkpt lat="45.93967" lon="4.78298">
        <ele>196</ele>
        <time>2017-08-09T10:26:55Z</time>
      </trkpt>
      <trkpt lat="45.93967" lon="4.7829">
        <ele>196</ele>
        <time>2017-08-09T10:26:56Z</time>
      </trkpt>
      <trkpt lat="45.93968" lon="4.78281">
        <ele>196</ele>
        <time>2017-08-09T10:26:57Z</time>
      </trkpt>
      <trkpt lat="45.93969" lon="4.78273">
        <ele>196</ele>
        <time>2017-08-09T10:26:58Z</time>
      </trkpt>
      <trkpt lat="45.93971" lon="4.78265">
        <ele>196</ele>
        <time>2017-08-09T10:26:59Z</time>
      </trkpt>
      <trkpt lat="45.93973" lon="4.78257">
        <ele>196</ele>
        <time>2017-08-09T10:27:00Z</time>
      </trkpt>
      <trkpt lat="45.93974" lon="4.78249">
        <ele>197</ele>
        <time>2017-08-09T10:27:01Z</time>
      </trkpt>
      <trkpt lat="45.93976" lon="4.7824">
        <ele>197</ele>
        <time>2017-08-09T10:27:02Z</time>
      </trkpt>
      <trkpt lat="45.93977" lon="4.78233">
        <ele>197</ele>
        <time>2017-08-09T10:27:03Z</time>
      </trkpt>
      <trkpt lat="45.93978" lon="4.78226">
        <ele>197</ele>
        <time>2017-08-09T10:27:04Z</time>
      </trkpt>
      <trkpt lat="45.9398" lon="4.78218">
        <ele>197</ele>
        <time>2017-08-09T10:27:05Z</time>
      </trkpt>
      <trkpt lat="45.93981" lon="4.78212">
        <ele>197</ele>
        <time>2017-08-09T10:27:06Z</time>
      </trkpt>
      <trkpt lat="45.93983" lon="4.78205">
        <ele>197</ele>
        <time>2017-08-09T10:27:07Z</time>
      </trkpt>
      <trkpt lat="45.93984" lon="4.78199">
        <ele>197</ele>
        <time>2017-08-09T10:27:08Z</time>
      </trkpt>
      <trkpt lat="45.93986" lon="4.78192">
        <ele>198</ele>
        <time>2017-08-09T10:27:09Z</time>
      </trkpt>
      <trkpt lat="45.93986" lon="4.78184">
        <ele>198</ele>
        <time>2017-08-09T10:27:10Z</time>
      </trkpt>
      <trkpt lat="45.93989" lon="4.78177">
        <ele>199</ele>
        <time>2017-08-09T10:27:11Z</time>
      </trkpt>
      <trkpt lat="45.93992" lon="4.78169">
        <ele>199</ele>
        <time>2017-08-09T10:27:12Z</time>
      </trkpt>
      <trkpt lat="45.93993" lon="4.7816">
        <ele>199</ele>
        <time>2017-08-09T10:27:13Z</time>
      </trkpt>
      <trkpt lat="45.93994" lon="4.78153">
        <ele>199</ele>
        <time>2017-08-09T10:27:14Z</time>
      </trkpt>
      <trkpt lat="45.93995" lon="4.78145">
        <ele>198</ele>
        <time>2017-08-09T10:27:15Z</time>
      </trkpt>
      <trkpt lat="45.93996" lon="4.78139">
        <ele>198</ele>
        <time>2017-08-09T10:27:16Z</time>
      </trkpt>
      <trkpt lat="45.93997" lon="4.78132">
        <ele>198</ele>
        <time>2017-08-09T10:27:17Z</time>
      </trkpt>
      <trkpt lat="45.93998" lon="4.78126">
        <ele>197</ele>
        <time>2017-08-09T10:27:18Z</time>
      </trkpt>
      <trkpt lat="45.93999" lon="4.78119">
        <ele>197</ele>
        <time>2017-08-09T10:27:19Z</time>
      </trkpt>
      <trkpt lat="45.94" lon="4.78112">
        <ele>202</ele>
        <time>2017-08-09T10:27:20Z</time>
      </trkpt>
      <trkpt lat="45.94002" lon="4.78105">
        <ele>202</ele>
        <time>2017-08-09T10:27:21Z</time>
      </trkpt>
      <trkpt lat="45.94004" lon="4.78099">
        <ele>202</ele>
        <time>2017-08-09T10:27:22Z</time>
      </trkpt>
      <trkpt lat="45.94005" lon="4.78092">
        <ele>201</ele>
        <time>2017-08-09T10:27:23Z</time>
      </trkpt>
      <trkpt lat="45.94006" lon="4.78085">
        <ele>200</ele>
        <time>2017-08-09T10:27:24Z</time>
      </trkpt>
      <trkpt lat="45.94007" lon="4.78078">
        <ele>200</ele>
        <time>2017-08-09T10:27:25Z</time>
      </trkpt>
      <trkpt lat="45.94008" lon="4.78071">
        <ele>201</ele>
        <time>2017-08-09T10:27:26Z</time>
      </trkpt>
      <trkpt lat="45.94008" lon="4.78059">
        <ele>201</ele>
        <time>2017-08-09T10:27:28Z</time>
      </trkpt>
      <trkpt lat="45.94009" lon="4.78053">
        <ele>201</ele>
        <time>2017-08-09T10:27:29Z</time>
      </trkpt>
      <trkpt lat="45.94009" lon="4.78044">
        <ele>201</ele>
        <time>2017-08-09T10:27:31Z</time>
      </trkpt>
      <trkpt lat="45.9401" lon="4.78039">
        <ele>201</ele>
        <time>2017-08-09T10:27:32Z</time>
      </trkpt>
      <trkpt lat="45.94013" lon="4.78029">
        <ele>201</ele>
        <time>2017-08-09T10:27:34Z</time>
      </trkpt>
      <trkpt lat="45.94014" lon="4.78024">
        <ele>201</ele>
        <time>2017-08-09T10:27:35Z</time>
      </trkpt>
      <trkpt lat="45.94016" lon="4.78011">
        <ele>200</ele>
        <time>2017-08-09T10:27:37Z</time>
      </trkpt>
      <trkpt lat="45.94017" lon="4.78005">
        <ele>200</ele>
        <time>2017-08-09T10:27:38Z</time>
      </trkpt>
      <trkpt lat="45.94019" lon="4.77996">
        <ele>199</ele>
        <time>2017-08-09T10:27:40Z</time>
      </trkpt>
      <trkpt lat="45.94021" lon="4.77991">
        <ele>200</ele>
        <time>2017-08-09T10:27:41Z</time>
      </trkpt>
      <trkpt lat="45.94025" lon="4.7798">
        <ele>200</ele>
        <time>2017-08-09T10:27:45Z</time>
      </trkpt>
      <trkpt lat="45.94026" lon="4.77978">
        <ele>200</ele>
        <time>2017-08-09T10:27:46Z</time>
      </trkpt>
      <trkpt lat="45.9403" lon="4.77966">
        <ele>201</ele>
        <time>2017-08-09T10:27:51Z</time>
      </trkpt>
      <trkpt lat="45.9403" lon="4.77964">
        <ele>201</ele>
        <time>2017-08-09T10:27:52Z</time>
      </trkpt>
      <trkpt lat="45.9403" lon="4.77953">
        <ele>201</ele>
        <time>2017-08-09T10:27:56Z</time>
      </trkpt>
      <trkpt lat="45.9403" lon="4.7795">
        <ele>200</ele>
        <time>2017-08-09T10:27:57Z</time>
      </trkpt>
      <trkpt lat="45.94032" lon="4.77938">
        <ele>200</ele>
        <time>2017-08-09T10:28:00Z</time>
      </trkpt>
      <trkpt lat="45.9403" lon="4.77934">
        <ele>200</ele>
        <time>2017-08-09T10:28:01Z</time>
      </trkpt>
      <trkpt lat="45.94023" lon="4.7793">
        <ele>199</ele>
        <time>2017-08-09T10:28:04Z</time>
      </trkpt>
      <trkpt lat="45.9402" lon="4.77932">
        <ele>199</ele>
        <time>2017-08-09T10:28:05Z</time>
      </trkpt>
      <trkpt lat="45.94019" lon="4.77938">
        <ele>199</ele>
        <time>2017-08-09T10:28:08Z</time>
      </trkpt>
      <trkpt lat="45.94019" lon="4.77939">
        <ele>199</ele>
        <time>2017-08-09T10:28:09Z</time>
      </trkpt>
      <trkpt lat="45.9402" lon="4.77945">
        <ele>200</ele>
        <time>2017-08-09T10:28:32Z</time>
      </trkpt>
      <trkpt lat="45.94021" lon="4.77946">
        <ele>200</ele>
        <time>2017-08-09T10:28:33Z</time>
      </trkpt>
      <trkpt lat="45.94025" lon="4.77939">
        <ele>200</ele>
        <time>2017-08-09T10:28:39Z</time>
      </trkpt>
      <trkpt lat="45.94028" lon="4.77933">
        <ele>200</ele>
        <time>2017-08-09T10:28:40Z</time>
      </trkpt>
      <trkpt lat="45.94022" lon="4.77929">
        <ele>199</ele>
        <time>2017-08-09T10:28:47Z</time>
      </trkpt>
      <trkpt lat="45.94016" lon="4.77934">
        <ele>199</ele>
        <time>2017-08-09T10:28:48Z</time>
      </trkpt>
      <trkpt lat="45.94009" lon="4.77939">
        <ele>198</ele>
        <time>2017-08-09T10:28:49Z</time>
      </trkpt>
      <trkpt lat="45.94004" lon="4.77944">
        <ele>198</ele>
        <time>2017-08-09T10:28:50Z</time>
      </trkpt>
      <trkpt lat="45.93998" lon="4.77949">
        <ele>192</ele>
        <time>2017-08-09T10:28:51Z</time>
      </trkpt>
      <trkpt lat="45.93994" lon="4.77954">
        <ele>192</ele>
        <time>2017-08-09T10:28:52Z</time>
      </trkpt>
      <trkpt lat="45.93987" lon="4.77959">
        <ele>192</ele>
        <time>2017-08-09T10:28:53Z</time>
      </trkpt>
      <trkpt lat="45.93981" lon="4.77964">
        <ele>191</ele>
        <time>2017-08-09T10:28:54Z</time>
      </trkpt>
      <trkpt lat="45.93974" lon="4.77968">
        <ele>191</ele>
        <time>2017-08-09T10:28:55Z</time>
      </trkpt>
      <trkpt lat="45.93968" lon="4.77973">
        <ele>191</ele>
        <time>2017-08-09T10:28:56Z</time>
      </trkpt>
      <trkpt lat="45.93961" lon="4.77978">
        <ele>190</ele>
        <time>2017-08-09T10:28:57Z</time>
      </trkpt>
      <trkpt lat="45.93953" lon="4.77984">
        <ele>190</ele>
        <time>2017-08-09T10:28:58Z</time>
      </trkpt>
      <trkpt lat="45.93946" lon="4.7799">
        <ele>189</ele>
        <time>2017-08-09T10:28:59Z</time>
      </trkpt>
      <trkpt lat="45.93939" lon="4.77996">
        <ele>189</ele>
        <time>2017-08-09T10:29:00Z</time>
      </trkpt>
      <trkpt lat="45.93933" lon="4.78001">
        <ele>189</ele>
        <time>2017-08-09T10:29:01Z</time>
      </trkpt>
      <trkpt lat="45.93925" lon="4.78006">
        <ele>188</ele>
        <time>2017-08-09T10:29:02Z</time>
      </trkpt>
      <trkpt lat="45.93918" lon="4.78011">
        <ele>188</ele>
        <time>2017-08-09T10:29:03Z</time>
      </trkpt>
      <trkpt lat="45.93914" lon="4.78013">
        <ele>185</ele>
        <time>2017-08-09T10:29:04Z</time>
      </trkpt>
      <trkpt lat="45.93907" lon="4.78014">
        <ele>185</ele>
        <time>2017-08-09T10:29:05Z</time>
      </trkpt>
      <trkpt lat="45.93901" lon="4.78014">
        <ele>185</ele>
        <time>2017-08-09T10:29:06Z</time>
      </trkpt>
      <trkpt lat="45.93895" lon="4.78011">
        <ele>184</ele>
        <time>2017-08-09T10:29:07Z</time>
      </trkpt>
      <trkpt lat="45.9389" lon="4.78007">
        <ele>184</ele>
        <time>2017-08-09T10:29:08Z</time>
      </trkpt>
      <trkpt lat="45.93884" lon="4.78003">
        <ele>184</ele>
        <time>2017-08-09T10:29:09Z</time>
      </trkpt>
      <trkpt lat="45.93878" lon="4.77999">
        <ele>180</ele>
        <time>2017-08-09T10:29:10Z</time>
      </trkpt>
      <trkpt lat="45.93868" lon="4.77994">
        <ele>180</ele>
        <time>2017-08-09T10:29:11Z</time>
      </trkpt>
      <trkpt lat="45.93862" lon="4.77991">
        <ele>179</ele>
        <time>2017-08-09T10:29:12Z</time>
      </trkpt>
      <trkpt lat="45.93857" lon="4.77987">
        <ele>179</ele>
        <time>2017-08-09T10:29:13Z</time>
      </trkpt>
      <trkpt lat="45.93853" lon="4.77983">
        <ele>179</ele>
        <time>2017-08-09T10:29:14Z</time>
      </trkpt>
      <trkpt lat="45.93849" lon="4.77978">
        <ele>178</ele>
        <time>2017-08-09T10:29:15Z</time>
      </trkpt>
      <trkpt lat="45.93843" lon="4.7797">
        <ele>178</ele>
        <time>2017-08-09T10:29:17Z</time>
      </trkpt>
      <trkpt lat="45.93839" lon="4.77966">
        <ele>177</ele>
        <time>2017-08-09T10:29:18Z</time>
      </trkpt>
      <trkpt lat="45.93834" lon="4.77962">
        <ele>177</ele>
        <time>2017-08-09T10:29:19Z</time>
      </trkpt>
      <trkpt lat="45.93828" lon="4.77959">
        <ele>170</ele>
        <time>2017-08-09T10:29:20Z</time>
      </trkpt>
      <trkpt lat="45.93822" lon="4.77954">
        <ele>170</ele>
        <time>2017-08-09T10:29:21Z</time>
      </trkpt>
      <trkpt lat="45.93817" lon="4.7795">
        <ele>169</ele>
        <time>2017-08-09T10:29:22Z</time>
      </trkpt>
      <trkpt lat="45.93813" lon="4.77946">
        <ele>169</ele>
        <time>2017-08-09T10:29:23Z</time>
      </trkpt>
      <trkpt lat="45.93809" lon="4.77942">
        <ele>169</ele>
        <time>2017-08-09T10:29:24Z</time>
      </trkpt>
      <trkpt lat="45.93802" lon="4.77934">
        <ele>168</ele>
        <time>2017-08-09T10:29:26Z</time>
      </trkpt>
      <trkpt lat="45.93799" lon="4.7793">
        <ele>168</ele>
        <time>2017-08-09T10:29:27Z</time>
      </trkpt>
      <trkpt lat="45.93795" lon="4.77925">
        <ele>168</ele>
        <time>2017-08-09T10:29:28Z</time>
      </trkpt>
      <trkpt lat="45.93792" lon="4.7792">
        <ele>168</ele>
        <time>2017-08-09T10:29:29Z</time>
      </trkpt>
      <trkpt lat="45.93788" lon="4.77915">
        <ele>166</ele>
        <time>2017-08-09T10:29:30Z</time>
      </trkpt>
      <trkpt lat="45.93784" lon="4.7791">
        <ele>166</ele>
        <time>2017-08-09T10:29:31Z</time>
      </trkpt>
      <trkpt lat="45.93778" lon="4.77901">
        <ele>166</ele>
        <time>2017-08-09T10:29:33Z</time>
      </trkpt>
      <trkpt lat="45.93774" lon="4.77896">
        <ele>166</ele>
        <time>2017-08-09T10:29:34Z</time>
      </trkpt>
      <trkpt lat="45.93771" lon="4.77892">
        <ele>166</ele>
        <time>2017-08-09T10:29:35Z</time>
      </trkpt>
      <trkpt lat="45.93768" lon="4.77887">
        <ele>166</ele>
        <time>2017-08-09T10:29:36Z</time>
      </trkpt>
      <trkpt lat="45.93765" lon="4.77882">
        <ele>166</ele>
        <time>2017-08-09T10:29:37Z</time>
      </trkpt>
      <trkpt lat="45.93762" lon="4.77877">
        <ele>166</ele>
        <time>2017-08-09T10:29:38Z</time>
      </trkpt>
      <trkpt lat="45.93756" lon="4.77868">
        <ele>166</ele>
        <time>2017-08-09T10:29:40Z</time>
      </trkpt>
      <trkpt lat="45.93753" lon="4.77864">
        <ele>166</ele>
        <time>2017-08-09T10:29:41Z</time>
      </trkpt>
      <trkpt lat="45.93746" lon="4.77856">
        <ele>167</ele>
        <time>2017-08-09T10:29:43Z</time>
      </trkpt>
      <trkpt lat="45.93743" lon="4.77851">
        <ele>167</ele>
        <time>2017-08-09T10:29:44Z</time>
      </trkpt>
      <trkpt lat="45.93737" lon="4.77842">
        <ele>167</ele>
        <time>2017-08-09T10:29:46Z</time>
      </trkpt>
      <trkpt lat="45.93734" lon="4.77838">
        <ele>167</ele>
        <time>2017-08-09T10:29:47Z</time>
      </trkpt>
      <trkpt lat="45.9373" lon="4.77834">
        <ele>167</ele>
        <time>2017-08-09T10:29:48Z</time>
      </trkpt>
      <trkpt lat="45.93727" lon="4.77829">
        <ele>168</ele>
        <time>2017-08-09T10:29:49Z</time>
      </trkpt>
      <trkpt lat="45.93723" lon="4.77825">
        <ele>168</ele>
        <time>2017-08-09T10:29:50Z</time>
      </trkpt>
      <trkpt lat="45.93719" lon="4.7782">
        <ele>169</ele>
        <time>2017-08-09T10:29:51Z</time>
      </trkpt>
      <trkpt lat="45.93715" lon="4.77815">
        <ele>169</ele>
        <time>2017-08-09T10:29:52Z</time>
      </trkpt>
      <trkpt lat="45.93712" lon="4.7781">
        <ele>169</ele>
        <time>2017-08-09T10:29:53Z</time>
      </trkpt>
      <trkpt lat="45.93708" lon="4.77804">
        <ele>169</ele>
        <time>2017-08-09T10:29:54Z</time>
      </trkpt>
      <trkpt lat="45.93704" lon="4.77798">
        <ele>169</ele>
        <time>2017-08-09T10:29:55Z</time>
      </trkpt>
      <trkpt lat="45.937" lon="4.77793">
        <ele>169</ele>
        <time>2017-08-09T10:29:56Z</time>
      </trkpt>
      <trkpt lat="45.93696" lon="4.77787">
        <ele>169</ele>
        <time>2017-08-09T10:29:57Z</time>
      </trkpt>
      <trkpt lat="45.93692" lon="4.7778">
        <ele>170</ele>
        <time>2017-08-09T10:29:58Z</time>
      </trkpt>
      <trkpt lat="45.93688" lon="4.77774">
        <ele>170</ele>
        <time>2017-08-09T10:29:59Z</time>
      </trkpt>
      <trkpt lat="45.93683" lon="4.77768">
        <ele>170</ele>
        <time>2017-08-09T10:30:00Z</time>
      </trkpt>
      <trkpt lat="45.93679" lon="4.77761">
        <ele>170</ele>
        <time>2017-08-09T10:30:01Z</time>
      </trkpt>
      <trkpt lat="45.93675" lon="4.77754">
        <ele>171</ele>
        <time>2017-08-09T10:30:02Z</time>
      </trkpt>
      <trkpt lat="45.9367" lon="4.77746">
        <ele>171</ele>
        <time>2017-08-09T10:30:03Z</time>
      </trkpt>
      <trkpt lat="45.93665" lon="4.77738">
        <ele>170</ele>
        <time>2017-08-09T10:30:04Z</time>
      </trkpt>
      <trkpt lat="45.9366" lon="4.77729">
        <ele>170</ele>
        <time>2017-08-09T10:30:05Z</time>
      </trkpt>
      <trkpt lat="45.93654" lon="4.77721">
        <ele>170</ele>
        <time>2017-08-09T10:30:06Z</time>
      </trkpt>
      <trkpt lat="45.93648" lon="4.77711">
        <ele>170</ele>
        <time>2017-08-09T10:30:07Z</time>
      </trkpt>
      <trkpt lat="45.93643" lon="4.77702">
        <ele>170</ele>
        <time>2017-08-09T10:30:08Z</time>
      </trkpt>
      <trkpt lat="45.93638" lon="4.77692">
        <ele>169</ele>
        <time>2017-08-09T10:30:09Z</time>
      </trkpt>
      <trkpt lat="45.93634" lon="4.77682">
        <ele>169</ele>
        <time>2017-08-09T10:30:10Z</time>
      </trkpt>
      <trkpt lat="45.93629" lon="4.77672">
        <ele>169</ele>
        <time>2017-08-09T10:30:11Z</time>
      </trkpt>
      <trkpt lat="45.93624" lon="4.77662">
        <ele>169</ele>
        <time>2017-08-09T10:30:12Z</time>
      </trkpt>
      <trkpt lat="45.9362" lon="4.77652">
        <ele>169</ele>
        <time>2017-08-09T10:30:13Z</time>
      </trkpt>
      <trkpt lat="45.93615" lon="4.77642">
        <ele>169</ele>
        <time>2017-08-09T10:30:14Z</time>
      </trkpt>
      <trkpt lat="45.93611" lon="4.77633">
        <ele>169</ele>
        <time>2017-08-09T10:30:15Z</time>
      </trkpt>
      <trkpt lat="45.93607" lon="4.77624">
        <ele>170</ele>
        <time>2017-08-09T10:30:16Z</time>
      </trkpt>
      <trkpt lat="45.93604" lon="4.77616">
        <ele>170</ele>
        <time>2017-08-09T10:30:17Z</time>
      </trkpt>
      <trkpt lat="45.93601" lon="4.77607">
        <ele>170</ele>
        <time>2017-08-09T10:30:18Z</time>
      </trkpt>
      <trkpt lat="45.93598" lon="4.77599">
        <ele>170</ele>
        <time>2017-08-09T10:30:19Z</time>
      </trkpt>
      <trkpt lat="45.93595" lon="4.77591">
        <ele>170</ele>
        <time>2017-08-09T10:30:20Z</time>
      </trkpt>
      <trkpt lat="45.93593" lon="4.77583">
        <ele>170</ele>
        <time>2017-08-09T10:30:21Z</time>
      </trkpt>
      <trkpt lat="45.93591" lon="4.77575">
        <ele>170</ele>
        <time>2017-08-09T10:30:22Z</time>
      </trkpt>
      <trkpt lat="45.93589" lon="4.77568">
        <ele>170</ele>
        <time>2017-08-09T10:30:23Z</time>
      </trkpt>
      <trkpt lat="45.93587" lon="4.7756">
        <ele>170</ele>
        <time>2017-08-09T10:30:24Z</time>
      </trkpt>
      <trkpt lat="45.93585" lon="4.77553">
        <ele>170</ele>
        <time>2017-08-09T10:30:25Z</time>
      </trkpt>
      <trkpt lat="45.93582" lon="4.77545">
        <ele>169</ele>
        <time>2017-08-09T10:30:26Z</time>
      </trkpt>
      <trkpt lat="45.9358" lon="4.77538">
        <ele>169</ele>
        <time>2017-08-09T10:30:27Z</time>
      </trkpt>
      <trkpt lat="45.93578" lon="4.77531">
        <ele>169</ele>
        <time>2017-08-09T10:30:28Z</time>
      </trkpt>
      <trkpt lat="45.93576" lon="4.77522">
        <ele>169</ele>
        <time>2017-08-09T10:30:29Z</time>
      </trkpt>
      <trkpt lat="45.93574" lon="4.77514">
        <ele>169</ele>
        <time>2017-08-09T10:30:30Z</time>
      </trkpt>
      <trkpt lat="45.93573" lon="4.77505">
        <ele>169</ele>
        <time>2017-08-09T10:30:31Z</time>
      </trkpt>
      <trkpt lat="45.93571" lon="4.77497">
        <ele>169</ele>
        <time>2017-08-09T10:30:32Z</time>
      </trkpt>
      <trkpt lat="45.93569" lon="4.77488">
        <ele>169</ele>
        <time>2017-08-09T10:30:33Z</time>
      </trkpt>
      <trkpt lat="45.93566" lon="4.77479">
        <ele>169</ele>
        <time>2017-08-09T10:30:34Z</time>
      </trkpt>
      <trkpt lat="45.93564" lon="4.7747">
        <ele>169</ele>
        <time>2017-08-09T10:30:35Z</time>
      </trkpt>
      <trkpt lat="45.93562" lon="4.77461">
        <ele>169</ele>
        <time>2017-08-09T10:30:36Z</time>
      </trkpt>
      <trkpt lat="45.93561" lon="4.77453">
        <ele>169</ele>
        <time>2017-08-09T10:30:37Z</time>
      </trkpt>
      <trkpt lat="45.93559" lon="4.77445">
        <ele>169</ele>
        <time>2017-08-09T10:30:38Z</time>
      </trkpt>
      <trkpt lat="45.93556" lon="4.77438">
        <ele>169</ele>
        <time>2017-08-09T10:30:39Z</time>
      </trkpt>
      <trkpt lat="45.93554" lon="4.77431">
        <ele>170</ele>
        <time>2017-08-09T10:30:40Z</time>
      </trkpt>
      <trkpt lat="45.93552" lon="4.77424">
        <ele>170</ele>
        <time>2017-08-09T10:30:41Z</time>
      </trkpt>
      <trkpt lat="45.93551" lon="4.77417">
        <ele>170</ele>
        <time>2017-08-09T10:30:42Z</time>
      </trkpt>
      <trkpt lat="45.93549" lon="4.77409">
        <ele>170</ele>
        <time>2017-08-09T10:30:43Z</time>
      </trkpt>
      <trkpt lat="45.93547" lon="4.77402">
        <ele>170</ele>
        <time>2017-08-09T10:30:44Z</time>
      </trkpt>
      <trkpt lat="45.93545" lon="4.77395">
        <ele>170</ele>
        <time>2017-08-09T10:30:45Z</time>
      </trkpt>
      <trkpt lat="45.93543" lon="4.77387">
        <ele>170</ele>
        <time>2017-08-09T10:30:46Z</time>
      </trkpt>
      <trkpt lat="45.93541" lon="4.77378">
        <ele>170</ele>
        <time>2017-08-09T10:30:47Z</time>
      </trkpt>
      <trkpt lat="45.93539" lon="4.77369">
        <ele>170</ele>
        <time>2017-08-09T10:30:48Z</time>
      </trkpt>
      <trkpt lat="45.93537" lon="4.77361">
        <ele>170</ele>
        <time>2017-08-09T10:30:49Z</time>
      </trkpt>
      <trkpt lat="45.93536" lon="4.77353">
        <ele>170</ele>
        <time>2017-08-09T10:30:50Z</time>
      </trkpt>
      <trkpt lat="45.93534" lon="4.77346">
        <ele>170</ele>
        <time>2017-08-09T10:30:51Z</time>
      </trkpt>
      <trkpt lat="45.93532" lon="4.77338">
        <ele>170</ele>
        <time>2017-08-09T10:30:52Z</time>
      </trkpt>
      <trkpt lat="45.93531" lon="4.77331">
        <ele>170</ele>
        <time>2017-08-09T10:30:53Z</time>
      </trkpt>
      <trkpt lat="45.9353" lon="4.77324">
        <ele>170</ele>
        <time>2017-08-09T10:30:54Z</time>
      </trkpt>
      <trkpt lat="45.93529" lon="4.77317">
        <ele>170</ele>
        <time>2017-08-09T10:30:55Z</time>
      </trkpt>
      <trkpt lat="45.93527" lon="4.7731">
        <ele>170</ele>
        <time>2017-08-09T10:30:56Z</time>
      </trkpt>
      <trkpt lat="45.93526" lon="4.77302">
        <ele>170</ele>
        <time>2017-08-09T10:30:57Z</time>
      </trkpt>
      <trkpt lat="45.93524" lon="4.77295">
        <ele>170</ele>
        <time>2017-08-09T10:30:58Z</time>
      </trkpt>
      <trkpt lat="45.93522" lon="4.77287">
        <ele>170</ele>
        <time>2017-08-09T10:30:59Z</time>
      </trkpt>
      <trkpt lat="45.9352" lon="4.77279">
        <ele>170</ele>
        <time>2017-08-09T10:31:00Z</time>
      </trkpt>
      <trkpt lat="45.93518" lon="4.77272">
        <ele>170</ele>
        <time>2017-08-09T10:31:01Z</time>
      </trkpt>
      <trkpt lat="45.93517" lon="4.77264">
        <ele>170</ele>
        <time>2017-08-09T10:31:02Z</time>
      </trkpt>
      <trkpt lat="45.93514" lon="4.77256">
        <ele>170</ele>
        <time>2017-08-09T10:31:03Z</time>
      </trkpt>
      <trkpt lat="45.93512" lon="4.77247">
        <ele>169</ele>
        <time>2017-08-09T10:31:04Z</time>
      </trkpt>
      <trkpt lat="45.93511" lon="4.7724">
        <ele>169</ele>
        <time>2017-08-09T10:31:05Z</time>
      </trkpt>
      <trkpt lat="45.93509" lon="4.77232">
        <ele>169</ele>
        <time>2017-08-09T10:31:06Z</time>
      </trkpt>
      <trkpt lat="45.93508" lon="4.77224">
        <ele>169</ele>
        <time>2017-08-09T10:31:07Z</time>
      </trkpt>
      <trkpt lat="45.93506" lon="4.77216">
        <ele>169</ele>
        <time>2017-08-09T10:31:08Z</time>
      </trkpt>
      <trkpt lat="45.93504" lon="4.77209">
        <ele>169</ele>
        <time>2017-08-09T10:31:09Z</time>
      </trkpt>
      <trkpt lat="45.93503" lon="4.77202">
        <ele>169</ele>
        <time>2017-08-09T10:31:10Z</time>
      </trkpt>
      <trkpt lat="45.93501" lon="4.77196">
        <ele>169</ele>
        <time>2017-08-09T10:31:11Z</time>
      </trkpt>
      <trkpt lat="45.935" lon="4.77189">
        <ele>169</ele>
        <time>2017-08-09T10:31:12Z</time>
      </trkpt>
      <trkpt lat="45.93498" lon="4.77183">
        <ele>169</ele>
        <time>2017-08-09T10:31:13Z</time>
      </trkpt>
      <trkpt lat="45.93497" lon="4.77176">
        <ele>169</ele>
        <time>2017-08-09T10:31:14Z</time>
      </trkpt>
      <trkpt lat="45.93495" lon="4.77169">
        <ele>169</ele>
        <time>2017-08-09T10:31:15Z</time>
      </trkpt>
      <trkpt lat="45.93494" lon="4.77162">
        <ele>169</ele>
        <time>2017-08-09T10:31:16Z</time>
      </trkpt>
      <trkpt lat="45.93493" lon="4.77155">
        <ele>169</ele>
        <time>2017-08-09T10:31:17Z</time>
      </trkpt>
      <trkpt lat="45.93491" lon="4.77147">
        <ele>169</ele>
        <time>2017-08-09T10:31:18Z</time>
      </trkpt>
      <trkpt lat="45.93489" lon="4.77139">
        <ele>169</ele>
        <time>2017-08-09T10:31:19Z</time>
      </trkpt>
      <trkpt lat="45.93488" lon="4.77131">
        <ele>169</ele>
        <time>2017-08-09T10:31:20Z</time>
      </trkpt>
      <trkpt lat="45.93486" lon="4.77124">
        <ele>169</ele>
        <time>2017-08-09T10:31:21Z</time>
      </trkpt>
      <trkpt lat="45.93485" lon="4.77117">
        <ele>169</ele>
        <time>2017-08-09T10:31:22Z</time>
      </trkpt>
      <trkpt lat="45.93484" lon="4.77109">
        <ele>169</ele>
        <time>2017-08-09T10:31:23Z</time>
      </trkpt>
      <trkpt lat="45.93483" lon="4.77103">
        <ele>169</ele>
        <time>2017-08-09T10:31:24Z</time>
      </trkpt>
      <trkpt lat="45.93482" lon="4.77097">
        <ele>169</ele>
        <time>2017-08-09T10:31:25Z</time>
      </trkpt>
      <trkpt lat="45.93481" lon="4.77091">
        <ele>169</ele>
        <time>2017-08-09T10:31:26Z</time>
      </trkpt>
      <trkpt lat="45.93479" lon="4.77084">
        <ele>169</ele>
        <time>2017-08-09T10:31:27Z</time>
      </trkpt>
      <trkpt lat="45.93477" lon="4.77076">
        <ele>170</ele>
        <time>2017-08-09T10:31:28Z</time>
      </trkpt>
      <trkpt lat="45.93476" lon="4.77069">
        <ele>170</ele>
        <time>2017-08-09T10:31:29Z</time>
      </trkpt>
      <trkpt lat="45.93474" lon="4.7706">
        <ele>170</ele>
        <time>2017-08-09T10:31:30Z</time>
      </trkpt>
      <trkpt lat="45.93473" lon="4.77052">
        <ele>170</ele>
        <time>2017-08-09T10:31:31Z</time>
      </trkpt>
      <trkpt lat="45.93471" lon="4.77044">
        <ele>170</ele>
        <time>2017-08-09T10:31:32Z</time>
      </trkpt>
      <trkpt lat="45.9347" lon="4.77036">
        <ele>170</ele>
        <time>2017-08-09T10:31:33Z</time>
      </trkpt>
      <trkpt lat="45.93469" lon="4.77028">
        <ele>170</ele>
        <time>2017-08-09T10:31:34Z</time>
      </trkpt>
      <trkpt lat="45.93467" lon="4.7702">
        <ele>170</ele>
        <time>2017-08-09T10:31:35Z</time>
      </trkpt>
      <trkpt lat="45.93466" lon="4.77013">
        <ele>170</ele>
        <time>2017-08-09T10:31:36Z</time>
      </trkpt>
      <trkpt lat="45.93465" lon="4.77005">
        <ele>170</ele>
        <time>2017-08-09T10:31:37Z</time>
      </trkpt>
      <trkpt lat="45.93464" lon="4.76998">
        <ele>170</ele>
        <time>2017-08-09T10:31:38Z</time>
      </trkpt>
      <trkpt lat="45.93463" lon="4.76991">
        <ele>170</ele>
        <time>2017-08-09T10:31:39Z</time>
      </trkpt>
      <trkpt lat="45.93462" lon="4.76985">
        <ele>170</ele>
        <time>2017-08-09T10:31:40Z</time>
      </trkpt>
      <trkpt lat="45.93461" lon="4.76978">
        <ele>170</ele>
        <time>2017-08-09T10:31:41Z</time>
      </trkpt>
      <trkpt lat="45.9346" lon="4.76971">
        <ele>170</ele>
        <time>2017-08-09T10:31:42Z</time>
      </trkpt>
      <trkpt lat="45.93459" lon="4.76964">
        <ele>170</ele>
        <time>2017-08-09T10:31:43Z</time>
      </trkpt>
      <trkpt lat="45.93458" lon="4.76958">
        <ele>170</ele>
        <time>2017-08-09T10:31:44Z</time>
      </trkpt>
      <trkpt lat="45.93457" lon="4.76951">
        <ele>170</ele>
        <time>2017-08-09T10:31:45Z</time>
      </trkpt>
      <trkpt lat="45.93455" lon="4.76944">
        <ele>170</ele>
        <time>2017-08-09T10:31:46Z</time>
      </trkpt>
      <trkpt lat="45.93453" lon="4.76936">
        <ele>170</ele>
        <time>2017-08-09T10:31:47Z</time>
      </trkpt>
      <trkpt lat="45.93452" lon="4.76928">
        <ele>170</ele>
        <time>2017-08-09T10:31:48Z</time>
      </trkpt>
      <trkpt lat="45.9345" lon="4.76921">
        <ele>170</ele>
        <time>2017-08-09T10:31:49Z</time>
      </trkpt>
      <trkpt lat="45.93449" lon="4.76913">
        <ele>170</ele>
        <time>2017-08-09T10:31:50Z</time>
      </trkpt>
      <trkpt lat="45.93446" lon="4.76905">
        <ele>170</ele>
        <time>2017-08-09T10:31:51Z</time>
      </trkpt>
      <trkpt lat="45.93444" lon="4.76897">
        <ele>170</ele>
        <time>2017-08-09T10:31:52Z</time>
      </trkpt>
      <trkpt lat="45.93442" lon="4.7689">
        <ele>170</ele>
        <time>2017-08-09T10:31:53Z</time>
      </trkpt>
      <trkpt lat="45.9344" lon="4.76882">
        <ele>170</ele>
        <time>2017-08-09T10:31:54Z</time>
      </trkpt>
      <trkpt lat="45.93438" lon="4.76875">
        <ele>171</ele>
        <time>2017-08-09T10:31:55Z</time>
      </trkpt>
      <trkpt lat="45.93436" lon="4.76869">
        <ele>171</ele>
        <time>2017-08-09T10:31:56Z</time>
      </trkpt>
      <trkpt lat="45.93433" lon="4.76863">
        <ele>171</ele>
        <time>2017-08-09T10:31:57Z</time>
      </trkpt>
      <trkpt lat="45.93431" lon="4.76857">
        <ele>171</ele>
        <time>2017-08-09T10:31:58Z</time>
      </trkpt>
      <trkpt lat="45.93428" lon="4.76851">
        <ele>171</ele>
        <time>2017-08-09T10:31:59Z</time>
      </trkpt>
      <trkpt lat="45.93425" lon="4.76844">
        <ele>171</ele>
        <time>2017-08-09T10:32:00Z</time>
      </trkpt>
      <trkpt lat="45.93421" lon="4.76838">
        <ele>172</ele>
        <time>2017-08-09T10:32:01Z</time>
      </trkpt>
      <trkpt lat="45.93418" lon="4.76832">
        <ele>172</ele>
        <time>2017-08-09T10:32:02Z</time>
      </trkpt>
      <trkpt lat="45.93414" lon="4.76825">
        <ele>172</ele>
        <time>2017-08-09T10:32:03Z</time>
      </trkpt>
      <trkpt lat="45.9341" lon="4.76818">
        <ele>172</ele>
        <time>2017-08-09T10:32:04Z</time>
      </trkpt>
      <trkpt lat="45.93406" lon="4.76812">
        <ele>172</ele>
        <time>2017-08-09T10:32:05Z</time>
      </trkpt>
      <trkpt lat="45.93402" lon="4.76805">
        <ele>172</ele>
        <time>2017-08-09T10:32:06Z</time>
      </trkpt>
      <trkpt lat="45.93398" lon="4.768">
        <ele>172</ele>
        <time>2017-08-09T10:32:07Z</time>
      </trkpt>
      <trkpt lat="45.93393" lon="4.76794">
        <ele>172</ele>
        <time>2017-08-09T10:32:08Z</time>
      </trkpt>
      <trkpt lat="45.93389" lon="4.7679">
        <ele>172</ele>
        <time>2017-08-09T10:32:09Z</time>
      </trkpt>
      <trkpt lat="45.93385" lon="4.76785">
        <ele>172</ele>
        <time>2017-08-09T10:32:10Z</time>
      </trkpt>
      <trkpt lat="45.9338" lon="4.7678">
        <ele>172</ele>
        <time>2017-08-09T10:32:11Z</time>
      </trkpt>
      <trkpt lat="45.93376" lon="4.76776">
        <ele>172</ele>
        <time>2017-08-09T10:32:12Z</time>
      </trkpt>
      <trkpt lat="45.93371" lon="4.76771">
        <ele>172</ele>
        <time>2017-08-09T10:32:13Z</time>
      </trkpt>
      <trkpt lat="45.93367" lon="4.76767">
        <ele>172</ele>
        <time>2017-08-09T10:32:14Z</time>
      </trkpt>
      <trkpt lat="45.93363" lon="4.76763">
        <ele>172</ele>
        <time>2017-08-09T10:32:15Z</time>
      </trkpt>
      <trkpt lat="45.93358" lon="4.76759">
        <ele>172</ele>
        <time>2017-08-09T10:32:16Z</time>
      </trkpt>
      <trkpt lat="45.93354" lon="4.76755">
        <ele>172</ele>
        <time>2017-08-09T10:32:17Z</time>
      </trkpt>
      <trkpt lat="45.9335" lon="4.76751">
        <ele>172</ele>
        <time>2017-08-09T10:32:18Z</time>
      </trkpt>
      <trkpt lat="45.93346" lon="4.76747">
        <ele>172</ele>
        <time>2017-08-09T10:32:19Z</time>
      </trkpt>
      <trkpt lat="45.93342" lon="4.76742">
        <ele>172</ele>
        <time>2017-08-09T10:32:20Z</time>
      </trkpt>
      <trkpt lat="45.93338" lon="4.76738">
        <ele>172</ele>
        <time>2017-08-09T10:32:21Z</time>
      </trkpt>
      <trkpt lat="45.93334" lon="4.76735">
        <ele>172</ele>
        <time>2017-08-09T10:32:22Z</time>
      </trkpt>
      <trkpt lat="45.9333" lon="4.76731">
        <ele>172</ele>
        <time>2017-08-09T10:32:23Z</time>
      </trkpt>
      <trkpt lat="45.93327" lon="4.76726">
        <ele>172</ele>
        <time>2017-08-09T10:32:24Z</time>
      </trkpt>
      <trkpt lat="45.93322" lon="4.7672">
        <ele>172</ele>
        <time>2017-08-09T10:32:25Z</time>
      </trkpt>
      <trkpt lat="45.93317" lon="4.76715">
        <ele>172</ele>
        <time>2017-08-09T10:32:26Z</time>
      </trkpt>
      <trkpt lat="45.93312" lon="4.7671">
        <ele>172</ele>
        <time>2017-08-09T10:32:27Z</time>
      </trkpt>
      <trkpt lat="45.93308" lon="4.76704">
        <ele>172</ele>
        <time>2017-08-09T10:32:28Z</time>
      </trkpt>
      <trkpt lat="45.93303" lon="4.76699">
        <ele>172</ele>
        <time>2017-08-09T10:32:29Z</time>
      </trkpt>
      <trkpt lat="45.93298" lon="4.76695">
        <ele>172</ele>
        <time>2017-08-09T10:32:30Z</time>
      </trkpt>
      <trkpt lat="45.93293" lon="4.7669">
        <ele>172</ele>
        <time>2017-08-09T10:32:31Z</time>
      </trkpt>
      <trkpt lat="45.93288" lon="4.76685">
        <ele>172</ele>
        <time>2017-08-09T10:32:32Z</time>
      </trkpt>
      <trkpt lat="45.93283" lon="4.76681">
        <ele>172</ele>
        <time>2017-08-09T10:32:33Z</time>
      </trkpt>
      <trkpt lat="45.93279" lon="4.76677">
        <ele>172</ele>
        <time>2017-08-09T10:32:34Z</time>
      </trkpt>
      <trkpt lat="45.93274" lon="4.76672">
        <ele>172</ele>
        <time>2017-08-09T10:32:35Z</time>
      </trkpt>
      <trkpt lat="45.9327" lon="4.76668">
        <ele>172</ele>
        <time>2017-08-09T10:32:36Z</time>
      </trkpt>
      <trkpt lat="45.93266" lon="4.76664">
        <ele>171</ele>
        <time>2017-08-09T10:32:37Z</time>
      </trkpt>
      <trkpt lat="45.93262" lon="4.7666">
        <ele>171</ele>
        <time>2017-08-09T10:32:38Z</time>
      </trkpt>
      <trkpt lat="45.93259" lon="4.76656">
        <ele>171</ele>
        <time>2017-08-09T10:32:39Z</time>
      </trkpt>
      <trkpt lat="45.93255" lon="4.76651">
        <ele>171</ele>
        <time>2017-08-09T10:32:40Z</time>
      </trkpt>
      <trkpt lat="45.93251" lon="4.76647">
        <ele>171</ele>
        <time>2017-08-09T10:32:41Z</time>
      </trkpt>
      <trkpt lat="45.93244" lon="4.7664">
        <ele>171</ele>
        <time>2017-08-09T10:32:43Z</time>
      </trkpt>
      <trkpt lat="45.93239" lon="4.76636">
        <ele>171</ele>
        <time>2017-08-09T10:32:44Z</time>
      </trkpt>
      <trkpt lat="45.93235" lon="4.76632">
        <ele>170</ele>
        <time>2017-08-09T10:32:45Z</time>
      </trkpt>
      <trkpt lat="45.9323" lon="4.76627">
        <ele>170</ele>
        <time>2017-08-09T10:32:46Z</time>
      </trkpt>
      <trkpt lat="45.93225" lon="4.76623">
        <ele>170</ele>
        <time>2017-08-09T10:32:47Z</time>
      </trkpt>
      <trkpt lat="45.93221" lon="4.76618">
        <ele>170</ele>
        <time>2017-08-09T10:32:48Z</time>
      </trkpt>
      <trkpt lat="45.93216" lon="4.76612">
        <ele>170</ele>
        <time>2017-08-09T10:32:49Z</time>
      </trkpt>
      <trkpt lat="45.93211" lon="4.76608">
        <ele>170</ele>
        <time>2017-08-09T10:32:50Z</time>
      </trkpt>
      <trkpt lat="45.93206" lon="4.76602">
        <ele>170</ele>
        <time>2017-08-09T10:32:51Z</time>
      </trkpt>
      <trkpt lat="45.932" lon="4.76597">
        <ele>170</ele>
        <time>2017-08-09T10:32:52Z</time>
      </trkpt>
      <trkpt lat="45.93195" lon="4.76592">
        <ele>170</ele>
        <time>2017-08-09T10:32:53Z</time>
      </trkpt>
      <trkpt lat="45.9319" lon="4.76586">
        <ele>170</ele>
        <time>2017-08-09T10:32:54Z</time>
      </trkpt>
      <trkpt lat="45.93185" lon="4.76582">
        <ele>170</ele>
        <time>2017-08-09T10:32:55Z</time>
      </trkpt>
      <trkpt lat="45.93181" lon="4.76577">
        <ele>170</ele>
        <time>2017-08-09T10:32:56Z</time>
      </trkpt>
      <trkpt lat="45.93176" lon="4.76572">
        <ele>170</ele>
        <time>2017-08-09T10:32:57Z</time>
      </trkpt>
      <trkpt lat="45.93171" lon="4.76568">
        <ele>170</ele>
        <time>2017-08-09T10:32:58Z</time>
      </trkpt>
      <trkpt lat="45.93166" lon="4.76563">
        <ele>170</ele>
        <time>2017-08-09T10:32:59Z</time>
      </trkpt>
      <trkpt lat="45.93162" lon="4.76559">
        <ele>170</ele>
        <time>2017-08-09T10:33:00Z</time>
      </trkpt>
      <trkpt lat="45.93158" lon="4.76555">
        <ele>170</ele>
        <time>2017-08-09T10:33:01Z</time>
      </trkpt>
      <trkpt lat="45.93154" lon="4.7655">
        <ele>170</ele>
        <time>2017-08-09T10:33:02Z</time>
      </trkpt>
      <trkpt lat="45.93149" lon="4.76545">
        <ele>170</ele>
        <time>2017-08-09T10:33:03Z</time>
      </trkpt>
      <trkpt lat="45.93145" lon="4.76541">
        <ele>170</ele>
        <time>2017-08-09T10:33:04Z</time>
      </trkpt>
      <trkpt lat="45.9314" lon="4.76535">
        <ele>170</ele>
        <time>2017-08-09T10:33:05Z</time>
      </trkpt>
      <trkpt lat="45.93136" lon="4.7653">
        <ele>170</ele>
        <time>2017-08-09T10:33:06Z</time>
      </trkpt>
      <trkpt lat="45.9313" lon="4.76526">
        <ele>170</ele>
        <time>2017-08-09T10:33:07Z</time>
      </trkpt>
      <trkpt lat="45.93124" lon="4.76521">
        <ele>170</ele>
        <time>2017-08-09T10:33:08Z</time>
      </trkpt>
      <trkpt lat="45.93119" lon="4.76515">
        <ele>170</ele>
        <time>2017-08-09T10:33:09Z</time>
      </trkpt>
      <trkpt lat="45.93114" lon="4.7651">
        <ele>170</ele>
        <time>2017-08-09T10:33:10Z</time>
      </trkpt>
      <trkpt lat="45.9311" lon="4.76506">
        <ele>170</ele>
        <time>2017-08-09T10:33:11Z</time>
      </trkpt>
      <trkpt lat="45.93105" lon="4.76501">
        <ele>170</ele>
        <time>2017-08-09T10:33:12Z</time>
      </trkpt>
      <trkpt lat="45.931" lon="4.76497">
        <ele>170</ele>
        <time>2017-08-09T10:33:13Z</time>
      </trkpt>
      <trkpt lat="45.93095" lon="4.76493">
        <ele>170</ele>
        <time>2017-08-09T10:33:14Z</time>
      </trkpt>
      <trkpt lat="45.9309" lon="4.76488">
        <ele>170</ele>
        <time>2017-08-09T10:33:15Z</time>
      </trkpt>
      <trkpt lat="45.93085" lon="4.76484">
        <ele>170</ele>
        <time>2017-08-09T10:33:16Z</time>
      </trkpt>
      <trkpt lat="45.9308" lon="4.76479">
        <ele>169</ele>
        <time>2017-08-09T10:33:17Z</time>
      </trkpt>
      <trkpt lat="45.93075" lon="4.76475">
        <ele>169</ele>
        <time>2017-08-09T10:33:18Z</time>
      </trkpt>
      <trkpt lat="45.93071" lon="4.7647">
        <ele>169</ele>
        <time>2017-08-09T10:33:19Z</time>
      </trkpt>
      <trkpt lat="45.93066" lon="4.76465">
        <ele>169</ele>
        <time>2017-08-09T10:33:20Z</time>
      </trkpt>
      <trkpt lat="45.93061" lon="4.76461">
        <ele>169</ele>
        <time>2017-08-09T10:33:21Z</time>
      </trkpt>
      <trkpt lat="45.93056" lon="4.76456">
        <ele>169</ele>
        <time>2017-08-09T10:33:22Z</time>
      </trkpt>
      <trkpt lat="45.9305" lon="4.76451">
        <ele>169</ele>
        <time>2017-08-09T10:33:23Z</time>
      </trkpt>
      <trkpt lat="45.93045" lon="4.76446">
        <ele>169</ele>
        <time>2017-08-09T10:33:24Z</time>
      </trkpt>
      <trkpt lat="45.9304" lon="4.7644">
        <ele>169</ele>
        <time>2017-08-09T10:33:25Z</time>
      </trkpt>
      <trkpt lat="45.93036" lon="4.76435">
        <ele>169</ele>
        <time>2017-08-09T10:33:26Z</time>
      </trkpt>
      <trkpt lat="45.93031" lon="4.76431">
        <ele>169</ele>
        <time>2017-08-09T10:33:27Z</time>
      </trkpt>
      <trkpt lat="45.93026" lon="4.76426">
        <ele>169</ele>
        <time>2017-08-09T10:33:28Z</time>
      </trkpt>
      <trkpt lat="45.93022" lon="4.76422">
        <ele>169</ele>
        <time>2017-08-09T10:33:29Z</time>
      </trkpt>
      <trkpt lat="45.93019" lon="4.76418">
        <ele>169</ele>
        <time>2017-08-09T10:33:30Z</time>
      </trkpt>
      <trkpt lat="45.93015" lon="4.76414">
        <ele>169</ele>
        <time>2017-08-09T10:33:31Z</time>
      </trkpt>
      <trkpt lat="45.93012" lon="4.7641">
        <ele>169</ele>
        <time>2017-08-09T10:33:32Z</time>
      </trkpt>
      <trkpt lat="45.93008" lon="4.76406">
        <ele>169</ele>
        <time>2017-08-09T10:33:33Z</time>
      </trkpt>
      <trkpt lat="45.93004" lon="4.76402">
        <ele>169</ele>
        <time>2017-08-09T10:33:34Z</time>
      </trkpt>
      <trkpt lat="45.93" lon="4.76398">
        <ele>169</ele>
        <time>2017-08-09T10:33:35Z</time>
      </trkpt>
      <trkpt lat="45.92995" lon="4.76393">
        <ele>169</ele>
        <time>2017-08-09T10:33:36Z</time>
      </trkpt>
      <trkpt lat="45.9299" lon="4.76389">
        <ele>169</ele>
        <time>2017-08-09T10:33:37Z</time>
      </trkpt>
      <trkpt lat="45.92986" lon="4.76385">
        <ele>169</ele>
        <time>2017-08-09T10:33:38Z</time>
      </trkpt>
      <trkpt lat="45.92981" lon="4.7638">
        <ele>169</ele>
        <time>2017-08-09T10:33:39Z</time>
      </trkpt>
      <trkpt lat="45.92977" lon="4.76376">
        <ele>169</ele>
        <time>2017-08-09T10:33:40Z</time>
      </trkpt>
      <trkpt lat="45.92972" lon="4.76372">
        <ele>169</ele>
        <time>2017-08-09T10:33:41Z</time>
      </trkpt>
      <trkpt lat="45.92968" lon="4.76368">
        <ele>169</ele>
        <time>2017-08-09T10:33:42Z</time>
      </trkpt>
      <trkpt lat="45.92964" lon="4.76363">
        <ele>169</ele>
        <time>2017-08-09T10:33:43Z</time>
      </trkpt>
      <trkpt lat="45.9296" lon="4.76359">
        <ele>169</ele>
        <time>2017-08-09T10:33:44Z</time>
      </trkpt>
      <trkpt lat="45.92956" lon="4.76354">
        <ele>169</ele>
        <time>2017-08-09T10:33:45Z</time>
      </trkpt>
      <trkpt lat="45.9295" lon="4.76349">
        <ele>169</ele>
        <time>2017-08-09T10:33:46Z</time>
      </trkpt>
      <trkpt lat="45.92945" lon="4.76344">
        <ele>169</ele>
        <time>2017-08-09T10:33:47Z</time>
      </trkpt>
      <trkpt lat="45.9294" lon="4.76339">
        <ele>169</ele>
        <time>2017-08-09T10:33:48Z</time>
      </trkpt>
      <trkpt lat="45.92934" lon="4.76333">
        <ele>169</ele>
        <time>2017-08-09T10:33:49Z</time>
      </trkpt>
      <trkpt lat="45.9293" lon="4.76328">
        <ele>169</ele>
        <time>2017-08-09T10:33:50Z</time>
      </trkpt>
      <trkpt lat="45.92924" lon="4.76323">
        <ele>169</ele>
        <time>2017-08-09T10:33:51Z</time>
      </trkpt>
      <trkpt lat="45.92919" lon="4.76318">
        <ele>169</ele>
        <time>2017-08-09T10:33:52Z</time>
      </trkpt>
      <trkpt lat="45.92915" lon="4.76313">
        <ele>169</ele>
        <time>2017-08-09T10:33:53Z</time>
      </trkpt>
      <trkpt lat="45.9291" lon="4.76309">
        <ele>169</ele>
        <time>2017-08-09T10:33:54Z</time>
      </trkpt>
      <trkpt lat="45.92905" lon="4.76305">
        <ele>169</ele>
        <time>2017-08-09T10:33:55Z</time>
      </trkpt>
      <trkpt lat="45.92899" lon="4.763">
        <ele>169</ele>
        <time>2017-08-09T10:33:56Z</time>
      </trkpt>
      <trkpt lat="45.92895" lon="4.76296">
        <ele>169</ele>
        <time>2017-08-09T10:33:57Z</time>
      </trkpt>
      <trkpt lat="45.92891" lon="4.76293">
        <ele>169</ele>
        <time>2017-08-09T10:33:58Z</time>
      </trkpt>
      <trkpt lat="45.92887" lon="4.76288">
        <ele>169</ele>
        <time>2017-08-09T10:33:59Z</time>
      </trkpt>
      <trkpt lat="45.92883" lon="4.76284">
        <ele>169</ele>
        <time>2017-08-09T10:34:00Z</time>
      </trkpt>
      <trkpt lat="45.92879" lon="4.76279">
        <ele>169</ele>
        <time>2017-08-09T10:34:01Z</time>
      </trkpt>
      <trkpt lat="45.92874" lon="4.76275">
        <ele>169</ele>
        <time>2017-08-09T10:34:02Z</time>
      </trkpt>
      <trkpt lat="45.9287" lon="4.7627">
        <ele>169</ele>
        <time>2017-08-09T10:34:03Z</time>
      </trkpt>
      <trkpt lat="45.92865" lon="4.76265">
        <ele>169</ele>
        <time>2017-08-09T10:34:04Z</time>
      </trkpt>
      <trkpt lat="45.9286" lon="4.7626">
        <ele>169</ele>
        <time>2017-08-09T10:34:05Z</time>
      </trkpt>
      <trkpt lat="45.92855" lon="4.76255">
        <ele>169</ele>
        <time>2017-08-09T10:34:06Z</time>
      </trkpt>
      <trkpt lat="45.92851" lon="4.7625">
        <ele>169</ele>
        <time>2017-08-09T10:34:07Z</time>
      </trkpt>
      <trkpt lat="45.92846" lon="4.76245">
        <ele>169</ele>
        <time>2017-08-09T10:34:08Z</time>
      </trkpt>
      <trkpt lat="45.92841" lon="4.76241">
        <ele>169</ele>
        <time>2017-08-09T10:34:09Z</time>
      </trkpt>
      <trkpt lat="45.92837" lon="4.76236">
        <ele>169</ele>
        <time>2017-08-09T10:34:10Z</time>
      </trkpt>
      <trkpt lat="45.92833" lon="4.76232">
        <ele>168</ele>
        <time>2017-08-09T10:34:11Z</time>
      </trkpt>
      <trkpt lat="45.92829" lon="4.76228">
        <ele>168</ele>
        <time>2017-08-09T10:34:12Z</time>
      </trkpt>
      <trkpt lat="45.92825" lon="4.76224">
        <ele>168</ele>
        <time>2017-08-09T10:34:13Z</time>
      </trkpt>
      <trkpt lat="45.9282" lon="4.7622">
        <ele>168</ele>
        <time>2017-08-09T10:34:14Z</time>
      </trkpt>
      <trkpt lat="45.92815" lon="4.76217">
        <ele>168</ele>
        <time>2017-08-09T10:34:15Z</time>
      </trkpt>
      <trkpt lat="45.9281" lon="4.76212">
        <ele>168</ele>
        <time>2017-08-09T10:34:16Z</time>
      </trkpt>
      <trkpt lat="45.92805" lon="4.76207">
        <ele>168</ele>
        <time>2017-08-09T10:34:17Z</time>
      </trkpt>
      <trkpt lat="45.928" lon="4.76202">
        <ele>168</ele>
        <time>2017-08-09T10:34:18Z</time>
      </trkpt>
      <trkpt lat="45.92796" lon="4.76198">
        <ele>168</ele>
        <time>2017-08-09T10:34:19Z</time>
      </trkpt>
      <trkpt lat="45.92792" lon="4.76193">
        <ele>168</ele>
        <time>2017-08-09T10:34:20Z</time>
      </trkpt>
      <trkpt lat="45.92787" lon="4.76189">
        <ele>168</ele>
        <time>2017-08-09T10:34:21Z</time>
      </trkpt>
      <trkpt lat="45.92782" lon="4.76183">
        <ele>168</ele>
        <time>2017-08-09T10:34:22Z</time>
      </trkpt>
      <trkpt lat="45.92776" lon="4.76179">
        <ele>167</ele>
        <time>2017-08-09T10:34:23Z</time>
      </trkpt>
      <trkpt lat="45.92771" lon="4.76175">
        <ele>167</ele>
        <time>2017-08-09T10:34:24Z</time>
      </trkpt>
      <trkpt lat="45.92767" lon="4.76171">
        <ele>167</ele>
        <time>2017-08-09T10:34:25Z</time>
      </trkpt>
      <trkpt lat="45.92763" lon="4.76168">
        <ele>167</ele>
        <time>2017-08-09T10:34:26Z</time>
      </trkpt>
      <trkpt lat="45.92759" lon="4.76164">
        <ele>167</ele>
        <time>2017-08-09T10:34:27Z</time>
      </trkpt>
      <trkpt lat="45.92755" lon="4.7616">
        <ele>167</ele>
        <time>2017-08-09T10:34:28Z</time>
      </trkpt>
      <trkpt lat="45.92751" lon="4.76157">
        <ele>167</ele>
        <time>2017-08-09T10:34:29Z</time>
      </trkpt>
      <trkpt lat="45.92746" lon="4.76153">
        <ele>168</ele>
        <time>2017-08-09T10:34:30Z</time>
      </trkpt>
      <trkpt lat="45.92741" lon="4.76149">
        <ele>168</ele>
        <time>2017-08-09T10:34:31Z</time>
      </trkpt>
      <trkpt lat="45.92736" lon="4.76145">
        <ele>168</ele>
        <time>2017-08-09T10:34:32Z</time>
      </trkpt>
      <trkpt lat="45.9273" lon="4.76141">
        <ele>168</ele>
        <time>2017-08-09T10:34:33Z</time>
      </trkpt>
      <trkpt lat="45.92725" lon="4.76138">
        <ele>168</ele>
        <time>2017-08-09T10:34:34Z</time>
      </trkpt>
      <trkpt lat="45.9272" lon="4.76134">
        <ele>168</ele>
        <time>2017-08-09T10:34:35Z</time>
      </trkpt>
      <trkpt lat="45.92716" lon="4.76131">
        <ele>168</ele>
        <time>2017-08-09T10:34:36Z</time>
      </trkpt>
      <trkpt lat="45.92711" lon="4.76127">
        <ele>168</ele>
        <time>2017-08-09T10:34:37Z</time>
      </trkpt>
      <trkpt lat="45.92707" lon="4.76124">
        <ele>169</ele>
        <time>2017-08-09T10:34:38Z</time>
      </trkpt>
      <trkpt lat="45.92702" lon="4.7612">
        <ele>169</ele>
        <time>2017-08-09T10:34:39Z</time>
      </trkpt>
      <trkpt lat="45.92698" lon="4.76116">
        <ele>169</ele>
        <time>2017-08-09T10:34:40Z</time>
      </trkpt>
      <trkpt lat="45.92693" lon="4.76113">
        <ele>169</ele>
        <time>2017-08-09T10:34:41Z</time>
      </trkpt>
      <trkpt lat="45.92688" lon="4.76109">
        <ele>169</ele>
        <time>2017-08-09T10:34:42Z</time>
      </trkpt>
      <trkpt lat="45.92683" lon="4.76105">
        <ele>169</ele>
        <time>2017-08-09T10:34:43Z</time>
      </trkpt>
      <trkpt lat="45.92679" lon="4.76101">
        <ele>169</ele>
        <time>2017-08-09T10:34:44Z</time>
      </trkpt>
      <trkpt lat="45.92674" lon="4.76098">
        <ele>169</ele>
        <time>2017-08-09T10:34:45Z</time>
      </trkpt>
      <trkpt lat="45.92669" lon="4.76094">
        <ele>170</ele>
        <time>2017-08-09T10:34:46Z</time>
      </trkpt>
      <trkpt lat="45.92664" lon="4.7609">
        <ele>170</ele>
        <time>2017-08-09T10:34:47Z</time>
      </trkpt>
      <trkpt lat="45.9266" lon="4.76086">
        <ele>170</ele>
        <time>2017-08-09T10:34:48Z</time>
      </trkpt>
      <trkpt lat="45.92654" lon="4.76082">
        <ele>170</ele>
        <time>2017-08-09T10:34:49Z</time>
      </trkpt>
      <trkpt lat="45.92649" lon="4.76079">
        <ele>170</ele>
        <time>2017-08-09T10:34:50Z</time>
      </trkpt>
      <trkpt lat="45.92644" lon="4.76075">
        <ele>170</ele>
        <time>2017-08-09T10:34:51Z</time>
      </trkpt>
      <trkpt lat="45.92639" lon="4.76071">
        <ele>170</ele>
        <time>2017-08-09T10:34:52Z</time>
      </trkpt>
      <trkpt lat="45.92634" lon="4.76067">
        <ele>170</ele>
        <time>2017-08-09T10:34:53Z</time>
      </trkpt>
      <trkpt lat="45.92629" lon="4.76063">
        <ele>170</ele>
        <time>2017-08-09T10:34:54Z</time>
      </trkpt>
      <trkpt lat="45.92623" lon="4.7606">
        <ele>171</ele>
        <time>2017-08-09T10:34:55Z</time>
      </trkpt>
      <trkpt lat="45.92618" lon="4.76056">
        <ele>171</ele>
        <time>2017-08-09T10:34:56Z</time>
      </trkpt>
      <trkpt lat="45.92612" lon="4.76052">
        <ele>171</ele>
        <time>2017-08-09T10:34:57Z</time>
      </trkpt>
      <trkpt lat="45.92608" lon="4.76048">
        <ele>171</ele>
        <time>2017-08-09T10:34:58Z</time>
      </trkpt>
      <trkpt lat="45.92603" lon="4.76044">
        <ele>171</ele>
        <time>2017-08-09T10:34:59Z</time>
      </trkpt>
      <trkpt lat="45.92598" lon="4.76041">
        <ele>171</ele>
        <time>2017-08-09T10:35:00Z</time>
      </trkpt>
      <trkpt lat="45.92594" lon="4.76037">
        <ele>171</ele>
        <time>2017-08-09T10:35:01Z</time>
      </trkpt>
      <trkpt lat="45.92591" lon="4.76034">
        <ele>171</ele>
        <time>2017-08-09T10:35:02Z</time>
      </trkpt>
      <trkpt lat="45.92583" lon="4.76028">
        <ele>172</ele>
        <time>2017-08-09T10:35:04Z</time>
      </trkpt>
      <trkpt lat="45.92579" lon="4.76026">
        <ele>172</ele>
        <time>2017-08-09T10:35:05Z</time>
      </trkpt>
      <trkpt lat="45.92571" lon="4.76021">
        <ele>172</ele>
        <time>2017-08-09T10:35:07Z</time>
      </trkpt>
      <trkpt lat="45.92567" lon="4.76018">
        <ele>172</ele>
        <time>2017-08-09T10:35:08Z</time>
      </trkpt>
      <trkpt lat="45.92563" lon="4.76015">
        <ele>172</ele>
        <time>2017-08-09T10:35:09Z</time>
      </trkpt>
      <trkpt lat="45.92559" lon="4.76012">
        <ele>172</ele>
        <time>2017-08-09T10:35:10Z</time>
      </trkpt>
      <trkpt lat="45.9255" lon="4.76008">
        <ele>172</ele>
        <time>2017-08-09T10:35:12Z</time>
      </trkpt>
      <trkpt lat="45.92547" lon="4.76005">
        <ele>172</ele>
        <time>2017-08-09T10:35:13Z</time>
      </trkpt>
      <trkpt lat="45.9254" lon="4.76">
        <ele>172</ele>
        <time>2017-08-09T10:35:15Z</time>
      </trkpt>
      <trkpt lat="45.92537" lon="4.75997">
        <ele>172</ele>
        <time>2017-08-09T10:35:16Z</time>
      </trkpt>
      <trkpt lat="45.9253" lon="4.75993">
        <ele>172</ele>
        <time>2017-08-09T10:35:18Z</time>
      </trkpt>
      <trkpt lat="45.92526" lon="4.75991">
        <ele>172</ele>
        <time>2017-08-09T10:35:19Z</time>
      </trkpt>
      <trkpt lat="45.92519" lon="4.75987">
        <ele>172</ele>
        <time>2017-08-09T10:35:21Z</time>
      </trkpt>
      <trkpt lat="45.92516" lon="4.75985">
        <ele>172</ele>
        <time>2017-08-09T10:35:22Z</time>
      </trkpt>
      <trkpt lat="45.92508" lon="4.7598">
        <ele>172</ele>
        <time>2017-08-09T10:35:24Z</time>
      </trkpt>
      <trkpt lat="45.92504" lon="4.75977">
        <ele>172</ele>
        <time>2017-08-09T10:35:25Z</time>
      </trkpt>
      <trkpt lat="45.92496" lon="4.75971">
        <ele>172</ele>
        <time>2017-08-09T10:35:27Z</time>
      </trkpt>
      <trkpt lat="45.92492" lon="4.75968">
        <ele>172</ele>
        <time>2017-08-09T10:35:28Z</time>
      </trkpt>
      <trkpt lat="45.92488" lon="4.75964">
        <ele>172</ele>
        <time>2017-08-09T10:35:29Z</time>
      </trkpt>
      <trkpt lat="45.92484" lon="4.75961">
        <ele>172</ele>
        <time>2017-08-09T10:35:30Z</time>
      </trkpt>
      <trkpt lat="45.9248" lon="4.75958">
        <ele>172</ele>
        <time>2017-08-09T10:35:31Z</time>
      </trkpt>
      <trkpt lat="45.92475" lon="4.75956">
        <ele>172</ele>
        <time>2017-08-09T10:35:32Z</time>
      </trkpt>
      <trkpt lat="45.92471" lon="4.75953">
        <ele>172</ele>
        <time>2017-08-09T10:35:33Z</time>
      </trkpt>
      <trkpt lat="45.92466" lon="4.75949">
        <ele>172</ele>
        <time>2017-08-09T10:35:34Z</time>
      </trkpt>
      <trkpt lat="45.92462" lon="4.75946">
        <ele>172</ele>
        <time>2017-08-09T10:35:35Z</time>
      </trkpt>
      <trkpt lat="45.92457" lon="4.75943">
        <ele>172</ele>
        <time>2017-08-09T10:35:36Z</time>
      </trkpt>
      <trkpt lat="45.92452" lon="4.7594">
        <ele>172</ele>
        <time>2017-08-09T10:35:37Z</time>
      </trkpt>
      <trkpt lat="45.92447" lon="4.75937">
        <ele>172</ele>
        <time>2017-08-09T10:35:38Z</time>
      </trkpt>
      <trkpt lat="45.92441" lon="4.75933">
        <ele>172</ele>
        <time>2017-08-09T10:35:39Z</time>
      </trkpt>
      <trkpt lat="45.92436" lon="4.7593">
        <ele>172</ele>
        <time>2017-08-09T10:35:40Z</time>
      </trkpt>
      <trkpt lat="45.9243" lon="4.75926">
        <ele>172</ele>
        <time>2017-08-09T10:35:41Z</time>
      </trkpt>
      <trkpt lat="45.92425" lon="4.75922">
        <ele>172</ele>
        <time>2017-08-09T10:35:42Z</time>
      </trkpt>
      <trkpt lat="45.92419" lon="4.75918">
        <ele>172</ele>
        <time>2017-08-09T10:35:43Z</time>
      </trkpt>
      <trkpt lat="45.92413" lon="4.75914">
        <ele>172</ele>
        <time>2017-08-09T10:35:44Z</time>
      </trkpt>
      <trkpt lat="45.92408" lon="4.7591">
        <ele>172</ele>
        <time>2017-08-09T10:35:45Z</time>
      </trkpt>
      <trkpt lat="45.92402" lon="4.75906">
        <ele>173</ele>
        <time>2017-08-09T10:35:46Z</time>
      </trkpt>
      <trkpt lat="45.92396" lon="4.75903">
        <ele>173</ele>
        <time>2017-08-09T10:35:47Z</time>
      </trkpt>
      <trkpt lat="45.9239" lon="4.75898">
        <ele>173</ele>
        <time>2017-08-09T10:35:48Z</time>
      </trkpt>
      <trkpt lat="45.92385" lon="4.75895">
        <ele>173</ele>
        <time>2017-08-09T10:35:49Z</time>
      </trkpt>
      <trkpt lat="45.92379" lon="4.75891">
        <ele>173</ele>
        <time>2017-08-09T10:35:50Z</time>
      </trkpt>
      <trkpt lat="45.92374" lon="4.75888">
        <ele>173</ele>
        <time>2017-08-09T10:35:51Z</time>
      </trkpt>
      <trkpt lat="45.92369" lon="4.75884">
        <ele>173</ele>
        <time>2017-08-09T10:35:52Z</time>
      </trkpt>
      <trkpt lat="45.92364" lon="4.7588">
        <ele>173</ele>
        <time>2017-08-09T10:35:53Z</time>
      </trkpt>
      <trkpt lat="45.92359" lon="4.75877">
        <ele>173</ele>
        <time>2017-08-09T10:35:54Z</time>
      </trkpt>
      <trkpt lat="45.92355" lon="4.75875">
        <ele>173</ele>
        <time>2017-08-09T10:35:55Z</time>
      </trkpt>
      <trkpt lat="45.92351" lon="4.75872">
        <ele>173</ele>
        <time>2017-08-09T10:35:56Z</time>
      </trkpt>
      <trkpt lat="45.92346" lon="4.75869">
        <ele>173</ele>
        <time>2017-08-09T10:35:57Z</time>
      </trkpt>
      <trkpt lat="45.92342" lon="4.75867">
        <ele>173</ele>
        <time>2017-08-09T10:35:58Z</time>
      </trkpt>
      <trkpt lat="45.92337" lon="4.75864">
        <ele>173</ele>
        <time>2017-08-09T10:35:59Z</time>
      </trkpt>
      <trkpt lat="45.92332" lon="4.75861">
        <ele>173</ele>
        <time>2017-08-09T10:36:00Z</time>
      </trkpt>
      <trkpt lat="45.92327" lon="4.75858">
        <ele>173</ele>
        <time>2017-08-09T10:36:01Z</time>
      </trkpt>
      <trkpt lat="45.92322" lon="4.75855">
        <ele>174</ele>
        <time>2017-08-09T10:36:02Z</time>
      </trkpt>
      <trkpt lat="45.92317" lon="4.75852">
        <ele>174</ele>
        <time>2017-08-09T10:36:03Z</time>
      </trkpt>
      <trkpt lat="45.92312" lon="4.75848">
        <ele>173</ele>
        <time>2017-08-09T10:36:04Z</time>
      </trkpt>
      <trkpt lat="45.92307" lon="4.75844">
        <ele>173</ele>
        <time>2017-08-09T10:36:05Z</time>
      </trkpt>
      <trkpt lat="45.92302" lon="4.7584">
        <ele>173</ele>
        <time>2017-08-09T10:36:06Z</time>
      </trkpt>
      <trkpt lat="45.92297" lon="4.75837">
        <ele>173</ele>
        <time>2017-08-09T10:36:07Z</time>
      </trkpt>
      <trkpt lat="45.92291" lon="4.75834">
        <ele>173</ele>
        <time>2017-08-09T10:36:08Z</time>
      </trkpt>
      <trkpt lat="45.92286" lon="4.75831">
        <ele>174</ele>
        <time>2017-08-09T10:36:09Z</time>
      </trkpt>
      <trkpt lat="45.92281" lon="4.75827">
        <ele>174</ele>
        <time>2017-08-09T10:36:10Z</time>
      </trkpt>
      <trkpt lat="45.92277" lon="4.75823">
        <ele>174</ele>
        <time>2017-08-09T10:36:11Z</time>
      </trkpt>
      <trkpt lat="45.92274" lon="4.75819">
        <ele>174</ele>
        <time>2017-08-09T10:36:12Z</time>
      </trkpt>
      <trkpt lat="45.9227" lon="4.75814">
        <ele>174</ele>
        <time>2017-08-09T10:36:13Z</time>
      </trkpt>
      <trkpt lat="45.92268" lon="4.75808">
        <ele>174</ele>
        <time>2017-08-09T10:36:14Z</time>
      </trkpt>
      <trkpt lat="45.92265" lon="4.75803">
        <ele>174</ele>
        <time>2017-08-09T10:36:15Z</time>
      </trkpt>
      <trkpt lat="45.92262" lon="4.75797">
        <ele>174</ele>
        <time>2017-08-09T10:36:16Z</time>
      </trkpt>
      <trkpt lat="45.92259" lon="4.75787">
        <ele>174</ele>
        <time>2017-08-09T10:36:18Z</time>
      </trkpt>
      <trkpt lat="45.92259" lon="4.75781">
        <ele>174</ele>
        <time>2017-08-09T10:36:19Z</time>
      </trkpt>
      <trkpt lat="45.92257" lon="4.7577">
        <ele>174</ele>
        <time>2017-08-09T10:36:21Z</time>
      </trkpt>
      <trkpt lat="45.92256" lon="4.75765">
        <ele>174</ele>
        <time>2017-08-09T10:36:22Z</time>
      </trkpt>
      <trkpt lat="45.92254" lon="4.75753">
        <ele>174</ele>
        <time>2017-08-09T10:36:24Z</time>
      </trkpt>
      <trkpt lat="45.92253" lon="4.75747">
        <ele>174</ele>
        <time>2017-08-09T10:36:25Z</time>
      </trkpt>
      <trkpt lat="45.92251" lon="4.75736">
        <ele>174</ele>
        <time>2017-08-09T10:36:27Z</time>
      </trkpt>
      <trkpt lat="45.92249" lon="4.75729">
        <ele>174</ele>
        <time>2017-08-09T10:36:28Z</time>
      </trkpt>
      <trkpt lat="45.92247" lon="4.75722">
        <ele>174</ele>
        <time>2017-08-09T10:36:29Z</time>
      </trkpt>
      <trkpt lat="45.92244" lon="4.75715">
        <ele>174</ele>
        <time>2017-08-09T10:36:30Z</time>
      </trkpt>
      <trkpt lat="45.9224" lon="4.75708">
        <ele>174</ele>
        <time>2017-08-09T10:36:31Z</time>
      </trkpt>
      <trkpt lat="45.92236" lon="4.75703">
        <ele>174</ele>
        <time>2017-08-09T10:36:32Z</time>
      </trkpt>
      <trkpt lat="45.92232" lon="4.75697">
        <ele>174</ele>
        <time>2017-08-09T10:36:33Z</time>
      </trkpt>
      <trkpt lat="45.92227" lon="4.75692">
        <ele>174</ele>
        <time>2017-08-09T10:36:34Z</time>
      </trkpt>
      <trkpt lat="45.92222" lon="4.75687">
        <ele>174</ele>
        <time>2017-08-09T10:36:35Z</time>
      </trkpt>
      <trkpt lat="45.92218" lon="4.75682">
        <ele>174</ele>
        <time>2017-08-09T10:36:36Z</time>
      </trkpt>
      <trkpt lat="45.92213" lon="4.75677">
        <ele>174</ele>
        <time>2017-08-09T10:36:37Z</time>
      </trkpt>
      <trkpt lat="45.92208" lon="4.75673">
        <ele>174</ele>
        <time>2017-08-09T10:36:38Z</time>
      </trkpt>
      <trkpt lat="45.92204" lon="4.75668">
        <ele>174</ele>
        <time>2017-08-09T10:36:39Z</time>
      </trkpt>
      <trkpt lat="45.92199" lon="4.75664">
        <ele>174</ele>
        <time>2017-08-09T10:36:40Z</time>
      </trkpt>
      <trkpt lat="45.92194" lon="4.75659">
        <ele>174</ele>
        <time>2017-08-09T10:36:41Z</time>
      </trkpt>
      <trkpt lat="45.9219" lon="4.75654">
        <ele>174</ele>
        <time>2017-08-09T10:36:42Z</time>
      </trkpt>
      <trkpt lat="45.92185" lon="4.7565">
        <ele>174</ele>
        <time>2017-08-09T10:36:43Z</time>
      </trkpt>
      <trkpt lat="45.92181" lon="4.75645">
        <ele>174</ele>
        <time>2017-08-09T10:36:44Z</time>
      </trkpt>
      <trkpt lat="45.92177" lon="4.75641">
        <ele>174</ele>
        <time>2017-08-09T10:36:45Z</time>
      </trkpt>
      <trkpt lat="45.92173" lon="4.75637">
        <ele>174</ele>
        <time>2017-08-09T10:36:46Z</time>
      </trkpt>
      <trkpt lat="45.9217" lon="4.75632">
        <ele>174</ele>
        <time>2017-08-09T10:36:47Z</time>
      </trkpt>
      <trkpt lat="45.92166" lon="4.75628">
        <ele>174</ele>
        <time>2017-08-09T10:36:48Z</time>
      </trkpt>
      <trkpt lat="45.92162" lon="4.75624">
        <ele>174</ele>
        <time>2017-08-09T10:36:49Z</time>
      </trkpt>
      <trkpt lat="45.92158" lon="4.7562">
        <ele>174</ele>
        <time>2017-08-09T10:36:50Z</time>
      </trkpt>
      <trkpt lat="45.92155" lon="4.75616">
        <ele>174</ele>
        <time>2017-08-09T10:36:51Z</time>
      </trkpt>
      <trkpt lat="45.92151" lon="4.75612">
        <ele>174</ele>
        <time>2017-08-09T10:36:52Z</time>
      </trkpt>
      <trkpt lat="45.92146" lon="4.75609">
        <ele>174</ele>
        <time>2017-08-09T10:36:53Z</time>
      </trkpt>
      <trkpt lat="45.92141" lon="4.75605">
        <ele>174</ele>
        <time>2017-08-09T10:36:54Z</time>
      </trkpt>
      <trkpt lat="45.92137" lon="4.75601">
        <ele>174</ele>
        <time>2017-08-09T10:36:55Z</time>
      </trkpt>
      <trkpt lat="45.92134" lon="4.75597">
        <ele>174</ele>
        <time>2017-08-09T10:36:56Z</time>
      </trkpt>
      <trkpt lat="45.9213" lon="4.75593">
        <ele>174</ele>
        <time>2017-08-09T10:36:57Z</time>
      </trkpt>
      <trkpt lat="45.92126" lon="4.75589">
        <ele>174</ele>
        <time>2017-08-09T10:36:58Z</time>
      </trkpt>
      <trkpt lat="45.92121" lon="4.7558">
        <ele>174</ele>
        <time>2017-08-09T10:37:00Z</time>
      </trkpt>
      <trkpt lat="45.92119" lon="4.75576">
        <ele>174</ele>
        <time>2017-08-09T10:37:01Z</time>
      </trkpt>
      <trkpt lat="45.92119" lon="4.75566">
        <ele>174</ele>
        <time>2017-08-09T10:37:03Z</time>
      </trkpt>
      <trkpt lat="45.9212" lon="4.75561">
        <ele>174</ele>
        <time>2017-08-09T10:37:04Z</time>
      </trkpt>
      <trkpt lat="45.92124" lon="4.7555">
        <ele>174</ele>
        <time>2017-08-09T10:37:06Z</time>
      </trkpt>
      <trkpt lat="45.92127" lon="4.75544">
        <ele>174</ele>
        <time>2017-08-09T10:37:07Z</time>
      </trkpt>
      <trkpt lat="45.9213" lon="4.75539">
        <ele>174</ele>
        <time>2017-08-09T10:37:08Z</time>
      </trkpt>
      <trkpt lat="45.92133" lon="4.75533">
        <ele>174</ele>
        <time>2017-08-09T10:37:09Z</time>
      </trkpt>
      <trkpt lat="45.92136" lon="4.75527">
        <ele>174</ele>
        <time>2017-08-09T10:37:10Z</time>
      </trkpt>
      <trkpt lat="45.92139" lon="4.75521">
        <ele>174</ele>
        <time>2017-08-09T10:37:11Z</time>
      </trkpt>
      <trkpt lat="45.92142" lon="4.75515">
        <ele>174</ele>
        <time>2017-08-09T10:37:12Z</time>
      </trkpt>
      <trkpt lat="45.92145" lon="4.75508">
        <ele>175</ele>
        <time>2017-08-09T10:37:13Z</time>
      </trkpt>
      <trkpt lat="45.92147" lon="4.75502">
        <ele>175</ele>
        <time>2017-08-09T10:37:14Z</time>
      </trkpt>
      <trkpt lat="45.9215" lon="4.75496">
        <ele>175</ele>
        <time>2017-08-09T10:37:15Z</time>
      </trkpt>
      <trkpt lat="45.92152" lon="4.7549">
        <ele>175</ele>
        <time>2017-08-09T10:37:16Z</time>
      </trkpt>
      <trkpt lat="45.92155" lon="4.75484">
        <ele>176</ele>
        <time>2017-08-09T10:37:17Z</time>
      </trkpt>
      <trkpt lat="45.92157" lon="4.75478">
        <ele>176</ele>
        <time>2017-08-09T10:37:18Z</time>
      </trkpt>
      <trkpt lat="45.92159" lon="4.75472">
        <ele>176</ele>
        <time>2017-08-09T10:37:19Z</time>
      </trkpt>
      <trkpt lat="45.92161" lon="4.75466">
        <ele>176</ele>
        <time>2017-08-09T10:37:20Z</time>
      </trkpt>
      <trkpt lat="45.92164" lon="4.75459">
        <ele>176</ele>
        <time>2017-08-09T10:37:21Z</time>
      </trkpt>
      <trkpt lat="45.92166" lon="4.75452">
        <ele>176</ele>
        <time>2017-08-09T10:37:22Z</time>
      </trkpt>
      <trkpt lat="45.92169" lon="4.75445">
        <ele>176</ele>
        <time>2017-08-09T10:37:23Z</time>
      </trkpt>
      <trkpt lat="45.92172" lon="4.75438">
        <ele>177</ele>
        <time>2017-08-09T10:37:24Z</time>
      </trkpt>
      <trkpt lat="45.92175" lon="4.75432">
        <ele>177</ele>
        <time>2017-08-09T10:37:25Z</time>
      </trkpt>
      <trkpt lat="45.92177" lon="4.75425">
        <ele>177</ele>
        <time>2017-08-09T10:37:26Z</time>
      </trkpt>
      <trkpt lat="45.9218" lon="4.75419">
        <ele>177</ele>
        <time>2017-08-09T10:37:27Z</time>
      </trkpt>
      <trkpt lat="45.92182" lon="4.75412">
        <ele>177</ele>
        <time>2017-08-09T10:37:28Z</time>
      </trkpt>
      <trkpt lat="45.92186" lon="4.75406">
        <ele>177</ele>
        <time>2017-08-09T10:37:29Z</time>
      </trkpt>
      <trkpt lat="45.92188" lon="4.754">
        <ele>177</ele>
        <time>2017-08-09T10:37:30Z</time>
      </trkpt>
      <trkpt lat="45.92192" lon="4.75392">
        <ele>177</ele>
        <time>2017-08-09T10:37:31Z</time>
      </trkpt>
      <trkpt lat="45.92195" lon="4.75385">
        <ele>177</ele>
        <time>2017-08-09T10:37:32Z</time>
      </trkpt>
      <trkpt lat="45.92198" lon="4.75377">
        <ele>177</ele>
        <time>2017-08-09T10:37:33Z</time>
      </trkpt>
      <trkpt lat="45.922" lon="4.75371">
        <ele>177</ele>
        <time>2017-08-09T10:37:34Z</time>
      </trkpt>
      <trkpt lat="45.92202" lon="4.75364">
        <ele>177</ele>
        <time>2017-08-09T10:37:35Z</time>
      </trkpt>
      <trkpt lat="45.92205" lon="4.75356">
        <ele>177</ele>
        <time>2017-08-09T10:37:36Z</time>
      </trkpt>
      <trkpt lat="45.92207" lon="4.75349">
        <ele>177</ele>
        <time>2017-08-09T10:37:37Z</time>
      </trkpt>
      <trkpt lat="45.92208" lon="4.75341">
        <ele>177</ele>
        <time>2017-08-09T10:37:38Z</time>
      </trkpt>
      <trkpt lat="45.9221" lon="4.75333">
        <ele>176</ele>
        <time>2017-08-09T10:37:39Z</time>
      </trkpt>
      <trkpt lat="45.92211" lon="4.75324">
        <ele>176</ele>
        <time>2017-08-09T10:37:40Z</time>
      </trkpt>
      <trkpt lat="45.92212" lon="4.75316">
        <ele>176</ele>
        <time>2017-08-09T10:37:41Z</time>
      </trkpt>
      <trkpt lat="45.92213" lon="4.75308">
        <ele>176</ele>
        <time>2017-08-09T10:37:42Z</time>
      </trkpt>
      <trkpt lat="45.92213" lon="4.753">
        <ele>176</ele>
        <time>2017-08-09T10:37:43Z</time>
      </trkpt>
      <trkpt lat="45.92214" lon="4.75291">
        <ele>176</ele>
        <time>2017-08-09T10:37:44Z</time>
      </trkpt>
      <trkpt lat="45.92214" lon="4.75283">
        <ele>176</ele>
        <time>2017-08-09T10:37:45Z</time>
      </trkpt>
      <trkpt lat="45.92214" lon="4.75274">
        <ele>176</ele>
        <time>2017-08-09T10:37:46Z</time>
      </trkpt>
      <trkpt lat="45.92214" lon="4.75266">
        <ele>176</ele>
        <time>2017-08-09T10:37:47Z</time>
      </trkpt>
      <trkpt lat="45.92215" lon="4.75257">
        <ele>175</ele>
        <time>2017-08-09T10:37:48Z</time>
      </trkpt>
      <trkpt lat="45.92215" lon="4.75249">
        <ele>175</ele>
        <time>2017-08-09T10:37:49Z</time>
      </trkpt>
      <trkpt lat="45.92216" lon="4.75241">
        <ele>175</ele>
        <time>2017-08-09T10:37:50Z</time>
      </trkpt>
      <trkpt lat="45.92217" lon="4.75232">
        <ele>175</ele>
        <time>2017-08-09T10:37:51Z</time>
      </trkpt>
      <trkpt lat="45.92217" lon="4.75224">
        <ele>175</ele>
        <time>2017-08-09T10:37:52Z</time>
      </trkpt>
      <trkpt lat="45.92219" lon="4.75215">
        <ele>175</ele>
        <time>2017-08-09T10:37:53Z</time>
      </trkpt>
      <trkpt lat="45.9222" lon="4.75206">
        <ele>175</ele>
        <time>2017-08-09T10:37:54Z</time>
      </trkpt>
      <trkpt lat="45.92221" lon="4.75198">
        <ele>175</ele>
        <time>2017-08-09T10:37:55Z</time>
      </trkpt>
      <trkpt lat="45.92223" lon="4.75189">
        <ele>175</ele>
        <time>2017-08-09T10:37:56Z</time>
      </trkpt>
      <trkpt lat="45.92226" lon="4.75181">
        <ele>175</ele>
        <time>2017-08-09T10:37:57Z</time>
      </trkpt>
      <trkpt lat="45.92229" lon="4.75173">
        <ele>175</ele>
        <time>2017-08-09T10:37:58Z</time>
      </trkpt>
      <trkpt lat="45.92232" lon="4.75164">
        <ele>174</ele>
        <time>2017-08-09T10:37:59Z</time>
      </trkpt>
      <trkpt lat="45.92236" lon="4.75157">
        <ele>174</ele>
        <time>2017-08-09T10:38:00Z</time>
      </trkpt>
      <trkpt lat="45.9224" lon="4.75151">
        <ele>174</ele>
        <time>2017-08-09T10:38:01Z</time>
      </trkpt>
      <trkpt lat="45.92243" lon="4.75144">
        <ele>174</ele>
        <time>2017-08-09T10:38:02Z</time>
      </trkpt>
      <trkpt lat="45.92247" lon="4.75138">
        <ele>174</ele>
        <time>2017-08-09T10:38:03Z</time>
      </trkpt>
      <trkpt lat="45.92251" lon="4.75131">
        <ele>174</ele>
        <time>2017-08-09T10:38:04Z</time>
      </trkpt>
      <trkpt lat="45.92255" lon="4.75126">
        <ele>174</ele>
        <time>2017-08-09T10:38:05Z</time>
      </trkpt>
      <trkpt lat="45.92259" lon="4.7512">
        <ele>174</ele>
        <time>2017-08-09T10:38:06Z</time>
      </trkpt>
      <trkpt lat="45.92263" lon="4.75116">
        <ele>174</ele>
        <time>2017-08-09T10:38:07Z</time>
      </trkpt>
      <trkpt lat="45.92268" lon="4.75111">
        <ele>174</ele>
        <time>2017-08-09T10:38:08Z</time>
      </trkpt>
      <trkpt lat="45.92272" lon="4.75106">
        <ele>174</ele>
        <time>2017-08-09T10:38:09Z</time>
      </trkpt>
      <trkpt lat="45.92276" lon="4.75102">
        <ele>173</ele>
        <time>2017-08-09T10:38:10Z</time>
      </trkpt>
      <trkpt lat="45.92281" lon="4.75097">
        <ele>173</ele>
        <time>2017-08-09T10:38:11Z</time>
      </trkpt>
      <trkpt lat="45.92285" lon="4.75093">
        <ele>173</ele>
        <time>2017-08-09T10:38:12Z</time>
      </trkpt>
      <trkpt lat="45.9229" lon="4.75088">
        <ele>173</ele>
        <time>2017-08-09T10:38:13Z</time>
      </trkpt>
      <trkpt lat="45.92295" lon="4.75082">
        <ele>172</ele>
        <time>2017-08-09T10:38:14Z</time>
      </trkpt>
      <trkpt lat="45.92301" lon="4.75076">
        <ele>172</ele>
        <time>2017-08-09T10:38:15Z</time>
      </trkpt>
      <trkpt lat="45.92306" lon="4.75069">
        <ele>172</ele>
        <time>2017-08-09T10:38:16Z</time>
      </trkpt>
      <trkpt lat="45.92311" lon="4.75062">
        <ele>172</ele>
        <time>2017-08-09T10:38:17Z</time>
      </trkpt>
      <trkpt lat="45.92316" lon="4.75055">
        <ele>172</ele>
        <time>2017-08-09T10:38:18Z</time>
      </trkpt>
      <trkpt lat="45.9232" lon="4.75048">
        <ele>172</ele>
        <time>2017-08-09T10:38:19Z</time>
      </trkpt>
      <trkpt lat="45.92325" lon="4.75041">
        <ele>171</ele>
        <time>2017-08-09T10:38:20Z</time>
      </trkpt>
      <trkpt lat="45.92329" lon="4.75034">
        <ele>171</ele>
        <time>2017-08-09T10:38:21Z</time>
      </trkpt>
      <trkpt lat="45.92333" lon="4.75026">
        <ele>171</ele>
        <time>2017-08-09T10:38:22Z</time>
      </trkpt>
      <trkpt lat="45.92336" lon="4.75019">
        <ele>170</ele>
        <time>2017-08-09T10:38:23Z</time>
      </trkpt>
      <trkpt lat="45.92339" lon="4.75012">
        <ele>170</ele>
        <time>2017-08-09T10:38:24Z</time>
      </trkpt>
      <trkpt lat="45.92342" lon="4.75004">
        <ele>170</ele>
        <time>2017-08-09T10:38:25Z</time>
      </trkpt>
      <trkpt lat="45.92345" lon="4.74997">
        <ele>170</ele>
        <time>2017-08-09T10:38:26Z</time>
      </trkpt>
      <trkpt lat="45.92348" lon="4.74989">
        <ele>170</ele>
        <time>2017-08-09T10:38:27Z</time>
      </trkpt>
      <trkpt lat="45.92351" lon="4.74982">
        <ele>170</ele>
        <time>2017-08-09T10:38:28Z</time>
      </trkpt>
      <trkpt lat="45.92354" lon="4.74975">
        <ele>170</ele>
        <time>2017-08-09T10:38:29Z</time>
      </trkpt>
      <trkpt lat="45.92357" lon="4.74967">
        <ele>170</ele>
        <time>2017-08-09T10:38:30Z</time>
      </trkpt>
      <trkpt lat="45.92361" lon="4.74958">
        <ele>170</ele>
        <time>2017-08-09T10:38:31Z</time>
      </trkpt>
      <trkpt lat="45.92364" lon="4.74949">
        <ele>170</ele>
        <time>2017-08-09T10:38:32Z</time>
      </trkpt>
      <trkpt lat="45.92367" lon="4.74941">
        <ele>170</ele>
        <time>2017-08-09T10:38:33Z</time>
      </trkpt>
      <trkpt lat="45.9237" lon="4.74934">
        <ele>170</ele>
        <time>2017-08-09T10:38:34Z</time>
      </trkpt>
      <trkpt lat="45.92373" lon="4.74927">
        <ele>170</ele>
        <time>2017-08-09T10:38:35Z</time>
      </trkpt>
      <trkpt lat="45.92376" lon="4.74919">
        <ele>170</ele>
        <time>2017-08-09T10:38:36Z</time>
      </trkpt>
      <trkpt lat="45.92379" lon="4.74912">
        <ele>171</ele>
        <time>2017-08-09T10:38:37Z</time>
      </trkpt>
      <trkpt lat="45.92382" lon="4.74904">
        <ele>171</ele>
        <time>2017-08-09T10:38:38Z</time>
      </trkpt>
      <trkpt lat="45.92384" lon="4.74897">
        <ele>171</ele>
        <time>2017-08-09T10:38:39Z</time>
      </trkpt>
      <trkpt lat="45.92387" lon="4.7489">
        <ele>171</ele>
        <time>2017-08-09T10:38:40Z</time>
      </trkpt>
      <trkpt lat="45.92389" lon="4.74882">
        <ele>171</ele>
        <time>2017-08-09T10:38:41Z</time>
      </trkpt>
      <trkpt lat="45.92392" lon="4.74875">
        <ele>171</ele>
        <time>2017-08-09T10:38:42Z</time>
      </trkpt>
      <trkpt lat="45.92395" lon="4.74867">
        <ele>171</ele>
        <time>2017-08-09T10:38:43Z</time>
      </trkpt>
      <trkpt lat="45.92398" lon="4.74859">
        <ele>171</ele>
        <time>2017-08-09T10:38:44Z</time>
      </trkpt>
      <trkpt lat="45.924" lon="4.74851">
        <ele>171</ele>
        <time>2017-08-09T10:38:45Z</time>
      </trkpt>
      <trkpt lat="45.92402" lon="4.74842">
        <ele>171</ele>
        <time>2017-08-09T10:38:46Z</time>
      </trkpt>
      <trkpt lat="45.92404" lon="4.74834">
        <ele>171</ele>
        <time>2017-08-09T10:38:47Z</time>
      </trkpt>
      <trkpt lat="45.92406" lon="4.74826">
        <ele>171</ele>
        <time>2017-08-09T10:38:48Z</time>
      </trkpt>
      <trkpt lat="45.92408" lon="4.74818">
        <ele>171</ele>
        <time>2017-08-09T10:38:49Z</time>
      </trkpt>
      <trkpt lat="45.92409" lon="4.7481">
        <ele>171</ele>
        <time>2017-08-09T10:38:50Z</time>
      </trkpt>
      <trkpt lat="45.92411" lon="4.74802">
        <ele>171</ele>
        <time>2017-08-09T10:38:51Z</time>
      </trkpt>
      <trkpt lat="45.92412" lon="4.74794">
        <ele>171</ele>
        <time>2017-08-09T10:38:52Z</time>
      </trkpt>
      <trkpt lat="45.92414" lon="4.74787">
        <ele>171</ele>
        <time>2017-08-09T10:38:53Z</time>
      </trkpt>
      <trkpt lat="45.92416" lon="4.7478">
        <ele>171</ele>
        <time>2017-08-09T10:38:54Z</time>
      </trkpt>
      <trkpt lat="45.92418" lon="4.74772">
        <ele>171</ele>
        <time>2017-08-09T10:38:55Z</time>
      </trkpt>
      <trkpt lat="45.9242" lon="4.74764">
        <ele>171</ele>
        <time>2017-08-09T10:38:56Z</time>
      </trkpt>
      <trkpt lat="45.92422" lon="4.74757">
        <ele>172</ele>
        <time>2017-08-09T10:38:57Z</time>
      </trkpt>
      <trkpt lat="45.92424" lon="4.74749">
        <ele>172</ele>
        <time>2017-08-09T10:38:58Z</time>
      </trkpt>
      <trkpt lat="45.92426" lon="4.7474">
        <ele>171</ele>
        <time>2017-08-09T10:38:59Z</time>
      </trkpt>
      <trkpt lat="45.92429" lon="4.74732">
        <ele>171</ele>
        <time>2017-08-09T10:39:00Z</time>
      </trkpt>
      <trkpt lat="45.92432" lon="4.74724">
        <ele>171</ele>
        <time>2017-08-09T10:39:01Z</time>
      </trkpt>
      <trkpt lat="45.92435" lon="4.74716">
        <ele>171</ele>
        <time>2017-08-09T10:39:02Z</time>
      </trkpt>
      <trkpt lat="45.92438" lon="4.74709">
        <ele>171</ele>
        <time>2017-08-09T10:39:03Z</time>
      </trkpt>
      <trkpt lat="45.92441" lon="4.74702">
        <ele>171</ele>
        <time>2017-08-09T10:39:04Z</time>
      </trkpt>
      <trkpt lat="45.92444" lon="4.74696">
        <ele>171</ele>
        <time>2017-08-09T10:39:05Z</time>
      </trkpt>
      <trkpt lat="45.92447" lon="4.74689">
        <ele>171</ele>
        <time>2017-08-09T10:39:06Z</time>
      </trkpt>
      <trkpt lat="45.9245" lon="4.74683">
        <ele>171</ele>
        <time>2017-08-09T10:39:07Z</time>
      </trkpt>
      <trkpt lat="45.92453" lon="4.74677">
        <ele>171</ele>
        <time>2017-08-09T10:39:08Z</time>
      </trkpt>
      <trkpt lat="45.92456" lon="4.7467">
        <ele>171</ele>
        <time>2017-08-09T10:39:09Z</time>
      </trkpt>
      <trkpt lat="45.9246" lon="4.74663">
        <ele>171</ele>
        <time>2017-08-09T10:39:10Z</time>
      </trkpt>
      <trkpt lat="45.92464" lon="4.74656">
        <ele>171</ele>
        <time>2017-08-09T10:39:11Z</time>
      </trkpt>
      <trkpt lat="45.92468" lon="4.74649">
        <ele>171</ele>
        <time>2017-08-09T10:39:12Z</time>
      </trkpt>
      <trkpt lat="45.92471" lon="4.74643">
        <ele>171</ele>
        <time>2017-08-09T10:39:13Z</time>
      </trkpt>
      <trkpt lat="45.92475" lon="4.74637">
        <ele>171</ele>
        <time>2017-08-09T10:39:14Z</time>
      </trkpt>
      <trkpt lat="45.9248" lon="4.74631">
        <ele>171</ele>
        <time>2017-08-09T10:39:15Z</time>
      </trkpt>
      <trkpt lat="45.92484" lon="4.74625">
        <ele>171</ele>
        <time>2017-08-09T10:39:16Z</time>
      </trkpt>
      <trkpt lat="45.92488" lon="4.74619">
        <ele>171</ele>
        <time>2017-08-09T10:39:17Z</time>
      </trkpt>
      <trkpt lat="45.92492" lon="4.74613">
        <ele>171</ele>
        <time>2017-08-09T10:39:18Z</time>
      </trkpt>
      <trkpt lat="45.92497" lon="4.74608">
        <ele>171</ele>
        <time>2017-08-09T10:39:19Z</time>
      </trkpt>
      <trkpt lat="45.92501" lon="4.74603">
        <ele>171</ele>
        <time>2017-08-09T10:39:20Z</time>
      </trkpt>
      <trkpt lat="45.92505" lon="4.74598">
        <ele>171</ele>
        <time>2017-08-09T10:39:21Z</time>
      </trkpt>
      <trkpt lat="45.9251" lon="4.74593">
        <ele>171</ele>
        <time>2017-08-09T10:39:22Z</time>
      </trkpt>
      <trkpt lat="45.92514" lon="4.74588">
        <ele>171</ele>
        <time>2017-08-09T10:39:23Z</time>
      </trkpt>
      <trkpt lat="45.92519" lon="4.74582">
        <ele>171</ele>
        <time>2017-08-09T10:39:24Z</time>
      </trkpt>
      <trkpt lat="45.92523" lon="4.74577">
        <ele>171</ele>
        <time>2017-08-09T10:39:25Z</time>
      </trkpt>
      <trkpt lat="45.92528" lon="4.74571">
        <ele>171</ele>
        <time>2017-08-09T10:39:26Z</time>
      </trkpt>
      <trkpt lat="45.92533" lon="4.74565">
        <ele>171</ele>
        <time>2017-08-09T10:39:27Z</time>
      </trkpt>
      <trkpt lat="45.92537" lon="4.74558">
        <ele>171</ele>
        <time>2017-08-09T10:39:28Z</time>
      </trkpt>
      <trkpt lat="45.92542" lon="4.74552">
        <ele>171</ele>
        <time>2017-08-09T10:39:29Z</time>
      </trkpt>
      <trkpt lat="45.92546" lon="4.74545">
        <ele>170</ele>
        <time>2017-08-09T10:39:30Z</time>
      </trkpt>
      <trkpt lat="45.9255" lon="4.74538">
        <ele>170</ele>
        <time>2017-08-09T10:39:31Z</time>
      </trkpt>
      <trkpt lat="45.92553" lon="4.74531">
        <ele>170</ele>
        <time>2017-08-09T10:39:32Z</time>
      </trkpt>
      <trkpt lat="45.92556" lon="4.74525">
        <ele>170</ele>
        <time>2017-08-09T10:39:33Z</time>
      </trkpt>
      <trkpt lat="45.9256" lon="4.74518">
        <ele>170</ele>
        <time>2017-08-09T10:39:34Z</time>
      </trkpt>
      <trkpt lat="45.92563" lon="4.74512">
        <ele>170</ele>
        <time>2017-08-09T10:39:35Z</time>
      </trkpt>
      <trkpt lat="45.92566" lon="4.74506">
        <ele>170</ele>
        <time>2017-08-09T10:39:36Z</time>
      </trkpt>
      <trkpt lat="45.92569" lon="4.745">
        <ele>170</ele>
        <time>2017-08-09T10:39:37Z</time>
      </trkpt>
      <trkpt lat="45.92572" lon="4.74495">
        <ele>170</ele>
        <time>2017-08-09T10:39:38Z</time>
      </trkpt>
      <trkpt lat="45.92576" lon="4.74489">
        <ele>170</ele>
        <time>2017-08-09T10:39:39Z</time>
      </trkpt>
      <trkpt lat="45.92579" lon="4.74483">
        <ele>170</ele>
        <time>2017-08-09T10:39:40Z</time>
      </trkpt>
      <trkpt lat="45.92583" lon="4.74476">
        <ele>170</ele>
        <time>2017-08-09T10:39:41Z</time>
      </trkpt>
      <trkpt lat="45.92587" lon="4.74469">
        <ele>170</ele>
        <time>2017-08-09T10:39:42Z</time>
      </trkpt>
      <trkpt lat="45.92591" lon="4.74462">
        <ele>170</ele>
        <time>2017-08-09T10:39:43Z</time>
      </trkpt>
      <trkpt lat="45.92595" lon="4.74455">
        <ele>170</ele>
        <time>2017-08-09T10:39:44Z</time>
      </trkpt>
      <trkpt lat="45.92598" lon="4.74449">
        <ele>170</ele>
        <time>2017-08-09T10:39:45Z</time>
      </trkpt>
      <trkpt lat="45.92602" lon="4.74442">
        <ele>170</ele>
        <time>2017-08-09T10:39:46Z</time>
      </trkpt>
      <trkpt lat="45.92606" lon="4.74435">
        <ele>170</ele>
        <time>2017-08-09T10:39:47Z</time>
      </trkpt>
      <trkpt lat="45.92609" lon="4.74428">
        <ele>170</ele>
        <time>2017-08-09T10:39:48Z</time>
      </trkpt>
      <trkpt lat="45.92613" lon="4.74422">
        <ele>170</ele>
        <time>2017-08-09T10:39:49Z</time>
      </trkpt>
      <trkpt lat="45.92616" lon="4.74416">
        <ele>170</ele>
        <time>2017-08-09T10:39:50Z</time>
      </trkpt>
      <trkpt lat="45.92619" lon="4.7441">
        <ele>170</ele>
        <time>2017-08-09T10:39:51Z</time>
      </trkpt>
      <trkpt lat="45.92622" lon="4.74404">
        <ele>170</ele>
        <time>2017-08-09T10:39:52Z</time>
      </trkpt>
      <trkpt lat="45.92626" lon="4.74398">
        <ele>170</ele>
        <time>2017-08-09T10:39:53Z</time>
      </trkpt>
      <trkpt lat="45.92629" lon="4.74392">
        <ele>170</ele>
        <time>2017-08-09T10:39:54Z</time>
      </trkpt>
      <trkpt lat="45.92632" lon="4.74385">
        <ele>170</ele>
        <time>2017-08-09T10:39:55Z</time>
      </trkpt>
      <trkpt lat="45.92636" lon="4.74378">
        <ele>170</ele>
        <time>2017-08-09T10:39:56Z</time>
      </trkpt>
      <trkpt lat="45.9264" lon="4.74371">
        <ele>171</ele>
        <time>2017-08-09T10:39:57Z</time>
      </trkpt>
      <trkpt lat="45.92644" lon="4.74364">
        <ele>171</ele>
        <time>2017-08-09T10:39:58Z</time>
      </trkpt>
      <trkpt lat="45.92647" lon="4.74357">
        <ele>171</ele>
        <time>2017-08-09T10:39:59Z</time>
      </trkpt>
      <trkpt lat="45.92651" lon="4.7435">
        <ele>171</ele>
        <time>2017-08-09T10:40:00Z</time>
      </trkpt>
      <trkpt lat="45.92655" lon="4.74344">
        <ele>171</ele>
        <time>2017-08-09T10:40:01Z</time>
      </trkpt>
      <trkpt lat="45.92658" lon="4.74338">
        <ele>171</ele>
        <time>2017-08-09T10:40:02Z</time>
      </trkpt>
      <trkpt lat="45.92662" lon="4.74331">
        <ele>171</ele>
        <time>2017-08-09T10:40:03Z</time>
      </trkpt>
      <trkpt lat="45.92665" lon="4.74325">
        <ele>171</ele>
        <time>2017-08-09T10:40:04Z</time>
      </trkpt>
      <trkpt lat="45.92669" lon="4.74319">
        <ele>171</ele>
        <time>2017-08-09T10:40:05Z</time>
      </trkpt>
      <trkpt lat="45.92672" lon="4.74313">
        <ele>171</ele>
        <time>2017-08-09T10:40:06Z</time>
      </trkpt>
      <trkpt lat="45.92675" lon="4.74307">
        <ele>171</ele>
        <time>2017-08-09T10:40:07Z</time>
      </trkpt>
      <trkpt lat="45.92679" lon="4.74301">
        <ele>171</ele>
        <time>2017-08-09T10:40:08Z</time>
      </trkpt>
      <trkpt lat="45.92683" lon="4.74294">
        <ele>171</ele>
        <time>2017-08-09T10:40:09Z</time>
      </trkpt>
      <trkpt lat="45.92686" lon="4.74286">
        <ele>171</ele>
        <time>2017-08-09T10:40:10Z</time>
      </trkpt>
      <trkpt lat="45.9269" lon="4.74278">
        <ele>171</ele>
        <time>2017-08-09T10:40:11Z</time>
      </trkpt>
      <trkpt lat="45.92695" lon="4.7427">
        <ele>171</ele>
        <time>2017-08-09T10:40:12Z</time>
      </trkpt>
      <trkpt lat="45.927" lon="4.74263">
        <ele>171</ele>
        <time>2017-08-09T10:40:13Z</time>
      </trkpt>
      <trkpt lat="45.92705" lon="4.74255">
        <ele>171</ele>
        <time>2017-08-09T10:40:14Z</time>
      </trkpt>
      <trkpt lat="45.92709" lon="4.74247">
        <ele>171</ele>
        <time>2017-08-09T10:40:15Z</time>
      </trkpt>
      <trkpt lat="45.92713" lon="4.7424">
        <ele>171</ele>
        <time>2017-08-09T10:40:16Z</time>
      </trkpt>
      <trkpt lat="45.92718" lon="4.74232">
        <ele>171</ele>
        <time>2017-08-09T10:40:17Z</time>
      </trkpt>
      <trkpt lat="45.92723" lon="4.74225">
        <ele>171</ele>
        <time>2017-08-09T10:40:18Z</time>
      </trkpt>
      <trkpt lat="45.92727" lon="4.74219">
        <ele>171</ele>
        <time>2017-08-09T10:40:19Z</time>
      </trkpt>
      <trkpt lat="45.92732" lon="4.74213">
        <ele>171</ele>
        <time>2017-08-09T10:40:20Z</time>
      </trkpt>
      <trkpt lat="45.92736" lon="4.74207">
        <ele>171</ele>
        <time>2017-08-09T10:40:21Z</time>
      </trkpt>
      <trkpt lat="45.92741" lon="4.74201">
        <ele>171</ele>
        <time>2017-08-09T10:40:22Z</time>
      </trkpt>
      <trkpt lat="45.92746" lon="4.74194">
        <ele>171</ele>
        <time>2017-08-09T10:40:23Z</time>
      </trkpt>
      <trkpt lat="45.9275" lon="4.74188">
        <ele>172</ele>
        <time>2017-08-09T10:40:24Z</time>
      </trkpt>
      <trkpt lat="45.92755" lon="4.74183">
        <ele>172</ele>
        <time>2017-08-09T10:40:25Z</time>
      </trkpt>
      <trkpt lat="45.9276" lon="4.74177">
        <ele>172</ele>
        <time>2017-08-09T10:40:26Z</time>
      </trkpt>
      <trkpt lat="45.92765" lon="4.74172">
        <ele>172</ele>
        <time>2017-08-09T10:40:27Z</time>
      </trkpt>
      <trkpt lat="45.9277" lon="4.74166">
        <ele>172</ele>
        <time>2017-08-09T10:40:28Z</time>
      </trkpt>
      <trkpt lat="45.92776" lon="4.74161">
        <ele>172</ele>
        <time>2017-08-09T10:40:29Z</time>
      </trkpt>
      <trkpt lat="45.92782" lon="4.74155">
        <ele>172</ele>
        <time>2017-08-09T10:40:30Z</time>
      </trkpt>
      <trkpt lat="45.92787" lon="4.74149">
        <ele>172</ele>
        <time>2017-08-09T10:40:31Z</time>
      </trkpt>
      <trkpt lat="45.92793" lon="4.74143">
        <ele>172</ele>
        <time>2017-08-09T10:40:32Z</time>
      </trkpt>
      <trkpt lat="45.92799" lon="4.74136">
        <ele>172</ele>
        <time>2017-08-09T10:40:33Z</time>
      </trkpt>
      <trkpt lat="45.92804" lon="4.74131">
        <ele>172</ele>
        <time>2017-08-09T10:40:34Z</time>
      </trkpt>
      <trkpt lat="45.92809" lon="4.74125">
        <ele>172</ele>
        <time>2017-08-09T10:40:35Z</time>
      </trkpt>
      <trkpt lat="45.92815" lon="4.74119">
        <ele>172</ele>
        <time>2017-08-09T10:40:36Z</time>
      </trkpt>
      <trkpt lat="45.9282" lon="4.74113">
        <ele>172</ele>
        <time>2017-08-09T10:40:37Z</time>
      </trkpt>
      <trkpt lat="45.92825" lon="4.74107">
        <ele>171</ele>
        <time>2017-08-09T10:40:38Z</time>
      </trkpt>
      <trkpt lat="45.9283" lon="4.74102">
        <ele>171</ele>
        <time>2017-08-09T10:40:39Z</time>
      </trkpt>
      <trkpt lat="45.92834" lon="4.74096">
        <ele>171</ele>
        <time>2017-08-09T10:40:40Z</time>
      </trkpt>
      <trkpt lat="45.92839" lon="4.74091">
        <ele>171</ele>
        <time>2017-08-09T10:40:41Z</time>
      </trkpt>
      <trkpt lat="45.92843" lon="4.74085">
        <ele>171</ele>
        <time>2017-08-09T10:40:42Z</time>
      </trkpt>
      <trkpt lat="45.92847" lon="4.7408">
        <ele>172</ele>
        <time>2017-08-09T10:40:43Z</time>
      </trkpt>
      <trkpt lat="45.92852" lon="4.74075">
        <ele>172</ele>
        <time>2017-08-09T10:40:44Z</time>
      </trkpt>
      <trkpt lat="45.92856" lon="4.7407">
        <ele>172</ele>
        <time>2017-08-09T10:40:45Z</time>
      </trkpt>
      <trkpt lat="45.9286" lon="4.74065">
        <ele>172</ele>
        <time>2017-08-09T10:40:46Z</time>
      </trkpt>
      <trkpt lat="45.92864" lon="4.7406">
        <ele>172</ele>
        <time>2017-08-09T10:40:47Z</time>
      </trkpt>
      <trkpt lat="45.92869" lon="4.74055">
        <ele>172</ele>
        <time>2017-08-09T10:40:48Z</time>
      </trkpt>
      <trkpt lat="45.92874" lon="4.74051">
        <ele>172</ele>
        <time>2017-08-09T10:40:49Z</time>
      </trkpt>
      <trkpt lat="45.9288" lon="4.74048">
        <ele>172</ele>
        <time>2017-08-09T10:40:50Z</time>
      </trkpt>
      <trkpt lat="45.92885" lon="4.74046">
        <ele>172</ele>
        <time>2017-08-09T10:40:51Z</time>
      </trkpt>
      <trkpt lat="45.92891" lon="4.74045">
        <ele>172</ele>
        <time>2017-08-09T10:40:52Z</time>
      </trkpt>
      <trkpt lat="45.92896" lon="4.74045">
        <ele>172</ele>
        <time>2017-08-09T10:40:53Z</time>
      </trkpt>
      <trkpt lat="45.92902" lon="4.74043">
        <ele>172</ele>
        <time>2017-08-09T10:40:54Z</time>
      </trkpt>
      <trkpt lat="45.92906" lon="4.7404">
        <ele>172</ele>
        <time>2017-08-09T10:40:55Z</time>
      </trkpt>
      <trkpt lat="45.9291" lon="4.74035">
        <ele>172</ele>
        <time>2017-08-09T10:40:56Z</time>
      </trkpt>
      <trkpt lat="45.92914" lon="4.74029">
        <ele>172</ele>
        <time>2017-08-09T10:40:57Z</time>
      </trkpt>
      <trkpt lat="45.92915" lon="4.7402">
        <ele>172</ele>
        <time>2017-08-09T10:40:58Z</time>
      </trkpt>
      <trkpt lat="45.92915" lon="4.74011">
        <ele>172</ele>
        <time>2017-08-09T10:40:59Z</time>
      </trkpt>
      <trkpt lat="45.92913" lon="4.74002">
        <ele>172</ele>
        <time>2017-08-09T10:41:00Z</time>
      </trkpt>
      <trkpt lat="45.92909" lon="4.73994">
        <ele>172</ele>
        <time>2017-08-09T10:41:01Z</time>
      </trkpt>
      <trkpt lat="45.92903" lon="4.73989">
        <ele>172</ele>
        <time>2017-08-09T10:41:02Z</time>
      </trkpt>
      <trkpt lat="45.92898" lon="4.73984">
        <ele>172</ele>
        <time>2017-08-09T10:41:03Z</time>
      </trkpt>
      <trkpt lat="45.92893" lon="4.73979">
        <ele>172</ele>
        <time>2017-08-09T10:41:04Z</time>
      </trkpt>
      <trkpt lat="45.9289" lon="4.73972">
        <ele>172</ele>
        <time>2017-08-09T10:41:05Z</time>
      </trkpt>
      <trkpt lat="45.92888" lon="4.73964">
        <ele>172</ele>
        <time>2017-08-09T10:41:06Z</time>
      </trkpt>
      <trkpt lat="45.92887" lon="4.73955">
        <ele>172</ele>
        <time>2017-08-09T10:41:07Z</time>
      </trkpt>
      <trkpt lat="45.92887" lon="4.73945">
        <ele>172</ele>
        <time>2017-08-09T10:41:08Z</time>
      </trkpt>
      <trkpt lat="45.92886" lon="4.73936">
        <ele>172</ele>
        <time>2017-08-09T10:41:09Z</time>
      </trkpt>
      <trkpt lat="45.92885" lon="4.73928">
        <ele>172</ele>
        <time>2017-08-09T10:41:10Z</time>
      </trkpt>
      <trkpt lat="45.92884" lon="4.73919">
        <ele>172</ele>
        <time>2017-08-09T10:41:11Z</time>
      </trkpt>
      <trkpt lat="45.92883" lon="4.7391">
        <ele>173</ele>
        <time>2017-08-09T10:41:12Z</time>
      </trkpt>
      <trkpt lat="45.92881" lon="4.73901">
        <ele>173</ele>
        <time>2017-08-09T10:41:13Z</time>
      </trkpt>
      <trkpt lat="45.9288" lon="4.73892">
        <ele>173</ele>
        <time>2017-08-09T10:41:14Z</time>
      </trkpt>
      <trkpt lat="45.92879" lon="4.73884">
        <ele>173</ele>
        <time>2017-08-09T10:41:15Z</time>
      </trkpt>
      <trkpt lat="45.92878" lon="4.73875">
        <ele>173</ele>
        <time>2017-08-09T10:41:16Z</time>
      </trkpt>
      <trkpt lat="45.92876" lon="4.73866">
        <ele>173</ele>
        <time>2017-08-09T10:41:17Z</time>
      </trkpt>
      <trkpt lat="45.92875" lon="4.73857">
        <ele>173</ele>
        <time>2017-08-09T10:41:18Z</time>
      </trkpt>
      <trkpt lat="45.92874" lon="4.73848">
        <ele>173</ele>
        <time>2017-08-09T10:41:19Z</time>
      </trkpt>
      <trkpt lat="45.92873" lon="4.73839">
        <ele>173</ele>
        <time>2017-08-09T10:41:20Z</time>
      </trkpt>
      <trkpt lat="45.92871" lon="4.7383">
        <ele>173</ele>
        <time>2017-08-09T10:41:21Z</time>
      </trkpt>
      <trkpt lat="45.92869" lon="4.73822">
        <ele>173</ele>
        <time>2017-08-09T10:41:22Z</time>
      </trkpt>
      <trkpt lat="45.92867" lon="4.73814">
        <ele>173</ele>
        <time>2017-08-09T10:41:23Z</time>
      </trkpt>
      <trkpt lat="45.92865" lon="4.73806">
        <ele>173</ele>
        <time>2017-08-09T10:41:24Z</time>
      </trkpt>
      <trkpt lat="45.92862" lon="4.738">
        <ele>173</ele>
        <time>2017-08-09T10:41:25Z</time>
      </trkpt>
      <trkpt lat="45.92859" lon="4.73795">
        <ele>173</ele>
        <time>2017-08-09T10:41:26Z</time>
      </trkpt>
      <trkpt lat="45.92854" lon="4.73792">
        <ele>173</ele>
        <time>2017-08-09T10:41:27Z</time>
      </trkpt>
      <trkpt lat="45.92849" lon="4.73789">
        <ele>173</ele>
        <time>2017-08-09T10:41:28Z</time>
      </trkpt>
      <trkpt lat="45.92844" lon="4.73785">
        <ele>173</ele>
        <time>2017-08-09T10:41:29Z</time>
      </trkpt>
      <trkpt lat="45.92839" lon="4.73781">
        <ele>173</ele>
        <time>2017-08-09T10:41:30Z</time>
      </trkpt>
      <trkpt lat="45.92834" lon="4.73777">
        <ele>172</ele>
        <time>2017-08-09T10:41:31Z</time>
      </trkpt>
      <trkpt lat="45.92829" lon="4.73774">
        <ele>173</ele>
        <time>2017-08-09T10:41:32Z</time>
      </trkpt>
      <trkpt lat="45.92824" lon="4.73771">
        <ele>173</ele>
        <time>2017-08-09T10:41:33Z</time>
      </trkpt>
      <trkpt lat="45.92818" lon="4.73767">
        <ele>173</ele>
        <time>2017-08-09T10:41:34Z</time>
      </trkpt>
      <trkpt lat="45.92813" lon="4.73765">
        <ele>173</ele>
        <time>2017-08-09T10:41:35Z</time>
      </trkpt>
      <trkpt lat="45.92807" lon="4.73762">
        <ele>173</ele>
        <time>2017-08-09T10:41:36Z</time>
      </trkpt>
      <trkpt lat="45.92802" lon="4.7376">
        <ele>173</ele>
        <time>2017-08-09T10:41:37Z</time>
      </trkpt>
      <trkpt lat="45.92794" lon="4.73753">
        <ele>173</ele>
        <time>2017-08-09T10:41:39Z</time>
      </trkpt>
      <trkpt lat="45.92791" lon="4.73749">
        <ele>172</ele>
        <time>2017-08-09T10:41:40Z</time>
      </trkpt>
      <trkpt lat="45.92786" lon="4.7374">
        <ele>172</ele>
        <time>2017-08-09T10:41:42Z</time>
      </trkpt>
      <trkpt lat="45.92782" lon="4.73736">
        <ele>172</ele>
        <time>2017-08-09T10:41:43Z</time>
      </trkpt>
      <trkpt lat="45.92777" lon="4.73733">
        <ele>172</ele>
        <time>2017-08-09T10:41:44Z</time>
      </trkpt>
      <trkpt lat="45.9277" lon="4.73731">
        <ele>172</ele>
        <time>2017-08-09T10:41:45Z</time>
      </trkpt>
      <trkpt lat="45.92764" lon="4.7373">
        <ele>172</ele>
        <time>2017-08-09T10:41:46Z</time>
      </trkpt>
      <trkpt lat="45.92758" lon="4.73729">
        <ele>172</ele>
        <time>2017-08-09T10:41:47Z</time>
      </trkpt>
      <trkpt lat="45.92753" lon="4.73727">
        <ele>172</ele>
        <time>2017-08-09T10:41:48Z</time>
      </trkpt>
      <trkpt lat="45.92747" lon="4.73725">
        <ele>173</ele>
        <time>2017-08-09T10:41:49Z</time>
      </trkpt>
      <trkpt lat="45.92741" lon="4.73724">
        <ele>173</ele>
        <time>2017-08-09T10:41:50Z</time>
      </trkpt>
      <trkpt lat="45.92736" lon="4.73723">
        <ele>173</ele>
        <time>2017-08-09T10:41:51Z</time>
      </trkpt>
      <trkpt lat="45.92729" lon="4.73722">
        <ele>173</ele>
        <time>2017-08-09T10:41:52Z</time>
      </trkpt>
      <trkpt lat="45.92724" lon="4.7372">
        <ele>173</ele>
        <time>2017-08-09T10:41:53Z</time>
      </trkpt>
      <trkpt lat="45.92719" lon="4.73717">
        <ele>173</ele>
        <time>2017-08-09T10:41:54Z</time>
      </trkpt>
      <trkpt lat="45.92714" lon="4.73716">
        <ele>173</ele>
        <time>2017-08-09T10:41:55Z</time>
      </trkpt>
      <trkpt lat="45.92709" lon="4.73714">
        <ele>173</ele>
        <time>2017-08-09T10:41:56Z</time>
      </trkpt>
      <trkpt lat="45.92704" lon="4.73714">
        <ele>173</ele>
        <time>2017-08-09T10:41:57Z</time>
      </trkpt>
      <trkpt lat="45.92699" lon="4.73713">
        <ele>173</ele>
        <time>2017-08-09T10:41:58Z</time>
      </trkpt>
      <trkpt lat="45.92694" lon="4.73713">
        <ele>173</ele>
        <time>2017-08-09T10:41:59Z</time>
      </trkpt>
      <trkpt lat="45.92685" lon="4.73711">
        <ele>173</ele>
        <time>2017-08-09T10:42:01Z</time>
      </trkpt>
      <trkpt lat="45.92681" lon="4.73708">
        <ele>173</ele>
        <time>2017-08-09T10:42:02Z</time>
      </trkpt>
      <trkpt lat="45.92673" lon="4.73703">
        <ele>174</ele>
        <time>2017-08-09T10:42:04Z</time>
      </trkpt>
      <trkpt lat="45.92669" lon="4.737">
        <ele>174</ele>
        <time>2017-08-09T10:42:05Z</time>
      </trkpt>
      <trkpt lat="45.92664" lon="4.73697">
        <ele>173</ele>
        <time>2017-08-09T10:42:06Z</time>
      </trkpt>
      <trkpt lat="45.9266" lon="4.73693">
        <ele>173</ele>
        <time>2017-08-09T10:42:07Z</time>
      </trkpt>
      <trkpt lat="45.92655" lon="4.73689">
        <ele>173</ele>
        <time>2017-08-09T10:42:08Z</time>
      </trkpt>
      <trkpt lat="45.92651" lon="4.73684">
        <ele>173</ele>
        <time>2017-08-09T10:42:09Z</time>
      </trkpt>
      <trkpt lat="45.92647" lon="4.73679">
        <ele>173</ele>
        <time>2017-08-09T10:42:10Z</time>
      </trkpt>
      <trkpt lat="45.92644" lon="4.73673">
        <ele>173</ele>
        <time>2017-08-09T10:42:11Z</time>
      </trkpt>
      <trkpt lat="45.92641" lon="4.73668">
        <ele>173</ele>
        <time>2017-08-09T10:42:12Z</time>
      </trkpt>
      <trkpt lat="45.92638" lon="4.73661">
        <ele>173</ele>
        <time>2017-08-09T10:42:13Z</time>
      </trkpt>
      <trkpt lat="45.92636" lon="4.73655">
        <ele>173</ele>
        <time>2017-08-09T10:42:14Z</time>
      </trkpt>
      <trkpt lat="45.92634" lon="4.73649">
        <ele>173</ele>
        <time>2017-08-09T10:42:15Z</time>
      </trkpt>
      <trkpt lat="45.9263" lon="4.73638">
        <ele>173</ele>
        <time>2017-08-09T10:42:17Z</time>
      </trkpt>
      <trkpt lat="45.92627" lon="4.73633">
        <ele>173</ele>
        <time>2017-08-09T10:42:18Z</time>
      </trkpt>
      <trkpt lat="45.92624" lon="4.73628">
        <ele>173</ele>
        <time>2017-08-09T10:42:19Z</time>
      </trkpt>
      <trkpt lat="45.92619" lon="4.73624">
        <ele>173</ele>
        <time>2017-08-09T10:42:20Z</time>
      </trkpt>
      <trkpt lat="45.92611" lon="4.73621">
        <ele>173</ele>
        <time>2017-08-09T10:42:22Z</time>
      </trkpt>
      <trkpt lat="45.92607" lon="4.73621">
        <ele>173</ele>
        <time>2017-08-09T10:42:23Z</time>
      </trkpt>
      <trkpt lat="45.92602" lon="4.73621">
        <ele>173</ele>
        <time>2017-08-09T10:42:24Z</time>
      </trkpt>
      <trkpt lat="45.92596" lon="4.73621">
        <ele>173</ele>
        <time>2017-08-09T10:42:25Z</time>
      </trkpt>
      <trkpt lat="45.92591" lon="4.73622">
        <ele>173</ele>
        <time>2017-08-09T10:42:26Z</time>
      </trkpt>
      <trkpt lat="45.92585" lon="4.73624">
        <ele>172</ele>
        <time>2017-08-09T10:42:27Z</time>
      </trkpt>
      <trkpt lat="45.9258" lon="4.73625">
        <ele>173</ele>
        <time>2017-08-09T10:42:28Z</time>
      </trkpt>
      <trkpt lat="45.92575" lon="4.73627">
        <ele>173</ele>
        <time>2017-08-09T10:42:29Z</time>
      </trkpt>
      <trkpt lat="45.92569" lon="4.73627">
        <ele>173</ele>
        <time>2017-08-09T10:42:30Z</time>
      </trkpt>
      <trkpt lat="45.92565" lon="4.73629">
        <ele>173</ele>
        <time>2017-08-09T10:42:31Z</time>
      </trkpt>
      <trkpt lat="45.92559" lon="4.7363">
        <ele>173</ele>
        <time>2017-08-09T10:42:32Z</time>
      </trkpt>
      <trkpt lat="45.92552" lon="4.73632">
        <ele>173</ele>
        <time>2017-08-09T10:42:33Z</time>
      </trkpt>
      <trkpt lat="45.92546" lon="4.73634">
        <ele>173</ele>
        <time>2017-08-09T10:42:34Z</time>
      </trkpt>
      <trkpt lat="45.92541" lon="4.73635">
        <ele>173</ele>
        <time>2017-08-09T10:42:35Z</time>
      </trkpt>
      <trkpt lat="45.92535" lon="4.73636">
        <ele>173</ele>
        <time>2017-08-09T10:42:36Z</time>
      </trkpt>
      <trkpt lat="45.9253" lon="4.73637">
        <ele>173</ele>
        <time>2017-08-09T10:42:37Z</time>
      </trkpt>
      <trkpt lat="45.92524" lon="4.73637">
        <ele>173</ele>
        <time>2017-08-09T10:42:38Z</time>
      </trkpt>
      <trkpt lat="45.9252" lon="4.73638">
        <ele>173</ele>
        <time>2017-08-09T10:42:39Z</time>
      </trkpt>
      <trkpt lat="45.92512" lon="4.73638">
        <ele>174</ele>
        <time>2017-08-09T10:42:41Z</time>
      </trkpt>
      <trkpt lat="45.92508" lon="4.73638">
        <ele>174</ele>
        <time>2017-08-09T10:42:42Z</time>
      </trkpt>
      <trkpt lat="45.92501" lon="4.73639">
        <ele>174</ele>
        <time>2017-08-09T10:42:44Z</time>
      </trkpt>
      <trkpt lat="45.92497" lon="4.7364">
        <ele>174</ele>
        <time>2017-08-09T10:42:45Z</time>
      </trkpt>
      <trkpt lat="45.9249" lon="4.73639">
        <ele>174</ele>
        <time>2017-08-09T10:42:47Z</time>
      </trkpt>
      <trkpt lat="45.92486" lon="4.73639">
        <ele>174</ele>
        <time>2017-08-09T10:42:48Z</time>
      </trkpt>
      <trkpt lat="45.92478" lon="4.73642">
        <ele>174</ele>
        <time>2017-08-09T10:42:50Z</time>
      </trkpt>
      <trkpt lat="45.92473" lon="4.73645">
        <ele>174</ele>
        <time>2017-08-09T10:42:51Z</time>
      </trkpt>
      <trkpt lat="45.92469" lon="4.73654">
        <ele>174</ele>
        <time>2017-08-09T10:42:53Z</time>
      </trkpt>
      <trkpt lat="45.92468" lon="4.73658">
        <ele>174</ele>
        <time>2017-08-09T10:42:54Z</time>
      </trkpt>
      <trkpt lat="45.92466" lon="4.73667">
        <ele>174</ele>
        <time>2017-08-09T10:42:56Z</time>
      </trkpt>
      <trkpt lat="45.92465" lon="4.73672">
        <ele>174</ele>
        <time>2017-08-09T10:42:57Z</time>
      </trkpt>
      <trkpt lat="45.92464" lon="4.73681">
        <ele>174</ele>
        <time>2017-08-09T10:42:59Z</time>
      </trkpt>
      <trkpt lat="45.92462" lon="4.73686">
        <ele>174</ele>
        <time>2017-08-09T10:43:00Z</time>
      </trkpt>
      <trkpt lat="45.92461" lon="4.73695">
        <ele>174</ele>
        <time>2017-08-09T10:43:02Z</time>
      </trkpt>
      <trkpt lat="45.92461" lon="4.73699">
        <ele>174</ele>
        <time>2017-08-09T10:43:03Z</time>
      </trkpt>
      <trkpt lat="45.9246" lon="4.73702">
        <ele>174</ele>
        <time>2017-08-09T10:43:04Z</time>
      </trkpt>
      <trkpt lat="45.9246" lon="4.73704">
        <ele>174</ele>
        <time>2017-08-09T10:43:05Z</time>
      </trkpt>
      <trkpt lat="45.9246" lon="4.73705">
        <ele>174</ele>
        <time>2017-08-09T10:43:38.613Z</time>
      </trkpt>
    </trkseg>
  </trk>
</gpx>